<?xml version="1.0" encoding="UTF-8" standalone="no" ?>
<gpx xmlns="http://www.topografix.com/GPX/1/1" xmlns:xsi="http://www.w3.org/2001/XMLSchema-instance" xsi:schemaLocation="http://www.topografix.com/GPX/1/1 http://www.topografix.com/GPX/1/1/gpx.xsd" version="1.1" creator="VisuGPX - https://www.visugpx.com">
  <metadata>
    <name>2016-11-12 Bike ride-La Croix du Ban-St Roch</name>
    <desc><![CDATA[2016-11-12 Bike ride-La Croix du Ban-St Roch]]></desc>
  </metadata>
  <wpt lat="45.92508" lon="4.73629">
    <ele>173</ele>
    <name><![CDATA[2016-11-12 10:34 (Start)]]></name>
  </wpt>
  <wpt lat="45.92456" lon="4.73724">
    <ele>174</ele>
    <name><![CDATA[2016-11-12 10:34 (End)]]></name>
    <desc><![CDATA[Created by Google My Tracks on Android  Name: 2016-11-12 10:34 Activity type: biking Description: - Total distance: 48.60 km (30.2 mi) Total time: 3:12:57 Moving time: 2:58:48 Average speed: 15.11 km/h (9.4 mi/h) Average moving speed: 16.31 km/h (10.1 mi/h) Max speed: 42.65 km/h (26.5 mi/h) Average pace: 3:58 min/km (6:23 min/mi) Average moving pace: 3:41 min/km (5:55 min/mi) Fastest pace: 1:24 min/km (2:16 min/mi) Max elevation: 514 m (1686 ft) Min elevation: 87 m (285 ft) Elevation gain: 1364 m (4476 ft) Max grade: 46 % Min grade: -29 % Recorded: 12/11/2016 10:34]]></desc>
  </wpt>
  <trk>
    <name><![CDATA[2016-11-12 10:34]]></name>
    <trkseg>
      <trkpt lat="45.92508" lon="4.73629">
        <ele>173</ele>
        <time>2016-11-12T09:34:37.727Z</time>
      </trkpt>
      <trkpt lat="45.92504" lon="4.73638">
        <ele>174</ele>
        <time>2016-11-12T09:35:14Z</time>
      </trkpt>
      <trkpt lat="45.92497" lon="4.73652">
        <ele>175</ele>
        <time>2016-11-12T09:35:15Z</time>
      </trkpt>
      <trkpt lat="45.92491" lon="4.73662">
        <ele>175</ele>
        <time>2016-11-12T09:35:16Z</time>
      </trkpt>
      <trkpt lat="45.92486" lon="4.7367">
        <ele>175</ele>
        <time>2016-11-12T09:35:17Z</time>
      </trkpt>
      <trkpt lat="45.92479" lon="4.73674">
        <ele>175</ele>
        <time>2016-11-12T09:35:19Z</time>
      </trkpt>
      <trkpt lat="45.92464" lon="4.7367">
        <ele>174</ele>
        <time>2016-11-12T09:35:20Z</time>
      </trkpt>
      <trkpt lat="45.92459" lon="4.73667">
        <ele>174</ele>
        <time>2016-11-12T09:35:21Z</time>
      </trkpt>
      <trkpt lat="45.92454" lon="4.73663">
        <ele>174</ele>
        <time>2016-11-12T09:35:22Z</time>
      </trkpt>
      <trkpt lat="45.9245" lon="4.7367">
        <ele>174</ele>
        <time>2016-11-12T09:35:24Z</time>
      </trkpt>
      <trkpt lat="45.9245" lon="4.73675">
        <ele>174</ele>
        <time>2016-11-12T09:35:25Z</time>
      </trkpt>
      <trkpt lat="45.9245" lon="4.73686">
        <ele>174</ele>
        <time>2016-11-12T09:35:27Z</time>
      </trkpt>
      <trkpt lat="45.92449" lon="4.73696">
        <ele>174</ele>
        <time>2016-11-12T09:35:32Z</time>
      </trkpt>
      <trkpt lat="45.92453" lon="4.737">
        <ele>174</ele>
        <time>2016-11-12T09:35:35Z</time>
      </trkpt>
      <trkpt lat="45.92454" lon="4.73701">
        <ele>174</ele>
        <time>2016-11-12T09:35:36Z</time>
      </trkpt>
      <trkpt lat="45.92455" lon="4.73699">
        <ele>174</ele>
        <time>2016-11-12T09:35:50Z</time>
      </trkpt>
      <trkpt lat="45.92457" lon="4.737">
        <ele>174</ele>
        <time>2016-11-12T09:35:51Z</time>
      </trkpt>
      <trkpt lat="45.92462" lon="4.73692">
        <ele>174</ele>
        <time>2016-11-12T09:35:55Z</time>
      </trkpt>
      <trkpt lat="45.92462" lon="4.73687">
        <ele>174</ele>
        <time>2016-11-12T09:35:56Z</time>
      </trkpt>
      <trkpt lat="45.92463" lon="4.73678">
        <ele>174</ele>
        <time>2016-11-12T09:35:58Z</time>
      </trkpt>
      <trkpt lat="45.92464" lon="4.73673">
        <ele>174</ele>
        <time>2016-11-12T09:35:59Z</time>
      </trkpt>
      <trkpt lat="45.92465" lon="4.73661">
        <ele>174</ele>
        <time>2016-11-12T09:36:02Z</time>
      </trkpt>
      <trkpt lat="45.92465" lon="4.73656">
        <ele>174</ele>
        <time>2016-11-12T09:36:03Z</time>
      </trkpt>
      <trkpt lat="45.92467" lon="4.73647">
        <ele>174</ele>
        <time>2016-11-12T09:36:05Z</time>
      </trkpt>
      <trkpt lat="45.92471" lon="4.73643">
        <ele>174</ele>
        <time>2016-11-12T09:36:06Z</time>
      </trkpt>
      <trkpt lat="45.92477" lon="4.73638">
        <ele>174</ele>
        <time>2016-11-12T09:36:08Z</time>
      </trkpt>
      <trkpt lat="45.92481" lon="4.73638">
        <ele>174</ele>
        <time>2016-11-12T09:36:09Z</time>
      </trkpt>
      <trkpt lat="45.92489" lon="4.73639">
        <ele>174</ele>
        <time>2016-11-12T09:36:11Z</time>
      </trkpt>
      <trkpt lat="45.92492" lon="4.7364">
        <ele>174</ele>
        <time>2016-11-12T09:36:12Z</time>
      </trkpt>
      <trkpt lat="45.92501" lon="4.73641">
        <ele>174</ele>
        <time>2016-11-12T09:36:14Z</time>
      </trkpt>
      <trkpt lat="45.92506" lon="4.7364">
        <ele>174</ele>
        <time>2016-11-12T09:36:15Z</time>
      </trkpt>
      <trkpt lat="45.92511" lon="4.7364">
        <ele>174</ele>
        <time>2016-11-12T09:36:16Z</time>
      </trkpt>
      <trkpt lat="45.92516" lon="4.73639">
        <ele>173</ele>
        <time>2016-11-12T09:36:17Z</time>
      </trkpt>
      <trkpt lat="45.92522" lon="4.73638">
        <ele>173</ele>
        <time>2016-11-12T09:36:18Z</time>
      </trkpt>
      <trkpt lat="45.92526" lon="4.73638">
        <ele>173</ele>
        <time>2016-11-12T09:36:19Z</time>
      </trkpt>
      <trkpt lat="45.92531" lon="4.73637">
        <ele>173</ele>
        <time>2016-11-12T09:36:20Z</time>
      </trkpt>
      <trkpt lat="45.92535" lon="4.73637">
        <ele>173</ele>
        <time>2016-11-12T09:36:21Z</time>
      </trkpt>
      <trkpt lat="45.92544" lon="4.73635">
        <ele>173</ele>
        <time>2016-11-12T09:36:23Z</time>
      </trkpt>
      <trkpt lat="45.92549" lon="4.73634">
        <ele>173</ele>
        <time>2016-11-12T09:36:24Z</time>
      </trkpt>
      <trkpt lat="45.92554" lon="4.73634">
        <ele>173</ele>
        <time>2016-11-12T09:36:25Z</time>
      </trkpt>
      <trkpt lat="45.92558" lon="4.73632">
        <ele>173</ele>
        <time>2016-11-12T09:36:26Z</time>
      </trkpt>
      <trkpt lat="45.92582" lon="4.73625">
        <ele>173</ele>
        <time>2016-11-12T09:36:31Z</time>
      </trkpt>
      <trkpt lat="45.92586" lon="4.73621">
        <ele>173</ele>
        <time>2016-11-12T09:36:32Z</time>
      </trkpt>
      <trkpt lat="45.92592" lon="4.73621">
        <ele>173</ele>
        <time>2016-11-12T09:36:33Z</time>
      </trkpt>
      <trkpt lat="45.92598" lon="4.73621">
        <ele>173</ele>
        <time>2016-11-12T09:36:34Z</time>
      </trkpt>
      <trkpt lat="45.92603" lon="4.7362">
        <ele>173</ele>
        <time>2016-11-12T09:36:35Z</time>
      </trkpt>
      <trkpt lat="45.92609" lon="4.73624">
        <ele>173</ele>
        <time>2016-11-12T09:36:36Z</time>
      </trkpt>
      <trkpt lat="45.92613" lon="4.73628">
        <ele>173</ele>
        <time>2016-11-12T09:36:37Z</time>
      </trkpt>
      <trkpt lat="45.92619" lon="4.73635">
        <ele>173</ele>
        <time>2016-11-12T09:36:39Z</time>
      </trkpt>
      <trkpt lat="45.92623" lon="4.73643">
        <ele>173</ele>
        <time>2016-11-12T09:36:40Z</time>
      </trkpt>
      <trkpt lat="45.92625" lon="4.7365">
        <ele>173</ele>
        <time>2016-11-12T09:36:41Z</time>
      </trkpt>
      <trkpt lat="45.92628" lon="4.73657">
        <ele>173</ele>
        <time>2016-11-12T09:36:42Z</time>
      </trkpt>
      <trkpt lat="45.92631" lon="4.73664">
        <ele>173</ele>
        <time>2016-11-12T09:36:43Z</time>
      </trkpt>
      <trkpt lat="45.92635" lon="4.7367">
        <ele>173</ele>
        <time>2016-11-12T09:36:44Z</time>
      </trkpt>
      <trkpt lat="45.92638" lon="4.73676">
        <ele>173</ele>
        <time>2016-11-12T09:36:45Z</time>
      </trkpt>
      <trkpt lat="45.92643" lon="4.73681">
        <ele>173</ele>
        <time>2016-11-12T09:36:46Z</time>
      </trkpt>
      <trkpt lat="45.92646" lon="4.73686">
        <ele>173</ele>
        <time>2016-11-12T09:36:47Z</time>
      </trkpt>
      <trkpt lat="45.92651" lon="4.73691">
        <ele>173</ele>
        <time>2016-11-12T09:36:48Z</time>
      </trkpt>
      <trkpt lat="45.92657" lon="4.73695">
        <ele>173</ele>
        <time>2016-11-12T09:36:49Z</time>
      </trkpt>
      <trkpt lat="45.92662" lon="4.73699">
        <ele>173</ele>
        <time>2016-11-12T09:36:50Z</time>
      </trkpt>
      <trkpt lat="45.92668" lon="4.73702">
        <ele>174</ele>
        <time>2016-11-12T09:36:51Z</time>
      </trkpt>
      <trkpt lat="45.92676" lon="4.73705">
        <ele>173</ele>
        <time>2016-11-12T09:36:52Z</time>
      </trkpt>
      <trkpt lat="45.92682" lon="4.73707">
        <ele>173</ele>
        <time>2016-11-12T09:36:53Z</time>
      </trkpt>
      <trkpt lat="45.92688" lon="4.73709">
        <ele>173</ele>
        <time>2016-11-12T09:36:54Z</time>
      </trkpt>
      <trkpt lat="45.92695" lon="4.73711">
        <ele>173</ele>
        <time>2016-11-12T09:36:55Z</time>
      </trkpt>
      <trkpt lat="45.92701" lon="4.73712">
        <ele>173</ele>
        <time>2016-11-12T09:36:56Z</time>
      </trkpt>
      <trkpt lat="45.92707" lon="4.73713">
        <ele>173</ele>
        <time>2016-11-12T09:36:57Z</time>
      </trkpt>
      <trkpt lat="45.92713" lon="4.73713">
        <ele>173</ele>
        <time>2016-11-12T09:36:58Z</time>
      </trkpt>
      <trkpt lat="45.92718" lon="4.73714">
        <ele>173</ele>
        <time>2016-11-12T09:36:59Z</time>
      </trkpt>
      <trkpt lat="45.92723" lon="4.73714">
        <ele>173</ele>
        <time>2016-11-12T09:37:00Z</time>
      </trkpt>
      <trkpt lat="45.92744" lon="4.73718">
        <ele>173</ele>
        <time>2016-11-12T09:37:04Z</time>
      </trkpt>
      <trkpt lat="45.9275" lon="4.7372">
        <ele>172</ele>
        <time>2016-11-12T09:37:05Z</time>
      </trkpt>
      <trkpt lat="45.92754" lon="4.73719">
        <ele>172</ele>
        <time>2016-11-12T09:37:06Z</time>
      </trkpt>
      <trkpt lat="45.92759" lon="4.73718">
        <ele>172</ele>
        <time>2016-11-12T09:37:07Z</time>
      </trkpt>
      <trkpt lat="45.92763" lon="4.73724">
        <ele>172</ele>
        <time>2016-11-12T09:37:08Z</time>
      </trkpt>
      <trkpt lat="45.92767" lon="4.73731">
        <ele>172</ele>
        <time>2016-11-12T09:37:09Z</time>
      </trkpt>
      <trkpt lat="45.9277" lon="4.73736">
        <ele>172</ele>
        <time>2016-11-12T09:37:10Z</time>
      </trkpt>
      <trkpt lat="45.92778" lon="4.73739">
        <ele>172</ele>
        <time>2016-11-12T09:37:12Z</time>
      </trkpt>
      <trkpt lat="45.92781" lon="4.73732">
        <ele>172</ele>
        <time>2016-11-12T09:37:13Z</time>
      </trkpt>
      <trkpt lat="45.92783" lon="4.73725">
        <ele>172</ele>
        <time>2016-11-12T09:37:14Z</time>
      </trkpt>
      <trkpt lat="45.92785" lon="4.73718">
        <ele>172</ele>
        <time>2016-11-12T09:37:15Z</time>
      </trkpt>
      <trkpt lat="45.92787" lon="4.73711">
        <ele>172</ele>
        <time>2016-11-12T09:37:16Z</time>
      </trkpt>
      <trkpt lat="45.92787" lon="4.73702">
        <ele>172</ele>
        <time>2016-11-12T09:37:17Z</time>
      </trkpt>
      <trkpt lat="45.92789" lon="4.73695">
        <ele>172</ele>
        <time>2016-11-12T09:37:18Z</time>
      </trkpt>
      <trkpt lat="45.9279" lon="4.73687">
        <ele>172</ele>
        <time>2016-11-12T09:37:19Z</time>
      </trkpt>
      <trkpt lat="45.92791" lon="4.7368">
        <ele>172</ele>
        <time>2016-11-12T09:37:20Z</time>
      </trkpt>
      <trkpt lat="45.92792" lon="4.73674">
        <ele>172</ele>
        <time>2016-11-12T09:37:21Z</time>
      </trkpt>
      <trkpt lat="45.92795" lon="4.73662">
        <ele>172</ele>
        <time>2016-11-12T09:37:23Z</time>
      </trkpt>
      <trkpt lat="45.92806" lon="4.7363">
        <ele>172</ele>
        <time>2016-11-12T09:37:29Z</time>
      </trkpt>
      <trkpt lat="45.92808" lon="4.73629">
        <ele>172</ele>
        <time>2016-11-12T09:37:30Z</time>
      </trkpt>
      <trkpt lat="45.92812" lon="4.73627">
        <ele>172</ele>
        <time>2016-11-12T09:37:33Z</time>
      </trkpt>
      <trkpt lat="45.92813" lon="4.73626">
        <ele>172</ele>
        <time>2016-11-12T09:37:36Z</time>
      </trkpt>
      <trkpt lat="45.92815" lon="4.73625">
        <ele>172</ele>
        <time>2016-11-12T09:37:37Z</time>
      </trkpt>
      <trkpt lat="45.92817" lon="4.73617">
        <ele>172</ele>
        <time>2016-11-12T09:37:39Z</time>
      </trkpt>
      <trkpt lat="45.92816" lon="4.73606">
        <ele>172</ele>
        <time>2016-11-12T09:37:41Z</time>
      </trkpt>
      <trkpt lat="45.92814" lon="4.73599">
        <ele>172</ele>
        <time>2016-11-12T09:37:42Z</time>
      </trkpt>
      <trkpt lat="45.92814" lon="4.73592">
        <ele>171</ele>
        <time>2016-11-12T09:37:43Z</time>
      </trkpt>
      <trkpt lat="45.92813" lon="4.73585">
        <ele>171</ele>
        <time>2016-11-12T09:37:44Z</time>
      </trkpt>
      <trkpt lat="45.92814" lon="4.73577">
        <ele>171</ele>
        <time>2016-11-12T09:37:45Z</time>
      </trkpt>
      <trkpt lat="45.92814" lon="4.7357">
        <ele>171</ele>
        <time>2016-11-12T09:37:46Z</time>
      </trkpt>
      <trkpt lat="45.92815" lon="4.73562">
        <ele>171</ele>
        <time>2016-11-12T09:37:47Z</time>
      </trkpt>
      <trkpt lat="45.92816" lon="4.73555">
        <ele>171</ele>
        <time>2016-11-12T09:37:48Z</time>
      </trkpt>
      <trkpt lat="45.92816" lon="4.73547">
        <ele>171</ele>
        <time>2016-11-12T09:37:49Z</time>
      </trkpt>
      <trkpt lat="45.92818" lon="4.73539">
        <ele>172</ele>
        <time>2016-11-12T09:37:50Z</time>
      </trkpt>
      <trkpt lat="45.92818" lon="4.73532">
        <ele>172</ele>
        <time>2016-11-12T09:37:51Z</time>
      </trkpt>
      <trkpt lat="45.92819" lon="4.73524">
        <ele>172</ele>
        <time>2016-11-12T09:37:52Z</time>
      </trkpt>
      <trkpt lat="45.92821" lon="4.73516">
        <ele>172</ele>
        <time>2016-11-12T09:37:53Z</time>
      </trkpt>
      <trkpt lat="45.92822" lon="4.73508">
        <ele>172</ele>
        <time>2016-11-12T09:37:54Z</time>
      </trkpt>
      <trkpt lat="45.92823" lon="4.73499">
        <ele>172</ele>
        <time>2016-11-12T09:37:55Z</time>
      </trkpt>
      <trkpt lat="45.92823" lon="4.73491">
        <ele>172</ele>
        <time>2016-11-12T09:37:56Z</time>
      </trkpt>
      <trkpt lat="45.92824" lon="4.73485">
        <ele>172</ele>
        <time>2016-11-12T09:37:57Z</time>
      </trkpt>
      <trkpt lat="45.92825" lon="4.73478">
        <ele>172</ele>
        <time>2016-11-12T09:37:58Z</time>
      </trkpt>
      <trkpt lat="45.92826" lon="4.73471">
        <ele>172</ele>
        <time>2016-11-12T09:37:59Z</time>
      </trkpt>
      <trkpt lat="45.92826" lon="4.73463">
        <ele>172</ele>
        <time>2016-11-12T09:38:00Z</time>
      </trkpt>
      <trkpt lat="45.92828" lon="4.73454">
        <ele>172</ele>
        <time>2016-11-12T09:38:01Z</time>
      </trkpt>
      <trkpt lat="45.92829" lon="4.73446">
        <ele>172</ele>
        <time>2016-11-12T09:38:02Z</time>
      </trkpt>
      <trkpt lat="45.9283" lon="4.73437">
        <ele>172</ele>
        <time>2016-11-12T09:38:03Z</time>
      </trkpt>
      <trkpt lat="45.92831" lon="4.73429">
        <ele>172</ele>
        <time>2016-11-12T09:38:04Z</time>
      </trkpt>
      <trkpt lat="45.92831" lon="4.73421">
        <ele>172</ele>
        <time>2016-11-12T09:38:05Z</time>
      </trkpt>
      <trkpt lat="45.92832" lon="4.73413">
        <ele>172</ele>
        <time>2016-11-12T09:38:06Z</time>
      </trkpt>
      <trkpt lat="45.92832" lon="4.73405">
        <ele>172</ele>
        <time>2016-11-12T09:38:07Z</time>
      </trkpt>
      <trkpt lat="45.92833" lon="4.73397">
        <ele>172</ele>
        <time>2016-11-12T09:38:08Z</time>
      </trkpt>
      <trkpt lat="45.92836" lon="4.7338">
        <ele>172</ele>
        <time>2016-11-12T09:38:10Z</time>
      </trkpt>
      <trkpt lat="45.92837" lon="4.73372">
        <ele>171</ele>
        <time>2016-11-12T09:38:11Z</time>
      </trkpt>
      <trkpt lat="45.92838" lon="4.73362">
        <ele>171</ele>
        <time>2016-11-12T09:38:12Z</time>
      </trkpt>
      <trkpt lat="45.9284" lon="4.73354">
        <ele>171</ele>
        <time>2016-11-12T09:38:13Z</time>
      </trkpt>
      <trkpt lat="45.92841" lon="4.73345">
        <ele>171</ele>
        <time>2016-11-12T09:38:14Z</time>
      </trkpt>
      <trkpt lat="45.92842" lon="4.73337">
        <ele>171</ele>
        <time>2016-11-12T09:38:15Z</time>
      </trkpt>
      <trkpt lat="45.92843" lon="4.73328">
        <ele>171</ele>
        <time>2016-11-12T09:38:16Z</time>
      </trkpt>
      <trkpt lat="45.92844" lon="4.73319">
        <ele>171</ele>
        <time>2016-11-12T09:38:17Z</time>
      </trkpt>
      <trkpt lat="45.92845" lon="4.73311">
        <ele>171</ele>
        <time>2016-11-12T09:38:18Z</time>
      </trkpt>
      <trkpt lat="45.92846" lon="4.73302">
        <ele>171</ele>
        <time>2016-11-12T09:38:19Z</time>
      </trkpt>
      <trkpt lat="45.92848" lon="4.73294">
        <ele>171</ele>
        <time>2016-11-12T09:38:20Z</time>
      </trkpt>
      <trkpt lat="45.92849" lon="4.73286">
        <ele>171</ele>
        <time>2016-11-12T09:38:21Z</time>
      </trkpt>
      <trkpt lat="45.9285" lon="4.73277">
        <ele>171</ele>
        <time>2016-11-12T09:38:22Z</time>
      </trkpt>
      <trkpt lat="45.92851" lon="4.73269">
        <ele>171</ele>
        <time>2016-11-12T09:38:23Z</time>
      </trkpt>
      <trkpt lat="45.92852" lon="4.73261">
        <ele>171</ele>
        <time>2016-11-12T09:38:24Z</time>
      </trkpt>
      <trkpt lat="45.92854" lon="4.73244">
        <ele>171</ele>
        <time>2016-11-12T09:38:26Z</time>
      </trkpt>
      <trkpt lat="45.92856" lon="4.73238">
        <ele>171</ele>
        <time>2016-11-12T09:38:27Z</time>
      </trkpt>
      <trkpt lat="45.92857" lon="4.7323">
        <ele>171</ele>
        <time>2016-11-12T09:38:28Z</time>
      </trkpt>
      <trkpt lat="45.92858" lon="4.73221">
        <ele>171</ele>
        <time>2016-11-12T09:38:29Z</time>
      </trkpt>
      <trkpt lat="45.92859" lon="4.73213">
        <ele>171</ele>
        <time>2016-11-12T09:38:30Z</time>
      </trkpt>
      <trkpt lat="45.92863" lon="4.73178">
        <ele>171</ele>
        <time>2016-11-12T09:38:34Z</time>
      </trkpt>
      <trkpt lat="45.92864" lon="4.73169">
        <ele>171</ele>
        <time>2016-11-12T09:38:35Z</time>
      </trkpt>
      <trkpt lat="45.92865" lon="4.73162">
        <ele>171</ele>
        <time>2016-11-12T09:38:36Z</time>
      </trkpt>
      <trkpt lat="45.92866" lon="4.73154">
        <ele>171</ele>
        <time>2016-11-12T09:38:37Z</time>
      </trkpt>
      <trkpt lat="45.92867" lon="4.73146">
        <ele>171</ele>
        <time>2016-11-12T09:38:38Z</time>
      </trkpt>
      <trkpt lat="45.92868" lon="4.73139">
        <ele>171</ele>
        <time>2016-11-12T09:38:39Z</time>
      </trkpt>
      <trkpt lat="45.92869" lon="4.7313">
        <ele>171</ele>
        <time>2016-11-12T09:38:40Z</time>
      </trkpt>
      <trkpt lat="45.92871" lon="4.73123">
        <ele>171</ele>
        <time>2016-11-12T09:38:41Z</time>
      </trkpt>
      <trkpt lat="45.92872" lon="4.73116">
        <ele>172</ele>
        <time>2016-11-12T09:38:42Z</time>
      </trkpt>
      <trkpt lat="45.92873" lon="4.73107">
        <ele>172</ele>
        <time>2016-11-12T09:38:43Z</time>
      </trkpt>
      <trkpt lat="45.92875" lon="4.731">
        <ele>172</ele>
        <time>2016-11-12T09:38:44Z</time>
      </trkpt>
      <trkpt lat="45.92878" lon="4.73093">
        <ele>172</ele>
        <time>2016-11-12T09:38:45Z</time>
      </trkpt>
      <trkpt lat="45.92881" lon="4.73086">
        <ele>172</ele>
        <time>2016-11-12T09:38:46Z</time>
      </trkpt>
      <trkpt lat="45.92884" lon="4.73078">
        <ele>172</ele>
        <time>2016-11-12T09:38:47Z</time>
      </trkpt>
      <trkpt lat="45.92887" lon="4.73073">
        <ele>172</ele>
        <time>2016-11-12T09:38:48Z</time>
      </trkpt>
      <trkpt lat="45.9289" lon="4.73067">
        <ele>172</ele>
        <time>2016-11-12T09:38:49Z</time>
      </trkpt>
      <trkpt lat="45.92893" lon="4.73062">
        <ele>172</ele>
        <time>2016-11-12T09:38:50Z</time>
      </trkpt>
      <trkpt lat="45.92897" lon="4.73056">
        <ele>172</ele>
        <time>2016-11-12T09:38:51Z</time>
      </trkpt>
      <trkpt lat="45.929" lon="4.7305">
        <ele>172</ele>
        <time>2016-11-12T09:38:52Z</time>
      </trkpt>
      <trkpt lat="45.92904" lon="4.73044">
        <ele>172</ele>
        <time>2016-11-12T09:38:53Z</time>
      </trkpt>
      <trkpt lat="45.92908" lon="4.73038">
        <ele>172</ele>
        <time>2016-11-12T09:38:54Z</time>
      </trkpt>
      <trkpt lat="45.92912" lon="4.73032">
        <ele>172</ele>
        <time>2016-11-12T09:38:55Z</time>
      </trkpt>
      <trkpt lat="45.92916" lon="4.73026">
        <ele>172</ele>
        <time>2016-11-12T09:38:56Z</time>
      </trkpt>
      <trkpt lat="45.92921" lon="4.73019">
        <ele>172</ele>
        <time>2016-11-12T09:38:57Z</time>
      </trkpt>
      <trkpt lat="45.92931" lon="4.73007">
        <ele>172</ele>
        <time>2016-11-12T09:38:59Z</time>
      </trkpt>
      <trkpt lat="45.92936" lon="4.73001">
        <ele>171</ele>
        <time>2016-11-12T09:39:00Z</time>
      </trkpt>
      <trkpt lat="45.92941" lon="4.72995">
        <ele>171</ele>
        <time>2016-11-12T09:39:01Z</time>
      </trkpt>
      <trkpt lat="45.92946" lon="4.72989">
        <ele>171</ele>
        <time>2016-11-12T09:39:02Z</time>
      </trkpt>
      <trkpt lat="45.92951" lon="4.72984">
        <ele>171</ele>
        <time>2016-11-12T09:39:03Z</time>
      </trkpt>
      <trkpt lat="45.92956" lon="4.72978">
        <ele>171</ele>
        <time>2016-11-12T09:39:04Z</time>
      </trkpt>
      <trkpt lat="45.9296" lon="4.72973">
        <ele>171</ele>
        <time>2016-11-12T09:39:05Z</time>
      </trkpt>
      <trkpt lat="45.92965" lon="4.72967">
        <ele>171</ele>
        <time>2016-11-12T09:39:06Z</time>
      </trkpt>
      <trkpt lat="45.92969" lon="4.72962">
        <ele>171</ele>
        <time>2016-11-12T09:39:07Z</time>
      </trkpt>
      <trkpt lat="45.92974" lon="4.72957">
        <ele>171</ele>
        <time>2016-11-12T09:39:08Z</time>
      </trkpt>
      <trkpt lat="45.92978" lon="4.72952">
        <ele>171</ele>
        <time>2016-11-12T09:39:09Z</time>
      </trkpt>
      <trkpt lat="45.92982" lon="4.72947">
        <ele>171</ele>
        <time>2016-11-12T09:39:10Z</time>
      </trkpt>
      <trkpt lat="45.92986" lon="4.72942">
        <ele>171</ele>
        <time>2016-11-12T09:39:11Z</time>
      </trkpt>
      <trkpt lat="45.9299" lon="4.72937">
        <ele>171</ele>
        <time>2016-11-12T09:39:12Z</time>
      </trkpt>
      <trkpt lat="45.92994" lon="4.72933">
        <ele>171</ele>
        <time>2016-11-12T09:39:13Z</time>
      </trkpt>
      <trkpt lat="45.92997" lon="4.72928">
        <ele>171</ele>
        <time>2016-11-12T09:39:14Z</time>
      </trkpt>
      <trkpt lat="45.93" lon="4.72923">
        <ele>171</ele>
        <time>2016-11-12T09:39:15Z</time>
      </trkpt>
      <trkpt lat="45.93004" lon="4.72918">
        <ele>171</ele>
        <time>2016-11-12T09:39:16Z</time>
      </trkpt>
      <trkpt lat="45.93007" lon="4.72914">
        <ele>171</ele>
        <time>2016-11-12T09:39:17Z</time>
      </trkpt>
      <trkpt lat="45.93014" lon="4.72906">
        <ele>171</ele>
        <time>2016-11-12T09:39:19Z</time>
      </trkpt>
      <trkpt lat="45.93018" lon="4.72903">
        <ele>172</ele>
        <time>2016-11-12T09:39:20Z</time>
      </trkpt>
      <trkpt lat="45.93023" lon="4.72896">
        <ele>172</ele>
        <time>2016-11-12T09:39:22Z</time>
      </trkpt>
      <trkpt lat="45.93026" lon="4.72893">
        <ele>172</ele>
        <time>2016-11-12T09:39:23Z</time>
      </trkpt>
      <trkpt lat="45.93032" lon="4.72887">
        <ele>172</ele>
        <time>2016-11-12T09:39:25Z</time>
      </trkpt>
      <trkpt lat="45.93034" lon="4.72884">
        <ele>172</ele>
        <time>2016-11-12T09:39:26Z</time>
      </trkpt>
      <trkpt lat="45.9304" lon="4.72878">
        <ele>172</ele>
        <time>2016-11-12T09:39:38Z</time>
      </trkpt>
      <trkpt lat="45.93041" lon="4.72877">
        <ele>172</ele>
        <time>2016-11-12T09:39:39Z</time>
      </trkpt>
      <trkpt lat="45.93042" lon="4.72876">
        <ele>172</ele>
        <time>2016-11-12T09:39:40Z</time>
      </trkpt>
      <trkpt lat="45.93043" lon="4.72874">
        <ele>172</ele>
        <time>2016-11-12T09:39:41Z</time>
      </trkpt>
      <trkpt lat="45.93048" lon="4.72864">
        <ele>172</ele>
        <time>2016-11-12T09:39:44Z</time>
      </trkpt>
      <trkpt lat="45.9305" lon="4.72861">
        <ele>172</ele>
        <time>2016-11-12T09:39:45Z</time>
      </trkpt>
      <trkpt lat="45.93057" lon="4.72853">
        <ele>172</ele>
        <time>2016-11-12T09:39:47Z</time>
      </trkpt>
      <trkpt lat="45.93061" lon="4.72849">
        <ele>172</ele>
        <time>2016-11-12T09:39:48Z</time>
      </trkpt>
      <trkpt lat="45.93068" lon="4.72842">
        <ele>173</ele>
        <time>2016-11-12T09:39:50Z</time>
      </trkpt>
      <trkpt lat="45.93071" lon="4.72838">
        <ele>173</ele>
        <time>2016-11-12T09:39:51Z</time>
      </trkpt>
      <trkpt lat="45.93079" lon="4.72833">
        <ele>173</ele>
        <time>2016-11-12T09:39:53Z</time>
      </trkpt>
      <trkpt lat="45.93084" lon="4.72826">
        <ele>172</ele>
        <time>2016-11-12T09:39:54Z</time>
      </trkpt>
      <trkpt lat="45.9309" lon="4.72813">
        <ele>172</ele>
        <time>2016-11-12T09:39:55Z</time>
      </trkpt>
      <trkpt lat="45.93094" lon="4.72807">
        <ele>172</ele>
        <time>2016-11-12T09:39:56Z</time>
      </trkpt>
      <trkpt lat="45.93099" lon="4.72803">
        <ele>171</ele>
        <time>2016-11-12T09:39:57Z</time>
      </trkpt>
      <trkpt lat="45.93104" lon="4.72799">
        <ele>171</ele>
        <time>2016-11-12T09:39:58Z</time>
      </trkpt>
      <trkpt lat="45.93108" lon="4.72795">
        <ele>171</ele>
        <time>2016-11-12T09:39:59Z</time>
      </trkpt>
      <trkpt lat="45.93113" lon="4.72791">
        <ele>171</ele>
        <time>2016-11-12T09:40:00Z</time>
      </trkpt>
      <trkpt lat="45.93118" lon="4.72786">
        <ele>171</ele>
        <time>2016-11-12T09:40:01Z</time>
      </trkpt>
      <trkpt lat="45.93123" lon="4.72781">
        <ele>171</ele>
        <time>2016-11-12T09:40:02Z</time>
      </trkpt>
      <trkpt lat="45.93129" lon="4.72776">
        <ele>171</ele>
        <time>2016-11-12T09:40:03Z</time>
      </trkpt>
      <trkpt lat="45.93134" lon="4.7277">
        <ele>171</ele>
        <time>2016-11-12T09:40:04Z</time>
      </trkpt>
      <trkpt lat="45.93139" lon="4.72765">
        <ele>171</ele>
        <time>2016-11-12T09:40:05Z</time>
      </trkpt>
      <trkpt lat="45.93144" lon="4.7276">
        <ele>171</ele>
        <time>2016-11-12T09:40:06Z</time>
      </trkpt>
      <trkpt lat="45.93149" lon="4.72754">
        <ele>170</ele>
        <time>2016-11-12T09:40:07Z</time>
      </trkpt>
      <trkpt lat="45.93153" lon="4.72749">
        <ele>170</ele>
        <time>2016-11-12T09:40:08Z</time>
      </trkpt>
      <trkpt lat="45.93158" lon="4.72744">
        <ele>170</ele>
        <time>2016-11-12T09:40:09Z</time>
      </trkpt>
      <trkpt lat="45.93163" lon="4.72738">
        <ele>170</ele>
        <time>2016-11-12T09:40:10Z</time>
      </trkpt>
      <trkpt lat="45.93167" lon="4.72733">
        <ele>170</ele>
        <time>2016-11-12T09:40:11Z</time>
      </trkpt>
      <trkpt lat="45.93171" lon="4.72727">
        <ele>170</ele>
        <time>2016-11-12T09:40:12Z</time>
      </trkpt>
      <trkpt lat="45.93175" lon="4.72721">
        <ele>170</ele>
        <time>2016-11-12T09:40:13Z</time>
      </trkpt>
      <trkpt lat="45.9318" lon="4.72716">
        <ele>169</ele>
        <time>2016-11-12T09:40:14Z</time>
      </trkpt>
      <trkpt lat="45.93184" lon="4.72711">
        <ele>169</ele>
        <time>2016-11-12T09:40:15Z</time>
      </trkpt>
      <trkpt lat="45.93189" lon="4.72707">
        <ele>169</ele>
        <time>2016-11-12T09:40:16Z</time>
      </trkpt>
      <trkpt lat="45.93193" lon="4.72701">
        <ele>169</ele>
        <time>2016-11-12T09:40:17Z</time>
      </trkpt>
      <trkpt lat="45.93198" lon="4.72696">
        <ele>169</ele>
        <time>2016-11-12T09:40:18Z</time>
      </trkpt>
      <trkpt lat="45.93203" lon="4.7269">
        <ele>169</ele>
        <time>2016-11-12T09:40:19Z</time>
      </trkpt>
      <trkpt lat="45.93208" lon="4.72685">
        <ele>169</ele>
        <time>2016-11-12T09:40:20Z</time>
      </trkpt>
      <trkpt lat="45.93213" lon="4.72679">
        <ele>169</ele>
        <time>2016-11-12T09:40:21Z</time>
      </trkpt>
      <trkpt lat="45.93217" lon="4.72673">
        <ele>169</ele>
        <time>2016-11-12T09:40:22Z</time>
      </trkpt>
      <trkpt lat="45.93222" lon="4.72668">
        <ele>169</ele>
        <time>2016-11-12T09:40:23Z</time>
      </trkpt>
      <trkpt lat="45.93226" lon="4.72663">
        <ele>170</ele>
        <time>2016-11-12T09:40:24Z</time>
      </trkpt>
      <trkpt lat="45.93231" lon="4.72658">
        <ele>169</ele>
        <time>2016-11-12T09:40:25Z</time>
      </trkpt>
      <trkpt lat="45.93235" lon="4.72653">
        <ele>169</ele>
        <time>2016-11-12T09:40:26Z</time>
      </trkpt>
      <trkpt lat="45.9324" lon="4.72647">
        <ele>170</ele>
        <time>2016-11-12T09:40:27Z</time>
      </trkpt>
      <trkpt lat="45.93244" lon="4.72642">
        <ele>170</ele>
        <time>2016-11-12T09:40:28Z</time>
      </trkpt>
      <trkpt lat="45.93249" lon="4.72637">
        <ele>170</ele>
        <time>2016-11-12T09:40:29Z</time>
      </trkpt>
      <trkpt lat="45.93253" lon="4.72631">
        <ele>170</ele>
        <time>2016-11-12T09:40:30Z</time>
      </trkpt>
      <trkpt lat="45.93258" lon="4.72626">
        <ele>170</ele>
        <time>2016-11-12T09:40:31Z</time>
      </trkpt>
      <trkpt lat="45.93262" lon="4.7262">
        <ele>170</ele>
        <time>2016-11-12T09:40:32Z</time>
      </trkpt>
      <trkpt lat="45.93266" lon="4.72615">
        <ele>170</ele>
        <time>2016-11-12T09:40:33Z</time>
      </trkpt>
      <trkpt lat="45.93271" lon="4.7261">
        <ele>170</ele>
        <time>2016-11-12T09:40:34Z</time>
      </trkpt>
      <trkpt lat="45.93275" lon="4.72604">
        <ele>170</ele>
        <time>2016-11-12T09:40:35Z</time>
      </trkpt>
      <trkpt lat="45.9328" lon="4.72599">
        <ele>170</ele>
        <time>2016-11-12T09:40:36Z</time>
      </trkpt>
      <trkpt lat="45.93285" lon="4.72592">
        <ele>170</ele>
        <time>2016-11-12T09:40:37Z</time>
      </trkpt>
      <trkpt lat="45.9329" lon="4.72587">
        <ele>170</ele>
        <time>2016-11-12T09:40:38Z</time>
      </trkpt>
      <trkpt lat="45.93295" lon="4.72581">
        <ele>171</ele>
        <time>2016-11-12T09:40:39Z</time>
      </trkpt>
      <trkpt lat="45.933" lon="4.72576">
        <ele>171</ele>
        <time>2016-11-12T09:40:40Z</time>
      </trkpt>
      <trkpt lat="45.93304" lon="4.7257">
        <ele>171</ele>
        <time>2016-11-12T09:40:41Z</time>
      </trkpt>
      <trkpt lat="45.93308" lon="4.72564">
        <ele>171</ele>
        <time>2016-11-12T09:40:42Z</time>
      </trkpt>
      <trkpt lat="45.93312" lon="4.7256">
        <ele>171</ele>
        <time>2016-11-12T09:40:43Z</time>
      </trkpt>
      <trkpt lat="45.93316" lon="4.72555">
        <ele>172</ele>
        <time>2016-11-12T09:40:44Z</time>
      </trkpt>
      <trkpt lat="45.93321" lon="4.7255">
        <ele>172</ele>
        <time>2016-11-12T09:40:45Z</time>
      </trkpt>
      <trkpt lat="45.93325" lon="4.72545">
        <ele>172</ele>
        <time>2016-11-12T09:40:46Z</time>
      </trkpt>
      <trkpt lat="45.9333" lon="4.72539">
        <ele>172</ele>
        <time>2016-11-12T09:40:47Z</time>
      </trkpt>
      <trkpt lat="45.93334" lon="4.72534">
        <ele>172</ele>
        <time>2016-11-12T09:40:48Z</time>
      </trkpt>
      <trkpt lat="45.93339" lon="4.72529">
        <ele>172</ele>
        <time>2016-11-12T09:40:49Z</time>
      </trkpt>
      <trkpt lat="45.93344" lon="4.72523">
        <ele>172</ele>
        <time>2016-11-12T09:40:50Z</time>
      </trkpt>
      <trkpt lat="45.93348" lon="4.72518">
        <ele>172</ele>
        <time>2016-11-12T09:40:51Z</time>
      </trkpt>
      <trkpt lat="45.93352" lon="4.72513">
        <ele>172</ele>
        <time>2016-11-12T09:40:52Z</time>
      </trkpt>
      <trkpt lat="45.93356" lon="4.72508">
        <ele>172</ele>
        <time>2016-11-12T09:40:53Z</time>
      </trkpt>
      <trkpt lat="45.93361" lon="4.72504">
        <ele>172</ele>
        <time>2016-11-12T09:40:54Z</time>
      </trkpt>
      <trkpt lat="45.93365" lon="4.72499">
        <ele>173</ele>
        <time>2016-11-12T09:40:55Z</time>
      </trkpt>
      <trkpt lat="45.93369" lon="4.72494">
        <ele>173</ele>
        <time>2016-11-12T09:40:56Z</time>
      </trkpt>
      <trkpt lat="45.93373" lon="4.72489">
        <ele>173</ele>
        <time>2016-11-12T09:40:57Z</time>
      </trkpt>
      <trkpt lat="45.93377" lon="4.72483">
        <ele>173</ele>
        <time>2016-11-12T09:40:58Z</time>
      </trkpt>
      <trkpt lat="45.93382" lon="4.7248">
        <ele>173</ele>
        <time>2016-11-12T09:40:59Z</time>
      </trkpt>
      <trkpt lat="45.93386" lon="4.72475">
        <ele>173</ele>
        <time>2016-11-12T09:41:00Z</time>
      </trkpt>
      <trkpt lat="45.9339" lon="4.72469">
        <ele>173</ele>
        <time>2016-11-12T09:41:01Z</time>
      </trkpt>
      <trkpt lat="45.93393" lon="4.72463">
        <ele>173</ele>
        <time>2016-11-12T09:41:02Z</time>
      </trkpt>
      <trkpt lat="45.93397" lon="4.72457">
        <ele>173</ele>
        <time>2016-11-12T09:41:03Z</time>
      </trkpt>
      <trkpt lat="45.93399" lon="4.7245">
        <ele>173</ele>
        <time>2016-11-12T09:41:04Z</time>
      </trkpt>
      <trkpt lat="45.93401" lon="4.72444">
        <ele>173</ele>
        <time>2016-11-12T09:41:05Z</time>
      </trkpt>
      <trkpt lat="45.93403" lon="4.72436">
        <ele>173</ele>
        <time>2016-11-12T09:41:06Z</time>
      </trkpt>
      <trkpt lat="45.93406" lon="4.7243">
        <ele>173</ele>
        <time>2016-11-12T09:41:07Z</time>
      </trkpt>
      <trkpt lat="45.93409" lon="4.72424">
        <ele>174</ele>
        <time>2016-11-12T09:41:08Z</time>
      </trkpt>
      <trkpt lat="45.93413" lon="4.72418">
        <ele>174</ele>
        <time>2016-11-12T09:41:09Z</time>
      </trkpt>
      <trkpt lat="45.93423" lon="4.7241">
        <ele>174</ele>
        <time>2016-11-12T09:41:11Z</time>
      </trkpt>
      <trkpt lat="45.93428" lon="4.72408">
        <ele>174</ele>
        <time>2016-11-12T09:41:12Z</time>
      </trkpt>
      <trkpt lat="45.93434" lon="4.72403">
        <ele>174</ele>
        <time>2016-11-12T09:41:13Z</time>
      </trkpt>
      <trkpt lat="45.93439" lon="4.72399">
        <ele>173</ele>
        <time>2016-11-12T09:41:14Z</time>
      </trkpt>
      <trkpt lat="45.93446" lon="4.72395">
        <ele>173</ele>
        <time>2016-11-12T09:41:15Z</time>
      </trkpt>
      <trkpt lat="45.93453" lon="4.7239">
        <ele>173</ele>
        <time>2016-11-12T09:41:16Z</time>
      </trkpt>
      <trkpt lat="45.93457" lon="4.72386">
        <ele>173</ele>
        <time>2016-11-12T09:41:17Z</time>
      </trkpt>
      <trkpt lat="45.93462" lon="4.7238">
        <ele>173</ele>
        <time>2016-11-12T09:41:18Z</time>
      </trkpt>
      <trkpt lat="45.93467" lon="4.72374">
        <ele>173</ele>
        <time>2016-11-12T09:41:19Z</time>
      </trkpt>
      <trkpt lat="45.93471" lon="4.72368">
        <ele>173</ele>
        <time>2016-11-12T09:41:20Z</time>
      </trkpt>
      <trkpt lat="45.93475" lon="4.72362">
        <ele>173</ele>
        <time>2016-11-12T09:41:21Z</time>
      </trkpt>
      <trkpt lat="45.9348" lon="4.72357">
        <ele>173</ele>
        <time>2016-11-12T09:41:22Z</time>
      </trkpt>
      <trkpt lat="45.93484" lon="4.72352">
        <ele>173</ele>
        <time>2016-11-12T09:41:23Z</time>
      </trkpt>
      <trkpt lat="45.93488" lon="4.72347">
        <ele>173</ele>
        <time>2016-11-12T09:41:24Z</time>
      </trkpt>
      <trkpt lat="45.93491" lon="4.72341">
        <ele>173</ele>
        <time>2016-11-12T09:41:25Z</time>
      </trkpt>
      <trkpt lat="45.93494" lon="4.72336">
        <ele>173</ele>
        <time>2016-11-12T09:41:26Z</time>
      </trkpt>
      <trkpt lat="45.93498" lon="4.72331">
        <ele>173</ele>
        <time>2016-11-12T09:41:27Z</time>
      </trkpt>
      <trkpt lat="45.93502" lon="4.72326">
        <ele>173</ele>
        <time>2016-11-12T09:41:28Z</time>
      </trkpt>
      <trkpt lat="45.93506" lon="4.7232">
        <ele>173</ele>
        <time>2016-11-12T09:41:29Z</time>
      </trkpt>
      <trkpt lat="45.9351" lon="4.72314">
        <ele>173</ele>
        <time>2016-11-12T09:41:30Z</time>
      </trkpt>
      <trkpt lat="45.9352" lon="4.72297">
        <ele>172</ele>
        <time>2016-11-12T09:41:33Z</time>
      </trkpt>
      <trkpt lat="45.93524" lon="4.72289">
        <ele>172</ele>
        <time>2016-11-12T09:41:34Z</time>
      </trkpt>
      <trkpt lat="45.93527" lon="4.72285">
        <ele>172</ele>
        <time>2016-11-12T09:41:35Z</time>
      </trkpt>
      <trkpt lat="45.9353" lon="4.7228">
        <ele>172</ele>
        <time>2016-11-12T09:41:36Z</time>
      </trkpt>
      <trkpt lat="45.93533" lon="4.72273">
        <ele>172</ele>
        <time>2016-11-12T09:41:37Z</time>
      </trkpt>
      <trkpt lat="45.93535" lon="4.72266">
        <ele>172</ele>
        <time>2016-11-12T09:41:38Z</time>
      </trkpt>
      <trkpt lat="45.93537" lon="4.7226">
        <ele>172</ele>
        <time>2016-11-12T09:41:39Z</time>
      </trkpt>
      <trkpt lat="45.9354" lon="4.72253">
        <ele>172</ele>
        <time>2016-11-12T09:41:40Z</time>
      </trkpt>
      <trkpt lat="45.93543" lon="4.72244">
        <ele>172</ele>
        <time>2016-11-12T09:41:41Z</time>
      </trkpt>
      <trkpt lat="45.93553" lon="4.72222">
        <ele>173</ele>
        <time>2016-11-12T09:41:44Z</time>
      </trkpt>
      <trkpt lat="45.93557" lon="4.72215">
        <ele>173</ele>
        <time>2016-11-12T09:41:45Z</time>
      </trkpt>
      <trkpt lat="45.93562" lon="4.72209">
        <ele>173</ele>
        <time>2016-11-12T09:41:46Z</time>
      </trkpt>
      <trkpt lat="45.93567" lon="4.72202">
        <ele>173</ele>
        <time>2016-11-12T09:41:47Z</time>
      </trkpt>
      <trkpt lat="45.93572" lon="4.72197">
        <ele>173</ele>
        <time>2016-11-12T09:41:48Z</time>
      </trkpt>
      <trkpt lat="45.93576" lon="4.72193">
        <ele>173</ele>
        <time>2016-11-12T09:41:49Z</time>
      </trkpt>
      <trkpt lat="45.93581" lon="4.72188">
        <ele>173</ele>
        <time>2016-11-12T09:41:50Z</time>
      </trkpt>
      <trkpt lat="45.93588" lon="4.72183">
        <ele>173</ele>
        <time>2016-11-12T09:41:52Z</time>
      </trkpt>
      <trkpt lat="45.93592" lon="4.72178">
        <ele>173</ele>
        <time>2016-11-12T09:41:53Z</time>
      </trkpt>
      <trkpt lat="45.93596" lon="4.72174">
        <ele>173</ele>
        <time>2016-11-12T09:41:54Z</time>
      </trkpt>
      <trkpt lat="45.93601" lon="4.72171">
        <ele>173</ele>
        <time>2016-11-12T09:41:55Z</time>
      </trkpt>
      <trkpt lat="45.93605" lon="4.72167">
        <ele>173</ele>
        <time>2016-11-12T09:41:56Z</time>
      </trkpt>
      <trkpt lat="45.9361" lon="4.72162">
        <ele>173</ele>
        <time>2016-11-12T09:41:57Z</time>
      </trkpt>
      <trkpt lat="45.93615" lon="4.72158">
        <ele>173</ele>
        <time>2016-11-12T09:41:58Z</time>
      </trkpt>
      <trkpt lat="45.9362" lon="4.72154">
        <ele>173</ele>
        <time>2016-11-12T09:41:59Z</time>
      </trkpt>
      <trkpt lat="45.93625" lon="4.72149">
        <ele>173</ele>
        <time>2016-11-12T09:42:00Z</time>
      </trkpt>
      <trkpt lat="45.9363" lon="4.72143">
        <ele>173</ele>
        <time>2016-11-12T09:42:01Z</time>
      </trkpt>
      <trkpt lat="45.93635" lon="4.72137">
        <ele>173</ele>
        <time>2016-11-12T09:42:02Z</time>
      </trkpt>
      <trkpt lat="45.93639" lon="4.72131">
        <ele>173</ele>
        <time>2016-11-12T09:42:03Z</time>
      </trkpt>
      <trkpt lat="45.93649" lon="4.72111">
        <ele>173</ele>
        <time>2016-11-12T09:42:06Z</time>
      </trkpt>
      <trkpt lat="45.93653" lon="4.72105">
        <ele>173</ele>
        <time>2016-11-12T09:42:07Z</time>
      </trkpt>
      <trkpt lat="45.93656" lon="4.721">
        <ele>173</ele>
        <time>2016-11-12T09:42:08Z</time>
      </trkpt>
      <trkpt lat="45.93663" lon="4.72089">
        <ele>172</ele>
        <time>2016-11-12T09:42:10Z</time>
      </trkpt>
      <trkpt lat="45.93668" lon="4.72084">
        <ele>172</ele>
        <time>2016-11-12T09:42:11Z</time>
      </trkpt>
      <trkpt lat="45.93671" lon="4.72078">
        <ele>172</ele>
        <time>2016-11-12T09:42:12Z</time>
      </trkpt>
      <trkpt lat="45.93673" lon="4.72073">
        <ele>172</ele>
        <time>2016-11-12T09:42:13Z</time>
      </trkpt>
      <trkpt lat="45.93677" lon="4.72067">
        <ele>172</ele>
        <time>2016-11-12T09:42:14Z</time>
      </trkpt>
      <trkpt lat="45.9368" lon="4.72061">
        <ele>172</ele>
        <time>2016-11-12T09:42:15Z</time>
      </trkpt>
      <trkpt lat="45.93681" lon="4.72054">
        <ele>172</ele>
        <time>2016-11-12T09:42:16Z</time>
      </trkpt>
      <trkpt lat="45.93684" lon="4.72049">
        <ele>172</ele>
        <time>2016-11-12T09:42:17Z</time>
      </trkpt>
      <trkpt lat="45.93688" lon="4.72043">
        <ele>172</ele>
        <time>2016-11-12T09:42:18Z</time>
      </trkpt>
      <trkpt lat="45.93692" lon="4.72037">
        <ele>173</ele>
        <time>2016-11-12T09:42:19Z</time>
      </trkpt>
      <trkpt lat="45.93696" lon="4.72031">
        <ele>172</ele>
        <time>2016-11-12T09:42:20Z</time>
      </trkpt>
      <trkpt lat="45.937" lon="4.72021">
        <ele>172</ele>
        <time>2016-11-12T09:42:22Z</time>
      </trkpt>
      <trkpt lat="45.93703" lon="4.72016">
        <ele>172</ele>
        <time>2016-11-12T09:42:23Z</time>
      </trkpt>
      <trkpt lat="45.93707" lon="4.7201">
        <ele>172</ele>
        <time>2016-11-12T09:42:24Z</time>
      </trkpt>
      <trkpt lat="45.93711" lon="4.72003">
        <ele>172</ele>
        <time>2016-11-12T09:42:25Z</time>
      </trkpt>
      <trkpt lat="45.93715" lon="4.71997">
        <ele>172</ele>
        <time>2016-11-12T09:42:26Z</time>
      </trkpt>
      <trkpt lat="45.9372" lon="4.7199">
        <ele>172</ele>
        <time>2016-11-12T09:42:27Z</time>
      </trkpt>
      <trkpt lat="45.93723" lon="4.71983">
        <ele>172</ele>
        <time>2016-11-12T09:42:28Z</time>
      </trkpt>
      <trkpt lat="45.93728" lon="4.71977">
        <ele>172</ele>
        <time>2016-11-12T09:42:29Z</time>
      </trkpt>
      <trkpt lat="45.93731" lon="4.71971">
        <ele>172</ele>
        <time>2016-11-12T09:42:30Z</time>
      </trkpt>
      <trkpt lat="45.93735" lon="4.71966">
        <ele>172</ele>
        <time>2016-11-12T09:42:31Z</time>
      </trkpt>
      <trkpt lat="45.93739" lon="4.71963">
        <ele>172</ele>
        <time>2016-11-12T09:42:32Z</time>
      </trkpt>
      <trkpt lat="45.93744" lon="4.71961">
        <ele>172</ele>
        <time>2016-11-12T09:42:33Z</time>
      </trkpt>
      <trkpt lat="45.93752" lon="4.71957">
        <ele>171</ele>
        <time>2016-11-12T09:42:35Z</time>
      </trkpt>
      <trkpt lat="45.93754" lon="4.71953">
        <ele>171</ele>
        <time>2016-11-12T09:42:36Z</time>
      </trkpt>
      <trkpt lat="45.93759" lon="4.71947">
        <ele>171</ele>
        <time>2016-11-12T09:42:38Z</time>
      </trkpt>
      <trkpt lat="45.93761" lon="4.71943">
        <ele>171</ele>
        <time>2016-11-12T09:42:39Z</time>
      </trkpt>
      <trkpt lat="45.93764" lon="4.71939">
        <ele>171</ele>
        <time>2016-11-12T09:42:40Z</time>
      </trkpt>
      <trkpt lat="45.93769" lon="4.7193">
        <ele>171</ele>
        <time>2016-11-12T09:42:42Z</time>
      </trkpt>
      <trkpt lat="45.93772" lon="4.71925">
        <ele>171</ele>
        <time>2016-11-12T09:42:43Z</time>
      </trkpt>
      <trkpt lat="45.93781" lon="4.71892">
        <ele>172</ele>
        <time>2016-11-12T09:42:48Z</time>
      </trkpt>
      <trkpt lat="45.93787" lon="4.71878">
        <ele>172</ele>
        <time>2016-11-12T09:42:50Z</time>
      </trkpt>
      <trkpt lat="45.9379" lon="4.71872">
        <ele>172</ele>
        <time>2016-11-12T09:42:51Z</time>
      </trkpt>
      <trkpt lat="45.93794" lon="4.71866">
        <ele>172</ele>
        <time>2016-11-12T09:42:52Z</time>
      </trkpt>
      <trkpt lat="45.93802" lon="4.71852">
        <ele>172</ele>
        <time>2016-11-12T09:42:54Z</time>
      </trkpt>
      <trkpt lat="45.93805" lon="4.71845">
        <ele>172</ele>
        <time>2016-11-12T09:42:55Z</time>
      </trkpt>
      <trkpt lat="45.93809" lon="4.71837">
        <ele>172</ele>
        <time>2016-11-12T09:42:56Z</time>
      </trkpt>
      <trkpt lat="45.93812" lon="4.7183">
        <ele>173</ele>
        <time>2016-11-12T09:42:57Z</time>
      </trkpt>
      <trkpt lat="45.93831" lon="4.71798">
        <ele>174</ele>
        <time>2016-11-12T09:43:02Z</time>
      </trkpt>
      <trkpt lat="45.93835" lon="4.71792">
        <ele>173</ele>
        <time>2016-11-12T09:43:03Z</time>
      </trkpt>
      <trkpt lat="45.9384" lon="4.71786">
        <ele>173</ele>
        <time>2016-11-12T09:43:04Z</time>
      </trkpt>
      <trkpt lat="45.93845" lon="4.7178">
        <ele>173</ele>
        <time>2016-11-12T09:43:05Z</time>
      </trkpt>
      <trkpt lat="45.9385" lon="4.71774">
        <ele>173</ele>
        <time>2016-11-12T09:43:06Z</time>
      </trkpt>
      <trkpt lat="45.93854" lon="4.71768">
        <ele>173</ele>
        <time>2016-11-12T09:43:07Z</time>
      </trkpt>
      <trkpt lat="45.93859" lon="4.71762">
        <ele>173</ele>
        <time>2016-11-12T09:43:08Z</time>
      </trkpt>
      <trkpt lat="45.93863" lon="4.71756">
        <ele>173</ele>
        <time>2016-11-12T09:43:09Z</time>
      </trkpt>
      <trkpt lat="45.93868" lon="4.71751">
        <ele>173</ele>
        <time>2016-11-12T09:43:10Z</time>
      </trkpt>
      <trkpt lat="45.93873" lon="4.71745">
        <ele>174</ele>
        <time>2016-11-12T09:43:11Z</time>
      </trkpt>
      <trkpt lat="45.93878" lon="4.7174">
        <ele>174</ele>
        <time>2016-11-12T09:43:12Z</time>
      </trkpt>
      <trkpt lat="45.93883" lon="4.71735">
        <ele>174</ele>
        <time>2016-11-12T09:43:13Z</time>
      </trkpt>
      <trkpt lat="45.93888" lon="4.71731">
        <ele>174</ele>
        <time>2016-11-12T09:43:14Z</time>
      </trkpt>
      <trkpt lat="45.93892" lon="4.71724">
        <ele>174</ele>
        <time>2016-11-12T09:43:15Z</time>
      </trkpt>
      <trkpt lat="45.93897" lon="4.71719">
        <ele>174</ele>
        <time>2016-11-12T09:43:16Z</time>
      </trkpt>
      <trkpt lat="45.93901" lon="4.71718">
        <ele>174</ele>
        <time>2016-11-12T09:43:17Z</time>
      </trkpt>
      <trkpt lat="45.93905" lon="4.71715">
        <ele>174</ele>
        <time>2016-11-12T09:43:18Z</time>
      </trkpt>
      <trkpt lat="45.9391" lon="4.71711">
        <ele>174</ele>
        <time>2016-11-12T09:43:19Z</time>
      </trkpt>
      <trkpt lat="45.93916" lon="4.71708">
        <ele>174</ele>
        <time>2016-11-12T09:43:20Z</time>
      </trkpt>
      <trkpt lat="45.93922" lon="4.71705">
        <ele>174</ele>
        <time>2016-11-12T09:43:21Z</time>
      </trkpt>
      <trkpt lat="45.93927" lon="4.71703">
        <ele>174</ele>
        <time>2016-11-12T09:43:22Z</time>
      </trkpt>
      <trkpt lat="45.93933" lon="4.717">
        <ele>174</ele>
        <time>2016-11-12T09:43:23Z</time>
      </trkpt>
      <trkpt lat="45.93938" lon="4.71697">
        <ele>174</ele>
        <time>2016-11-12T09:43:24Z</time>
      </trkpt>
      <trkpt lat="45.93943" lon="4.71694">
        <ele>175</ele>
        <time>2016-11-12T09:43:25Z</time>
      </trkpt>
      <trkpt lat="45.93948" lon="4.71691">
        <ele>175</ele>
        <time>2016-11-12T09:43:26Z</time>
      </trkpt>
      <trkpt lat="45.93956" lon="4.71686">
        <ele>175</ele>
        <time>2016-11-12T09:43:28Z</time>
      </trkpt>
      <trkpt lat="45.93962" lon="4.7168">
        <ele>175</ele>
        <time>2016-11-12T09:43:29Z</time>
      </trkpt>
      <trkpt lat="45.93967" lon="4.71678">
        <ele>175</ele>
        <time>2016-11-12T09:43:30Z</time>
      </trkpt>
      <trkpt lat="45.93972" lon="4.71676">
        <ele>175</ele>
        <time>2016-11-12T09:43:31Z</time>
      </trkpt>
      <trkpt lat="45.93976" lon="4.71676">
        <ele>175</ele>
        <time>2016-11-12T09:43:32Z</time>
      </trkpt>
      <trkpt lat="45.93981" lon="4.71676">
        <ele>176</ele>
        <time>2016-11-12T09:43:33Z</time>
      </trkpt>
      <trkpt lat="45.93987" lon="4.71677">
        <ele>176</ele>
        <time>2016-11-12T09:43:34Z</time>
      </trkpt>
      <trkpt lat="45.93991" lon="4.71679">
        <ele>176</ele>
        <time>2016-11-12T09:43:35Z</time>
      </trkpt>
      <trkpt lat="45.93996" lon="4.71683">
        <ele>176</ele>
        <time>2016-11-12T09:43:36Z</time>
      </trkpt>
      <trkpt lat="45.94001" lon="4.71686">
        <ele>176</ele>
        <time>2016-11-12T09:43:37Z</time>
      </trkpt>
      <trkpt lat="45.94005" lon="4.71688">
        <ele>175</ele>
        <time>2016-11-12T09:43:38Z</time>
      </trkpt>
      <trkpt lat="45.94011" lon="4.71686">
        <ele>175</ele>
        <time>2016-11-12T09:43:39Z</time>
      </trkpt>
      <trkpt lat="45.94015" lon="4.71682">
        <ele>175</ele>
        <time>2016-11-12T09:43:40Z</time>
      </trkpt>
      <trkpt lat="45.94018" lon="4.71677">
        <ele>175</ele>
        <time>2016-11-12T09:43:41Z</time>
      </trkpt>
      <trkpt lat="45.9402" lon="4.7167">
        <ele>175</ele>
        <time>2016-11-12T09:43:42Z</time>
      </trkpt>
      <trkpt lat="45.94022" lon="4.71663">
        <ele>176</ele>
        <time>2016-11-12T09:43:43Z</time>
      </trkpt>
      <trkpt lat="45.94025" lon="4.71657">
        <ele>175</ele>
        <time>2016-11-12T09:43:44Z</time>
      </trkpt>
      <trkpt lat="45.94029" lon="4.71653">
        <ele>175</ele>
        <time>2016-11-12T09:43:45Z</time>
      </trkpt>
      <trkpt lat="45.94034" lon="4.7165">
        <ele>175</ele>
        <time>2016-11-12T09:43:46Z</time>
      </trkpt>
      <trkpt lat="45.94039" lon="4.71648">
        <ele>175</ele>
        <time>2016-11-12T09:43:47Z</time>
      </trkpt>
      <trkpt lat="45.94044" lon="4.71646">
        <ele>175</ele>
        <time>2016-11-12T09:43:48Z</time>
      </trkpt>
      <trkpt lat="45.9405" lon="4.71643">
        <ele>175</ele>
        <time>2016-11-12T09:43:49Z</time>
      </trkpt>
      <trkpt lat="45.94055" lon="4.71641">
        <ele>174</ele>
        <time>2016-11-12T09:43:50Z</time>
      </trkpt>
      <trkpt lat="45.94061" lon="4.71639">
        <ele>174</ele>
        <time>2016-11-12T09:43:51Z</time>
      </trkpt>
      <trkpt lat="45.94066" lon="4.71637">
        <ele>174</ele>
        <time>2016-11-12T09:43:52Z</time>
      </trkpt>
      <trkpt lat="45.94072" lon="4.71635">
        <ele>174</ele>
        <time>2016-11-12T09:43:53Z</time>
      </trkpt>
      <trkpt lat="45.94077" lon="4.71632">
        <ele>174</ele>
        <time>2016-11-12T09:43:54Z</time>
      </trkpt>
      <trkpt lat="45.94083" lon="4.7163">
        <ele>174</ele>
        <time>2016-11-12T09:43:55Z</time>
      </trkpt>
      <trkpt lat="45.94089" lon="4.71627">
        <ele>173</ele>
        <time>2016-11-12T09:43:56Z</time>
      </trkpt>
      <trkpt lat="45.94094" lon="4.71625">
        <ele>173</ele>
        <time>2016-11-12T09:43:57Z</time>
      </trkpt>
      <trkpt lat="45.941" lon="4.71622">
        <ele>173</ele>
        <time>2016-11-12T09:43:58Z</time>
      </trkpt>
      <trkpt lat="45.94106" lon="4.7162">
        <ele>173</ele>
        <time>2016-11-12T09:43:59Z</time>
      </trkpt>
      <trkpt lat="45.94119" lon="4.71613">
        <ele>173</ele>
        <time>2016-11-12T09:44:01Z</time>
      </trkpt>
      <trkpt lat="45.94125" lon="4.71611">
        <ele>173</ele>
        <time>2016-11-12T09:44:02Z</time>
      </trkpt>
      <trkpt lat="45.94132" lon="4.71609">
        <ele>173</ele>
        <time>2016-11-12T09:44:03Z</time>
      </trkpt>
      <trkpt lat="45.94138" lon="4.71608">
        <ele>173</ele>
        <time>2016-11-12T09:44:04Z</time>
      </trkpt>
      <trkpt lat="45.94143" lon="4.71606">
        <ele>173</ele>
        <time>2016-11-12T09:44:05Z</time>
      </trkpt>
      <trkpt lat="45.94149" lon="4.71604">
        <ele>173</ele>
        <time>2016-11-12T09:44:06Z</time>
      </trkpt>
      <trkpt lat="45.94154" lon="4.71602">
        <ele>173</ele>
        <time>2016-11-12T09:44:07Z</time>
      </trkpt>
      <trkpt lat="45.94158" lon="4.716">
        <ele>173</ele>
        <time>2016-11-12T09:44:08Z</time>
      </trkpt>
      <trkpt lat="45.94164" lon="4.71598">
        <ele>173</ele>
        <time>2016-11-12T09:44:09Z</time>
      </trkpt>
      <trkpt lat="45.94169" lon="4.71596">
        <ele>173</ele>
        <time>2016-11-12T09:44:10Z</time>
      </trkpt>
      <trkpt lat="45.94174" lon="4.71594">
        <ele>173</ele>
        <time>2016-11-12T09:44:11Z</time>
      </trkpt>
      <trkpt lat="45.94179" lon="4.71592">
        <ele>173</ele>
        <time>2016-11-12T09:44:12Z</time>
      </trkpt>
      <trkpt lat="45.94184" lon="4.7159">
        <ele>173</ele>
        <time>2016-11-12T09:44:13Z</time>
      </trkpt>
      <trkpt lat="45.9419" lon="4.71588">
        <ele>173</ele>
        <time>2016-11-12T09:44:14Z</time>
      </trkpt>
      <trkpt lat="45.94195" lon="4.71586">
        <ele>173</ele>
        <time>2016-11-12T09:44:15Z</time>
      </trkpt>
      <trkpt lat="45.94201" lon="4.71583">
        <ele>174</ele>
        <time>2016-11-12T09:44:16Z</time>
      </trkpt>
      <trkpt lat="45.94206" lon="4.71582">
        <ele>174</ele>
        <time>2016-11-12T09:44:17Z</time>
      </trkpt>
      <trkpt lat="45.94212" lon="4.71577">
        <ele>174</ele>
        <time>2016-11-12T09:44:18Z</time>
      </trkpt>
      <trkpt lat="45.94217" lon="4.71575">
        <ele>174</ele>
        <time>2016-11-12T09:44:19Z</time>
      </trkpt>
      <trkpt lat="45.94222" lon="4.71573">
        <ele>174</ele>
        <time>2016-11-12T09:44:20Z</time>
      </trkpt>
      <trkpt lat="45.94227" lon="4.71571">
        <ele>174</ele>
        <time>2016-11-12T09:44:21Z</time>
      </trkpt>
      <trkpt lat="45.94232" lon="4.71569">
        <ele>174</ele>
        <time>2016-11-12T09:44:22Z</time>
      </trkpt>
      <trkpt lat="45.94237" lon="4.71567">
        <ele>174</ele>
        <time>2016-11-12T09:44:23Z</time>
      </trkpt>
      <trkpt lat="45.94242" lon="4.71565">
        <ele>174</ele>
        <time>2016-11-12T09:44:24Z</time>
      </trkpt>
      <trkpt lat="45.94248" lon="4.71563">
        <ele>174</ele>
        <time>2016-11-12T09:44:25Z</time>
      </trkpt>
      <trkpt lat="45.94253" lon="4.71561">
        <ele>175</ele>
        <time>2016-11-12T09:44:26Z</time>
      </trkpt>
      <trkpt lat="45.94259" lon="4.71559">
        <ele>175</ele>
        <time>2016-11-12T09:44:27Z</time>
      </trkpt>
      <trkpt lat="45.94264" lon="4.71557">
        <ele>175</ele>
        <time>2016-11-12T09:44:28Z</time>
      </trkpt>
      <trkpt lat="45.9427" lon="4.71555">
        <ele>175</ele>
        <time>2016-11-12T09:44:29Z</time>
      </trkpt>
      <trkpt lat="45.94276" lon="4.71553">
        <ele>175</ele>
        <time>2016-11-12T09:44:30Z</time>
      </trkpt>
      <trkpt lat="45.94281" lon="4.71551">
        <ele>175</ele>
        <time>2016-11-12T09:44:31Z</time>
      </trkpt>
      <trkpt lat="45.94287" lon="4.71549">
        <ele>175</ele>
        <time>2016-11-12T09:44:32Z</time>
      </trkpt>
      <trkpt lat="45.94292" lon="4.71549">
        <ele>175</ele>
        <time>2016-11-12T09:44:33Z</time>
      </trkpt>
      <trkpt lat="45.94297" lon="4.71548">
        <ele>175</ele>
        <time>2016-11-12T09:44:34Z</time>
      </trkpt>
      <trkpt lat="45.94302" lon="4.71545">
        <ele>175</ele>
        <time>2016-11-12T09:44:35Z</time>
      </trkpt>
      <trkpt lat="45.94307" lon="4.71543">
        <ele>175</ele>
        <time>2016-11-12T09:44:36Z</time>
      </trkpt>
      <trkpt lat="45.94312" lon="4.7154">
        <ele>175</ele>
        <time>2016-11-12T09:44:37Z</time>
      </trkpt>
      <trkpt lat="45.94317" lon="4.71538">
        <ele>175</ele>
        <time>2016-11-12T09:44:38Z</time>
      </trkpt>
      <trkpt lat="45.94321" lon="4.71535">
        <ele>175</ele>
        <time>2016-11-12T09:44:39Z</time>
      </trkpt>
      <trkpt lat="45.94326" lon="4.71533">
        <ele>176</ele>
        <time>2016-11-12T09:44:40Z</time>
      </trkpt>
      <trkpt lat="45.9433" lon="4.71531">
        <ele>176</ele>
        <time>2016-11-12T09:44:41Z</time>
      </trkpt>
      <trkpt lat="45.94335" lon="4.71529">
        <ele>176</ele>
        <time>2016-11-12T09:44:42Z</time>
      </trkpt>
      <trkpt lat="45.9434" lon="4.71528">
        <ele>176</ele>
        <time>2016-11-12T09:44:43Z</time>
      </trkpt>
      <trkpt lat="45.94344" lon="4.71527">
        <ele>176</ele>
        <time>2016-11-12T09:44:44Z</time>
      </trkpt>
      <trkpt lat="45.94349" lon="4.71526">
        <ele>176</ele>
        <time>2016-11-12T09:44:45Z</time>
      </trkpt>
      <trkpt lat="45.94354" lon="4.71524">
        <ele>176</ele>
        <time>2016-11-12T09:44:46Z</time>
      </trkpt>
      <trkpt lat="45.94358" lon="4.71522">
        <ele>176</ele>
        <time>2016-11-12T09:44:47Z</time>
      </trkpt>
      <trkpt lat="45.94362" lon="4.7152">
        <ele>176</ele>
        <time>2016-11-12T09:44:48Z</time>
      </trkpt>
      <trkpt lat="45.94367" lon="4.71518">
        <ele>176</ele>
        <time>2016-11-12T09:44:49Z</time>
      </trkpt>
      <trkpt lat="45.94372" lon="4.71516">
        <ele>176</ele>
        <time>2016-11-12T09:44:50Z</time>
      </trkpt>
      <trkpt lat="45.94377" lon="4.71514">
        <ele>176</ele>
        <time>2016-11-12T09:44:51Z</time>
      </trkpt>
      <trkpt lat="45.94382" lon="4.71512">
        <ele>177</ele>
        <time>2016-11-12T09:44:52Z</time>
      </trkpt>
      <trkpt lat="45.94388" lon="4.71511">
        <ele>177</ele>
        <time>2016-11-12T09:44:53Z</time>
      </trkpt>
      <trkpt lat="45.94393" lon="4.7151">
        <ele>177</ele>
        <time>2016-11-12T09:44:54Z</time>
      </trkpt>
      <trkpt lat="45.94399" lon="4.71508">
        <ele>177</ele>
        <time>2016-11-12T09:44:55Z</time>
      </trkpt>
      <trkpt lat="45.94404" lon="4.71506">
        <ele>177</ele>
        <time>2016-11-12T09:44:56Z</time>
      </trkpt>
      <trkpt lat="45.9441" lon="4.71504">
        <ele>177</ele>
        <time>2016-11-12T09:44:57Z</time>
      </trkpt>
      <trkpt lat="45.9442" lon="4.715">
        <ele>178</ele>
        <time>2016-11-12T09:44:59Z</time>
      </trkpt>
      <trkpt lat="45.94427" lon="4.71499">
        <ele>178</ele>
        <time>2016-11-12T09:45:01Z</time>
      </trkpt>
      <trkpt lat="45.94431" lon="4.71498">
        <ele>178</ele>
        <time>2016-11-12T09:45:02Z</time>
      </trkpt>
      <trkpt lat="45.94436" lon="4.71496">
        <ele>178</ele>
        <time>2016-11-12T09:45:03Z</time>
      </trkpt>
      <trkpt lat="45.94455" lon="4.7149">
        <ele>179</ele>
        <time>2016-11-12T09:45:07Z</time>
      </trkpt>
      <trkpt lat="45.9446" lon="4.71488">
        <ele>179</ele>
        <time>2016-11-12T09:45:08Z</time>
      </trkpt>
      <trkpt lat="45.94465" lon="4.71486">
        <ele>179</ele>
        <time>2016-11-12T09:45:09Z</time>
      </trkpt>
      <trkpt lat="45.94469" lon="4.71484">
        <ele>179</ele>
        <time>2016-11-12T09:45:10Z</time>
      </trkpt>
      <trkpt lat="45.94473" lon="4.71482">
        <ele>179</ele>
        <time>2016-11-12T09:45:11Z</time>
      </trkpt>
      <trkpt lat="45.94482" lon="4.71478">
        <ele>179</ele>
        <time>2016-11-12T09:45:13Z</time>
      </trkpt>
      <trkpt lat="45.94487" lon="4.71478">
        <ele>178</ele>
        <time>2016-11-12T09:45:14Z</time>
      </trkpt>
      <trkpt lat="45.94492" lon="4.71477">
        <ele>178</ele>
        <time>2016-11-12T09:45:15Z</time>
      </trkpt>
      <trkpt lat="45.94497" lon="4.71475">
        <ele>179</ele>
        <time>2016-11-12T09:45:16Z</time>
      </trkpt>
      <trkpt lat="45.94502" lon="4.71473">
        <ele>179</ele>
        <time>2016-11-12T09:45:17Z</time>
      </trkpt>
      <trkpt lat="45.94507" lon="4.71471">
        <ele>179</ele>
        <time>2016-11-12T09:45:18Z</time>
      </trkpt>
      <trkpt lat="45.94511" lon="4.71468">
        <ele>179</ele>
        <time>2016-11-12T09:45:19Z</time>
      </trkpt>
      <trkpt lat="45.94516" lon="4.71466">
        <ele>180</ele>
        <time>2016-11-12T09:45:20Z</time>
      </trkpt>
      <trkpt lat="45.94521" lon="4.71464">
        <ele>180</ele>
        <time>2016-11-12T09:45:21Z</time>
      </trkpt>
      <trkpt lat="45.94525" lon="4.71462">
        <ele>180</ele>
        <time>2016-11-12T09:45:22Z</time>
      </trkpt>
      <trkpt lat="45.9453" lon="4.7146">
        <ele>180</ele>
        <time>2016-11-12T09:45:23Z</time>
      </trkpt>
      <trkpt lat="45.94535" lon="4.71458">
        <ele>180</ele>
        <time>2016-11-12T09:45:24Z</time>
      </trkpt>
      <trkpt lat="45.94544" lon="4.71455">
        <ele>180</ele>
        <time>2016-11-12T09:45:26Z</time>
      </trkpt>
      <trkpt lat="45.94549" lon="4.71452">
        <ele>180</ele>
        <time>2016-11-12T09:45:27Z</time>
      </trkpt>
      <trkpt lat="45.94555" lon="4.7145">
        <ele>181</ele>
        <time>2016-11-12T09:45:28Z</time>
      </trkpt>
      <trkpt lat="45.9456" lon="4.71449">
        <ele>181</ele>
        <time>2016-11-12T09:45:29Z</time>
      </trkpt>
      <trkpt lat="45.94564" lon="4.71449">
        <ele>181</ele>
        <time>2016-11-12T09:45:30Z</time>
      </trkpt>
      <trkpt lat="45.94569" lon="4.71448">
        <ele>181</ele>
        <time>2016-11-12T09:45:31Z</time>
      </trkpt>
      <trkpt lat="45.94575" lon="4.71447">
        <ele>181</ele>
        <time>2016-11-12T09:45:32Z</time>
      </trkpt>
      <trkpt lat="45.9458" lon="4.71446">
        <ele>181</ele>
        <time>2016-11-12T09:45:33Z</time>
      </trkpt>
      <trkpt lat="45.94585" lon="4.71446">
        <ele>182</ele>
        <time>2016-11-12T09:45:34Z</time>
      </trkpt>
      <trkpt lat="45.9459" lon="4.71446">
        <ele>181</ele>
        <time>2016-11-12T09:45:35Z</time>
      </trkpt>
      <trkpt lat="45.94595" lon="4.71447">
        <ele>181</ele>
        <time>2016-11-12T09:45:36Z</time>
      </trkpt>
      <trkpt lat="45.94599" lon="4.71447">
        <ele>181</ele>
        <time>2016-11-12T09:45:37Z</time>
      </trkpt>
      <trkpt lat="45.94604" lon="4.71447">
        <ele>181</ele>
        <time>2016-11-12T09:45:38Z</time>
      </trkpt>
      <trkpt lat="45.94609" lon="4.71447">
        <ele>181</ele>
        <time>2016-11-12T09:45:39Z</time>
      </trkpt>
      <trkpt lat="45.94613" lon="4.71447">
        <ele>181</ele>
        <time>2016-11-12T09:45:40Z</time>
      </trkpt>
      <trkpt lat="45.94618" lon="4.71447">
        <ele>181</ele>
        <time>2016-11-12T09:45:41Z</time>
      </trkpt>
      <trkpt lat="45.94623" lon="4.71447">
        <ele>181</ele>
        <time>2016-11-12T09:45:42Z</time>
      </trkpt>
      <trkpt lat="45.94627" lon="4.71447">
        <ele>181</ele>
        <time>2016-11-12T09:45:43Z</time>
      </trkpt>
      <trkpt lat="45.94632" lon="4.71447">
        <ele>181</ele>
        <time>2016-11-12T09:45:44Z</time>
      </trkpt>
      <trkpt lat="45.94637" lon="4.71447">
        <ele>181</ele>
        <time>2016-11-12T09:45:45Z</time>
      </trkpt>
      <trkpt lat="45.94641" lon="4.71447">
        <ele>181</ele>
        <time>2016-11-12T09:45:46Z</time>
      </trkpt>
      <trkpt lat="45.94646" lon="4.71447">
        <ele>181</ele>
        <time>2016-11-12T09:45:47Z</time>
      </trkpt>
      <trkpt lat="45.9465" lon="4.71447">
        <ele>181</ele>
        <time>2016-11-12T09:45:48Z</time>
      </trkpt>
      <trkpt lat="45.94655" lon="4.71447">
        <ele>181</ele>
        <time>2016-11-12T09:45:49Z</time>
      </trkpt>
      <trkpt lat="45.94659" lon="4.71447">
        <ele>181</ele>
        <time>2016-11-12T09:45:50Z</time>
      </trkpt>
      <trkpt lat="45.94664" lon="4.71448">
        <ele>181</ele>
        <time>2016-11-12T09:45:51Z</time>
      </trkpt>
      <trkpt lat="45.94669" lon="4.71448">
        <ele>182</ele>
        <time>2016-11-12T09:45:52Z</time>
      </trkpt>
      <trkpt lat="45.94673" lon="4.71449">
        <ele>182</ele>
        <time>2016-11-12T09:45:53Z</time>
      </trkpt>
      <trkpt lat="45.94678" lon="4.71449">
        <ele>182</ele>
        <time>2016-11-12T09:45:54Z</time>
      </trkpt>
      <trkpt lat="45.94682" lon="4.71449">
        <ele>182</ele>
        <time>2016-11-12T09:45:55Z</time>
      </trkpt>
      <trkpt lat="45.94687" lon="4.7145">
        <ele>182</ele>
        <time>2016-11-12T09:45:56Z</time>
      </trkpt>
      <trkpt lat="45.94691" lon="4.71451">
        <ele>182</ele>
        <time>2016-11-12T09:45:57Z</time>
      </trkpt>
      <trkpt lat="45.94696" lon="4.71451">
        <ele>182</ele>
        <time>2016-11-12T09:45:58Z</time>
      </trkpt>
      <trkpt lat="45.94701" lon="4.71452">
        <ele>182</ele>
        <time>2016-11-12T09:45:59Z</time>
      </trkpt>
      <trkpt lat="45.94705" lon="4.71452">
        <ele>182</ele>
        <time>2016-11-12T09:46:00Z</time>
      </trkpt>
      <trkpt lat="45.9471" lon="4.71452">
        <ele>182</ele>
        <time>2016-11-12T09:46:01Z</time>
      </trkpt>
      <trkpt lat="45.94715" lon="4.71452">
        <ele>182</ele>
        <time>2016-11-12T09:46:02Z</time>
      </trkpt>
      <trkpt lat="45.9472" lon="4.71452">
        <ele>182</ele>
        <time>2016-11-12T09:46:03Z</time>
      </trkpt>
      <trkpt lat="45.94725" lon="4.71453">
        <ele>182</ele>
        <time>2016-11-12T09:46:04Z</time>
      </trkpt>
      <trkpt lat="45.9473" lon="4.71454">
        <ele>182</ele>
        <time>2016-11-12T09:46:05Z</time>
      </trkpt>
      <trkpt lat="45.94735" lon="4.71454">
        <ele>182</ele>
        <time>2016-11-12T09:46:06Z</time>
      </trkpt>
      <trkpt lat="45.9474" lon="4.71454">
        <ele>182</ele>
        <time>2016-11-12T09:46:07Z</time>
      </trkpt>
      <trkpt lat="45.94745" lon="4.71454">
        <ele>182</ele>
        <time>2016-11-12T09:46:08Z</time>
      </trkpt>
      <trkpt lat="45.9475" lon="4.71454">
        <ele>182</ele>
        <time>2016-11-12T09:46:09Z</time>
      </trkpt>
      <trkpt lat="45.94755" lon="4.71454">
        <ele>183</ele>
        <time>2016-11-12T09:46:10Z</time>
      </trkpt>
      <trkpt lat="45.94761" lon="4.71454">
        <ele>183</ele>
        <time>2016-11-12T09:46:11Z</time>
      </trkpt>
      <trkpt lat="45.94766" lon="4.71455">
        <ele>183</ele>
        <time>2016-11-12T09:46:12Z</time>
      </trkpt>
      <trkpt lat="45.94771" lon="4.71455">
        <ele>183</ele>
        <time>2016-11-12T09:46:13Z</time>
      </trkpt>
      <trkpt lat="45.94777" lon="4.71456">
        <ele>183</ele>
        <time>2016-11-12T09:46:14Z</time>
      </trkpt>
      <trkpt lat="45.94783" lon="4.71457">
        <ele>183</ele>
        <time>2016-11-12T09:46:15Z</time>
      </trkpt>
      <trkpt lat="45.94788" lon="4.71457">
        <ele>183</ele>
        <time>2016-11-12T09:46:16Z</time>
      </trkpt>
      <trkpt lat="45.94794" lon="4.71458">
        <ele>183</ele>
        <time>2016-11-12T09:46:17Z</time>
      </trkpt>
      <trkpt lat="45.948" lon="4.71459">
        <ele>183</ele>
        <time>2016-11-12T09:46:18Z</time>
      </trkpt>
      <trkpt lat="45.94806" lon="4.71459">
        <ele>183</ele>
        <time>2016-11-12T09:46:19Z</time>
      </trkpt>
      <trkpt lat="45.94811" lon="4.7146">
        <ele>183</ele>
        <time>2016-11-12T09:46:20Z</time>
      </trkpt>
      <trkpt lat="45.94817" lon="4.7146">
        <ele>183</ele>
        <time>2016-11-12T09:46:21Z</time>
      </trkpt>
      <trkpt lat="45.94823" lon="4.71461">
        <ele>183</ele>
        <time>2016-11-12T09:46:22Z</time>
      </trkpt>
      <trkpt lat="45.94829" lon="4.71461">
        <ele>183</ele>
        <time>2016-11-12T09:46:23Z</time>
      </trkpt>
      <trkpt lat="45.94834" lon="4.71462">
        <ele>183</ele>
        <time>2016-11-12T09:46:24Z</time>
      </trkpt>
      <trkpt lat="45.9484" lon="4.71463">
        <ele>183</ele>
        <time>2016-11-12T09:46:25Z</time>
      </trkpt>
      <trkpt lat="45.94846" lon="4.71463">
        <ele>183</ele>
        <time>2016-11-12T09:46:26Z</time>
      </trkpt>
      <trkpt lat="45.94851" lon="4.71465">
        <ele>183</ele>
        <time>2016-11-12T09:46:27Z</time>
      </trkpt>
      <trkpt lat="45.94857" lon="4.71466">
        <ele>183</ele>
        <time>2016-11-12T09:46:28Z</time>
      </trkpt>
      <trkpt lat="45.94863" lon="4.71468">
        <ele>183</ele>
        <time>2016-11-12T09:46:29Z</time>
      </trkpt>
      <trkpt lat="45.94869" lon="4.71469">
        <ele>183</ele>
        <time>2016-11-12T09:46:30Z</time>
      </trkpt>
      <trkpt lat="45.94874" lon="4.7147">
        <ele>183</ele>
        <time>2016-11-12T09:46:31Z</time>
      </trkpt>
      <trkpt lat="45.9488" lon="4.71471">
        <ele>183</ele>
        <time>2016-11-12T09:46:32Z</time>
      </trkpt>
      <trkpt lat="45.94886" lon="4.71472">
        <ele>183</ele>
        <time>2016-11-12T09:46:33Z</time>
      </trkpt>
      <trkpt lat="45.94892" lon="4.71472">
        <ele>183</ele>
        <time>2016-11-12T09:46:34Z</time>
      </trkpt>
      <trkpt lat="45.94898" lon="4.71473">
        <ele>183</ele>
        <time>2016-11-12T09:46:35Z</time>
      </trkpt>
      <trkpt lat="45.94904" lon="4.71474">
        <ele>183</ele>
        <time>2016-11-12T09:46:36Z</time>
      </trkpt>
      <trkpt lat="45.9491" lon="4.71473">
        <ele>183</ele>
        <time>2016-11-12T09:46:37Z</time>
      </trkpt>
      <trkpt lat="45.94916" lon="4.71473">
        <ele>183</ele>
        <time>2016-11-12T09:46:38Z</time>
      </trkpt>
      <trkpt lat="45.94921" lon="4.71473">
        <ele>183</ele>
        <time>2016-11-12T09:46:39Z</time>
      </trkpt>
      <trkpt lat="45.94927" lon="4.71473">
        <ele>183</ele>
        <time>2016-11-12T09:46:40Z</time>
      </trkpt>
      <trkpt lat="45.94933" lon="4.71472">
        <ele>183</ele>
        <time>2016-11-12T09:46:41Z</time>
      </trkpt>
      <trkpt lat="45.94938" lon="4.71472">
        <ele>183</ele>
        <time>2016-11-12T09:46:42Z</time>
      </trkpt>
      <trkpt lat="45.94943" lon="4.71474">
        <ele>183</ele>
        <time>2016-11-12T09:46:43Z</time>
      </trkpt>
      <trkpt lat="45.94947" lon="4.71477">
        <ele>183</ele>
        <time>2016-11-12T09:46:44Z</time>
      </trkpt>
      <trkpt lat="45.94951" lon="4.71481">
        <ele>183</ele>
        <time>2016-11-12T09:46:45Z</time>
      </trkpt>
      <trkpt lat="45.94956" lon="4.71484">
        <ele>183</ele>
        <time>2016-11-12T09:46:46Z</time>
      </trkpt>
      <trkpt lat="45.9496" lon="4.71487">
        <ele>182</ele>
        <time>2016-11-12T09:46:47Z</time>
      </trkpt>
      <trkpt lat="45.94965" lon="4.71489">
        <ele>182</ele>
        <time>2016-11-12T09:46:48Z</time>
      </trkpt>
      <trkpt lat="45.9497" lon="4.71488">
        <ele>182</ele>
        <time>2016-11-12T09:46:49Z</time>
      </trkpt>
      <trkpt lat="45.94976" lon="4.71486">
        <ele>182</ele>
        <time>2016-11-12T09:46:50Z</time>
      </trkpt>
      <trkpt lat="45.94981" lon="4.71483">
        <ele>182</ele>
        <time>2016-11-12T09:46:51Z</time>
      </trkpt>
      <trkpt lat="45.94986" lon="4.7148">
        <ele>182</ele>
        <time>2016-11-12T09:46:52Z</time>
      </trkpt>
      <trkpt lat="45.94991" lon="4.71478">
        <ele>182</ele>
        <time>2016-11-12T09:46:53Z</time>
      </trkpt>
      <trkpt lat="45.94997" lon="4.71477">
        <ele>182</ele>
        <time>2016-11-12T09:46:54Z</time>
      </trkpt>
      <trkpt lat="45.95003" lon="4.71477">
        <ele>181</ele>
        <time>2016-11-12T09:46:55Z</time>
      </trkpt>
      <trkpt lat="45.95009" lon="4.71477">
        <ele>181</ele>
        <time>2016-11-12T09:46:56Z</time>
      </trkpt>
      <trkpt lat="45.95015" lon="4.71478">
        <ele>181</ele>
        <time>2016-11-12T09:46:57Z</time>
      </trkpt>
      <trkpt lat="45.95021" lon="4.71478">
        <ele>181</ele>
        <time>2016-11-12T09:46:58Z</time>
      </trkpt>
      <trkpt lat="45.95027" lon="4.71478">
        <ele>181</ele>
        <time>2016-11-12T09:46:59Z</time>
      </trkpt>
      <trkpt lat="45.95034" lon="4.71478">
        <ele>181</ele>
        <time>2016-11-12T09:47:00Z</time>
      </trkpt>
      <trkpt lat="45.95041" lon="4.71478">
        <ele>181</ele>
        <time>2016-11-12T09:47:01Z</time>
      </trkpt>
      <trkpt lat="45.95049" lon="4.71478">
        <ele>181</ele>
        <time>2016-11-12T09:47:02Z</time>
      </trkpt>
      <trkpt lat="45.95056" lon="4.71478">
        <ele>181</ele>
        <time>2016-11-12T09:47:03Z</time>
      </trkpt>
      <trkpt lat="45.95064" lon="4.71478">
        <ele>181</ele>
        <time>2016-11-12T09:47:04Z</time>
      </trkpt>
      <trkpt lat="45.95073" lon="4.71478">
        <ele>181</ele>
        <time>2016-11-12T09:47:05Z</time>
      </trkpt>
      <trkpt lat="45.95082" lon="4.71479">
        <ele>180</ele>
        <time>2016-11-12T09:47:06Z</time>
      </trkpt>
      <trkpt lat="45.9509" lon="4.71478">
        <ele>179</ele>
        <time>2016-11-12T09:47:07Z</time>
      </trkpt>
      <trkpt lat="45.95099" lon="4.71478">
        <ele>179</ele>
        <time>2016-11-12T09:47:08Z</time>
      </trkpt>
      <trkpt lat="45.95107" lon="4.71478">
        <ele>179</ele>
        <time>2016-11-12T09:47:09Z</time>
      </trkpt>
      <trkpt lat="45.95116" lon="4.71478">
        <ele>179</ele>
        <time>2016-11-12T09:47:10Z</time>
      </trkpt>
      <trkpt lat="45.95124" lon="4.71479">
        <ele>178</ele>
        <time>2016-11-12T09:47:11Z</time>
      </trkpt>
      <trkpt lat="45.95132" lon="4.71479">
        <ele>178</ele>
        <time>2016-11-12T09:47:12Z</time>
      </trkpt>
      <trkpt lat="45.9514" lon="4.7148">
        <ele>178</ele>
        <time>2016-11-12T09:47:13Z</time>
      </trkpt>
      <trkpt lat="45.95149" lon="4.7148">
        <ele>178</ele>
        <time>2016-11-12T09:47:14Z</time>
      </trkpt>
      <trkpt lat="45.95157" lon="4.71481">
        <ele>178</ele>
        <time>2016-11-12T09:47:15Z</time>
      </trkpt>
      <trkpt lat="45.95166" lon="4.71482">
        <ele>178</ele>
        <time>2016-11-12T09:47:16Z</time>
      </trkpt>
      <trkpt lat="45.95175" lon="4.71483">
        <ele>177</ele>
        <time>2016-11-12T09:47:17Z</time>
      </trkpt>
      <trkpt lat="45.95183" lon="4.71483">
        <ele>177</ele>
        <time>2016-11-12T09:47:18Z</time>
      </trkpt>
      <trkpt lat="45.95192" lon="4.71484">
        <ele>177</ele>
        <time>2016-11-12T09:47:19Z</time>
      </trkpt>
      <trkpt lat="45.95201" lon="4.71485">
        <ele>177</ele>
        <time>2016-11-12T09:47:20Z</time>
      </trkpt>
      <trkpt lat="45.95209" lon="4.71485">
        <ele>177</ele>
        <time>2016-11-12T09:47:21Z</time>
      </trkpt>
      <trkpt lat="45.95218" lon="4.71486">
        <ele>177</ele>
        <time>2016-11-12T09:47:22Z</time>
      </trkpt>
      <trkpt lat="45.95226" lon="4.71487">
        <ele>177</ele>
        <time>2016-11-12T09:47:23Z</time>
      </trkpt>
      <trkpt lat="45.95235" lon="4.71488">
        <ele>177</ele>
        <time>2016-11-12T09:47:24Z</time>
      </trkpt>
      <trkpt lat="45.95243" lon="4.71489">
        <ele>177</ele>
        <time>2016-11-12T09:47:25Z</time>
      </trkpt>
      <trkpt lat="45.95251" lon="4.7149">
        <ele>177</ele>
        <time>2016-11-12T09:47:26Z</time>
      </trkpt>
      <trkpt lat="45.95259" lon="4.7149">
        <ele>176</ele>
        <time>2016-11-12T09:47:27Z</time>
      </trkpt>
      <trkpt lat="45.95267" lon="4.71491">
        <ele>176</ele>
        <time>2016-11-12T09:47:28Z</time>
      </trkpt>
      <trkpt lat="45.95274" lon="4.71492">
        <ele>176</ele>
        <time>2016-11-12T09:47:29Z</time>
      </trkpt>
      <trkpt lat="45.95282" lon="4.71492">
        <ele>176</ele>
        <time>2016-11-12T09:47:30Z</time>
      </trkpt>
      <trkpt lat="45.9529" lon="4.71494">
        <ele>176</ele>
        <time>2016-11-12T09:47:31Z</time>
      </trkpt>
      <trkpt lat="45.95297" lon="4.71494">
        <ele>176</ele>
        <time>2016-11-12T09:47:32Z</time>
      </trkpt>
      <trkpt lat="45.95304" lon="4.71495">
        <ele>175</ele>
        <time>2016-11-12T09:47:33Z</time>
      </trkpt>
      <trkpt lat="45.95311" lon="4.71495">
        <ele>175</ele>
        <time>2016-11-12T09:47:34Z</time>
      </trkpt>
      <trkpt lat="45.95317" lon="4.71496">
        <ele>175</ele>
        <time>2016-11-12T09:47:35Z</time>
      </trkpt>
      <trkpt lat="45.95324" lon="4.71496">
        <ele>175</ele>
        <time>2016-11-12T09:47:36Z</time>
      </trkpt>
      <trkpt lat="45.9533" lon="4.71497">
        <ele>174</ele>
        <time>2016-11-12T09:47:37Z</time>
      </trkpt>
      <trkpt lat="45.95336" lon="4.71497">
        <ele>174</ele>
        <time>2016-11-12T09:47:38Z</time>
      </trkpt>
      <trkpt lat="45.95343" lon="4.71497">
        <ele>174</ele>
        <time>2016-11-12T09:47:39Z</time>
      </trkpt>
      <trkpt lat="45.95348" lon="4.71497">
        <ele>175</ele>
        <time>2016-11-12T09:47:40Z</time>
      </trkpt>
      <trkpt lat="45.95354" lon="4.71497">
        <ele>175</ele>
        <time>2016-11-12T09:47:41Z</time>
      </trkpt>
      <trkpt lat="45.9536" lon="4.71497">
        <ele>175</ele>
        <time>2016-11-12T09:47:42Z</time>
      </trkpt>
      <trkpt lat="45.95365" lon="4.71497">
        <ele>175</ele>
        <time>2016-11-12T09:47:43Z</time>
      </trkpt>
      <trkpt lat="45.95371" lon="4.71497">
        <ele>175</ele>
        <time>2016-11-12T09:47:44Z</time>
      </trkpt>
      <trkpt lat="45.95377" lon="4.71497">
        <ele>175</ele>
        <time>2016-11-12T09:47:45Z</time>
      </trkpt>
      <trkpt lat="45.95383" lon="4.71498">
        <ele>175</ele>
        <time>2016-11-12T09:47:46Z</time>
      </trkpt>
      <trkpt lat="45.95389" lon="4.71498">
        <ele>175</ele>
        <time>2016-11-12T09:47:47Z</time>
      </trkpt>
      <trkpt lat="45.95395" lon="4.71499">
        <ele>175</ele>
        <time>2016-11-12T09:47:48Z</time>
      </trkpt>
      <trkpt lat="45.95401" lon="4.71499">
        <ele>175</ele>
        <time>2016-11-12T09:47:49Z</time>
      </trkpt>
      <trkpt lat="45.95408" lon="4.71499">
        <ele>174</ele>
        <time>2016-11-12T09:47:50Z</time>
      </trkpt>
      <trkpt lat="45.95414" lon="4.715">
        <ele>174</ele>
        <time>2016-11-12T09:47:51Z</time>
      </trkpt>
      <trkpt lat="45.95421" lon="4.715">
        <ele>174</ele>
        <time>2016-11-12T09:47:52Z</time>
      </trkpt>
      <trkpt lat="45.95427" lon="4.71501">
        <ele>174</ele>
        <time>2016-11-12T09:47:53Z</time>
      </trkpt>
      <trkpt lat="45.95434" lon="4.71501">
        <ele>175</ele>
        <time>2016-11-12T09:47:54Z</time>
      </trkpt>
      <trkpt lat="45.9544" lon="4.71501">
        <ele>175</ele>
        <time>2016-11-12T09:47:55Z</time>
      </trkpt>
      <trkpt lat="45.95445" lon="4.71502">
        <ele>175</ele>
        <time>2016-11-12T09:47:56Z</time>
      </trkpt>
      <trkpt lat="45.95451" lon="4.71503">
        <ele>175</ele>
        <time>2016-11-12T09:47:57Z</time>
      </trkpt>
      <trkpt lat="45.95457" lon="4.71503">
        <ele>175</ele>
        <time>2016-11-12T09:47:58Z</time>
      </trkpt>
      <trkpt lat="45.95463" lon="4.71504">
        <ele>175</ele>
        <time>2016-11-12T09:47:59Z</time>
      </trkpt>
      <trkpt lat="45.95468" lon="4.71505">
        <ele>175</ele>
        <time>2016-11-12T09:48:00Z</time>
      </trkpt>
      <trkpt lat="45.95474" lon="4.71506">
        <ele>176</ele>
        <time>2016-11-12T09:48:01Z</time>
      </trkpt>
      <trkpt lat="45.9548" lon="4.71506">
        <ele>176</ele>
        <time>2016-11-12T09:48:02Z</time>
      </trkpt>
      <trkpt lat="45.95484" lon="4.71507">
        <ele>176</ele>
        <time>2016-11-12T09:48:03Z</time>
      </trkpt>
      <trkpt lat="45.9549" lon="4.71507">
        <ele>176</ele>
        <time>2016-11-12T09:48:04Z</time>
      </trkpt>
      <trkpt lat="45.95495" lon="4.71507">
        <ele>176</ele>
        <time>2016-11-12T09:48:05Z</time>
      </trkpt>
      <trkpt lat="45.955" lon="4.71508">
        <ele>177</ele>
        <time>2016-11-12T09:48:06Z</time>
      </trkpt>
      <trkpt lat="45.95506" lon="4.71508">
        <ele>177</ele>
        <time>2016-11-12T09:48:07Z</time>
      </trkpt>
      <trkpt lat="45.95512" lon="4.71507">
        <ele>177</ele>
        <time>2016-11-12T09:48:08Z</time>
      </trkpt>
      <trkpt lat="45.95518" lon="4.71506">
        <ele>177</ele>
        <time>2016-11-12T09:48:09Z</time>
      </trkpt>
      <trkpt lat="45.95524" lon="4.71507">
        <ele>177</ele>
        <time>2016-11-12T09:48:10Z</time>
      </trkpt>
      <trkpt lat="45.9553" lon="4.71508">
        <ele>177</ele>
        <time>2016-11-12T09:48:11Z</time>
      </trkpt>
      <trkpt lat="45.95536" lon="4.71509">
        <ele>177</ele>
        <time>2016-11-12T09:48:12Z</time>
      </trkpt>
      <trkpt lat="45.95542" lon="4.7151">
        <ele>178</ele>
        <time>2016-11-12T09:48:13Z</time>
      </trkpt>
      <trkpt lat="45.95549" lon="4.71511">
        <ele>178</ele>
        <time>2016-11-12T09:48:14Z</time>
      </trkpt>
      <trkpt lat="45.95555" lon="4.71511">
        <ele>178</ele>
        <time>2016-11-12T09:48:15Z</time>
      </trkpt>
      <trkpt lat="45.95561" lon="4.71512">
        <ele>178</ele>
        <time>2016-11-12T09:48:16Z</time>
      </trkpt>
      <trkpt lat="45.95567" lon="4.71512">
        <ele>178</ele>
        <time>2016-11-12T09:48:17Z</time>
      </trkpt>
      <trkpt lat="45.95573" lon="4.71513">
        <ele>179</ele>
        <time>2016-11-12T09:48:18Z</time>
      </trkpt>
      <trkpt lat="45.95579" lon="4.71513">
        <ele>179</ele>
        <time>2016-11-12T09:48:19Z</time>
      </trkpt>
      <trkpt lat="45.95584" lon="4.71514">
        <ele>179</ele>
        <time>2016-11-12T09:48:20Z</time>
      </trkpt>
      <trkpt lat="45.9559" lon="4.71515">
        <ele>179</ele>
        <time>2016-11-12T09:48:21Z</time>
      </trkpt>
      <trkpt lat="45.95595" lon="4.71515">
        <ele>179</ele>
        <time>2016-11-12T09:48:22Z</time>
      </trkpt>
      <trkpt lat="45.956" lon="4.71516">
        <ele>179</ele>
        <time>2016-11-12T09:48:23Z</time>
      </trkpt>
      <trkpt lat="45.95606" lon="4.71516">
        <ele>179</ele>
        <time>2016-11-12T09:48:24Z</time>
      </trkpt>
      <trkpt lat="45.95611" lon="4.71516">
        <ele>179</ele>
        <time>2016-11-12T09:48:25Z</time>
      </trkpt>
      <trkpt lat="45.95616" lon="4.71516">
        <ele>179</ele>
        <time>2016-11-12T09:48:26Z</time>
      </trkpt>
      <trkpt lat="45.95621" lon="4.71517">
        <ele>179</ele>
        <time>2016-11-12T09:48:27Z</time>
      </trkpt>
      <trkpt lat="45.95626" lon="4.71517">
        <ele>179</ele>
        <time>2016-11-12T09:48:28Z</time>
      </trkpt>
      <trkpt lat="45.95631" lon="4.71517">
        <ele>179</ele>
        <time>2016-11-12T09:48:29Z</time>
      </trkpt>
      <trkpt lat="45.95637" lon="4.71517">
        <ele>180</ele>
        <time>2016-11-12T09:48:30Z</time>
      </trkpt>
      <trkpt lat="45.95642" lon="4.71517">
        <ele>180</ele>
        <time>2016-11-12T09:48:31Z</time>
      </trkpt>
      <trkpt lat="45.95647" lon="4.71518">
        <ele>180</ele>
        <time>2016-11-12T09:48:32Z</time>
      </trkpt>
      <trkpt lat="45.95652" lon="4.71518">
        <ele>180</ele>
        <time>2016-11-12T09:48:33Z</time>
      </trkpt>
      <trkpt lat="45.95657" lon="4.71518">
        <ele>180</ele>
        <time>2016-11-12T09:48:34Z</time>
      </trkpt>
      <trkpt lat="45.95663" lon="4.71519">
        <ele>180</ele>
        <time>2016-11-12T09:48:35Z</time>
      </trkpt>
      <trkpt lat="45.95668" lon="4.71519">
        <ele>181</ele>
        <time>2016-11-12T09:48:36Z</time>
      </trkpt>
      <trkpt lat="45.95673" lon="4.71519">
        <ele>181</ele>
        <time>2016-11-12T09:48:37Z</time>
      </trkpt>
      <trkpt lat="45.95678" lon="4.7152">
        <ele>180</ele>
        <time>2016-11-12T09:48:38Z</time>
      </trkpt>
      <trkpt lat="45.95683" lon="4.7152">
        <ele>180</ele>
        <time>2016-11-12T09:48:39Z</time>
      </trkpt>
      <trkpt lat="45.95687" lon="4.7152">
        <ele>180</ele>
        <time>2016-11-12T09:48:40Z</time>
      </trkpt>
      <trkpt lat="45.95692" lon="4.71521">
        <ele>180</ele>
        <time>2016-11-12T09:48:41Z</time>
      </trkpt>
      <trkpt lat="45.95697" lon="4.71521">
        <ele>180</ele>
        <time>2016-11-12T09:48:42Z</time>
      </trkpt>
      <trkpt lat="45.95703" lon="4.71521">
        <ele>180</ele>
        <time>2016-11-12T09:48:43Z</time>
      </trkpt>
      <trkpt lat="45.95708" lon="4.71522">
        <ele>180</ele>
        <time>2016-11-12T09:48:44Z</time>
      </trkpt>
      <trkpt lat="45.95713" lon="4.71522">
        <ele>180</ele>
        <time>2016-11-12T09:48:45Z</time>
      </trkpt>
      <trkpt lat="45.95719" lon="4.71523">
        <ele>180</ele>
        <time>2016-11-12T09:48:46Z</time>
      </trkpt>
      <trkpt lat="45.95724" lon="4.71523">
        <ele>180</ele>
        <time>2016-11-12T09:48:47Z</time>
      </trkpt>
      <trkpt lat="45.95729" lon="4.71524">
        <ele>180</ele>
        <time>2016-11-12T09:48:48Z</time>
      </trkpt>
      <trkpt lat="45.95735" lon="4.71524">
        <ele>180</ele>
        <time>2016-11-12T09:48:49Z</time>
      </trkpt>
      <trkpt lat="45.9574" lon="4.71525">
        <ele>180</ele>
        <time>2016-11-12T09:48:50Z</time>
      </trkpt>
      <trkpt lat="45.95745" lon="4.71525">
        <ele>180</ele>
        <time>2016-11-12T09:48:51Z</time>
      </trkpt>
      <trkpt lat="45.9575" lon="4.71525">
        <ele>181</ele>
        <time>2016-11-12T09:48:52Z</time>
      </trkpt>
      <trkpt lat="45.95755" lon="4.71526">
        <ele>181</ele>
        <time>2016-11-12T09:48:53Z</time>
      </trkpt>
      <trkpt lat="45.9576" lon="4.71526">
        <ele>181</ele>
        <time>2016-11-12T09:48:54Z</time>
      </trkpt>
      <trkpt lat="45.95765" lon="4.71526">
        <ele>181</ele>
        <time>2016-11-12T09:48:55Z</time>
      </trkpt>
      <trkpt lat="45.95769" lon="4.71527">
        <ele>181</ele>
        <time>2016-11-12T09:48:56Z</time>
      </trkpt>
      <trkpt lat="45.95774" lon="4.71527">
        <ele>181</ele>
        <time>2016-11-12T09:48:57Z</time>
      </trkpt>
      <trkpt lat="45.95779" lon="4.71527">
        <ele>181</ele>
        <time>2016-11-12T09:48:58Z</time>
      </trkpt>
      <trkpt lat="45.95783" lon="4.71528">
        <ele>181</ele>
        <time>2016-11-12T09:48:59Z</time>
      </trkpt>
      <trkpt lat="45.95788" lon="4.71528">
        <ele>181</ele>
        <time>2016-11-12T09:49:00Z</time>
      </trkpt>
      <trkpt lat="45.95792" lon="4.71529">
        <ele>181</ele>
        <time>2016-11-12T09:49:01Z</time>
      </trkpt>
      <trkpt lat="45.95797" lon="4.71529">
        <ele>181</ele>
        <time>2016-11-12T09:49:02Z</time>
      </trkpt>
      <trkpt lat="45.95802" lon="4.71529">
        <ele>181</ele>
        <time>2016-11-12T09:49:03Z</time>
      </trkpt>
      <trkpt lat="45.95806" lon="4.71529">
        <ele>181</ele>
        <time>2016-11-12T09:49:04Z</time>
      </trkpt>
      <trkpt lat="45.95811" lon="4.7153">
        <ele>181</ele>
        <time>2016-11-12T09:49:05Z</time>
      </trkpt>
      <trkpt lat="45.95816" lon="4.7153">
        <ele>181</ele>
        <time>2016-11-12T09:49:06Z</time>
      </trkpt>
      <trkpt lat="45.95821" lon="4.7153">
        <ele>181</ele>
        <time>2016-11-12T09:49:07Z</time>
      </trkpt>
      <trkpt lat="45.95826" lon="4.71531">
        <ele>181</ele>
        <time>2016-11-12T09:49:08Z</time>
      </trkpt>
      <trkpt lat="45.9583" lon="4.71531">
        <ele>181</ele>
        <time>2016-11-12T09:49:09Z</time>
      </trkpt>
      <trkpt lat="45.95835" lon="4.71531">
        <ele>182</ele>
        <time>2016-11-12T09:49:10Z</time>
      </trkpt>
      <trkpt lat="45.9584" lon="4.71531">
        <ele>182</ele>
        <time>2016-11-12T09:49:11Z</time>
      </trkpt>
      <trkpt lat="45.95844" lon="4.71532">
        <ele>182</ele>
        <time>2016-11-12T09:49:12Z</time>
      </trkpt>
      <trkpt lat="45.95849" lon="4.71532">
        <ele>182</ele>
        <time>2016-11-12T09:49:13Z</time>
      </trkpt>
      <trkpt lat="45.95854" lon="4.71532">
        <ele>182</ele>
        <time>2016-11-12T09:49:14Z</time>
      </trkpt>
      <trkpt lat="45.95858" lon="4.71533">
        <ele>182</ele>
        <time>2016-11-12T09:49:15Z</time>
      </trkpt>
      <trkpt lat="45.95863" lon="4.71533">
        <ele>182</ele>
        <time>2016-11-12T09:49:16Z</time>
      </trkpt>
      <trkpt lat="45.95868" lon="4.71534">
        <ele>182</ele>
        <time>2016-11-12T09:49:17Z</time>
      </trkpt>
      <trkpt lat="45.95873" lon="4.71534">
        <ele>182</ele>
        <time>2016-11-12T09:49:18Z</time>
      </trkpt>
      <trkpt lat="45.95878" lon="4.71535">
        <ele>182</ele>
        <time>2016-11-12T09:49:19Z</time>
      </trkpt>
      <trkpt lat="45.95882" lon="4.71535">
        <ele>182</ele>
        <time>2016-11-12T09:49:20Z</time>
      </trkpt>
      <trkpt lat="45.95887" lon="4.71535">
        <ele>182</ele>
        <time>2016-11-12T09:49:21Z</time>
      </trkpt>
      <trkpt lat="45.95892" lon="4.71536">
        <ele>182</ele>
        <time>2016-11-12T09:49:22Z</time>
      </trkpt>
      <trkpt lat="45.95897" lon="4.71536">
        <ele>182</ele>
        <time>2016-11-12T09:49:23Z</time>
      </trkpt>
      <trkpt lat="45.95902" lon="4.71536">
        <ele>182</ele>
        <time>2016-11-12T09:49:24Z</time>
      </trkpt>
      <trkpt lat="45.95906" lon="4.71537">
        <ele>182</ele>
        <time>2016-11-12T09:49:25Z</time>
      </trkpt>
      <trkpt lat="45.95911" lon="4.71537">
        <ele>182</ele>
        <time>2016-11-12T09:49:26Z</time>
      </trkpt>
      <trkpt lat="45.95917" lon="4.71538">
        <ele>182</ele>
        <time>2016-11-12T09:49:27Z</time>
      </trkpt>
      <trkpt lat="45.95921" lon="4.71539">
        <ele>183</ele>
        <time>2016-11-12T09:49:28Z</time>
      </trkpt>
      <trkpt lat="45.95926" lon="4.71539">
        <ele>183</ele>
        <time>2016-11-12T09:49:29Z</time>
      </trkpt>
      <trkpt lat="45.95931" lon="4.71539">
        <ele>183</ele>
        <time>2016-11-12T09:49:30Z</time>
      </trkpt>
      <trkpt lat="45.95935" lon="4.71539">
        <ele>183</ele>
        <time>2016-11-12T09:49:31Z</time>
      </trkpt>
      <trkpt lat="45.9594" lon="4.7154">
        <ele>183</ele>
        <time>2016-11-12T09:49:32Z</time>
      </trkpt>
      <trkpt lat="45.95944" lon="4.7154">
        <ele>183</ele>
        <time>2016-11-12T09:49:33Z</time>
      </trkpt>
      <trkpt lat="45.95949" lon="4.71539">
        <ele>183</ele>
        <time>2016-11-12T09:49:34Z</time>
      </trkpt>
      <trkpt lat="45.95954" lon="4.7154">
        <ele>183</ele>
        <time>2016-11-12T09:49:35Z</time>
      </trkpt>
      <trkpt lat="45.95958" lon="4.7154">
        <ele>183</ele>
        <time>2016-11-12T09:49:36Z</time>
      </trkpt>
      <trkpt lat="45.95963" lon="4.71542">
        <ele>183</ele>
        <time>2016-11-12T09:49:37Z</time>
      </trkpt>
      <trkpt lat="45.95967" lon="4.71544">
        <ele>183</ele>
        <time>2016-11-12T09:49:38Z</time>
      </trkpt>
      <trkpt lat="45.95971" lon="4.71546">
        <ele>183</ele>
        <time>2016-11-12T09:49:39Z</time>
      </trkpt>
      <trkpt lat="45.95976" lon="4.71549">
        <ele>183</ele>
        <time>2016-11-12T09:49:40Z</time>
      </trkpt>
      <trkpt lat="45.95984" lon="4.7155">
        <ele>183</ele>
        <time>2016-11-12T09:49:42Z</time>
      </trkpt>
      <trkpt lat="45.95989" lon="4.71549">
        <ele>183</ele>
        <time>2016-11-12T09:49:43Z</time>
      </trkpt>
      <trkpt lat="45.95994" lon="4.71548">
        <ele>184</ele>
        <time>2016-11-12T09:49:44Z</time>
      </trkpt>
      <trkpt lat="45.95998" lon="4.71546">
        <ele>184</ele>
        <time>2016-11-12T09:49:45Z</time>
      </trkpt>
      <trkpt lat="45.96003" lon="4.71544">
        <ele>185</ele>
        <time>2016-11-12T09:49:46Z</time>
      </trkpt>
      <trkpt lat="45.96008" lon="4.71543">
        <ele>185</ele>
        <time>2016-11-12T09:49:47Z</time>
      </trkpt>
      <trkpt lat="45.96013" lon="4.71543">
        <ele>185</ele>
        <time>2016-11-12T09:49:48Z</time>
      </trkpt>
      <trkpt lat="45.96019" lon="4.71543">
        <ele>185</ele>
        <time>2016-11-12T09:49:49Z</time>
      </trkpt>
      <trkpt lat="45.96024" lon="4.71543">
        <ele>185</ele>
        <time>2016-11-12T09:49:50Z</time>
      </trkpt>
      <trkpt lat="45.96029" lon="4.71543">
        <ele>185</ele>
        <time>2016-11-12T09:49:51Z</time>
      </trkpt>
      <trkpt lat="45.96035" lon="4.71544">
        <ele>185</ele>
        <time>2016-11-12T09:49:52Z</time>
      </trkpt>
      <trkpt lat="45.9604" lon="4.71544">
        <ele>185</ele>
        <time>2016-11-12T09:49:53Z</time>
      </trkpt>
      <trkpt lat="45.96046" lon="4.71545">
        <ele>185</ele>
        <time>2016-11-12T09:49:54Z</time>
      </trkpt>
      <trkpt lat="45.96051" lon="4.71546">
        <ele>185</ele>
        <time>2016-11-12T09:49:55Z</time>
      </trkpt>
      <trkpt lat="45.96057" lon="4.71547">
        <ele>185</ele>
        <time>2016-11-12T09:49:56Z</time>
      </trkpt>
      <trkpt lat="45.96063" lon="4.71548">
        <ele>185</ele>
        <time>2016-11-12T09:49:57Z</time>
      </trkpt>
      <trkpt lat="45.96068" lon="4.71551">
        <ele>185</ele>
        <time>2016-11-12T09:49:58Z</time>
      </trkpt>
      <trkpt lat="45.96074" lon="4.71553">
        <ele>185</ele>
        <time>2016-11-12T09:49:59Z</time>
      </trkpt>
      <trkpt lat="45.96079" lon="4.71554">
        <ele>185</ele>
        <time>2016-11-12T09:50:00Z</time>
      </trkpt>
      <trkpt lat="45.96085" lon="4.71555">
        <ele>184</ele>
        <time>2016-11-12T09:50:01Z</time>
      </trkpt>
      <trkpt lat="45.96091" lon="4.71555">
        <ele>184</ele>
        <time>2016-11-12T09:50:02Z</time>
      </trkpt>
      <trkpt lat="45.96096" lon="4.71556">
        <ele>184</ele>
        <time>2016-11-12T09:50:03Z</time>
      </trkpt>
      <trkpt lat="45.96102" lon="4.71556">
        <ele>184</ele>
        <time>2016-11-12T09:50:04Z</time>
      </trkpt>
      <trkpt lat="45.96108" lon="4.71557">
        <ele>184</ele>
        <time>2016-11-12T09:50:05Z</time>
      </trkpt>
      <trkpt lat="45.96114" lon="4.71558">
        <ele>184</ele>
        <time>2016-11-12T09:50:06Z</time>
      </trkpt>
      <trkpt lat="45.96119" lon="4.71558">
        <ele>184</ele>
        <time>2016-11-12T09:50:07Z</time>
      </trkpt>
      <trkpt lat="45.96125" lon="4.71559">
        <ele>184</ele>
        <time>2016-11-12T09:50:08Z</time>
      </trkpt>
      <trkpt lat="45.96131" lon="4.7156">
        <ele>184</ele>
        <time>2016-11-12T09:50:09Z</time>
      </trkpt>
      <trkpt lat="45.96137" lon="4.71561">
        <ele>184</ele>
        <time>2016-11-12T09:50:10Z</time>
      </trkpt>
      <trkpt lat="45.96143" lon="4.71561">
        <ele>184</ele>
        <time>2016-11-12T09:50:11Z</time>
      </trkpt>
      <trkpt lat="45.96149" lon="4.71562">
        <ele>183</ele>
        <time>2016-11-12T09:50:12Z</time>
      </trkpt>
      <trkpt lat="45.96156" lon="4.71564">
        <ele>183</ele>
        <time>2016-11-12T09:50:13Z</time>
      </trkpt>
      <trkpt lat="45.96162" lon="4.71565">
        <ele>183</ele>
        <time>2016-11-12T09:50:14Z</time>
      </trkpt>
      <trkpt lat="45.96168" lon="4.71565">
        <ele>182</ele>
        <time>2016-11-12T09:50:15Z</time>
      </trkpt>
      <trkpt lat="45.96174" lon="4.71566">
        <ele>182</ele>
        <time>2016-11-12T09:50:16Z</time>
      </trkpt>
      <trkpt lat="45.96181" lon="4.71568">
        <ele>182</ele>
        <time>2016-11-12T09:50:17Z</time>
      </trkpt>
      <trkpt lat="45.96187" lon="4.71568">
        <ele>183</ele>
        <time>2016-11-12T09:50:18Z</time>
      </trkpt>
      <trkpt lat="45.96194" lon="4.71569">
        <ele>183</ele>
        <time>2016-11-12T09:50:19Z</time>
      </trkpt>
      <trkpt lat="45.962" lon="4.7157">
        <ele>183</ele>
        <time>2016-11-12T09:50:20Z</time>
      </trkpt>
      <trkpt lat="45.96207" lon="4.71571">
        <ele>183</ele>
        <time>2016-11-12T09:50:21Z</time>
      </trkpt>
      <trkpt lat="45.96213" lon="4.71572">
        <ele>183</ele>
        <time>2016-11-12T09:50:22Z</time>
      </trkpt>
      <trkpt lat="45.9622" lon="4.71573">
        <ele>183</ele>
        <time>2016-11-12T09:50:23Z</time>
      </trkpt>
      <trkpt lat="45.96226" lon="4.71574">
        <ele>183</ele>
        <time>2016-11-12T09:50:24Z</time>
      </trkpt>
      <trkpt lat="45.96233" lon="4.71575">
        <ele>183</ele>
        <time>2016-11-12T09:50:25Z</time>
      </trkpt>
      <trkpt lat="45.96239" lon="4.71576">
        <ele>182</ele>
        <time>2016-11-12T09:50:26Z</time>
      </trkpt>
      <trkpt lat="45.9625" lon="4.71577">
        <ele>182</ele>
        <time>2016-11-12T09:50:28Z</time>
      </trkpt>
      <trkpt lat="45.96255" lon="4.71578">
        <ele>182</ele>
        <time>2016-11-12T09:50:29Z</time>
      </trkpt>
      <trkpt lat="45.9626" lon="4.71578">
        <ele>183</ele>
        <time>2016-11-12T09:50:30Z</time>
      </trkpt>
      <trkpt lat="45.96267" lon="4.7158">
        <ele>183</ele>
        <time>2016-11-12T09:50:31Z</time>
      </trkpt>
      <trkpt lat="45.96274" lon="4.7158">
        <ele>183</ele>
        <time>2016-11-12T09:50:32Z</time>
      </trkpt>
      <trkpt lat="45.96298" lon="4.71582">
        <ele>184</ele>
        <time>2016-11-12T09:50:36Z</time>
      </trkpt>
      <trkpt lat="45.96304" lon="4.71582">
        <ele>184</ele>
        <time>2016-11-12T09:50:37Z</time>
      </trkpt>
      <trkpt lat="45.9631" lon="4.71583">
        <ele>184</ele>
        <time>2016-11-12T09:50:38Z</time>
      </trkpt>
      <trkpt lat="45.96315" lon="4.71586">
        <ele>181</ele>
        <time>2016-11-12T09:50:39Z</time>
      </trkpt>
      <trkpt lat="45.96321" lon="4.71588">
        <ele>182</ele>
        <time>2016-11-12T09:50:40Z</time>
      </trkpt>
      <trkpt lat="45.96327" lon="4.71588">
        <ele>182</ele>
        <time>2016-11-12T09:50:41Z</time>
      </trkpt>
      <trkpt lat="45.96333" lon="4.71589">
        <ele>182</ele>
        <time>2016-11-12T09:50:42Z</time>
      </trkpt>
      <trkpt lat="45.96339" lon="4.7159">
        <ele>183</ele>
        <time>2016-11-12T09:50:43Z</time>
      </trkpt>
      <trkpt lat="45.96345" lon="4.71591">
        <ele>182</ele>
        <time>2016-11-12T09:50:44Z</time>
      </trkpt>
      <trkpt lat="45.9635" lon="4.71592">
        <ele>182</ele>
        <time>2016-11-12T09:50:45Z</time>
      </trkpt>
      <trkpt lat="45.96355" lon="4.71594">
        <ele>182</ele>
        <time>2016-11-12T09:50:46Z</time>
      </trkpt>
      <trkpt lat="45.96361" lon="4.71594">
        <ele>182</ele>
        <time>2016-11-12T09:50:47Z</time>
      </trkpt>
      <trkpt lat="45.96366" lon="4.71595">
        <ele>182</ele>
        <time>2016-11-12T09:50:48Z</time>
      </trkpt>
      <trkpt lat="45.96372" lon="4.71597">
        <ele>182</ele>
        <time>2016-11-12T09:50:49Z</time>
      </trkpt>
      <trkpt lat="45.96378" lon="4.71598">
        <ele>182</ele>
        <time>2016-11-12T09:50:50Z</time>
      </trkpt>
      <trkpt lat="45.96384" lon="4.71599">
        <ele>182</ele>
        <time>2016-11-12T09:50:51Z</time>
      </trkpt>
      <trkpt lat="45.9639" lon="4.716">
        <ele>183</ele>
        <time>2016-11-12T09:50:52Z</time>
      </trkpt>
      <trkpt lat="45.96396" lon="4.71601">
        <ele>183</ele>
        <time>2016-11-12T09:50:53Z</time>
      </trkpt>
      <trkpt lat="45.96401" lon="4.71602">
        <ele>183</ele>
        <time>2016-11-12T09:50:54Z</time>
      </trkpt>
      <trkpt lat="45.96407" lon="4.71602">
        <ele>183</ele>
        <time>2016-11-12T09:50:55Z</time>
      </trkpt>
      <trkpt lat="45.96413" lon="4.71603">
        <ele>183</ele>
        <time>2016-11-12T09:50:56Z</time>
      </trkpt>
      <trkpt lat="45.96419" lon="4.71604">
        <ele>183</ele>
        <time>2016-11-12T09:50:57Z</time>
      </trkpt>
      <trkpt lat="45.96425" lon="4.71606">
        <ele>183</ele>
        <time>2016-11-12T09:50:58Z</time>
      </trkpt>
      <trkpt lat="45.9643" lon="4.71607">
        <ele>183</ele>
        <time>2016-11-12T09:50:59Z</time>
      </trkpt>
      <trkpt lat="45.96436" lon="4.71608">
        <ele>183</ele>
        <time>2016-11-12T09:51:00Z</time>
      </trkpt>
      <trkpt lat="45.96441" lon="4.71608">
        <ele>183</ele>
        <time>2016-11-12T09:51:01Z</time>
      </trkpt>
      <trkpt lat="45.96447" lon="4.71609">
        <ele>183</ele>
        <time>2016-11-12T09:51:02Z</time>
      </trkpt>
      <trkpt lat="45.96459" lon="4.7161">
        <ele>183</ele>
        <time>2016-11-12T09:51:04Z</time>
      </trkpt>
      <trkpt lat="45.96466" lon="4.71613">
        <ele>183</ele>
        <time>2016-11-12T09:51:05Z</time>
      </trkpt>
      <trkpt lat="45.96472" lon="4.71615">
        <ele>183</ele>
        <time>2016-11-12T09:51:06Z</time>
      </trkpt>
      <trkpt lat="45.96478" lon="4.71617">
        <ele>183</ele>
        <time>2016-11-12T09:51:07Z</time>
      </trkpt>
      <trkpt lat="45.96485" lon="4.71617">
        <ele>183</ele>
        <time>2016-11-12T09:51:08Z</time>
      </trkpt>
      <trkpt lat="45.96491" lon="4.71617">
        <ele>183</ele>
        <time>2016-11-12T09:51:09Z</time>
      </trkpt>
      <trkpt lat="45.96496" lon="4.71618">
        <ele>183</ele>
        <time>2016-11-12T09:51:10Z</time>
      </trkpt>
      <trkpt lat="45.96502" lon="4.71616">
        <ele>184</ele>
        <time>2016-11-12T09:51:11Z</time>
      </trkpt>
      <trkpt lat="45.96508" lon="4.71615">
        <ele>184</ele>
        <time>2016-11-12T09:51:12Z</time>
      </trkpt>
      <trkpt lat="45.96514" lon="4.71616">
        <ele>184</ele>
        <time>2016-11-12T09:51:13Z</time>
      </trkpt>
      <trkpt lat="45.9652" lon="4.71619">
        <ele>184</ele>
        <time>2016-11-12T09:51:14Z</time>
      </trkpt>
      <trkpt lat="45.96525" lon="4.71625">
        <ele>184</ele>
        <time>2016-11-12T09:51:15Z</time>
      </trkpt>
      <trkpt lat="45.96528" lon="4.7163">
        <ele>184</ele>
        <time>2016-11-12T09:51:16Z</time>
      </trkpt>
      <trkpt lat="45.9653" lon="4.71635">
        <ele>184</ele>
        <time>2016-11-12T09:51:17Z</time>
      </trkpt>
      <trkpt lat="45.96536" lon="4.71637">
        <ele>184</ele>
        <time>2016-11-12T09:51:18Z</time>
      </trkpt>
      <trkpt lat="45.96541" lon="4.71636">
        <ele>184</ele>
        <time>2016-11-12T09:51:19Z</time>
      </trkpt>
      <trkpt lat="45.96546" lon="4.71632">
        <ele>184</ele>
        <time>2016-11-12T09:51:20Z</time>
      </trkpt>
      <trkpt lat="45.9655" lon="4.71628">
        <ele>184</ele>
        <time>2016-11-12T09:51:21Z</time>
      </trkpt>
      <trkpt lat="45.96554" lon="4.71623">
        <ele>185</ele>
        <time>2016-11-12T09:51:22Z</time>
      </trkpt>
      <trkpt lat="45.96558" lon="4.71619">
        <ele>185</ele>
        <time>2016-11-12T09:51:23Z</time>
      </trkpt>
      <trkpt lat="45.96562" lon="4.71616">
        <ele>185</ele>
        <time>2016-11-12T09:51:24Z</time>
      </trkpt>
      <trkpt lat="45.96568" lon="4.71616">
        <ele>185</ele>
        <time>2016-11-12T09:51:25Z</time>
      </trkpt>
      <trkpt lat="45.96572" lon="4.71617">
        <ele>185</ele>
        <time>2016-11-12T09:51:26Z</time>
      </trkpt>
      <trkpt lat="45.96578" lon="4.71618">
        <ele>185</ele>
        <time>2016-11-12T09:51:27Z</time>
      </trkpt>
      <trkpt lat="45.96583" lon="4.7162">
        <ele>185</ele>
        <time>2016-11-12T09:51:28Z</time>
      </trkpt>
      <trkpt lat="45.96588" lon="4.71622">
        <ele>187</ele>
        <time>2016-11-12T09:51:29Z</time>
      </trkpt>
      <trkpt lat="45.96594" lon="4.71623">
        <ele>187</ele>
        <time>2016-11-12T09:51:30Z</time>
      </trkpt>
      <trkpt lat="45.966" lon="4.71624">
        <ele>187</ele>
        <time>2016-11-12T09:51:31Z</time>
      </trkpt>
      <trkpt lat="45.96606" lon="4.71626">
        <ele>187</ele>
        <time>2016-11-12T09:51:32Z</time>
      </trkpt>
      <trkpt lat="45.96611" lon="4.71628">
        <ele>187</ele>
        <time>2016-11-12T09:51:33Z</time>
      </trkpt>
      <trkpt lat="45.96618" lon="4.7163">
        <ele>187</ele>
        <time>2016-11-12T09:51:34Z</time>
      </trkpt>
      <trkpt lat="45.96624" lon="4.71631">
        <ele>188</ele>
        <time>2016-11-12T09:51:35Z</time>
      </trkpt>
      <trkpt lat="45.96629" lon="4.71633">
        <ele>188</ele>
        <time>2016-11-12T09:51:36Z</time>
      </trkpt>
      <trkpt lat="45.96635" lon="4.71634">
        <ele>188</ele>
        <time>2016-11-12T09:51:37Z</time>
      </trkpt>
      <trkpt lat="45.9664" lon="4.71635">
        <ele>188</ele>
        <time>2016-11-12T09:51:38Z</time>
      </trkpt>
      <trkpt lat="45.96646" lon="4.71636">
        <ele>188</ele>
        <time>2016-11-12T09:51:39Z</time>
      </trkpt>
      <trkpt lat="45.96651" lon="4.71637">
        <ele>188</ele>
        <time>2016-11-12T09:51:40Z</time>
      </trkpt>
      <trkpt lat="45.96656" lon="4.71639">
        <ele>188</ele>
        <time>2016-11-12T09:51:41Z</time>
      </trkpt>
      <trkpt lat="45.96661" lon="4.7164">
        <ele>188</ele>
        <time>2016-11-12T09:51:42Z</time>
      </trkpt>
      <trkpt lat="45.96666" lon="4.71641">
        <ele>188</ele>
        <time>2016-11-12T09:51:43Z</time>
      </trkpt>
      <trkpt lat="45.96671" lon="4.71642">
        <ele>189</ele>
        <time>2016-11-12T09:51:44Z</time>
      </trkpt>
      <trkpt lat="45.96676" lon="4.71643">
        <ele>189</ele>
        <time>2016-11-12T09:51:45Z</time>
      </trkpt>
      <trkpt lat="45.96682" lon="4.71645">
        <ele>189</ele>
        <time>2016-11-12T09:51:46Z</time>
      </trkpt>
      <trkpt lat="45.96687" lon="4.71645">
        <ele>189</ele>
        <time>2016-11-12T09:51:47Z</time>
      </trkpt>
      <trkpt lat="45.96692" lon="4.71646">
        <ele>190</ele>
        <time>2016-11-12T09:51:48Z</time>
      </trkpt>
      <trkpt lat="45.96697" lon="4.71647">
        <ele>190</ele>
        <time>2016-11-12T09:51:49Z</time>
      </trkpt>
      <trkpt lat="45.96703" lon="4.71648">
        <ele>190</ele>
        <time>2016-11-12T09:51:50Z</time>
      </trkpt>
      <trkpt lat="45.96708" lon="4.71649">
        <ele>190</ele>
        <time>2016-11-12T09:51:51Z</time>
      </trkpt>
      <trkpt lat="45.96713" lon="4.7165">
        <ele>190</ele>
        <time>2016-11-12T09:51:52Z</time>
      </trkpt>
      <trkpt lat="45.96718" lon="4.71651">
        <ele>190</ele>
        <time>2016-11-12T09:51:53Z</time>
      </trkpt>
      <trkpt lat="45.96723" lon="4.71651">
        <ele>190</ele>
        <time>2016-11-12T09:51:54Z</time>
      </trkpt>
      <trkpt lat="45.96728" lon="4.71652">
        <ele>190</ele>
        <time>2016-11-12T09:51:55Z</time>
      </trkpt>
      <trkpt lat="45.96734" lon="4.71653">
        <ele>190</ele>
        <time>2016-11-12T09:51:56Z</time>
      </trkpt>
      <trkpt lat="45.96739" lon="4.71654">
        <ele>190</ele>
        <time>2016-11-12T09:51:57Z</time>
      </trkpt>
      <trkpt lat="45.96744" lon="4.71655">
        <ele>190</ele>
        <time>2016-11-12T09:51:58Z</time>
      </trkpt>
      <trkpt lat="45.96749" lon="4.71656">
        <ele>190</ele>
        <time>2016-11-12T09:51:59Z</time>
      </trkpt>
      <trkpt lat="45.96755" lon="4.71657">
        <ele>191</ele>
        <time>2016-11-12T09:52:00Z</time>
      </trkpt>
      <trkpt lat="45.9676" lon="4.71658">
        <ele>191</ele>
        <time>2016-11-12T09:52:01Z</time>
      </trkpt>
      <trkpt lat="45.96764" lon="4.71659">
        <ele>191</ele>
        <time>2016-11-12T09:52:02Z</time>
      </trkpt>
      <trkpt lat="45.96769" lon="4.7166">
        <ele>191</ele>
        <time>2016-11-12T09:52:03Z</time>
      </trkpt>
      <trkpt lat="45.96774" lon="4.71661">
        <ele>192</ele>
        <time>2016-11-12T09:52:04Z</time>
      </trkpt>
      <trkpt lat="45.96779" lon="4.71662">
        <ele>192</ele>
        <time>2016-11-12T09:52:05Z</time>
      </trkpt>
      <trkpt lat="45.96784" lon="4.71663">
        <ele>192</ele>
        <time>2016-11-12T09:52:06Z</time>
      </trkpt>
      <trkpt lat="45.9679" lon="4.71664">
        <ele>192</ele>
        <time>2016-11-12T09:52:07Z</time>
      </trkpt>
      <trkpt lat="45.96795" lon="4.71665">
        <ele>192</ele>
        <time>2016-11-12T09:52:08Z</time>
      </trkpt>
      <trkpt lat="45.968" lon="4.71666">
        <ele>192</ele>
        <time>2016-11-12T09:52:09Z</time>
      </trkpt>
      <trkpt lat="45.96806" lon="4.71666">
        <ele>192</ele>
        <time>2016-11-12T09:52:10Z</time>
      </trkpt>
      <trkpt lat="45.96812" lon="4.71667">
        <ele>189</ele>
        <time>2016-11-12T09:52:11Z</time>
      </trkpt>
      <trkpt lat="45.96818" lon="4.71668">
        <ele>190</ele>
        <time>2016-11-12T09:52:12Z</time>
      </trkpt>
      <trkpt lat="45.96824" lon="4.71669">
        <ele>190</ele>
        <time>2016-11-12T09:52:13Z</time>
      </trkpt>
      <trkpt lat="45.9683" lon="4.7167">
        <ele>191</ele>
        <time>2016-11-12T09:52:14Z</time>
      </trkpt>
      <trkpt lat="45.96835" lon="4.71671">
        <ele>192</ele>
        <time>2016-11-12T09:52:15Z</time>
      </trkpt>
      <trkpt lat="45.9684" lon="4.71671">
        <ele>191</ele>
        <time>2016-11-12T09:52:16Z</time>
      </trkpt>
      <trkpt lat="45.96845" lon="4.71672">
        <ele>191</ele>
        <time>2016-11-12T09:52:17Z</time>
      </trkpt>
      <trkpt lat="45.9685" lon="4.71672">
        <ele>191</ele>
        <time>2016-11-12T09:52:18Z</time>
      </trkpt>
      <trkpt lat="45.96855" lon="4.71673">
        <ele>190</ele>
        <time>2016-11-12T09:52:19Z</time>
      </trkpt>
      <trkpt lat="45.9686" lon="4.71674">
        <ele>190</ele>
        <time>2016-11-12T09:52:20Z</time>
      </trkpt>
      <trkpt lat="45.96865" lon="4.71675">
        <ele>190</ele>
        <time>2016-11-12T09:52:21Z</time>
      </trkpt>
      <trkpt lat="45.96871" lon="4.71676">
        <ele>190</ele>
        <time>2016-11-12T09:52:22Z</time>
      </trkpt>
      <trkpt lat="45.96876" lon="4.71677">
        <ele>190</ele>
        <time>2016-11-12T09:52:23Z</time>
      </trkpt>
      <trkpt lat="45.96881" lon="4.71677">
        <ele>190</ele>
        <time>2016-11-12T09:52:24Z</time>
      </trkpt>
      <trkpt lat="45.96886" lon="4.71677">
        <ele>191</ele>
        <time>2016-11-12T09:52:25Z</time>
      </trkpt>
      <trkpt lat="45.96892" lon="4.71677">
        <ele>191</ele>
        <time>2016-11-12T09:52:26Z</time>
      </trkpt>
      <trkpt lat="45.96897" lon="4.71678">
        <ele>191</ele>
        <time>2016-11-12T09:52:27Z</time>
      </trkpt>
      <trkpt lat="45.96902" lon="4.71678">
        <ele>192</ele>
        <time>2016-11-12T09:52:28Z</time>
      </trkpt>
      <trkpt lat="45.96906" lon="4.71679">
        <ele>192</ele>
        <time>2016-11-12T09:52:29Z</time>
      </trkpt>
      <trkpt lat="45.96911" lon="4.71679">
        <ele>192</ele>
        <time>2016-11-12T09:52:30Z</time>
      </trkpt>
      <trkpt lat="45.96916" lon="4.7168">
        <ele>192</ele>
        <time>2016-11-12T09:52:31Z</time>
      </trkpt>
      <trkpt lat="45.96921" lon="4.7168">
        <ele>193</ele>
        <time>2016-11-12T09:52:32Z</time>
      </trkpt>
      <trkpt lat="45.96926" lon="4.7168">
        <ele>193</ele>
        <time>2016-11-12T09:52:33Z</time>
      </trkpt>
      <trkpt lat="45.96932" lon="4.7168">
        <ele>192</ele>
        <time>2016-11-12T09:52:34Z</time>
      </trkpt>
      <trkpt lat="45.96937" lon="4.7168">
        <ele>192</ele>
        <time>2016-11-12T09:52:35Z</time>
      </trkpt>
      <trkpt lat="45.96943" lon="4.71681">
        <ele>192</ele>
        <time>2016-11-12T09:52:36Z</time>
      </trkpt>
      <trkpt lat="45.96948" lon="4.71681">
        <ele>192</ele>
        <time>2016-11-12T09:52:37Z</time>
      </trkpt>
      <trkpt lat="45.96953" lon="4.71681">
        <ele>192</ele>
        <time>2016-11-12T09:52:38Z</time>
      </trkpt>
      <trkpt lat="45.96959" lon="4.71682">
        <ele>192</ele>
        <time>2016-11-12T09:52:39Z</time>
      </trkpt>
      <trkpt lat="45.96964" lon="4.71683">
        <ele>192</ele>
        <time>2016-11-12T09:52:40Z</time>
      </trkpt>
      <trkpt lat="45.96969" lon="4.71683">
        <ele>192</ele>
        <time>2016-11-12T09:52:41Z</time>
      </trkpt>
      <trkpt lat="45.96975" lon="4.71684">
        <ele>192</ele>
        <time>2016-11-12T09:52:42Z</time>
      </trkpt>
      <trkpt lat="45.9698" lon="4.71684">
        <ele>192</ele>
        <time>2016-11-12T09:52:43Z</time>
      </trkpt>
      <trkpt lat="45.96985" lon="4.71685">
        <ele>192</ele>
        <time>2016-11-12T09:52:44Z</time>
      </trkpt>
      <trkpt lat="45.96991" lon="4.71685">
        <ele>192</ele>
        <time>2016-11-12T09:52:45Z</time>
      </trkpt>
      <trkpt lat="45.96996" lon="4.71685">
        <ele>192</ele>
        <time>2016-11-12T09:52:46Z</time>
      </trkpt>
      <trkpt lat="45.97002" lon="4.71685">
        <ele>193</ele>
        <time>2016-11-12T09:52:47Z</time>
      </trkpt>
      <trkpt lat="45.97007" lon="4.71687">
        <ele>193</ele>
        <time>2016-11-12T09:52:48Z</time>
      </trkpt>
      <trkpt lat="45.97016" lon="4.71689">
        <ele>193</ele>
        <time>2016-11-12T09:52:50Z</time>
      </trkpt>
      <trkpt lat="45.97021" lon="4.7169">
        <ele>193</ele>
        <time>2016-11-12T09:52:51Z</time>
      </trkpt>
      <trkpt lat="45.97027" lon="4.71691">
        <ele>192</ele>
        <time>2016-11-12T09:52:52Z</time>
      </trkpt>
      <trkpt lat="45.97033" lon="4.71691">
        <ele>192</ele>
        <time>2016-11-12T09:52:53Z</time>
      </trkpt>
      <trkpt lat="45.97038" lon="4.71691">
        <ele>192</ele>
        <time>2016-11-12T09:52:54Z</time>
      </trkpt>
      <trkpt lat="45.97044" lon="4.71692">
        <ele>192</ele>
        <time>2016-11-12T09:52:55Z</time>
      </trkpt>
      <trkpt lat="45.97049" lon="4.71692">
        <ele>193</ele>
        <time>2016-11-12T09:52:56Z</time>
      </trkpt>
      <trkpt lat="45.97054" lon="4.71693">
        <ele>193</ele>
        <time>2016-11-12T09:52:57Z</time>
      </trkpt>
      <trkpt lat="45.97059" lon="4.71693">
        <ele>193</ele>
        <time>2016-11-12T09:52:58Z</time>
      </trkpt>
      <trkpt lat="45.97065" lon="4.71693">
        <ele>193</ele>
        <time>2016-11-12T09:52:59Z</time>
      </trkpt>
      <trkpt lat="45.9707" lon="4.71693">
        <ele>193</ele>
        <time>2016-11-12T09:53:00Z</time>
      </trkpt>
      <trkpt lat="45.97076" lon="4.71694">
        <ele>193</ele>
        <time>2016-11-12T09:53:01Z</time>
      </trkpt>
      <trkpt lat="45.97081" lon="4.71694">
        <ele>193</ele>
        <time>2016-11-12T09:53:02Z</time>
      </trkpt>
      <trkpt lat="45.97086" lon="4.71693">
        <ele>194</ele>
        <time>2016-11-12T09:53:03Z</time>
      </trkpt>
      <trkpt lat="45.97092" lon="4.71693">
        <ele>194</ele>
        <time>2016-11-12T09:53:04Z</time>
      </trkpt>
      <trkpt lat="45.97097" lon="4.71694">
        <ele>194</ele>
        <time>2016-11-12T09:53:05Z</time>
      </trkpt>
      <trkpt lat="45.97103" lon="4.71695">
        <ele>194</ele>
        <time>2016-11-12T09:53:06Z</time>
      </trkpt>
      <trkpt lat="45.97108" lon="4.71696">
        <ele>194</ele>
        <time>2016-11-12T09:53:07Z</time>
      </trkpt>
      <trkpt lat="45.97114" lon="4.71696">
        <ele>194</ele>
        <time>2016-11-12T09:53:08Z</time>
      </trkpt>
      <trkpt lat="45.97119" lon="4.71697">
        <ele>194</ele>
        <time>2016-11-12T09:53:09Z</time>
      </trkpt>
      <trkpt lat="45.97125" lon="4.71698">
        <ele>194</ele>
        <time>2016-11-12T09:53:10Z</time>
      </trkpt>
      <trkpt lat="45.97131" lon="4.71698">
        <ele>194</ele>
        <time>2016-11-12T09:53:11Z</time>
      </trkpt>
      <trkpt lat="45.97137" lon="4.71699">
        <ele>195</ele>
        <time>2016-11-12T09:53:12Z</time>
      </trkpt>
      <trkpt lat="45.97143" lon="4.71699">
        <ele>195</ele>
        <time>2016-11-12T09:53:13Z</time>
      </trkpt>
      <trkpt lat="45.97149" lon="4.717">
        <ele>195</ele>
        <time>2016-11-12T09:53:14Z</time>
      </trkpt>
      <trkpt lat="45.97159" lon="4.71701">
        <ele>195</ele>
        <time>2016-11-12T09:53:16Z</time>
      </trkpt>
      <trkpt lat="45.97165" lon="4.71702">
        <ele>195</ele>
        <time>2016-11-12T09:53:17Z</time>
      </trkpt>
      <trkpt lat="45.9717" lon="4.71701">
        <ele>196</ele>
        <time>2016-11-12T09:53:18Z</time>
      </trkpt>
      <trkpt lat="45.97175" lon="4.71702">
        <ele>196</ele>
        <time>2016-11-12T09:53:19Z</time>
      </trkpt>
      <trkpt lat="45.97196" lon="4.71706">
        <ele>196</ele>
        <time>2016-11-12T09:53:23Z</time>
      </trkpt>
      <trkpt lat="45.97201" lon="4.71705">
        <ele>196</ele>
        <time>2016-11-12T09:53:24Z</time>
      </trkpt>
      <trkpt lat="45.97207" lon="4.71705">
        <ele>196</ele>
        <time>2016-11-12T09:53:25Z</time>
      </trkpt>
      <trkpt lat="45.97212" lon="4.71705">
        <ele>196</ele>
        <time>2016-11-12T09:53:26Z</time>
      </trkpt>
      <trkpt lat="45.97217" lon="4.71705">
        <ele>196</ele>
        <time>2016-11-12T09:53:27Z</time>
      </trkpt>
      <trkpt lat="45.97222" lon="4.71706">
        <ele>196</ele>
        <time>2016-11-12T09:53:28Z</time>
      </trkpt>
      <trkpt lat="45.97227" lon="4.71708">
        <ele>196</ele>
        <time>2016-11-12T09:53:29Z</time>
      </trkpt>
      <trkpt lat="45.97232" lon="4.71709">
        <ele>196</ele>
        <time>2016-11-12T09:53:30Z</time>
      </trkpt>
      <trkpt lat="45.97237" lon="4.71709">
        <ele>196</ele>
        <time>2016-11-12T09:53:31Z</time>
      </trkpt>
      <trkpt lat="45.97243" lon="4.7171">
        <ele>196</ele>
        <time>2016-11-12T09:53:32Z</time>
      </trkpt>
      <trkpt lat="45.97248" lon="4.71712">
        <ele>196</ele>
        <time>2016-11-12T09:53:33Z</time>
      </trkpt>
      <trkpt lat="45.9727" lon="4.71716">
        <ele>196</ele>
        <time>2016-11-12T09:53:37Z</time>
      </trkpt>
      <trkpt lat="45.97275" lon="4.71718">
        <ele>196</ele>
        <time>2016-11-12T09:53:38Z</time>
      </trkpt>
      <trkpt lat="45.9728" lon="4.7172">
        <ele>196</ele>
        <time>2016-11-12T09:53:39Z</time>
      </trkpt>
      <trkpt lat="45.97285" lon="4.71724">
        <ele>196</ele>
        <time>2016-11-12T09:53:40Z</time>
      </trkpt>
      <trkpt lat="45.97304" lon="4.71737">
        <ele>196</ele>
        <time>2016-11-12T09:53:44Z</time>
      </trkpt>
      <trkpt lat="45.97309" lon="4.71735">
        <ele>195</ele>
        <time>2016-11-12T09:53:45Z</time>
      </trkpt>
      <trkpt lat="45.97315" lon="4.71732">
        <ele>195</ele>
        <time>2016-11-12T09:53:46Z</time>
      </trkpt>
      <trkpt lat="45.97319" lon="4.71728">
        <ele>195</ele>
        <time>2016-11-12T09:53:47Z</time>
      </trkpt>
      <trkpt lat="45.97324" lon="4.71724">
        <ele>196</ele>
        <time>2016-11-12T09:53:48Z</time>
      </trkpt>
      <trkpt lat="45.97329" lon="4.71721">
        <ele>196</ele>
        <time>2016-11-12T09:53:49Z</time>
      </trkpt>
      <trkpt lat="45.97335" lon="4.71719">
        <ele>195</ele>
        <time>2016-11-12T09:53:50Z</time>
      </trkpt>
      <trkpt lat="45.9734" lon="4.71718">
        <ele>195</ele>
        <time>2016-11-12T09:53:51Z</time>
      </trkpt>
      <trkpt lat="45.97345" lon="4.71718">
        <ele>195</ele>
        <time>2016-11-12T09:53:52Z</time>
      </trkpt>
      <trkpt lat="45.97351" lon="4.71719">
        <ele>195</ele>
        <time>2016-11-12T09:53:53Z</time>
      </trkpt>
      <trkpt lat="45.97356" lon="4.71719">
        <ele>195</ele>
        <time>2016-11-12T09:53:54Z</time>
      </trkpt>
      <trkpt lat="45.97362" lon="4.7172">
        <ele>195</ele>
        <time>2016-11-12T09:53:55Z</time>
      </trkpt>
      <trkpt lat="45.97368" lon="4.7172">
        <ele>195</ele>
        <time>2016-11-12T09:53:56Z</time>
      </trkpt>
      <trkpt lat="45.97374" lon="4.71721">
        <ele>195</ele>
        <time>2016-11-12T09:53:57Z</time>
      </trkpt>
      <trkpt lat="45.97379" lon="4.71721">
        <ele>195</ele>
        <time>2016-11-12T09:53:58Z</time>
      </trkpt>
      <trkpt lat="45.97385" lon="4.71721">
        <ele>195</ele>
        <time>2016-11-12T09:53:59Z</time>
      </trkpt>
      <trkpt lat="45.9739" lon="4.71723">
        <ele>195</ele>
        <time>2016-11-12T09:54:00Z</time>
      </trkpt>
      <trkpt lat="45.97395" lon="4.71724">
        <ele>195</ele>
        <time>2016-11-12T09:54:01Z</time>
      </trkpt>
      <trkpt lat="45.97401" lon="4.71724">
        <ele>195</ele>
        <time>2016-11-12T09:54:02Z</time>
      </trkpt>
      <trkpt lat="45.97406" lon="4.71724">
        <ele>195</ele>
        <time>2016-11-12T09:54:03Z</time>
      </trkpt>
      <trkpt lat="45.97411" lon="4.71725">
        <ele>195</ele>
        <time>2016-11-12T09:54:04Z</time>
      </trkpt>
      <trkpt lat="45.97416" lon="4.71726">
        <ele>195</ele>
        <time>2016-11-12T09:54:05Z</time>
      </trkpt>
      <trkpt lat="45.97422" lon="4.71726">
        <ele>196</ele>
        <time>2016-11-12T09:54:06Z</time>
      </trkpt>
      <trkpt lat="45.97427" lon="4.71727">
        <ele>196</ele>
        <time>2016-11-12T09:54:07Z</time>
      </trkpt>
      <trkpt lat="45.97438" lon="4.71728">
        <ele>196</ele>
        <time>2016-11-12T09:54:09Z</time>
      </trkpt>
      <trkpt lat="45.97444" lon="4.71727">
        <ele>196</ele>
        <time>2016-11-12T09:54:10Z</time>
      </trkpt>
      <trkpt lat="45.97449" lon="4.71727">
        <ele>196</ele>
        <time>2016-11-12T09:54:11Z</time>
      </trkpt>
      <trkpt lat="45.97455" lon="4.71727">
        <ele>197</ele>
        <time>2016-11-12T09:54:12Z</time>
      </trkpt>
      <trkpt lat="45.9746" lon="4.71728">
        <ele>197</ele>
        <time>2016-11-12T09:54:13Z</time>
      </trkpt>
      <trkpt lat="45.97466" lon="4.71729">
        <ele>197</ele>
        <time>2016-11-12T09:54:14Z</time>
      </trkpt>
      <trkpt lat="45.97471" lon="4.71729">
        <ele>197</ele>
        <time>2016-11-12T09:54:15Z</time>
      </trkpt>
      <trkpt lat="45.97477" lon="4.71729">
        <ele>197</ele>
        <time>2016-11-12T09:54:16Z</time>
      </trkpt>
      <trkpt lat="45.97483" lon="4.7173">
        <ele>197</ele>
        <time>2016-11-12T09:54:17Z</time>
      </trkpt>
      <trkpt lat="45.97488" lon="4.71731">
        <ele>197</ele>
        <time>2016-11-12T09:54:18Z</time>
      </trkpt>
      <trkpt lat="45.97494" lon="4.71731">
        <ele>197</ele>
        <time>2016-11-12T09:54:19Z</time>
      </trkpt>
      <trkpt lat="45.975" lon="4.71732">
        <ele>197</ele>
        <time>2016-11-12T09:54:20Z</time>
      </trkpt>
      <trkpt lat="45.97506" lon="4.71733">
        <ele>197</ele>
        <time>2016-11-12T09:54:21Z</time>
      </trkpt>
      <trkpt lat="45.97512" lon="4.71733">
        <ele>198</ele>
        <time>2016-11-12T09:54:22Z</time>
      </trkpt>
      <trkpt lat="45.97518" lon="4.71734">
        <ele>198</ele>
        <time>2016-11-12T09:54:23Z</time>
      </trkpt>
      <trkpt lat="45.97524" lon="4.71734">
        <ele>198</ele>
        <time>2016-11-12T09:54:24Z</time>
      </trkpt>
      <trkpt lat="45.97529" lon="4.71734">
        <ele>198</ele>
        <time>2016-11-12T09:54:25Z</time>
      </trkpt>
      <trkpt lat="45.97535" lon="4.71734">
        <ele>198</ele>
        <time>2016-11-12T09:54:26Z</time>
      </trkpt>
      <trkpt lat="45.97541" lon="4.71735">
        <ele>198</ele>
        <time>2016-11-12T09:54:27Z</time>
      </trkpt>
      <trkpt lat="45.97546" lon="4.71736">
        <ele>198</ele>
        <time>2016-11-12T09:54:28Z</time>
      </trkpt>
      <trkpt lat="45.97552" lon="4.71736">
        <ele>197</ele>
        <time>2016-11-12T09:54:29Z</time>
      </trkpt>
      <trkpt lat="45.97557" lon="4.71736">
        <ele>197</ele>
        <time>2016-11-12T09:54:30Z</time>
      </trkpt>
      <trkpt lat="45.97563" lon="4.71736">
        <ele>197</ele>
        <time>2016-11-12T09:54:31Z</time>
      </trkpt>
      <trkpt lat="45.97568" lon="4.71736">
        <ele>197</ele>
        <time>2016-11-12T09:54:32Z</time>
      </trkpt>
      <trkpt lat="45.97574" lon="4.71736">
        <ele>197</ele>
        <time>2016-11-12T09:54:33Z</time>
      </trkpt>
      <trkpt lat="45.9758" lon="4.71737">
        <ele>196</ele>
        <time>2016-11-12T09:54:34Z</time>
      </trkpt>
      <trkpt lat="45.97585" lon="4.71738">
        <ele>196</ele>
        <time>2016-11-12T09:54:35Z</time>
      </trkpt>
      <trkpt lat="45.97591" lon="4.7174">
        <ele>196</ele>
        <time>2016-11-12T09:54:36Z</time>
      </trkpt>
      <trkpt lat="45.97595" lon="4.71744">
        <ele>196</ele>
        <time>2016-11-12T09:54:37Z</time>
      </trkpt>
      <trkpt lat="45.97599" lon="4.71749">
        <ele>196</ele>
        <time>2016-11-12T09:54:38Z</time>
      </trkpt>
      <trkpt lat="45.97603" lon="4.71756">
        <ele>194</ele>
        <time>2016-11-12T09:54:39Z</time>
      </trkpt>
      <trkpt lat="45.97607" lon="4.7176">
        <ele>194</ele>
        <time>2016-11-12T09:54:40Z</time>
      </trkpt>
      <trkpt lat="45.97612" lon="4.71763">
        <ele>194</ele>
        <time>2016-11-12T09:54:41Z</time>
      </trkpt>
      <trkpt lat="45.97618" lon="4.71764">
        <ele>194</ele>
        <time>2016-11-12T09:54:42Z</time>
      </trkpt>
      <trkpt lat="45.97623" lon="4.71762">
        <ele>194</ele>
        <time>2016-11-12T09:54:43Z</time>
      </trkpt>
      <trkpt lat="45.97628" lon="4.71759">
        <ele>194</ele>
        <time>2016-11-12T09:54:44Z</time>
      </trkpt>
      <trkpt lat="45.97632" lon="4.71755">
        <ele>194</ele>
        <time>2016-11-12T09:54:45Z</time>
      </trkpt>
      <trkpt lat="45.97637" lon="4.71752">
        <ele>194</ele>
        <time>2016-11-12T09:54:46Z</time>
      </trkpt>
      <trkpt lat="45.97642" lon="4.71749">
        <ele>196</ele>
        <time>2016-11-12T09:54:47Z</time>
      </trkpt>
      <trkpt lat="45.97647" lon="4.71748">
        <ele>196</ele>
        <time>2016-11-12T09:54:48Z</time>
      </trkpt>
      <trkpt lat="45.97652" lon="4.71749">
        <ele>195</ele>
        <time>2016-11-12T09:54:49Z</time>
      </trkpt>
      <trkpt lat="45.97658" lon="4.7175">
        <ele>194</ele>
        <time>2016-11-12T09:54:50Z</time>
      </trkpt>
      <trkpt lat="45.97665" lon="4.71751">
        <ele>194</ele>
        <time>2016-11-12T09:54:51Z</time>
      </trkpt>
      <trkpt lat="45.97671" lon="4.71752">
        <ele>194</ele>
        <time>2016-11-12T09:54:52Z</time>
      </trkpt>
      <trkpt lat="45.97677" lon="4.71753">
        <ele>194</ele>
        <time>2016-11-12T09:54:53Z</time>
      </trkpt>
      <trkpt lat="45.97683" lon="4.71753">
        <ele>194</ele>
        <time>2016-11-12T09:54:54Z</time>
      </trkpt>
      <trkpt lat="45.97689" lon="4.71753">
        <ele>195</ele>
        <time>2016-11-12T09:54:55Z</time>
      </trkpt>
      <trkpt lat="45.97695" lon="4.71753">
        <ele>195</ele>
        <time>2016-11-12T09:54:56Z</time>
      </trkpt>
      <trkpt lat="45.97702" lon="4.71753">
        <ele>195</ele>
        <time>2016-11-12T09:54:57Z</time>
      </trkpt>
      <trkpt lat="45.97707" lon="4.71753">
        <ele>195</ele>
        <time>2016-11-12T09:54:58Z</time>
      </trkpt>
      <trkpt lat="45.97712" lon="4.71753">
        <ele>195</ele>
        <time>2016-11-12T09:54:59Z</time>
      </trkpt>
      <trkpt lat="45.97718" lon="4.71754">
        <ele>195</ele>
        <time>2016-11-12T09:55:00Z</time>
      </trkpt>
      <trkpt lat="45.97723" lon="4.71755">
        <ele>195</ele>
        <time>2016-11-12T09:55:01Z</time>
      </trkpt>
      <trkpt lat="45.97729" lon="4.71756">
        <ele>195</ele>
        <time>2016-11-12T09:55:02Z</time>
      </trkpt>
      <trkpt lat="45.97734" lon="4.71757">
        <ele>195</ele>
        <time>2016-11-12T09:55:03Z</time>
      </trkpt>
      <trkpt lat="45.9774" lon="4.71757">
        <ele>195</ele>
        <time>2016-11-12T09:55:04Z</time>
      </trkpt>
      <trkpt lat="45.97745" lon="4.71758">
        <ele>196</ele>
        <time>2016-11-12T09:55:05Z</time>
      </trkpt>
      <trkpt lat="45.97751" lon="4.71758">
        <ele>196</ele>
        <time>2016-11-12T09:55:06Z</time>
      </trkpt>
      <trkpt lat="45.97756" lon="4.71758">
        <ele>196</ele>
        <time>2016-11-12T09:55:07Z</time>
      </trkpt>
      <trkpt lat="45.97762" lon="4.71758">
        <ele>196</ele>
        <time>2016-11-12T09:55:08Z</time>
      </trkpt>
      <trkpt lat="45.97767" lon="4.71759">
        <ele>195</ele>
        <time>2016-11-12T09:55:09Z</time>
      </trkpt>
      <trkpt lat="45.97779" lon="4.7176">
        <ele>195</ele>
        <time>2016-11-12T09:55:11Z</time>
      </trkpt>
      <trkpt lat="45.97785" lon="4.7176">
        <ele>195</ele>
        <time>2016-11-12T09:55:12Z</time>
      </trkpt>
      <trkpt lat="45.97791" lon="4.7176">
        <ele>195</ele>
        <time>2016-11-12T09:55:13Z</time>
      </trkpt>
      <trkpt lat="45.97797" lon="4.71761">
        <ele>195</ele>
        <time>2016-11-12T09:55:14Z</time>
      </trkpt>
      <trkpt lat="45.97803" lon="4.71761">
        <ele>195</ele>
        <time>2016-11-12T09:55:15Z</time>
      </trkpt>
      <trkpt lat="45.97821" lon="4.71761">
        <ele>195</ele>
        <time>2016-11-12T09:55:18Z</time>
      </trkpt>
      <trkpt lat="45.97827" lon="4.71761">
        <ele>195</ele>
        <time>2016-11-12T09:55:19Z</time>
      </trkpt>
      <trkpt lat="45.97833" lon="4.71761">
        <ele>195</ele>
        <time>2016-11-12T09:55:20Z</time>
      </trkpt>
      <trkpt lat="45.97839" lon="4.71761">
        <ele>195</ele>
        <time>2016-11-12T09:55:21Z</time>
      </trkpt>
      <trkpt lat="45.97844" lon="4.71761">
        <ele>195</ele>
        <time>2016-11-12T09:55:22Z</time>
      </trkpt>
      <trkpt lat="45.97849" lon="4.71763">
        <ele>195</ele>
        <time>2016-11-12T09:55:23Z</time>
      </trkpt>
      <trkpt lat="45.97853" lon="4.71766">
        <ele>195</ele>
        <time>2016-11-12T09:55:24Z</time>
      </trkpt>
      <trkpt lat="45.97858" lon="4.7177">
        <ele>194</ele>
        <time>2016-11-12T09:55:25Z</time>
      </trkpt>
      <trkpt lat="45.97862" lon="4.71774">
        <ele>194</ele>
        <time>2016-11-12T09:55:26Z</time>
      </trkpt>
      <trkpt lat="45.97866" lon="4.71779">
        <ele>194</ele>
        <time>2016-11-12T09:55:27Z</time>
      </trkpt>
      <trkpt lat="45.97872" lon="4.71781">
        <ele>194</ele>
        <time>2016-11-12T09:55:28Z</time>
      </trkpt>
      <trkpt lat="45.97876" lon="4.71782">
        <ele>194</ele>
        <time>2016-11-12T09:55:29Z</time>
      </trkpt>
      <trkpt lat="45.97882" lon="4.71781">
        <ele>194</ele>
        <time>2016-11-12T09:55:30Z</time>
      </trkpt>
      <trkpt lat="45.97887" lon="4.71778">
        <ele>194</ele>
        <time>2016-11-12T09:55:31Z</time>
      </trkpt>
      <trkpt lat="45.97892" lon="4.71774">
        <ele>194</ele>
        <time>2016-11-12T09:55:32Z</time>
      </trkpt>
      <trkpt lat="45.97895" lon="4.71769">
        <ele>194</ele>
        <time>2016-11-12T09:55:33Z</time>
      </trkpt>
      <trkpt lat="45.97898" lon="4.71762">
        <ele>195</ele>
        <time>2016-11-12T09:55:34Z</time>
      </trkpt>
      <trkpt lat="45.979" lon="4.71754">
        <ele>195</ele>
        <time>2016-11-12T09:55:35Z</time>
      </trkpt>
      <trkpt lat="45.979" lon="4.71745">
        <ele>195</ele>
        <time>2016-11-12T09:55:36Z</time>
      </trkpt>
      <trkpt lat="45.979" lon="4.7172">
        <ele>196</ele>
        <time>2016-11-12T09:55:39Z</time>
      </trkpt>
      <trkpt lat="45.979" lon="4.71711">
        <ele>196</ele>
        <time>2016-11-12T09:55:40Z</time>
      </trkpt>
      <trkpt lat="45.97903" lon="4.71704">
        <ele>196</ele>
        <time>2016-11-12T09:55:41Z</time>
      </trkpt>
      <trkpt lat="45.97907" lon="4.71697">
        <ele>196</ele>
        <time>2016-11-12T09:55:42Z</time>
      </trkpt>
      <trkpt lat="45.97911" lon="4.71691">
        <ele>196</ele>
        <time>2016-11-12T09:55:43Z</time>
      </trkpt>
      <trkpt lat="45.97916" lon="4.71686">
        <ele>196</ele>
        <time>2016-11-12T09:55:44Z</time>
      </trkpt>
      <trkpt lat="45.97921" lon="4.71682">
        <ele>197</ele>
        <time>2016-11-12T09:55:45Z</time>
      </trkpt>
      <trkpt lat="45.97926" lon="4.71678">
        <ele>197</ele>
        <time>2016-11-12T09:55:46Z</time>
      </trkpt>
      <trkpt lat="45.97932" lon="4.71673">
        <ele>197</ele>
        <time>2016-11-12T09:55:47Z</time>
      </trkpt>
      <trkpt lat="45.97937" lon="4.71669">
        <ele>197</ele>
        <time>2016-11-12T09:55:48Z</time>
      </trkpt>
      <trkpt lat="45.97943" lon="4.71666">
        <ele>197</ele>
        <time>2016-11-12T09:55:49Z</time>
      </trkpt>
      <trkpt lat="45.97948" lon="4.71662">
        <ele>197</ele>
        <time>2016-11-12T09:55:50Z</time>
      </trkpt>
      <trkpt lat="45.97952" lon="4.71658">
        <ele>197</ele>
        <time>2016-11-12T09:55:51Z</time>
      </trkpt>
      <trkpt lat="45.97957" lon="4.71654">
        <ele>197</ele>
        <time>2016-11-12T09:55:52Z</time>
      </trkpt>
      <trkpt lat="45.97962" lon="4.71651">
        <ele>197</ele>
        <time>2016-11-12T09:55:53Z</time>
      </trkpt>
      <trkpt lat="45.97966" lon="4.71648">
        <ele>197</ele>
        <time>2016-11-12T09:55:54Z</time>
      </trkpt>
      <trkpt lat="45.97971" lon="4.71646">
        <ele>197</ele>
        <time>2016-11-12T09:55:55Z</time>
      </trkpt>
      <trkpt lat="45.97975" lon="4.71643">
        <ele>197</ele>
        <time>2016-11-12T09:55:56Z</time>
      </trkpt>
      <trkpt lat="45.9798" lon="4.7164">
        <ele>197</ele>
        <time>2016-11-12T09:55:57Z</time>
      </trkpt>
      <trkpt lat="45.97986" lon="4.71634">
        <ele>197</ele>
        <time>2016-11-12T09:55:58Z</time>
      </trkpt>
      <trkpt lat="45.97992" lon="4.7163">
        <ele>198</ele>
        <time>2016-11-12T09:55:59Z</time>
      </trkpt>
      <trkpt lat="45.97997" lon="4.71625">
        <ele>198</ele>
        <time>2016-11-12T09:56:00Z</time>
      </trkpt>
      <trkpt lat="45.98002" lon="4.71621">
        <ele>198</ele>
        <time>2016-11-12T09:56:01Z</time>
      </trkpt>
      <trkpt lat="45.98008" lon="4.71617">
        <ele>198</ele>
        <time>2016-11-12T09:56:02Z</time>
      </trkpt>
      <trkpt lat="45.98013" lon="4.71613">
        <ele>198</ele>
        <time>2016-11-12T09:56:03Z</time>
      </trkpt>
      <trkpt lat="45.98018" lon="4.71608">
        <ele>198</ele>
        <time>2016-11-12T09:56:04Z</time>
      </trkpt>
      <trkpt lat="45.98023" lon="4.71604">
        <ele>198</ele>
        <time>2016-11-12T09:56:05Z</time>
      </trkpt>
      <trkpt lat="45.98028" lon="4.716">
        <ele>198</ele>
        <time>2016-11-12T09:56:06Z</time>
      </trkpt>
      <trkpt lat="45.98031" lon="4.71597">
        <ele>198</ele>
        <time>2016-11-12T09:56:07Z</time>
      </trkpt>
      <trkpt lat="45.98036" lon="4.71592">
        <ele>198</ele>
        <time>2016-11-12T09:56:08Z</time>
      </trkpt>
      <trkpt lat="45.98064" lon="4.71567">
        <ele>198</ele>
        <time>2016-11-12T09:56:22Z</time>
      </trkpt>
      <trkpt lat="45.98073" lon="4.71564">
        <ele>198</ele>
        <time>2016-11-12T09:56:40Z</time>
      </trkpt>
      <trkpt lat="45.98076" lon="4.71562">
        <ele>198</ele>
        <time>2016-11-12T09:56:41Z</time>
      </trkpt>
      <trkpt lat="45.98084" lon="4.71559">
        <ele>198</ele>
        <time>2016-11-12T09:56:43Z</time>
      </trkpt>
      <trkpt lat="45.98089" lon="4.71554">
        <ele>198</ele>
        <time>2016-11-12T09:56:44Z</time>
      </trkpt>
      <trkpt lat="45.98094" lon="4.71549">
        <ele>197</ele>
        <time>2016-11-12T09:56:45Z</time>
      </trkpt>
      <trkpt lat="45.98099" lon="4.71546">
        <ele>197</ele>
        <time>2016-11-12T09:56:46Z</time>
      </trkpt>
      <trkpt lat="45.9812" lon="4.71531">
        <ele>197</ele>
        <time>2016-11-12T09:56:50Z</time>
      </trkpt>
      <trkpt lat="45.98131" lon="4.71523">
        <ele>197</ele>
        <time>2016-11-12T09:56:52Z</time>
      </trkpt>
      <trkpt lat="45.98144" lon="4.71515">
        <ele>197</ele>
        <time>2016-11-12T09:56:54Z</time>
      </trkpt>
      <trkpt lat="45.9815" lon="4.71511">
        <ele>197</ele>
        <time>2016-11-12T09:56:55Z</time>
      </trkpt>
      <trkpt lat="45.98164" lon="4.71504">
        <ele>197</ele>
        <time>2016-11-12T09:56:57Z</time>
      </trkpt>
      <trkpt lat="45.98171" lon="4.71497">
        <ele>197</ele>
        <time>2016-11-12T09:56:58Z</time>
      </trkpt>
      <trkpt lat="45.98176" lon="4.71493">
        <ele>197</ele>
        <time>2016-11-12T09:56:59Z</time>
      </trkpt>
      <trkpt lat="45.98182" lon="4.71494">
        <ele>197</ele>
        <time>2016-11-12T09:57:00Z</time>
      </trkpt>
      <trkpt lat="45.98189" lon="4.71494">
        <ele>197</ele>
        <time>2016-11-12T09:57:01Z</time>
      </trkpt>
      <trkpt lat="45.98195" lon="4.71496">
        <ele>197</ele>
        <time>2016-11-12T09:57:02Z</time>
      </trkpt>
      <trkpt lat="45.98201" lon="4.71497">
        <ele>197</ele>
        <time>2016-11-12T09:57:03Z</time>
      </trkpt>
      <trkpt lat="45.98207" lon="4.71499">
        <ele>197</ele>
        <time>2016-11-12T09:57:04Z</time>
      </trkpt>
      <trkpt lat="45.98213" lon="4.71502">
        <ele>196</ele>
        <time>2016-11-12T09:57:05Z</time>
      </trkpt>
      <trkpt lat="45.98218" lon="4.71505">
        <ele>196</ele>
        <time>2016-11-12T09:57:06Z</time>
      </trkpt>
      <trkpt lat="45.98224" lon="4.71509">
        <ele>196</ele>
        <time>2016-11-12T09:57:07Z</time>
      </trkpt>
      <trkpt lat="45.98229" lon="4.71513">
        <ele>196</ele>
        <time>2016-11-12T09:57:08Z</time>
      </trkpt>
      <trkpt lat="45.98234" lon="4.71516">
        <ele>196</ele>
        <time>2016-11-12T09:57:09Z</time>
      </trkpt>
      <trkpt lat="45.98239" lon="4.7152">
        <ele>196</ele>
        <time>2016-11-12T09:57:10Z</time>
      </trkpt>
      <trkpt lat="45.98244" lon="4.71524">
        <ele>196</ele>
        <time>2016-11-12T09:57:11Z</time>
      </trkpt>
      <trkpt lat="45.9825" lon="4.71526">
        <ele>197</ele>
        <time>2016-11-12T09:57:12Z</time>
      </trkpt>
      <trkpt lat="45.98256" lon="4.71527">
        <ele>197</ele>
        <time>2016-11-12T09:57:13Z</time>
      </trkpt>
      <trkpt lat="45.98277" lon="4.71534">
        <ele>197</ele>
        <time>2016-11-12T09:57:16Z</time>
      </trkpt>
      <trkpt lat="45.9828" lon="4.7153">
        <ele>198</ele>
        <time>2016-11-12T09:57:17Z</time>
      </trkpt>
      <trkpt lat="45.98286" lon="4.71534">
        <ele>198</ele>
        <time>2016-11-12T09:57:18Z</time>
      </trkpt>
      <trkpt lat="45.9829" lon="4.71541">
        <ele>198</ele>
        <time>2016-11-12T09:57:19Z</time>
      </trkpt>
      <trkpt lat="45.98297" lon="4.71549">
        <ele>198</ele>
        <time>2016-11-12T09:57:20Z</time>
      </trkpt>
      <trkpt lat="45.98302" lon="4.71554">
        <ele>198</ele>
        <time>2016-11-12T09:57:21Z</time>
      </trkpt>
      <trkpt lat="45.98308" lon="4.71558">
        <ele>198</ele>
        <time>2016-11-12T09:57:22Z</time>
      </trkpt>
      <trkpt lat="45.98314" lon="4.71562">
        <ele>198</ele>
        <time>2016-11-12T09:57:23Z</time>
      </trkpt>
      <trkpt lat="45.98319" lon="4.71566">
        <ele>198</ele>
        <time>2016-11-12T09:57:24Z</time>
      </trkpt>
      <trkpt lat="45.98324" lon="4.7157">
        <ele>198</ele>
        <time>2016-11-12T09:57:25Z</time>
      </trkpt>
      <trkpt lat="45.9833" lon="4.71574">
        <ele>199</ele>
        <time>2016-11-12T09:57:26Z</time>
      </trkpt>
      <trkpt lat="45.98335" lon="4.71577">
        <ele>199</ele>
        <time>2016-11-12T09:57:27Z</time>
      </trkpt>
      <trkpt lat="45.9834" lon="4.71581">
        <ele>199</ele>
        <time>2016-11-12T09:57:28Z</time>
      </trkpt>
      <trkpt lat="45.98345" lon="4.71584">
        <ele>199</ele>
        <time>2016-11-12T09:57:29Z</time>
      </trkpt>
      <trkpt lat="45.98351" lon="4.71587">
        <ele>198</ele>
        <time>2016-11-12T09:57:30Z</time>
      </trkpt>
      <trkpt lat="45.98356" lon="4.7159">
        <ele>198</ele>
        <time>2016-11-12T09:57:31Z</time>
      </trkpt>
      <trkpt lat="45.98362" lon="4.71594">
        <ele>198</ele>
        <time>2016-11-12T09:57:32Z</time>
      </trkpt>
      <trkpt lat="45.98368" lon="4.71597">
        <ele>198</ele>
        <time>2016-11-12T09:57:33Z</time>
      </trkpt>
      <trkpt lat="45.98374" lon="4.71598">
        <ele>198</ele>
        <time>2016-11-12T09:57:34Z</time>
      </trkpt>
      <trkpt lat="45.98379" lon="4.71598">
        <ele>198</ele>
        <time>2016-11-12T09:57:35Z</time>
      </trkpt>
      <trkpt lat="45.98384" lon="4.71596">
        <ele>198</ele>
        <time>2016-11-12T09:57:36Z</time>
      </trkpt>
      <trkpt lat="45.98389" lon="4.71593">
        <ele>198</ele>
        <time>2016-11-12T09:57:37Z</time>
      </trkpt>
      <trkpt lat="45.98393" lon="4.71589">
        <ele>198</ele>
        <time>2016-11-12T09:57:38Z</time>
      </trkpt>
      <trkpt lat="45.98397" lon="4.71585">
        <ele>197</ele>
        <time>2016-11-12T09:57:39Z</time>
      </trkpt>
      <trkpt lat="45.98401" lon="4.71581">
        <ele>198</ele>
        <time>2016-11-12T09:57:40Z</time>
      </trkpt>
      <trkpt lat="45.98405" lon="4.71576">
        <ele>198</ele>
        <time>2016-11-12T09:57:41Z</time>
      </trkpt>
      <trkpt lat="45.9841" lon="4.71571">
        <ele>198</ele>
        <time>2016-11-12T09:57:42Z</time>
      </trkpt>
      <trkpt lat="45.98433" lon="4.71545">
        <ele>197</ele>
        <time>2016-11-12T09:57:47Z</time>
      </trkpt>
      <trkpt lat="45.98437" lon="4.71539">
        <ele>197</ele>
        <time>2016-11-12T09:57:48Z</time>
      </trkpt>
      <trkpt lat="45.98455" lon="4.7153">
        <ele>197</ele>
        <time>2016-11-12T09:57:51Z</time>
      </trkpt>
      <trkpt lat="45.98461" lon="4.71527">
        <ele>197</ele>
        <time>2016-11-12T09:57:52Z</time>
      </trkpt>
      <trkpt lat="45.98468" lon="4.71525">
        <ele>197</ele>
        <time>2016-11-12T09:57:53Z</time>
      </trkpt>
      <trkpt lat="45.98476" lon="4.71525">
        <ele>196</ele>
        <time>2016-11-12T09:57:54Z</time>
      </trkpt>
      <trkpt lat="45.98482" lon="4.71523">
        <ele>196</ele>
        <time>2016-11-12T09:57:55Z</time>
      </trkpt>
      <trkpt lat="45.98489" lon="4.71522">
        <ele>196</ele>
        <time>2016-11-12T09:57:56Z</time>
      </trkpt>
      <trkpt lat="45.98497" lon="4.71521">
        <ele>196</ele>
        <time>2016-11-12T09:57:57Z</time>
      </trkpt>
      <trkpt lat="45.98504" lon="4.7152">
        <ele>195</ele>
        <time>2016-11-12T09:57:58Z</time>
      </trkpt>
      <trkpt lat="45.98511" lon="4.71519">
        <ele>195</ele>
        <time>2016-11-12T09:57:59Z</time>
      </trkpt>
      <trkpt lat="45.98518" lon="4.71518">
        <ele>194</ele>
        <time>2016-11-12T09:58:00Z</time>
      </trkpt>
      <trkpt lat="45.98533" lon="4.71516">
        <ele>194</ele>
        <time>2016-11-12T09:58:02Z</time>
      </trkpt>
      <trkpt lat="45.98547" lon="4.71511">
        <ele>194</ele>
        <time>2016-11-12T09:58:04Z</time>
      </trkpt>
      <trkpt lat="45.98551" lon="4.71509">
        <ele>194</ele>
        <time>2016-11-12T09:58:05Z</time>
      </trkpt>
      <trkpt lat="45.98557" lon="4.7151">
        <ele>194</ele>
        <time>2016-11-12T09:58:06Z</time>
      </trkpt>
      <trkpt lat="45.98564" lon="4.71509">
        <ele>193</ele>
        <time>2016-11-12T09:58:07Z</time>
      </trkpt>
      <trkpt lat="45.98572" lon="4.71507">
        <ele>193</ele>
        <time>2016-11-12T09:58:08Z</time>
      </trkpt>
      <trkpt lat="45.98579" lon="4.71507">
        <ele>193</ele>
        <time>2016-11-12T09:58:09Z</time>
      </trkpt>
      <trkpt lat="45.98587" lon="4.71506">
        <ele>192</ele>
        <time>2016-11-12T09:58:10Z</time>
      </trkpt>
      <trkpt lat="45.98595" lon="4.71505">
        <ele>192</ele>
        <time>2016-11-12T09:58:11Z</time>
      </trkpt>
      <trkpt lat="45.98602" lon="4.71504">
        <ele>192</ele>
        <time>2016-11-12T09:58:12Z</time>
      </trkpt>
      <trkpt lat="45.98608" lon="4.71502">
        <ele>191</ele>
        <time>2016-11-12T09:58:13Z</time>
      </trkpt>
      <trkpt lat="45.98615" lon="4.71501">
        <ele>191</ele>
        <time>2016-11-12T09:58:14Z</time>
      </trkpt>
      <trkpt lat="45.98621" lon="4.715">
        <ele>190</ele>
        <time>2016-11-12T09:58:15Z</time>
      </trkpt>
      <trkpt lat="45.98626" lon="4.71498">
        <ele>190</ele>
        <time>2016-11-12T09:58:16Z</time>
      </trkpt>
      <trkpt lat="45.9863" lon="4.71496">
        <ele>190</ele>
        <time>2016-11-12T09:58:17Z</time>
      </trkpt>
      <trkpt lat="45.98635" lon="4.71494">
        <ele>190</ele>
        <time>2016-11-12T09:58:18Z</time>
      </trkpt>
      <trkpt lat="45.9864" lon="4.71492">
        <ele>190</ele>
        <time>2016-11-12T09:58:19Z</time>
      </trkpt>
      <trkpt lat="45.98646" lon="4.71489">
        <ele>190</ele>
        <time>2016-11-12T09:58:20Z</time>
      </trkpt>
      <trkpt lat="45.98651" lon="4.71488">
        <ele>190</ele>
        <time>2016-11-12T09:58:21Z</time>
      </trkpt>
      <trkpt lat="45.98655" lon="4.71488">
        <ele>190</ele>
        <time>2016-11-12T09:58:22Z</time>
      </trkpt>
      <trkpt lat="45.98659" lon="4.71487">
        <ele>190</ele>
        <time>2016-11-12T09:58:23Z</time>
      </trkpt>
      <trkpt lat="45.98663" lon="4.7148">
        <ele>190</ele>
        <time>2016-11-12T09:58:27Z</time>
      </trkpt>
      <trkpt lat="45.98663" lon="4.7148">
        <ele>190</ele>
        <time>2016-11-12T09:58:28Z</time>
      </trkpt>
      <trkpt lat="45.98662" lon="4.71477">
        <ele>190</ele>
        <time>2016-11-12T09:58:29Z</time>
      </trkpt>
      <trkpt lat="45.98661" lon="4.71477">
        <ele>190</ele>
        <time>2016-11-12T09:58:30Z</time>
      </trkpt>
      <trkpt lat="45.98661" lon="4.71473">
        <ele>190</ele>
        <time>2016-11-12T09:58:39Z</time>
      </trkpt>
      <trkpt lat="45.98663" lon="4.71474">
        <ele>190</ele>
        <time>2016-11-12T09:58:40Z</time>
      </trkpt>
      <trkpt lat="45.98667" lon="4.71475">
        <ele>190</ele>
        <time>2016-11-12T09:58:41Z</time>
      </trkpt>
      <trkpt lat="45.98672" lon="4.71483">
        <ele>188</ele>
        <time>2016-11-12T09:58:42Z</time>
      </trkpt>
      <trkpt lat="45.98677" lon="4.71486">
        <ele>188</ele>
        <time>2016-11-12T09:58:43Z</time>
      </trkpt>
      <trkpt lat="45.98682" lon="4.71483">
        <ele>188</ele>
        <time>2016-11-12T09:58:44Z</time>
      </trkpt>
      <trkpt lat="45.98689" lon="4.71483">
        <ele>187</ele>
        <time>2016-11-12T09:58:45Z</time>
      </trkpt>
      <trkpt lat="45.98694" lon="4.71488">
        <ele>187</ele>
        <time>2016-11-12T09:58:46Z</time>
      </trkpt>
      <trkpt lat="45.98699" lon="4.71492">
        <ele>187</ele>
        <time>2016-11-12T09:58:47Z</time>
      </trkpt>
      <trkpt lat="45.98703" lon="4.71493">
        <ele>187</ele>
        <time>2016-11-12T09:58:48Z</time>
      </trkpt>
      <trkpt lat="45.98711" lon="4.71496">
        <ele>186</ele>
        <time>2016-11-12T09:58:50Z</time>
      </trkpt>
      <trkpt lat="45.98715" lon="4.71497">
        <ele>186</ele>
        <time>2016-11-12T09:58:51Z</time>
      </trkpt>
      <trkpt lat="45.98724" lon="4.71501">
        <ele>186</ele>
        <time>2016-11-12T09:58:53Z</time>
      </trkpt>
      <trkpt lat="45.9873" lon="4.71502">
        <ele>186</ele>
        <time>2016-11-12T09:58:54Z</time>
      </trkpt>
      <trkpt lat="45.98736" lon="4.71502">
        <ele>185</ele>
        <time>2016-11-12T09:58:55Z</time>
      </trkpt>
      <trkpt lat="45.98743" lon="4.71502">
        <ele>185</ele>
        <time>2016-11-12T09:58:56Z</time>
      </trkpt>
      <trkpt lat="45.98749" lon="4.71502">
        <ele>184</ele>
        <time>2016-11-12T09:58:57Z</time>
      </trkpt>
      <trkpt lat="45.98782" lon="4.71503">
        <ele>184</ele>
        <time>2016-11-12T09:59:02Z</time>
      </trkpt>
      <trkpt lat="45.98788" lon="4.71504">
        <ele>184</ele>
        <time>2016-11-12T09:59:03Z</time>
      </trkpt>
      <trkpt lat="45.98794" lon="4.71505">
        <ele>184</ele>
        <time>2016-11-12T09:59:04Z</time>
      </trkpt>
      <trkpt lat="45.988" lon="4.71505">
        <ele>184</ele>
        <time>2016-11-12T09:59:05Z</time>
      </trkpt>
      <trkpt lat="45.98806" lon="4.71506">
        <ele>184</ele>
        <time>2016-11-12T09:59:06Z</time>
      </trkpt>
      <trkpt lat="45.98812" lon="4.71506">
        <ele>184</ele>
        <time>2016-11-12T09:59:07Z</time>
      </trkpt>
      <trkpt lat="45.98817" lon="4.71505">
        <ele>184</ele>
        <time>2016-11-12T09:59:08Z</time>
      </trkpt>
      <trkpt lat="45.98823" lon="4.71507">
        <ele>184</ele>
        <time>2016-11-12T09:59:10Z</time>
      </trkpt>
      <trkpt lat="45.98828" lon="4.71507">
        <ele>184</ele>
        <time>2016-11-12T09:59:12Z</time>
      </trkpt>
      <trkpt lat="45.98835" lon="4.71505">
        <ele>184</ele>
        <time>2016-11-12T09:59:14Z</time>
      </trkpt>
      <trkpt lat="45.98839" lon="4.71505">
        <ele>184</ele>
        <time>2016-11-12T09:59:15Z</time>
      </trkpt>
      <trkpt lat="45.98845" lon="4.71506">
        <ele>184</ele>
        <time>2016-11-12T09:59:16Z</time>
      </trkpt>
      <trkpt lat="45.98851" lon="4.71507">
        <ele>185</ele>
        <time>2016-11-12T09:59:17Z</time>
      </trkpt>
      <trkpt lat="45.98857" lon="4.71507">
        <ele>185</ele>
        <time>2016-11-12T09:59:18Z</time>
      </trkpt>
      <trkpt lat="45.98863" lon="4.71507">
        <ele>185</ele>
        <time>2016-11-12T09:59:19Z</time>
      </trkpt>
      <trkpt lat="45.98869" lon="4.71506">
        <ele>185</ele>
        <time>2016-11-12T09:59:20Z</time>
      </trkpt>
      <trkpt lat="45.98875" lon="4.71507">
        <ele>185</ele>
        <time>2016-11-12T09:59:21Z</time>
      </trkpt>
      <trkpt lat="45.9888" lon="4.71508">
        <ele>185</ele>
        <time>2016-11-12T09:59:22Z</time>
      </trkpt>
      <trkpt lat="45.98885" lon="4.71508">
        <ele>185</ele>
        <time>2016-11-12T09:59:23Z</time>
      </trkpt>
      <trkpt lat="45.98892" lon="4.71509">
        <ele>185</ele>
        <time>2016-11-12T09:59:25Z</time>
      </trkpt>
      <trkpt lat="45.98895" lon="4.71509">
        <ele>185</ele>
        <time>2016-11-12T09:59:26Z</time>
      </trkpt>
      <trkpt lat="45.98903" lon="4.71509">
        <ele>185</ele>
        <time>2016-11-12T09:59:28Z</time>
      </trkpt>
      <trkpt lat="45.98905" lon="4.71509">
        <ele>185</ele>
        <time>2016-11-12T09:59:29Z</time>
      </trkpt>
      <trkpt lat="45.98912" lon="4.71508">
        <ele>185</ele>
        <time>2016-11-12T09:59:31Z</time>
      </trkpt>
      <trkpt lat="45.98915" lon="4.71507">
        <ele>185</ele>
        <time>2016-11-12T09:59:32Z</time>
      </trkpt>
      <trkpt lat="45.98921" lon="4.71507">
        <ele>185</ele>
        <time>2016-11-12T09:59:34Z</time>
      </trkpt>
      <trkpt lat="45.98924" lon="4.71508">
        <ele>185</ele>
        <time>2016-11-12T09:59:35Z</time>
      </trkpt>
      <trkpt lat="45.98931" lon="4.7151">
        <ele>186</ele>
        <time>2016-11-12T09:59:37Z</time>
      </trkpt>
      <trkpt lat="45.98934" lon="4.71511">
        <ele>186</ele>
        <time>2016-11-12T09:59:38Z</time>
      </trkpt>
      <trkpt lat="45.98939" lon="4.71513">
        <ele>186</ele>
        <time>2016-11-12T09:59:40Z</time>
      </trkpt>
      <trkpt lat="45.9894" lon="4.71514">
        <ele>186</ele>
        <time>2016-11-12T09:59:41Z</time>
      </trkpt>
      <trkpt lat="45.9894" lon="4.71514">
        <ele>186</ele>
        <time>2016-11-12T09:59:59Z</time>
      </trkpt>
      <trkpt lat="45.98941" lon="4.71514">
        <ele>186</ele>
        <time>2016-11-12T10:00:00Z</time>
      </trkpt>
      <trkpt lat="45.98946" lon="4.71515">
        <ele>186</ele>
        <time>2016-11-12T10:00:02Z</time>
      </trkpt>
      <trkpt lat="45.9895" lon="4.71516">
        <ele>186</ele>
        <time>2016-11-12T10:00:03Z</time>
      </trkpt>
      <trkpt lat="45.98954" lon="4.71516">
        <ele>186</ele>
        <time>2016-11-12T10:00:04Z</time>
      </trkpt>
      <trkpt lat="45.98959" lon="4.71516">
        <ele>186</ele>
        <time>2016-11-12T10:00:05Z</time>
      </trkpt>
      <trkpt lat="45.98964" lon="4.71516">
        <ele>186</ele>
        <time>2016-11-12T10:00:06Z</time>
      </trkpt>
      <trkpt lat="45.9897" lon="4.71515">
        <ele>186</ele>
        <time>2016-11-12T10:00:07Z</time>
      </trkpt>
      <trkpt lat="45.98975" lon="4.71515">
        <ele>186</ele>
        <time>2016-11-12T10:00:08Z</time>
      </trkpt>
      <trkpt lat="45.98998" lon="4.71512">
        <ele>187</ele>
        <time>2016-11-12T10:00:13Z</time>
      </trkpt>
      <trkpt lat="45.99006" lon="4.71512">
        <ele>188</ele>
        <time>2016-11-12T10:00:15Z</time>
      </trkpt>
      <trkpt lat="45.99011" lon="4.71513">
        <ele>188</ele>
        <time>2016-11-12T10:00:16Z</time>
      </trkpt>
      <trkpt lat="45.99016" lon="4.71513">
        <ele>188</ele>
        <time>2016-11-12T10:00:17Z</time>
      </trkpt>
      <trkpt lat="45.99021" lon="4.71515">
        <ele>188</ele>
        <time>2016-11-12T10:00:18Z</time>
      </trkpt>
      <trkpt lat="45.99026" lon="4.71515">
        <ele>188</ele>
        <time>2016-11-12T10:00:19Z</time>
      </trkpt>
      <trkpt lat="45.99031" lon="4.71516">
        <ele>188</ele>
        <time>2016-11-12T10:00:20Z</time>
      </trkpt>
      <trkpt lat="45.99036" lon="4.71517">
        <ele>188</ele>
        <time>2016-11-12T10:00:21Z</time>
      </trkpt>
      <trkpt lat="45.9904" lon="4.71515">
        <ele>188</ele>
        <time>2016-11-12T10:00:22Z</time>
      </trkpt>
      <trkpt lat="45.99048" lon="4.71513">
        <ele>189</ele>
        <time>2016-11-12T10:00:24Z</time>
      </trkpt>
      <trkpt lat="45.99051" lon="4.71512">
        <ele>189</ele>
        <time>2016-11-12T10:00:25Z</time>
      </trkpt>
      <trkpt lat="45.9906" lon="4.71513">
        <ele>189</ele>
        <time>2016-11-12T10:00:27Z</time>
      </trkpt>
      <trkpt lat="45.99065" lon="4.71512">
        <ele>189</ele>
        <time>2016-11-12T10:00:28Z</time>
      </trkpt>
      <trkpt lat="45.99069" lon="4.71513">
        <ele>189</ele>
        <time>2016-11-12T10:00:29Z</time>
      </trkpt>
      <trkpt lat="45.99073" lon="4.71515">
        <ele>189</ele>
        <time>2016-11-12T10:00:30Z</time>
      </trkpt>
      <trkpt lat="45.99082" lon="4.71513">
        <ele>189</ele>
        <time>2016-11-12T10:00:32Z</time>
      </trkpt>
      <trkpt lat="45.99086" lon="4.71511">
        <ele>191</ele>
        <time>2016-11-12T10:00:33Z</time>
      </trkpt>
      <trkpt lat="45.9909" lon="4.71511">
        <ele>191</ele>
        <time>2016-11-12T10:00:34Z</time>
      </trkpt>
      <trkpt lat="45.99095" lon="4.71504">
        <ele>191</ele>
        <time>2016-11-12T10:00:35Z</time>
      </trkpt>
      <trkpt lat="45.991" lon="4.71504">
        <ele>191</ele>
        <time>2016-11-12T10:00:36Z</time>
      </trkpt>
      <trkpt lat="45.99105" lon="4.71504">
        <ele>191</ele>
        <time>2016-11-12T10:00:37Z</time>
      </trkpt>
      <trkpt lat="45.99109" lon="4.71504">
        <ele>191</ele>
        <time>2016-11-12T10:00:38Z</time>
      </trkpt>
      <trkpt lat="45.99114" lon="4.71502">
        <ele>191</ele>
        <time>2016-11-12T10:00:41Z</time>
      </trkpt>
      <trkpt lat="45.99123" lon="4.71502">
        <ele>192</ele>
        <time>2016-11-12T10:00:45Z</time>
      </trkpt>
      <trkpt lat="45.99128" lon="4.71499">
        <ele>191</ele>
        <time>2016-11-12T10:00:49Z</time>
      </trkpt>
      <trkpt lat="45.99129" lon="4.71498">
        <ele>191</ele>
        <time>2016-11-12T10:00:53Z</time>
      </trkpt>
      <trkpt lat="45.9913" lon="4.71498">
        <ele>191</ele>
        <time>2016-11-12T10:00:54Z</time>
      </trkpt>
      <trkpt lat="45.99133" lon="4.71496">
        <ele>191</ele>
        <time>2016-11-12T10:00:56Z</time>
      </trkpt>
      <trkpt lat="45.99135" lon="4.71495">
        <ele>191</ele>
        <time>2016-11-12T10:00:57Z</time>
      </trkpt>
      <trkpt lat="45.99142" lon="4.71496">
        <ele>192</ele>
        <time>2016-11-12T10:00:59Z</time>
      </trkpt>
      <trkpt lat="45.99146" lon="4.71497">
        <ele>192</ele>
        <time>2016-11-12T10:01:00Z</time>
      </trkpt>
      <trkpt lat="45.99155" lon="4.71499">
        <ele>192</ele>
        <time>2016-11-12T10:01:02Z</time>
      </trkpt>
      <trkpt lat="45.9916" lon="4.71502">
        <ele>193</ele>
        <time>2016-11-12T10:01:03Z</time>
      </trkpt>
      <trkpt lat="45.99164" lon="4.71506">
        <ele>193</ele>
        <time>2016-11-12T10:01:04Z</time>
      </trkpt>
      <trkpt lat="45.99169" lon="4.71504">
        <ele>193</ele>
        <time>2016-11-12T10:01:05Z</time>
      </trkpt>
      <trkpt lat="45.99173" lon="4.71502">
        <ele>194</ele>
        <time>2016-11-12T10:01:06Z</time>
      </trkpt>
      <trkpt lat="45.99178" lon="4.71501">
        <ele>194</ele>
        <time>2016-11-12T10:01:07Z</time>
      </trkpt>
      <trkpt lat="45.99182" lon="4.71497">
        <ele>194</ele>
        <time>2016-11-12T10:01:08Z</time>
      </trkpt>
      <trkpt lat="45.99187" lon="4.71496">
        <ele>194</ele>
        <time>2016-11-12T10:01:09Z</time>
      </trkpt>
      <trkpt lat="45.99192" lon="4.71496">
        <ele>194</ele>
        <time>2016-11-12T10:01:10Z</time>
      </trkpt>
      <trkpt lat="45.99196" lon="4.71495">
        <ele>194</ele>
        <time>2016-11-12T10:01:11Z</time>
      </trkpt>
      <trkpt lat="45.99204" lon="4.71493">
        <ele>194</ele>
        <time>2016-11-12T10:01:13Z</time>
      </trkpt>
      <trkpt lat="45.99209" lon="4.71492">
        <ele>194</ele>
        <time>2016-11-12T10:01:14Z</time>
      </trkpt>
      <trkpt lat="45.99217" lon="4.71494">
        <ele>194</ele>
        <time>2016-11-12T10:01:16Z</time>
      </trkpt>
      <trkpt lat="45.99221" lon="4.71495">
        <ele>195</ele>
        <time>2016-11-12T10:01:17Z</time>
      </trkpt>
      <trkpt lat="45.9923" lon="4.71497">
        <ele>195</ele>
        <time>2016-11-12T10:01:19Z</time>
      </trkpt>
      <trkpt lat="45.99244" lon="4.71495">
        <ele>195</ele>
        <time>2016-11-12T10:01:23Z</time>
      </trkpt>
      <trkpt lat="45.9925" lon="4.71497">
        <ele>196</ele>
        <time>2016-11-12T10:01:26Z</time>
      </trkpt>
      <trkpt lat="45.99253" lon="4.71497">
        <ele>196</ele>
        <time>2016-11-12T10:01:27Z</time>
      </trkpt>
      <trkpt lat="45.99261" lon="4.715">
        <ele>196</ele>
        <time>2016-11-12T10:01:31Z</time>
      </trkpt>
      <trkpt lat="45.99261" lon="4.71501">
        <ele>197</ele>
        <time>2016-11-12T10:01:32Z</time>
      </trkpt>
      <trkpt lat="45.99261" lon="4.715">
        <ele>196</ele>
        <time>2016-11-12T10:01:37Z</time>
      </trkpt>
      <trkpt lat="45.99268" lon="4.71506">
        <ele>198</ele>
        <time>2016-11-12T10:01:40Z</time>
      </trkpt>
      <trkpt lat="45.99275" lon="4.71509">
        <ele>198</ele>
        <time>2016-11-12T10:01:42Z</time>
      </trkpt>
      <trkpt lat="45.99279" lon="4.7151">
        <ele>198</ele>
        <time>2016-11-12T10:01:43Z</time>
      </trkpt>
      <trkpt lat="45.99287" lon="4.71512">
        <ele>199</ele>
        <time>2016-11-12T10:01:45Z</time>
      </trkpt>
      <trkpt lat="45.99292" lon="4.71513">
        <ele>199</ele>
        <time>2016-11-12T10:01:46Z</time>
      </trkpt>
      <trkpt lat="45.99297" lon="4.71515">
        <ele>199</ele>
        <time>2016-11-12T10:01:47Z</time>
      </trkpt>
      <trkpt lat="45.99303" lon="4.71515">
        <ele>199</ele>
        <time>2016-11-12T10:01:48Z</time>
      </trkpt>
      <trkpt lat="45.99312" lon="4.71516">
        <ele>199</ele>
        <time>2016-11-12T10:01:50Z</time>
      </trkpt>
      <trkpt lat="45.99316" lon="4.71516">
        <ele>199</ele>
        <time>2016-11-12T10:01:51Z</time>
      </trkpt>
      <trkpt lat="45.99324" lon="4.71515">
        <ele>200</ele>
        <time>2016-11-12T10:01:53Z</time>
      </trkpt>
      <trkpt lat="45.99327" lon="4.71515">
        <ele>200</ele>
        <time>2016-11-12T10:01:54Z</time>
      </trkpt>
      <trkpt lat="45.99335" lon="4.71514">
        <ele>200</ele>
        <time>2016-11-12T10:01:56Z</time>
      </trkpt>
      <trkpt lat="45.99339" lon="4.71512">
        <ele>200</ele>
        <time>2016-11-12T10:01:57Z</time>
      </trkpt>
      <trkpt lat="45.99347" lon="4.71508">
        <ele>200</ele>
        <time>2016-11-12T10:01:59Z</time>
      </trkpt>
      <trkpt lat="45.99352" lon="4.71507">
        <ele>200</ele>
        <time>2016-11-12T10:02:00Z</time>
      </trkpt>
      <trkpt lat="45.99359" lon="4.71509">
        <ele>200</ele>
        <time>2016-11-12T10:02:02Z</time>
      </trkpt>
      <trkpt lat="45.99363" lon="4.71511">
        <ele>200</ele>
        <time>2016-11-12T10:02:03Z</time>
      </trkpt>
      <trkpt lat="45.99372" lon="4.71512">
        <ele>200</ele>
        <time>2016-11-12T10:02:05Z</time>
      </trkpt>
      <trkpt lat="45.99377" lon="4.71513">
        <ele>200</ele>
        <time>2016-11-12T10:02:06Z</time>
      </trkpt>
      <trkpt lat="45.99385" lon="4.71514">
        <ele>200</ele>
        <time>2016-11-12T10:02:08Z</time>
      </trkpt>
      <trkpt lat="45.9939" lon="4.71513">
        <ele>200</ele>
        <time>2016-11-12T10:02:09Z</time>
      </trkpt>
      <trkpt lat="45.99398" lon="4.71512">
        <ele>200</ele>
        <time>2016-11-12T10:02:11Z</time>
      </trkpt>
      <trkpt lat="45.99402" lon="4.71512">
        <ele>200</ele>
        <time>2016-11-12T10:02:12Z</time>
      </trkpt>
      <trkpt lat="45.99407" lon="4.71512">
        <ele>200</ele>
        <time>2016-11-12T10:02:13Z</time>
      </trkpt>
      <trkpt lat="45.99412" lon="4.71511">
        <ele>199</ele>
        <time>2016-11-12T10:02:14Z</time>
      </trkpt>
      <trkpt lat="45.99417" lon="4.71508">
        <ele>199</ele>
        <time>2016-11-12T10:02:15Z</time>
      </trkpt>
      <trkpt lat="45.99423" lon="4.71506">
        <ele>199</ele>
        <time>2016-11-12T10:02:16Z</time>
      </trkpt>
      <trkpt lat="45.99429" lon="4.71512">
        <ele>199</ele>
        <time>2016-11-12T10:02:17Z</time>
      </trkpt>
      <trkpt lat="45.99436" lon="4.71512">
        <ele>199</ele>
        <time>2016-11-12T10:02:18Z</time>
      </trkpt>
      <trkpt lat="45.99442" lon="4.71512">
        <ele>199</ele>
        <time>2016-11-12T10:02:19Z</time>
      </trkpt>
      <trkpt lat="45.99449" lon="4.71513">
        <ele>199</ele>
        <time>2016-11-12T10:02:20Z</time>
      </trkpt>
      <trkpt lat="45.99455" lon="4.71514">
        <ele>199</ele>
        <time>2016-11-12T10:02:21Z</time>
      </trkpt>
      <trkpt lat="45.99461" lon="4.71514">
        <ele>199</ele>
        <time>2016-11-12T10:02:22Z</time>
      </trkpt>
      <trkpt lat="45.99469" lon="4.71513">
        <ele>199</ele>
        <time>2016-11-12T10:02:24Z</time>
      </trkpt>
      <trkpt lat="45.99473" lon="4.71514">
        <ele>199</ele>
        <time>2016-11-12T10:02:25Z</time>
      </trkpt>
      <trkpt lat="45.99482" lon="4.71514">
        <ele>199</ele>
        <time>2016-11-12T10:02:27Z</time>
      </trkpt>
      <trkpt lat="45.99487" lon="4.71513">
        <ele>199</ele>
        <time>2016-11-12T10:02:28Z</time>
      </trkpt>
      <trkpt lat="45.99493" lon="4.71512">
        <ele>199</ele>
        <time>2016-11-12T10:02:29Z</time>
      </trkpt>
      <trkpt lat="45.99498" lon="4.71512">
        <ele>199</ele>
        <time>2016-11-12T10:02:30Z</time>
      </trkpt>
      <trkpt lat="45.99503" lon="4.71511">
        <ele>199</ele>
        <time>2016-11-12T10:02:31Z</time>
      </trkpt>
      <trkpt lat="45.99508" lon="4.71511">
        <ele>199</ele>
        <time>2016-11-12T10:02:32Z</time>
      </trkpt>
      <trkpt lat="45.99513" lon="4.71511">
        <ele>199</ele>
        <time>2016-11-12T10:02:33Z</time>
      </trkpt>
      <trkpt lat="45.99517" lon="4.7151">
        <ele>199</ele>
        <time>2016-11-12T10:02:34Z</time>
      </trkpt>
      <trkpt lat="45.99521" lon="4.7151">
        <ele>198</ele>
        <time>2016-11-12T10:02:35Z</time>
      </trkpt>
      <trkpt lat="45.99526" lon="4.7151">
        <ele>198</ele>
        <time>2016-11-12T10:02:36Z</time>
      </trkpt>
      <trkpt lat="45.99531" lon="4.71509">
        <ele>198</ele>
        <time>2016-11-12T10:02:37Z</time>
      </trkpt>
      <trkpt lat="45.99536" lon="4.71509">
        <ele>198</ele>
        <time>2016-11-12T10:02:38Z</time>
      </trkpt>
      <trkpt lat="45.99541" lon="4.71509">
        <ele>198</ele>
        <time>2016-11-12T10:02:39Z</time>
      </trkpt>
      <trkpt lat="45.99546" lon="4.71509">
        <ele>198</ele>
        <time>2016-11-12T10:02:40Z</time>
      </trkpt>
      <trkpt lat="45.99552" lon="4.71509">
        <ele>198</ele>
        <time>2016-11-12T10:02:41Z</time>
      </trkpt>
      <trkpt lat="45.99557" lon="4.71509">
        <ele>198</ele>
        <time>2016-11-12T10:02:42Z</time>
      </trkpt>
      <trkpt lat="45.99562" lon="4.71509">
        <ele>197</ele>
        <time>2016-11-12T10:02:43Z</time>
      </trkpt>
      <trkpt lat="45.99566" lon="4.71509">
        <ele>197</ele>
        <time>2016-11-12T10:02:44Z</time>
      </trkpt>
      <trkpt lat="45.99575" lon="4.71511">
        <ele>197</ele>
        <time>2016-11-12T10:02:46Z</time>
      </trkpt>
      <trkpt lat="45.99579" lon="4.71513">
        <ele>197</ele>
        <time>2016-11-12T10:02:47Z</time>
      </trkpt>
      <trkpt lat="45.99585" lon="4.71521">
        <ele>197</ele>
        <time>2016-11-12T10:02:49Z</time>
      </trkpt>
      <trkpt lat="45.99588" lon="4.71525">
        <ele>197</ele>
        <time>2016-11-12T10:02:50Z</time>
      </trkpt>
      <trkpt lat="45.99593" lon="4.71533">
        <ele>197</ele>
        <time>2016-11-12T10:02:52Z</time>
      </trkpt>
      <trkpt lat="45.99598" lon="4.71535">
        <ele>198</ele>
        <time>2016-11-12T10:02:53Z</time>
      </trkpt>
      <trkpt lat="45.99606" lon="4.71532">
        <ele>197</ele>
        <time>2016-11-12T10:02:55Z</time>
      </trkpt>
      <trkpt lat="45.99609" lon="4.71528">
        <ele>197</ele>
        <time>2016-11-12T10:02:56Z</time>
      </trkpt>
      <trkpt lat="45.99611" lon="4.71521">
        <ele>197</ele>
        <time>2016-11-12T10:02:57Z</time>
      </trkpt>
      <trkpt lat="45.99612" lon="4.71514">
        <ele>197</ele>
        <time>2016-11-12T10:02:58Z</time>
      </trkpt>
      <trkpt lat="45.99612" lon="4.71507">
        <ele>197</ele>
        <time>2016-11-12T10:02:59Z</time>
      </trkpt>
      <trkpt lat="45.99613" lon="4.71499">
        <ele>197</ele>
        <time>2016-11-12T10:03:00Z</time>
      </trkpt>
      <trkpt lat="45.99613" lon="4.71487">
        <ele>197</ele>
        <time>2016-11-12T10:03:02Z</time>
      </trkpt>
      <trkpt lat="45.99614" lon="4.71479">
        <ele>197</ele>
        <time>2016-11-12T10:03:03Z</time>
      </trkpt>
      <trkpt lat="45.99617" lon="4.71467">
        <ele>197</ele>
        <time>2016-11-12T10:03:05Z</time>
      </trkpt>
      <trkpt lat="45.99618" lon="4.71457">
        <ele>197</ele>
        <time>2016-11-12T10:03:06Z</time>
      </trkpt>
      <trkpt lat="45.99622" lon="4.71448">
        <ele>197</ele>
        <time>2016-11-12T10:03:07Z</time>
      </trkpt>
      <trkpt lat="45.99625" lon="4.7144">
        <ele>197</ele>
        <time>2016-11-12T10:03:08Z</time>
      </trkpt>
      <trkpt lat="45.99629" lon="4.71435">
        <ele>197</ele>
        <time>2016-11-12T10:03:09Z</time>
      </trkpt>
      <trkpt lat="45.99632" lon="4.7143">
        <ele>197</ele>
        <time>2016-11-12T10:03:10Z</time>
      </trkpt>
      <trkpt lat="45.99635" lon="4.71425">
        <ele>197</ele>
        <time>2016-11-12T10:03:11Z</time>
      </trkpt>
      <trkpt lat="45.99638" lon="4.71419">
        <ele>197</ele>
        <time>2016-11-12T10:03:12Z</time>
      </trkpt>
      <trkpt lat="45.99642" lon="4.71412">
        <ele>198</ele>
        <time>2016-11-12T10:03:13Z</time>
      </trkpt>
      <trkpt lat="45.99645" lon="4.71406">
        <ele>198</ele>
        <time>2016-11-12T10:03:14Z</time>
      </trkpt>
      <trkpt lat="45.99649" lon="4.71399">
        <ele>198</ele>
        <time>2016-11-12T10:03:15Z</time>
      </trkpt>
      <trkpt lat="45.99654" lon="4.71392">
        <ele>198</ele>
        <time>2016-11-12T10:03:16Z</time>
      </trkpt>
      <trkpt lat="45.99658" lon="4.71384">
        <ele>198</ele>
        <time>2016-11-12T10:03:17Z</time>
      </trkpt>
      <trkpt lat="45.99662" lon="4.71377">
        <ele>198</ele>
        <time>2016-11-12T10:03:18Z</time>
      </trkpt>
      <trkpt lat="45.99665" lon="4.71371">
        <ele>197</ele>
        <time>2016-11-12T10:03:19Z</time>
      </trkpt>
      <trkpt lat="45.99671" lon="4.7136">
        <ele>197</ele>
        <time>2016-11-12T10:03:21Z</time>
      </trkpt>
      <trkpt lat="45.99674" lon="4.71353">
        <ele>197</ele>
        <time>2016-11-12T10:03:22Z</time>
      </trkpt>
      <trkpt lat="45.99677" lon="4.71348">
        <ele>197</ele>
        <time>2016-11-12T10:03:23Z</time>
      </trkpt>
      <trkpt lat="45.99683" lon="4.71338">
        <ele>197</ele>
        <time>2016-11-12T10:03:25Z</time>
      </trkpt>
      <trkpt lat="45.99686" lon="4.71332">
        <ele>197</ele>
        <time>2016-11-12T10:03:26Z</time>
      </trkpt>
      <trkpt lat="45.9969" lon="4.71326">
        <ele>197</ele>
        <time>2016-11-12T10:03:27Z</time>
      </trkpt>
      <trkpt lat="45.99693" lon="4.7132">
        <ele>198</ele>
        <time>2016-11-12T10:03:28Z</time>
      </trkpt>
      <trkpt lat="45.99697" lon="4.71313">
        <ele>198</ele>
        <time>2016-11-12T10:03:29Z</time>
      </trkpt>
      <trkpt lat="45.99701" lon="4.71306">
        <ele>198</ele>
        <time>2016-11-12T10:03:30Z</time>
      </trkpt>
      <trkpt lat="45.99705" lon="4.71299">
        <ele>198</ele>
        <time>2016-11-12T10:03:31Z</time>
      </trkpt>
      <trkpt lat="45.99708" lon="4.71293">
        <ele>198</ele>
        <time>2016-11-12T10:03:32Z</time>
      </trkpt>
      <trkpt lat="45.99712" lon="4.71287">
        <ele>198</ele>
        <time>2016-11-12T10:03:33Z</time>
      </trkpt>
      <trkpt lat="45.99715" lon="4.71281">
        <ele>198</ele>
        <time>2016-11-12T10:03:34Z</time>
      </trkpt>
      <trkpt lat="45.99718" lon="4.71275">
        <ele>198</ele>
        <time>2016-11-12T10:03:35Z</time>
      </trkpt>
      <trkpt lat="45.99721" lon="4.7127">
        <ele>198</ele>
        <time>2016-11-12T10:03:36Z</time>
      </trkpt>
      <trkpt lat="45.99724" lon="4.71265">
        <ele>198</ele>
        <time>2016-11-12T10:03:37Z</time>
      </trkpt>
      <trkpt lat="45.99727" lon="4.71259">
        <ele>198</ele>
        <time>2016-11-12T10:03:38Z</time>
      </trkpt>
      <trkpt lat="45.9973" lon="4.71253">
        <ele>198</ele>
        <time>2016-11-12T10:03:39Z</time>
      </trkpt>
      <trkpt lat="45.99733" lon="4.71247">
        <ele>198</ele>
        <time>2016-11-12T10:03:40Z</time>
      </trkpt>
      <trkpt lat="45.99736" lon="4.71241">
        <ele>198</ele>
        <time>2016-11-12T10:03:41Z</time>
      </trkpt>
      <trkpt lat="45.99739" lon="4.71234">
        <ele>198</ele>
        <time>2016-11-12T10:03:42Z</time>
      </trkpt>
      <trkpt lat="45.99742" lon="4.71228">
        <ele>198</ele>
        <time>2016-11-12T10:03:43Z</time>
      </trkpt>
      <trkpt lat="45.99745" lon="4.71222">
        <ele>198</ele>
        <time>2016-11-12T10:03:44Z</time>
      </trkpt>
      <trkpt lat="45.99748" lon="4.71216">
        <ele>198</ele>
        <time>2016-11-12T10:03:45Z</time>
      </trkpt>
      <trkpt lat="45.99752" lon="4.71208">
        <ele>198</ele>
        <time>2016-11-12T10:03:46Z</time>
      </trkpt>
      <trkpt lat="45.99755" lon="4.71202">
        <ele>198</ele>
        <time>2016-11-12T10:03:47Z</time>
      </trkpt>
      <trkpt lat="45.99758" lon="4.71195">
        <ele>198</ele>
        <time>2016-11-12T10:03:48Z</time>
      </trkpt>
      <trkpt lat="45.99761" lon="4.71189">
        <ele>198</ele>
        <time>2016-11-12T10:03:49Z</time>
      </trkpt>
      <trkpt lat="45.99765" lon="4.71182">
        <ele>198</ele>
        <time>2016-11-12T10:03:50Z</time>
      </trkpt>
      <trkpt lat="45.99768" lon="4.71175">
        <ele>198</ele>
        <time>2016-11-12T10:03:51Z</time>
      </trkpt>
      <trkpt lat="45.99771" lon="4.71169">
        <ele>198</ele>
        <time>2016-11-12T10:03:52Z</time>
      </trkpt>
      <trkpt lat="45.99775" lon="4.71162">
        <ele>198</ele>
        <time>2016-11-12T10:03:53Z</time>
      </trkpt>
      <trkpt lat="45.99778" lon="4.71155">
        <ele>198</ele>
        <time>2016-11-12T10:03:54Z</time>
      </trkpt>
      <trkpt lat="45.99782" lon="4.71148">
        <ele>198</ele>
        <time>2016-11-12T10:03:55Z</time>
      </trkpt>
      <trkpt lat="45.99786" lon="4.71142">
        <ele>198</ele>
        <time>2016-11-12T10:03:56Z</time>
      </trkpt>
      <trkpt lat="45.99789" lon="4.71135">
        <ele>198</ele>
        <time>2016-11-12T10:03:57Z</time>
      </trkpt>
      <trkpt lat="45.99792" lon="4.71128">
        <ele>198</ele>
        <time>2016-11-12T10:03:58Z</time>
      </trkpt>
      <trkpt lat="45.99794" lon="4.71122">
        <ele>198</ele>
        <time>2016-11-12T10:03:59Z</time>
      </trkpt>
      <trkpt lat="45.99796" lon="4.71115">
        <ele>198</ele>
        <time>2016-11-12T10:04:00Z</time>
      </trkpt>
      <trkpt lat="45.99798" lon="4.71108">
        <ele>198</ele>
        <time>2016-11-12T10:04:01Z</time>
      </trkpt>
      <trkpt lat="45.998" lon="4.71101">
        <ele>198</ele>
        <time>2016-11-12T10:04:02Z</time>
      </trkpt>
      <trkpt lat="45.99801" lon="4.71093">
        <ele>198</ele>
        <time>2016-11-12T10:04:03Z</time>
      </trkpt>
      <trkpt lat="45.99802" lon="4.71085">
        <ele>198</ele>
        <time>2016-11-12T10:04:04Z</time>
      </trkpt>
      <trkpt lat="45.99804" lon="4.71076">
        <ele>199</ele>
        <time>2016-11-12T10:04:05Z</time>
      </trkpt>
      <trkpt lat="45.99805" lon="4.71067">
        <ele>199</ele>
        <time>2016-11-12T10:04:06Z</time>
      </trkpt>
      <trkpt lat="45.99807" lon="4.71052">
        <ele>199</ele>
        <time>2016-11-12T10:04:08Z</time>
      </trkpt>
      <trkpt lat="45.99808" lon="4.71044">
        <ele>199</ele>
        <time>2016-11-12T10:04:09Z</time>
      </trkpt>
      <trkpt lat="45.99809" lon="4.71037">
        <ele>199</ele>
        <time>2016-11-12T10:04:10Z</time>
      </trkpt>
      <trkpt lat="45.99809" lon="4.7103">
        <ele>199</ele>
        <time>2016-11-12T10:04:11Z</time>
      </trkpt>
      <trkpt lat="45.99809" lon="4.7102">
        <ele>199</ele>
        <time>2016-11-12T10:04:12Z</time>
      </trkpt>
      <trkpt lat="45.99814" lon="4.70991">
        <ele>200</ele>
        <time>2016-11-12T10:04:16Z</time>
      </trkpt>
      <trkpt lat="45.99816" lon="4.70982">
        <ele>200</ele>
        <time>2016-11-12T10:04:17Z</time>
      </trkpt>
      <trkpt lat="45.99818" lon="4.70973">
        <ele>200</ele>
        <time>2016-11-12T10:04:18Z</time>
      </trkpt>
      <trkpt lat="45.99821" lon="4.70965">
        <ele>200</ele>
        <time>2016-11-12T10:04:19Z</time>
      </trkpt>
      <trkpt lat="45.99822" lon="4.70959">
        <ele>200</ele>
        <time>2016-11-12T10:04:20Z</time>
      </trkpt>
      <trkpt lat="45.99823" lon="4.70951">
        <ele>199</ele>
        <time>2016-11-12T10:04:21Z</time>
      </trkpt>
      <trkpt lat="45.99824" lon="4.70942">
        <ele>199</ele>
        <time>2016-11-12T10:04:22Z</time>
      </trkpt>
      <trkpt lat="45.99826" lon="4.70933">
        <ele>199</ele>
        <time>2016-11-12T10:04:23Z</time>
      </trkpt>
      <trkpt lat="45.99828" lon="4.70925">
        <ele>199</ele>
        <time>2016-11-12T10:04:24Z</time>
      </trkpt>
      <trkpt lat="45.9983" lon="4.70917">
        <ele>199</ele>
        <time>2016-11-12T10:04:25Z</time>
      </trkpt>
      <trkpt lat="45.99832" lon="4.70908">
        <ele>199</ele>
        <time>2016-11-12T10:04:26Z</time>
      </trkpt>
      <trkpt lat="45.99833" lon="4.70898">
        <ele>200</ele>
        <time>2016-11-12T10:04:27Z</time>
      </trkpt>
      <trkpt lat="45.99836" lon="4.70889">
        <ele>199</ele>
        <time>2016-11-12T10:04:28Z</time>
      </trkpt>
      <trkpt lat="45.99837" lon="4.70881">
        <ele>200</ele>
        <time>2016-11-12T10:04:29Z</time>
      </trkpt>
      <trkpt lat="45.99839" lon="4.70873">
        <ele>200</ele>
        <time>2016-11-12T10:04:30Z</time>
      </trkpt>
      <trkpt lat="45.99841" lon="4.70865">
        <ele>200</ele>
        <time>2016-11-12T10:04:31Z</time>
      </trkpt>
      <trkpt lat="45.99842" lon="4.70858">
        <ele>200</ele>
        <time>2016-11-12T10:04:32Z</time>
      </trkpt>
      <trkpt lat="45.99844" lon="4.7085">
        <ele>201</ele>
        <time>2016-11-12T10:04:33Z</time>
      </trkpt>
      <trkpt lat="45.99845" lon="4.70843">
        <ele>201</ele>
        <time>2016-11-12T10:04:34Z</time>
      </trkpt>
      <trkpt lat="45.99846" lon="4.70836">
        <ele>201</ele>
        <time>2016-11-12T10:04:35Z</time>
      </trkpt>
      <trkpt lat="45.99847" lon="4.70828">
        <ele>201</ele>
        <time>2016-11-12T10:04:36Z</time>
      </trkpt>
      <trkpt lat="45.99848" lon="4.70821">
        <ele>201</ele>
        <time>2016-11-12T10:04:37Z</time>
      </trkpt>
      <trkpt lat="45.99849" lon="4.70814">
        <ele>201</ele>
        <time>2016-11-12T10:04:38Z</time>
      </trkpt>
      <trkpt lat="45.9985" lon="4.70807">
        <ele>201</ele>
        <time>2016-11-12T10:04:39Z</time>
      </trkpt>
      <trkpt lat="45.99852" lon="4.70799">
        <ele>201</ele>
        <time>2016-11-12T10:04:40Z</time>
      </trkpt>
      <trkpt lat="45.99854" lon="4.70791">
        <ele>201</ele>
        <time>2016-11-12T10:04:41Z</time>
      </trkpt>
      <trkpt lat="45.99856" lon="4.70783">
        <ele>200</ele>
        <time>2016-11-12T10:04:42Z</time>
      </trkpt>
      <trkpt lat="45.99857" lon="4.70775">
        <ele>200</ele>
        <time>2016-11-12T10:04:43Z</time>
      </trkpt>
      <trkpt lat="45.99859" lon="4.70767">
        <ele>200</ele>
        <time>2016-11-12T10:04:44Z</time>
      </trkpt>
      <trkpt lat="45.99861" lon="4.70759">
        <ele>200</ele>
        <time>2016-11-12T10:04:45Z</time>
      </trkpt>
      <trkpt lat="45.99862" lon="4.70751">
        <ele>200</ele>
        <time>2016-11-12T10:04:46Z</time>
      </trkpt>
      <trkpt lat="45.99865" lon="4.70735">
        <ele>200</ele>
        <time>2016-11-12T10:04:48Z</time>
      </trkpt>
      <trkpt lat="45.99867" lon="4.70727">
        <ele>200</ele>
        <time>2016-11-12T10:04:49Z</time>
      </trkpt>
      <trkpt lat="45.99869" lon="4.70718">
        <ele>200</ele>
        <time>2016-11-12T10:04:50Z</time>
      </trkpt>
      <trkpt lat="45.9987" lon="4.7071">
        <ele>200</ele>
        <time>2016-11-12T10:04:51Z</time>
      </trkpt>
      <trkpt lat="45.9987" lon="4.70703">
        <ele>200</ele>
        <time>2016-11-12T10:04:52Z</time>
      </trkpt>
      <trkpt lat="45.99871" lon="4.70696">
        <ele>200</ele>
        <time>2016-11-12T10:04:53Z</time>
      </trkpt>
      <trkpt lat="45.99872" lon="4.70689">
        <ele>200</ele>
        <time>2016-11-12T10:04:54Z</time>
      </trkpt>
      <trkpt lat="45.99874" lon="4.70682">
        <ele>200</ele>
        <time>2016-11-12T10:04:55Z</time>
      </trkpt>
      <trkpt lat="45.99875" lon="4.70675">
        <ele>200</ele>
        <time>2016-11-12T10:04:56Z</time>
      </trkpt>
      <trkpt lat="45.99876" lon="4.70668">
        <ele>200</ele>
        <time>2016-11-12T10:04:57Z</time>
      </trkpt>
      <trkpt lat="45.99878" lon="4.70662">
        <ele>200</ele>
        <time>2016-11-12T10:04:58Z</time>
      </trkpt>
      <trkpt lat="45.9988" lon="4.70655">
        <ele>200</ele>
        <time>2016-11-12T10:04:59Z</time>
      </trkpt>
      <trkpt lat="45.99883" lon="4.7065">
        <ele>200</ele>
        <time>2016-11-12T10:05:00Z</time>
      </trkpt>
      <trkpt lat="45.99888" lon="4.70648">
        <ele>200</ele>
        <time>2016-11-12T10:05:01Z</time>
      </trkpt>
      <trkpt lat="45.99893" lon="4.70645">
        <ele>200</ele>
        <time>2016-11-12T10:05:02Z</time>
      </trkpt>
      <trkpt lat="45.99898" lon="4.70645">
        <ele>200</ele>
        <time>2016-11-12T10:05:03Z</time>
      </trkpt>
      <trkpt lat="45.99903" lon="4.70644">
        <ele>200</ele>
        <time>2016-11-12T10:05:04Z</time>
      </trkpt>
      <trkpt lat="45.99908" lon="4.70644">
        <ele>200</ele>
        <time>2016-11-12T10:05:05Z</time>
      </trkpt>
      <trkpt lat="45.99914" lon="4.70643">
        <ele>200</ele>
        <time>2016-11-12T10:05:06Z</time>
      </trkpt>
      <trkpt lat="45.99919" lon="4.70641">
        <ele>199</ele>
        <time>2016-11-12T10:05:07Z</time>
      </trkpt>
      <trkpt lat="45.99925" lon="4.7064">
        <ele>199</ele>
        <time>2016-11-12T10:05:08Z</time>
      </trkpt>
      <trkpt lat="45.99931" lon="4.70639">
        <ele>199</ele>
        <time>2016-11-12T10:05:09Z</time>
      </trkpt>
      <trkpt lat="45.99937" lon="4.70638">
        <ele>199</ele>
        <time>2016-11-12T10:05:10Z</time>
      </trkpt>
      <trkpt lat="45.99943" lon="4.70636">
        <ele>199</ele>
        <time>2016-11-12T10:05:11Z</time>
      </trkpt>
      <trkpt lat="45.99949" lon="4.70634">
        <ele>199</ele>
        <time>2016-11-12T10:05:12Z</time>
      </trkpt>
      <trkpt lat="45.99955" lon="4.70633">
        <ele>199</ele>
        <time>2016-11-12T10:05:13Z</time>
      </trkpt>
      <trkpt lat="45.99961" lon="4.70632">
        <ele>199</ele>
        <time>2016-11-12T10:05:14Z</time>
      </trkpt>
      <trkpt lat="45.99968" lon="4.7063">
        <ele>199</ele>
        <time>2016-11-12T10:05:15Z</time>
      </trkpt>
      <trkpt lat="45.99973" lon="4.70629">
        <ele>199</ele>
        <time>2016-11-12T10:05:16Z</time>
      </trkpt>
      <trkpt lat="45.99979" lon="4.70627">
        <ele>199</ele>
        <time>2016-11-12T10:05:17Z</time>
      </trkpt>
      <trkpt lat="45.99984" lon="4.70626">
        <ele>199</ele>
        <time>2016-11-12T10:05:18Z</time>
      </trkpt>
      <trkpt lat="45.9999" lon="4.70625">
        <ele>199</ele>
        <time>2016-11-12T10:05:19Z</time>
      </trkpt>
      <trkpt lat="45.99995" lon="4.70623">
        <ele>199</ele>
        <time>2016-11-12T10:05:20Z</time>
      </trkpt>
      <trkpt lat="46.00001" lon="4.70622">
        <ele>199</ele>
        <time>2016-11-12T10:05:21Z</time>
      </trkpt>
      <trkpt lat="46.00006" lon="4.70621">
        <ele>199</ele>
        <time>2016-11-12T10:05:22Z</time>
      </trkpt>
      <trkpt lat="46.00011" lon="4.7062">
        <ele>199</ele>
        <time>2016-11-12T10:05:23Z</time>
      </trkpt>
      <trkpt lat="46.00018" lon="4.70619">
        <ele>199</ele>
        <time>2016-11-12T10:05:24Z</time>
      </trkpt>
      <trkpt lat="46.00024" lon="4.70617">
        <ele>199</ele>
        <time>2016-11-12T10:05:25Z</time>
      </trkpt>
      <trkpt lat="46.0003" lon="4.70615">
        <ele>199</ele>
        <time>2016-11-12T10:05:26Z</time>
      </trkpt>
      <trkpt lat="46.00037" lon="4.70614">
        <ele>199</ele>
        <time>2016-11-12T10:05:27Z</time>
      </trkpt>
      <trkpt lat="46.00043" lon="4.70612">
        <ele>198</ele>
        <time>2016-11-12T10:05:28Z</time>
      </trkpt>
      <trkpt lat="46.00049" lon="4.70611">
        <ele>198</ele>
        <time>2016-11-12T10:05:29Z</time>
      </trkpt>
      <trkpt lat="46.00055" lon="4.7061">
        <ele>198</ele>
        <time>2016-11-12T10:05:30Z</time>
      </trkpt>
      <trkpt lat="46.00061" lon="4.70609">
        <ele>198</ele>
        <time>2016-11-12T10:05:31Z</time>
      </trkpt>
      <trkpt lat="46.00066" lon="4.70607">
        <ele>198</ele>
        <time>2016-11-12T10:05:32Z</time>
      </trkpt>
      <trkpt lat="46.00071" lon="4.70606">
        <ele>198</ele>
        <time>2016-11-12T10:05:33Z</time>
      </trkpt>
      <trkpt lat="46.00076" lon="4.70603">
        <ele>198</ele>
        <time>2016-11-12T10:05:34Z</time>
      </trkpt>
      <trkpt lat="46.00081" lon="4.70601">
        <ele>198</ele>
        <time>2016-11-12T10:05:35Z</time>
      </trkpt>
      <trkpt lat="46.00087" lon="4.70599">
        <ele>198</ele>
        <time>2016-11-12T10:05:36Z</time>
      </trkpt>
      <trkpt lat="46.00092" lon="4.70596">
        <ele>198</ele>
        <time>2016-11-12T10:05:37Z</time>
      </trkpt>
      <trkpt lat="46.00097" lon="4.70594">
        <ele>198</ele>
        <time>2016-11-12T10:05:38Z</time>
      </trkpt>
      <trkpt lat="46.00102" lon="4.70591">
        <ele>198</ele>
        <time>2016-11-12T10:05:39Z</time>
      </trkpt>
      <trkpt lat="46.00107" lon="4.70587">
        <ele>198</ele>
        <time>2016-11-12T10:05:40Z</time>
      </trkpt>
      <trkpt lat="46.00112" lon="4.70584">
        <ele>198</ele>
        <time>2016-11-12T10:05:41Z</time>
      </trkpt>
      <trkpt lat="46.00117" lon="4.7058">
        <ele>198</ele>
        <time>2016-11-12T10:05:42Z</time>
      </trkpt>
      <trkpt lat="46.00122" lon="4.70576">
        <ele>198</ele>
        <time>2016-11-12T10:05:43Z</time>
      </trkpt>
      <trkpt lat="46.00127" lon="4.70571">
        <ele>198</ele>
        <time>2016-11-12T10:05:44Z</time>
      </trkpt>
      <trkpt lat="46.00131" lon="4.70567">
        <ele>198</ele>
        <time>2016-11-12T10:05:45Z</time>
      </trkpt>
      <trkpt lat="46.00136" lon="4.70564">
        <ele>198</ele>
        <time>2016-11-12T10:05:46Z</time>
      </trkpt>
      <trkpt lat="46.00141" lon="4.70562">
        <ele>198</ele>
        <time>2016-11-12T10:05:47Z</time>
      </trkpt>
      <trkpt lat="46.00147" lon="4.7056">
        <ele>198</ele>
        <time>2016-11-12T10:05:48Z</time>
      </trkpt>
      <trkpt lat="46.00152" lon="4.70559">
        <ele>198</ele>
        <time>2016-11-12T10:05:49Z</time>
      </trkpt>
      <trkpt lat="46.00156" lon="4.70557">
        <ele>198</ele>
        <time>2016-11-12T10:05:50Z</time>
      </trkpt>
      <trkpt lat="46.00161" lon="4.70553">
        <ele>198</ele>
        <time>2016-11-12T10:05:51Z</time>
      </trkpt>
      <trkpt lat="46.00166" lon="4.7055">
        <ele>198</ele>
        <time>2016-11-12T10:05:52Z</time>
      </trkpt>
      <trkpt lat="46.00171" lon="4.70546">
        <ele>198</ele>
        <time>2016-11-12T10:05:53Z</time>
      </trkpt>
      <trkpt lat="46.00176" lon="4.70543">
        <ele>198</ele>
        <time>2016-11-12T10:05:54Z</time>
      </trkpt>
      <trkpt lat="46.00181" lon="4.70542">
        <ele>198</ele>
        <time>2016-11-12T10:05:55Z</time>
      </trkpt>
      <trkpt lat="46.00186" lon="4.70541">
        <ele>198</ele>
        <time>2016-11-12T10:05:56Z</time>
      </trkpt>
      <trkpt lat="46.00192" lon="4.7054">
        <ele>198</ele>
        <time>2016-11-12T10:05:57Z</time>
      </trkpt>
      <trkpt lat="46.00198" lon="4.7054">
        <ele>198</ele>
        <time>2016-11-12T10:05:58Z</time>
      </trkpt>
      <trkpt lat="46.00204" lon="4.70539">
        <ele>198</ele>
        <time>2016-11-12T10:05:59Z</time>
      </trkpt>
      <trkpt lat="46.0021" lon="4.70538">
        <ele>198</ele>
        <time>2016-11-12T10:06:00Z</time>
      </trkpt>
      <trkpt lat="46.00216" lon="4.70536">
        <ele>198</ele>
        <time>2016-11-12T10:06:01Z</time>
      </trkpt>
      <trkpt lat="46.00222" lon="4.70534">
        <ele>198</ele>
        <time>2016-11-12T10:06:02Z</time>
      </trkpt>
      <trkpt lat="46.00227" lon="4.70532">
        <ele>198</ele>
        <time>2016-11-12T10:06:03Z</time>
      </trkpt>
      <trkpt lat="46.00233" lon="4.70531">
        <ele>198</ele>
        <time>2016-11-12T10:06:04Z</time>
      </trkpt>
      <trkpt lat="46.00238" lon="4.70528">
        <ele>198</ele>
        <time>2016-11-12T10:06:05Z</time>
      </trkpt>
      <trkpt lat="46.00243" lon="4.70526">
        <ele>198</ele>
        <time>2016-11-12T10:06:06Z</time>
      </trkpt>
      <trkpt lat="46.00248" lon="4.70525">
        <ele>198</ele>
        <time>2016-11-12T10:06:07Z</time>
      </trkpt>
      <trkpt lat="46.00253" lon="4.70524">
        <ele>197</ele>
        <time>2016-11-12T10:06:08Z</time>
      </trkpt>
      <trkpt lat="46.00258" lon="4.70523">
        <ele>197</ele>
        <time>2016-11-12T10:06:09Z</time>
      </trkpt>
      <trkpt lat="46.00263" lon="4.70522">
        <ele>197</ele>
        <time>2016-11-12T10:06:10Z</time>
      </trkpt>
      <trkpt lat="46.00269" lon="4.7052">
        <ele>197</ele>
        <time>2016-11-12T10:06:11Z</time>
      </trkpt>
      <trkpt lat="46.00274" lon="4.70519">
        <ele>197</ele>
        <time>2016-11-12T10:06:12Z</time>
      </trkpt>
      <trkpt lat="46.0028" lon="4.70518">
        <ele>197</ele>
        <time>2016-11-12T10:06:13Z</time>
      </trkpt>
      <trkpt lat="46.00285" lon="4.70517">
        <ele>197</ele>
        <time>2016-11-12T10:06:14Z</time>
      </trkpt>
      <trkpt lat="46.00291" lon="4.70516">
        <ele>197</ele>
        <time>2016-11-12T10:06:15Z</time>
      </trkpt>
      <trkpt lat="46.00296" lon="4.70515">
        <ele>197</ele>
        <time>2016-11-12T10:06:16Z</time>
      </trkpt>
      <trkpt lat="46.00302" lon="4.70514">
        <ele>197</ele>
        <time>2016-11-12T10:06:17Z</time>
      </trkpt>
      <trkpt lat="46.00308" lon="4.70512">
        <ele>197</ele>
        <time>2016-11-12T10:06:18Z</time>
      </trkpt>
      <trkpt lat="46.00313" lon="4.70511">
        <ele>197</ele>
        <time>2016-11-12T10:06:19Z</time>
      </trkpt>
      <trkpt lat="46.00317" lon="4.7051">
        <ele>197</ele>
        <time>2016-11-12T10:06:20Z</time>
      </trkpt>
      <trkpt lat="46.00321" lon="4.7051">
        <ele>198</ele>
        <time>2016-11-12T10:06:21Z</time>
      </trkpt>
      <trkpt lat="46.00326" lon="4.70509">
        <ele>198</ele>
        <time>2016-11-12T10:06:22Z</time>
      </trkpt>
      <trkpt lat="46.00332" lon="4.70508">
        <ele>198</ele>
        <time>2016-11-12T10:06:23Z</time>
      </trkpt>
      <trkpt lat="46.00337" lon="4.70507">
        <ele>198</ele>
        <time>2016-11-12T10:06:24Z</time>
      </trkpt>
      <trkpt lat="46.00342" lon="4.70506">
        <ele>198</ele>
        <time>2016-11-12T10:06:25Z</time>
      </trkpt>
      <trkpt lat="46.00347" lon="4.70505">
        <ele>198</ele>
        <time>2016-11-12T10:06:26Z</time>
      </trkpt>
      <trkpt lat="46.00352" lon="4.70504">
        <ele>198</ele>
        <time>2016-11-12T10:06:27Z</time>
      </trkpt>
      <trkpt lat="46.00357" lon="4.70503">
        <ele>198</ele>
        <time>2016-11-12T10:06:28Z</time>
      </trkpt>
      <trkpt lat="46.00362" lon="4.70502">
        <ele>198</ele>
        <time>2016-11-12T10:06:29Z</time>
      </trkpt>
      <trkpt lat="46.00367" lon="4.70501">
        <ele>198</ele>
        <time>2016-11-12T10:06:30Z</time>
      </trkpt>
      <trkpt lat="46.00372" lon="4.705">
        <ele>200</ele>
        <time>2016-11-12T10:06:31Z</time>
      </trkpt>
      <trkpt lat="46.00377" lon="4.70498">
        <ele>200</ele>
        <time>2016-11-12T10:06:32Z</time>
      </trkpt>
      <trkpt lat="46.00382" lon="4.70498">
        <ele>200</ele>
        <time>2016-11-12T10:06:33Z</time>
      </trkpt>
      <trkpt lat="46.00386" lon="4.70498">
        <ele>200</ele>
        <time>2016-11-12T10:06:34Z</time>
      </trkpt>
      <trkpt lat="46.00392" lon="4.70498">
        <ele>200</ele>
        <time>2016-11-12T10:06:35Z</time>
      </trkpt>
      <trkpt lat="46.00397" lon="4.70497">
        <ele>200</ele>
        <time>2016-11-12T10:06:36Z</time>
      </trkpt>
      <trkpt lat="46.00402" lon="4.70497">
        <ele>200</ele>
        <time>2016-11-12T10:06:37Z</time>
      </trkpt>
      <trkpt lat="46.00408" lon="4.70497">
        <ele>200</ele>
        <time>2016-11-12T10:06:38Z</time>
      </trkpt>
      <trkpt lat="46.00413" lon="4.70497">
        <ele>200</ele>
        <time>2016-11-12T10:06:39Z</time>
      </trkpt>
      <trkpt lat="46.00418" lon="4.70498">
        <ele>200</ele>
        <time>2016-11-12T10:06:40Z</time>
      </trkpt>
      <trkpt lat="46.00423" lon="4.70498">
        <ele>201</ele>
        <time>2016-11-12T10:06:41Z</time>
      </trkpt>
      <trkpt lat="46.00428" lon="4.70499">
        <ele>201</ele>
        <time>2016-11-12T10:06:42Z</time>
      </trkpt>
      <trkpt lat="46.00434" lon="4.705">
        <ele>202</ele>
        <time>2016-11-12T10:06:43Z</time>
      </trkpt>
      <trkpt lat="46.00439" lon="4.705">
        <ele>200</ele>
        <time>2016-11-12T10:06:44Z</time>
      </trkpt>
      <trkpt lat="46.00444" lon="4.70501">
        <ele>200</ele>
        <time>2016-11-12T10:06:45Z</time>
      </trkpt>
      <trkpt lat="46.00449" lon="4.70503">
        <ele>201</ele>
        <time>2016-11-12T10:06:46Z</time>
      </trkpt>
      <trkpt lat="46.00457" lon="4.70507">
        <ele>201</ele>
        <time>2016-11-12T10:06:48Z</time>
      </trkpt>
      <trkpt lat="46.0046" lon="4.70511">
        <ele>201</ele>
        <time>2016-11-12T10:06:49Z</time>
      </trkpt>
      <trkpt lat="46.00463" lon="4.70516">
        <ele>201</ele>
        <time>2016-11-12T10:06:50Z</time>
      </trkpt>
      <trkpt lat="46.00466" lon="4.70521">
        <ele>201</ele>
        <time>2016-11-12T10:06:51Z</time>
      </trkpt>
      <trkpt lat="46.00469" lon="4.70533">
        <ele>201</ele>
        <time>2016-11-12T10:06:53Z</time>
      </trkpt>
      <trkpt lat="46.00472" lon="4.70539">
        <ele>201</ele>
        <time>2016-11-12T10:06:54Z</time>
      </trkpt>
      <trkpt lat="46.00475" lon="4.70544">
        <ele>201</ele>
        <time>2016-11-12T10:06:55Z</time>
      </trkpt>
      <trkpt lat="46.0048" lon="4.70548">
        <ele>201</ele>
        <time>2016-11-12T10:06:56Z</time>
      </trkpt>
      <trkpt lat="46.00484" lon="4.70549">
        <ele>201</ele>
        <time>2016-11-12T10:06:57Z</time>
      </trkpt>
      <trkpt lat="46.00489" lon="4.70548">
        <ele>201</ele>
        <time>2016-11-12T10:06:58Z</time>
      </trkpt>
      <trkpt lat="46.00496" lon="4.70541">
        <ele>201</ele>
        <time>2016-11-12T10:07:00Z</time>
      </trkpt>
      <trkpt lat="46.00499" lon="4.70536">
        <ele>201</ele>
        <time>2016-11-12T10:07:01Z</time>
      </trkpt>
      <trkpt lat="46.00502" lon="4.7053">
        <ele>203</ele>
        <time>2016-11-12T10:07:02Z</time>
      </trkpt>
      <trkpt lat="46.00505" lon="4.70525">
        <ele>203</ele>
        <time>2016-11-12T10:07:03Z</time>
      </trkpt>
      <trkpt lat="46.00512" lon="4.70517">
        <ele>204</ele>
        <time>2016-11-12T10:07:05Z</time>
      </trkpt>
      <trkpt lat="46.00516" lon="4.70515">
        <ele>204</ele>
        <time>2016-11-12T10:07:06Z</time>
      </trkpt>
      <trkpt lat="46.00521" lon="4.70515">
        <ele>204</ele>
        <time>2016-11-12T10:07:07Z</time>
      </trkpt>
      <trkpt lat="46.00526" lon="4.70516">
        <ele>204</ele>
        <time>2016-11-12T10:07:08Z</time>
      </trkpt>
      <trkpt lat="46.00531" lon="4.70517">
        <ele>204</ele>
        <time>2016-11-12T10:07:09Z</time>
      </trkpt>
      <trkpt lat="46.00536" lon="4.70517">
        <ele>204</ele>
        <time>2016-11-12T10:07:10Z</time>
      </trkpt>
      <trkpt lat="46.0054" lon="4.70517">
        <ele>204</ele>
        <time>2016-11-12T10:07:11Z</time>
      </trkpt>
      <trkpt lat="46.00545" lon="4.70517">
        <ele>204</ele>
        <time>2016-11-12T10:07:12Z</time>
      </trkpt>
      <trkpt lat="46.0055" lon="4.70517">
        <ele>204</ele>
        <time>2016-11-12T10:07:13Z</time>
      </trkpt>
      <trkpt lat="46.00555" lon="4.70517">
        <ele>204</ele>
        <time>2016-11-12T10:07:14Z</time>
      </trkpt>
      <trkpt lat="46.0056" lon="4.70516">
        <ele>204</ele>
        <time>2016-11-12T10:07:15Z</time>
      </trkpt>
      <trkpt lat="46.00565" lon="4.70515">
        <ele>205</ele>
        <time>2016-11-12T10:07:16Z</time>
      </trkpt>
      <trkpt lat="46.00572" lon="4.70513">
        <ele>205</ele>
        <time>2016-11-12T10:07:18Z</time>
      </trkpt>
      <trkpt lat="46.00577" lon="4.70511">
        <ele>205</ele>
        <time>2016-11-12T10:07:19Z</time>
      </trkpt>
      <trkpt lat="46.00582" lon="4.7051">
        <ele>206</ele>
        <time>2016-11-12T10:07:20Z</time>
      </trkpt>
      <trkpt lat="46.00586" lon="4.70507">
        <ele>207</ele>
        <time>2016-11-12T10:07:21Z</time>
      </trkpt>
      <trkpt lat="46.0059" lon="4.70504">
        <ele>207</ele>
        <time>2016-11-12T10:07:22Z</time>
      </trkpt>
      <trkpt lat="46.00594" lon="4.70501">
        <ele>207</ele>
        <time>2016-11-12T10:07:23Z</time>
      </trkpt>
      <trkpt lat="46.00603" lon="4.70498">
        <ele>209</ele>
        <time>2016-11-12T10:07:25Z</time>
      </trkpt>
      <trkpt lat="46.00607" lon="4.70496">
        <ele>210</ele>
        <time>2016-11-12T10:07:26Z</time>
      </trkpt>
      <trkpt lat="46.00616" lon="4.70494">
        <ele>210</ele>
        <time>2016-11-12T10:07:28Z</time>
      </trkpt>
      <trkpt lat="46.0062" lon="4.70493">
        <ele>210</ele>
        <time>2016-11-12T10:07:29Z</time>
      </trkpt>
      <trkpt lat="46.00629" lon="4.70492">
        <ele>211</ele>
        <time>2016-11-12T10:07:31Z</time>
      </trkpt>
      <trkpt lat="46.00633" lon="4.70492">
        <ele>211</ele>
        <time>2016-11-12T10:07:32Z</time>
      </trkpt>
      <trkpt lat="46.00638" lon="4.70492">
        <ele>211</ele>
        <time>2016-11-12T10:07:33Z</time>
      </trkpt>
      <trkpt lat="46.00644" lon="4.70492">
        <ele>211</ele>
        <time>2016-11-12T10:07:34Z</time>
      </trkpt>
      <trkpt lat="46.00649" lon="4.70492">
        <ele>211</ele>
        <time>2016-11-12T10:07:35Z</time>
      </trkpt>
      <trkpt lat="46.00654" lon="4.70494">
        <ele>212</ele>
        <time>2016-11-12T10:07:36Z</time>
      </trkpt>
      <trkpt lat="46.00659" lon="4.70494">
        <ele>212</ele>
        <time>2016-11-12T10:07:37Z</time>
      </trkpt>
      <trkpt lat="46.00664" lon="4.70495">
        <ele>212</ele>
        <time>2016-11-12T10:07:38Z</time>
      </trkpt>
      <trkpt lat="46.00669" lon="4.70496">
        <ele>212</ele>
        <time>2016-11-12T10:07:39Z</time>
      </trkpt>
      <trkpt lat="46.00673" lon="4.70497">
        <ele>212</ele>
        <time>2016-11-12T10:07:40Z</time>
      </trkpt>
      <trkpt lat="46.00678" lon="4.70497">
        <ele>212</ele>
        <time>2016-11-12T10:07:41Z</time>
      </trkpt>
      <trkpt lat="46.00683" lon="4.70498">
        <ele>211</ele>
        <time>2016-11-12T10:07:42Z</time>
      </trkpt>
      <trkpt lat="46.00688" lon="4.70499">
        <ele>211</ele>
        <time>2016-11-12T10:07:43Z</time>
      </trkpt>
      <trkpt lat="46.00693" lon="4.705">
        <ele>211</ele>
        <time>2016-11-12T10:07:44Z</time>
      </trkpt>
      <trkpt lat="46.00698" lon="4.705">
        <ele>208</ele>
        <time>2016-11-12T10:07:45Z</time>
      </trkpt>
      <trkpt lat="46.00703" lon="4.70501">
        <ele>208</ele>
        <time>2016-11-12T10:07:46Z</time>
      </trkpt>
      <trkpt lat="46.00707" lon="4.70502">
        <ele>208</ele>
        <time>2016-11-12T10:07:47Z</time>
      </trkpt>
      <trkpt lat="46.00713" lon="4.70503">
        <ele>207</ele>
        <time>2016-11-12T10:07:48Z</time>
      </trkpt>
      <trkpt lat="46.00718" lon="4.70505">
        <ele>207</ele>
        <time>2016-11-12T10:07:49Z</time>
      </trkpt>
      <trkpt lat="46.00723" lon="4.70507">
        <ele>207</ele>
        <time>2016-11-12T10:07:50Z</time>
      </trkpt>
      <trkpt lat="46.00732" lon="4.70509">
        <ele>207</ele>
        <time>2016-11-12T10:07:52Z</time>
      </trkpt>
      <trkpt lat="46.00736" lon="4.70509">
        <ele>207</ele>
        <time>2016-11-12T10:07:53Z</time>
      </trkpt>
      <trkpt lat="46.00744" lon="4.70508">
        <ele>207</ele>
        <time>2016-11-12T10:07:55Z</time>
      </trkpt>
      <trkpt lat="46.00748" lon="4.70507">
        <ele>208</ele>
        <time>2016-11-12T10:07:56Z</time>
      </trkpt>
      <trkpt lat="46.00757" lon="4.70501">
        <ele>207</ele>
        <time>2016-11-12T10:07:58Z</time>
      </trkpt>
      <trkpt lat="46.0076" lon="4.70497">
        <ele>208</ele>
        <time>2016-11-12T10:07:59Z</time>
      </trkpt>
      <trkpt lat="46.00764" lon="4.70493">
        <ele>208</ele>
        <time>2016-11-12T10:08:00Z</time>
      </trkpt>
      <trkpt lat="46.00767" lon="4.70488">
        <ele>208</ele>
        <time>2016-11-12T10:08:01Z</time>
      </trkpt>
      <trkpt lat="46.00775" lon="4.70483">
        <ele>208</ele>
        <time>2016-11-12T10:08:03Z</time>
      </trkpt>
      <trkpt lat="46.00779" lon="4.70482">
        <ele>208</ele>
        <time>2016-11-12T10:08:04Z</time>
      </trkpt>
      <trkpt lat="46.00788" lon="4.70479">
        <ele>208</ele>
        <time>2016-11-12T10:08:06Z</time>
      </trkpt>
      <trkpt lat="46.00792" lon="4.70477">
        <ele>208</ele>
        <time>2016-11-12T10:08:07Z</time>
      </trkpt>
      <trkpt lat="46.00799" lon="4.70475">
        <ele>208</ele>
        <time>2016-11-12T10:08:09Z</time>
      </trkpt>
      <trkpt lat="46.00801" lon="4.70474">
        <ele>208</ele>
        <time>2016-11-12T10:08:10Z</time>
      </trkpt>
      <trkpt lat="46.00803" lon="4.70475">
        <ele>208</ele>
        <time>2016-11-12T10:08:11Z</time>
      </trkpt>
      <trkpt lat="46.00804" lon="4.70475">
        <ele>208</ele>
        <time>2016-11-12T10:08:12Z</time>
      </trkpt>
      <trkpt lat="46.00804" lon="4.70477">
        <ele>208</ele>
        <time>2016-11-12T10:08:21Z</time>
      </trkpt>
      <trkpt lat="46.00804" lon="4.70477">
        <ele>208</ele>
        <time>2016-11-12T10:08:22Z</time>
      </trkpt>
      <trkpt lat="46.00803" lon="4.70477">
        <ele>208</ele>
        <time>2016-11-12T10:09:57Z</time>
      </trkpt>
      <trkpt lat="46.00804" lon="4.70475">
        <ele>208</ele>
        <time>2016-11-12T10:09:58Z</time>
      </trkpt>
      <trkpt lat="46.00804" lon="4.70474">
        <ele>208</ele>
        <time>2016-11-12T10:09:59Z</time>
      </trkpt>
      <trkpt lat="46.00806" lon="4.70473">
        <ele>208</ele>
        <time>2016-11-12T10:10:00Z</time>
      </trkpt>
      <trkpt lat="46.00813" lon="4.70469">
        <ele>208</ele>
        <time>2016-11-12T10:10:03Z</time>
      </trkpt>
      <trkpt lat="46.00816" lon="4.70467">
        <ele>208</ele>
        <time>2016-11-12T10:10:04Z</time>
      </trkpt>
      <trkpt lat="46.00822" lon="4.70463">
        <ele>208</ele>
        <time>2016-11-12T10:10:06Z</time>
      </trkpt>
      <trkpt lat="46.00826" lon="4.7046">
        <ele>208</ele>
        <time>2016-11-12T10:10:07Z</time>
      </trkpt>
      <trkpt lat="46.0083" lon="4.70457">
        <ele>208</ele>
        <time>2016-11-12T10:10:08Z</time>
      </trkpt>
      <trkpt lat="46.00835" lon="4.70455">
        <ele>207</ele>
        <time>2016-11-12T10:10:09Z</time>
      </trkpt>
      <trkpt lat="46.00839" lon="4.70452">
        <ele>207</ele>
        <time>2016-11-12T10:10:10Z</time>
      </trkpt>
      <trkpt lat="46.00844" lon="4.70449">
        <ele>207</ele>
        <time>2016-11-12T10:10:11Z</time>
      </trkpt>
      <trkpt lat="46.0085" lon="4.70447">
        <ele>207</ele>
        <time>2016-11-12T10:10:12Z</time>
      </trkpt>
      <trkpt lat="46.00855" lon="4.70444">
        <ele>207</ele>
        <time>2016-11-12T10:10:13Z</time>
      </trkpt>
      <trkpt lat="46.0086" lon="4.7044">
        <ele>207</ele>
        <time>2016-11-12T10:10:14Z</time>
      </trkpt>
      <trkpt lat="46.00866" lon="4.70437">
        <ele>207</ele>
        <time>2016-11-12T10:10:15Z</time>
      </trkpt>
      <trkpt lat="46.00871" lon="4.70433">
        <ele>207</ele>
        <time>2016-11-12T10:10:16Z</time>
      </trkpt>
      <trkpt lat="46.00876" lon="4.70429">
        <ele>207</ele>
        <time>2016-11-12T10:10:17Z</time>
      </trkpt>
      <trkpt lat="46.0088" lon="4.70425">
        <ele>206</ele>
        <time>2016-11-12T10:10:18Z</time>
      </trkpt>
      <trkpt lat="46.00884" lon="4.70421">
        <ele>206</ele>
        <time>2016-11-12T10:10:19Z</time>
      </trkpt>
      <trkpt lat="46.00889" lon="4.70417">
        <ele>206</ele>
        <time>2016-11-12T10:10:20Z</time>
      </trkpt>
      <trkpt lat="46.00893" lon="4.70413">
        <ele>210</ele>
        <time>2016-11-12T10:10:21Z</time>
      </trkpt>
      <trkpt lat="46.00896" lon="4.70409">
        <ele>210</ele>
        <time>2016-11-12T10:10:22Z</time>
      </trkpt>
      <trkpt lat="46.00899" lon="4.70404">
        <ele>210</ele>
        <time>2016-11-12T10:10:23Z</time>
      </trkpt>
      <trkpt lat="46.00903" lon="4.704">
        <ele>210</ele>
        <time>2016-11-12T10:10:24Z</time>
      </trkpt>
      <trkpt lat="46.00907" lon="4.70396">
        <ele>210</ele>
        <time>2016-11-12T10:10:25Z</time>
      </trkpt>
      <trkpt lat="46.00911" lon="4.70391">
        <ele>210</ele>
        <time>2016-11-12T10:10:26Z</time>
      </trkpt>
      <trkpt lat="46.00914" lon="4.70387">
        <ele>211</ele>
        <time>2016-11-12T10:10:27Z</time>
      </trkpt>
      <trkpt lat="46.00918" lon="4.70382">
        <ele>208</ele>
        <time>2016-11-12T10:10:28Z</time>
      </trkpt>
      <trkpt lat="46.00921" lon="4.70378">
        <ele>208</ele>
        <time>2016-11-12T10:10:29Z</time>
      </trkpt>
      <trkpt lat="46.00925" lon="4.70374">
        <ele>208</ele>
        <time>2016-11-12T10:10:30Z</time>
      </trkpt>
      <trkpt lat="46.00928" lon="4.70369">
        <ele>209</ele>
        <time>2016-11-12T10:10:31Z</time>
      </trkpt>
      <trkpt lat="46.00933" lon="4.70364">
        <ele>209</ele>
        <time>2016-11-12T10:10:32Z</time>
      </trkpt>
      <trkpt lat="46.00936" lon="4.70359">
        <ele>209</ele>
        <time>2016-11-12T10:10:33Z</time>
      </trkpt>
      <trkpt lat="46.00939" lon="4.70354">
        <ele>209</ele>
        <time>2016-11-12T10:10:34Z</time>
      </trkpt>
      <trkpt lat="46.00943" lon="4.70348">
        <ele>209</ele>
        <time>2016-11-12T10:10:35Z</time>
      </trkpt>
      <trkpt lat="46.00946" lon="4.70342">
        <ele>209</ele>
        <time>2016-11-12T10:10:36Z</time>
      </trkpt>
      <trkpt lat="46.00949" lon="4.70336">
        <ele>209</ele>
        <time>2016-11-12T10:10:37Z</time>
      </trkpt>
      <trkpt lat="46.00952" lon="4.70329">
        <ele>212</ele>
        <time>2016-11-12T10:10:38Z</time>
      </trkpt>
      <trkpt lat="46.00955" lon="4.70322">
        <ele>212</ele>
        <time>2016-11-12T10:10:39Z</time>
      </trkpt>
      <trkpt lat="46.00958" lon="4.70315">
        <ele>211</ele>
        <time>2016-11-12T10:10:40Z</time>
      </trkpt>
      <trkpt lat="46.00961" lon="4.70309">
        <ele>211</ele>
        <time>2016-11-12T10:10:41Z</time>
      </trkpt>
      <trkpt lat="46.00964" lon="4.70302">
        <ele>211</ele>
        <time>2016-11-12T10:10:42Z</time>
      </trkpt>
      <trkpt lat="46.00967" lon="4.70295">
        <ele>211</ele>
        <time>2016-11-12T10:10:43Z</time>
      </trkpt>
      <trkpt lat="46.0097" lon="4.70288">
        <ele>211</ele>
        <time>2016-11-12T10:10:44Z</time>
      </trkpt>
      <trkpt lat="46.00973" lon="4.70282">
        <ele>211</ele>
        <time>2016-11-12T10:10:45Z</time>
      </trkpt>
      <trkpt lat="46.00978" lon="4.70272">
        <ele>211</ele>
        <time>2016-11-12T10:10:47Z</time>
      </trkpt>
      <trkpt lat="46.0098" lon="4.70267">
        <ele>211</ele>
        <time>2016-11-12T10:10:48Z</time>
      </trkpt>
      <trkpt lat="46.00984" lon="4.70257">
        <ele>211</ele>
        <time>2016-11-12T10:10:50Z</time>
      </trkpt>
      <trkpt lat="46.00986" lon="4.70252">
        <ele>211</ele>
        <time>2016-11-12T10:10:51Z</time>
      </trkpt>
      <trkpt lat="46.00991" lon="4.70242">
        <ele>212</ele>
        <time>2016-11-12T10:10:53Z</time>
      </trkpt>
      <trkpt lat="46.00993" lon="4.70237">
        <ele>212</ele>
        <time>2016-11-12T10:10:54Z</time>
      </trkpt>
      <trkpt lat="46.00996" lon="4.7023">
        <ele>212</ele>
        <time>2016-11-12T10:10:55Z</time>
      </trkpt>
      <trkpt lat="46.00999" lon="4.70224">
        <ele>213</ele>
        <time>2016-11-12T10:10:56Z</time>
      </trkpt>
      <trkpt lat="46.01001" lon="4.70219">
        <ele>211</ele>
        <time>2016-11-12T10:10:57Z</time>
      </trkpt>
      <trkpt lat="46.01004" lon="4.70213">
        <ele>211</ele>
        <time>2016-11-12T10:10:58Z</time>
      </trkpt>
      <trkpt lat="46.01008" lon="4.70201">
        <ele>211</ele>
        <time>2016-11-12T10:11:00Z</time>
      </trkpt>
      <trkpt lat="46.01011" lon="4.70196">
        <ele>211</ele>
        <time>2016-11-12T10:11:01Z</time>
      </trkpt>
      <trkpt lat="46.01013" lon="4.7019">
        <ele>211</ele>
        <time>2016-11-12T10:11:02Z</time>
      </trkpt>
      <trkpt lat="46.01016" lon="4.70185">
        <ele>211</ele>
        <time>2016-11-12T10:11:03Z</time>
      </trkpt>
      <trkpt lat="46.01019" lon="4.7018">
        <ele>212</ele>
        <time>2016-11-12T10:11:04Z</time>
      </trkpt>
      <trkpt lat="46.01022" lon="4.70174">
        <ele>211</ele>
        <time>2016-11-12T10:11:05Z</time>
      </trkpt>
      <trkpt lat="46.01026" lon="4.70167">
        <ele>211</ele>
        <time>2016-11-12T10:11:06Z</time>
      </trkpt>
      <trkpt lat="46.01029" lon="4.70162">
        <ele>212</ele>
        <time>2016-11-12T10:11:07Z</time>
      </trkpt>
      <trkpt lat="46.01032" lon="4.70157">
        <ele>212</ele>
        <time>2016-11-12T10:11:08Z</time>
      </trkpt>
      <trkpt lat="46.01034" lon="4.70151">
        <ele>211</ele>
        <time>2016-11-12T10:11:09Z</time>
      </trkpt>
      <trkpt lat="46.01037" lon="4.70144">
        <ele>211</ele>
        <time>2016-11-12T10:11:10Z</time>
      </trkpt>
      <trkpt lat="46.01038" lon="4.70138">
        <ele>211</ele>
        <time>2016-11-12T10:11:11Z</time>
      </trkpt>
      <trkpt lat="46.0104" lon="4.70132">
        <ele>211</ele>
        <time>2016-11-12T10:11:12Z</time>
      </trkpt>
      <trkpt lat="46.01043" lon="4.70127">
        <ele>211</ele>
        <time>2016-11-12T10:11:13Z</time>
      </trkpt>
      <trkpt lat="46.01047" lon="4.70115">
        <ele>211</ele>
        <time>2016-11-12T10:11:15Z</time>
      </trkpt>
      <trkpt lat="46.01049" lon="4.7011">
        <ele>211</ele>
        <time>2016-11-12T10:11:16Z</time>
      </trkpt>
      <trkpt lat="46.01052" lon="4.70104">
        <ele>211</ele>
        <time>2016-11-12T10:11:17Z</time>
      </trkpt>
      <trkpt lat="46.01054" lon="4.70098">
        <ele>211</ele>
        <time>2016-11-12T10:11:18Z</time>
      </trkpt>
      <trkpt lat="46.01056" lon="4.70092">
        <ele>210</ele>
        <time>2016-11-12T10:11:19Z</time>
      </trkpt>
      <trkpt lat="46.01059" lon="4.70086">
        <ele>210</ele>
        <time>2016-11-12T10:11:20Z</time>
      </trkpt>
      <trkpt lat="46.01061" lon="4.70081">
        <ele>211</ele>
        <time>2016-11-12T10:11:21Z</time>
      </trkpt>
      <trkpt lat="46.01064" lon="4.70076">
        <ele>210</ele>
        <time>2016-11-12T10:11:22Z</time>
      </trkpt>
      <trkpt lat="46.01067" lon="4.70071">
        <ele>210</ele>
        <time>2016-11-12T10:11:23Z</time>
      </trkpt>
      <trkpt lat="46.0107" lon="4.70065">
        <ele>211</ele>
        <time>2016-11-12T10:11:24Z</time>
      </trkpt>
      <trkpt lat="46.01072" lon="4.7006">
        <ele>211</ele>
        <time>2016-11-12T10:11:25Z</time>
      </trkpt>
      <trkpt lat="46.01075" lon="4.70055">
        <ele>211</ele>
        <time>2016-11-12T10:11:26Z</time>
      </trkpt>
      <trkpt lat="46.01082" lon="4.70046">
        <ele>211</ele>
        <time>2016-11-12T10:11:28Z</time>
      </trkpt>
      <trkpt lat="46.01085" lon="4.70042">
        <ele>210</ele>
        <time>2016-11-12T10:11:29Z</time>
      </trkpt>
      <trkpt lat="46.01092" lon="4.70034">
        <ele>210</ele>
        <time>2016-11-12T10:11:31Z</time>
      </trkpt>
      <trkpt lat="46.01096" lon="4.70031">
        <ele>210</ele>
        <time>2016-11-12T10:11:32Z</time>
      </trkpt>
      <trkpt lat="46.011" lon="4.70027">
        <ele>210</ele>
        <time>2016-11-12T10:11:33Z</time>
      </trkpt>
      <trkpt lat="46.01104" lon="4.70024">
        <ele>210</ele>
        <time>2016-11-12T10:11:34Z</time>
      </trkpt>
      <trkpt lat="46.01108" lon="4.70021">
        <ele>210</ele>
        <time>2016-11-12T10:11:35Z</time>
      </trkpt>
      <trkpt lat="46.01113" lon="4.70018">
        <ele>210</ele>
        <time>2016-11-12T10:11:36Z</time>
      </trkpt>
      <trkpt lat="46.01117" lon="4.70014">
        <ele>210</ele>
        <time>2016-11-12T10:11:37Z</time>
      </trkpt>
      <trkpt lat="46.01121" lon="4.70012">
        <ele>210</ele>
        <time>2016-11-12T10:11:38Z</time>
      </trkpt>
      <trkpt lat="46.01126" lon="4.7001">
        <ele>210</ele>
        <time>2016-11-12T10:11:39Z</time>
      </trkpt>
      <trkpt lat="46.0113" lon="4.70008">
        <ele>210</ele>
        <time>2016-11-12T10:11:40Z</time>
      </trkpt>
      <trkpt lat="46.01135" lon="4.70007">
        <ele>210</ele>
        <time>2016-11-12T10:11:41Z</time>
      </trkpt>
      <trkpt lat="46.01139" lon="4.70005">
        <ele>210</ele>
        <time>2016-11-12T10:11:42Z</time>
      </trkpt>
      <trkpt lat="46.01147" lon="4.70003">
        <ele>210</ele>
        <time>2016-11-12T10:11:44Z</time>
      </trkpt>
      <trkpt lat="46.01152" lon="4.70002">
        <ele>210</ele>
        <time>2016-11-12T10:11:45Z</time>
      </trkpt>
      <trkpt lat="46.01161" lon="4.70001">
        <ele>210</ele>
        <time>2016-11-12T10:11:47Z</time>
      </trkpt>
      <trkpt lat="46.01165" lon="4.7">
        <ele>210</ele>
        <time>2016-11-12T10:11:48Z</time>
      </trkpt>
      <trkpt lat="46.0117" lon="4.7">
        <ele>210</ele>
        <time>2016-11-12T10:11:49Z</time>
      </trkpt>
      <trkpt lat="46.01174" lon="4.7">
        <ele>210</ele>
        <time>2016-11-12T10:11:50Z</time>
      </trkpt>
      <trkpt lat="46.01179" lon="4.7">
        <ele>210</ele>
        <time>2016-11-12T10:11:51Z</time>
      </trkpt>
      <trkpt lat="46.01184" lon="4.69999">
        <ele>210</ele>
        <time>2016-11-12T10:11:52Z</time>
      </trkpt>
      <trkpt lat="46.01188" lon="4.69999">
        <ele>210</ele>
        <time>2016-11-12T10:11:53Z</time>
      </trkpt>
      <trkpt lat="46.01193" lon="4.69998">
        <ele>210</ele>
        <time>2016-11-12T10:11:54Z</time>
      </trkpt>
      <trkpt lat="46.01199" lon="4.69998">
        <ele>210</ele>
        <time>2016-11-12T10:11:55Z</time>
      </trkpt>
      <trkpt lat="46.01204" lon="4.69997">
        <ele>210</ele>
        <time>2016-11-12T10:11:56Z</time>
      </trkpt>
      <trkpt lat="46.01209" lon="4.69997">
        <ele>210</ele>
        <time>2016-11-12T10:11:57Z</time>
      </trkpt>
      <trkpt lat="46.01214" lon="4.69996">
        <ele>210</ele>
        <time>2016-11-12T10:11:58Z</time>
      </trkpt>
      <trkpt lat="46.01219" lon="4.69996">
        <ele>210</ele>
        <time>2016-11-12T10:11:59Z</time>
      </trkpt>
      <trkpt lat="46.01224" lon="4.69996">
        <ele>210</ele>
        <time>2016-11-12T10:12:00Z</time>
      </trkpt>
      <trkpt lat="46.01229" lon="4.69995">
        <ele>210</ele>
        <time>2016-11-12T10:12:01Z</time>
      </trkpt>
      <trkpt lat="46.01234" lon="4.69995">
        <ele>210</ele>
        <time>2016-11-12T10:12:02Z</time>
      </trkpt>
      <trkpt lat="46.01239" lon="4.69994">
        <ele>210</ele>
        <time>2016-11-12T10:12:03Z</time>
      </trkpt>
      <trkpt lat="46.01244" lon="4.69994">
        <ele>209</ele>
        <time>2016-11-12T10:12:04Z</time>
      </trkpt>
      <trkpt lat="46.01249" lon="4.69993">
        <ele>209</ele>
        <time>2016-11-12T10:12:05Z</time>
      </trkpt>
      <trkpt lat="46.01255" lon="4.69991">
        <ele>209</ele>
        <time>2016-11-12T10:12:06Z</time>
      </trkpt>
      <trkpt lat="46.0126" lon="4.6999">
        <ele>209</ele>
        <time>2016-11-12T10:12:07Z</time>
      </trkpt>
      <trkpt lat="46.01266" lon="4.69988">
        <ele>209</ele>
        <time>2016-11-12T10:12:08Z</time>
      </trkpt>
      <trkpt lat="46.01272" lon="4.69986">
        <ele>209</ele>
        <time>2016-11-12T10:12:09Z</time>
      </trkpt>
      <trkpt lat="46.01277" lon="4.69982">
        <ele>209</ele>
        <time>2016-11-12T10:12:10Z</time>
      </trkpt>
      <trkpt lat="46.01283" lon="4.69978">
        <ele>209</ele>
        <time>2016-11-12T10:12:11Z</time>
      </trkpt>
      <trkpt lat="46.01287" lon="4.69973">
        <ele>209</ele>
        <time>2016-11-12T10:12:12Z</time>
      </trkpt>
      <trkpt lat="46.01292" lon="4.69967">
        <ele>209</ele>
        <time>2016-11-12T10:12:13Z</time>
      </trkpt>
      <trkpt lat="46.01295" lon="4.69961">
        <ele>209</ele>
        <time>2016-11-12T10:12:14Z</time>
      </trkpt>
      <trkpt lat="46.01298" lon="4.69954">
        <ele>209</ele>
        <time>2016-11-12T10:12:15Z</time>
      </trkpt>
      <trkpt lat="46.01301" lon="4.69947">
        <ele>209</ele>
        <time>2016-11-12T10:12:16Z</time>
      </trkpt>
      <trkpt lat="46.01303" lon="4.6994">
        <ele>209</ele>
        <time>2016-11-12T10:12:17Z</time>
      </trkpt>
      <trkpt lat="46.01306" lon="4.69932">
        <ele>209</ele>
        <time>2016-11-12T10:12:18Z</time>
      </trkpt>
      <trkpt lat="46.01308" lon="4.69924">
        <ele>209</ele>
        <time>2016-11-12T10:12:19Z</time>
      </trkpt>
      <trkpt lat="46.0131" lon="4.69916">
        <ele>210</ele>
        <time>2016-11-12T10:12:20Z</time>
      </trkpt>
      <trkpt lat="46.01312" lon="4.69907">
        <ele>210</ele>
        <time>2016-11-12T10:12:21Z</time>
      </trkpt>
      <trkpt lat="46.01313" lon="4.69899">
        <ele>210</ele>
        <time>2016-11-12T10:12:22Z</time>
      </trkpt>
      <trkpt lat="46.01315" lon="4.69891">
        <ele>210</ele>
        <time>2016-11-12T10:12:23Z</time>
      </trkpt>
      <trkpt lat="46.01316" lon="4.69884">
        <ele>210</ele>
        <time>2016-11-12T10:12:24Z</time>
      </trkpt>
      <trkpt lat="46.01318" lon="4.69876">
        <ele>210</ele>
        <time>2016-11-12T10:12:25Z</time>
      </trkpt>
      <trkpt lat="46.0132" lon="4.69869">
        <ele>210</ele>
        <time>2016-11-12T10:12:26Z</time>
      </trkpt>
      <trkpt lat="46.01322" lon="4.69862">
        <ele>210</ele>
        <time>2016-11-12T10:12:27Z</time>
      </trkpt>
      <trkpt lat="46.01323" lon="4.69854">
        <ele>210</ele>
        <time>2016-11-12T10:12:28Z</time>
      </trkpt>
      <trkpt lat="46.01325" lon="4.69846">
        <ele>210</ele>
        <time>2016-11-12T10:12:29Z</time>
      </trkpt>
      <trkpt lat="46.01326" lon="4.69839">
        <ele>210</ele>
        <time>2016-11-12T10:12:30Z</time>
      </trkpt>
      <trkpt lat="46.01328" lon="4.69831">
        <ele>210</ele>
        <time>2016-11-12T10:12:31Z</time>
      </trkpt>
      <trkpt lat="46.0133" lon="4.69824">
        <ele>210</ele>
        <time>2016-11-12T10:12:32Z</time>
      </trkpt>
      <trkpt lat="46.01332" lon="4.69816">
        <ele>210</ele>
        <time>2016-11-12T10:12:33Z</time>
      </trkpt>
      <trkpt lat="46.01334" lon="4.69809">
        <ele>208</ele>
        <time>2016-11-12T10:12:34Z</time>
      </trkpt>
      <trkpt lat="46.01335" lon="4.69801">
        <ele>208</ele>
        <time>2016-11-12T10:12:35Z</time>
      </trkpt>
      <trkpt lat="46.01337" lon="4.69793">
        <ele>208</ele>
        <time>2016-11-12T10:12:36Z</time>
      </trkpt>
      <trkpt lat="46.0134" lon="4.69784">
        <ele>208</ele>
        <time>2016-11-12T10:12:37Z</time>
      </trkpt>
      <trkpt lat="46.01342" lon="4.69777">
        <ele>208</ele>
        <time>2016-11-12T10:12:38Z</time>
      </trkpt>
      <trkpt lat="46.01343" lon="4.6977">
        <ele>208</ele>
        <time>2016-11-12T10:12:39Z</time>
      </trkpt>
      <trkpt lat="46.01345" lon="4.69762">
        <ele>208</ele>
        <time>2016-11-12T10:12:40Z</time>
      </trkpt>
      <trkpt lat="46.01347" lon="4.69754">
        <ele>208</ele>
        <time>2016-11-12T10:12:41Z</time>
      </trkpt>
      <trkpt lat="46.01349" lon="4.69746">
        <ele>208</ele>
        <time>2016-11-12T10:12:42Z</time>
      </trkpt>
      <trkpt lat="46.01351" lon="4.69738">
        <ele>208</ele>
        <time>2016-11-12T10:12:43Z</time>
      </trkpt>
      <trkpt lat="46.01353" lon="4.6973">
        <ele>207</ele>
        <time>2016-11-12T10:12:44Z</time>
      </trkpt>
      <trkpt lat="46.01354" lon="4.69723">
        <ele>207</ele>
        <time>2016-11-12T10:12:45Z</time>
      </trkpt>
      <trkpt lat="46.01356" lon="4.69715">
        <ele>207</ele>
        <time>2016-11-12T10:12:46Z</time>
      </trkpt>
      <trkpt lat="46.01358" lon="4.69707">
        <ele>207</ele>
        <time>2016-11-12T10:12:47Z</time>
      </trkpt>
      <trkpt lat="46.0136" lon="4.69699">
        <ele>207</ele>
        <time>2016-11-12T10:12:48Z</time>
      </trkpt>
      <trkpt lat="46.01362" lon="4.69692">
        <ele>207</ele>
        <time>2016-11-12T10:12:49Z</time>
      </trkpt>
      <trkpt lat="46.01364" lon="4.69684">
        <ele>207</ele>
        <time>2016-11-12T10:12:50Z</time>
      </trkpt>
      <trkpt lat="46.01367" lon="4.69676">
        <ele>207</ele>
        <time>2016-11-12T10:12:51Z</time>
      </trkpt>
      <trkpt lat="46.01369" lon="4.69668">
        <ele>207</ele>
        <time>2016-11-12T10:12:52Z</time>
      </trkpt>
      <trkpt lat="46.01372" lon="4.6966">
        <ele>207</ele>
        <time>2016-11-12T10:12:53Z</time>
      </trkpt>
      <trkpt lat="46.01374" lon="4.69653">
        <ele>207</ele>
        <time>2016-11-12T10:12:54Z</time>
      </trkpt>
      <trkpt lat="46.01377" lon="4.69645">
        <ele>207</ele>
        <time>2016-11-12T10:12:55Z</time>
      </trkpt>
      <trkpt lat="46.0138" lon="4.69637">
        <ele>207</ele>
        <time>2016-11-12T10:12:56Z</time>
      </trkpt>
      <trkpt lat="46.01383" lon="4.69629">
        <ele>207</ele>
        <time>2016-11-12T10:12:57Z</time>
      </trkpt>
      <trkpt lat="46.01387" lon="4.69621">
        <ele>207</ele>
        <time>2016-11-12T10:12:58Z</time>
      </trkpt>
      <trkpt lat="46.0139" lon="4.69613">
        <ele>207</ele>
        <time>2016-11-12T10:12:59Z</time>
      </trkpt>
      <trkpt lat="46.01394" lon="4.69606">
        <ele>207</ele>
        <time>2016-11-12T10:13:00Z</time>
      </trkpt>
      <trkpt lat="46.01397" lon="4.69598">
        <ele>207</ele>
        <time>2016-11-12T10:13:01Z</time>
      </trkpt>
      <trkpt lat="46.01401" lon="4.6959">
        <ele>207</ele>
        <time>2016-11-12T10:13:02Z</time>
      </trkpt>
      <trkpt lat="46.01404" lon="4.69582">
        <ele>208</ele>
        <time>2016-11-12T10:13:03Z</time>
      </trkpt>
      <trkpt lat="46.01408" lon="4.69575">
        <ele>208</ele>
        <time>2016-11-12T10:13:04Z</time>
      </trkpt>
      <trkpt lat="46.01413" lon="4.69568">
        <ele>209</ele>
        <time>2016-11-12T10:13:05Z</time>
      </trkpt>
      <trkpt lat="46.01417" lon="4.69561">
        <ele>209</ele>
        <time>2016-11-12T10:13:06Z</time>
      </trkpt>
      <trkpt lat="46.01421" lon="4.69555">
        <ele>208</ele>
        <time>2016-11-12T10:13:07Z</time>
      </trkpt>
      <trkpt lat="46.01425" lon="4.69548">
        <ele>208</ele>
        <time>2016-11-12T10:13:08Z</time>
      </trkpt>
      <trkpt lat="46.01429" lon="4.69542">
        <ele>208</ele>
        <time>2016-11-12T10:13:09Z</time>
      </trkpt>
      <trkpt lat="46.01433" lon="4.69535">
        <ele>209</ele>
        <time>2016-11-12T10:13:10Z</time>
      </trkpt>
      <trkpt lat="46.01436" lon="4.69529">
        <ele>209</ele>
        <time>2016-11-12T10:13:11Z</time>
      </trkpt>
      <trkpt lat="46.0144" lon="4.69522">
        <ele>209</ele>
        <time>2016-11-12T10:13:12Z</time>
      </trkpt>
      <trkpt lat="46.01444" lon="4.69516">
        <ele>209</ele>
        <time>2016-11-12T10:13:13Z</time>
      </trkpt>
      <trkpt lat="46.01447" lon="4.6951">
        <ele>209</ele>
        <time>2016-11-12T10:13:14Z</time>
      </trkpt>
      <trkpt lat="46.0145" lon="4.69503">
        <ele>209</ele>
        <time>2016-11-12T10:13:15Z</time>
      </trkpt>
      <trkpt lat="46.01453" lon="4.69497">
        <ele>210</ele>
        <time>2016-11-12T10:13:16Z</time>
      </trkpt>
      <trkpt lat="46.01455" lon="4.69489">
        <ele>210</ele>
        <time>2016-11-12T10:13:17Z</time>
      </trkpt>
      <trkpt lat="46.01457" lon="4.69482">
        <ele>209</ele>
        <time>2016-11-12T10:13:18Z</time>
      </trkpt>
      <trkpt lat="46.01459" lon="4.69474">
        <ele>209</ele>
        <time>2016-11-12T10:13:19Z</time>
      </trkpt>
      <trkpt lat="46.01461" lon="4.69466">
        <ele>209</ele>
        <time>2016-11-12T10:13:20Z</time>
      </trkpt>
      <trkpt lat="46.01463" lon="4.69458">
        <ele>209</ele>
        <time>2016-11-12T10:13:21Z</time>
      </trkpt>
      <trkpt lat="46.01464" lon="4.6945">
        <ele>209</ele>
        <time>2016-11-12T10:13:22Z</time>
      </trkpt>
      <trkpt lat="46.01466" lon="4.69442">
        <ele>209</ele>
        <time>2016-11-12T10:13:23Z</time>
      </trkpt>
      <trkpt lat="46.01467" lon="4.69435">
        <ele>209</ele>
        <time>2016-11-12T10:13:24Z</time>
      </trkpt>
      <trkpt lat="46.01468" lon="4.69428">
        <ele>209</ele>
        <time>2016-11-12T10:13:25Z</time>
      </trkpt>
      <trkpt lat="46.01469" lon="4.69421">
        <ele>209</ele>
        <time>2016-11-12T10:13:26Z</time>
      </trkpt>
      <trkpt lat="46.0147" lon="4.69414">
        <ele>209</ele>
        <time>2016-11-12T10:13:27Z</time>
      </trkpt>
      <trkpt lat="46.01471" lon="4.69407">
        <ele>209</ele>
        <time>2016-11-12T10:13:28Z</time>
      </trkpt>
      <trkpt lat="46.01473" lon="4.69399">
        <ele>209</ele>
        <time>2016-11-12T10:13:29Z</time>
      </trkpt>
      <trkpt lat="46.01474" lon="4.69392">
        <ele>209</ele>
        <time>2016-11-12T10:13:30Z</time>
      </trkpt>
      <trkpt lat="46.01475" lon="4.69385">
        <ele>209</ele>
        <time>2016-11-12T10:13:31Z</time>
      </trkpt>
      <trkpt lat="46.01477" lon="4.69377">
        <ele>210</ele>
        <time>2016-11-12T10:13:32Z</time>
      </trkpt>
      <trkpt lat="46.01478" lon="4.6937">
        <ele>210</ele>
        <time>2016-11-12T10:13:33Z</time>
      </trkpt>
      <trkpt lat="46.0148" lon="4.69362">
        <ele>210</ele>
        <time>2016-11-12T10:13:34Z</time>
      </trkpt>
      <trkpt lat="46.01482" lon="4.69355">
        <ele>210</ele>
        <time>2016-11-12T10:13:35Z</time>
      </trkpt>
      <trkpt lat="46.01484" lon="4.69348">
        <ele>210</ele>
        <time>2016-11-12T10:13:36Z</time>
      </trkpt>
      <trkpt lat="46.01485" lon="4.6934">
        <ele>210</ele>
        <time>2016-11-12T10:13:37Z</time>
      </trkpt>
      <trkpt lat="46.01487" lon="4.69333">
        <ele>211</ele>
        <time>2016-11-12T10:13:38Z</time>
      </trkpt>
      <trkpt lat="46.01489" lon="4.69326">
        <ele>211</ele>
        <time>2016-11-12T10:13:39Z</time>
      </trkpt>
      <trkpt lat="46.01491" lon="4.69319">
        <ele>211</ele>
        <time>2016-11-12T10:13:40Z</time>
      </trkpt>
      <trkpt lat="46.01493" lon="4.69312">
        <ele>211</ele>
        <time>2016-11-12T10:13:41Z</time>
      </trkpt>
      <trkpt lat="46.01495" lon="4.69306">
        <ele>211</ele>
        <time>2016-11-12T10:13:42Z</time>
      </trkpt>
      <trkpt lat="46.01497" lon="4.693">
        <ele>211</ele>
        <time>2016-11-12T10:13:43Z</time>
      </trkpt>
      <trkpt lat="46.01499" lon="4.69293">
        <ele>211</ele>
        <time>2016-11-12T10:13:44Z</time>
      </trkpt>
      <trkpt lat="46.01501" lon="4.69287">
        <ele>210</ele>
        <time>2016-11-12T10:13:45Z</time>
      </trkpt>
      <trkpt lat="46.01503" lon="4.69281">
        <ele>210</ele>
        <time>2016-11-12T10:13:46Z</time>
      </trkpt>
      <trkpt lat="46.01505" lon="4.69275">
        <ele>210</ele>
        <time>2016-11-12T10:13:47Z</time>
      </trkpt>
      <trkpt lat="46.01507" lon="4.69269">
        <ele>210</ele>
        <time>2016-11-12T10:13:48Z</time>
      </trkpt>
      <trkpt lat="46.01509" lon="4.69262">
        <ele>210</ele>
        <time>2016-11-12T10:13:49Z</time>
      </trkpt>
      <trkpt lat="46.01511" lon="4.69256">
        <ele>210</ele>
        <time>2016-11-12T10:13:50Z</time>
      </trkpt>
      <trkpt lat="46.01514" lon="4.69249">
        <ele>211</ele>
        <time>2016-11-12T10:13:51Z</time>
      </trkpt>
      <trkpt lat="46.01516" lon="4.69242">
        <ele>211</ele>
        <time>2016-11-12T10:13:52Z</time>
      </trkpt>
      <trkpt lat="46.01519" lon="4.69235">
        <ele>211</ele>
        <time>2016-11-12T10:13:53Z</time>
      </trkpt>
      <trkpt lat="46.01521" lon="4.69229">
        <ele>210</ele>
        <time>2016-11-12T10:13:54Z</time>
      </trkpt>
      <trkpt lat="46.01524" lon="4.69223">
        <ele>210</ele>
        <time>2016-11-12T10:13:55Z</time>
      </trkpt>
      <trkpt lat="46.01528" lon="4.69218">
        <ele>210</ele>
        <time>2016-11-12T10:13:56Z</time>
      </trkpt>
      <trkpt lat="46.01532" lon="4.69214">
        <ele>210</ele>
        <time>2016-11-12T10:13:57Z</time>
      </trkpt>
      <trkpt lat="46.01536" lon="4.69211">
        <ele>210</ele>
        <time>2016-11-12T10:13:58Z</time>
      </trkpt>
      <trkpt lat="46.01544" lon="4.69205">
        <ele>210</ele>
        <time>2016-11-12T10:14:00Z</time>
      </trkpt>
      <trkpt lat="46.01546" lon="4.692">
        <ele>210</ele>
        <time>2016-11-12T10:14:01Z</time>
      </trkpt>
      <trkpt lat="46.01546" lon="4.69188">
        <ele>210</ele>
        <time>2016-11-12T10:14:03Z</time>
      </trkpt>
      <trkpt lat="46.01546" lon="4.69182">
        <ele>210</ele>
        <time>2016-11-12T10:14:04Z</time>
      </trkpt>
      <trkpt lat="46.01548" lon="4.69169">
        <ele>210</ele>
        <time>2016-11-12T10:14:06Z</time>
      </trkpt>
      <trkpt lat="46.0155" lon="4.69164">
        <ele>211</ele>
        <time>2016-11-12T10:14:07Z</time>
      </trkpt>
      <trkpt lat="46.01553" lon="4.69158">
        <ele>211</ele>
        <time>2016-11-12T10:14:08Z</time>
      </trkpt>
      <trkpt lat="46.01555" lon="4.69153">
        <ele>211</ele>
        <time>2016-11-12T10:14:09Z</time>
      </trkpt>
      <trkpt lat="46.01558" lon="4.69146">
        <ele>211</ele>
        <time>2016-11-12T10:14:10Z</time>
      </trkpt>
      <trkpt lat="46.01561" lon="4.6914">
        <ele>211</ele>
        <time>2016-11-12T10:14:11Z</time>
      </trkpt>
      <trkpt lat="46.01564" lon="4.69134">
        <ele>211</ele>
        <time>2016-11-12T10:14:12Z</time>
      </trkpt>
      <trkpt lat="46.01567" lon="4.69127">
        <ele>211</ele>
        <time>2016-11-12T10:14:13Z</time>
      </trkpt>
      <trkpt lat="46.0157" lon="4.6912">
        <ele>211</ele>
        <time>2016-11-12T10:14:14Z</time>
      </trkpt>
      <trkpt lat="46.01573" lon="4.69113">
        <ele>211</ele>
        <time>2016-11-12T10:14:15Z</time>
      </trkpt>
      <trkpt lat="46.01577" lon="4.69106">
        <ele>211</ele>
        <time>2016-11-12T10:14:16Z</time>
      </trkpt>
      <trkpt lat="46.0158" lon="4.69098">
        <ele>211</ele>
        <time>2016-11-12T10:14:17Z</time>
      </trkpt>
      <trkpt lat="46.01583" lon="4.69091">
        <ele>211</ele>
        <time>2016-11-12T10:14:18Z</time>
      </trkpt>
      <trkpt lat="46.01586" lon="4.69084">
        <ele>211</ele>
        <time>2016-11-12T10:14:19Z</time>
      </trkpt>
      <trkpt lat="46.01589" lon="4.69077">
        <ele>211</ele>
        <time>2016-11-12T10:14:20Z</time>
      </trkpt>
      <trkpt lat="46.01591" lon="4.6907">
        <ele>211</ele>
        <time>2016-11-12T10:14:21Z</time>
      </trkpt>
      <trkpt lat="46.01594" lon="4.69064">
        <ele>211</ele>
        <time>2016-11-12T10:14:22Z</time>
      </trkpt>
      <trkpt lat="46.01597" lon="4.69058">
        <ele>211</ele>
        <time>2016-11-12T10:14:23Z</time>
      </trkpt>
      <trkpt lat="46.01599" lon="4.69052">
        <ele>211</ele>
        <time>2016-11-12T10:14:24Z</time>
      </trkpt>
      <trkpt lat="46.01601" lon="4.69046">
        <ele>211</ele>
        <time>2016-11-12T10:14:25Z</time>
      </trkpt>
      <trkpt lat="46.01603" lon="4.6904">
        <ele>211</ele>
        <time>2016-11-12T10:14:26Z</time>
      </trkpt>
      <trkpt lat="46.01606" lon="4.69035">
        <ele>211</ele>
        <time>2016-11-12T10:14:27Z</time>
      </trkpt>
      <trkpt lat="46.01608" lon="4.69029">
        <ele>211</ele>
        <time>2016-11-12T10:14:28Z</time>
      </trkpt>
      <trkpt lat="46.01611" lon="4.69023">
        <ele>211</ele>
        <time>2016-11-12T10:14:29Z</time>
      </trkpt>
      <trkpt lat="46.01613" lon="4.69017">
        <ele>211</ele>
        <time>2016-11-12T10:14:30Z</time>
      </trkpt>
      <trkpt lat="46.01615" lon="4.69011">
        <ele>211</ele>
        <time>2016-11-12T10:14:31Z</time>
      </trkpt>
      <trkpt lat="46.01618" lon="4.69005">
        <ele>211</ele>
        <time>2016-11-12T10:14:32Z</time>
      </trkpt>
      <trkpt lat="46.01621" lon="4.68998">
        <ele>212</ele>
        <time>2016-11-12T10:14:33Z</time>
      </trkpt>
      <trkpt lat="46.01623" lon="4.68992">
        <ele>212</ele>
        <time>2016-11-12T10:14:34Z</time>
      </trkpt>
      <trkpt lat="46.01626" lon="4.68986">
        <ele>212</ele>
        <time>2016-11-12T10:14:35Z</time>
      </trkpt>
      <trkpt lat="46.01629" lon="4.6898">
        <ele>212</ele>
        <time>2016-11-12T10:14:36Z</time>
      </trkpt>
      <trkpt lat="46.01631" lon="4.68973">
        <ele>212</ele>
        <time>2016-11-12T10:14:37Z</time>
      </trkpt>
      <trkpt lat="46.01634" lon="4.68967">
        <ele>212</ele>
        <time>2016-11-12T10:14:38Z</time>
      </trkpt>
      <trkpt lat="46.01636" lon="4.68961">
        <ele>212</ele>
        <time>2016-11-12T10:14:39Z</time>
      </trkpt>
      <trkpt lat="46.01638" lon="4.68953">
        <ele>212</ele>
        <time>2016-11-12T10:14:40Z</time>
      </trkpt>
      <trkpt lat="46.01639" lon="4.68946">
        <ele>212</ele>
        <time>2016-11-12T10:14:41Z</time>
      </trkpt>
      <trkpt lat="46.01642" lon="4.6894">
        <ele>212</ele>
        <time>2016-11-12T10:14:42Z</time>
      </trkpt>
      <trkpt lat="46.01645" lon="4.68933">
        <ele>212</ele>
        <time>2016-11-12T10:14:43Z</time>
      </trkpt>
      <trkpt lat="46.01648" lon="4.68926">
        <ele>212</ele>
        <time>2016-11-12T10:14:44Z</time>
      </trkpt>
      <trkpt lat="46.01652" lon="4.6892">
        <ele>212</ele>
        <time>2016-11-12T10:14:45Z</time>
      </trkpt>
      <trkpt lat="46.01655" lon="4.68913">
        <ele>212</ele>
        <time>2016-11-12T10:14:46Z</time>
      </trkpt>
      <trkpt lat="46.01658" lon="4.68906">
        <ele>212</ele>
        <time>2016-11-12T10:14:47Z</time>
      </trkpt>
      <trkpt lat="46.01661" lon="4.68898">
        <ele>212</ele>
        <time>2016-11-12T10:14:48Z</time>
      </trkpt>
      <trkpt lat="46.01664" lon="4.68891">
        <ele>212</ele>
        <time>2016-11-12T10:14:49Z</time>
      </trkpt>
      <trkpt lat="46.01668" lon="4.68885">
        <ele>210</ele>
        <time>2016-11-12T10:14:50Z</time>
      </trkpt>
      <trkpt lat="46.01671" lon="4.68878">
        <ele>210</ele>
        <time>2016-11-12T10:14:51Z</time>
      </trkpt>
      <trkpt lat="46.01673" lon="4.68872">
        <ele>210</ele>
        <time>2016-11-12T10:14:52Z</time>
      </trkpt>
      <trkpt lat="46.01676" lon="4.68866">
        <ele>210</ele>
        <time>2016-11-12T10:14:53Z</time>
      </trkpt>
      <trkpt lat="46.01679" lon="4.6886">
        <ele>210</ele>
        <time>2016-11-12T10:14:54Z</time>
      </trkpt>
      <trkpt lat="46.01682" lon="4.68853">
        <ele>210</ele>
        <time>2016-11-12T10:14:55Z</time>
      </trkpt>
      <trkpt lat="46.01684" lon="4.68847">
        <ele>210</ele>
        <time>2016-11-12T10:14:56Z</time>
      </trkpt>
      <trkpt lat="46.01688" lon="4.68839">
        <ele>210</ele>
        <time>2016-11-12T10:14:57Z</time>
      </trkpt>
      <trkpt lat="46.0169" lon="4.68832">
        <ele>210</ele>
        <time>2016-11-12T10:14:58Z</time>
      </trkpt>
      <trkpt lat="46.01693" lon="4.68824">
        <ele>210</ele>
        <time>2016-11-12T10:14:59Z</time>
      </trkpt>
      <trkpt lat="46.01696" lon="4.68817">
        <ele>210</ele>
        <time>2016-11-12T10:15:00Z</time>
      </trkpt>
      <trkpt lat="46.01699" lon="4.6881">
        <ele>210</ele>
        <time>2016-11-12T10:15:01Z</time>
      </trkpt>
      <trkpt lat="46.01702" lon="4.68803">
        <ele>210</ele>
        <time>2016-11-12T10:15:02Z</time>
      </trkpt>
      <trkpt lat="46.01706" lon="4.68796">
        <ele>210</ele>
        <time>2016-11-12T10:15:03Z</time>
      </trkpt>
      <trkpt lat="46.01709" lon="4.68789">
        <ele>210</ele>
        <time>2016-11-12T10:15:04Z</time>
      </trkpt>
      <trkpt lat="46.01712" lon="4.68782">
        <ele>210</ele>
        <time>2016-11-12T10:15:05Z</time>
      </trkpt>
      <trkpt lat="46.01715" lon="4.68775">
        <ele>210</ele>
        <time>2016-11-12T10:15:06Z</time>
      </trkpt>
      <trkpt lat="46.01718" lon="4.68769">
        <ele>210</ele>
        <time>2016-11-12T10:15:07Z</time>
      </trkpt>
      <trkpt lat="46.01721" lon="4.68762">
        <ele>210</ele>
        <time>2016-11-12T10:15:08Z</time>
      </trkpt>
      <trkpt lat="46.01724" lon="4.68755">
        <ele>211</ele>
        <time>2016-11-12T10:15:09Z</time>
      </trkpt>
      <trkpt lat="46.01728" lon="4.68749">
        <ele>211</ele>
        <time>2016-11-12T10:15:10Z</time>
      </trkpt>
      <trkpt lat="46.01731" lon="4.68743">
        <ele>211</ele>
        <time>2016-11-12T10:15:11Z</time>
      </trkpt>
      <trkpt lat="46.01734" lon="4.68736">
        <ele>211</ele>
        <time>2016-11-12T10:15:12Z</time>
      </trkpt>
      <trkpt lat="46.01737" lon="4.6873">
        <ele>211</ele>
        <time>2016-11-12T10:15:13Z</time>
      </trkpt>
      <trkpt lat="46.0174" lon="4.68723">
        <ele>211</ele>
        <time>2016-11-12T10:15:14Z</time>
      </trkpt>
      <trkpt lat="46.01744" lon="4.68717">
        <ele>211</ele>
        <time>2016-11-12T10:15:15Z</time>
      </trkpt>
      <trkpt lat="46.01746" lon="4.6871">
        <ele>211</ele>
        <time>2016-11-12T10:15:16Z</time>
      </trkpt>
      <trkpt lat="46.01749" lon="4.68704">
        <ele>211</ele>
        <time>2016-11-12T10:15:17Z</time>
      </trkpt>
      <trkpt lat="46.01752" lon="4.68698">
        <ele>210</ele>
        <time>2016-11-12T10:15:18Z</time>
      </trkpt>
      <trkpt lat="46.01755" lon="4.68692">
        <ele>210</ele>
        <time>2016-11-12T10:15:19Z</time>
      </trkpt>
      <trkpt lat="46.01757" lon="4.68685">
        <ele>210</ele>
        <time>2016-11-12T10:15:20Z</time>
      </trkpt>
      <trkpt lat="46.01759" lon="4.68679">
        <ele>210</ele>
        <time>2016-11-12T10:15:21Z</time>
      </trkpt>
      <trkpt lat="46.01762" lon="4.68672">
        <ele>210</ele>
        <time>2016-11-12T10:15:22Z</time>
      </trkpt>
      <trkpt lat="46.01764" lon="4.68666">
        <ele>210</ele>
        <time>2016-11-12T10:15:23Z</time>
      </trkpt>
      <trkpt lat="46.01766" lon="4.68659">
        <ele>210</ele>
        <time>2016-11-12T10:15:24Z</time>
      </trkpt>
      <trkpt lat="46.01768" lon="4.68652">
        <ele>210</ele>
        <time>2016-11-12T10:15:25Z</time>
      </trkpt>
      <trkpt lat="46.0177" lon="4.68645">
        <ele>209</ele>
        <time>2016-11-12T10:15:26Z</time>
      </trkpt>
      <trkpt lat="46.01772" lon="4.68637">
        <ele>209</ele>
        <time>2016-11-12T10:15:27Z</time>
      </trkpt>
      <trkpt lat="46.01773" lon="4.6863">
        <ele>209</ele>
        <time>2016-11-12T10:15:28Z</time>
      </trkpt>
      <trkpt lat="46.01774" lon="4.68622">
        <ele>209</ele>
        <time>2016-11-12T10:15:29Z</time>
      </trkpt>
      <trkpt lat="46.01775" lon="4.68614">
        <ele>209</ele>
        <time>2016-11-12T10:15:30Z</time>
      </trkpt>
      <trkpt lat="46.01776" lon="4.68606">
        <ele>209</ele>
        <time>2016-11-12T10:15:31Z</time>
      </trkpt>
      <trkpt lat="46.01777" lon="4.68598">
        <ele>209</ele>
        <time>2016-11-12T10:15:32Z</time>
      </trkpt>
      <trkpt lat="46.01778" lon="4.6859">
        <ele>209</ele>
        <time>2016-11-12T10:15:33Z</time>
      </trkpt>
      <trkpt lat="46.01778" lon="4.68582">
        <ele>209</ele>
        <time>2016-11-12T10:15:34Z</time>
      </trkpt>
      <trkpt lat="46.01779" lon="4.68574">
        <ele>209</ele>
        <time>2016-11-12T10:15:35Z</time>
      </trkpt>
      <trkpt lat="46.0178" lon="4.68566">
        <ele>209</ele>
        <time>2016-11-12T10:15:36Z</time>
      </trkpt>
      <trkpt lat="46.01781" lon="4.68558">
        <ele>209</ele>
        <time>2016-11-12T10:15:37Z</time>
      </trkpt>
      <trkpt lat="46.01781" lon="4.6855">
        <ele>209</ele>
        <time>2016-11-12T10:15:38Z</time>
      </trkpt>
      <trkpt lat="46.01782" lon="4.68541">
        <ele>209</ele>
        <time>2016-11-12T10:15:39Z</time>
      </trkpt>
      <trkpt lat="46.01783" lon="4.68533">
        <ele>209</ele>
        <time>2016-11-12T10:15:40Z</time>
      </trkpt>
      <trkpt lat="46.01783" lon="4.68525">
        <ele>209</ele>
        <time>2016-11-12T10:15:41Z</time>
      </trkpt>
      <trkpt lat="46.01784" lon="4.68517">
        <ele>209</ele>
        <time>2016-11-12T10:15:42Z</time>
      </trkpt>
      <trkpt lat="46.01784" lon="4.68508">
        <ele>209</ele>
        <time>2016-11-12T10:15:43Z</time>
      </trkpt>
      <trkpt lat="46.01785" lon="4.68499">
        <ele>209</ele>
        <time>2016-11-12T10:15:44Z</time>
      </trkpt>
      <trkpt lat="46.01786" lon="4.68491">
        <ele>209</ele>
        <time>2016-11-12T10:15:45Z</time>
      </trkpt>
      <trkpt lat="46.01787" lon="4.68482">
        <ele>209</ele>
        <time>2016-11-12T10:15:46Z</time>
      </trkpt>
      <trkpt lat="46.01788" lon="4.68473">
        <ele>209</ele>
        <time>2016-11-12T10:15:47Z</time>
      </trkpt>
      <trkpt lat="46.01789" lon="4.68463">
        <ele>209</ele>
        <time>2016-11-12T10:15:48Z</time>
      </trkpt>
      <trkpt lat="46.0179" lon="4.68454">
        <ele>209</ele>
        <time>2016-11-12T10:15:49Z</time>
      </trkpt>
      <trkpt lat="46.01791" lon="4.68445">
        <ele>209</ele>
        <time>2016-11-12T10:15:50Z</time>
      </trkpt>
      <trkpt lat="46.01792" lon="4.68436">
        <ele>209</ele>
        <time>2016-11-12T10:15:51Z</time>
      </trkpt>
      <trkpt lat="46.01793" lon="4.68427">
        <ele>209</ele>
        <time>2016-11-12T10:15:52Z</time>
      </trkpt>
      <trkpt lat="46.01794" lon="4.68418">
        <ele>209</ele>
        <time>2016-11-12T10:15:53Z</time>
      </trkpt>
      <trkpt lat="46.01796" lon="4.6841">
        <ele>210</ele>
        <time>2016-11-12T10:15:54Z</time>
      </trkpt>
      <trkpt lat="46.01797" lon="4.68401">
        <ele>210</ele>
        <time>2016-11-12T10:15:55Z</time>
      </trkpt>
      <trkpt lat="46.01798" lon="4.68394">
        <ele>210</ele>
        <time>2016-11-12T10:15:56Z</time>
      </trkpt>
      <trkpt lat="46.018" lon="4.68386">
        <ele>210</ele>
        <time>2016-11-12T10:15:57Z</time>
      </trkpt>
      <trkpt lat="46.01803" lon="4.68379">
        <ele>210</ele>
        <time>2016-11-12T10:15:58Z</time>
      </trkpt>
      <trkpt lat="46.01805" lon="4.68372">
        <ele>210</ele>
        <time>2016-11-12T10:15:59Z</time>
      </trkpt>
      <trkpt lat="46.01808" lon="4.68365">
        <ele>210</ele>
        <time>2016-11-12T10:16:00Z</time>
      </trkpt>
      <trkpt lat="46.01811" lon="4.68359">
        <ele>210</ele>
        <time>2016-11-12T10:16:01Z</time>
      </trkpt>
      <trkpt lat="46.01813" lon="4.68352">
        <ele>210</ele>
        <time>2016-11-12T10:16:02Z</time>
      </trkpt>
      <trkpt lat="46.01816" lon="4.68346">
        <ele>210</ele>
        <time>2016-11-12T10:16:03Z</time>
      </trkpt>
      <trkpt lat="46.01819" lon="4.6834">
        <ele>210</ele>
        <time>2016-11-12T10:16:04Z</time>
      </trkpt>
      <trkpt lat="46.01822" lon="4.68334">
        <ele>209</ele>
        <time>2016-11-12T10:16:05Z</time>
      </trkpt>
      <trkpt lat="46.01825" lon="4.68327">
        <ele>210</ele>
        <time>2016-11-12T10:16:06Z</time>
      </trkpt>
      <trkpt lat="46.01829" lon="4.68321">
        <ele>210</ele>
        <time>2016-11-12T10:16:07Z</time>
      </trkpt>
      <trkpt lat="46.01832" lon="4.68314">
        <ele>210</ele>
        <time>2016-11-12T10:16:08Z</time>
      </trkpt>
      <trkpt lat="46.01836" lon="4.68308">
        <ele>210</ele>
        <time>2016-11-12T10:16:09Z</time>
      </trkpt>
      <trkpt lat="46.0184" lon="4.68303">
        <ele>210</ele>
        <time>2016-11-12T10:16:10Z</time>
      </trkpt>
      <trkpt lat="46.01843" lon="4.68296">
        <ele>210</ele>
        <time>2016-11-12T10:16:11Z</time>
      </trkpt>
      <trkpt lat="46.01846" lon="4.6829">
        <ele>210</ele>
        <time>2016-11-12T10:16:12Z</time>
      </trkpt>
      <trkpt lat="46.0185" lon="4.68285">
        <ele>210</ele>
        <time>2016-11-12T10:16:13Z</time>
      </trkpt>
      <trkpt lat="46.01853" lon="4.68279">
        <ele>210</ele>
        <time>2016-11-12T10:16:14Z</time>
      </trkpt>
      <trkpt lat="46.01856" lon="4.68274">
        <ele>210</ele>
        <time>2016-11-12T10:16:15Z</time>
      </trkpt>
      <trkpt lat="46.01861" lon="4.68264">
        <ele>210</ele>
        <time>2016-11-12T10:16:17Z</time>
      </trkpt>
      <trkpt lat="46.01864" lon="4.68259">
        <ele>210</ele>
        <time>2016-11-12T10:16:18Z</time>
      </trkpt>
      <trkpt lat="46.01869" lon="4.6825">
        <ele>211</ele>
        <time>2016-11-12T10:16:20Z</time>
      </trkpt>
      <trkpt lat="46.01871" lon="4.68246">
        <ele>212</ele>
        <time>2016-11-12T10:16:21Z</time>
      </trkpt>
      <trkpt lat="46.01875" lon="4.68237">
        <ele>212</ele>
        <time>2016-11-12T10:16:23Z</time>
      </trkpt>
      <trkpt lat="46.01877" lon="4.68233">
        <ele>212</ele>
        <time>2016-11-12T10:16:24Z</time>
      </trkpt>
      <trkpt lat="46.01881" lon="4.68224">
        <ele>212</ele>
        <time>2016-11-12T10:16:26Z</time>
      </trkpt>
      <trkpt lat="46.01883" lon="4.68219">
        <ele>212</ele>
        <time>2016-11-12T10:16:27Z</time>
      </trkpt>
      <trkpt lat="46.01887" lon="4.68209">
        <ele>212</ele>
        <time>2016-11-12T10:16:29Z</time>
      </trkpt>
      <trkpt lat="46.01889" lon="4.68204">
        <ele>212</ele>
        <time>2016-11-12T10:16:30Z</time>
      </trkpt>
      <trkpt lat="46.01892" lon="4.68194">
        <ele>212</ele>
        <time>2016-11-12T10:16:32Z</time>
      </trkpt>
      <trkpt lat="46.01894" lon="4.68189">
        <ele>213</ele>
        <time>2016-11-12T10:16:33Z</time>
      </trkpt>
      <trkpt lat="46.01897" lon="4.68179">
        <ele>213</ele>
        <time>2016-11-12T10:16:35Z</time>
      </trkpt>
      <trkpt lat="46.01899" lon="4.68174">
        <ele>213</ele>
        <time>2016-11-12T10:16:36Z</time>
      </trkpt>
      <trkpt lat="46.01902" lon="4.68164">
        <ele>214</ele>
        <time>2016-11-12T10:16:38Z</time>
      </trkpt>
      <trkpt lat="46.01903" lon="4.68159">
        <ele>214</ele>
        <time>2016-11-12T10:16:39Z</time>
      </trkpt>
      <trkpt lat="46.01906" lon="4.68149">
        <ele>214</ele>
        <time>2016-11-12T10:16:41Z</time>
      </trkpt>
      <trkpt lat="46.01907" lon="4.68143">
        <ele>214</ele>
        <time>2016-11-12T10:16:42Z</time>
      </trkpt>
      <trkpt lat="46.0191" lon="4.68134">
        <ele>214</ele>
        <time>2016-11-12T10:16:44Z</time>
      </trkpt>
      <trkpt lat="46.01912" lon="4.68128">
        <ele>214</ele>
        <time>2016-11-12T10:16:45Z</time>
      </trkpt>
      <trkpt lat="46.01915" lon="4.68116">
        <ele>214</ele>
        <time>2016-11-12T10:16:47Z</time>
      </trkpt>
      <trkpt lat="46.01916" lon="4.6811">
        <ele>214</ele>
        <time>2016-11-12T10:16:48Z</time>
      </trkpt>
      <trkpt lat="46.01918" lon="4.68099">
        <ele>215</ele>
        <time>2016-11-12T10:16:50Z</time>
      </trkpt>
      <trkpt lat="46.01919" lon="4.68094">
        <ele>215</ele>
        <time>2016-11-12T10:16:51Z</time>
      </trkpt>
      <trkpt lat="46.01922" lon="4.68084">
        <ele>215</ele>
        <time>2016-11-12T10:16:53Z</time>
      </trkpt>
      <trkpt lat="46.01922" lon="4.68079">
        <ele>215</ele>
        <time>2016-11-12T10:16:54Z</time>
      </trkpt>
      <trkpt lat="46.01923" lon="4.68069">
        <ele>216</ele>
        <time>2016-11-12T10:16:56Z</time>
      </trkpt>
      <trkpt lat="46.01923" lon="4.68063">
        <ele>216</ele>
        <time>2016-11-12T10:16:57Z</time>
      </trkpt>
      <trkpt lat="46.01924" lon="4.68054">
        <ele>216</ele>
        <time>2016-11-12T10:16:59Z</time>
      </trkpt>
      <trkpt lat="46.01924" lon="4.68049">
        <ele>216</ele>
        <time>2016-11-12T10:17:00Z</time>
      </trkpt>
      <trkpt lat="46.01926" lon="4.68039">
        <ele>216</ele>
        <time>2016-11-12T10:17:02Z</time>
      </trkpt>
      <trkpt lat="46.01927" lon="4.68034">
        <ele>216</ele>
        <time>2016-11-12T10:17:03Z</time>
      </trkpt>
      <trkpt lat="46.01928" lon="4.68024">
        <ele>217</ele>
        <time>2016-11-12T10:17:05Z</time>
      </trkpt>
      <trkpt lat="46.01929" lon="4.68019">
        <ele>217</ele>
        <time>2016-11-12T10:17:06Z</time>
      </trkpt>
      <trkpt lat="46.0193" lon="4.68009">
        <ele>217</ele>
        <time>2016-11-12T10:17:08Z</time>
      </trkpt>
      <trkpt lat="46.01931" lon="4.68004">
        <ele>217</ele>
        <time>2016-11-12T10:17:09Z</time>
      </trkpt>
      <trkpt lat="46.01932" lon="4.67994">
        <ele>218</ele>
        <time>2016-11-12T10:17:11Z</time>
      </trkpt>
      <trkpt lat="46.01933" lon="4.67989">
        <ele>218</ele>
        <time>2016-11-12T10:17:12Z</time>
      </trkpt>
      <trkpt lat="46.01934" lon="4.67979">
        <ele>218</ele>
        <time>2016-11-12T10:17:14Z</time>
      </trkpt>
      <trkpt lat="46.01935" lon="4.67973">
        <ele>218</ele>
        <time>2016-11-12T10:17:15Z</time>
      </trkpt>
      <trkpt lat="46.01936" lon="4.67964">
        <ele>218</ele>
        <time>2016-11-12T10:17:17Z</time>
      </trkpt>
      <trkpt lat="46.01937" lon="4.67958">
        <ele>218</ele>
        <time>2016-11-12T10:17:18Z</time>
      </trkpt>
      <trkpt lat="46.01938" lon="4.67947">
        <ele>218</ele>
        <time>2016-11-12T10:17:20Z</time>
      </trkpt>
      <trkpt lat="46.01938" lon="4.67942">
        <ele>218</ele>
        <time>2016-11-12T10:17:21Z</time>
      </trkpt>
      <trkpt lat="46.01939" lon="4.67931">
        <ele>218</ele>
        <time>2016-11-12T10:17:23Z</time>
      </trkpt>
      <trkpt lat="46.0194" lon="4.67926">
        <ele>218</ele>
        <time>2016-11-12T10:17:24Z</time>
      </trkpt>
      <trkpt lat="46.01942" lon="4.67915">
        <ele>219</ele>
        <time>2016-11-12T10:17:26Z</time>
      </trkpt>
      <trkpt lat="46.01942" lon="4.6791">
        <ele>219</ele>
        <time>2016-11-12T10:17:27Z</time>
      </trkpt>
      <trkpt lat="46.01945" lon="4.679">
        <ele>219</ele>
        <time>2016-11-12T10:17:29Z</time>
      </trkpt>
      <trkpt lat="46.01945" lon="4.67895">
        <ele>219</ele>
        <time>2016-11-12T10:17:30Z</time>
      </trkpt>
      <trkpt lat="46.01947" lon="4.67884">
        <ele>219</ele>
        <time>2016-11-12T10:17:32Z</time>
      </trkpt>
      <trkpt lat="46.01947" lon="4.67879">
        <ele>220</ele>
        <time>2016-11-12T10:17:33Z</time>
      </trkpt>
      <trkpt lat="46.01949" lon="4.67868">
        <ele>220</ele>
        <time>2016-11-12T10:17:35Z</time>
      </trkpt>
      <trkpt lat="46.01949" lon="4.67863">
        <ele>220</ele>
        <time>2016-11-12T10:17:36Z</time>
      </trkpt>
      <trkpt lat="46.01951" lon="4.67852">
        <ele>220</ele>
        <time>2016-11-12T10:17:38Z</time>
      </trkpt>
      <trkpt lat="46.01951" lon="4.67847">
        <ele>220</ele>
        <time>2016-11-12T10:17:39Z</time>
      </trkpt>
      <trkpt lat="46.01953" lon="4.67836">
        <ele>220</ele>
        <time>2016-11-12T10:17:41Z</time>
      </trkpt>
      <trkpt lat="46.01953" lon="4.67831">
        <ele>221</ele>
        <time>2016-11-12T10:17:42Z</time>
      </trkpt>
      <trkpt lat="46.01955" lon="4.67819">
        <ele>221</ele>
        <time>2016-11-12T10:17:44Z</time>
      </trkpt>
      <trkpt lat="46.01956" lon="4.67813">
        <ele>221</ele>
        <time>2016-11-12T10:17:45Z</time>
      </trkpt>
      <trkpt lat="46.01957" lon="4.67801">
        <ele>221</ele>
        <time>2016-11-12T10:17:47Z</time>
      </trkpt>
      <trkpt lat="46.01958" lon="4.67795">
        <ele>221</ele>
        <time>2016-11-12T10:17:48Z</time>
      </trkpt>
      <trkpt lat="46.0196" lon="4.67783">
        <ele>222</ele>
        <time>2016-11-12T10:17:50Z</time>
      </trkpt>
      <trkpt lat="46.0196" lon="4.67778">
        <ele>222</ele>
        <time>2016-11-12T10:17:51Z</time>
      </trkpt>
      <trkpt lat="46.01963" lon="4.67768">
        <ele>222</ele>
        <time>2016-11-12T10:17:53Z</time>
      </trkpt>
      <trkpt lat="46.01964" lon="4.67763">
        <ele>222</ele>
        <time>2016-11-12T10:17:54Z</time>
      </trkpt>
      <trkpt lat="46.01966" lon="4.67753">
        <ele>222</ele>
        <time>2016-11-12T10:17:56Z</time>
      </trkpt>
      <trkpt lat="46.01967" lon="4.67748">
        <ele>223</ele>
        <time>2016-11-12T10:17:57Z</time>
      </trkpt>
      <trkpt lat="46.01969" lon="4.67739">
        <ele>223</ele>
        <time>2016-11-12T10:17:59Z</time>
      </trkpt>
      <trkpt lat="46.01971" lon="4.67734">
        <ele>223</ele>
        <time>2016-11-12T10:18:00Z</time>
      </trkpt>
      <trkpt lat="46.01974" lon="4.67725">
        <ele>223</ele>
        <time>2016-11-12T10:18:02Z</time>
      </trkpt>
      <trkpt lat="46.01975" lon="4.6772">
        <ele>223</ele>
        <time>2016-11-12T10:18:03Z</time>
      </trkpt>
      <trkpt lat="46.01979" lon="4.6771">
        <ele>223</ele>
        <time>2016-11-12T10:18:05Z</time>
      </trkpt>
      <trkpt lat="46.0198" lon="4.67705">
        <ele>223</ele>
        <time>2016-11-12T10:18:06Z</time>
      </trkpt>
      <trkpt lat="46.01985" lon="4.67695">
        <ele>223</ele>
        <time>2016-11-12T10:18:08Z</time>
      </trkpt>
      <trkpt lat="46.01987" lon="4.6769">
        <ele>223</ele>
        <time>2016-11-12T10:18:09Z</time>
      </trkpt>
      <trkpt lat="46.01991" lon="4.67681">
        <ele>223</ele>
        <time>2016-11-12T10:18:11Z</time>
      </trkpt>
      <trkpt lat="46.01993" lon="4.67676">
        <ele>223</ele>
        <time>2016-11-12T10:18:12Z</time>
      </trkpt>
      <trkpt lat="46.01998" lon="4.67666">
        <ele>223</ele>
        <time>2016-11-12T10:18:14Z</time>
      </trkpt>
      <trkpt lat="46.02" lon="4.67661">
        <ele>223</ele>
        <time>2016-11-12T10:18:15Z</time>
      </trkpt>
      <trkpt lat="46.02006" lon="4.67652">
        <ele>223</ele>
        <time>2016-11-12T10:18:17Z</time>
      </trkpt>
      <trkpt lat="46.02009" lon="4.67647">
        <ele>223</ele>
        <time>2016-11-12T10:18:18Z</time>
      </trkpt>
      <trkpt lat="46.02014" lon="4.67638">
        <ele>223</ele>
        <time>2016-11-12T10:18:20Z</time>
      </trkpt>
      <trkpt lat="46.02017" lon="4.67634">
        <ele>223</ele>
        <time>2016-11-12T10:18:21Z</time>
      </trkpt>
      <trkpt lat="46.02023" lon="4.67625">
        <ele>224</ele>
        <time>2016-11-12T10:18:23Z</time>
      </trkpt>
      <trkpt lat="46.02026" lon="4.67621">
        <ele>224</ele>
        <time>2016-11-12T10:18:24Z</time>
      </trkpt>
      <trkpt lat="46.0203" lon="4.67617">
        <ele>224</ele>
        <time>2016-11-12T10:18:25Z</time>
      </trkpt>
      <trkpt lat="46.02033" lon="4.67612">
        <ele>224</ele>
        <time>2016-11-12T10:18:26Z</time>
      </trkpt>
      <trkpt lat="46.02037" lon="4.67608">
        <ele>224</ele>
        <time>2016-11-12T10:18:27Z</time>
      </trkpt>
      <trkpt lat="46.0204" lon="4.67603">
        <ele>224</ele>
        <time>2016-11-12T10:18:28Z</time>
      </trkpt>
      <trkpt lat="46.02044" lon="4.67598">
        <ele>224</ele>
        <time>2016-11-12T10:18:29Z</time>
      </trkpt>
      <trkpt lat="46.02047" lon="4.67593">
        <ele>224</ele>
        <time>2016-11-12T10:18:30Z</time>
      </trkpt>
      <trkpt lat="46.02051" lon="4.67587">
        <ele>224</ele>
        <time>2016-11-12T10:18:31Z</time>
      </trkpt>
      <trkpt lat="46.02055" lon="4.67582">
        <ele>225</ele>
        <time>2016-11-12T10:18:32Z</time>
      </trkpt>
      <trkpt lat="46.02058" lon="4.67578">
        <ele>225</ele>
        <time>2016-11-12T10:18:33Z</time>
      </trkpt>
      <trkpt lat="46.02062" lon="4.67573">
        <ele>225</ele>
        <time>2016-11-12T10:18:34Z</time>
      </trkpt>
      <trkpt lat="46.02066" lon="4.67568">
        <ele>225</ele>
        <time>2016-11-12T10:18:35Z</time>
      </trkpt>
      <trkpt lat="46.02069" lon="4.67563">
        <ele>225</ele>
        <time>2016-11-12T10:18:36Z</time>
      </trkpt>
      <trkpt lat="46.02073" lon="4.67558">
        <ele>225</ele>
        <time>2016-11-12T10:18:37Z</time>
      </trkpt>
      <trkpt lat="46.02076" lon="4.67553">
        <ele>225</ele>
        <time>2016-11-12T10:18:38Z</time>
      </trkpt>
      <trkpt lat="46.0208" lon="4.67549">
        <ele>225</ele>
        <time>2016-11-12T10:18:39Z</time>
      </trkpt>
      <trkpt lat="46.02084" lon="4.67544">
        <ele>224</ele>
        <time>2016-11-12T10:18:40Z</time>
      </trkpt>
      <trkpt lat="46.02087" lon="4.67538">
        <ele>224</ele>
        <time>2016-11-12T10:18:41Z</time>
      </trkpt>
      <trkpt lat="46.02091" lon="4.67533">
        <ele>224</ele>
        <time>2016-11-12T10:18:42Z</time>
      </trkpt>
      <trkpt lat="46.02095" lon="4.67528">
        <ele>224</ele>
        <time>2016-11-12T10:18:43Z</time>
      </trkpt>
      <trkpt lat="46.02098" lon="4.67523">
        <ele>224</ele>
        <time>2016-11-12T10:18:44Z</time>
      </trkpt>
      <trkpt lat="46.02101" lon="4.67518">
        <ele>224</ele>
        <time>2016-11-12T10:18:45Z</time>
      </trkpt>
      <trkpt lat="46.02105" lon="4.67513">
        <ele>224</ele>
        <time>2016-11-12T10:18:46Z</time>
      </trkpt>
      <trkpt lat="46.02109" lon="4.67508">
        <ele>224</ele>
        <time>2016-11-12T10:18:47Z</time>
      </trkpt>
      <trkpt lat="46.02113" lon="4.67503">
        <ele>223</ele>
        <time>2016-11-12T10:18:48Z</time>
      </trkpt>
      <trkpt lat="46.02117" lon="4.67497">
        <ele>224</ele>
        <time>2016-11-12T10:18:49Z</time>
      </trkpt>
      <trkpt lat="46.02121" lon="4.67493">
        <ele>224</ele>
        <time>2016-11-12T10:18:50Z</time>
      </trkpt>
      <trkpt lat="46.02125" lon="4.67487">
        <ele>224</ele>
        <time>2016-11-12T10:18:51Z</time>
      </trkpt>
      <trkpt lat="46.02128" lon="4.67483">
        <ele>223</ele>
        <time>2016-11-12T10:18:52Z</time>
      </trkpt>
      <trkpt lat="46.02132" lon="4.67478">
        <ele>223</ele>
        <time>2016-11-12T10:18:53Z</time>
      </trkpt>
      <trkpt lat="46.02136" lon="4.67473">
        <ele>223</ele>
        <time>2016-11-12T10:18:54Z</time>
      </trkpt>
      <trkpt lat="46.0214" lon="4.67468">
        <ele>223</ele>
        <time>2016-11-12T10:18:55Z</time>
      </trkpt>
      <trkpt lat="46.02143" lon="4.67463">
        <ele>223</ele>
        <time>2016-11-12T10:18:56Z</time>
      </trkpt>
      <trkpt lat="46.02147" lon="4.67458">
        <ele>223</ele>
        <time>2016-11-12T10:18:57Z</time>
      </trkpt>
      <trkpt lat="46.02151" lon="4.67453">
        <ele>224</ele>
        <time>2016-11-12T10:18:58Z</time>
      </trkpt>
      <trkpt lat="46.02155" lon="4.67448">
        <ele>224</ele>
        <time>2016-11-12T10:18:59Z</time>
      </trkpt>
      <trkpt lat="46.02159" lon="4.67444">
        <ele>224</ele>
        <time>2016-11-12T10:19:00Z</time>
      </trkpt>
      <trkpt lat="46.02162" lon="4.67439">
        <ele>224</ele>
        <time>2016-11-12T10:19:01Z</time>
      </trkpt>
      <trkpt lat="46.02165" lon="4.67434">
        <ele>224</ele>
        <time>2016-11-12T10:19:02Z</time>
      </trkpt>
      <trkpt lat="46.02169" lon="4.67429">
        <ele>224</ele>
        <time>2016-11-12T10:19:03Z</time>
      </trkpt>
      <trkpt lat="46.02172" lon="4.67425">
        <ele>224</ele>
        <time>2016-11-12T10:19:04Z</time>
      </trkpt>
      <trkpt lat="46.02175" lon="4.6742">
        <ele>224</ele>
        <time>2016-11-12T10:19:05Z</time>
      </trkpt>
      <trkpt lat="46.02179" lon="4.67415">
        <ele>225</ele>
        <time>2016-11-12T10:19:06Z</time>
      </trkpt>
      <trkpt lat="46.02182" lon="4.6741">
        <ele>226</ele>
        <time>2016-11-12T10:19:07Z</time>
      </trkpt>
      <trkpt lat="46.02185" lon="4.67405">
        <ele>226</ele>
        <time>2016-11-12T10:19:08Z</time>
      </trkpt>
      <trkpt lat="46.02191" lon="4.67396">
        <ele>227</ele>
        <time>2016-11-12T10:19:10Z</time>
      </trkpt>
      <trkpt lat="46.02193" lon="4.6739">
        <ele>227</ele>
        <time>2016-11-12T10:19:11Z</time>
      </trkpt>
      <trkpt lat="46.02196" lon="4.67385">
        <ele>227</ele>
        <time>2016-11-12T10:19:12Z</time>
      </trkpt>
      <trkpt lat="46.02198" lon="4.67379">
        <ele>227</ele>
        <time>2016-11-12T10:19:13Z</time>
      </trkpt>
      <trkpt lat="46.02201" lon="4.67367">
        <ele>228</ele>
        <time>2016-11-12T10:19:15Z</time>
      </trkpt>
      <trkpt lat="46.02203" lon="4.67361">
        <ele>228</ele>
        <time>2016-11-12T10:19:16Z</time>
      </trkpt>
      <trkpt lat="46.02205" lon="4.67349">
        <ele>228</ele>
        <time>2016-11-12T10:19:18Z</time>
      </trkpt>
      <trkpt lat="46.02206" lon="4.67343">
        <ele>228</ele>
        <time>2016-11-12T10:19:19Z</time>
      </trkpt>
      <trkpt lat="46.02209" lon="4.67331">
        <ele>230</ele>
        <time>2016-11-12T10:19:21Z</time>
      </trkpt>
      <trkpt lat="46.0221" lon="4.67325">
        <ele>230</ele>
        <time>2016-11-12T10:19:22Z</time>
      </trkpt>
      <trkpt lat="46.02211" lon="4.67319">
        <ele>230</ele>
        <time>2016-11-12T10:19:23Z</time>
      </trkpt>
      <trkpt lat="46.02212" lon="4.67312">
        <ele>230</ele>
        <time>2016-11-12T10:19:24Z</time>
      </trkpt>
      <trkpt lat="46.02213" lon="4.67306">
        <ele>230</ele>
        <time>2016-11-12T10:19:25Z</time>
      </trkpt>
      <trkpt lat="46.02214" lon="4.67299">
        <ele>230</ele>
        <time>2016-11-12T10:19:26Z</time>
      </trkpt>
      <trkpt lat="46.02216" lon="4.67287">
        <ele>231</ele>
        <time>2016-11-12T10:19:28Z</time>
      </trkpt>
      <trkpt lat="46.02217" lon="4.67282">
        <ele>231</ele>
        <time>2016-11-12T10:19:29Z</time>
      </trkpt>
      <trkpt lat="46.02218" lon="4.67272">
        <ele>231</ele>
        <time>2016-11-12T10:19:31Z</time>
      </trkpt>
      <trkpt lat="46.02218" lon="4.67267">
        <ele>231</ele>
        <time>2016-11-12T10:19:32Z</time>
      </trkpt>
      <trkpt lat="46.0222" lon="4.67257">
        <ele>231</ele>
        <time>2016-11-12T10:19:34Z</time>
      </trkpt>
      <trkpt lat="46.0222" lon="4.67252">
        <ele>231</ele>
        <time>2016-11-12T10:19:35Z</time>
      </trkpt>
      <trkpt lat="46.02222" lon="4.67242">
        <ele>233</ele>
        <time>2016-11-12T10:19:37Z</time>
      </trkpt>
      <trkpt lat="46.02223" lon="4.67237">
        <ele>233</ele>
        <time>2016-11-12T10:19:38Z</time>
      </trkpt>
      <trkpt lat="46.02225" lon="4.67228">
        <ele>233</ele>
        <time>2016-11-12T10:19:40Z</time>
      </trkpt>
      <trkpt lat="46.02225" lon="4.67223">
        <ele>233</ele>
        <time>2016-11-12T10:19:41Z</time>
      </trkpt>
      <trkpt lat="46.02227" lon="4.67212">
        <ele>233</ele>
        <time>2016-11-12T10:19:43Z</time>
      </trkpt>
      <trkpt lat="46.02228" lon="4.67208">
        <ele>233</ele>
        <time>2016-11-12T10:19:44Z</time>
      </trkpt>
      <trkpt lat="46.02229" lon="4.67197">
        <ele>233</ele>
        <time>2016-11-12T10:19:46Z</time>
      </trkpt>
      <trkpt lat="46.02229" lon="4.67192">
        <ele>233</ele>
        <time>2016-11-12T10:19:47Z</time>
      </trkpt>
      <trkpt lat="46.02231" lon="4.67183">
        <ele>233</ele>
        <time>2016-11-12T10:19:49Z</time>
      </trkpt>
      <trkpt lat="46.02232" lon="4.67178">
        <ele>234</ele>
        <time>2016-11-12T10:19:50Z</time>
      </trkpt>
      <trkpt lat="46.02235" lon="4.67169">
        <ele>234</ele>
        <time>2016-11-12T10:19:52Z</time>
      </trkpt>
      <trkpt lat="46.02237" lon="4.67164">
        <ele>234</ele>
        <time>2016-11-12T10:19:53Z</time>
      </trkpt>
      <trkpt lat="46.02239" lon="4.67154">
        <ele>234</ele>
        <time>2016-11-12T10:19:55Z</time>
      </trkpt>
      <trkpt lat="46.0224" lon="4.67149">
        <ele>234</ele>
        <time>2016-11-12T10:19:56Z</time>
      </trkpt>
      <trkpt lat="46.02242" lon="4.67139">
        <ele>234</ele>
        <time>2016-11-12T10:19:58Z</time>
      </trkpt>
      <trkpt lat="46.02244" lon="4.67134">
        <ele>234</ele>
        <time>2016-11-12T10:19:59Z</time>
      </trkpt>
      <trkpt lat="46.02246" lon="4.67124">
        <ele>234</ele>
        <time>2016-11-12T10:20:01Z</time>
      </trkpt>
      <trkpt lat="46.02248" lon="4.67119">
        <ele>234</ele>
        <time>2016-11-12T10:20:02Z</time>
      </trkpt>
      <trkpt lat="46.0225" lon="4.6711">
        <ele>234</ele>
        <time>2016-11-12T10:20:04Z</time>
      </trkpt>
      <trkpt lat="46.02251" lon="4.67105">
        <ele>236</ele>
        <time>2016-11-12T10:20:05Z</time>
      </trkpt>
      <trkpt lat="46.02254" lon="4.67095">
        <ele>236</ele>
        <time>2016-11-12T10:20:07Z</time>
      </trkpt>
      <trkpt lat="46.02256" lon="4.6709">
        <ele>236</ele>
        <time>2016-11-12T10:20:08Z</time>
      </trkpt>
      <trkpt lat="46.02259" lon="4.6708">
        <ele>236</ele>
        <time>2016-11-12T10:20:10Z</time>
      </trkpt>
      <trkpt lat="46.02261" lon="4.67075">
        <ele>236</ele>
        <time>2016-11-12T10:20:11Z</time>
      </trkpt>
      <trkpt lat="46.02263" lon="4.67065">
        <ele>237</ele>
        <time>2016-11-12T10:20:13Z</time>
      </trkpt>
      <trkpt lat="46.02264" lon="4.67061">
        <ele>237</ele>
        <time>2016-11-12T10:20:14Z</time>
      </trkpt>
      <trkpt lat="46.02265" lon="4.67052">
        <ele>237</ele>
        <time>2016-11-12T10:20:16Z</time>
      </trkpt>
      <trkpt lat="46.02266" lon="4.67048">
        <ele>237</ele>
        <time>2016-11-12T10:20:17Z</time>
      </trkpt>
      <trkpt lat="46.02268" lon="4.67038">
        <ele>237</ele>
        <time>2016-11-12T10:20:19Z</time>
      </trkpt>
      <trkpt lat="46.02269" lon="4.67033">
        <ele>237</ele>
        <time>2016-11-12T10:20:20Z</time>
      </trkpt>
      <trkpt lat="46.02271" lon="4.67023">
        <ele>236</ele>
        <time>2016-11-12T10:20:22Z</time>
      </trkpt>
      <trkpt lat="46.02271" lon="4.67018">
        <ele>236</ele>
        <time>2016-11-12T10:20:23Z</time>
      </trkpt>
      <trkpt lat="46.02272" lon="4.67007">
        <ele>236</ele>
        <time>2016-11-12T10:20:25Z</time>
      </trkpt>
      <trkpt lat="46.02273" lon="4.67003">
        <ele>236</ele>
        <time>2016-11-12T10:20:26Z</time>
      </trkpt>
      <trkpt lat="46.02274" lon="4.66993">
        <ele>237</ele>
        <time>2016-11-12T10:20:28Z</time>
      </trkpt>
      <trkpt lat="46.02275" lon="4.66989">
        <ele>237</ele>
        <time>2016-11-12T10:20:29Z</time>
      </trkpt>
      <trkpt lat="46.02275" lon="4.6698">
        <ele>238</ele>
        <time>2016-11-12T10:20:31Z</time>
      </trkpt>
      <trkpt lat="46.02275" lon="4.66976">
        <ele>238</ele>
        <time>2016-11-12T10:20:32Z</time>
      </trkpt>
      <trkpt lat="46.02276" lon="4.66966">
        <ele>238</ele>
        <time>2016-11-12T10:20:34Z</time>
      </trkpt>
      <trkpt lat="46.02276" lon="4.66962">
        <ele>238</ele>
        <time>2016-11-12T10:20:35Z</time>
      </trkpt>
      <trkpt lat="46.02277" lon="4.66952">
        <ele>239</ele>
        <time>2016-11-12T10:20:37Z</time>
      </trkpt>
      <trkpt lat="46.02278" lon="4.66948">
        <ele>239</ele>
        <time>2016-11-12T10:20:38Z</time>
      </trkpt>
      <trkpt lat="46.02279" lon="4.66938">
        <ele>239</ele>
        <time>2016-11-12T10:20:40Z</time>
      </trkpt>
      <trkpt lat="46.02279" lon="4.66933">
        <ele>239</ele>
        <time>2016-11-12T10:20:41Z</time>
      </trkpt>
      <trkpt lat="46.02279" lon="4.66924">
        <ele>239</ele>
        <time>2016-11-12T10:20:43Z</time>
      </trkpt>
      <trkpt lat="46.02279" lon="4.66919">
        <ele>239</ele>
        <time>2016-11-12T10:20:44Z</time>
      </trkpt>
      <trkpt lat="46.0228" lon="4.6691">
        <ele>240</ele>
        <time>2016-11-12T10:20:46Z</time>
      </trkpt>
      <trkpt lat="46.02281" lon="4.66906">
        <ele>240</ele>
        <time>2016-11-12T10:20:47Z</time>
      </trkpt>
      <trkpt lat="46.02282" lon="4.66897">
        <ele>241</ele>
        <time>2016-11-12T10:20:49Z</time>
      </trkpt>
      <trkpt lat="46.02282" lon="4.66892">
        <ele>241</ele>
        <time>2016-11-12T10:20:50Z</time>
      </trkpt>
      <trkpt lat="46.02283" lon="4.66883">
        <ele>241</ele>
        <time>2016-11-12T10:20:52Z</time>
      </trkpt>
      <trkpt lat="46.02283" lon="4.66879">
        <ele>241</ele>
        <time>2016-11-12T10:20:53Z</time>
      </trkpt>
      <trkpt lat="46.02285" lon="4.6687">
        <ele>241</ele>
        <time>2016-11-12T10:20:55Z</time>
      </trkpt>
      <trkpt lat="46.02287" lon="4.66866">
        <ele>241</ele>
        <time>2016-11-12T10:20:56Z</time>
      </trkpt>
      <trkpt lat="46.02288" lon="4.66856">
        <ele>241</ele>
        <time>2016-11-12T10:20:58Z</time>
      </trkpt>
      <trkpt lat="46.02289" lon="4.66851">
        <ele>241</ele>
        <time>2016-11-12T10:20:59Z</time>
      </trkpt>
      <trkpt lat="46.02291" lon="4.66842">
        <ele>241</ele>
        <time>2016-11-12T10:21:01Z</time>
      </trkpt>
      <trkpt lat="46.02292" lon="4.66837">
        <ele>242</ele>
        <time>2016-11-12T10:21:02Z</time>
      </trkpt>
      <trkpt lat="46.02295" lon="4.66828">
        <ele>242</ele>
        <time>2016-11-12T10:21:04Z</time>
      </trkpt>
      <trkpt lat="46.02296" lon="4.66823">
        <ele>242</ele>
        <time>2016-11-12T10:21:05Z</time>
      </trkpt>
      <trkpt lat="46.023" lon="4.66814">
        <ele>242</ele>
        <time>2016-11-12T10:21:07Z</time>
      </trkpt>
      <trkpt lat="46.02302" lon="4.6681">
        <ele>242</ele>
        <time>2016-11-12T10:21:08Z</time>
      </trkpt>
      <trkpt lat="46.02305" lon="4.66801">
        <ele>242</ele>
        <time>2016-11-12T10:21:10Z</time>
      </trkpt>
      <trkpt lat="46.02307" lon="4.66796">
        <ele>242</ele>
        <time>2016-11-12T10:21:11Z</time>
      </trkpt>
      <trkpt lat="46.02311" lon="4.66788">
        <ele>243</ele>
        <time>2016-11-12T10:21:13Z</time>
      </trkpt>
      <trkpt lat="46.02312" lon="4.66783">
        <ele>243</ele>
        <time>2016-11-12T10:21:14Z</time>
      </trkpt>
      <trkpt lat="46.02315" lon="4.66774">
        <ele>243</ele>
        <time>2016-11-12T10:21:16Z</time>
      </trkpt>
      <trkpt lat="46.02317" lon="4.6677">
        <ele>243</ele>
        <time>2016-11-12T10:21:17Z</time>
      </trkpt>
      <trkpt lat="46.02322" lon="4.6676">
        <ele>243</ele>
        <time>2016-11-12T10:21:19Z</time>
      </trkpt>
      <trkpt lat="46.02324" lon="4.66755">
        <ele>243</ele>
        <time>2016-11-12T10:21:20Z</time>
      </trkpt>
      <trkpt lat="46.02327" lon="4.66746">
        <ele>244</ele>
        <time>2016-11-12T10:21:22Z</time>
      </trkpt>
      <trkpt lat="46.02329" lon="4.66742">
        <ele>243</ele>
        <time>2016-11-12T10:21:23Z</time>
      </trkpt>
      <trkpt lat="46.02332" lon="4.66733">
        <ele>243</ele>
        <time>2016-11-12T10:21:25Z</time>
      </trkpt>
      <trkpt lat="46.02334" lon="4.66728">
        <ele>246</ele>
        <time>2016-11-12T10:21:26Z</time>
      </trkpt>
      <trkpt lat="46.02338" lon="4.6672">
        <ele>246</ele>
        <time>2016-11-12T10:21:28Z</time>
      </trkpt>
      <trkpt lat="46.02339" lon="4.66716">
        <ele>246</ele>
        <time>2016-11-12T10:21:29Z</time>
      </trkpt>
      <trkpt lat="46.02343" lon="4.66707">
        <ele>246</ele>
        <time>2016-11-12T10:21:31Z</time>
      </trkpt>
      <trkpt lat="46.02345" lon="4.66703">
        <ele>246</ele>
        <time>2016-11-12T10:21:32Z</time>
      </trkpt>
      <trkpt lat="46.02348" lon="4.66694">
        <ele>246</ele>
        <time>2016-11-12T10:21:34Z</time>
      </trkpt>
      <trkpt lat="46.0235" lon="4.6669">
        <ele>246</ele>
        <time>2016-11-12T10:21:35Z</time>
      </trkpt>
      <trkpt lat="46.02353" lon="4.66681">
        <ele>246</ele>
        <time>2016-11-12T10:21:37Z</time>
      </trkpt>
      <trkpt lat="46.02355" lon="4.66677">
        <ele>246</ele>
        <time>2016-11-12T10:21:38Z</time>
      </trkpt>
      <trkpt lat="46.02358" lon="4.66669">
        <ele>246</ele>
        <time>2016-11-12T10:21:40Z</time>
      </trkpt>
      <trkpt lat="46.0236" lon="4.66665">
        <ele>248</ele>
        <time>2016-11-12T10:21:41Z</time>
      </trkpt>
      <trkpt lat="46.02364" lon="4.66656">
        <ele>248</ele>
        <time>2016-11-12T10:21:43Z</time>
      </trkpt>
      <trkpt lat="46.02365" lon="4.66652">
        <ele>248</ele>
        <time>2016-11-12T10:21:44Z</time>
      </trkpt>
      <trkpt lat="46.02368" lon="4.66643">
        <ele>248</ele>
        <time>2016-11-12T10:21:46Z</time>
      </trkpt>
      <trkpt lat="46.0237" lon="4.66638">
        <ele>249</ele>
        <time>2016-11-12T10:21:47Z</time>
      </trkpt>
      <trkpt lat="46.02373" lon="4.66629">
        <ele>249</ele>
        <time>2016-11-12T10:21:49Z</time>
      </trkpt>
      <trkpt lat="46.02374" lon="4.66625">
        <ele>249</ele>
        <time>2016-11-12T10:21:50Z</time>
      </trkpt>
      <trkpt lat="46.02378" lon="4.66616">
        <ele>249</ele>
        <time>2016-11-12T10:21:52Z</time>
      </trkpt>
      <trkpt lat="46.0238" lon="4.66612">
        <ele>249</ele>
        <time>2016-11-12T10:21:53Z</time>
      </trkpt>
      <trkpt lat="46.02383" lon="4.66604">
        <ele>250</ele>
        <time>2016-11-12T10:21:55Z</time>
      </trkpt>
      <trkpt lat="46.02385" lon="4.666">
        <ele>250</ele>
        <time>2016-11-12T10:21:56Z</time>
      </trkpt>
      <trkpt lat="46.02388" lon="4.66591">
        <ele>250</ele>
        <time>2016-11-12T10:21:58Z</time>
      </trkpt>
      <trkpt lat="46.0239" lon="4.66587">
        <ele>250</ele>
        <time>2016-11-12T10:21:59Z</time>
      </trkpt>
      <trkpt lat="46.02393" lon="4.66578">
        <ele>252</ele>
        <time>2016-11-12T10:22:01Z</time>
      </trkpt>
      <trkpt lat="46.02395" lon="4.66574">
        <ele>252</ele>
        <time>2016-11-12T10:22:02Z</time>
      </trkpt>
      <trkpt lat="46.02399" lon="4.66565">
        <ele>252</ele>
        <time>2016-11-12T10:22:04Z</time>
      </trkpt>
      <trkpt lat="46.02401" lon="4.66561">
        <ele>252</ele>
        <time>2016-11-12T10:22:05Z</time>
      </trkpt>
      <trkpt lat="46.02404" lon="4.66551">
        <ele>252</ele>
        <time>2016-11-12T10:22:07Z</time>
      </trkpt>
      <trkpt lat="46.02406" lon="4.66547">
        <ele>253</ele>
        <time>2016-11-12T10:22:08Z</time>
      </trkpt>
      <trkpt lat="46.02408" lon="4.66537">
        <ele>253</ele>
        <time>2016-11-12T10:22:10Z</time>
      </trkpt>
      <trkpt lat="46.0241" lon="4.66532">
        <ele>253</ele>
        <time>2016-11-12T10:22:11Z</time>
      </trkpt>
      <trkpt lat="46.02413" lon="4.66523">
        <ele>253</ele>
        <time>2016-11-12T10:22:13Z</time>
      </trkpt>
      <trkpt lat="46.02414" lon="4.66518">
        <ele>254</ele>
        <time>2016-11-12T10:22:14Z</time>
      </trkpt>
      <trkpt lat="46.02416" lon="4.66508">
        <ele>254</ele>
        <time>2016-11-12T10:22:16Z</time>
      </trkpt>
      <trkpt lat="46.02418" lon="4.66503">
        <ele>255</ele>
        <time>2016-11-12T10:22:17Z</time>
      </trkpt>
      <trkpt lat="46.02421" lon="4.66494">
        <ele>255</ele>
        <time>2016-11-12T10:22:19Z</time>
      </trkpt>
      <trkpt lat="46.02423" lon="4.66489">
        <ele>255</ele>
        <time>2016-11-12T10:22:20Z</time>
      </trkpt>
      <trkpt lat="46.02425" lon="4.66478">
        <ele>255</ele>
        <time>2016-11-12T10:22:22Z</time>
      </trkpt>
      <trkpt lat="46.02426" lon="4.66473">
        <ele>255</ele>
        <time>2016-11-12T10:22:23Z</time>
      </trkpt>
      <trkpt lat="46.02429" lon="4.66464">
        <ele>254</ele>
        <time>2016-11-12T10:22:25Z</time>
      </trkpt>
      <trkpt lat="46.02431" lon="4.66458">
        <ele>254</ele>
        <time>2016-11-12T10:22:26Z</time>
      </trkpt>
      <trkpt lat="46.02434" lon="4.66449">
        <ele>254</ele>
        <time>2016-11-12T10:22:28Z</time>
      </trkpt>
      <trkpt lat="46.02435" lon="4.66445">
        <ele>254</ele>
        <time>2016-11-12T10:22:29Z</time>
      </trkpt>
      <trkpt lat="46.02438" lon="4.66435">
        <ele>254</ele>
        <time>2016-11-12T10:22:31Z</time>
      </trkpt>
      <trkpt lat="46.02439" lon="4.6643">
        <ele>254</ele>
        <time>2016-11-12T10:22:32Z</time>
      </trkpt>
      <trkpt lat="46.02441" lon="4.6642">
        <ele>254</ele>
        <time>2016-11-12T10:22:34Z</time>
      </trkpt>
      <trkpt lat="46.02443" lon="4.66414">
        <ele>255</ele>
        <time>2016-11-12T10:22:35Z</time>
      </trkpt>
      <trkpt lat="46.02445" lon="4.66405">
        <ele>255</ele>
        <time>2016-11-12T10:22:37Z</time>
      </trkpt>
      <trkpt lat="46.02447" lon="4.664">
        <ele>255</ele>
        <time>2016-11-12T10:22:38Z</time>
      </trkpt>
      <trkpt lat="46.02449" lon="4.6639">
        <ele>255</ele>
        <time>2016-11-12T10:22:40Z</time>
      </trkpt>
      <trkpt lat="46.02451" lon="4.66385">
        <ele>255</ele>
        <time>2016-11-12T10:22:41Z</time>
      </trkpt>
      <trkpt lat="46.02453" lon="4.66375">
        <ele>255</ele>
        <time>2016-11-12T10:22:43Z</time>
      </trkpt>
      <trkpt lat="46.02455" lon="4.66369">
        <ele>255</ele>
        <time>2016-11-12T10:22:44Z</time>
      </trkpt>
      <trkpt lat="46.02457" lon="4.66358">
        <ele>255</ele>
        <time>2016-11-12T10:22:46Z</time>
      </trkpt>
      <trkpt lat="46.02459" lon="4.66353">
        <ele>255</ele>
        <time>2016-11-12T10:22:47Z</time>
      </trkpt>
      <trkpt lat="46.02462" lon="4.66342">
        <ele>255</ele>
        <time>2016-11-12T10:22:49Z</time>
      </trkpt>
      <trkpt lat="46.02464" lon="4.66336">
        <ele>255</ele>
        <time>2016-11-12T10:22:50Z</time>
      </trkpt>
      <trkpt lat="46.02466" lon="4.6633">
        <ele>256</ele>
        <time>2016-11-12T10:22:51Z</time>
      </trkpt>
      <trkpt lat="46.02467" lon="4.66324">
        <ele>256</ele>
        <time>2016-11-12T10:22:52Z</time>
      </trkpt>
      <trkpt lat="46.0247" lon="4.66312">
        <ele>256</ele>
        <time>2016-11-12T10:22:54Z</time>
      </trkpt>
      <trkpt lat="46.02472" lon="4.66306">
        <ele>256</ele>
        <time>2016-11-12T10:22:55Z</time>
      </trkpt>
      <trkpt lat="46.02474" lon="4.663">
        <ele>256</ele>
        <time>2016-11-12T10:22:56Z</time>
      </trkpt>
      <trkpt lat="46.02476" lon="4.66294">
        <ele>256</ele>
        <time>2016-11-12T10:22:57Z</time>
      </trkpt>
      <trkpt lat="46.02477" lon="4.66288">
        <ele>255</ele>
        <time>2016-11-12T10:22:58Z</time>
      </trkpt>
      <trkpt lat="46.02479" lon="4.66281">
        <ele>255</ele>
        <time>2016-11-12T10:22:59Z</time>
      </trkpt>
      <trkpt lat="46.0248" lon="4.66275">
        <ele>255</ele>
        <time>2016-11-12T10:23:00Z</time>
      </trkpt>
      <trkpt lat="46.02482" lon="4.66268">
        <ele>255</ele>
        <time>2016-11-12T10:23:01Z</time>
      </trkpt>
      <trkpt lat="46.02484" lon="4.66261">
        <ele>255</ele>
        <time>2016-11-12T10:23:02Z</time>
      </trkpt>
      <trkpt lat="46.02486" lon="4.66255">
        <ele>255</ele>
        <time>2016-11-12T10:23:03Z</time>
      </trkpt>
      <trkpt lat="46.02488" lon="4.66248">
        <ele>255</ele>
        <time>2016-11-12T10:23:04Z</time>
      </trkpt>
      <trkpt lat="46.02489" lon="4.66241">
        <ele>255</ele>
        <time>2016-11-12T10:23:05Z</time>
      </trkpt>
      <trkpt lat="46.0249" lon="4.66234">
        <ele>255</ele>
        <time>2016-11-12T10:23:06Z</time>
      </trkpt>
      <trkpt lat="46.02491" lon="4.66227">
        <ele>255</ele>
        <time>2016-11-12T10:23:07Z</time>
      </trkpt>
      <trkpt lat="46.02492" lon="4.66221">
        <ele>255</ele>
        <time>2016-11-12T10:23:08Z</time>
      </trkpt>
      <trkpt lat="46.02493" lon="4.66214">
        <ele>255</ele>
        <time>2016-11-12T10:23:09Z</time>
      </trkpt>
      <trkpt lat="46.02493" lon="4.66207">
        <ele>255</ele>
        <time>2016-11-12T10:23:10Z</time>
      </trkpt>
      <trkpt lat="46.02494" lon="4.662">
        <ele>255</ele>
        <time>2016-11-12T10:23:11Z</time>
      </trkpt>
      <trkpt lat="46.02495" lon="4.66194">
        <ele>255</ele>
        <time>2016-11-12T10:23:12Z</time>
      </trkpt>
      <trkpt lat="46.02496" lon="4.66187">
        <ele>255</ele>
        <time>2016-11-12T10:23:13Z</time>
      </trkpt>
      <trkpt lat="46.02497" lon="4.66179">
        <ele>254</ele>
        <time>2016-11-12T10:23:14Z</time>
      </trkpt>
      <trkpt lat="46.02497" lon="4.66172">
        <ele>254</ele>
        <time>2016-11-12T10:23:15Z</time>
      </trkpt>
      <trkpt lat="46.02498" lon="4.66165">
        <ele>254</ele>
        <time>2016-11-12T10:23:16Z</time>
      </trkpt>
      <trkpt lat="46.02499" lon="4.66158">
        <ele>254</ele>
        <time>2016-11-12T10:23:17Z</time>
      </trkpt>
      <trkpt lat="46.025" lon="4.6615">
        <ele>254</ele>
        <time>2016-11-12T10:23:18Z</time>
      </trkpt>
      <trkpt lat="46.02501" lon="4.66143">
        <ele>250</ele>
        <time>2016-11-12T10:23:19Z</time>
      </trkpt>
      <trkpt lat="46.02502" lon="4.66135">
        <ele>249</ele>
        <time>2016-11-12T10:23:20Z</time>
      </trkpt>
      <trkpt lat="46.02503" lon="4.66126">
        <ele>249</ele>
        <time>2016-11-12T10:23:21Z</time>
      </trkpt>
      <trkpt lat="46.02504" lon="4.66118">
        <ele>249</ele>
        <time>2016-11-12T10:23:22Z</time>
      </trkpt>
      <trkpt lat="46.02505" lon="4.66109">
        <ele>249</ele>
        <time>2016-11-12T10:23:23Z</time>
      </trkpt>
      <trkpt lat="46.02506" lon="4.661">
        <ele>249</ele>
        <time>2016-11-12T10:23:24Z</time>
      </trkpt>
      <trkpt lat="46.02506" lon="4.66091">
        <ele>250</ele>
        <time>2016-11-12T10:23:25Z</time>
      </trkpt>
      <trkpt lat="46.02508" lon="4.66082">
        <ele>250</ele>
        <time>2016-11-12T10:23:26Z</time>
      </trkpt>
      <trkpt lat="46.02509" lon="4.66073">
        <ele>249</ele>
        <time>2016-11-12T10:23:27Z</time>
      </trkpt>
      <trkpt lat="46.0251" lon="4.66063">
        <ele>248</ele>
        <time>2016-11-12T10:23:28Z</time>
      </trkpt>
      <trkpt lat="46.02511" lon="4.66053">
        <ele>247</ele>
        <time>2016-11-12T10:23:29Z</time>
      </trkpt>
      <trkpt lat="46.02512" lon="4.66043">
        <ele>247</ele>
        <time>2016-11-12T10:23:30Z</time>
      </trkpt>
      <trkpt lat="46.02512" lon="4.66032">
        <ele>247</ele>
        <time>2016-11-12T10:23:31Z</time>
      </trkpt>
      <trkpt lat="46.02512" lon="4.66021">
        <ele>247</ele>
        <time>2016-11-12T10:23:32Z</time>
      </trkpt>
      <trkpt lat="46.02514" lon="4.65999">
        <ele>247</ele>
        <time>2016-11-12T10:23:34Z</time>
      </trkpt>
      <trkpt lat="46.02515" lon="4.65988">
        <ele>247</ele>
        <time>2016-11-12T10:23:35Z</time>
      </trkpt>
      <trkpt lat="46.02518" lon="4.65978">
        <ele>246</ele>
        <time>2016-11-12T10:23:36Z</time>
      </trkpt>
      <trkpt lat="46.02514" lon="4.65965">
        <ele>246</ele>
        <time>2016-11-12T10:23:37Z</time>
      </trkpt>
      <trkpt lat="46.02516" lon="4.65954">
        <ele>246</ele>
        <time>2016-11-12T10:23:38Z</time>
      </trkpt>
      <trkpt lat="46.02516" lon="4.65908">
        <ele>245</ele>
        <time>2016-11-12T10:23:42Z</time>
      </trkpt>
      <trkpt lat="46.02516" lon="4.65896">
        <ele>245</ele>
        <time>2016-11-12T10:23:43Z</time>
      </trkpt>
      <trkpt lat="46.02516" lon="4.65885">
        <ele>244</ele>
        <time>2016-11-12T10:23:44Z</time>
      </trkpt>
      <trkpt lat="46.02516" lon="4.65873">
        <ele>244</ele>
        <time>2016-11-12T10:23:45Z</time>
      </trkpt>
      <trkpt lat="46.02516" lon="4.65861">
        <ele>244</ele>
        <time>2016-11-12T10:23:46Z</time>
      </trkpt>
      <trkpt lat="46.02515" lon="4.65849">
        <ele>244</ele>
        <time>2016-11-12T10:23:47Z</time>
      </trkpt>
      <trkpt lat="46.02514" lon="4.65837">
        <ele>245</ele>
        <time>2016-11-12T10:23:48Z</time>
      </trkpt>
      <trkpt lat="46.02513" lon="4.65825">
        <ele>244</ele>
        <time>2016-11-12T10:23:49Z</time>
      </trkpt>
      <trkpt lat="46.02513" lon="4.65813">
        <ele>244</ele>
        <time>2016-11-12T10:23:50Z</time>
      </trkpt>
      <trkpt lat="46.02513" lon="4.65801">
        <ele>243</ele>
        <time>2016-11-12T10:23:51Z</time>
      </trkpt>
      <trkpt lat="46.02514" lon="4.65777">
        <ele>243</ele>
        <time>2016-11-12T10:23:53Z</time>
      </trkpt>
      <trkpt lat="46.02517" lon="4.65762">
        <ele>243</ele>
        <time>2016-11-12T10:23:54Z</time>
      </trkpt>
      <trkpt lat="46.02517" lon="4.65748">
        <ele>244</ele>
        <time>2016-11-12T10:23:55Z</time>
      </trkpt>
      <trkpt lat="46.02517" lon="4.65737">
        <ele>244</ele>
        <time>2016-11-12T10:23:56Z</time>
      </trkpt>
      <trkpt lat="46.02517" lon="4.65725">
        <ele>244</ele>
        <time>2016-11-12T10:23:57Z</time>
      </trkpt>
      <trkpt lat="46.02518" lon="4.65713">
        <ele>245</ele>
        <time>2016-11-12T10:23:58Z</time>
      </trkpt>
      <trkpt lat="46.02519" lon="4.65703">
        <ele>245</ele>
        <time>2016-11-12T10:23:59Z</time>
      </trkpt>
      <trkpt lat="46.02521" lon="4.65693">
        <ele>245</ele>
        <time>2016-11-12T10:24:00Z</time>
      </trkpt>
      <trkpt lat="46.02522" lon="4.65683">
        <ele>246</ele>
        <time>2016-11-12T10:24:01Z</time>
      </trkpt>
      <trkpt lat="46.02523" lon="4.65673">
        <ele>246</ele>
        <time>2016-11-12T10:24:02Z</time>
      </trkpt>
      <trkpt lat="46.02524" lon="4.65664">
        <ele>247</ele>
        <time>2016-11-12T10:24:03Z</time>
      </trkpt>
      <trkpt lat="46.02524" lon="4.65654">
        <ele>247</ele>
        <time>2016-11-12T10:24:04Z</time>
      </trkpt>
      <trkpt lat="46.02525" lon="4.65645">
        <ele>247</ele>
        <time>2016-11-12T10:24:05Z</time>
      </trkpt>
      <trkpt lat="46.02525" lon="4.65636">
        <ele>247</ele>
        <time>2016-11-12T10:24:06Z</time>
      </trkpt>
      <trkpt lat="46.02526" lon="4.65628">
        <ele>247</ele>
        <time>2016-11-12T10:24:07Z</time>
      </trkpt>
      <trkpt lat="46.02527" lon="4.65619">
        <ele>247</ele>
        <time>2016-11-12T10:24:08Z</time>
      </trkpt>
      <trkpt lat="46.02528" lon="4.65612">
        <ele>247</ele>
        <time>2016-11-12T10:24:09Z</time>
      </trkpt>
      <trkpt lat="46.02529" lon="4.65605">
        <ele>247</ele>
        <time>2016-11-12T10:24:10Z</time>
      </trkpt>
      <trkpt lat="46.0253" lon="4.65597">
        <ele>247</ele>
        <time>2016-11-12T10:24:11Z</time>
      </trkpt>
      <trkpt lat="46.02532" lon="4.65589">
        <ele>247</ele>
        <time>2016-11-12T10:24:12Z</time>
      </trkpt>
      <trkpt lat="46.02534" lon="4.65581">
        <ele>248</ele>
        <time>2016-11-12T10:24:13Z</time>
      </trkpt>
      <trkpt lat="46.02535" lon="4.65574">
        <ele>248</ele>
        <time>2016-11-12T10:24:14Z</time>
      </trkpt>
      <trkpt lat="46.02537" lon="4.65566">
        <ele>248</ele>
        <time>2016-11-12T10:24:15Z</time>
      </trkpt>
      <trkpt lat="46.02539" lon="4.65559">
        <ele>248</ele>
        <time>2016-11-12T10:24:16Z</time>
      </trkpt>
      <trkpt lat="46.0254" lon="4.65551">
        <ele>248</ele>
        <time>2016-11-12T10:24:17Z</time>
      </trkpt>
      <trkpt lat="46.02542" lon="4.65543">
        <ele>248</ele>
        <time>2016-11-12T10:24:18Z</time>
      </trkpt>
      <trkpt lat="46.02543" lon="4.65536">
        <ele>248</ele>
        <time>2016-11-12T10:24:19Z</time>
      </trkpt>
      <trkpt lat="46.02545" lon="4.65528">
        <ele>248</ele>
        <time>2016-11-12T10:24:20Z</time>
      </trkpt>
      <trkpt lat="46.02545" lon="4.65521">
        <ele>248</ele>
        <time>2016-11-12T10:24:21Z</time>
      </trkpt>
      <trkpt lat="46.02546" lon="4.65515">
        <ele>247</ele>
        <time>2016-11-12T10:24:22Z</time>
      </trkpt>
      <trkpt lat="46.02547" lon="4.65507">
        <ele>247</ele>
        <time>2016-11-12T10:24:23Z</time>
      </trkpt>
      <trkpt lat="46.02545" lon="4.65495">
        <ele>248</ele>
        <time>2016-11-12T10:24:25Z</time>
      </trkpt>
      <trkpt lat="46.02547" lon="4.65486">
        <ele>248</ele>
        <time>2016-11-12T10:24:26Z</time>
      </trkpt>
      <trkpt lat="46.02546" lon="4.65478">
        <ele>248</ele>
        <time>2016-11-12T10:24:27Z</time>
      </trkpt>
      <trkpt lat="46.02546" lon="4.65469">
        <ele>248</ele>
        <time>2016-11-12T10:24:28Z</time>
      </trkpt>
      <trkpt lat="46.02547" lon="4.65459">
        <ele>248</ele>
        <time>2016-11-12T10:24:29Z</time>
      </trkpt>
      <trkpt lat="46.02548" lon="4.65449">
        <ele>248</ele>
        <time>2016-11-12T10:24:30Z</time>
      </trkpt>
      <trkpt lat="46.02548" lon="4.65439">
        <ele>248</ele>
        <time>2016-11-12T10:24:31Z</time>
      </trkpt>
      <trkpt lat="46.0255" lon="4.65429">
        <ele>248</ele>
        <time>2016-11-12T10:24:32Z</time>
      </trkpt>
      <trkpt lat="46.0255" lon="4.6542">
        <ele>248</ele>
        <time>2016-11-12T10:24:33Z</time>
      </trkpt>
      <trkpt lat="46.02549" lon="4.65412">
        <ele>249</ele>
        <time>2016-11-12T10:24:34Z</time>
      </trkpt>
      <trkpt lat="46.02551" lon="4.65389">
        <ele>249</ele>
        <time>2016-11-12T10:24:37Z</time>
      </trkpt>
      <trkpt lat="46.02552" lon="4.65382">
        <ele>249</ele>
        <time>2016-11-12T10:24:38Z</time>
      </trkpt>
      <trkpt lat="46.02555" lon="4.65376">
        <ele>249</ele>
        <time>2016-11-12T10:24:39Z</time>
      </trkpt>
      <trkpt lat="46.02558" lon="4.65371">
        <ele>249</ele>
        <time>2016-11-12T10:24:40Z</time>
      </trkpt>
      <trkpt lat="46.02562" lon="4.65367">
        <ele>249</ele>
        <time>2016-11-12T10:24:41Z</time>
      </trkpt>
      <trkpt lat="46.02567" lon="4.65366">
        <ele>248</ele>
        <time>2016-11-12T10:24:42Z</time>
      </trkpt>
      <trkpt lat="46.02571" lon="4.65365">
        <ele>248</ele>
        <time>2016-11-12T10:24:43Z</time>
      </trkpt>
      <trkpt lat="46.02577" lon="4.65364">
        <ele>248</ele>
        <time>2016-11-12T10:24:44Z</time>
      </trkpt>
      <trkpt lat="46.02584" lon="4.65363">
        <ele>245</ele>
        <time>2016-11-12T10:24:45Z</time>
      </trkpt>
      <trkpt lat="46.0259" lon="4.65364">
        <ele>245</ele>
        <time>2016-11-12T10:24:46Z</time>
      </trkpt>
      <trkpt lat="46.02599" lon="4.65365">
        <ele>245</ele>
        <time>2016-11-12T10:24:47Z</time>
      </trkpt>
      <trkpt lat="46.02596" lon="4.65346">
        <ele>246</ele>
        <time>2016-11-12T10:24:48Z</time>
      </trkpt>
      <trkpt lat="46.02603" lon="4.65338">
        <ele>246</ele>
        <time>2016-11-12T10:24:49Z</time>
      </trkpt>
      <trkpt lat="46.02607" lon="4.65332">
        <ele>246</ele>
        <time>2016-11-12T10:24:50Z</time>
      </trkpt>
      <trkpt lat="46.02611" lon="4.65327">
        <ele>246</ele>
        <time>2016-11-12T10:24:51Z</time>
      </trkpt>
      <trkpt lat="46.02617" lon="4.65326">
        <ele>246</ele>
        <time>2016-11-12T10:24:52Z</time>
      </trkpt>
      <trkpt lat="46.02621" lon="4.65322">
        <ele>246</ele>
        <time>2016-11-12T10:24:53Z</time>
      </trkpt>
      <trkpt lat="46.02626" lon="4.65319">
        <ele>246</ele>
        <time>2016-11-12T10:24:54Z</time>
      </trkpt>
      <trkpt lat="46.02631" lon="4.65316">
        <ele>246</ele>
        <time>2016-11-12T10:24:55Z</time>
      </trkpt>
      <trkpt lat="46.02634" lon="4.65311">
        <ele>246</ele>
        <time>2016-11-12T10:24:56Z</time>
      </trkpt>
      <trkpt lat="46.02637" lon="4.65299">
        <ele>246</ele>
        <time>2016-11-12T10:24:58Z</time>
      </trkpt>
      <trkpt lat="46.02637" lon="4.65293">
        <ele>246</ele>
        <time>2016-11-12T10:24:59Z</time>
      </trkpt>
      <trkpt lat="46.02636" lon="4.65286">
        <ele>247</ele>
        <time>2016-11-12T10:25:00Z</time>
      </trkpt>
      <trkpt lat="46.02635" lon="4.65279">
        <ele>247</ele>
        <time>2016-11-12T10:25:01Z</time>
      </trkpt>
      <trkpt lat="46.02635" lon="4.65272">
        <ele>247</ele>
        <time>2016-11-12T10:25:02Z</time>
      </trkpt>
      <trkpt lat="46.02633" lon="4.65266">
        <ele>247</ele>
        <time>2016-11-12T10:25:03Z</time>
      </trkpt>
      <trkpt lat="46.02632" lon="4.65259">
        <ele>247</ele>
        <time>2016-11-12T10:25:04Z</time>
      </trkpt>
      <trkpt lat="46.02631" lon="4.65253">
        <ele>247</ele>
        <time>2016-11-12T10:25:05Z</time>
      </trkpt>
      <trkpt lat="46.0263" lon="4.65246">
        <ele>248</ele>
        <time>2016-11-12T10:25:06Z</time>
      </trkpt>
      <trkpt lat="46.02629" lon="4.65239">
        <ele>248</ele>
        <time>2016-11-12T10:25:07Z</time>
      </trkpt>
      <trkpt lat="46.02623" lon="4.65236">
        <ele>248</ele>
        <time>2016-11-12T10:25:08Z</time>
      </trkpt>
      <trkpt lat="46.0262" lon="4.65228">
        <ele>248</ele>
        <time>2016-11-12T10:25:09Z</time>
      </trkpt>
      <trkpt lat="46.02618" lon="4.65222">
        <ele>248</ele>
        <time>2016-11-12T10:25:10Z</time>
      </trkpt>
      <trkpt lat="46.02616" lon="4.65215">
        <ele>248</ele>
        <time>2016-11-12T10:25:11Z</time>
      </trkpt>
      <trkpt lat="46.02615" lon="4.65208">
        <ele>248</ele>
        <time>2016-11-12T10:25:12Z</time>
      </trkpt>
      <trkpt lat="46.02612" lon="4.65203">
        <ele>248</ele>
        <time>2016-11-12T10:25:13Z</time>
      </trkpt>
      <trkpt lat="46.02609" lon="4.65198">
        <ele>248</ele>
        <time>2016-11-12T10:25:14Z</time>
      </trkpt>
      <trkpt lat="46.02606" lon="4.65193">
        <ele>248</ele>
        <time>2016-11-12T10:25:15Z</time>
      </trkpt>
      <trkpt lat="46.02602" lon="4.65182">
        <ele>248</ele>
        <time>2016-11-12T10:25:17Z</time>
      </trkpt>
      <trkpt lat="46.026" lon="4.65177">
        <ele>248</ele>
        <time>2016-11-12T10:25:18Z</time>
      </trkpt>
      <trkpt lat="46.02596" lon="4.65166">
        <ele>249</ele>
        <time>2016-11-12T10:25:20Z</time>
      </trkpt>
      <trkpt lat="46.02593" lon="4.65161">
        <ele>249</ele>
        <time>2016-11-12T10:25:21Z</time>
      </trkpt>
      <trkpt lat="46.02589" lon="4.65152">
        <ele>250</ele>
        <time>2016-11-12T10:25:23Z</time>
      </trkpt>
      <trkpt lat="46.02588" lon="4.65146">
        <ele>250</ele>
        <time>2016-11-12T10:25:24Z</time>
      </trkpt>
      <trkpt lat="46.02585" lon="4.65135">
        <ele>250</ele>
        <time>2016-11-12T10:25:26Z</time>
      </trkpt>
      <trkpt lat="46.02583" lon="4.65129">
        <ele>250</ele>
        <time>2016-11-12T10:25:27Z</time>
      </trkpt>
      <trkpt lat="46.0258" lon="4.65118">
        <ele>250</ele>
        <time>2016-11-12T10:25:29Z</time>
      </trkpt>
      <trkpt lat="46.02578" lon="4.65112">
        <ele>250</ele>
        <time>2016-11-12T10:25:30Z</time>
      </trkpt>
      <trkpt lat="46.02575" lon="4.65101">
        <ele>250</ele>
        <time>2016-11-12T10:25:32Z</time>
      </trkpt>
      <trkpt lat="46.02573" lon="4.65095">
        <ele>250</ele>
        <time>2016-11-12T10:25:33Z</time>
      </trkpt>
      <trkpt lat="46.02571" lon="4.65088">
        <ele>250</ele>
        <time>2016-11-12T10:25:34Z</time>
      </trkpt>
      <trkpt lat="46.02569" lon="4.65082">
        <ele>251</ele>
        <time>2016-11-12T10:25:35Z</time>
      </trkpt>
      <trkpt lat="46.02567" lon="4.65076">
        <ele>252</ele>
        <time>2016-11-12T10:25:36Z</time>
      </trkpt>
      <trkpt lat="46.02565" lon="4.6507">
        <ele>252</ele>
        <time>2016-11-12T10:25:37Z</time>
      </trkpt>
      <trkpt lat="46.02562" lon="4.65058">
        <ele>252</ele>
        <time>2016-11-12T10:25:39Z</time>
      </trkpt>
      <trkpt lat="46.02561" lon="4.65052">
        <ele>252</ele>
        <time>2016-11-12T10:25:40Z</time>
      </trkpt>
      <trkpt lat="46.02559" lon="4.65046">
        <ele>252</ele>
        <time>2016-11-12T10:25:41Z</time>
      </trkpt>
      <trkpt lat="46.02556" lon="4.6504">
        <ele>252</ele>
        <time>2016-11-12T10:25:42Z</time>
      </trkpt>
      <trkpt lat="46.02552" lon="4.6503">
        <ele>252</ele>
        <time>2016-11-12T10:25:44Z</time>
      </trkpt>
      <trkpt lat="46.0255" lon="4.65023">
        <ele>252</ele>
        <time>2016-11-12T10:25:45Z</time>
      </trkpt>
      <trkpt lat="46.02546" lon="4.65012">
        <ele>252</ele>
        <time>2016-11-12T10:25:47Z</time>
      </trkpt>
      <trkpt lat="46.02544" lon="4.65006">
        <ele>252</ele>
        <time>2016-11-12T10:25:48Z</time>
      </trkpt>
      <trkpt lat="46.0254" lon="4.64996">
        <ele>254</ele>
        <time>2016-11-12T10:25:50Z</time>
      </trkpt>
      <trkpt lat="46.02538" lon="4.64991">
        <ele>254</ele>
        <time>2016-11-12T10:25:51Z</time>
      </trkpt>
      <trkpt lat="46.02533" lon="4.64981">
        <ele>254</ele>
        <time>2016-11-12T10:25:53Z</time>
      </trkpt>
      <trkpt lat="46.0253" lon="4.64975">
        <ele>254</ele>
        <time>2016-11-12T10:25:54Z</time>
      </trkpt>
      <trkpt lat="46.02527" lon="4.64964">
        <ele>254</ele>
        <time>2016-11-12T10:25:56Z</time>
      </trkpt>
      <trkpt lat="46.02525" lon="4.6496">
        <ele>254</ele>
        <time>2016-11-12T10:25:57Z</time>
      </trkpt>
      <trkpt lat="46.02523" lon="4.6495">
        <ele>254</ele>
        <time>2016-11-12T10:25:59Z</time>
      </trkpt>
      <trkpt lat="46.02522" lon="4.64945">
        <ele>254</ele>
        <time>2016-11-12T10:26:00Z</time>
      </trkpt>
      <trkpt lat="46.02521" lon="4.64934">
        <ele>254</ele>
        <time>2016-11-12T10:26:02Z</time>
      </trkpt>
      <trkpt lat="46.02521" lon="4.64928">
        <ele>254</ele>
        <time>2016-11-12T10:26:03Z</time>
      </trkpt>
      <trkpt lat="46.02525" lon="4.64921">
        <ele>254</ele>
        <time>2016-11-12T10:26:05Z</time>
      </trkpt>
      <trkpt lat="46.02527" lon="4.64918">
        <ele>254</ele>
        <time>2016-11-12T10:26:06Z</time>
      </trkpt>
      <trkpt lat="46.02532" lon="4.64911">
        <ele>255</ele>
        <time>2016-11-12T10:26:09Z</time>
      </trkpt>
      <trkpt lat="46.02534" lon="4.64909">
        <ele>255</ele>
        <time>2016-11-12T10:26:10Z</time>
      </trkpt>
      <trkpt lat="46.0254" lon="4.64902">
        <ele>255</ele>
        <time>2016-11-12T10:26:14Z</time>
      </trkpt>
      <trkpt lat="46.02543" lon="4.64901">
        <ele>255</ele>
        <time>2016-11-12T10:26:15Z</time>
      </trkpt>
      <trkpt lat="46.02551" lon="4.64899">
        <ele>255</ele>
        <time>2016-11-12T10:26:18Z</time>
      </trkpt>
      <trkpt lat="46.02553" lon="4.64898">
        <ele>256</ele>
        <time>2016-11-12T10:26:19Z</time>
      </trkpt>
      <trkpt lat="46.02561" lon="4.64896">
        <ele>256</ele>
        <time>2016-11-12T10:26:22Z</time>
      </trkpt>
      <trkpt lat="46.02564" lon="4.64896">
        <ele>256</ele>
        <time>2016-11-12T10:26:23Z</time>
      </trkpt>
      <trkpt lat="46.02571" lon="4.64896">
        <ele>256</ele>
        <time>2016-11-12T10:26:26Z</time>
      </trkpt>
      <trkpt lat="46.02573" lon="4.64896">
        <ele>256</ele>
        <time>2016-11-12T10:26:27Z</time>
      </trkpt>
      <trkpt lat="46.0258" lon="4.64899">
        <ele>256</ele>
        <time>2016-11-12T10:26:30Z</time>
      </trkpt>
      <trkpt lat="46.02583" lon="4.64898">
        <ele>256</ele>
        <time>2016-11-12T10:26:31Z</time>
      </trkpt>
      <trkpt lat="46.0259" lon="4.649">
        <ele>260</ele>
        <time>2016-11-12T10:26:34Z</time>
      </trkpt>
      <trkpt lat="46.02593" lon="4.64901">
        <ele>260</ele>
        <time>2016-11-12T10:26:35Z</time>
      </trkpt>
      <trkpt lat="46.026" lon="4.64903">
        <ele>260</ele>
        <time>2016-11-12T10:26:38Z</time>
      </trkpt>
      <trkpt lat="46.02602" lon="4.64904">
        <ele>260</ele>
        <time>2016-11-12T10:26:39Z</time>
      </trkpt>
      <trkpt lat="46.02609" lon="4.64908">
        <ele>261</ele>
        <time>2016-11-12T10:26:42Z</time>
      </trkpt>
      <trkpt lat="46.02611" lon="4.6491">
        <ele>261</ele>
        <time>2016-11-12T10:26:43Z</time>
      </trkpt>
      <trkpt lat="46.02618" lon="4.64914">
        <ele>262</ele>
        <time>2016-11-12T10:26:46Z</time>
      </trkpt>
      <trkpt lat="46.0262" lon="4.64915">
        <ele>262</ele>
        <time>2016-11-12T10:26:47Z</time>
      </trkpt>
      <trkpt lat="46.02627" lon="4.6492">
        <ele>260</ele>
        <time>2016-11-12T10:26:50Z</time>
      </trkpt>
      <trkpt lat="46.02629" lon="4.64921">
        <ele>260</ele>
        <time>2016-11-12T10:26:51Z</time>
      </trkpt>
      <trkpt lat="46.02637" lon="4.64927">
        <ele>261</ele>
        <time>2016-11-12T10:26:55Z</time>
      </trkpt>
      <trkpt lat="46.02639" lon="4.64929">
        <ele>261</ele>
        <time>2016-11-12T10:26:56Z</time>
      </trkpt>
      <trkpt lat="46.02645" lon="4.64934">
        <ele>261</ele>
        <time>2016-11-12T10:26:59Z</time>
      </trkpt>
      <trkpt lat="46.02647" lon="4.64936">
        <ele>261</ele>
        <time>2016-11-12T10:27:00Z</time>
      </trkpt>
      <trkpt lat="46.02654" lon="4.64941">
        <ele>261</ele>
        <time>2016-11-12T10:27:03Z</time>
      </trkpt>
      <trkpt lat="46.02656" lon="4.64943">
        <ele>261</ele>
        <time>2016-11-12T10:27:04Z</time>
      </trkpt>
      <trkpt lat="46.02663" lon="4.64947">
        <ele>261</ele>
        <time>2016-11-12T10:27:07Z</time>
      </trkpt>
      <trkpt lat="46.02665" lon="4.64949">
        <ele>261</ele>
        <time>2016-11-12T10:27:08Z</time>
      </trkpt>
      <trkpt lat="46.02671" lon="4.64953">
        <ele>265</ele>
        <time>2016-11-12T10:27:11Z</time>
      </trkpt>
      <trkpt lat="46.02673" lon="4.64955">
        <ele>265</ele>
        <time>2016-11-12T10:27:12Z</time>
      </trkpt>
      <trkpt lat="46.02678" lon="4.64961">
        <ele>265</ele>
        <time>2016-11-12T10:27:16Z</time>
      </trkpt>
      <trkpt lat="46.0268" lon="4.64963">
        <ele>265</ele>
        <time>2016-11-12T10:27:17Z</time>
      </trkpt>
      <trkpt lat="46.02687" lon="4.64966">
        <ele>265</ele>
        <time>2016-11-12T10:27:20Z</time>
      </trkpt>
      <trkpt lat="46.02689" lon="4.64968">
        <ele>265</ele>
        <time>2016-11-12T10:27:21Z</time>
      </trkpt>
      <trkpt lat="46.02694" lon="4.64973">
        <ele>265</ele>
        <time>2016-11-12T10:27:24Z</time>
      </trkpt>
      <trkpt lat="46.02696" lon="4.64975">
        <ele>265</ele>
        <time>2016-11-12T10:27:25Z</time>
      </trkpt>
      <trkpt lat="46.02704" lon="4.64979">
        <ele>266</ele>
        <time>2016-11-12T10:27:28Z</time>
      </trkpt>
      <trkpt lat="46.02705" lon="4.64981">
        <ele>266</ele>
        <time>2016-11-12T10:27:29Z</time>
      </trkpt>
      <trkpt lat="46.02712" lon="4.64988">
        <ele>266</ele>
        <time>2016-11-12T10:27:33Z</time>
      </trkpt>
      <trkpt lat="46.02715" lon="4.64989">
        <ele>266</ele>
        <time>2016-11-12T10:27:34Z</time>
      </trkpt>
      <trkpt lat="46.02722" lon="4.64993">
        <ele>266</ele>
        <time>2016-11-12T10:27:37Z</time>
      </trkpt>
      <trkpt lat="46.02737" lon="4.64999">
        <ele>267</ele>
        <time>2016-11-12T10:27:42Z</time>
      </trkpt>
      <trkpt lat="46.02745" lon="4.65006">
        <ele>266</ele>
        <time>2016-11-12T10:27:46Z</time>
      </trkpt>
      <trkpt lat="46.02746" lon="4.65007">
        <ele>266</ele>
        <time>2016-11-12T10:27:47Z</time>
      </trkpt>
      <trkpt lat="46.02754" lon="4.65012">
        <ele>269</ele>
        <time>2016-11-12T10:27:50Z</time>
      </trkpt>
      <trkpt lat="46.02756" lon="4.65014">
        <ele>269</ele>
        <time>2016-11-12T10:27:51Z</time>
      </trkpt>
      <trkpt lat="46.02764" lon="4.65018">
        <ele>270</ele>
        <time>2016-11-12T10:27:54Z</time>
      </trkpt>
      <trkpt lat="46.02766" lon="4.65019">
        <ele>270</ele>
        <time>2016-11-12T10:27:55Z</time>
      </trkpt>
      <trkpt lat="46.02773" lon="4.65027">
        <ele>270</ele>
        <time>2016-11-12T10:27:59Z</time>
      </trkpt>
      <trkpt lat="46.02775" lon="4.6503">
        <ele>270</ele>
        <time>2016-11-12T10:28:00Z</time>
      </trkpt>
      <trkpt lat="46.02781" lon="4.65037">
        <ele>270</ele>
        <time>2016-11-12T10:28:04Z</time>
      </trkpt>
      <trkpt lat="46.02783" lon="4.65039">
        <ele>270</ele>
        <time>2016-11-12T10:28:05Z</time>
      </trkpt>
      <trkpt lat="46.0279" lon="4.65045">
        <ele>271</ele>
        <time>2016-11-12T10:28:09Z</time>
      </trkpt>
      <trkpt lat="46.02792" lon="4.65046">
        <ele>271</ele>
        <time>2016-11-12T10:28:10Z</time>
      </trkpt>
      <trkpt lat="46.02798" lon="4.65051">
        <ele>271</ele>
        <time>2016-11-12T10:28:13Z</time>
      </trkpt>
      <trkpt lat="46.028" lon="4.65052">
        <ele>271</ele>
        <time>2016-11-12T10:28:14Z</time>
      </trkpt>
      <trkpt lat="46.02808" lon="4.65057">
        <ele>271</ele>
        <time>2016-11-12T10:28:18Z</time>
      </trkpt>
      <trkpt lat="46.0281" lon="4.65058">
        <ele>272</ele>
        <time>2016-11-12T10:28:19Z</time>
      </trkpt>
      <trkpt lat="46.02817" lon="4.65057">
        <ele>272</ele>
        <time>2016-11-12T10:28:22Z</time>
      </trkpt>
      <trkpt lat="46.0282" lon="4.65057">
        <ele>272</ele>
        <time>2016-11-12T10:28:23Z</time>
      </trkpt>
      <trkpt lat="46.02826" lon="4.65053">
        <ele>272</ele>
        <time>2016-11-12T10:28:26Z</time>
      </trkpt>
      <trkpt lat="46.02829" lon="4.65051">
        <ele>272</ele>
        <time>2016-11-12T10:28:27Z</time>
      </trkpt>
      <trkpt lat="46.02834" lon="4.65047">
        <ele>276</ele>
        <time>2016-11-12T10:28:30Z</time>
      </trkpt>
      <trkpt lat="46.02836" lon="4.65044">
        <ele>276</ele>
        <time>2016-11-12T10:28:31Z</time>
      </trkpt>
      <trkpt lat="46.02842" lon="4.65037">
        <ele>276</ele>
        <time>2016-11-12T10:28:35Z</time>
      </trkpt>
      <trkpt lat="46.02843" lon="4.65035">
        <ele>276</ele>
        <time>2016-11-12T10:28:36Z</time>
      </trkpt>
      <trkpt lat="46.02847" lon="4.65027">
        <ele>276</ele>
        <time>2016-11-12T10:28:39Z</time>
      </trkpt>
      <trkpt lat="46.02851" lon="4.65023">
        <ele>277</ele>
        <time>2016-11-12T10:28:41Z</time>
      </trkpt>
      <trkpt lat="46.02856" lon="4.65015">
        <ele>277</ele>
        <time>2016-11-12T10:28:44Z</time>
      </trkpt>
      <trkpt lat="46.02858" lon="4.65012">
        <ele>277</ele>
        <time>2016-11-12T10:28:45Z</time>
      </trkpt>
      <trkpt lat="46.02863" lon="4.65004">
        <ele>277</ele>
        <time>2016-11-12T10:28:48Z</time>
      </trkpt>
      <trkpt lat="46.02865" lon="4.65001">
        <ele>277</ele>
        <time>2016-11-12T10:28:49Z</time>
      </trkpt>
      <trkpt lat="46.02871" lon="4.64992">
        <ele>279</ele>
        <time>2016-11-12T10:28:52Z</time>
      </trkpt>
      <trkpt lat="46.02873" lon="4.64989">
        <ele>279</ele>
        <time>2016-11-12T10:28:53Z</time>
      </trkpt>
      <trkpt lat="46.02878" lon="4.64982">
        <ele>279</ele>
        <time>2016-11-12T10:28:56Z</time>
      </trkpt>
      <trkpt lat="46.0288" lon="4.64979">
        <ele>279</ele>
        <time>2016-11-12T10:28:57Z</time>
      </trkpt>
      <trkpt lat="46.02885" lon="4.64971">
        <ele>279</ele>
        <time>2016-11-12T10:29:00Z</time>
      </trkpt>
      <trkpt lat="46.02886" lon="4.64969">
        <ele>279</ele>
        <time>2016-11-12T10:29:01Z</time>
      </trkpt>
      <trkpt lat="46.0289" lon="4.64961">
        <ele>279</ele>
        <time>2016-11-12T10:29:04Z</time>
      </trkpt>
      <trkpt lat="46.02892" lon="4.64958">
        <ele>279</ele>
        <time>2016-11-12T10:29:05Z</time>
      </trkpt>
      <trkpt lat="46.02898" lon="4.6495">
        <ele>280</ele>
        <time>2016-11-12T10:29:09Z</time>
      </trkpt>
      <trkpt lat="46.02899" lon="4.64948">
        <ele>280</ele>
        <time>2016-11-12T10:29:10Z</time>
      </trkpt>
      <trkpt lat="46.02905" lon="4.64938">
        <ele>280</ele>
        <time>2016-11-12T10:29:14Z</time>
      </trkpt>
      <trkpt lat="46.02907" lon="4.64936">
        <ele>280</ele>
        <time>2016-11-12T10:29:15Z</time>
      </trkpt>
      <trkpt lat="46.02913" lon="4.64929">
        <ele>281</ele>
        <time>2016-11-12T10:29:18Z</time>
      </trkpt>
      <trkpt lat="46.02915" lon="4.64927">
        <ele>281</ele>
        <time>2016-11-12T10:29:19Z</time>
      </trkpt>
      <trkpt lat="46.02921" lon="4.64922">
        <ele>281</ele>
        <time>2016-11-12T10:29:22Z</time>
      </trkpt>
      <trkpt lat="46.02923" lon="4.6492">
        <ele>281</ele>
        <time>2016-11-12T10:29:23Z</time>
      </trkpt>
      <trkpt lat="46.02929" lon="4.64915">
        <ele>282</ele>
        <time>2016-11-12T10:29:26Z</time>
      </trkpt>
      <trkpt lat="46.02932" lon="4.64913">
        <ele>282</ele>
        <time>2016-11-12T10:29:27Z</time>
      </trkpt>
      <trkpt lat="46.02939" lon="4.64908">
        <ele>283</ele>
        <time>2016-11-12T10:29:30Z</time>
      </trkpt>
      <trkpt lat="46.02941" lon="4.64906">
        <ele>283</ele>
        <time>2016-11-12T10:29:31Z</time>
      </trkpt>
      <trkpt lat="46.02948" lon="4.649">
        <ele>283</ele>
        <time>2016-11-12T10:29:34Z</time>
      </trkpt>
      <trkpt lat="46.0295" lon="4.64898">
        <ele>283</ele>
        <time>2016-11-12T10:29:35Z</time>
      </trkpt>
      <trkpt lat="46.02957" lon="4.64892">
        <ele>283</ele>
        <time>2016-11-12T10:29:38Z</time>
      </trkpt>
      <trkpt lat="46.02959" lon="4.6489">
        <ele>283</ele>
        <time>2016-11-12T10:29:39Z</time>
      </trkpt>
      <trkpt lat="46.02966" lon="4.64883">
        <ele>283</ele>
        <time>2016-11-12T10:29:42Z</time>
      </trkpt>
      <trkpt lat="46.02968" lon="4.6488">
        <ele>283</ele>
        <time>2016-11-12T10:29:43Z</time>
      </trkpt>
      <trkpt lat="46.02973" lon="4.6487">
        <ele>283</ele>
        <time>2016-11-12T10:29:46Z</time>
      </trkpt>
      <trkpt lat="46.02974" lon="4.64867">
        <ele>283</ele>
        <time>2016-11-12T10:29:47Z</time>
      </trkpt>
      <trkpt lat="46.02978" lon="4.64856">
        <ele>284</ele>
        <time>2016-11-12T10:29:50Z</time>
      </trkpt>
      <trkpt lat="46.02979" lon="4.64853">
        <ele>284</ele>
        <time>2016-11-12T10:29:51Z</time>
      </trkpt>
      <trkpt lat="46.02981" lon="4.64842">
        <ele>284</ele>
        <time>2016-11-12T10:29:54Z</time>
      </trkpt>
      <trkpt lat="46.02981" lon="4.64839">
        <ele>284</ele>
        <time>2016-11-12T10:29:55Z</time>
      </trkpt>
      <trkpt lat="46.02982" lon="4.64828">
        <ele>286</ele>
        <time>2016-11-12T10:29:58Z</time>
      </trkpt>
      <trkpt lat="46.02983" lon="4.64824">
        <ele>286</ele>
        <time>2016-11-12T10:29:59Z</time>
      </trkpt>
      <trkpt lat="46.02984" lon="4.64814">
        <ele>286</ele>
        <time>2016-11-12T10:30:02Z</time>
      </trkpt>
      <trkpt lat="46.02984" lon="4.6481">
        <ele>286</ele>
        <time>2016-11-12T10:30:03Z</time>
      </trkpt>
      <trkpt lat="46.02986" lon="4.64799">
        <ele>286</ele>
        <time>2016-11-12T10:30:06Z</time>
      </trkpt>
      <trkpt lat="46.02986" lon="4.64795">
        <ele>286</ele>
        <time>2016-11-12T10:30:07Z</time>
      </trkpt>
      <trkpt lat="46.02988" lon="4.64783">
        <ele>286</ele>
        <time>2016-11-12T10:30:10Z</time>
      </trkpt>
      <trkpt lat="46.02988" lon="4.6478">
        <ele>287</ele>
        <time>2016-11-12T10:30:11Z</time>
      </trkpt>
      <trkpt lat="46.02989" lon="4.64769">
        <ele>287</ele>
        <time>2016-11-12T10:30:14Z</time>
      </trkpt>
      <trkpt lat="46.02989" lon="4.64765">
        <ele>287</ele>
        <time>2016-11-12T10:30:15Z</time>
      </trkpt>
      <trkpt lat="46.0299" lon="4.64753">
        <ele>287</ele>
        <time>2016-11-12T10:30:18Z</time>
      </trkpt>
      <trkpt lat="46.0299" lon="4.64749">
        <ele>288</ele>
        <time>2016-11-12T10:30:19Z</time>
      </trkpt>
      <trkpt lat="46.0299" lon="4.64738">
        <ele>288</ele>
        <time>2016-11-12T10:30:22Z</time>
      </trkpt>
      <trkpt lat="46.02991" lon="4.64734">
        <ele>288</ele>
        <time>2016-11-12T10:30:23Z</time>
      </trkpt>
      <trkpt lat="46.02991" lon="4.64722">
        <ele>289</ele>
        <time>2016-11-12T10:30:26Z</time>
      </trkpt>
      <trkpt lat="46.02991" lon="4.64719">
        <ele>289</ele>
        <time>2016-11-12T10:30:27Z</time>
      </trkpt>
      <trkpt lat="46.02992" lon="4.64707">
        <ele>289</ele>
        <time>2016-11-12T10:30:30Z</time>
      </trkpt>
      <trkpt lat="46.02992" lon="4.64703">
        <ele>289</ele>
        <time>2016-11-12T10:30:31Z</time>
      </trkpt>
      <trkpt lat="46.02993" lon="4.64692">
        <ele>289</ele>
        <time>2016-11-12T10:30:34Z</time>
      </trkpt>
      <trkpt lat="46.02993" lon="4.64688">
        <ele>289</ele>
        <time>2016-11-12T10:30:35Z</time>
      </trkpt>
      <trkpt lat="46.02995" lon="4.64677">
        <ele>290</ele>
        <time>2016-11-12T10:30:38Z</time>
      </trkpt>
      <trkpt lat="46.02996" lon="4.64673">
        <ele>290</ele>
        <time>2016-11-12T10:30:39Z</time>
      </trkpt>
      <trkpt lat="46.02997" lon="4.64662">
        <ele>291</ele>
        <time>2016-11-12T10:30:42Z</time>
      </trkpt>
      <trkpt lat="46.02997" lon="4.64658">
        <ele>291</ele>
        <time>2016-11-12T10:30:43Z</time>
      </trkpt>
      <trkpt lat="46.02999" lon="4.64647">
        <ele>292</ele>
        <time>2016-11-12T10:30:46Z</time>
      </trkpt>
      <trkpt lat="46.03" lon="4.64644">
        <ele>292</ele>
        <time>2016-11-12T10:30:47Z</time>
      </trkpt>
      <trkpt lat="46.03002" lon="4.64633">
        <ele>292</ele>
        <time>2016-11-12T10:30:50Z</time>
      </trkpt>
      <trkpt lat="46.03004" lon="4.6463">
        <ele>292</ele>
        <time>2016-11-12T10:30:51Z</time>
      </trkpt>
      <trkpt lat="46.03009" lon="4.64621">
        <ele>293</ele>
        <time>2016-11-12T10:30:54Z</time>
      </trkpt>
      <trkpt lat="46.03011" lon="4.64619">
        <ele>293</ele>
        <time>2016-11-12T10:30:55Z</time>
      </trkpt>
      <trkpt lat="46.03019" lon="4.64614">
        <ele>293</ele>
        <time>2016-11-12T10:30:58Z</time>
      </trkpt>
      <trkpt lat="46.03022" lon="4.64613">
        <ele>293</ele>
        <time>2016-11-12T10:30:59Z</time>
      </trkpt>
      <trkpt lat="46.03028" lon="4.64612">
        <ele>293</ele>
        <time>2016-11-12T10:31:01Z</time>
      </trkpt>
      <trkpt lat="46.03031" lon="4.64612">
        <ele>293</ele>
        <time>2016-11-12T10:31:02Z</time>
      </trkpt>
      <trkpt lat="46.03037" lon="4.64613">
        <ele>293</ele>
        <time>2016-11-12T10:31:04Z</time>
      </trkpt>
      <trkpt lat="46.03041" lon="4.64613">
        <ele>293</ele>
        <time>2016-11-12T10:31:05Z</time>
      </trkpt>
      <trkpt lat="46.03048" lon="4.64612">
        <ele>293</ele>
        <time>2016-11-12T10:31:07Z</time>
      </trkpt>
      <trkpt lat="46.03052" lon="4.64611">
        <ele>293</ele>
        <time>2016-11-12T10:31:08Z</time>
      </trkpt>
      <trkpt lat="46.03059" lon="4.64611">
        <ele>293</ele>
        <time>2016-11-12T10:31:10Z</time>
      </trkpt>
      <trkpt lat="46.03062" lon="4.6461">
        <ele>293</ele>
        <time>2016-11-12T10:31:11Z</time>
      </trkpt>
      <trkpt lat="46.03069" lon="4.64606">
        <ele>294</ele>
        <time>2016-11-12T10:31:13Z</time>
      </trkpt>
      <trkpt lat="46.03072" lon="4.64605">
        <ele>294</ele>
        <time>2016-11-12T10:31:14Z</time>
      </trkpt>
      <trkpt lat="46.03078" lon="4.646">
        <ele>294</ele>
        <time>2016-11-12T10:31:16Z</time>
      </trkpt>
      <trkpt lat="46.0308" lon="4.64597">
        <ele>295</ele>
        <time>2016-11-12T10:31:17Z</time>
      </trkpt>
      <trkpt lat="46.03086" lon="4.64591">
        <ele>295</ele>
        <time>2016-11-12T10:31:19Z</time>
      </trkpt>
      <trkpt lat="46.03088" lon="4.64588">
        <ele>295</ele>
        <time>2016-11-12T10:31:20Z</time>
      </trkpt>
      <trkpt lat="46.03093" lon="4.64582">
        <ele>297</ele>
        <time>2016-11-12T10:31:22Z</time>
      </trkpt>
      <trkpt lat="46.03095" lon="4.64579">
        <ele>297</ele>
        <time>2016-11-12T10:31:23Z</time>
      </trkpt>
      <trkpt lat="46.03102" lon="4.64571">
        <ele>297</ele>
        <time>2016-11-12T10:31:26Z</time>
      </trkpt>
      <trkpt lat="46.03105" lon="4.64567">
        <ele>297</ele>
        <time>2016-11-12T10:31:27Z</time>
      </trkpt>
      <trkpt lat="46.03109" lon="4.6456">
        <ele>297</ele>
        <time>2016-11-12T10:31:29Z</time>
      </trkpt>
      <trkpt lat="46.03111" lon="4.64557">
        <ele>297</ele>
        <time>2016-11-12T10:31:30Z</time>
      </trkpt>
      <trkpt lat="46.03117" lon="4.64549">
        <ele>298</ele>
        <time>2016-11-12T10:31:33Z</time>
      </trkpt>
      <trkpt lat="46.03119" lon="4.64546">
        <ele>298</ele>
        <time>2016-11-12T10:31:34Z</time>
      </trkpt>
      <trkpt lat="46.03126" lon="4.64539">
        <ele>298</ele>
        <time>2016-11-12T10:31:37Z</time>
      </trkpt>
      <trkpt lat="46.03128" lon="4.64536">
        <ele>298</ele>
        <time>2016-11-12T10:31:38Z</time>
      </trkpt>
      <trkpt lat="46.03135" lon="4.64528">
        <ele>298</ele>
        <time>2016-11-12T10:31:41Z</time>
      </trkpt>
      <trkpt lat="46.03137" lon="4.64526">
        <ele>298</ele>
        <time>2016-11-12T10:31:42Z</time>
      </trkpt>
      <trkpt lat="46.03144" lon="4.64518">
        <ele>298</ele>
        <time>2016-11-12T10:31:45Z</time>
      </trkpt>
      <trkpt lat="46.03147" lon="4.64515">
        <ele>298</ele>
        <time>2016-11-12T10:31:46Z</time>
      </trkpt>
      <trkpt lat="46.03152" lon="4.6451">
        <ele>298</ele>
        <time>2016-11-12T10:31:48Z</time>
      </trkpt>
      <trkpt lat="46.03155" lon="4.64507">
        <ele>299</ele>
        <time>2016-11-12T10:31:49Z</time>
      </trkpt>
      <trkpt lat="46.03162" lon="4.64499">
        <ele>300</ele>
        <time>2016-11-12T10:31:52Z</time>
      </trkpt>
      <trkpt lat="46.03164" lon="4.64496">
        <ele>300</ele>
        <time>2016-11-12T10:31:53Z</time>
      </trkpt>
      <trkpt lat="46.0317" lon="4.64487">
        <ele>302</ele>
        <time>2016-11-12T10:31:56Z</time>
      </trkpt>
      <trkpt lat="46.03172" lon="4.64484">
        <ele>302</ele>
        <time>2016-11-12T10:31:57Z</time>
      </trkpt>
      <trkpt lat="46.03178" lon="4.64476">
        <ele>303</ele>
        <time>2016-11-12T10:32:00Z</time>
      </trkpt>
      <trkpt lat="46.0318" lon="4.64474">
        <ele>304</ele>
        <time>2016-11-12T10:32:01Z</time>
      </trkpt>
      <trkpt lat="46.03187" lon="4.6447">
        <ele>304</ele>
        <time>2016-11-12T10:32:04Z</time>
      </trkpt>
      <trkpt lat="46.0319" lon="4.6447">
        <ele>304</ele>
        <time>2016-11-12T10:32:05Z</time>
      </trkpt>
      <trkpt lat="46.03198" lon="4.64471">
        <ele>305</ele>
        <time>2016-11-12T10:32:08Z</time>
      </trkpt>
      <trkpt lat="46.03201" lon="4.64471">
        <ele>305</ele>
        <time>2016-11-12T10:32:09Z</time>
      </trkpt>
      <trkpt lat="46.03209" lon="4.64465">
        <ele>305</ele>
        <time>2016-11-12T10:32:12Z</time>
      </trkpt>
      <trkpt lat="46.03211" lon="4.64463">
        <ele>306</ele>
        <time>2016-11-12T10:32:13Z</time>
      </trkpt>
      <trkpt lat="46.03219" lon="4.64459">
        <ele>306</ele>
        <time>2016-11-12T10:32:16Z</time>
      </trkpt>
      <trkpt lat="46.03222" lon="4.64459">
        <ele>306</ele>
        <time>2016-11-12T10:32:17Z</time>
      </trkpt>
      <trkpt lat="46.0323" lon="4.6446">
        <ele>306</ele>
        <time>2016-11-12T10:32:20Z</time>
      </trkpt>
      <trkpt lat="46.03233" lon="4.6446">
        <ele>307</ele>
        <time>2016-11-12T10:32:21Z</time>
      </trkpt>
      <trkpt lat="46.03241" lon="4.64464">
        <ele>307</ele>
        <time>2016-11-12T10:32:24Z</time>
      </trkpt>
      <trkpt lat="46.03244" lon="4.64466">
        <ele>307</ele>
        <time>2016-11-12T10:32:25Z</time>
      </trkpt>
      <trkpt lat="46.0325" lon="4.64471">
        <ele>306</ele>
        <time>2016-11-12T10:32:28Z</time>
      </trkpt>
      <trkpt lat="46.03252" lon="4.64473">
        <ele>310</ele>
        <time>2016-11-12T10:32:29Z</time>
      </trkpt>
      <trkpt lat="46.03259" lon="4.64478">
        <ele>310</ele>
        <time>2016-11-12T10:32:32Z</time>
      </trkpt>
      <trkpt lat="46.03262" lon="4.6448">
        <ele>310</ele>
        <time>2016-11-12T10:32:33Z</time>
      </trkpt>
      <trkpt lat="46.03268" lon="4.64483">
        <ele>310</ele>
        <time>2016-11-12T10:32:36Z</time>
      </trkpt>
      <trkpt lat="46.0327" lon="4.64485">
        <ele>310</ele>
        <time>2016-11-12T10:32:37Z</time>
      </trkpt>
      <trkpt lat="46.03277" lon="4.64492">
        <ele>311</ele>
        <time>2016-11-12T10:32:41Z</time>
      </trkpt>
      <trkpt lat="46.03279" lon="4.64493">
        <ele>311</ele>
        <time>2016-11-12T10:32:42Z</time>
      </trkpt>
      <trkpt lat="46.03285" lon="4.64499">
        <ele>311</ele>
        <time>2016-11-12T10:32:45Z</time>
      </trkpt>
      <trkpt lat="46.03288" lon="4.645">
        <ele>308</ele>
        <time>2016-11-12T10:32:46Z</time>
      </trkpt>
      <trkpt lat="46.03295" lon="4.64506">
        <ele>309</ele>
        <time>2016-11-12T10:32:49Z</time>
      </trkpt>
      <trkpt lat="46.03298" lon="4.64507">
        <ele>309</ele>
        <time>2016-11-12T10:32:50Z</time>
      </trkpt>
      <trkpt lat="46.03306" lon="4.6451">
        <ele>310</ele>
        <time>2016-11-12T10:32:53Z</time>
      </trkpt>
      <trkpt lat="46.03309" lon="4.64511">
        <ele>310</ele>
        <time>2016-11-12T10:32:54Z</time>
      </trkpt>
      <trkpt lat="46.03316" lon="4.64514">
        <ele>310</ele>
        <time>2016-11-12T10:32:57Z</time>
      </trkpt>
      <trkpt lat="46.03319" lon="4.64515">
        <ele>311</ele>
        <time>2016-11-12T10:32:58Z</time>
      </trkpt>
      <trkpt lat="46.03326" lon="4.64517">
        <ele>311</ele>
        <time>2016-11-12T10:33:01Z</time>
      </trkpt>
      <trkpt lat="46.03328" lon="4.64518">
        <ele>311</ele>
        <time>2016-11-12T10:33:02Z</time>
      </trkpt>
      <trkpt lat="46.03336" lon="4.6452">
        <ele>313</ele>
        <time>2016-11-12T10:33:05Z</time>
      </trkpt>
      <trkpt lat="46.03339" lon="4.64521">
        <ele>313</ele>
        <time>2016-11-12T10:33:06Z</time>
      </trkpt>
      <trkpt lat="46.03347" lon="4.64523">
        <ele>313</ele>
        <time>2016-11-12T10:33:09Z</time>
      </trkpt>
      <trkpt lat="46.0335" lon="4.64524">
        <ele>313</ele>
        <time>2016-11-12T10:33:10Z</time>
      </trkpt>
      <trkpt lat="46.03358" lon="4.64526">
        <ele>313</ele>
        <time>2016-11-12T10:33:13Z</time>
      </trkpt>
      <trkpt lat="46.03361" lon="4.64527">
        <ele>313</ele>
        <time>2016-11-12T10:33:14Z</time>
      </trkpt>
      <trkpt lat="46.0337" lon="4.64529">
        <ele>313</ele>
        <time>2016-11-12T10:33:17Z</time>
      </trkpt>
      <trkpt lat="46.03373" lon="4.6453">
        <ele>313</ele>
        <time>2016-11-12T10:33:18Z</time>
      </trkpt>
      <trkpt lat="46.03381" lon="4.64532">
        <ele>313</ele>
        <time>2016-11-12T10:33:21Z</time>
      </trkpt>
      <trkpt lat="46.03384" lon="4.64533">
        <ele>313</ele>
        <time>2016-11-12T10:33:22Z</time>
      </trkpt>
      <trkpt lat="46.03393" lon="4.64536">
        <ele>313</ele>
        <time>2016-11-12T10:33:25Z</time>
      </trkpt>
      <trkpt lat="46.03395" lon="4.64537">
        <ele>313</ele>
        <time>2016-11-12T10:33:26Z</time>
      </trkpt>
      <trkpt lat="46.03404" lon="4.64538">
        <ele>313</ele>
        <time>2016-11-12T10:33:29Z</time>
      </trkpt>
      <trkpt lat="46.03407" lon="4.64538">
        <ele>313</ele>
        <time>2016-11-12T10:33:30Z</time>
      </trkpt>
      <trkpt lat="46.03415" lon="4.6454">
        <ele>313</ele>
        <time>2016-11-12T10:33:33Z</time>
      </trkpt>
      <trkpt lat="46.03418" lon="4.6454">
        <ele>315</ele>
        <time>2016-11-12T10:33:34Z</time>
      </trkpt>
      <trkpt lat="46.03426" lon="4.64541">
        <ele>315</ele>
        <time>2016-11-12T10:33:37Z</time>
      </trkpt>
      <trkpt lat="46.03429" lon="4.64541">
        <ele>315</ele>
        <time>2016-11-12T10:33:38Z</time>
      </trkpt>
      <trkpt lat="46.03437" lon="4.6454">
        <ele>315</ele>
        <time>2016-11-12T10:33:41Z</time>
      </trkpt>
      <trkpt lat="46.0344" lon="4.6454">
        <ele>315</ele>
        <time>2016-11-12T10:33:42Z</time>
      </trkpt>
      <trkpt lat="46.03448" lon="4.64539">
        <ele>315</ele>
        <time>2016-11-12T10:33:45Z</time>
      </trkpt>
      <trkpt lat="46.03451" lon="4.64538">
        <ele>315</ele>
        <time>2016-11-12T10:33:46Z</time>
      </trkpt>
      <trkpt lat="46.03457" lon="4.64535">
        <ele>315</ele>
        <time>2016-11-12T10:33:48Z</time>
      </trkpt>
      <trkpt lat="46.0346" lon="4.64533">
        <ele>315</ele>
        <time>2016-11-12T10:33:49Z</time>
      </trkpt>
      <trkpt lat="46.03466" lon="4.64531">
        <ele>315</ele>
        <time>2016-11-12T10:33:51Z</time>
      </trkpt>
      <trkpt lat="46.03469" lon="4.6453">
        <ele>315</ele>
        <time>2016-11-12T10:33:52Z</time>
      </trkpt>
      <trkpt lat="46.03475" lon="4.64528">
        <ele>316</ele>
        <time>2016-11-12T10:33:54Z</time>
      </trkpt>
      <trkpt lat="46.03478" lon="4.64527">
        <ele>316</ele>
        <time>2016-11-12T10:33:55Z</time>
      </trkpt>
      <trkpt lat="46.03484" lon="4.64524">
        <ele>316</ele>
        <time>2016-11-12T10:33:57Z</time>
      </trkpt>
      <trkpt lat="46.03487" lon="4.64523">
        <ele>316</ele>
        <time>2016-11-12T10:33:58Z</time>
      </trkpt>
      <trkpt lat="46.03493" lon="4.64521">
        <ele>316</ele>
        <time>2016-11-12T10:34:00Z</time>
      </trkpt>
      <trkpt lat="46.03496" lon="4.6452">
        <ele>316</ele>
        <time>2016-11-12T10:34:01Z</time>
      </trkpt>
      <trkpt lat="46.03503" lon="4.64517">
        <ele>317</ele>
        <time>2016-11-12T10:34:03Z</time>
      </trkpt>
      <trkpt lat="46.03506" lon="4.64516">
        <ele>317</ele>
        <time>2016-11-12T10:34:04Z</time>
      </trkpt>
      <trkpt lat="46.03512" lon="4.64514">
        <ele>317</ele>
        <time>2016-11-12T10:34:06Z</time>
      </trkpt>
      <trkpt lat="46.03515" lon="4.64512">
        <ele>317</ele>
        <time>2016-11-12T10:34:07Z</time>
      </trkpt>
      <trkpt lat="46.03521" lon="4.6451">
        <ele>317</ele>
        <time>2016-11-12T10:34:09Z</time>
      </trkpt>
      <trkpt lat="46.03524" lon="4.64509">
        <ele>317</ele>
        <time>2016-11-12T10:34:10Z</time>
      </trkpt>
      <trkpt lat="46.0353" lon="4.64506">
        <ele>317</ele>
        <time>2016-11-12T10:34:12Z</time>
      </trkpt>
      <trkpt lat="46.03533" lon="4.64505">
        <ele>317</ele>
        <time>2016-11-12T10:34:13Z</time>
      </trkpt>
      <trkpt lat="46.0354" lon="4.64502">
        <ele>317</ele>
        <time>2016-11-12T10:34:15Z</time>
      </trkpt>
      <trkpt lat="46.03543" lon="4.64501">
        <ele>317</ele>
        <time>2016-11-12T10:34:16Z</time>
      </trkpt>
      <trkpt lat="46.03549" lon="4.64499">
        <ele>320</ele>
        <time>2016-11-12T10:34:18Z</time>
      </trkpt>
      <trkpt lat="46.03552" lon="4.64497">
        <ele>320</ele>
        <time>2016-11-12T10:34:19Z</time>
      </trkpt>
      <trkpt lat="46.03559" lon="4.64495">
        <ele>320</ele>
        <time>2016-11-12T10:34:21Z</time>
      </trkpt>
      <trkpt lat="46.03562" lon="4.64493">
        <ele>320</ele>
        <time>2016-11-12T10:34:22Z</time>
      </trkpt>
      <trkpt lat="46.03568" lon="4.64491">
        <ele>320</ele>
        <time>2016-11-12T10:34:24Z</time>
      </trkpt>
      <trkpt lat="46.03571" lon="4.6449">
        <ele>320</ele>
        <time>2016-11-12T10:34:25Z</time>
      </trkpt>
      <trkpt lat="46.03577" lon="4.64488">
        <ele>320</ele>
        <time>2016-11-12T10:34:27Z</time>
      </trkpt>
      <trkpt lat="46.0358" lon="4.64487">
        <ele>320</ele>
        <time>2016-11-12T10:34:28Z</time>
      </trkpt>
      <trkpt lat="46.03586" lon="4.64485">
        <ele>320</ele>
        <time>2016-11-12T10:34:30Z</time>
      </trkpt>
      <trkpt lat="46.03589" lon="4.64483">
        <ele>320</ele>
        <time>2016-11-12T10:34:31Z</time>
      </trkpt>
      <trkpt lat="46.03595" lon="4.64481">
        <ele>320</ele>
        <time>2016-11-12T10:34:33Z</time>
      </trkpt>
      <trkpt lat="46.03598" lon="4.64479">
        <ele>320</ele>
        <time>2016-11-12T10:34:34Z</time>
      </trkpt>
      <trkpt lat="46.03604" lon="4.64476">
        <ele>320</ele>
        <time>2016-11-12T10:34:36Z</time>
      </trkpt>
      <trkpt lat="46.03607" lon="4.64475">
        <ele>320</ele>
        <time>2016-11-12T10:34:37Z</time>
      </trkpt>
      <trkpt lat="46.03614" lon="4.64473">
        <ele>321</ele>
        <time>2016-11-12T10:34:39Z</time>
      </trkpt>
      <trkpt lat="46.03617" lon="4.64472">
        <ele>321</ele>
        <time>2016-11-12T10:34:40Z</time>
      </trkpt>
      <trkpt lat="46.03624" lon="4.64469">
        <ele>321</ele>
        <time>2016-11-12T10:34:42Z</time>
      </trkpt>
      <trkpt lat="46.03627" lon="4.64468">
        <ele>321</ele>
        <time>2016-11-12T10:34:43Z</time>
      </trkpt>
      <trkpt lat="46.03633" lon="4.64466">
        <ele>321</ele>
        <time>2016-11-12T10:34:45Z</time>
      </trkpt>
      <trkpt lat="46.03637" lon="4.64465">
        <ele>321</ele>
        <time>2016-11-12T10:34:46Z</time>
      </trkpt>
      <trkpt lat="46.03644" lon="4.64463">
        <ele>321</ele>
        <time>2016-11-12T10:34:48Z</time>
      </trkpt>
      <trkpt lat="46.03647" lon="4.64462">
        <ele>321</ele>
        <time>2016-11-12T10:34:49Z</time>
      </trkpt>
      <trkpt lat="46.03653" lon="4.64459">
        <ele>321</ele>
        <time>2016-11-12T10:34:51Z</time>
      </trkpt>
      <trkpt lat="46.03657" lon="4.64457">
        <ele>321</ele>
        <time>2016-11-12T10:34:52Z</time>
      </trkpt>
      <trkpt lat="46.03665" lon="4.64453">
        <ele>320</ele>
        <time>2016-11-12T10:34:54Z</time>
      </trkpt>
      <trkpt lat="46.03669" lon="4.6445">
        <ele>319</ele>
        <time>2016-11-12T10:34:55Z</time>
      </trkpt>
      <trkpt lat="46.03673" lon="4.64448">
        <ele>319</ele>
        <time>2016-11-12T10:34:56Z</time>
      </trkpt>
      <trkpt lat="46.03677" lon="4.64446">
        <ele>319</ele>
        <time>2016-11-12T10:34:57Z</time>
      </trkpt>
      <trkpt lat="46.03681" lon="4.64443">
        <ele>319</ele>
        <time>2016-11-12T10:34:58Z</time>
      </trkpt>
      <trkpt lat="46.03685" lon="4.6444">
        <ele>319</ele>
        <time>2016-11-12T10:34:59Z</time>
      </trkpt>
      <trkpt lat="46.0369" lon="4.64437">
        <ele>319</ele>
        <time>2016-11-12T10:35:00Z</time>
      </trkpt>
      <trkpt lat="46.03694" lon="4.64433">
        <ele>319</ele>
        <time>2016-11-12T10:35:01Z</time>
      </trkpt>
      <trkpt lat="46.03698" lon="4.64429">
        <ele>319</ele>
        <time>2016-11-12T10:35:02Z</time>
      </trkpt>
      <trkpt lat="46.03702" lon="4.64425">
        <ele>319</ele>
        <time>2016-11-12T10:35:03Z</time>
      </trkpt>
      <trkpt lat="46.03706" lon="4.64421">
        <ele>318</ele>
        <time>2016-11-12T10:35:04Z</time>
      </trkpt>
      <trkpt lat="46.03711" lon="4.64417">
        <ele>318</ele>
        <time>2016-11-12T10:35:05Z</time>
      </trkpt>
      <trkpt lat="46.03715" lon="4.64412">
        <ele>318</ele>
        <time>2016-11-12T10:35:06Z</time>
      </trkpt>
      <trkpt lat="46.0372" lon="4.64407">
        <ele>318</ele>
        <time>2016-11-12T10:35:07Z</time>
      </trkpt>
      <trkpt lat="46.03724" lon="4.64401">
        <ele>317</ele>
        <time>2016-11-12T10:35:08Z</time>
      </trkpt>
      <trkpt lat="46.03728" lon="4.64395">
        <ele>317</ele>
        <time>2016-11-12T10:35:09Z</time>
      </trkpt>
      <trkpt lat="46.03732" lon="4.64388">
        <ele>317</ele>
        <time>2016-11-12T10:35:10Z</time>
      </trkpt>
      <trkpt lat="46.03737" lon="4.64381">
        <ele>317</ele>
        <time>2016-11-12T10:35:11Z</time>
      </trkpt>
      <trkpt lat="46.03741" lon="4.64374">
        <ele>317</ele>
        <time>2016-11-12T10:35:12Z</time>
      </trkpt>
      <trkpt lat="46.03745" lon="4.64366">
        <ele>317</ele>
        <time>2016-11-12T10:35:13Z</time>
      </trkpt>
      <trkpt lat="46.03749" lon="4.64357">
        <ele>316</ele>
        <time>2016-11-12T10:35:14Z</time>
      </trkpt>
      <trkpt lat="46.03752" lon="4.64349">
        <ele>314</ele>
        <time>2016-11-12T10:35:15Z</time>
      </trkpt>
      <trkpt lat="46.03755" lon="4.64339">
        <ele>314</ele>
        <time>2016-11-12T10:35:16Z</time>
      </trkpt>
      <trkpt lat="46.03757" lon="4.64329">
        <ele>313</ele>
        <time>2016-11-12T10:35:17Z</time>
      </trkpt>
      <trkpt lat="46.03757" lon="4.6432">
        <ele>313</ele>
        <time>2016-11-12T10:35:18Z</time>
      </trkpt>
      <trkpt lat="46.03757" lon="4.64311">
        <ele>313</ele>
        <time>2016-11-12T10:35:19Z</time>
      </trkpt>
      <trkpt lat="46.03756" lon="4.64304">
        <ele>313</ele>
        <time>2016-11-12T10:35:20Z</time>
      </trkpt>
      <trkpt lat="46.03755" lon="4.64298">
        <ele>313</ele>
        <time>2016-11-12T10:35:21Z</time>
      </trkpt>
      <trkpt lat="46.03753" lon="4.64289">
        <ele>313</ele>
        <time>2016-11-12T10:35:23Z</time>
      </trkpt>
      <trkpt lat="46.03753" lon="4.64284">
        <ele>313</ele>
        <time>2016-11-12T10:35:24Z</time>
      </trkpt>
      <trkpt lat="46.03751" lon="4.64275">
        <ele>313</ele>
        <time>2016-11-12T10:35:26Z</time>
      </trkpt>
      <trkpt lat="46.03751" lon="4.6427">
        <ele>314</ele>
        <time>2016-11-12T10:35:27Z</time>
      </trkpt>
      <trkpt lat="46.0375" lon="4.64261">
        <ele>317</ele>
        <time>2016-11-12T10:35:29Z</time>
      </trkpt>
      <trkpt lat="46.03749" lon="4.64257">
        <ele>317</ele>
        <time>2016-11-12T10:35:30Z</time>
      </trkpt>
      <trkpt lat="46.0375" lon="4.64247">
        <ele>317</ele>
        <time>2016-11-12T10:35:32Z</time>
      </trkpt>
      <trkpt lat="46.03749" lon="4.64243">
        <ele>317</ele>
        <time>2016-11-12T10:35:33Z</time>
      </trkpt>
      <trkpt lat="46.03746" lon="4.64231">
        <ele>319</ele>
        <time>2016-11-12T10:35:36Z</time>
      </trkpt>
      <trkpt lat="46.03746" lon="4.64227">
        <ele>319</ele>
        <time>2016-11-12T10:35:37Z</time>
      </trkpt>
      <trkpt lat="46.03744" lon="4.64216">
        <ele>320</ele>
        <time>2016-11-12T10:35:40Z</time>
      </trkpt>
      <trkpt lat="46.03744" lon="4.64212">
        <ele>320</ele>
        <time>2016-11-12T10:35:41Z</time>
      </trkpt>
      <trkpt lat="46.03742" lon="4.642">
        <ele>320</ele>
        <time>2016-11-12T10:35:44Z</time>
      </trkpt>
      <trkpt lat="46.03741" lon="4.64196">
        <ele>320</ele>
        <time>2016-11-12T10:35:45Z</time>
      </trkpt>
      <trkpt lat="46.03742" lon="4.64184">
        <ele>320</ele>
        <time>2016-11-12T10:35:48Z</time>
      </trkpt>
      <trkpt lat="46.03742" lon="4.64181">
        <ele>320</ele>
        <time>2016-11-12T10:35:49Z</time>
      </trkpt>
      <trkpt lat="46.03739" lon="4.64169">
        <ele>320</ele>
        <time>2016-11-12T10:35:52Z</time>
      </trkpt>
      <trkpt lat="46.03739" lon="4.64166">
        <ele>321</ele>
        <time>2016-11-12T10:35:53Z</time>
      </trkpt>
      <trkpt lat="46.03737" lon="4.64155">
        <ele>322</ele>
        <time>2016-11-12T10:35:56Z</time>
      </trkpt>
      <trkpt lat="46.03737" lon="4.64151">
        <ele>322</ele>
        <time>2016-11-12T10:35:57Z</time>
      </trkpt>
      <trkpt lat="46.03735" lon="4.64141">
        <ele>323</ele>
        <time>2016-11-12T10:36:00Z</time>
      </trkpt>
      <trkpt lat="46.03735" lon="4.64137">
        <ele>323</ele>
        <time>2016-11-12T10:36:01Z</time>
      </trkpt>
      <trkpt lat="46.03733" lon="4.64128">
        <ele>323</ele>
        <time>2016-11-12T10:36:04Z</time>
      </trkpt>
      <trkpt lat="46.03733" lon="4.64125">
        <ele>323</ele>
        <time>2016-11-12T10:36:05Z</time>
      </trkpt>
      <trkpt lat="46.03731" lon="4.64114">
        <ele>324</ele>
        <time>2016-11-12T10:36:08Z</time>
      </trkpt>
      <trkpt lat="46.03731" lon="4.6411">
        <ele>324</ele>
        <time>2016-11-12T10:36:09Z</time>
      </trkpt>
      <trkpt lat="46.03729" lon="4.641">
        <ele>323</ele>
        <time>2016-11-12T10:36:12Z</time>
      </trkpt>
      <trkpt lat="46.03728" lon="4.64097">
        <ele>323</ele>
        <time>2016-11-12T10:36:13Z</time>
      </trkpt>
      <trkpt lat="46.03727" lon="4.64086">
        <ele>323</ele>
        <time>2016-11-12T10:36:16Z</time>
      </trkpt>
      <trkpt lat="46.03727" lon="4.64083">
        <ele>325</ele>
        <time>2016-11-12T10:36:17Z</time>
      </trkpt>
      <trkpt lat="46.03726" lon="4.64073">
        <ele>325</ele>
        <time>2016-11-12T10:36:20Z</time>
      </trkpt>
      <trkpt lat="46.03725" lon="4.64069">
        <ele>326</ele>
        <time>2016-11-12T10:36:21Z</time>
      </trkpt>
      <trkpt lat="46.03723" lon="4.64059">
        <ele>326</ele>
        <time>2016-11-12T10:36:24Z</time>
      </trkpt>
      <trkpt lat="46.03722" lon="4.64056">
        <ele>327</ele>
        <time>2016-11-12T10:36:25Z</time>
      </trkpt>
      <trkpt lat="46.0372" lon="4.64047">
        <ele>327</ele>
        <time>2016-11-12T10:36:28Z</time>
      </trkpt>
      <trkpt lat="46.03719" lon="4.64044">
        <ele>327</ele>
        <time>2016-11-12T10:36:29Z</time>
      </trkpt>
      <trkpt lat="46.03718" lon="4.64033">
        <ele>327</ele>
        <time>2016-11-12T10:36:32Z</time>
      </trkpt>
      <trkpt lat="46.03717" lon="4.6403">
        <ele>328</ele>
        <time>2016-11-12T10:36:33Z</time>
      </trkpt>
      <trkpt lat="46.03715" lon="4.64019">
        <ele>328</ele>
        <time>2016-11-12T10:36:36Z</time>
      </trkpt>
      <trkpt lat="46.03715" lon="4.64016">
        <ele>328</ele>
        <time>2016-11-12T10:36:37Z</time>
      </trkpt>
      <trkpt lat="46.03712" lon="4.64005">
        <ele>328</ele>
        <time>2016-11-12T10:36:40Z</time>
      </trkpt>
      <trkpt lat="46.03711" lon="4.64002">
        <ele>328</ele>
        <time>2016-11-12T10:36:41Z</time>
      </trkpt>
      <trkpt lat="46.0371" lon="4.63991">
        <ele>330</ele>
        <time>2016-11-12T10:36:44Z</time>
      </trkpt>
      <trkpt lat="46.03709" lon="4.63988">
        <ele>330</ele>
        <time>2016-11-12T10:36:45Z</time>
      </trkpt>
      <trkpt lat="46.03709" lon="4.63978">
        <ele>330</ele>
        <time>2016-11-12T10:36:48Z</time>
      </trkpt>
      <trkpt lat="46.03709" lon="4.63974">
        <ele>330</ele>
        <time>2016-11-12T10:36:49Z</time>
      </trkpt>
      <trkpt lat="46.03707" lon="4.63964">
        <ele>331</ele>
        <time>2016-11-12T10:36:52Z</time>
      </trkpt>
      <trkpt lat="46.03706" lon="4.63961">
        <ele>331</ele>
        <time>2016-11-12T10:36:53Z</time>
      </trkpt>
      <trkpt lat="46.03705" lon="4.63951">
        <ele>331</ele>
        <time>2016-11-12T10:36:56Z</time>
      </trkpt>
      <trkpt lat="46.03705" lon="4.63948">
        <ele>331</ele>
        <time>2016-11-12T10:36:57Z</time>
      </trkpt>
      <trkpt lat="46.03703" lon="4.63938">
        <ele>331</ele>
        <time>2016-11-12T10:37:00Z</time>
      </trkpt>
      <trkpt lat="46.03702" lon="4.63934">
        <ele>331</ele>
        <time>2016-11-12T10:37:01Z</time>
      </trkpt>
      <trkpt lat="46.03701" lon="4.63922">
        <ele>332</ele>
        <time>2016-11-12T10:37:05Z</time>
      </trkpt>
      <trkpt lat="46.037" lon="4.63918">
        <ele>332</ele>
        <time>2016-11-12T10:37:06Z</time>
      </trkpt>
      <trkpt lat="46.03697" lon="4.63909">
        <ele>334</ele>
        <time>2016-11-12T10:37:09Z</time>
      </trkpt>
      <trkpt lat="46.03697" lon="4.63906">
        <ele>334</ele>
        <time>2016-11-12T10:37:10Z</time>
      </trkpt>
      <trkpt lat="46.03695" lon="4.63893">
        <ele>334</ele>
        <time>2016-11-12T10:37:14Z</time>
      </trkpt>
      <trkpt lat="46.03695" lon="4.6389">
        <ele>334</ele>
        <time>2016-11-12T10:37:15Z</time>
      </trkpt>
      <trkpt lat="46.03693" lon="4.63881">
        <ele>334</ele>
        <time>2016-11-12T10:37:18Z</time>
      </trkpt>
      <trkpt lat="46.03692" lon="4.63878">
        <ele>334</ele>
        <time>2016-11-12T10:37:19Z</time>
      </trkpt>
      <trkpt lat="46.0369" lon="4.63867">
        <ele>334</ele>
        <time>2016-11-12T10:37:22Z</time>
      </trkpt>
      <trkpt lat="46.0369" lon="4.63864">
        <ele>334</ele>
        <time>2016-11-12T10:37:23Z</time>
      </trkpt>
      <trkpt lat="46.03689" lon="4.63853">
        <ele>335</ele>
        <time>2016-11-12T10:37:26Z</time>
      </trkpt>
      <trkpt lat="46.03689" lon="4.6385">
        <ele>335</ele>
        <time>2016-11-12T10:37:27Z</time>
      </trkpt>
      <trkpt lat="46.03687" lon="4.63841">
        <ele>335</ele>
        <time>2016-11-12T10:37:30Z</time>
      </trkpt>
      <trkpt lat="46.03687" lon="4.63837">
        <ele>335</ele>
        <time>2016-11-12T10:37:31Z</time>
      </trkpt>
      <trkpt lat="46.03685" lon="4.63827">
        <ele>339</ele>
        <time>2016-11-12T10:37:34Z</time>
      </trkpt>
      <trkpt lat="46.03684" lon="4.63824">
        <ele>339</ele>
        <time>2016-11-12T10:37:35Z</time>
      </trkpt>
      <trkpt lat="46.03682" lon="4.63814">
        <ele>339</ele>
        <time>2016-11-12T10:37:38Z</time>
      </trkpt>
      <trkpt lat="46.03681" lon="4.63811">
        <ele>339</ele>
        <time>2016-11-12T10:37:39Z</time>
      </trkpt>
      <trkpt lat="46.0368" lon="4.63799">
        <ele>340</ele>
        <time>2016-11-12T10:37:43Z</time>
      </trkpt>
      <trkpt lat="46.0368" lon="4.63796">
        <ele>340</ele>
        <time>2016-11-12T10:37:44Z</time>
      </trkpt>
      <trkpt lat="46.03677" lon="4.63783">
        <ele>341</ele>
        <time>2016-11-12T10:37:48Z</time>
      </trkpt>
      <trkpt lat="46.03677" lon="4.6378">
        <ele>341</ele>
        <time>2016-11-12T10:37:49Z</time>
      </trkpt>
      <trkpt lat="46.03678" lon="4.63767">
        <ele>343</ele>
        <time>2016-11-12T10:37:53Z</time>
      </trkpt>
      <trkpt lat="46.03678" lon="4.63764">
        <ele>343</ele>
        <time>2016-11-12T10:37:54Z</time>
      </trkpt>
      <trkpt lat="46.03682" lon="4.63753">
        <ele>344</ele>
        <time>2016-11-12T10:37:58Z</time>
      </trkpt>
      <trkpt lat="46.03683" lon="4.63751">
        <ele>344</ele>
        <time>2016-11-12T10:37:59Z</time>
      </trkpt>
      <trkpt lat="46.0369" lon="4.63743">
        <ele>348</ele>
        <time>2016-11-12T10:38:03Z</time>
      </trkpt>
      <trkpt lat="46.03692" lon="4.63741">
        <ele>348</ele>
        <time>2016-11-12T10:38:04Z</time>
      </trkpt>
      <trkpt lat="46.03697" lon="4.63735">
        <ele>347</ele>
        <time>2016-11-12T10:38:07Z</time>
      </trkpt>
      <trkpt lat="46.03699" lon="4.63733">
        <ele>347</ele>
        <time>2016-11-12T10:38:08Z</time>
      </trkpt>
      <trkpt lat="46.03707" lon="4.63727">
        <ele>347</ele>
        <time>2016-11-12T10:38:12Z</time>
      </trkpt>
      <trkpt lat="46.03709" lon="4.63725">
        <ele>347</ele>
        <time>2016-11-12T10:38:13Z</time>
      </trkpt>
      <trkpt lat="46.03716" lon="4.63719">
        <ele>347</ele>
        <time>2016-11-12T10:38:17Z</time>
      </trkpt>
      <trkpt lat="46.03718" lon="4.63717">
        <ele>347</ele>
        <time>2016-11-12T10:38:18Z</time>
      </trkpt>
      <trkpt lat="46.03726" lon="4.6371">
        <ele>347</ele>
        <time>2016-11-12T10:38:22Z</time>
      </trkpt>
      <trkpt lat="46.03727" lon="4.63708">
        <ele>347</ele>
        <time>2016-11-12T10:38:23Z</time>
      </trkpt>
      <trkpt lat="46.03734" lon="4.63701">
        <ele>347</ele>
        <time>2016-11-12T10:38:27Z</time>
      </trkpt>
      <trkpt lat="46.03735" lon="4.637">
        <ele>347</ele>
        <time>2016-11-12T10:38:28Z</time>
      </trkpt>
      <trkpt lat="46.03739" lon="4.63688">
        <ele>347</ele>
        <time>2016-11-12T10:38:32Z</time>
      </trkpt>
      <trkpt lat="46.0374" lon="4.63686">
        <ele>347</ele>
        <time>2016-11-12T10:38:33Z</time>
      </trkpt>
      <trkpt lat="46.03742" lon="4.63675">
        <ele>347</ele>
        <time>2016-11-12T10:38:37Z</time>
      </trkpt>
      <trkpt lat="46.03743" lon="4.63672">
        <ele>347</ele>
        <time>2016-11-12T10:38:38Z</time>
      </trkpt>
      <trkpt lat="46.03744" lon="4.63659">
        <ele>350</ele>
        <time>2016-11-12T10:38:42Z</time>
      </trkpt>
      <trkpt lat="46.03744" lon="4.63656">
        <ele>350</ele>
        <time>2016-11-12T10:38:43Z</time>
      </trkpt>
      <trkpt lat="46.03745" lon="4.63644">
        <ele>351</ele>
        <time>2016-11-12T10:38:47Z</time>
      </trkpt>
      <trkpt lat="46.03746" lon="4.63641">
        <ele>352</ele>
        <time>2016-11-12T10:38:48Z</time>
      </trkpt>
      <trkpt lat="46.03747" lon="4.63628">
        <ele>352</ele>
        <time>2016-11-12T10:38:52Z</time>
      </trkpt>
      <trkpt lat="46.03747" lon="4.63625">
        <ele>352</ele>
        <time>2016-11-12T10:38:53Z</time>
      </trkpt>
      <trkpt lat="46.03748" lon="4.63612">
        <ele>352</ele>
        <time>2016-11-12T10:38:57Z</time>
      </trkpt>
      <trkpt lat="46.03748" lon="4.6361">
        <ele>352</ele>
        <time>2016-11-12T10:38:58Z</time>
      </trkpt>
      <trkpt lat="46.0375" lon="4.63598">
        <ele>351</ele>
        <time>2016-11-12T10:39:02Z</time>
      </trkpt>
      <trkpt lat="46.0375" lon="4.63594">
        <ele>351</ele>
        <time>2016-11-12T10:39:03Z</time>
      </trkpt>
      <trkpt lat="46.03751" lon="4.63582">
        <ele>349</ele>
        <time>2016-11-12T10:39:07Z</time>
      </trkpt>
      <trkpt lat="46.03751" lon="4.63579">
        <ele>348</ele>
        <time>2016-11-12T10:39:08Z</time>
      </trkpt>
      <trkpt lat="46.0375" lon="4.63569">
        <ele>353</ele>
        <time>2016-11-12T10:39:11Z</time>
      </trkpt>
      <trkpt lat="46.0375" lon="4.63565">
        <ele>354</ele>
        <time>2016-11-12T10:39:12Z</time>
      </trkpt>
      <trkpt lat="46.03751" lon="4.63553">
        <ele>346</ele>
        <time>2016-11-12T10:39:16Z</time>
      </trkpt>
      <trkpt lat="46.03751" lon="4.6355">
        <ele>346</ele>
        <time>2016-11-12T10:39:17Z</time>
      </trkpt>
      <trkpt lat="46.03751" lon="4.63538">
        <ele>346</ele>
        <time>2016-11-12T10:39:21Z</time>
      </trkpt>
      <trkpt lat="46.03751" lon="4.63534">
        <ele>346</ele>
        <time>2016-11-12T10:39:22Z</time>
      </trkpt>
      <trkpt lat="46.0375" lon="4.63525">
        <ele>356</ele>
        <time>2016-11-12T10:39:25Z</time>
      </trkpt>
      <trkpt lat="46.0375" lon="4.63521">
        <ele>356</ele>
        <time>2016-11-12T10:39:26Z</time>
      </trkpt>
      <trkpt lat="46.03748" lon="4.6351">
        <ele>354</ele>
        <time>2016-11-12T10:39:30Z</time>
      </trkpt>
      <trkpt lat="46.03748" lon="4.63506">
        <ele>354</ele>
        <time>2016-11-12T10:39:31Z</time>
      </trkpt>
      <trkpt lat="46.03748" lon="4.63496">
        <ele>354</ele>
        <time>2016-11-12T10:39:34Z</time>
      </trkpt>
      <trkpt lat="46.03748" lon="4.63493">
        <ele>355</ele>
        <time>2016-11-12T10:39:35Z</time>
      </trkpt>
      <trkpt lat="46.03748" lon="4.63481">
        <ele>358</ele>
        <time>2016-11-12T10:39:39Z</time>
      </trkpt>
      <trkpt lat="46.03748" lon="4.63478">
        <ele>358</ele>
        <time>2016-11-12T10:39:40Z</time>
      </trkpt>
      <trkpt lat="46.03748" lon="4.63466">
        <ele>359</ele>
        <time>2016-11-12T10:39:44Z</time>
      </trkpt>
      <trkpt lat="46.03747" lon="4.63463">
        <ele>360</ele>
        <time>2016-11-12T10:39:45Z</time>
      </trkpt>
      <trkpt lat="46.03747" lon="4.6345">
        <ele>360</ele>
        <time>2016-11-12T10:39:49Z</time>
      </trkpt>
      <trkpt lat="46.03746" lon="4.63448">
        <ele>360</ele>
        <time>2016-11-12T10:39:50Z</time>
      </trkpt>
      <trkpt lat="46.03745" lon="4.63438">
        <ele>359</ele>
        <time>2016-11-12T10:39:53Z</time>
      </trkpt>
      <trkpt lat="46.03745" lon="4.63435">
        <ele>359</ele>
        <time>2016-11-12T10:39:54Z</time>
      </trkpt>
      <trkpt lat="46.03743" lon="4.63422">
        <ele>358</ele>
        <time>2016-11-12T10:39:58Z</time>
      </trkpt>
      <trkpt lat="46.03743" lon="4.6342">
        <ele>357</ele>
        <time>2016-11-12T10:39:59Z</time>
      </trkpt>
      <trkpt lat="46.03744" lon="4.63407">
        <ele>360</ele>
        <time>2016-11-12T10:40:03Z</time>
      </trkpt>
      <trkpt lat="46.03744" lon="4.63404">
        <ele>361</ele>
        <time>2016-11-12T10:40:04Z</time>
      </trkpt>
      <trkpt lat="46.03743" lon="4.63401">
        <ele>361</ele>
        <time>2016-11-12T10:40:05Z</time>
      </trkpt>
      <trkpt lat="46.03743" lon="4.63399">
        <ele>362</ele>
        <time>2016-11-12T10:40:06Z</time>
      </trkpt>
      <trkpt lat="46.03743" lon="4.63397">
        <ele>362</ele>
        <time>2016-11-12T10:40:07Z</time>
      </trkpt>
      <trkpt lat="46.03743" lon="4.63386">
        <ele>364</ele>
        <time>2016-11-12T10:40:10Z</time>
      </trkpt>
      <trkpt lat="46.03743" lon="4.63383">
        <ele>364</ele>
        <time>2016-11-12T10:40:11Z</time>
      </trkpt>
      <trkpt lat="46.03742" lon="4.63373">
        <ele>364</ele>
        <time>2016-11-12T10:40:14Z</time>
      </trkpt>
      <trkpt lat="46.03742" lon="4.6337">
        <ele>365</ele>
        <time>2016-11-12T10:40:15Z</time>
      </trkpt>
      <trkpt lat="46.03742" lon="4.6336">
        <ele>364</ele>
        <time>2016-11-12T10:40:18Z</time>
      </trkpt>
      <trkpt lat="46.03741" lon="4.63356">
        <ele>364</ele>
        <time>2016-11-12T10:40:19Z</time>
      </trkpt>
      <trkpt lat="46.03741" lon="4.63345">
        <ele>363</ele>
        <time>2016-11-12T10:40:23Z</time>
      </trkpt>
      <trkpt lat="46.03741" lon="4.63341">
        <ele>363</ele>
        <time>2016-11-12T10:40:24Z</time>
      </trkpt>
      <trkpt lat="46.03741" lon="4.63329">
        <ele>364</ele>
        <time>2016-11-12T10:40:28Z</time>
      </trkpt>
      <trkpt lat="46.03741" lon="4.63326">
        <ele>365</ele>
        <time>2016-11-12T10:40:29Z</time>
      </trkpt>
      <trkpt lat="46.03742" lon="4.63313">
        <ele>367</ele>
        <time>2016-11-12T10:40:33Z</time>
      </trkpt>
      <trkpt lat="46.03742" lon="4.63309">
        <ele>368</ele>
        <time>2016-11-12T10:40:34Z</time>
      </trkpt>
      <trkpt lat="46.03743" lon="4.63298">
        <ele>369</ele>
        <time>2016-11-12T10:40:37Z</time>
      </trkpt>
      <trkpt lat="46.03742" lon="4.63295">
        <ele>369</ele>
        <time>2016-11-12T10:40:38Z</time>
      </trkpt>
      <trkpt lat="46.03743" lon="4.63282">
        <ele>369</ele>
        <time>2016-11-12T10:40:42Z</time>
      </trkpt>
      <trkpt lat="46.03743" lon="4.63279">
        <ele>369</ele>
        <time>2016-11-12T10:40:43Z</time>
      </trkpt>
      <trkpt lat="46.03744" lon="4.63269">
        <ele>368</ele>
        <time>2016-11-12T10:40:46Z</time>
      </trkpt>
      <trkpt lat="46.03744" lon="4.63266">
        <ele>368</ele>
        <time>2016-11-12T10:40:47Z</time>
      </trkpt>
      <trkpt lat="46.03745" lon="4.63256">
        <ele>366</ele>
        <time>2016-11-12T10:40:50Z</time>
      </trkpt>
      <trkpt lat="46.03746" lon="4.63252">
        <ele>365</ele>
        <time>2016-11-12T10:40:51Z</time>
      </trkpt>
      <trkpt lat="46.03746" lon="4.6324">
        <ele>368</ele>
        <time>2016-11-12T10:40:55Z</time>
      </trkpt>
      <trkpt lat="46.03747" lon="4.63237">
        <ele>369</ele>
        <time>2016-11-12T10:40:56Z</time>
      </trkpt>
      <trkpt lat="46.03748" lon="4.63225">
        <ele>372</ele>
        <time>2016-11-12T10:41:00Z</time>
      </trkpt>
      <trkpt lat="46.03748" lon="4.63222">
        <ele>372</ele>
        <time>2016-11-12T10:41:01Z</time>
      </trkpt>
      <trkpt lat="46.03749" lon="4.6321">
        <ele>373</ele>
        <time>2016-11-12T10:41:05Z</time>
      </trkpt>
      <trkpt lat="46.03749" lon="4.63207">
        <ele>373</ele>
        <time>2016-11-12T10:41:06Z</time>
      </trkpt>
      <trkpt lat="46.0375" lon="4.63195">
        <ele>360</ele>
        <time>2016-11-12T10:41:10Z</time>
      </trkpt>
      <trkpt lat="46.0375" lon="4.63192">
        <ele>361</ele>
        <time>2016-11-12T10:41:11Z</time>
      </trkpt>
      <trkpt lat="46.03751" lon="4.6318">
        <ele>363</ele>
        <time>2016-11-12T10:41:15Z</time>
      </trkpt>
      <trkpt lat="46.03752" lon="4.63178">
        <ele>364</ele>
        <time>2016-11-12T10:41:16Z</time>
      </trkpt>
      <trkpt lat="46.03752" lon="4.63168">
        <ele>367</ele>
        <time>2016-11-12T10:41:19Z</time>
      </trkpt>
      <trkpt lat="46.03752" lon="4.63164">
        <ele>367</ele>
        <time>2016-11-12T10:41:20Z</time>
      </trkpt>
      <trkpt lat="46.03753" lon="4.63153">
        <ele>365</ele>
        <time>2016-11-12T10:41:24Z</time>
      </trkpt>
      <trkpt lat="46.03753" lon="4.6315">
        <ele>365</ele>
        <time>2016-11-12T10:41:25Z</time>
      </trkpt>
      <trkpt lat="46.03753" lon="4.63141">
        <ele>364</ele>
        <time>2016-11-12T10:41:28Z</time>
      </trkpt>
      <trkpt lat="46.03752" lon="4.63136">
        <ele>364</ele>
        <time>2016-11-12T10:41:29Z</time>
      </trkpt>
      <trkpt lat="46.03751" lon="4.63133">
        <ele>364</ele>
        <time>2016-11-12T10:41:30Z</time>
      </trkpt>
      <trkpt lat="46.03748" lon="4.63121">
        <ele>378</ele>
        <time>2016-11-12T10:41:34Z</time>
      </trkpt>
      <trkpt lat="46.03747" lon="4.63109">
        <ele>378</ele>
        <time>2016-11-12T10:41:38Z</time>
      </trkpt>
      <trkpt lat="46.03747" lon="4.63107">
        <ele>378</ele>
        <time>2016-11-12T10:41:39Z</time>
      </trkpt>
      <trkpt lat="46.03744" lon="4.631">
        <ele>378</ele>
        <time>2016-11-12T10:41:41Z</time>
      </trkpt>
      <trkpt lat="46.0374" lon="4.63096">
        <ele>378</ele>
        <time>2016-11-12T10:41:42Z</time>
      </trkpt>
      <trkpt lat="46.0374" lon="4.63083">
        <ele>377</ele>
        <time>2016-11-12T10:41:46Z</time>
      </trkpt>
      <trkpt lat="46.03741" lon="4.63081">
        <ele>377</ele>
        <time>2016-11-12T10:41:47Z</time>
      </trkpt>
      <trkpt lat="46.03738" lon="4.6307">
        <ele>379</ele>
        <time>2016-11-12T10:41:50Z</time>
      </trkpt>
      <trkpt lat="46.03739" lon="4.63067">
        <ele>379</ele>
        <time>2016-11-12T10:41:51Z</time>
      </trkpt>
      <trkpt lat="46.03739" lon="4.63055">
        <ele>380</ele>
        <time>2016-11-12T10:41:56Z</time>
      </trkpt>
      <trkpt lat="46.03737" lon="4.63052">
        <ele>381</ele>
        <time>2016-11-12T10:41:57Z</time>
      </trkpt>
      <trkpt lat="46.03734" lon="4.63042">
        <ele>381</ele>
        <time>2016-11-12T10:42:01Z</time>
      </trkpt>
      <trkpt lat="46.03733" lon="4.6304">
        <ele>381</ele>
        <time>2016-11-12T10:42:02Z</time>
      </trkpt>
      <trkpt lat="46.03733" lon="4.63027">
        <ele>381</ele>
        <time>2016-11-12T10:42:06Z</time>
      </trkpt>
      <trkpt lat="46.03732" lon="4.63024">
        <ele>380</ele>
        <time>2016-11-12T10:42:07Z</time>
      </trkpt>
      <trkpt lat="46.03729" lon="4.63016">
        <ele>380</ele>
        <time>2016-11-12T10:42:10Z</time>
      </trkpt>
      <trkpt lat="46.03726" lon="4.63008">
        <ele>380</ele>
        <time>2016-11-12T10:42:13Z</time>
      </trkpt>
      <trkpt lat="46.03722" lon="4.62997">
        <ele>380</ele>
        <time>2016-11-12T10:42:17Z</time>
      </trkpt>
      <trkpt lat="46.0372" lon="4.62994">
        <ele>380</ele>
        <time>2016-11-12T10:42:18Z</time>
      </trkpt>
      <trkpt lat="46.03715" lon="4.62983">
        <ele>381</ele>
        <time>2016-11-12T10:42:22Z</time>
      </trkpt>
      <trkpt lat="46.03713" lon="4.62981">
        <ele>382</ele>
        <time>2016-11-12T10:42:23Z</time>
      </trkpt>
      <trkpt lat="46.03709" lon="4.62973">
        <ele>382</ele>
        <time>2016-11-12T10:42:26Z</time>
      </trkpt>
      <trkpt lat="46.03708" lon="4.62969">
        <ele>382</ele>
        <time>2016-11-12T10:42:27Z</time>
      </trkpt>
      <trkpt lat="46.03704" lon="4.62958">
        <ele>383</ele>
        <time>2016-11-12T10:42:31Z</time>
      </trkpt>
      <trkpt lat="46.03703" lon="4.62956">
        <ele>383</ele>
        <time>2016-11-12T10:42:32Z</time>
      </trkpt>
      <trkpt lat="46.037" lon="4.62946">
        <ele>383</ele>
        <time>2016-11-12T10:42:36Z</time>
      </trkpt>
      <trkpt lat="46.03699" lon="4.62943">
        <ele>383</ele>
        <time>2016-11-12T10:42:37Z</time>
      </trkpt>
      <trkpt lat="46.03695" lon="4.62935">
        <ele>384</ele>
        <time>2016-11-12T10:42:40Z</time>
      </trkpt>
      <trkpt lat="46.03694" lon="4.62932">
        <ele>384</ele>
        <time>2016-11-12T10:42:41Z</time>
      </trkpt>
      <trkpt lat="46.03693" lon="4.6292">
        <ele>385</ele>
        <time>2016-11-12T10:42:45Z</time>
      </trkpt>
      <trkpt lat="46.03691" lon="4.62917">
        <ele>385</ele>
        <time>2016-11-12T10:42:46Z</time>
      </trkpt>
      <trkpt lat="46.03688" lon="4.62907">
        <ele>383</ele>
        <time>2016-11-12T10:42:49Z</time>
      </trkpt>
      <trkpt lat="46.03687" lon="4.62904">
        <ele>382</ele>
        <time>2016-11-12T10:42:50Z</time>
      </trkpt>
      <trkpt lat="46.03683" lon="4.62892">
        <ele>382</ele>
        <time>2016-11-12T10:42:54Z</time>
      </trkpt>
      <trkpt lat="46.03682" lon="4.62889">
        <ele>382</ele>
        <time>2016-11-12T10:42:55Z</time>
      </trkpt>
      <trkpt lat="46.03678" lon="4.62879">
        <ele>381</ele>
        <time>2016-11-12T10:42:58Z</time>
      </trkpt>
      <trkpt lat="46.03677" lon="4.62876">
        <ele>381</ele>
        <time>2016-11-12T10:42:59Z</time>
      </trkpt>
      <trkpt lat="46.03673" lon="4.62868">
        <ele>381</ele>
        <time>2016-11-12T10:43:02Z</time>
      </trkpt>
      <trkpt lat="46.03672" lon="4.62865">
        <ele>381</ele>
        <time>2016-11-12T10:43:03Z</time>
      </trkpt>
      <trkpt lat="46.03668" lon="4.62855">
        <ele>382</ele>
        <time>2016-11-12T10:43:07Z</time>
      </trkpt>
      <trkpt lat="46.03667" lon="4.62853">
        <ele>394</ele>
        <time>2016-11-12T10:43:08Z</time>
      </trkpt>
      <trkpt lat="46.03664" lon="4.62842">
        <ele>391</ele>
        <time>2016-11-12T10:43:12Z</time>
      </trkpt>
      <trkpt lat="46.03663" lon="4.62838">
        <ele>390</ele>
        <time>2016-11-12T10:43:13Z</time>
      </trkpt>
      <trkpt lat="46.03661" lon="4.62826">
        <ele>391</ele>
        <time>2016-11-12T10:43:17Z</time>
      </trkpt>
      <trkpt lat="46.03661" lon="4.62823">
        <ele>392</ele>
        <time>2016-11-12T10:43:18Z</time>
      </trkpt>
      <trkpt lat="46.03661" lon="4.62813">
        <ele>393</ele>
        <time>2016-11-12T10:43:21Z</time>
      </trkpt>
      <trkpt lat="46.03661" lon="4.62809">
        <ele>394</ele>
        <time>2016-11-12T10:43:22Z</time>
      </trkpt>
      <trkpt lat="46.03661" lon="4.62799">
        <ele>395</ele>
        <time>2016-11-12T10:43:25Z</time>
      </trkpt>
      <trkpt lat="46.03662" lon="4.62795">
        <ele>395</ele>
        <time>2016-11-12T10:43:26Z</time>
      </trkpt>
      <trkpt lat="46.03662" lon="4.62783">
        <ele>395</ele>
        <time>2016-11-12T10:43:30Z</time>
      </trkpt>
      <trkpt lat="46.03662" lon="4.6278">
        <ele>395</ele>
        <time>2016-11-12T10:43:31Z</time>
      </trkpt>
      <trkpt lat="46.03662" lon="4.62767">
        <ele>393</ele>
        <time>2016-11-12T10:43:35Z</time>
      </trkpt>
      <trkpt lat="46.03662" lon="4.62764">
        <ele>393</ele>
        <time>2016-11-12T10:43:36Z</time>
      </trkpt>
      <trkpt lat="46.03664" lon="4.62752">
        <ele>390</ele>
        <time>2016-11-12T10:43:40Z</time>
      </trkpt>
      <trkpt lat="46.03664" lon="4.62749">
        <ele>389</ele>
        <time>2016-11-12T10:43:41Z</time>
      </trkpt>
      <trkpt lat="46.03663" lon="4.62737">
        <ele>392</ele>
        <time>2016-11-12T10:43:44Z</time>
      </trkpt>
      <trkpt lat="46.03664" lon="4.62734">
        <ele>393</ele>
        <time>2016-11-12T10:43:45Z</time>
      </trkpt>
      <trkpt lat="46.03663" lon="4.62724">
        <ele>394</ele>
        <time>2016-11-12T10:43:48Z</time>
      </trkpt>
      <trkpt lat="46.03663" lon="4.62721">
        <ele>395</ele>
        <time>2016-11-12T10:43:49Z</time>
      </trkpt>
      <trkpt lat="46.03662" lon="4.62709">
        <ele>395</ele>
        <time>2016-11-12T10:43:53Z</time>
      </trkpt>
      <trkpt lat="46.03661" lon="4.62706">
        <ele>395</ele>
        <time>2016-11-12T10:43:54Z</time>
      </trkpt>
      <trkpt lat="46.03659" lon="4.62695">
        <ele>395</ele>
        <time>2016-11-12T10:43:58Z</time>
      </trkpt>
      <trkpt lat="46.03657" lon="4.62692">
        <ele>395</ele>
        <time>2016-11-12T10:43:59Z</time>
      </trkpt>
      <trkpt lat="46.03655" lon="4.6268">
        <ele>394</ele>
        <time>2016-11-12T10:44:03Z</time>
      </trkpt>
      <trkpt lat="46.03655" lon="4.62677">
        <ele>394</ele>
        <time>2016-11-12T10:44:04Z</time>
      </trkpt>
      <trkpt lat="46.03652" lon="4.62667">
        <ele>394</ele>
        <time>2016-11-12T10:44:08Z</time>
      </trkpt>
      <trkpt lat="46.03651" lon="4.62664">
        <ele>393</ele>
        <time>2016-11-12T10:44:09Z</time>
      </trkpt>
      <trkpt lat="46.03646" lon="4.62654">
        <ele>393</ele>
        <time>2016-11-12T10:44:13Z</time>
      </trkpt>
      <trkpt lat="46.03646" lon="4.62651">
        <ele>393</ele>
        <time>2016-11-12T10:44:14Z</time>
      </trkpt>
      <trkpt lat="46.03641" lon="4.62642">
        <ele>394</ele>
        <time>2016-11-12T10:44:17Z</time>
      </trkpt>
      <trkpt lat="46.0364" lon="4.62639">
        <ele>394</ele>
        <time>2016-11-12T10:44:18Z</time>
      </trkpt>
      <trkpt lat="46.03636" lon="4.6263">
        <ele>394</ele>
        <time>2016-11-12T10:44:21Z</time>
      </trkpt>
      <trkpt lat="46.03635" lon="4.62627">
        <ele>394</ele>
        <time>2016-11-12T10:44:22Z</time>
      </trkpt>
      <trkpt lat="46.03629" lon="4.62619">
        <ele>394</ele>
        <time>2016-11-12T10:44:25Z</time>
      </trkpt>
      <trkpt lat="46.03627" lon="4.62617">
        <ele>394</ele>
        <time>2016-11-12T10:44:26Z</time>
      </trkpt>
      <trkpt lat="46.03621" lon="4.62611">
        <ele>394</ele>
        <time>2016-11-12T10:44:29Z</time>
      </trkpt>
      <trkpt lat="46.03619" lon="4.62609">
        <ele>394</ele>
        <time>2016-11-12T10:44:30Z</time>
      </trkpt>
      <trkpt lat="46.03613" lon="4.62603">
        <ele>395</ele>
        <time>2016-11-12T10:44:33Z</time>
      </trkpt>
      <trkpt lat="46.03611" lon="4.62601">
        <ele>395</ele>
        <time>2016-11-12T10:44:34Z</time>
      </trkpt>
      <trkpt lat="46.03604" lon="4.62595">
        <ele>395</ele>
        <time>2016-11-12T10:44:37Z</time>
      </trkpt>
      <trkpt lat="46.03601" lon="4.62593">
        <ele>396</ele>
        <time>2016-11-12T10:44:38Z</time>
      </trkpt>
      <trkpt lat="46.03595" lon="4.62588">
        <ele>396</ele>
        <time>2016-11-12T10:44:41Z</time>
      </trkpt>
      <trkpt lat="46.03593" lon="4.62586">
        <ele>396</ele>
        <time>2016-11-12T10:44:42Z</time>
      </trkpt>
      <trkpt lat="46.03585" lon="4.62581">
        <ele>396</ele>
        <time>2016-11-12T10:44:46Z</time>
      </trkpt>
      <trkpt lat="46.03583" lon="4.6258">
        <ele>397</ele>
        <time>2016-11-12T10:44:47Z</time>
      </trkpt>
      <trkpt lat="46.03576" lon="4.62575">
        <ele>398</ele>
        <time>2016-11-12T10:44:50Z</time>
      </trkpt>
      <trkpt lat="46.03574" lon="4.62574">
        <ele>398</ele>
        <time>2016-11-12T10:44:51Z</time>
      </trkpt>
      <trkpt lat="46.03567" lon="4.62569">
        <ele>399</ele>
        <time>2016-11-12T10:44:54Z</time>
      </trkpt>
      <trkpt lat="46.03565" lon="4.62567">
        <ele>399</ele>
        <time>2016-11-12T10:44:55Z</time>
      </trkpt>
      <trkpt lat="46.03558" lon="4.62562">
        <ele>400</ele>
        <time>2016-11-12T10:44:58Z</time>
      </trkpt>
      <trkpt lat="46.03556" lon="4.6256">
        <ele>400</ele>
        <time>2016-11-12T10:44:59Z</time>
      </trkpt>
      <trkpt lat="46.0355" lon="4.62555">
        <ele>400</ele>
        <time>2016-11-12T10:45:02Z</time>
      </trkpt>
      <trkpt lat="46.03548" lon="4.62553">
        <ele>400</ele>
        <time>2016-11-12T10:45:03Z</time>
      </trkpt>
      <trkpt lat="46.03542" lon="4.62548">
        <ele>401</ele>
        <time>2016-11-12T10:45:06Z</time>
      </trkpt>
      <trkpt lat="46.0354" lon="4.62545">
        <ele>401</ele>
        <time>2016-11-12T10:45:07Z</time>
      </trkpt>
      <trkpt lat="46.03534" lon="4.62539">
        <ele>401</ele>
        <time>2016-11-12T10:45:10Z</time>
      </trkpt>
      <trkpt lat="46.03532" lon="4.62537">
        <ele>401</ele>
        <time>2016-11-12T10:45:11Z</time>
      </trkpt>
      <trkpt lat="46.03526" lon="4.62531">
        <ele>401</ele>
        <time>2016-11-12T10:45:14Z</time>
      </trkpt>
      <trkpt lat="46.03524" lon="4.62529">
        <ele>401</ele>
        <time>2016-11-12T10:45:15Z</time>
      </trkpt>
      <trkpt lat="46.03519" lon="4.62524">
        <ele>401</ele>
        <time>2016-11-12T10:45:18Z</time>
      </trkpt>
      <trkpt lat="46.03516" lon="4.62522">
        <ele>402</ele>
        <time>2016-11-12T10:45:19Z</time>
      </trkpt>
      <trkpt lat="46.03509" lon="4.62516">
        <ele>402</ele>
        <time>2016-11-12T10:45:22Z</time>
      </trkpt>
      <trkpt lat="46.03507" lon="4.62515">
        <ele>402</ele>
        <time>2016-11-12T10:45:23Z</time>
      </trkpt>
      <trkpt lat="46.03501" lon="4.62511">
        <ele>402</ele>
        <time>2016-11-12T10:45:26Z</time>
      </trkpt>
      <trkpt lat="46.03498" lon="4.6251">
        <ele>407</ele>
        <time>2016-11-12T10:45:27Z</time>
      </trkpt>
      <trkpt lat="46.03491" lon="4.62506">
        <ele>407</ele>
        <time>2016-11-12T10:45:30Z</time>
      </trkpt>
      <trkpt lat="46.0349" lon="4.62503">
        <ele>407</ele>
        <time>2016-11-12T10:45:31Z</time>
      </trkpt>
      <trkpt lat="46.03485" lon="4.62498">
        <ele>404</ele>
        <time>2016-11-12T10:45:34Z</time>
      </trkpt>
      <trkpt lat="46.03482" lon="4.62496">
        <ele>404</ele>
        <time>2016-11-12T10:45:35Z</time>
      </trkpt>
      <trkpt lat="46.03475" lon="4.62492">
        <ele>404</ele>
        <time>2016-11-12T10:45:38Z</time>
      </trkpt>
      <trkpt lat="46.03473" lon="4.6249">
        <ele>404</ele>
        <time>2016-11-12T10:45:39Z</time>
      </trkpt>
      <trkpt lat="46.03468" lon="4.62484">
        <ele>404</ele>
        <time>2016-11-12T10:45:42Z</time>
      </trkpt>
      <trkpt lat="46.03465" lon="4.62483">
        <ele>405</ele>
        <time>2016-11-12T10:45:43Z</time>
      </trkpt>
      <trkpt lat="46.03459" lon="4.62477">
        <ele>405</ele>
        <time>2016-11-12T10:45:46Z</time>
      </trkpt>
      <trkpt lat="46.03457" lon="4.62475">
        <ele>405</ele>
        <time>2016-11-12T10:45:47Z</time>
      </trkpt>
      <trkpt lat="46.03451" lon="4.6247">
        <ele>405</ele>
        <time>2016-11-12T10:45:50Z</time>
      </trkpt>
      <trkpt lat="46.03449" lon="4.62469">
        <ele>405</ele>
        <time>2016-11-12T10:45:51Z</time>
      </trkpt>
      <trkpt lat="46.03444" lon="4.62461">
        <ele>405</ele>
        <time>2016-11-12T10:45:54Z</time>
      </trkpt>
      <trkpt lat="46.03441" lon="4.62458">
        <ele>405</ele>
        <time>2016-11-12T10:45:55Z</time>
      </trkpt>
      <trkpt lat="46.03435" lon="4.62451">
        <ele>405</ele>
        <time>2016-11-12T10:45:58Z</time>
      </trkpt>
      <trkpt lat="46.03433" lon="4.62448">
        <ele>405</ele>
        <time>2016-11-12T10:45:59Z</time>
      </trkpt>
      <trkpt lat="46.03429" lon="4.62441">
        <ele>405</ele>
        <time>2016-11-12T10:46:02Z</time>
      </trkpt>
      <trkpt lat="46.03427" lon="4.62439">
        <ele>405</ele>
        <time>2016-11-12T10:46:03Z</time>
      </trkpt>
      <trkpt lat="46.03421" lon="4.62429">
        <ele>405</ele>
        <time>2016-11-12T10:46:07Z</time>
      </trkpt>
      <trkpt lat="46.0342" lon="4.62426">
        <ele>405</ele>
        <time>2016-11-12T10:46:08Z</time>
      </trkpt>
      <trkpt lat="46.03416" lon="4.62418">
        <ele>406</ele>
        <time>2016-11-12T10:46:11Z</time>
      </trkpt>
      <trkpt lat="46.03415" lon="4.62415">
        <ele>406</ele>
        <time>2016-11-12T10:46:12Z</time>
      </trkpt>
      <trkpt lat="46.03412" lon="4.62407">
        <ele>409</ele>
        <time>2016-11-12T10:46:15Z</time>
      </trkpt>
      <trkpt lat="46.0341" lon="4.62404">
        <ele>409</ele>
        <time>2016-11-12T10:46:16Z</time>
      </trkpt>
      <trkpt lat="46.03404" lon="4.62393">
        <ele>411</ele>
        <time>2016-11-12T10:46:19Z</time>
      </trkpt>
      <trkpt lat="46.03403" lon="4.6239">
        <ele>412</ele>
        <time>2016-11-12T10:46:20Z</time>
      </trkpt>
      <trkpt lat="46.03399" lon="4.62381">
        <ele>412</ele>
        <time>2016-11-12T10:46:23Z</time>
      </trkpt>
      <trkpt lat="46.03397" lon="4.62378">
        <ele>412</ele>
        <time>2016-11-12T10:46:24Z</time>
      </trkpt>
      <trkpt lat="46.03393" lon="4.6237">
        <ele>413</ele>
        <time>2016-11-12T10:46:27Z</time>
      </trkpt>
      <trkpt lat="46.03391" lon="4.62367">
        <ele>413</ele>
        <time>2016-11-12T10:46:28Z</time>
      </trkpt>
      <trkpt lat="46.03388" lon="4.62355">
        <ele>412</ele>
        <time>2016-11-12T10:46:32Z</time>
      </trkpt>
      <trkpt lat="46.03387" lon="4.62352">
        <ele>412</ele>
        <time>2016-11-12T10:46:33Z</time>
      </trkpt>
      <trkpt lat="46.03382" lon="4.62342">
        <ele>413</ele>
        <time>2016-11-12T10:46:37Z</time>
      </trkpt>
      <trkpt lat="46.03381" lon="4.6234">
        <ele>413</ele>
        <time>2016-11-12T10:46:38Z</time>
      </trkpt>
      <trkpt lat="46.03377" lon="4.62329">
        <ele>412</ele>
        <time>2016-11-12T10:46:42Z</time>
      </trkpt>
      <trkpt lat="46.03376" lon="4.62325">
        <ele>412</ele>
        <time>2016-11-12T10:46:43Z</time>
      </trkpt>
      <trkpt lat="46.03374" lon="4.62314">
        <ele>412</ele>
        <time>2016-11-12T10:46:47Z</time>
      </trkpt>
      <trkpt lat="46.03373" lon="4.62312">
        <ele>412</ele>
        <time>2016-11-12T10:46:48Z</time>
      </trkpt>
      <trkpt lat="46.03374" lon="4.62301">
        <ele>412</ele>
        <time>2016-11-12T10:46:51Z</time>
      </trkpt>
      <trkpt lat="46.03374" lon="4.62297">
        <ele>412</ele>
        <time>2016-11-12T10:46:52Z</time>
      </trkpt>
      <trkpt lat="46.03374" lon="4.62287">
        <ele>412</ele>
        <time>2016-11-12T10:46:55Z</time>
      </trkpt>
      <trkpt lat="46.03374" lon="4.62283">
        <ele>412</ele>
        <time>2016-11-12T10:46:56Z</time>
      </trkpt>
      <trkpt lat="46.03372" lon="4.62272">
        <ele>412</ele>
        <time>2016-11-12T10:46:59Z</time>
      </trkpt>
      <trkpt lat="46.03371" lon="4.62268">
        <ele>412</ele>
        <time>2016-11-12T10:47:00Z</time>
      </trkpt>
      <trkpt lat="46.03368" lon="4.62257">
        <ele>412</ele>
        <time>2016-11-12T10:47:03Z</time>
      </trkpt>
      <trkpt lat="46.03366" lon="4.62255">
        <ele>412</ele>
        <time>2016-11-12T10:47:04Z</time>
      </trkpt>
      <trkpt lat="46.03359" lon="4.62247">
        <ele>408</ele>
        <time>2016-11-12T10:47:07Z</time>
      </trkpt>
      <trkpt lat="46.03357" lon="4.62245">
        <ele>409</ele>
        <time>2016-11-12T10:47:08Z</time>
      </trkpt>
      <trkpt lat="46.03349" lon="4.62241">
        <ele>410</ele>
        <time>2016-11-12T10:47:11Z</time>
      </trkpt>
      <trkpt lat="46.03347" lon="4.62241">
        <ele>410</ele>
        <time>2016-11-12T10:47:12Z</time>
      </trkpt>
      <trkpt lat="46.03339" lon="4.62238">
        <ele>412</ele>
        <time>2016-11-12T10:47:15Z</time>
      </trkpt>
      <trkpt lat="46.03336" lon="4.62238">
        <ele>412</ele>
        <time>2016-11-12T10:47:16Z</time>
      </trkpt>
      <trkpt lat="46.03328" lon="4.62236">
        <ele>415</ele>
        <time>2016-11-12T10:47:19Z</time>
      </trkpt>
      <trkpt lat="46.03325" lon="4.62235">
        <ele>414</ele>
        <time>2016-11-12T10:47:20Z</time>
      </trkpt>
      <trkpt lat="46.03318" lon="4.62233">
        <ele>414</ele>
        <time>2016-11-12T10:47:23Z</time>
      </trkpt>
      <trkpt lat="46.03316" lon="4.62233">
        <ele>413</ele>
        <time>2016-11-12T10:47:24Z</time>
      </trkpt>
      <trkpt lat="46.03309" lon="4.62232">
        <ele>413</ele>
        <time>2016-11-12T10:47:27Z</time>
      </trkpt>
      <trkpt lat="46.03306" lon="4.62232">
        <ele>413</ele>
        <time>2016-11-12T10:47:28Z</time>
      </trkpt>
      <trkpt lat="46.03299" lon="4.62233">
        <ele>413</ele>
        <time>2016-11-12T10:47:31Z</time>
      </trkpt>
      <trkpt lat="46.03296" lon="4.62233">
        <ele>413</ele>
        <time>2016-11-12T10:47:32Z</time>
      </trkpt>
      <trkpt lat="46.03288" lon="4.62235">
        <ele>414</ele>
        <time>2016-11-12T10:47:35Z</time>
      </trkpt>
      <trkpt lat="46.03286" lon="4.62236">
        <ele>414</ele>
        <time>2016-11-12T10:47:36Z</time>
      </trkpt>
      <trkpt lat="46.03278" lon="4.62238">
        <ele>414</ele>
        <time>2016-11-12T10:47:39Z</time>
      </trkpt>
      <trkpt lat="46.03276" lon="4.62238">
        <ele>415</ele>
        <time>2016-11-12T10:47:40Z</time>
      </trkpt>
      <trkpt lat="46.03267" lon="4.62242">
        <ele>416</ele>
        <time>2016-11-12T10:47:44Z</time>
      </trkpt>
      <trkpt lat="46.03264" lon="4.62242">
        <ele>416</ele>
        <time>2016-11-12T10:47:45Z</time>
      </trkpt>
      <trkpt lat="46.03257" lon="4.62243">
        <ele>418</ele>
        <time>2016-11-12T10:47:48Z</time>
      </trkpt>
      <trkpt lat="46.03255" lon="4.62244">
        <ele>418</ele>
        <time>2016-11-12T10:47:49Z</time>
      </trkpt>
      <trkpt lat="46.03247" lon="4.62247">
        <ele>421</ele>
        <time>2016-11-12T10:47:52Z</time>
      </trkpt>
      <trkpt lat="46.03245" lon="4.62248">
        <ele>421</ele>
        <time>2016-11-12T10:47:53Z</time>
      </trkpt>
      <trkpt lat="46.03237" lon="4.62249">
        <ele>421</ele>
        <time>2016-11-12T10:47:56Z</time>
      </trkpt>
      <trkpt lat="46.03235" lon="4.62249">
        <ele>421</ele>
        <time>2016-11-12T10:47:57Z</time>
      </trkpt>
      <trkpt lat="46.03227" lon="4.6225">
        <ele>421</ele>
        <time>2016-11-12T10:48:00Z</time>
      </trkpt>
      <trkpt lat="46.03225" lon="4.6225">
        <ele>421</ele>
        <time>2016-11-12T10:48:01Z</time>
      </trkpt>
      <trkpt lat="46.03217" lon="4.62251">
        <ele>427</ele>
        <time>2016-11-12T10:48:04Z</time>
      </trkpt>
      <trkpt lat="46.03215" lon="4.62252">
        <ele>427</ele>
        <time>2016-11-12T10:48:05Z</time>
      </trkpt>
      <trkpt lat="46.03207" lon="4.62252">
        <ele>428</ele>
        <time>2016-11-12T10:48:08Z</time>
      </trkpt>
      <trkpt lat="46.03205" lon="4.62251">
        <ele>428</ele>
        <time>2016-11-12T10:48:09Z</time>
      </trkpt>
      <trkpt lat="46.03199" lon="4.62247">
        <ele>423</ele>
        <time>2016-11-12T10:48:12Z</time>
      </trkpt>
      <trkpt lat="46.03197" lon="4.62246">
        <ele>423</ele>
        <time>2016-11-12T10:48:13Z</time>
      </trkpt>
      <trkpt lat="46.03193" lon="4.62238">
        <ele>423</ele>
        <time>2016-11-12T10:48:16Z</time>
      </trkpt>
      <trkpt lat="46.03191" lon="4.62235">
        <ele>423</ele>
        <time>2016-11-12T10:48:17Z</time>
      </trkpt>
      <trkpt lat="46.03187" lon="4.62225">
        <ele>423</ele>
        <time>2016-11-12T10:48:20Z</time>
      </trkpt>
      <trkpt lat="46.03187" lon="4.62222">
        <ele>422</ele>
        <time>2016-11-12T10:48:21Z</time>
      </trkpt>
      <trkpt lat="46.03185" lon="4.62209">
        <ele>422</ele>
        <time>2016-11-12T10:48:24Z</time>
      </trkpt>
      <trkpt lat="46.03185" lon="4.62205">
        <ele>422</ele>
        <time>2016-11-12T10:48:25Z</time>
      </trkpt>
      <trkpt lat="46.03183" lon="4.62194">
        <ele>421</ele>
        <time>2016-11-12T10:48:28Z</time>
      </trkpt>
      <trkpt lat="46.03182" lon="4.62191">
        <ele>421</ele>
        <time>2016-11-12T10:48:29Z</time>
      </trkpt>
      <trkpt lat="46.03178" lon="4.62181">
        <ele>422</ele>
        <time>2016-11-12T10:48:32Z</time>
      </trkpt>
      <trkpt lat="46.03177" lon="4.62178">
        <ele>422</ele>
        <time>2016-11-12T10:48:33Z</time>
      </trkpt>
      <trkpt lat="46.03175" lon="4.62168">
        <ele>423</ele>
        <time>2016-11-12T10:48:36Z</time>
      </trkpt>
      <trkpt lat="46.03174" lon="4.62166">
        <ele>420</ele>
        <time>2016-11-12T10:48:37Z</time>
      </trkpt>
      <trkpt lat="46.03173" lon="4.62162">
        <ele>420</ele>
        <time>2016-11-12T10:48:39Z</time>
      </trkpt>
      <trkpt lat="46.03173" lon="4.62161">
        <ele>420</ele>
        <time>2016-11-12T10:48:40Z</time>
      </trkpt>
      <trkpt lat="46.03172" lon="4.6216">
        <ele>420</ele>
        <time>2016-11-12T10:53:27Z</time>
      </trkpt>
      <trkpt lat="46.03172" lon="4.6216">
        <ele>420</ele>
        <time>2016-11-12T10:53:28Z</time>
      </trkpt>
      <trkpt lat="46.03165" lon="4.62153">
        <ele>426</ele>
        <time>2016-11-12T10:54:47Z</time>
      </trkpt>
      <trkpt lat="46.03165" lon="4.6215">
        <ele>427</ele>
        <time>2016-11-12T10:54:48Z</time>
      </trkpt>
      <trkpt lat="46.03163" lon="4.62138">
        <ele>427</ele>
        <time>2016-11-12T10:54:52Z</time>
      </trkpt>
      <trkpt lat="46.03162" lon="4.62136">
        <ele>427</ele>
        <time>2016-11-12T10:54:53Z</time>
      </trkpt>
      <trkpt lat="46.03157" lon="4.62127">
        <ele>427</ele>
        <time>2016-11-12T10:54:56Z</time>
      </trkpt>
      <trkpt lat="46.03155" lon="4.62124">
        <ele>427</ele>
        <time>2016-11-12T10:54:57Z</time>
      </trkpt>
      <trkpt lat="46.0315" lon="4.62115">
        <ele>426</ele>
        <time>2016-11-12T10:55:01Z</time>
      </trkpt>
      <trkpt lat="46.0315" lon="4.62114">
        <ele>426</ele>
        <time>2016-11-12T10:55:02Z</time>
      </trkpt>
      <trkpt lat="46.03145" lon="4.62107">
        <ele>426</ele>
        <time>2016-11-12T10:55:38Z</time>
      </trkpt>
      <trkpt lat="46.03143" lon="4.62104">
        <ele>426</ele>
        <time>2016-11-12T10:55:39Z</time>
      </trkpt>
      <trkpt lat="46.03137" lon="4.62095">
        <ele>427</ele>
        <time>2016-11-12T10:55:42Z</time>
      </trkpt>
      <trkpt lat="46.03135" lon="4.62093">
        <ele>427</ele>
        <time>2016-11-12T10:55:43Z</time>
      </trkpt>
      <trkpt lat="46.03129" lon="4.62086">
        <ele>428</ele>
        <time>2016-11-12T10:55:46Z</time>
      </trkpt>
      <trkpt lat="46.03127" lon="4.62082">
        <ele>426</ele>
        <time>2016-11-12T10:55:47Z</time>
      </trkpt>
      <trkpt lat="46.03122" lon="4.62074">
        <ele>427</ele>
        <time>2016-11-12T10:55:49Z</time>
      </trkpt>
      <trkpt lat="46.03119" lon="4.6207">
        <ele>427</ele>
        <time>2016-11-12T10:55:50Z</time>
      </trkpt>
      <trkpt lat="46.03116" lon="4.6206">
        <ele>428</ele>
        <time>2016-11-12T10:55:52Z</time>
      </trkpt>
      <trkpt lat="46.03114" lon="4.62056">
        <ele>428</ele>
        <time>2016-11-12T10:55:53Z</time>
      </trkpt>
      <trkpt lat="46.0311" lon="4.62048">
        <ele>428</ele>
        <time>2016-11-12T10:55:55Z</time>
      </trkpt>
      <trkpt lat="46.03108" lon="4.62043">
        <ele>428</ele>
        <time>2016-11-12T10:55:56Z</time>
      </trkpt>
      <trkpt lat="46.03105" lon="4.62035">
        <ele>429</ele>
        <time>2016-11-12T10:55:58Z</time>
      </trkpt>
      <trkpt lat="46.03104" lon="4.62031">
        <ele>429</ele>
        <time>2016-11-12T10:55:59Z</time>
      </trkpt>
      <trkpt lat="46.03102" lon="4.62021">
        <ele>430</ele>
        <time>2016-11-12T10:56:01Z</time>
      </trkpt>
      <trkpt lat="46.03102" lon="4.62016">
        <ele>430</ele>
        <time>2016-11-12T10:56:02Z</time>
      </trkpt>
      <trkpt lat="46.03101" lon="4.62007">
        <ele>431</ele>
        <time>2016-11-12T10:56:04Z</time>
      </trkpt>
      <trkpt lat="46.03101" lon="4.62002">
        <ele>431</ele>
        <time>2016-11-12T10:56:05Z</time>
      </trkpt>
      <trkpt lat="46.03101" lon="4.6199">
        <ele>432</ele>
        <time>2016-11-12T10:56:08Z</time>
      </trkpt>
      <trkpt lat="46.03102" lon="4.61984">
        <ele>431</ele>
        <time>2016-11-12T10:56:09Z</time>
      </trkpt>
      <trkpt lat="46.03104" lon="4.61974">
        <ele>431</ele>
        <time>2016-11-12T10:56:11Z</time>
      </trkpt>
      <trkpt lat="46.03105" lon="4.61969">
        <ele>430</ele>
        <time>2016-11-12T10:56:12Z</time>
      </trkpt>
      <trkpt lat="46.03106" lon="4.6196">
        <ele>430</ele>
        <time>2016-11-12T10:56:14Z</time>
      </trkpt>
      <trkpt lat="46.03107" lon="4.61956">
        <ele>430</ele>
        <time>2016-11-12T10:56:15Z</time>
      </trkpt>
      <trkpt lat="46.03109" lon="4.61948">
        <ele>430</ele>
        <time>2016-11-12T10:56:17Z</time>
      </trkpt>
      <trkpt lat="46.03109" lon="4.61943">
        <ele>431</ele>
        <time>2016-11-12T10:56:18Z</time>
      </trkpt>
      <trkpt lat="46.03112" lon="4.61932">
        <ele>431</ele>
        <time>2016-11-12T10:56:21Z</time>
      </trkpt>
      <trkpt lat="46.03113" lon="4.61928">
        <ele>431</ele>
        <time>2016-11-12T10:56:22Z</time>
      </trkpt>
      <trkpt lat="46.03116" lon="4.6192">
        <ele>431</ele>
        <time>2016-11-12T10:56:24Z</time>
      </trkpt>
      <trkpt lat="46.03117" lon="4.61916">
        <ele>433</ele>
        <time>2016-11-12T10:56:25Z</time>
      </trkpt>
      <trkpt lat="46.03118" lon="4.61907">
        <ele>432</ele>
        <time>2016-11-12T10:56:27Z</time>
      </trkpt>
      <trkpt lat="46.03119" lon="4.61902">
        <ele>432</ele>
        <time>2016-11-12T10:56:28Z</time>
      </trkpt>
      <trkpt lat="46.0312" lon="4.61892">
        <ele>432</ele>
        <time>2016-11-12T10:56:30Z</time>
      </trkpt>
      <trkpt lat="46.03121" lon="4.61888">
        <ele>432</ele>
        <time>2016-11-12T10:56:31Z</time>
      </trkpt>
      <trkpt lat="46.03122" lon="4.61879">
        <ele>432</ele>
        <time>2016-11-12T10:56:33Z</time>
      </trkpt>
      <trkpt lat="46.03122" lon="4.61875">
        <ele>432</ele>
        <time>2016-11-12T10:56:34Z</time>
      </trkpt>
      <trkpt lat="46.03123" lon="4.61862">
        <ele>432</ele>
        <time>2016-11-12T10:56:37Z</time>
      </trkpt>
      <trkpt lat="46.03123" lon="4.61857">
        <ele>432</ele>
        <time>2016-11-12T10:56:38Z</time>
      </trkpt>
      <trkpt lat="46.03123" lon="4.61848">
        <ele>432</ele>
        <time>2016-11-12T10:56:40Z</time>
      </trkpt>
      <trkpt lat="46.03122" lon="4.61843">
        <ele>432</ele>
        <time>2016-11-12T10:56:41Z</time>
      </trkpt>
      <trkpt lat="46.03121" lon="4.61834">
        <ele>432</ele>
        <time>2016-11-12T10:56:43Z</time>
      </trkpt>
      <trkpt lat="46.03121" lon="4.61829">
        <ele>433</ele>
        <time>2016-11-12T10:56:44Z</time>
      </trkpt>
      <trkpt lat="46.0312" lon="4.61818">
        <ele>433</ele>
        <time>2016-11-12T10:56:46Z</time>
      </trkpt>
      <trkpt lat="46.0312" lon="4.61812">
        <ele>433</ele>
        <time>2016-11-12T10:56:47Z</time>
      </trkpt>
      <trkpt lat="46.03118" lon="4.61801">
        <ele>433</ele>
        <time>2016-11-12T10:56:49Z</time>
      </trkpt>
      <trkpt lat="46.03117" lon="4.61796">
        <ele>433</ele>
        <time>2016-11-12T10:56:50Z</time>
      </trkpt>
      <trkpt lat="46.03115" lon="4.61785">
        <ele>433</ele>
        <time>2016-11-12T10:56:52Z</time>
      </trkpt>
      <trkpt lat="46.03113" lon="4.6178">
        <ele>433</ele>
        <time>2016-11-12T10:56:53Z</time>
      </trkpt>
      <trkpt lat="46.03111" lon="4.61769">
        <ele>433</ele>
        <time>2016-11-12T10:56:55Z</time>
      </trkpt>
      <trkpt lat="46.0311" lon="4.61764">
        <ele>433</ele>
        <time>2016-11-12T10:56:56Z</time>
      </trkpt>
      <trkpt lat="46.03108" lon="4.61754">
        <ele>433</ele>
        <time>2016-11-12T10:56:58Z</time>
      </trkpt>
      <trkpt lat="46.03106" lon="4.61748">
        <ele>436</ele>
        <time>2016-11-12T10:56:59Z</time>
      </trkpt>
      <trkpt lat="46.03104" lon="4.61739">
        <ele>437</ele>
        <time>2016-11-12T10:57:01Z</time>
      </trkpt>
      <trkpt lat="46.03102" lon="4.61734">
        <ele>437</ele>
        <time>2016-11-12T10:57:02Z</time>
      </trkpt>
      <trkpt lat="46.031" lon="4.61725">
        <ele>437</ele>
        <time>2016-11-12T10:57:04Z</time>
      </trkpt>
      <trkpt lat="46.03098" lon="4.61721">
        <ele>438</ele>
        <time>2016-11-12T10:57:05Z</time>
      </trkpt>
      <trkpt lat="46.03094" lon="4.61714">
        <ele>438</ele>
        <time>2016-11-12T10:57:07Z</time>
      </trkpt>
      <trkpt lat="46.03092" lon="4.6171">
        <ele>439</ele>
        <time>2016-11-12T10:57:08Z</time>
      </trkpt>
      <trkpt lat="46.03088" lon="4.61702">
        <ele>439</ele>
        <time>2016-11-12T10:57:10Z</time>
      </trkpt>
      <trkpt lat="46.03086" lon="4.61698">
        <ele>440</ele>
        <time>2016-11-12T10:57:11Z</time>
      </trkpt>
      <trkpt lat="46.03081" lon="4.61691">
        <ele>436</ele>
        <time>2016-11-12T10:57:13Z</time>
      </trkpt>
      <trkpt lat="46.03078" lon="4.61688">
        <ele>436</ele>
        <time>2016-11-12T10:57:14Z</time>
      </trkpt>
      <trkpt lat="46.03073" lon="4.61681">
        <ele>437</ele>
        <time>2016-11-12T10:57:16Z</time>
      </trkpt>
      <trkpt lat="46.03069" lon="4.61679">
        <ele>437</ele>
        <time>2016-11-12T10:57:17Z</time>
      </trkpt>
      <trkpt lat="46.03061" lon="4.61675">
        <ele>435</ele>
        <time>2016-11-12T10:57:19Z</time>
      </trkpt>
      <trkpt lat="46.03057" lon="4.61673">
        <ele>435</ele>
        <time>2016-11-12T10:57:20Z</time>
      </trkpt>
      <trkpt lat="46.03052" lon="4.6167">
        <ele>434</ele>
        <time>2016-11-12T10:57:21Z</time>
      </trkpt>
      <trkpt lat="46.03048" lon="4.61667">
        <ele>433</ele>
        <time>2016-11-12T10:57:22Z</time>
      </trkpt>
      <trkpt lat="46.03044" lon="4.61665">
        <ele>441</ele>
        <time>2016-11-12T10:57:23Z</time>
      </trkpt>
      <trkpt lat="46.03039" lon="4.61663">
        <ele>441</ele>
        <time>2016-11-12T10:57:24Z</time>
      </trkpt>
      <trkpt lat="46.03035" lon="4.6166">
        <ele>440</ele>
        <time>2016-11-12T10:57:25Z</time>
      </trkpt>
      <trkpt lat="46.0303" lon="4.61657">
        <ele>440</ele>
        <time>2016-11-12T10:57:26Z</time>
      </trkpt>
      <trkpt lat="46.03024" lon="4.61654">
        <ele>439</ele>
        <time>2016-11-12T10:57:27Z</time>
      </trkpt>
      <trkpt lat="46.03019" lon="4.6165">
        <ele>439</ele>
        <time>2016-11-12T10:57:28Z</time>
      </trkpt>
      <trkpt lat="46.03013" lon="4.61646">
        <ele>438</ele>
        <time>2016-11-12T10:57:29Z</time>
      </trkpt>
      <trkpt lat="46.03008" lon="4.61641">
        <ele>439</ele>
        <time>2016-11-12T10:57:30Z</time>
      </trkpt>
      <trkpt lat="46.03003" lon="4.61636">
        <ele>440</ele>
        <time>2016-11-12T10:57:31Z</time>
      </trkpt>
      <trkpt lat="46.02997" lon="4.6163">
        <ele>430</ele>
        <time>2016-11-12T10:57:32Z</time>
      </trkpt>
      <trkpt lat="46.02992" lon="4.61624">
        <ele>431</ele>
        <time>2016-11-12T10:57:33Z</time>
      </trkpt>
      <trkpt lat="46.02986" lon="4.61617">
        <ele>431</ele>
        <time>2016-11-12T10:57:34Z</time>
      </trkpt>
      <trkpt lat="46.02981" lon="4.6161">
        <ele>432</ele>
        <time>2016-11-12T10:57:35Z</time>
      </trkpt>
      <trkpt lat="46.02975" lon="4.61603">
        <ele>432</ele>
        <time>2016-11-12T10:57:36Z</time>
      </trkpt>
      <trkpt lat="46.02969" lon="4.61597">
        <ele>432</ele>
        <time>2016-11-12T10:57:37Z</time>
      </trkpt>
      <trkpt lat="46.02963" lon="4.6159">
        <ele>431</ele>
        <time>2016-11-12T10:57:38Z</time>
      </trkpt>
      <trkpt lat="46.02955" lon="4.61585">
        <ele>430</ele>
        <time>2016-11-12T10:57:39Z</time>
      </trkpt>
      <trkpt lat="46.02948" lon="4.61579">
        <ele>436</ele>
        <time>2016-11-12T10:57:40Z</time>
      </trkpt>
      <trkpt lat="46.02941" lon="4.61573">
        <ele>435</ele>
        <time>2016-11-12T10:57:41Z</time>
      </trkpt>
      <trkpt lat="46.02936" lon="4.61566">
        <ele>435</ele>
        <time>2016-11-12T10:57:42Z</time>
      </trkpt>
      <trkpt lat="46.02931" lon="4.61559">
        <ele>435</ele>
        <time>2016-11-12T10:57:43Z</time>
      </trkpt>
      <trkpt lat="46.02927" lon="4.61551">
        <ele>436</ele>
        <time>2016-11-12T10:57:44Z</time>
      </trkpt>
      <trkpt lat="46.02924" lon="4.61544">
        <ele>437</ele>
        <time>2016-11-12T10:57:45Z</time>
      </trkpt>
      <trkpt lat="46.02923" lon="4.61535">
        <ele>437</ele>
        <time>2016-11-12T10:57:46Z</time>
      </trkpt>
      <trkpt lat="46.02922" lon="4.61527">
        <ele>437</ele>
        <time>2016-11-12T10:57:47Z</time>
      </trkpt>
      <trkpt lat="46.0292" lon="4.61521">
        <ele>437</ele>
        <time>2016-11-12T10:57:48Z</time>
      </trkpt>
      <trkpt lat="46.02919" lon="4.61509">
        <ele>436</ele>
        <time>2016-11-12T10:57:50Z</time>
      </trkpt>
      <trkpt lat="46.02918" lon="4.61503">
        <ele>435</ele>
        <time>2016-11-12T10:57:51Z</time>
      </trkpt>
      <trkpt lat="46.02916" lon="4.61493">
        <ele>431</ele>
        <time>2016-11-12T10:57:53Z</time>
      </trkpt>
      <trkpt lat="46.02915" lon="4.61488">
        <ele>429</ele>
        <time>2016-11-12T10:57:54Z</time>
      </trkpt>
      <trkpt lat="46.02913" lon="4.61477">
        <ele>427</ele>
        <time>2016-11-12T10:57:56Z</time>
      </trkpt>
      <trkpt lat="46.02912" lon="4.6147">
        <ele>426</ele>
        <time>2016-11-12T10:57:57Z</time>
      </trkpt>
      <trkpt lat="46.02912" lon="4.61463">
        <ele>426</ele>
        <time>2016-11-12T10:57:58Z</time>
      </trkpt>
      <trkpt lat="46.02911" lon="4.61456">
        <ele>425</ele>
        <time>2016-11-12T10:57:59Z</time>
      </trkpt>
      <trkpt lat="46.0291" lon="4.61448">
        <ele>426</ele>
        <time>2016-11-12T10:58:00Z</time>
      </trkpt>
      <trkpt lat="46.0291" lon="4.61441">
        <ele>427</ele>
        <time>2016-11-12T10:58:01Z</time>
      </trkpt>
      <trkpt lat="46.02909" lon="4.61434">
        <ele>428</ele>
        <time>2016-11-12T10:58:02Z</time>
      </trkpt>
      <trkpt lat="46.02909" lon="4.61427">
        <ele>429</ele>
        <time>2016-11-12T10:58:03Z</time>
      </trkpt>
      <trkpt lat="46.02908" lon="4.61419">
        <ele>431</ele>
        <time>2016-11-12T10:58:04Z</time>
      </trkpt>
      <trkpt lat="46.02908" lon="4.61412">
        <ele>430</ele>
        <time>2016-11-12T10:58:05Z</time>
      </trkpt>
      <trkpt lat="46.02908" lon="4.61404">
        <ele>428</ele>
        <time>2016-11-12T10:58:06Z</time>
      </trkpt>
      <trkpt lat="46.02908" lon="4.61397">
        <ele>427</ele>
        <time>2016-11-12T10:58:07Z</time>
      </trkpt>
      <trkpt lat="46.02908" lon="4.61389">
        <ele>426</ele>
        <time>2016-11-12T10:58:08Z</time>
      </trkpt>
      <trkpt lat="46.02908" lon="4.61381">
        <ele>425</ele>
        <time>2016-11-12T10:58:09Z</time>
      </trkpt>
      <trkpt lat="46.02909" lon="4.61372">
        <ele>425</ele>
        <time>2016-11-12T10:58:10Z</time>
      </trkpt>
      <trkpt lat="46.0291" lon="4.61364">
        <ele>425</ele>
        <time>2016-11-12T10:58:11Z</time>
      </trkpt>
      <trkpt lat="46.02911" lon="4.61357">
        <ele>426</ele>
        <time>2016-11-12T10:58:12Z</time>
      </trkpt>
      <trkpt lat="46.02913" lon="4.61349">
        <ele>427</ele>
        <time>2016-11-12T10:58:13Z</time>
      </trkpt>
      <trkpt lat="46.02915" lon="4.61341">
        <ele>429</ele>
        <time>2016-11-12T10:58:14Z</time>
      </trkpt>
      <trkpt lat="46.02918" lon="4.61334">
        <ele>433</ele>
        <time>2016-11-12T10:58:15Z</time>
      </trkpt>
      <trkpt lat="46.02921" lon="4.61328">
        <ele>434</ele>
        <time>2016-11-12T10:58:16Z</time>
      </trkpt>
      <trkpt lat="46.02924" lon="4.61321">
        <ele>435</ele>
        <time>2016-11-12T10:58:17Z</time>
      </trkpt>
      <trkpt lat="46.02926" lon="4.61313">
        <ele>436</ele>
        <time>2016-11-12T10:58:18Z</time>
      </trkpt>
      <trkpt lat="46.02929" lon="4.61305">
        <ele>437</ele>
        <time>2016-11-12T10:58:19Z</time>
      </trkpt>
      <trkpt lat="46.02932" lon="4.61297">
        <ele>437</ele>
        <time>2016-11-12T10:58:20Z</time>
      </trkpt>
      <trkpt lat="46.02936" lon="4.61289">
        <ele>437</ele>
        <time>2016-11-12T10:58:21Z</time>
      </trkpt>
      <trkpt lat="46.02939" lon="4.61281">
        <ele>437</ele>
        <time>2016-11-12T10:58:22Z</time>
      </trkpt>
      <trkpt lat="46.02942" lon="4.61273">
        <ele>437</ele>
        <time>2016-11-12T10:58:23Z</time>
      </trkpt>
      <trkpt lat="46.02945" lon="4.61265">
        <ele>437</ele>
        <time>2016-11-12T10:58:24Z</time>
      </trkpt>
      <trkpt lat="46.02948" lon="4.61256">
        <ele>437</ele>
        <time>2016-11-12T10:58:25Z</time>
      </trkpt>
      <trkpt lat="46.02951" lon="4.61247">
        <ele>437</ele>
        <time>2016-11-12T10:58:26Z</time>
      </trkpt>
      <trkpt lat="46.02953" lon="4.61238">
        <ele>438</ele>
        <time>2016-11-12T10:58:27Z</time>
      </trkpt>
      <trkpt lat="46.02954" lon="4.61227">
        <ele>439</ele>
        <time>2016-11-12T10:58:28Z</time>
      </trkpt>
      <trkpt lat="46.02954" lon="4.61218">
        <ele>439</ele>
        <time>2016-11-12T10:58:29Z</time>
      </trkpt>
      <trkpt lat="46.02954" lon="4.61207">
        <ele>439</ele>
        <time>2016-11-12T10:58:30Z</time>
      </trkpt>
      <trkpt lat="46.02952" lon="4.61198">
        <ele>440</ele>
        <time>2016-11-12T10:58:31Z</time>
      </trkpt>
      <trkpt lat="46.0295" lon="4.61189">
        <ele>439</ele>
        <time>2016-11-12T10:58:32Z</time>
      </trkpt>
      <trkpt lat="46.02947" lon="4.61181">
        <ele>439</ele>
        <time>2016-11-12T10:58:33Z</time>
      </trkpt>
      <trkpt lat="46.02945" lon="4.61173">
        <ele>439</ele>
        <time>2016-11-12T10:58:34Z</time>
      </trkpt>
      <trkpt lat="46.02942" lon="4.61166">
        <ele>445</ele>
        <time>2016-11-12T10:58:35Z</time>
      </trkpt>
      <trkpt lat="46.02939" lon="4.6116">
        <ele>444</ele>
        <time>2016-11-12T10:58:36Z</time>
      </trkpt>
      <trkpt lat="46.02935" lon="4.61153">
        <ele>444</ele>
        <time>2016-11-12T10:58:37Z</time>
      </trkpt>
      <trkpt lat="46.02932" lon="4.61149">
        <ele>445</ele>
        <time>2016-11-12T10:58:38Z</time>
      </trkpt>
      <trkpt lat="46.02928" lon="4.61146">
        <ele>444</ele>
        <time>2016-11-12T10:58:39Z</time>
      </trkpt>
      <trkpt lat="46.02921" lon="4.61145">
        <ele>444</ele>
        <time>2016-11-12T10:58:41Z</time>
      </trkpt>
      <trkpt lat="46.02918" lon="4.61144">
        <ele>444</ele>
        <time>2016-11-12T10:58:42Z</time>
      </trkpt>
      <trkpt lat="46.02912" lon="4.61141">
        <ele>433</ele>
        <time>2016-11-12T10:58:44Z</time>
      </trkpt>
      <trkpt lat="46.02908" lon="4.61138">
        <ele>433</ele>
        <time>2016-11-12T10:58:45Z</time>
      </trkpt>
      <trkpt lat="46.029" lon="4.61134">
        <ele>433</ele>
        <time>2016-11-12T10:58:47Z</time>
      </trkpt>
      <trkpt lat="46.02896" lon="4.61133">
        <ele>433</ele>
        <time>2016-11-12T10:58:48Z</time>
      </trkpt>
      <trkpt lat="46.02889" lon="4.61128">
        <ele>433</ele>
        <time>2016-11-12T10:58:50Z</time>
      </trkpt>
      <trkpt lat="46.02886" lon="4.61126">
        <ele>433</ele>
        <time>2016-11-12T10:58:51Z</time>
      </trkpt>
      <trkpt lat="46.0288" lon="4.6112">
        <ele>433</ele>
        <time>2016-11-12T10:58:53Z</time>
      </trkpt>
      <trkpt lat="46.02876" lon="4.61116">
        <ele>433</ele>
        <time>2016-11-12T10:58:54Z</time>
      </trkpt>
      <trkpt lat="46.02869" lon="4.61112">
        <ele>432</ele>
        <time>2016-11-12T10:58:56Z</time>
      </trkpt>
      <trkpt lat="46.02865" lon="4.61109">
        <ele>432</ele>
        <time>2016-11-12T10:58:57Z</time>
      </trkpt>
      <trkpt lat="46.0286" lon="4.61101">
        <ele>432</ele>
        <time>2016-11-12T10:58:59Z</time>
      </trkpt>
      <trkpt lat="46.02857" lon="4.61097">
        <ele>432</ele>
        <time>2016-11-12T10:59:00Z</time>
      </trkpt>
      <trkpt lat="46.02853" lon="4.61093">
        <ele>432</ele>
        <time>2016-11-12T10:59:01Z</time>
      </trkpt>
      <trkpt lat="46.0285" lon="4.61089">
        <ele>432</ele>
        <time>2016-11-12T10:59:02Z</time>
      </trkpt>
      <trkpt lat="46.02844" lon="4.6108">
        <ele>436</ele>
        <time>2016-11-12T10:59:04Z</time>
      </trkpt>
      <trkpt lat="46.02841" lon="4.61075">
        <ele>437</ele>
        <time>2016-11-12T10:59:05Z</time>
      </trkpt>
      <trkpt lat="46.02838" lon="4.6107">
        <ele>437</ele>
        <time>2016-11-12T10:59:06Z</time>
      </trkpt>
      <trkpt lat="46.02835" lon="4.61065">
        <ele>438</ele>
        <time>2016-11-12T10:59:07Z</time>
      </trkpt>
      <trkpt lat="46.02832" lon="4.6106">
        <ele>428</ele>
        <time>2016-11-12T10:59:08Z</time>
      </trkpt>
      <trkpt lat="46.02829" lon="4.61054">
        <ele>428</ele>
        <time>2016-11-12T10:59:09Z</time>
      </trkpt>
      <trkpt lat="46.02825" lon="4.61049">
        <ele>428</ele>
        <time>2016-11-12T10:59:10Z</time>
      </trkpt>
      <trkpt lat="46.02823" lon="4.61042">
        <ele>429</ele>
        <time>2016-11-12T10:59:11Z</time>
      </trkpt>
      <trkpt lat="46.0282" lon="4.61035">
        <ele>429</ele>
        <time>2016-11-12T10:59:12Z</time>
      </trkpt>
      <trkpt lat="46.02817" lon="4.61028">
        <ele>430</ele>
        <time>2016-11-12T10:59:13Z</time>
      </trkpt>
      <trkpt lat="46.02814" lon="4.61021">
        <ele>430</ele>
        <time>2016-11-12T10:59:14Z</time>
      </trkpt>
      <trkpt lat="46.02812" lon="4.61014">
        <ele>431</ele>
        <time>2016-11-12T10:59:15Z</time>
      </trkpt>
      <trkpt lat="46.02809" lon="4.61005">
        <ele>431</ele>
        <time>2016-11-12T10:59:16Z</time>
      </trkpt>
      <trkpt lat="46.02808" lon="4.60996">
        <ele>438</ele>
        <time>2016-11-12T10:59:17Z</time>
      </trkpt>
      <trkpt lat="46.02806" lon="4.60988">
        <ele>438</ele>
        <time>2016-11-12T10:59:18Z</time>
      </trkpt>
      <trkpt lat="46.02804" lon="4.6098">
        <ele>438</ele>
        <time>2016-11-12T10:59:19Z</time>
      </trkpt>
      <trkpt lat="46.02803" lon="4.60973">
        <ele>438</ele>
        <time>2016-11-12T10:59:20Z</time>
      </trkpt>
      <trkpt lat="46.02802" lon="4.60966">
        <ele>438</ele>
        <time>2016-11-12T10:59:21Z</time>
      </trkpt>
      <trkpt lat="46.028" lon="4.6096">
        <ele>438</ele>
        <time>2016-11-12T10:59:22Z</time>
      </trkpt>
      <trkpt lat="46.02799" lon="4.60954">
        <ele>439</ele>
        <time>2016-11-12T10:59:23Z</time>
      </trkpt>
      <trkpt lat="46.02796" lon="4.60942">
        <ele>439</ele>
        <time>2016-11-12T10:59:25Z</time>
      </trkpt>
      <trkpt lat="46.02794" lon="4.60939">
        <ele>439</ele>
        <time>2016-11-12T10:59:26Z</time>
      </trkpt>
      <trkpt lat="46.02789" lon="4.60932">
        <ele>439</ele>
        <time>2016-11-12T10:59:28Z</time>
      </trkpt>
      <trkpt lat="46.02785" lon="4.60929">
        <ele>439</ele>
        <time>2016-11-12T10:59:29Z</time>
      </trkpt>
      <trkpt lat="46.02779" lon="4.60924">
        <ele>439</ele>
        <time>2016-11-12T10:59:31Z</time>
      </trkpt>
      <trkpt lat="46.02776" lon="4.60921">
        <ele>439</ele>
        <time>2016-11-12T10:59:32Z</time>
      </trkpt>
      <trkpt lat="46.02769" lon="4.60916">
        <ele>444</ele>
        <time>2016-11-12T10:59:34Z</time>
      </trkpt>
      <trkpt lat="46.02766" lon="4.60914">
        <ele>444</ele>
        <time>2016-11-12T10:59:35Z</time>
      </trkpt>
      <trkpt lat="46.0276" lon="4.60908">
        <ele>443</ele>
        <time>2016-11-12T10:59:37Z</time>
      </trkpt>
      <trkpt lat="46.02758" lon="4.60905">
        <ele>443</ele>
        <time>2016-11-12T10:59:38Z</time>
      </trkpt>
      <trkpt lat="46.02752" lon="4.609">
        <ele>444</ele>
        <time>2016-11-12T10:59:40Z</time>
      </trkpt>
      <trkpt lat="46.0275" lon="4.60895">
        <ele>445</ele>
        <time>2016-11-12T10:59:41Z</time>
      </trkpt>
      <trkpt lat="46.02744" lon="4.6089">
        <ele>434</ele>
        <time>2016-11-12T10:59:43Z</time>
      </trkpt>
      <trkpt lat="46.02741" lon="4.60887">
        <ele>434</ele>
        <time>2016-11-12T10:59:44Z</time>
      </trkpt>
      <trkpt lat="46.02737" lon="4.6088">
        <ele>434</ele>
        <time>2016-11-12T10:59:46Z</time>
      </trkpt>
      <trkpt lat="46.02735" lon="4.60876">
        <ele>434</ele>
        <time>2016-11-12T10:59:47Z</time>
      </trkpt>
      <trkpt lat="46.0273" lon="4.60868">
        <ele>434</ele>
        <time>2016-11-12T10:59:49Z</time>
      </trkpt>
      <trkpt lat="46.02728" lon="4.60863">
        <ele>434</ele>
        <time>2016-11-12T10:59:50Z</time>
      </trkpt>
      <trkpt lat="46.02722" lon="4.60855">
        <ele>434</ele>
        <time>2016-11-12T10:59:52Z</time>
      </trkpt>
      <trkpt lat="46.02718" lon="4.6085">
        <ele>434</ele>
        <time>2016-11-12T10:59:53Z</time>
      </trkpt>
      <trkpt lat="46.02714" lon="4.60846">
        <ele>433</ele>
        <time>2016-11-12T10:59:54Z</time>
      </trkpt>
      <trkpt lat="46.02709" lon="4.60842">
        <ele>432</ele>
        <time>2016-11-12T10:59:55Z</time>
      </trkpt>
      <trkpt lat="46.02705" lon="4.6083">
        <ele>437</ele>
        <time>2016-11-12T10:59:57Z</time>
      </trkpt>
      <trkpt lat="46.02703" lon="4.60825">
        <ele>437</ele>
        <time>2016-11-12T10:59:58Z</time>
      </trkpt>
      <trkpt lat="46.02702" lon="4.60815">
        <ele>437</ele>
        <time>2016-11-12T11:00:00Z</time>
      </trkpt>
      <trkpt lat="46.02701" lon="4.60811">
        <ele>437</ele>
        <time>2016-11-12T11:00:01Z</time>
      </trkpt>
      <trkpt lat="46.02699" lon="4.608">
        <ele>438</ele>
        <time>2016-11-12T11:00:03Z</time>
      </trkpt>
      <trkpt lat="46.02698" lon="4.60795">
        <ele>438</ele>
        <time>2016-11-12T11:00:04Z</time>
      </trkpt>
      <trkpt lat="46.02696" lon="4.60784">
        <ele>438</ele>
        <time>2016-11-12T11:00:06Z</time>
      </trkpt>
      <trkpt lat="46.02696" lon="4.60779">
        <ele>438</ele>
        <time>2016-11-12T11:00:07Z</time>
      </trkpt>
      <trkpt lat="46.02694" lon="4.6077">
        <ele>438</ele>
        <time>2016-11-12T11:00:09Z</time>
      </trkpt>
      <trkpt lat="46.02693" lon="4.60765">
        <ele>438</ele>
        <time>2016-11-12T11:00:10Z</time>
      </trkpt>
      <trkpt lat="46.02691" lon="4.60756">
        <ele>437</ele>
        <time>2016-11-12T11:00:12Z</time>
      </trkpt>
      <trkpt lat="46.02691" lon="4.60752">
        <ele>437</ele>
        <time>2016-11-12T11:00:13Z</time>
      </trkpt>
      <trkpt lat="46.02691" lon="4.6074">
        <ele>442</ele>
        <time>2016-11-12T11:00:16Z</time>
      </trkpt>
      <trkpt lat="46.02691" lon="4.60735">
        <ele>442</ele>
        <time>2016-11-12T11:00:17Z</time>
      </trkpt>
      <trkpt lat="46.02691" lon="4.60725">
        <ele>443</ele>
        <time>2016-11-12T11:00:19Z</time>
      </trkpt>
      <trkpt lat="46.02691" lon="4.60722">
        <ele>444</ele>
        <time>2016-11-12T11:00:20Z</time>
      </trkpt>
      <trkpt lat="46.02692" lon="4.6071">
        <ele>445</ele>
        <time>2016-11-12T11:00:23Z</time>
      </trkpt>
      <trkpt lat="46.02692" lon="4.60707">
        <ele>445</ele>
        <time>2016-11-12T11:00:24Z</time>
      </trkpt>
      <trkpt lat="46.02691" lon="4.60695">
        <ele>445</ele>
        <time>2016-11-12T11:00:27Z</time>
      </trkpt>
      <trkpt lat="46.02691" lon="4.60691">
        <ele>445</ele>
        <time>2016-11-12T11:00:28Z</time>
      </trkpt>
      <trkpt lat="46.02691" lon="4.60681">
        <ele>444</ele>
        <time>2016-11-12T11:00:30Z</time>
      </trkpt>
      <trkpt lat="46.02692" lon="4.60676">
        <ele>444</ele>
        <time>2016-11-12T11:00:31Z</time>
      </trkpt>
      <trkpt lat="46.02691" lon="4.60663">
        <ele>448</ele>
        <time>2016-11-12T11:00:35Z</time>
      </trkpt>
      <trkpt lat="46.0269" lon="4.60661">
        <ele>448</ele>
        <time>2016-11-12T11:00:36Z</time>
      </trkpt>
      <trkpt lat="46.02689" lon="4.60648">
        <ele>449</ele>
        <time>2016-11-12T11:00:40Z</time>
      </trkpt>
      <trkpt lat="46.02689" lon="4.60645">
        <ele>450</ele>
        <time>2016-11-12T11:00:41Z</time>
      </trkpt>
      <trkpt lat="46.02688" lon="4.60634">
        <ele>451</ele>
        <time>2016-11-12T11:00:44Z</time>
      </trkpt>
      <trkpt lat="46.02688" lon="4.60631">
        <ele>451</ele>
        <time>2016-11-12T11:00:45Z</time>
      </trkpt>
      <trkpt lat="46.02687" lon="4.60619">
        <ele>452</ele>
        <time>2016-11-12T11:00:49Z</time>
      </trkpt>
      <trkpt lat="46.02686" lon="4.60617">
        <ele>452</ele>
        <time>2016-11-12T11:00:50Z</time>
      </trkpt>
      <trkpt lat="46.02685" lon="4.60606">
        <ele>451</ele>
        <time>2016-11-12T11:00:53Z</time>
      </trkpt>
      <trkpt lat="46.02684" lon="4.60602">
        <ele>451</ele>
        <time>2016-11-12T11:00:54Z</time>
      </trkpt>
      <trkpt lat="46.02683" lon="4.6059">
        <ele>449</ele>
        <time>2016-11-12T11:00:57Z</time>
      </trkpt>
      <trkpt lat="46.02683" lon="4.60586">
        <ele>449</ele>
        <time>2016-11-12T11:00:58Z</time>
      </trkpt>
      <trkpt lat="46.02685" lon="4.60574">
        <ele>454</ele>
        <time>2016-11-12T11:01:01Z</time>
      </trkpt>
      <trkpt lat="46.02684" lon="4.60571">
        <ele>455</ele>
        <time>2016-11-12T11:01:02Z</time>
      </trkpt>
      <trkpt lat="46.02681" lon="4.60559">
        <ele>456</ele>
        <time>2016-11-12T11:01:06Z</time>
      </trkpt>
      <trkpt lat="46.02681" lon="4.60556">
        <ele>457</ele>
        <time>2016-11-12T11:01:07Z</time>
      </trkpt>
      <trkpt lat="46.02682" lon="4.60546">
        <ele>458</ele>
        <time>2016-11-12T11:01:10Z</time>
      </trkpt>
      <trkpt lat="46.02682" lon="4.60543">
        <ele>458</ele>
        <time>2016-11-12T11:01:11Z</time>
      </trkpt>
      <trkpt lat="46.02682" lon="4.60531">
        <ele>458</ele>
        <time>2016-11-12T11:01:14Z</time>
      </trkpt>
      <trkpt lat="46.02682" lon="4.60527">
        <ele>458</ele>
        <time>2016-11-12T11:01:15Z</time>
      </trkpt>
      <trkpt lat="46.02681" lon="4.60516">
        <ele>457</ele>
        <time>2016-11-12T11:01:18Z</time>
      </trkpt>
      <trkpt lat="46.02681" lon="4.60512">
        <ele>456</ele>
        <time>2016-11-12T11:01:19Z</time>
      </trkpt>
      <trkpt lat="46.02681" lon="4.60501">
        <ele>455</ele>
        <time>2016-11-12T11:01:22Z</time>
      </trkpt>
      <trkpt lat="46.02681" lon="4.60498">
        <ele>456</ele>
        <time>2016-11-12T11:01:23Z</time>
      </trkpt>
      <trkpt lat="46.02682" lon="4.60486">
        <ele>458</ele>
        <time>2016-11-12T11:01:27Z</time>
      </trkpt>
      <trkpt lat="46.02682" lon="4.60484">
        <ele>459</ele>
        <time>2016-11-12T11:01:28Z</time>
      </trkpt>
      <trkpt lat="46.02682" lon="4.60473">
        <ele>461</ele>
        <time>2016-11-12T11:01:32Z</time>
      </trkpt>
      <trkpt lat="46.02682" lon="4.6047">
        <ele>461</ele>
        <time>2016-11-12T11:01:33Z</time>
      </trkpt>
      <trkpt lat="46.02681" lon="4.6046">
        <ele>461</ele>
        <time>2016-11-12T11:01:36Z</time>
      </trkpt>
      <trkpt lat="46.02681" lon="4.60456">
        <ele>461</ele>
        <time>2016-11-12T11:01:37Z</time>
      </trkpt>
      <trkpt lat="46.02681" lon="4.60447">
        <ele>461</ele>
        <time>2016-11-12T11:01:39Z</time>
      </trkpt>
      <trkpt lat="46.02682" lon="4.60443">
        <ele>460</ele>
        <time>2016-11-12T11:01:40Z</time>
      </trkpt>
      <trkpt lat="46.02683" lon="4.60431">
        <ele>459</ele>
        <time>2016-11-12T11:01:43Z</time>
      </trkpt>
      <trkpt lat="46.02684" lon="4.60428">
        <ele>458</ele>
        <time>2016-11-12T11:01:44Z</time>
      </trkpt>
      <trkpt lat="46.02686" lon="4.60416">
        <ele>457</ele>
        <time>2016-11-12T11:01:47Z</time>
      </trkpt>
      <trkpt lat="46.02687" lon="4.60411">
        <ele>457</ele>
        <time>2016-11-12T11:01:48Z</time>
      </trkpt>
      <trkpt lat="46.0269" lon="4.60402">
        <ele>459</ele>
        <time>2016-11-12T11:01:50Z</time>
      </trkpt>
      <trkpt lat="46.02691" lon="4.60398">
        <ele>459</ele>
        <time>2016-11-12T11:01:51Z</time>
      </trkpt>
      <trkpt lat="46.02692" lon="4.60386">
        <ele>460</ele>
        <time>2016-11-12T11:01:54Z</time>
      </trkpt>
      <trkpt lat="46.02693" lon="4.60382">
        <ele>460</ele>
        <time>2016-11-12T11:01:55Z</time>
      </trkpt>
      <trkpt lat="46.02696" lon="4.60371">
        <ele>461</ele>
        <time>2016-11-12T11:01:59Z</time>
      </trkpt>
      <trkpt lat="46.02697" lon="4.60368">
        <ele>461</ele>
        <time>2016-11-12T11:02:00Z</time>
      </trkpt>
      <trkpt lat="46.02699" lon="4.60358">
        <ele>461</ele>
        <time>2016-11-12T11:02:03Z</time>
      </trkpt>
      <trkpt lat="46.027" lon="4.60355">
        <ele>461</ele>
        <time>2016-11-12T11:02:04Z</time>
      </trkpt>
      <trkpt lat="46.02703" lon="4.60345">
        <ele>461</ele>
        <time>2016-11-12T11:02:07Z</time>
      </trkpt>
      <trkpt lat="46.02704" lon="4.60342">
        <ele>461</ele>
        <time>2016-11-12T11:02:08Z</time>
      </trkpt>
      <trkpt lat="46.02706" lon="4.60333">
        <ele>459</ele>
        <time>2016-11-12T11:02:11Z</time>
      </trkpt>
      <trkpt lat="46.02707" lon="4.6033">
        <ele>459</ele>
        <time>2016-11-12T11:02:12Z</time>
      </trkpt>
      <trkpt lat="46.0271" lon="4.60319">
        <ele>460</ele>
        <time>2016-11-12T11:02:15Z</time>
      </trkpt>
      <trkpt lat="46.02711" lon="4.60315">
        <ele>460</ele>
        <time>2016-11-12T11:02:16Z</time>
      </trkpt>
      <trkpt lat="46.02716" lon="4.60304">
        <ele>461</ele>
        <time>2016-11-12T11:02:19Z</time>
      </trkpt>
      <trkpt lat="46.02717" lon="4.60301">
        <ele>461</ele>
        <time>2016-11-12T11:02:20Z</time>
      </trkpt>
      <trkpt lat="46.0272" lon="4.60289">
        <ele>461</ele>
        <time>2016-11-12T11:02:23Z</time>
      </trkpt>
      <trkpt lat="46.02721" lon="4.60283">
        <ele>462</ele>
        <time>2016-11-12T11:02:24Z</time>
      </trkpt>
      <trkpt lat="46.02722" lon="4.60277">
        <ele>462</ele>
        <time>2016-11-12T11:02:25Z</time>
      </trkpt>
      <trkpt lat="46.02724" lon="4.60271">
        <ele>463</ele>
        <time>2016-11-12T11:02:26Z</time>
      </trkpt>
      <trkpt lat="46.02726" lon="4.60264">
        <ele>463</ele>
        <time>2016-11-12T11:02:27Z</time>
      </trkpt>
      <trkpt lat="46.02727" lon="4.60256">
        <ele>464</ele>
        <time>2016-11-12T11:02:28Z</time>
      </trkpt>
      <trkpt lat="46.02727" lon="4.60249">
        <ele>464</ele>
        <time>2016-11-12T11:02:29Z</time>
      </trkpt>
      <trkpt lat="46.02727" lon="4.6024">
        <ele>463</ele>
        <time>2016-11-12T11:02:30Z</time>
      </trkpt>
      <trkpt lat="46.02727" lon="4.60231">
        <ele>462</ele>
        <time>2016-11-12T11:02:31Z</time>
      </trkpt>
      <trkpt lat="46.02726" lon="4.60221">
        <ele>461</ele>
        <time>2016-11-12T11:02:32Z</time>
      </trkpt>
      <trkpt lat="46.02724" lon="4.60211">
        <ele>461</ele>
        <time>2016-11-12T11:02:33Z</time>
      </trkpt>
      <trkpt lat="46.02723" lon="4.60201">
        <ele>461</ele>
        <time>2016-11-12T11:02:34Z</time>
      </trkpt>
      <trkpt lat="46.02722" lon="4.6019">
        <ele>461</ele>
        <time>2016-11-12T11:02:35Z</time>
      </trkpt>
      <trkpt lat="46.0272" lon="4.6018">
        <ele>461</ele>
        <time>2016-11-12T11:02:36Z</time>
      </trkpt>
      <trkpt lat="46.02719" lon="4.60169">
        <ele>461</ele>
        <time>2016-11-12T11:02:37Z</time>
      </trkpt>
      <trkpt lat="46.02718" lon="4.60158">
        <ele>462</ele>
        <time>2016-11-12T11:02:38Z</time>
      </trkpt>
      <trkpt lat="46.02716" lon="4.60148">
        <ele>461</ele>
        <time>2016-11-12T11:02:39Z</time>
      </trkpt>
      <trkpt lat="46.02714" lon="4.60137">
        <ele>461</ele>
        <time>2016-11-12T11:02:40Z</time>
      </trkpt>
      <trkpt lat="46.02712" lon="4.60126">
        <ele>460</ele>
        <time>2016-11-12T11:02:41Z</time>
      </trkpt>
      <trkpt lat="46.0271" lon="4.60115">
        <ele>460</ele>
        <time>2016-11-12T11:02:42Z</time>
      </trkpt>
      <trkpt lat="46.02707" lon="4.60104">
        <ele>460</ele>
        <time>2016-11-12T11:02:43Z</time>
      </trkpt>
      <trkpt lat="46.02704" lon="4.60093">
        <ele>459</ele>
        <time>2016-11-12T11:02:44Z</time>
      </trkpt>
      <trkpt lat="46.02699" lon="4.60084">
        <ele>457</ele>
        <time>2016-11-12T11:02:45Z</time>
      </trkpt>
      <trkpt lat="46.02695" lon="4.60075">
        <ele>459</ele>
        <time>2016-11-12T11:02:46Z</time>
      </trkpt>
      <trkpt lat="46.02691" lon="4.60067">
        <ele>458</ele>
        <time>2016-11-12T11:02:47Z</time>
      </trkpt>
      <trkpt lat="46.02687" lon="4.60059">
        <ele>458</ele>
        <time>2016-11-12T11:02:48Z</time>
      </trkpt>
      <trkpt lat="46.02683" lon="4.6005">
        <ele>459</ele>
        <time>2016-11-12T11:02:49Z</time>
      </trkpt>
      <trkpt lat="46.0268" lon="4.60042">
        <ele>459</ele>
        <time>2016-11-12T11:02:50Z</time>
      </trkpt>
      <trkpt lat="46.02677" lon="4.60033">
        <ele>459</ele>
        <time>2016-11-12T11:02:51Z</time>
      </trkpt>
      <trkpt lat="46.02675" lon="4.60025">
        <ele>458</ele>
        <time>2016-11-12T11:02:52Z</time>
      </trkpt>
      <trkpt lat="46.02673" lon="4.60016">
        <ele>457</ele>
        <time>2016-11-12T11:02:53Z</time>
      </trkpt>
      <trkpt lat="46.0267" lon="4.60007">
        <ele>455</ele>
        <time>2016-11-12T11:02:54Z</time>
      </trkpt>
      <trkpt lat="46.02666" lon="4.6">
        <ele>452</ele>
        <time>2016-11-12T11:02:55Z</time>
      </trkpt>
      <trkpt lat="46.02663" lon="4.59992">
        <ele>454</ele>
        <time>2016-11-12T11:02:56Z</time>
      </trkpt>
      <trkpt lat="46.02657" lon="4.59989">
        <ele>454</ele>
        <time>2016-11-12T11:02:57Z</time>
      </trkpt>
      <trkpt lat="46.02651" lon="4.59989">
        <ele>455</ele>
        <time>2016-11-12T11:02:58Z</time>
      </trkpt>
      <trkpt lat="46.02645" lon="4.59991">
        <ele>455</ele>
        <time>2016-11-12T11:02:59Z</time>
      </trkpt>
      <trkpt lat="46.02639" lon="4.59994">
        <ele>455</ele>
        <time>2016-11-12T11:03:00Z</time>
      </trkpt>
      <trkpt lat="46.02634" lon="4.59997">
        <ele>455</ele>
        <time>2016-11-12T11:03:01Z</time>
      </trkpt>
      <trkpt lat="46.0263" lon="4.60002">
        <ele>451</ele>
        <time>2016-11-12T11:03:02Z</time>
      </trkpt>
      <trkpt lat="46.02624" lon="4.60011">
        <ele>451</ele>
        <time>2016-11-12T11:03:04Z</time>
      </trkpt>
      <trkpt lat="46.02622" lon="4.60016">
        <ele>451</ele>
        <time>2016-11-12T11:03:05Z</time>
      </trkpt>
      <trkpt lat="46.0262" lon="4.60024">
        <ele>451</ele>
        <time>2016-11-12T11:03:07Z</time>
      </trkpt>
      <trkpt lat="46.02619" lon="4.60028">
        <ele>451</ele>
        <time>2016-11-12T11:03:08Z</time>
      </trkpt>
      <trkpt lat="46.02618" lon="4.60037">
        <ele>450</ele>
        <time>2016-11-12T11:03:10Z</time>
      </trkpt>
      <trkpt lat="46.02617" lon="4.60042">
        <ele>450</ele>
        <time>2016-11-12T11:03:11Z</time>
      </trkpt>
      <trkpt lat="46.02617" lon="4.60051">
        <ele>450</ele>
        <time>2016-11-12T11:03:13Z</time>
      </trkpt>
      <trkpt lat="46.02616" lon="4.60056">
        <ele>450</ele>
        <time>2016-11-12T11:03:14Z</time>
      </trkpt>
      <trkpt lat="46.02613" lon="4.60066">
        <ele>450</ele>
        <time>2016-11-12T11:03:16Z</time>
      </trkpt>
      <trkpt lat="46.02612" lon="4.60071">
        <ele>450</ele>
        <time>2016-11-12T11:03:17Z</time>
      </trkpt>
      <trkpt lat="46.0261" lon="4.60083">
        <ele>450</ele>
        <time>2016-11-12T11:03:19Z</time>
      </trkpt>
      <trkpt lat="46.02609" lon="4.60089">
        <ele>447</ele>
        <time>2016-11-12T11:03:20Z</time>
      </trkpt>
      <trkpt lat="46.02608" lon="4.60096">
        <ele>446</ele>
        <time>2016-11-12T11:03:21Z</time>
      </trkpt>
      <trkpt lat="46.02607" lon="4.60102">
        <ele>446</ele>
        <time>2016-11-12T11:03:22Z</time>
      </trkpt>
      <trkpt lat="46.02606" lon="4.60108">
        <ele>446</ele>
        <time>2016-11-12T11:03:23Z</time>
      </trkpt>
      <trkpt lat="46.02605" lon="4.60115">
        <ele>445</ele>
        <time>2016-11-12T11:03:24Z</time>
      </trkpt>
      <trkpt lat="46.02604" lon="4.60121">
        <ele>445</ele>
        <time>2016-11-12T11:03:25Z</time>
      </trkpt>
      <trkpt lat="46.02602" lon="4.60128">
        <ele>445</ele>
        <time>2016-11-12T11:03:26Z</time>
      </trkpt>
      <trkpt lat="46.02598" lon="4.60138">
        <ele>444</ele>
        <time>2016-11-12T11:03:28Z</time>
      </trkpt>
      <trkpt lat="46.02596" lon="4.60143">
        <ele>444</ele>
        <time>2016-11-12T11:03:29Z</time>
      </trkpt>
      <trkpt lat="46.02591" lon="4.60153">
        <ele>444</ele>
        <time>2016-11-12T11:03:31Z</time>
      </trkpt>
      <trkpt lat="46.02588" lon="4.60159">
        <ele>444</ele>
        <time>2016-11-12T11:03:32Z</time>
      </trkpt>
      <trkpt lat="46.02585" lon="4.60165">
        <ele>444</ele>
        <time>2016-11-12T11:03:33Z</time>
      </trkpt>
      <trkpt lat="46.02582" lon="4.60171">
        <ele>445</ele>
        <time>2016-11-12T11:03:34Z</time>
      </trkpt>
      <trkpt lat="46.02579" lon="4.60177">
        <ele>447</ele>
        <time>2016-11-12T11:03:35Z</time>
      </trkpt>
      <trkpt lat="46.02577" lon="4.60184">
        <ele>448</ele>
        <time>2016-11-12T11:03:36Z</time>
      </trkpt>
      <trkpt lat="46.02574" lon="4.6019">
        <ele>448</ele>
        <time>2016-11-12T11:03:37Z</time>
      </trkpt>
      <trkpt lat="46.02571" lon="4.60197">
        <ele>448</ele>
        <time>2016-11-12T11:03:38Z</time>
      </trkpt>
      <trkpt lat="46.02569" lon="4.60203">
        <ele>449</ele>
        <time>2016-11-12T11:03:39Z</time>
      </trkpt>
      <trkpt lat="46.02566" lon="4.6021">
        <ele>448</ele>
        <time>2016-11-12T11:03:40Z</time>
      </trkpt>
      <trkpt lat="46.02564" lon="4.60217">
        <ele>448</ele>
        <time>2016-11-12T11:03:41Z</time>
      </trkpt>
      <trkpt lat="46.02561" lon="4.60224">
        <ele>448</ele>
        <time>2016-11-12T11:03:42Z</time>
      </trkpt>
      <trkpt lat="46.02558" lon="4.6023">
        <ele>448</ele>
        <time>2016-11-12T11:03:43Z</time>
      </trkpt>
      <trkpt lat="46.02556" lon="4.60237">
        <ele>448</ele>
        <time>2016-11-12T11:03:44Z</time>
      </trkpt>
      <trkpt lat="46.02553" lon="4.60244">
        <ele>448</ele>
        <time>2016-11-12T11:03:45Z</time>
      </trkpt>
      <trkpt lat="46.02551" lon="4.60252">
        <ele>444</ele>
        <time>2016-11-12T11:03:46Z</time>
      </trkpt>
      <trkpt lat="46.02548" lon="4.60259">
        <ele>444</ele>
        <time>2016-11-12T11:03:47Z</time>
      </trkpt>
      <trkpt lat="46.02545" lon="4.60267">
        <ele>444</ele>
        <time>2016-11-12T11:03:48Z</time>
      </trkpt>
      <trkpt lat="46.02543" lon="4.60276">
        <ele>444</ele>
        <time>2016-11-12T11:03:49Z</time>
      </trkpt>
      <trkpt lat="46.0254" lon="4.60284">
        <ele>444</ele>
        <time>2016-11-12T11:03:50Z</time>
      </trkpt>
      <trkpt lat="46.02538" lon="4.60293">
        <ele>444</ele>
        <time>2016-11-12T11:03:51Z</time>
      </trkpt>
      <trkpt lat="46.02535" lon="4.60302">
        <ele>444</ele>
        <time>2016-11-12T11:03:52Z</time>
      </trkpt>
      <trkpt lat="46.02532" lon="4.60311">
        <ele>444</ele>
        <time>2016-11-12T11:03:53Z</time>
      </trkpt>
      <trkpt lat="46.0253" lon="4.60321">
        <ele>444</ele>
        <time>2016-11-12T11:03:54Z</time>
      </trkpt>
      <trkpt lat="46.02527" lon="4.6033">
        <ele>444</ele>
        <time>2016-11-12T11:03:55Z</time>
      </trkpt>
      <trkpt lat="46.02524" lon="4.6034">
        <ele>442</ele>
        <time>2016-11-12T11:03:56Z</time>
      </trkpt>
      <trkpt lat="46.02521" lon="4.6035">
        <ele>442</ele>
        <time>2016-11-12T11:03:57Z</time>
      </trkpt>
      <trkpt lat="46.02518" lon="4.60359">
        <ele>441</ele>
        <time>2016-11-12T11:03:58Z</time>
      </trkpt>
      <trkpt lat="46.02515" lon="4.60369">
        <ele>441</ele>
        <time>2016-11-12T11:03:59Z</time>
      </trkpt>
      <trkpt lat="46.02512" lon="4.60378">
        <ele>441</ele>
        <time>2016-11-12T11:04:00Z</time>
      </trkpt>
      <trkpt lat="46.0251" lon="4.60386">
        <ele>441</ele>
        <time>2016-11-12T11:04:01Z</time>
      </trkpt>
      <trkpt lat="46.02507" lon="4.60393">
        <ele>442</ele>
        <time>2016-11-12T11:04:02Z</time>
      </trkpt>
      <trkpt lat="46.02506" lon="4.604">
        <ele>442</ele>
        <time>2016-11-12T11:04:03Z</time>
      </trkpt>
      <trkpt lat="46.02505" lon="4.60406">
        <ele>443</ele>
        <time>2016-11-12T11:04:04Z</time>
      </trkpt>
      <trkpt lat="46.02504" lon="4.60413">
        <ele>445</ele>
        <time>2016-11-12T11:04:05Z</time>
      </trkpt>
      <trkpt lat="46.02503" lon="4.60419">
        <ele>444</ele>
        <time>2016-11-12T11:04:06Z</time>
      </trkpt>
      <trkpt lat="46.02501" lon="4.60431">
        <ele>441</ele>
        <time>2016-11-12T11:04:08Z</time>
      </trkpt>
      <trkpt lat="46.025" lon="4.60436">
        <ele>452</ele>
        <time>2016-11-12T11:04:09Z</time>
      </trkpt>
      <trkpt lat="46.02498" lon="4.60447">
        <ele>453</ele>
        <time>2016-11-12T11:04:11Z</time>
      </trkpt>
      <trkpt lat="46.02497" lon="4.60452">
        <ele>453</ele>
        <time>2016-11-12T11:04:12Z</time>
      </trkpt>
      <trkpt lat="46.02495" lon="4.60462">
        <ele>453</ele>
        <time>2016-11-12T11:04:14Z</time>
      </trkpt>
      <trkpt lat="46.02494" lon="4.60467">
        <ele>453</ele>
        <time>2016-11-12T11:04:15Z</time>
      </trkpt>
      <trkpt lat="46.02492" lon="4.60478">
        <ele>451</ele>
        <time>2016-11-12T11:04:17Z</time>
      </trkpt>
      <trkpt lat="46.02492" lon="4.60484">
        <ele>450</ele>
        <time>2016-11-12T11:04:18Z</time>
      </trkpt>
      <trkpt lat="46.02489" lon="4.60494">
        <ele>448</ele>
        <time>2016-11-12T11:04:20Z</time>
      </trkpt>
      <trkpt lat="46.02488" lon="4.60498">
        <ele>447</ele>
        <time>2016-11-12T11:04:21Z</time>
      </trkpt>
      <trkpt lat="46.02485" lon="4.60508">
        <ele>446</ele>
        <time>2016-11-12T11:04:23Z</time>
      </trkpt>
      <trkpt lat="46.02483" lon="4.60513">
        <ele>447</ele>
        <time>2016-11-12T11:04:24Z</time>
      </trkpt>
      <trkpt lat="46.02479" lon="4.60522">
        <ele>448</ele>
        <time>2016-11-12T11:04:26Z</time>
      </trkpt>
      <trkpt lat="46.02477" lon="4.60527">
        <ele>448</ele>
        <time>2016-11-12T11:04:27Z</time>
      </trkpt>
      <trkpt lat="46.02473" lon="4.60536">
        <ele>449</ele>
        <time>2016-11-12T11:04:29Z</time>
      </trkpt>
      <trkpt lat="46.02471" lon="4.60541">
        <ele>449</ele>
        <time>2016-11-12T11:04:30Z</time>
      </trkpt>
      <trkpt lat="46.02467" lon="4.60551">
        <ele>449</ele>
        <time>2016-11-12T11:04:32Z</time>
      </trkpt>
      <trkpt lat="46.02465" lon="4.60556">
        <ele>449</ele>
        <time>2016-11-12T11:04:33Z</time>
      </trkpt>
      <trkpt lat="46.0246" lon="4.60565">
        <ele>449</ele>
        <time>2016-11-12T11:04:35Z</time>
      </trkpt>
      <trkpt lat="46.02459" lon="4.6057">
        <ele>449</ele>
        <time>2016-11-12T11:04:36Z</time>
      </trkpt>
      <trkpt lat="46.02454" lon="4.60579">
        <ele>450</ele>
        <time>2016-11-12T11:04:38Z</time>
      </trkpt>
      <trkpt lat="46.02452" lon="4.60582">
        <ele>450</ele>
        <time>2016-11-12T11:04:39Z</time>
      </trkpt>
      <trkpt lat="46.02448" lon="4.60594">
        <ele>446</ele>
        <time>2016-11-12T11:04:42Z</time>
      </trkpt>
      <trkpt lat="46.02446" lon="4.60597">
        <ele>446</ele>
        <time>2016-11-12T11:04:43Z</time>
      </trkpt>
      <trkpt lat="46.02442" lon="4.60608">
        <ele>446</ele>
        <time>2016-11-12T11:04:46Z</time>
      </trkpt>
      <trkpt lat="46.0244" lon="4.60611">
        <ele>446</ele>
        <time>2016-11-12T11:04:47Z</time>
      </trkpt>
      <trkpt lat="46.02435" lon="4.60617">
        <ele>446</ele>
        <time>2016-11-12T11:04:50Z</time>
      </trkpt>
      <trkpt lat="46.02434" lon="4.6062">
        <ele>446</ele>
        <time>2016-11-12T11:04:51Z</time>
      </trkpt>
      <trkpt lat="46.0243" lon="4.60628">
        <ele>445</ele>
        <time>2016-11-12T11:04:53Z</time>
      </trkpt>
      <trkpt lat="46.02428" lon="4.60632">
        <ele>445</ele>
        <time>2016-11-12T11:04:54Z</time>
      </trkpt>
      <trkpt lat="46.02422" lon="4.60646">
        <ele>446</ele>
        <time>2016-11-12T11:04:58Z</time>
      </trkpt>
      <trkpt lat="46.02417" lon="4.60656">
        <ele>447</ele>
        <time>2016-11-12T11:05:01Z</time>
      </trkpt>
      <trkpt lat="46.02415" lon="4.60659">
        <ele>455</ele>
        <time>2016-11-12T11:05:02Z</time>
      </trkpt>
      <trkpt lat="46.02408" lon="4.60667">
        <ele>452</ele>
        <time>2016-11-12T11:05:05Z</time>
      </trkpt>
      <trkpt lat="46.02407" lon="4.6067">
        <ele>452</ele>
        <time>2016-11-12T11:05:06Z</time>
      </trkpt>
      <trkpt lat="46.02403" lon="4.60677">
        <ele>453</ele>
        <time>2016-11-12T11:05:08Z</time>
      </trkpt>
      <trkpt lat="46.02401" lon="4.6068">
        <ele>453</ele>
        <time>2016-11-12T11:05:09Z</time>
      </trkpt>
      <trkpt lat="46.02394" lon="4.60685">
        <ele>454</ele>
        <time>2016-11-12T11:05:12Z</time>
      </trkpt>
      <trkpt lat="46.02392" lon="4.60687">
        <ele>454</ele>
        <time>2016-11-12T11:05:13Z</time>
      </trkpt>
      <trkpt lat="46.02386" lon="4.60693">
        <ele>454</ele>
        <time>2016-11-12T11:05:16Z</time>
      </trkpt>
      <trkpt lat="46.02384" lon="4.60695">
        <ele>454</ele>
        <time>2016-11-12T11:05:17Z</time>
      </trkpt>
      <trkpt lat="46.02379" lon="4.607">
        <ele>455</ele>
        <time>2016-11-12T11:05:20Z</time>
      </trkpt>
      <trkpt lat="46.02376" lon="4.60703">
        <ele>455</ele>
        <time>2016-11-12T11:05:21Z</time>
      </trkpt>
      <trkpt lat="46.0237" lon="4.60707">
        <ele>455</ele>
        <time>2016-11-12T11:05:23Z</time>
      </trkpt>
      <trkpt lat="46.02367" lon="4.60709">
        <ele>455</ele>
        <time>2016-11-12T11:05:24Z</time>
      </trkpt>
      <trkpt lat="46.0236" lon="4.60714">
        <ele>456</ele>
        <time>2016-11-12T11:05:27Z</time>
      </trkpt>
      <trkpt lat="46.02358" lon="4.60715">
        <ele>456</ele>
        <time>2016-11-12T11:05:28Z</time>
      </trkpt>
      <trkpt lat="46.02351" lon="4.60719">
        <ele>456</ele>
        <time>2016-11-12T11:05:31Z</time>
      </trkpt>
      <trkpt lat="46.02349" lon="4.60719">
        <ele>456</ele>
        <time>2016-11-12T11:05:32Z</time>
      </trkpt>
      <trkpt lat="46.02342" lon="4.60721">
        <ele>456</ele>
        <time>2016-11-12T11:05:36Z</time>
      </trkpt>
      <trkpt lat="46.0234" lon="4.60722">
        <ele>456</ele>
        <time>2016-11-12T11:05:37Z</time>
      </trkpt>
      <trkpt lat="46.02333" lon="4.60721">
        <ele>468</ele>
        <time>2016-11-12T11:05:41Z</time>
      </trkpt>
      <trkpt lat="46.02331" lon="4.60722">
        <ele>468</ele>
        <time>2016-11-12T11:05:42Z</time>
      </trkpt>
      <trkpt lat="46.02324" lon="4.60726">
        <ele>467</ele>
        <time>2016-11-12T11:05:46Z</time>
      </trkpt>
      <trkpt lat="46.02323" lon="4.60726">
        <ele>467</ele>
        <time>2016-11-12T11:05:47Z</time>
      </trkpt>
      <trkpt lat="46.02314" lon="4.6073">
        <ele>468</ele>
        <time>2016-11-12T11:05:51Z</time>
      </trkpt>
      <trkpt lat="46.02312" lon="4.60729">
        <ele>469</ele>
        <time>2016-11-12T11:05:52Z</time>
      </trkpt>
      <trkpt lat="46.02304" lon="4.60724">
        <ele>471</ele>
        <time>2016-11-12T11:05:55Z</time>
      </trkpt>
      <trkpt lat="46.02303" lon="4.60725">
        <ele>471</ele>
        <time>2016-11-12T11:05:56Z</time>
      </trkpt>
      <trkpt lat="46.02295" lon="4.60728">
        <ele>472</ele>
        <time>2016-11-12T11:06:00Z</time>
      </trkpt>
      <trkpt lat="46.02294" lon="4.60729">
        <ele>472</ele>
        <time>2016-11-12T11:06:01Z</time>
      </trkpt>
      <trkpt lat="46.02286" lon="4.60732">
        <ele>473</ele>
        <time>2016-11-12T11:06:05Z</time>
      </trkpt>
      <trkpt lat="46.02284" lon="4.60733">
        <ele>473</ele>
        <time>2016-11-12T11:06:06Z</time>
      </trkpt>
      <trkpt lat="46.02277" lon="4.60735">
        <ele>473</ele>
        <time>2016-11-12T11:06:09Z</time>
      </trkpt>
      <trkpt lat="46.02275" lon="4.60736">
        <ele>473</ele>
        <time>2016-11-12T11:06:10Z</time>
      </trkpt>
      <trkpt lat="46.02266" lon="4.60741">
        <ele>473</ele>
        <time>2016-11-12T11:06:14Z</time>
      </trkpt>
      <trkpt lat="46.02264" lon="4.60741">
        <ele>473</ele>
        <time>2016-11-12T11:06:15Z</time>
      </trkpt>
      <trkpt lat="46.02257" lon="4.60744">
        <ele>472</ele>
        <time>2016-11-12T11:06:19Z</time>
      </trkpt>
      <trkpt lat="46.02254" lon="4.60746">
        <ele>472</ele>
        <time>2016-11-12T11:06:20Z</time>
      </trkpt>
      <trkpt lat="46.02248" lon="4.60755">
        <ele>469</ele>
        <time>2016-11-12T11:06:26Z</time>
      </trkpt>
      <trkpt lat="46.02247" lon="4.60756">
        <ele>469</ele>
        <time>2016-11-12T11:06:27Z</time>
      </trkpt>
      <trkpt lat="46.0224" lon="4.6076">
        <ele>467</ele>
        <time>2016-11-12T11:06:32Z</time>
      </trkpt>
      <trkpt lat="46.02238" lon="4.60761">
        <ele>466</ele>
        <time>2016-11-12T11:06:33Z</time>
      </trkpt>
      <trkpt lat="46.0223" lon="4.60766">
        <ele>465</ele>
        <time>2016-11-12T11:06:38Z</time>
      </trkpt>
      <trkpt lat="46.02228" lon="4.60766">
        <ele>465</ele>
        <time>2016-11-12T11:06:39Z</time>
      </trkpt>
      <trkpt lat="46.0222" lon="4.60769">
        <ele>464</ele>
        <time>2016-11-12T11:06:43Z</time>
      </trkpt>
      <trkpt lat="46.02219" lon="4.6077">
        <ele>464</ele>
        <time>2016-11-12T11:06:44Z</time>
      </trkpt>
      <trkpt lat="46.02211" lon="4.60771">
        <ele>464</ele>
        <time>2016-11-12T11:06:48Z</time>
      </trkpt>
      <trkpt lat="46.02209" lon="4.60771">
        <ele>464</ele>
        <time>2016-11-12T11:06:49Z</time>
      </trkpt>
      <trkpt lat="46.02201" lon="4.60774">
        <ele>465</ele>
        <time>2016-11-12T11:06:53Z</time>
      </trkpt>
      <trkpt lat="46.02199" lon="4.60775">
        <ele>465</ele>
        <time>2016-11-12T11:06:54Z</time>
      </trkpt>
      <trkpt lat="46.0219" lon="4.60777">
        <ele>465</ele>
        <time>2016-11-12T11:06:58Z</time>
      </trkpt>
      <trkpt lat="46.02187" lon="4.60777">
        <ele>465</ele>
        <time>2016-11-12T11:06:59Z</time>
      </trkpt>
      <trkpt lat="46.0218" lon="4.60775">
        <ele>467</ele>
        <time>2016-11-12T11:07:02Z</time>
      </trkpt>
      <trkpt lat="46.02178" lon="4.60775">
        <ele>467</ele>
        <time>2016-11-12T11:07:03Z</time>
      </trkpt>
      <trkpt lat="46.0217" lon="4.60773">
        <ele>468</ele>
        <time>2016-11-12T11:07:06Z</time>
      </trkpt>
      <trkpt lat="46.02167" lon="4.60774">
        <ele>472</ele>
        <time>2016-11-12T11:07:07Z</time>
      </trkpt>
      <trkpt lat="46.02159" lon="4.6077">
        <ele>473</ele>
        <time>2016-11-12T11:07:10Z</time>
      </trkpt>
      <trkpt lat="46.02157" lon="4.60769">
        <ele>473</ele>
        <time>2016-11-12T11:07:11Z</time>
      </trkpt>
      <trkpt lat="46.02149" lon="4.60764">
        <ele>473</ele>
        <time>2016-11-12T11:07:15Z</time>
      </trkpt>
      <trkpt lat="46.02148" lon="4.60763">
        <ele>473</ele>
        <time>2016-11-12T11:07:16Z</time>
      </trkpt>
      <trkpt lat="46.02141" lon="4.60758">
        <ele>473</ele>
        <time>2016-11-12T11:07:20Z</time>
      </trkpt>
      <trkpt lat="46.02139" lon="4.60757">
        <ele>473</ele>
        <time>2016-11-12T11:07:21Z</time>
      </trkpt>
      <trkpt lat="46.02131" lon="4.60751">
        <ele>473</ele>
        <time>2016-11-12T11:07:25Z</time>
      </trkpt>
      <trkpt lat="46.02129" lon="4.6075">
        <ele>489</ele>
        <time>2016-11-12T11:07:26Z</time>
      </trkpt>
      <trkpt lat="46.02121" lon="4.60746">
        <ele>489</ele>
        <time>2016-11-12T11:07:30Z</time>
      </trkpt>
      <trkpt lat="46.02119" lon="4.60745">
        <ele>489</ele>
        <time>2016-11-12T11:07:31Z</time>
      </trkpt>
      <trkpt lat="46.02111" lon="4.6074">
        <ele>489</ele>
        <time>2016-11-12T11:07:35Z</time>
      </trkpt>
      <trkpt lat="46.02109" lon="4.60739">
        <ele>488</ele>
        <time>2016-11-12T11:07:36Z</time>
      </trkpt>
      <trkpt lat="46.02101" lon="4.60738">
        <ele>487</ele>
        <time>2016-11-12T11:07:39Z</time>
      </trkpt>
      <trkpt lat="46.02099" lon="4.60737">
        <ele>487</ele>
        <time>2016-11-12T11:07:40Z</time>
      </trkpt>
      <trkpt lat="46.02093" lon="4.60734">
        <ele>487</ele>
        <time>2016-11-12T11:07:43Z</time>
      </trkpt>
      <trkpt lat="46.0209" lon="4.60733">
        <ele>487</ele>
        <time>2016-11-12T11:07:44Z</time>
      </trkpt>
      <trkpt lat="46.02082" lon="4.60729">
        <ele>489</ele>
        <time>2016-11-12T11:07:48Z</time>
      </trkpt>
      <trkpt lat="46.0208" lon="4.60729">
        <ele>489</ele>
        <time>2016-11-12T11:07:49Z</time>
      </trkpt>
      <trkpt lat="46.02073" lon="4.6073">
        <ele>489</ele>
        <time>2016-11-12T11:07:52Z</time>
      </trkpt>
      <trkpt lat="46.0207" lon="4.6073">
        <ele>490</ele>
        <time>2016-11-12T11:07:53Z</time>
      </trkpt>
      <trkpt lat="46.02065" lon="4.60729">
        <ele>490</ele>
        <time>2016-11-12T11:07:55Z</time>
      </trkpt>
      <trkpt lat="46.02061" lon="4.60728">
        <ele>491</ele>
        <time>2016-11-12T11:07:56Z</time>
      </trkpt>
      <trkpt lat="46.02052" lon="4.60729">
        <ele>492</ele>
        <time>2016-11-12T11:07:59Z</time>
      </trkpt>
      <trkpt lat="46.0205" lon="4.6073">
        <ele>492</ele>
        <time>2016-11-12T11:08:00Z</time>
      </trkpt>
      <trkpt lat="46.02041" lon="4.60729">
        <ele>493</ele>
        <time>2016-11-12T11:08:05Z</time>
      </trkpt>
      <trkpt lat="46.02039" lon="4.60729">
        <ele>493</ele>
        <time>2016-11-12T11:08:06Z</time>
      </trkpt>
      <trkpt lat="46.02031" lon="4.60726">
        <ele>494</ele>
        <time>2016-11-12T11:08:11Z</time>
      </trkpt>
      <trkpt lat="46.02029" lon="4.60727">
        <ele>494</ele>
        <time>2016-11-12T11:08:12Z</time>
      </trkpt>
      <trkpt lat="46.02021" lon="4.60732">
        <ele>493</ele>
        <time>2016-11-12T11:08:17Z</time>
      </trkpt>
      <trkpt lat="46.02019" lon="4.60733">
        <ele>493</ele>
        <time>2016-11-12T11:08:18Z</time>
      </trkpt>
      <trkpt lat="46.02012" lon="4.60737">
        <ele>493</ele>
        <time>2016-11-12T11:08:22Z</time>
      </trkpt>
      <trkpt lat="46.02009" lon="4.60739">
        <ele>492</ele>
        <time>2016-11-12T11:08:23Z</time>
      </trkpt>
      <trkpt lat="46.02002" lon="4.60744">
        <ele>491</ele>
        <time>2016-11-12T11:08:26Z</time>
      </trkpt>
      <trkpt lat="46.02" lon="4.60745">
        <ele>490</ele>
        <time>2016-11-12T11:08:27Z</time>
      </trkpt>
      <trkpt lat="46.01994" lon="4.60753">
        <ele>491</ele>
        <time>2016-11-12T11:08:30Z</time>
      </trkpt>
      <trkpt lat="46.01992" lon="4.60756">
        <ele>491</ele>
        <time>2016-11-12T11:08:31Z</time>
      </trkpt>
      <trkpt lat="46.01987" lon="4.60763">
        <ele>493</ele>
        <time>2016-11-12T11:08:33Z</time>
      </trkpt>
      <trkpt lat="46.01985" lon="4.60768">
        <ele>493</ele>
        <time>2016-11-12T11:08:34Z</time>
      </trkpt>
      <trkpt lat="46.01984" lon="4.60777">
        <ele>494</ele>
        <time>2016-11-12T11:08:36Z</time>
      </trkpt>
      <trkpt lat="46.01984" lon="4.60781">
        <ele>494</ele>
        <time>2016-11-12T11:08:37Z</time>
      </trkpt>
      <trkpt lat="46.01984" lon="4.60791">
        <ele>494</ele>
        <time>2016-11-12T11:08:40Z</time>
      </trkpt>
      <trkpt lat="46.01985" lon="4.60795">
        <ele>494</ele>
        <time>2016-11-12T11:08:41Z</time>
      </trkpt>
      <trkpt lat="46.0199" lon="4.60804">
        <ele>494</ele>
        <time>2016-11-12T11:08:45Z</time>
      </trkpt>
      <trkpt lat="46.01992" lon="4.60806">
        <ele>494</ele>
        <time>2016-11-12T11:08:46Z</time>
      </trkpt>
      <trkpt lat="46.01997" lon="4.60815">
        <ele>493</ele>
        <time>2016-11-12T11:08:50Z</time>
      </trkpt>
      <trkpt lat="46.01999" lon="4.60817">
        <ele>493</ele>
        <time>2016-11-12T11:08:51Z</time>
      </trkpt>
      <trkpt lat="46.02005" lon="4.60825">
        <ele>487</ele>
        <time>2016-11-12T11:08:55Z</time>
      </trkpt>
      <trkpt lat="46.02007" lon="4.60826">
        <ele>487</ele>
        <time>2016-11-12T11:08:56Z</time>
      </trkpt>
      <trkpt lat="46.02012" lon="4.60836">
        <ele>488</ele>
        <time>2016-11-12T11:08:59Z</time>
      </trkpt>
      <trkpt lat="46.02014" lon="4.60839">
        <ele>487</ele>
        <time>2016-11-12T11:09:00Z</time>
      </trkpt>
      <trkpt lat="46.02019" lon="4.60848">
        <ele>486</ele>
        <time>2016-11-12T11:09:03Z</time>
      </trkpt>
      <trkpt lat="46.0202" lon="4.60851">
        <ele>486</ele>
        <time>2016-11-12T11:09:04Z</time>
      </trkpt>
      <trkpt lat="46.02027" lon="4.6086">
        <ele>485</ele>
        <time>2016-11-12T11:09:08Z</time>
      </trkpt>
      <trkpt lat="46.02028" lon="4.60862">
        <ele>485</ele>
        <time>2016-11-12T11:09:09Z</time>
      </trkpt>
      <trkpt lat="46.02033" lon="4.60871">
        <ele>485</ele>
        <time>2016-11-12T11:09:12Z</time>
      </trkpt>
      <trkpt lat="46.02034" lon="4.60874">
        <ele>485</ele>
        <time>2016-11-12T11:09:13Z</time>
      </trkpt>
      <trkpt lat="46.02037" lon="4.60883">
        <ele>485</ele>
        <time>2016-11-12T11:09:16Z</time>
      </trkpt>
      <trkpt lat="46.02038" lon="4.60886">
        <ele>485</ele>
        <time>2016-11-12T11:09:17Z</time>
      </trkpt>
      <trkpt lat="46.02043" lon="4.60895">
        <ele>485</ele>
        <time>2016-11-12T11:09:21Z</time>
      </trkpt>
      <trkpt lat="46.02044" lon="4.60897">
        <ele>485</ele>
        <time>2016-11-12T11:09:22Z</time>
      </trkpt>
      <trkpt lat="46.02046" lon="4.60907">
        <ele>485</ele>
        <time>2016-11-12T11:09:26Z</time>
      </trkpt>
      <trkpt lat="46.02047" lon="4.60909">
        <ele>485</ele>
        <time>2016-11-12T11:09:27Z</time>
      </trkpt>
      <trkpt lat="46.02052" lon="4.60918">
        <ele>489</ele>
        <time>2016-11-12T11:09:31Z</time>
      </trkpt>
      <trkpt lat="46.02053" lon="4.60921">
        <ele>489</ele>
        <time>2016-11-12T11:09:32Z</time>
      </trkpt>
      <trkpt lat="46.02053" lon="4.60933">
        <ele>489</ele>
        <time>2016-11-12T11:09:36Z</time>
      </trkpt>
      <trkpt lat="46.02054" lon="4.60936">
        <ele>489</ele>
        <time>2016-11-12T11:09:37Z</time>
      </trkpt>
      <trkpt lat="46.02057" lon="4.60948">
        <ele>490</ele>
        <time>2016-11-12T11:09:41Z</time>
      </trkpt>
      <trkpt lat="46.02057" lon="4.60951">
        <ele>490</ele>
        <time>2016-11-12T11:09:42Z</time>
      </trkpt>
      <trkpt lat="46.02058" lon="4.60963">
        <ele>491</ele>
        <time>2016-11-12T11:09:46Z</time>
      </trkpt>
      <trkpt lat="46.02058" lon="4.60966">
        <ele>491</ele>
        <time>2016-11-12T11:09:47Z</time>
      </trkpt>
      <trkpt lat="46.02058" lon="4.60978">
        <ele>491</ele>
        <time>2016-11-12T11:09:51Z</time>
      </trkpt>
      <trkpt lat="46.02058" lon="4.60981">
        <ele>491</ele>
        <time>2016-11-12T11:09:52Z</time>
      </trkpt>
      <trkpt lat="46.02058" lon="4.60991">
        <ele>491</ele>
        <time>2016-11-12T11:09:55Z</time>
      </trkpt>
      <trkpt lat="46.02057" lon="4.60994">
        <ele>491</ele>
        <time>2016-11-12T11:09:56Z</time>
      </trkpt>
      <trkpt lat="46.02054" lon="4.61005">
        <ele>491</ele>
        <time>2016-11-12T11:10:00Z</time>
      </trkpt>
      <trkpt lat="46.02053" lon="4.61008">
        <ele>491</ele>
        <time>2016-11-12T11:10:01Z</time>
      </trkpt>
      <trkpt lat="46.02049" lon="4.61018">
        <ele>492</ele>
        <time>2016-11-12T11:10:05Z</time>
      </trkpt>
      <trkpt lat="46.02048" lon="4.6102">
        <ele>492</ele>
        <time>2016-11-12T11:10:06Z</time>
      </trkpt>
      <trkpt lat="46.02043" lon="4.61028">
        <ele>492</ele>
        <time>2016-11-12T11:10:10Z</time>
      </trkpt>
      <trkpt lat="46.02042" lon="4.61031">
        <ele>492</ele>
        <time>2016-11-12T11:10:11Z</time>
      </trkpt>
      <trkpt lat="46.02035" lon="4.61039">
        <ele>493</ele>
        <time>2016-11-12T11:10:15Z</time>
      </trkpt>
      <trkpt lat="46.02034" lon="4.61041">
        <ele>493</ele>
        <time>2016-11-12T11:10:16Z</time>
      </trkpt>
      <trkpt lat="46.02026" lon="4.61049">
        <ele>493</ele>
        <time>2016-11-12T11:10:20Z</time>
      </trkpt>
      <trkpt lat="46.02025" lon="4.61051">
        <ele>493</ele>
        <time>2016-11-12T11:10:21Z</time>
      </trkpt>
      <trkpt lat="46.02017" lon="4.61058">
        <ele>493</ele>
        <time>2016-11-12T11:10:25Z</time>
      </trkpt>
      <trkpt lat="46.02016" lon="4.6106">
        <ele>494</ele>
        <time>2016-11-12T11:10:26Z</time>
      </trkpt>
      <trkpt lat="46.02009" lon="4.61067">
        <ele>494</ele>
        <time>2016-11-12T11:10:30Z</time>
      </trkpt>
      <trkpt lat="46.02007" lon="4.61068">
        <ele>494</ele>
        <time>2016-11-12T11:10:31Z</time>
      </trkpt>
      <trkpt lat="46.02001" lon="4.61071">
        <ele>495</ele>
        <time>2016-11-12T11:10:34Z</time>
      </trkpt>
      <trkpt lat="46.01998" lon="4.61072">
        <ele>499</ele>
        <time>2016-11-12T11:10:35Z</time>
      </trkpt>
      <trkpt lat="46.01992" lon="4.61076">
        <ele>499</ele>
        <time>2016-11-12T11:10:38Z</time>
      </trkpt>
      <trkpt lat="46.0199" lon="4.61077">
        <ele>500</ele>
        <time>2016-11-12T11:10:39Z</time>
      </trkpt>
      <trkpt lat="46.01982" lon="4.61081">
        <ele>501</ele>
        <time>2016-11-12T11:10:43Z</time>
      </trkpt>
      <trkpt lat="46.0198" lon="4.61082">
        <ele>501</ele>
        <time>2016-11-12T11:10:44Z</time>
      </trkpt>
      <trkpt lat="46.01972" lon="4.61086">
        <ele>494</ele>
        <time>2016-11-12T11:10:48Z</time>
      </trkpt>
      <trkpt lat="46.0197" lon="4.61087">
        <ele>494</ele>
        <time>2016-11-12T11:10:49Z</time>
      </trkpt>
      <trkpt lat="46.01961" lon="4.6109">
        <ele>494</ele>
        <time>2016-11-12T11:10:53Z</time>
      </trkpt>
      <trkpt lat="46.01959" lon="4.61091">
        <ele>494</ele>
        <time>2016-11-12T11:10:54Z</time>
      </trkpt>
      <trkpt lat="46.01951" lon="4.61095">
        <ele>495</ele>
        <time>2016-11-12T11:10:58Z</time>
      </trkpt>
      <trkpt lat="46.0195" lon="4.61096">
        <ele>495</ele>
        <time>2016-11-12T11:10:59Z</time>
      </trkpt>
      <trkpt lat="46.01944" lon="4.61101">
        <ele>495</ele>
        <time>2016-11-12T11:11:02Z</time>
      </trkpt>
      <trkpt lat="46.01941" lon="4.61102">
        <ele>495</ele>
        <time>2016-11-12T11:11:03Z</time>
      </trkpt>
      <trkpt lat="46.01934" lon="4.61104">
        <ele>496</ele>
        <time>2016-11-12T11:11:07Z</time>
      </trkpt>
      <trkpt lat="46.01932" lon="4.61105">
        <ele>496</ele>
        <time>2016-11-12T11:11:08Z</time>
      </trkpt>
      <trkpt lat="46.01923" lon="4.61109">
        <ele>496</ele>
        <time>2016-11-12T11:11:13Z</time>
      </trkpt>
      <trkpt lat="46.01921" lon="4.61109">
        <ele>496</ele>
        <time>2016-11-12T11:11:14Z</time>
      </trkpt>
      <trkpt lat="46.01914" lon="4.61112">
        <ele>503</ele>
        <time>2016-11-12T11:11:17Z</time>
      </trkpt>
      <trkpt lat="46.01912" lon="4.61112">
        <ele>503</ele>
        <time>2016-11-12T11:11:18Z</time>
      </trkpt>
      <trkpt lat="46.01903" lon="4.61113">
        <ele>504</ele>
        <time>2016-11-12T11:11:22Z</time>
      </trkpt>
      <trkpt lat="46.01901" lon="4.61113">
        <ele>504</ele>
        <time>2016-11-12T11:11:23Z</time>
      </trkpt>
      <trkpt lat="46.01892" lon="4.61114">
        <ele>504</ele>
        <time>2016-11-12T11:11:28Z</time>
      </trkpt>
      <trkpt lat="46.0189" lon="4.61115">
        <ele>504</ele>
        <time>2016-11-12T11:11:29Z</time>
      </trkpt>
      <trkpt lat="46.01882" lon="4.61117">
        <ele>505</ele>
        <time>2016-11-12T11:11:33Z</time>
      </trkpt>
      <trkpt lat="46.0188" lon="4.61116">
        <ele>505</ele>
        <time>2016-11-12T11:11:34Z</time>
      </trkpt>
      <trkpt lat="46.01873" lon="4.61116">
        <ele>505</ele>
        <time>2016-11-12T11:11:37Z</time>
      </trkpt>
      <trkpt lat="46.01871" lon="4.61116">
        <ele>506</ele>
        <time>2016-11-12T11:11:38Z</time>
      </trkpt>
      <trkpt lat="46.01862" lon="4.61119">
        <ele>506</ele>
        <time>2016-11-12T11:11:42Z</time>
      </trkpt>
      <trkpt lat="46.0186" lon="4.6112">
        <ele>506</ele>
        <time>2016-11-12T11:11:43Z</time>
      </trkpt>
      <trkpt lat="46.01852" lon="4.61121">
        <ele>507</ele>
        <time>2016-11-12T11:11:47Z</time>
      </trkpt>
      <trkpt lat="46.0185" lon="4.61121">
        <ele>507</ele>
        <time>2016-11-12T11:11:48Z</time>
      </trkpt>
      <trkpt lat="46.01841" lon="4.61118">
        <ele>507</ele>
        <time>2016-11-12T11:11:52Z</time>
      </trkpt>
      <trkpt lat="46.01839" lon="4.61117">
        <ele>508</ele>
        <time>2016-11-12T11:11:53Z</time>
      </trkpt>
      <trkpt lat="46.01831" lon="4.61116">
        <ele>511</ele>
        <time>2016-11-12T11:11:56Z</time>
      </trkpt>
      <trkpt lat="46.01828" lon="4.61116">
        <ele>511</ele>
        <time>2016-11-12T11:11:57Z</time>
      </trkpt>
      <trkpt lat="46.01821" lon="4.61113">
        <ele>511</ele>
        <time>2016-11-12T11:12:00Z</time>
      </trkpt>
      <trkpt lat="46.01819" lon="4.61111">
        <ele>511</ele>
        <time>2016-11-12T11:12:01Z</time>
      </trkpt>
      <trkpt lat="46.01813" lon="4.61109">
        <ele>511</ele>
        <time>2016-11-12T11:12:03Z</time>
      </trkpt>
      <trkpt lat="46.01809" lon="4.61108">
        <ele>511</ele>
        <time>2016-11-12T11:12:04Z</time>
      </trkpt>
      <trkpt lat="46.01801" lon="4.61105">
        <ele>511</ele>
        <time>2016-11-12T11:12:07Z</time>
      </trkpt>
      <trkpt lat="46.01798" lon="4.61103">
        <ele>511</ele>
        <time>2016-11-12T11:12:08Z</time>
      </trkpt>
      <trkpt lat="46.01793" lon="4.611">
        <ele>511</ele>
        <time>2016-11-12T11:12:10Z</time>
      </trkpt>
      <trkpt lat="46.0179" lon="4.61099">
        <ele>511</ele>
        <time>2016-11-12T11:12:11Z</time>
      </trkpt>
      <trkpt lat="46.01783" lon="4.61094">
        <ele>511</ele>
        <time>2016-11-12T11:12:13Z</time>
      </trkpt>
      <trkpt lat="46.0178" lon="4.61092">
        <ele>511</ele>
        <time>2016-11-12T11:12:14Z</time>
      </trkpt>
      <trkpt lat="46.01774" lon="4.61088">
        <ele>511</ele>
        <time>2016-11-12T11:12:16Z</time>
      </trkpt>
      <trkpt lat="46.01771" lon="4.61086">
        <ele>511</ele>
        <time>2016-11-12T11:12:17Z</time>
      </trkpt>
      <trkpt lat="46.01764" lon="4.61081">
        <ele>513</ele>
        <time>2016-11-12T11:12:19Z</time>
      </trkpt>
      <trkpt lat="46.01761" lon="4.61079">
        <ele>513</ele>
        <time>2016-11-12T11:12:20Z</time>
      </trkpt>
      <trkpt lat="46.01754" lon="4.61075">
        <ele>513</ele>
        <time>2016-11-12T11:12:22Z</time>
      </trkpt>
      <trkpt lat="46.01751" lon="4.61072">
        <ele>513</ele>
        <time>2016-11-12T11:12:23Z</time>
      </trkpt>
      <trkpt lat="46.01744" lon="4.61068">
        <ele>513</ele>
        <time>2016-11-12T11:12:25Z</time>
      </trkpt>
      <trkpt lat="46.0174" lon="4.61066">
        <ele>513</ele>
        <time>2016-11-12T11:12:26Z</time>
      </trkpt>
      <trkpt lat="46.01733" lon="4.61064">
        <ele>513</ele>
        <time>2016-11-12T11:12:28Z</time>
      </trkpt>
      <trkpt lat="46.01729" lon="4.61063">
        <ele>514</ele>
        <time>2016-11-12T11:12:29Z</time>
      </trkpt>
      <trkpt lat="46.01723" lon="4.61061">
        <ele>514</ele>
        <time>2016-11-12T11:12:31Z</time>
      </trkpt>
      <trkpt lat="46.01719" lon="4.6106">
        <ele>514</ele>
        <time>2016-11-12T11:12:32Z</time>
      </trkpt>
      <trkpt lat="46.01713" lon="4.61058">
        <ele>514</ele>
        <time>2016-11-12T11:12:34Z</time>
      </trkpt>
      <trkpt lat="46.01709" lon="4.61057">
        <ele>514</ele>
        <time>2016-11-12T11:12:35Z</time>
      </trkpt>
      <trkpt lat="46.01702" lon="4.61056">
        <ele>514</ele>
        <time>2016-11-12T11:12:37Z</time>
      </trkpt>
      <trkpt lat="46.01698" lon="4.61055">
        <ele>514</ele>
        <time>2016-11-12T11:12:38Z</time>
      </trkpt>
      <trkpt lat="46.01691" lon="4.61054">
        <ele>514</ele>
        <time>2016-11-12T11:12:40Z</time>
      </trkpt>
      <trkpt lat="46.01687" lon="4.61054">
        <ele>514</ele>
        <time>2016-11-12T11:12:41Z</time>
      </trkpt>
      <trkpt lat="46.01679" lon="4.61052">
        <ele>514</ele>
        <time>2016-11-12T11:12:43Z</time>
      </trkpt>
      <trkpt lat="46.01675" lon="4.61051">
        <ele>514</ele>
        <time>2016-11-12T11:12:44Z</time>
      </trkpt>
      <trkpt lat="46.01667" lon="4.6105">
        <ele>514</ele>
        <time>2016-11-12T11:12:46Z</time>
      </trkpt>
      <trkpt lat="46.01663" lon="4.61049">
        <ele>514</ele>
        <time>2016-11-12T11:12:47Z</time>
      </trkpt>
      <trkpt lat="46.01656" lon="4.61047">
        <ele>514</ele>
        <time>2016-11-12T11:12:49Z</time>
      </trkpt>
      <trkpt lat="46.01653" lon="4.61046">
        <ele>514</ele>
        <time>2016-11-12T11:12:50Z</time>
      </trkpt>
      <trkpt lat="46.01646" lon="4.61044">
        <ele>514</ele>
        <time>2016-11-12T11:12:52Z</time>
      </trkpt>
      <trkpt lat="46.01642" lon="4.61042">
        <ele>514</ele>
        <time>2016-11-12T11:12:53Z</time>
      </trkpt>
      <trkpt lat="46.01635" lon="4.61039">
        <ele>514</ele>
        <time>2016-11-12T11:12:55Z</time>
      </trkpt>
      <trkpt lat="46.01632" lon="4.61038">
        <ele>514</ele>
        <time>2016-11-12T11:12:56Z</time>
      </trkpt>
      <trkpt lat="46.01624" lon="4.61035">
        <ele>514</ele>
        <time>2016-11-12T11:12:58Z</time>
      </trkpt>
      <trkpt lat="46.0162" lon="4.61034">
        <ele>514</ele>
        <time>2016-11-12T11:12:59Z</time>
      </trkpt>
      <trkpt lat="46.01612" lon="4.61031">
        <ele>514</ele>
        <time>2016-11-12T11:13:01Z</time>
      </trkpt>
      <trkpt lat="46.01608" lon="4.6103">
        <ele>514</ele>
        <time>2016-11-12T11:13:02Z</time>
      </trkpt>
      <trkpt lat="46.01603" lon="4.61029">
        <ele>514</ele>
        <time>2016-11-12T11:13:03Z</time>
      </trkpt>
      <trkpt lat="46.01597" lon="4.61027">
        <ele>514</ele>
        <time>2016-11-12T11:13:04Z</time>
      </trkpt>
      <trkpt lat="46.01592" lon="4.61025">
        <ele>515</ele>
        <time>2016-11-12T11:13:05Z</time>
      </trkpt>
      <trkpt lat="46.01586" lon="4.61023">
        <ele>515</ele>
        <time>2016-11-12T11:13:06Z</time>
      </trkpt>
      <trkpt lat="46.01581" lon="4.61021">
        <ele>513</ele>
        <time>2016-11-12T11:13:07Z</time>
      </trkpt>
      <trkpt lat="46.01575" lon="4.61019">
        <ele>513</ele>
        <time>2016-11-12T11:13:08Z</time>
      </trkpt>
      <trkpt lat="46.0157" lon="4.61015">
        <ele>513</ele>
        <time>2016-11-12T11:13:09Z</time>
      </trkpt>
      <trkpt lat="46.01566" lon="4.61011">
        <ele>513</ele>
        <time>2016-11-12T11:13:10Z</time>
      </trkpt>
      <trkpt lat="46.01561" lon="4.61008">
        <ele>512</ele>
        <time>2016-11-12T11:13:11Z</time>
      </trkpt>
      <trkpt lat="46.01557" lon="4.61005">
        <ele>512</ele>
        <time>2016-11-12T11:13:12Z</time>
      </trkpt>
      <trkpt lat="46.01552" lon="4.61002">
        <ele>512</ele>
        <time>2016-11-12T11:13:13Z</time>
      </trkpt>
      <trkpt lat="46.01546" lon="4.61">
        <ele>513</ele>
        <time>2016-11-12T11:13:14Z</time>
      </trkpt>
      <trkpt lat="46.01541" lon="4.60998">
        <ele>513</ele>
        <time>2016-11-12T11:13:15Z</time>
      </trkpt>
      <trkpt lat="46.01536" lon="4.60996">
        <ele>513</ele>
        <time>2016-11-12T11:13:16Z</time>
      </trkpt>
      <trkpt lat="46.01528" lon="4.60992">
        <ele>512</ele>
        <time>2016-11-12T11:13:18Z</time>
      </trkpt>
      <trkpt lat="46.01524" lon="4.60991">
        <ele>512</ele>
        <time>2016-11-12T11:13:19Z</time>
      </trkpt>
      <trkpt lat="46.01516" lon="4.60988">
        <ele>512</ele>
        <time>2016-11-12T11:13:22Z</time>
      </trkpt>
      <trkpt lat="46.01515" lon="4.60987">
        <ele>511</ele>
        <time>2016-11-12T11:13:23Z</time>
      </trkpt>
      <trkpt lat="46.01506" lon="4.60986">
        <ele>511</ele>
        <time>2016-11-12T11:13:26Z</time>
      </trkpt>
      <trkpt lat="46.01502" lon="4.60985">
        <ele>511</ele>
        <time>2016-11-12T11:13:27Z</time>
      </trkpt>
      <trkpt lat="46.01498" lon="4.60982">
        <ele>506</ele>
        <time>2016-11-12T11:13:28Z</time>
      </trkpt>
      <trkpt lat="46.01493" lon="4.60978">
        <ele>506</ele>
        <time>2016-11-12T11:13:29Z</time>
      </trkpt>
      <trkpt lat="46.01488" lon="4.60976">
        <ele>506</ele>
        <time>2016-11-12T11:13:30Z</time>
      </trkpt>
      <trkpt lat="46.01481" lon="4.60975">
        <ele>505</ele>
        <time>2016-11-12T11:13:31Z</time>
      </trkpt>
      <trkpt lat="46.01474" lon="4.60973">
        <ele>505</ele>
        <time>2016-11-12T11:13:32Z</time>
      </trkpt>
      <trkpt lat="46.01467" lon="4.60972">
        <ele>504</ele>
        <time>2016-11-12T11:13:33Z</time>
      </trkpt>
      <trkpt lat="46.01459" lon="4.6097">
        <ele>503</ele>
        <time>2016-11-12T11:13:34Z</time>
      </trkpt>
      <trkpt lat="46.01451" lon="4.60968">
        <ele>503</ele>
        <time>2016-11-12T11:13:35Z</time>
      </trkpt>
      <trkpt lat="46.01442" lon="4.60966">
        <ele>502</ele>
        <time>2016-11-12T11:13:36Z</time>
      </trkpt>
      <trkpt lat="46.01433" lon="4.60964">
        <ele>501</ele>
        <time>2016-11-12T11:13:37Z</time>
      </trkpt>
      <trkpt lat="46.01424" lon="4.60962">
        <ele>501</ele>
        <time>2016-11-12T11:13:38Z</time>
      </trkpt>
      <trkpt lat="46.01414" lon="4.60959">
        <ele>494</ele>
        <time>2016-11-12T11:13:39Z</time>
      </trkpt>
      <trkpt lat="46.01405" lon="4.60957">
        <ele>494</ele>
        <time>2016-11-12T11:13:40Z</time>
      </trkpt>
      <trkpt lat="46.01396" lon="4.60955">
        <ele>493</ele>
        <time>2016-11-12T11:13:41Z</time>
      </trkpt>
      <trkpt lat="46.01387" lon="4.60951">
        <ele>493</ele>
        <time>2016-11-12T11:13:42Z</time>
      </trkpt>
      <trkpt lat="46.01378" lon="4.60949">
        <ele>492</ele>
        <time>2016-11-12T11:13:43Z</time>
      </trkpt>
      <trkpt lat="46.01369" lon="4.60948">
        <ele>492</ele>
        <time>2016-11-12T11:13:44Z</time>
      </trkpt>
      <trkpt lat="46.01361" lon="4.60947">
        <ele>491</ele>
        <time>2016-11-12T11:13:45Z</time>
      </trkpt>
      <trkpt lat="46.01352" lon="4.60947">
        <ele>491</ele>
        <time>2016-11-12T11:13:46Z</time>
      </trkpt>
      <trkpt lat="46.01343" lon="4.60947">
        <ele>490</ele>
        <time>2016-11-12T11:13:47Z</time>
      </trkpt>
      <trkpt lat="46.01334" lon="4.60947">
        <ele>490</ele>
        <time>2016-11-12T11:13:48Z</time>
      </trkpt>
      <trkpt lat="46.01316" lon="4.60948">
        <ele>485</ele>
        <time>2016-11-12T11:13:50Z</time>
      </trkpt>
      <trkpt lat="46.01305" lon="4.60948">
        <ele>484</ele>
        <time>2016-11-12T11:13:51Z</time>
      </trkpt>
      <trkpt lat="46.01296" lon="4.60948">
        <ele>484</ele>
        <time>2016-11-12T11:13:52Z</time>
      </trkpt>
      <trkpt lat="46.01275" lon="4.60945">
        <ele>483</ele>
        <time>2016-11-12T11:13:54Z</time>
      </trkpt>
      <trkpt lat="46.01246" lon="4.60927">
        <ele>477</ele>
        <time>2016-11-12T11:13:57Z</time>
      </trkpt>
      <trkpt lat="46.01236" lon="4.6092">
        <ele>477</ele>
        <time>2016-11-12T11:13:58Z</time>
      </trkpt>
      <trkpt lat="46.01226" lon="4.60913">
        <ele>474</ele>
        <time>2016-11-12T11:13:59Z</time>
      </trkpt>
      <trkpt lat="46.01217" lon="4.60907">
        <ele>473</ele>
        <time>2016-11-12T11:14:00Z</time>
      </trkpt>
      <trkpt lat="46.01207" lon="4.609">
        <ele>473</ele>
        <time>2016-11-12T11:14:01Z</time>
      </trkpt>
      <trkpt lat="46.01198" lon="4.60894">
        <ele>472</ele>
        <time>2016-11-12T11:14:02Z</time>
      </trkpt>
      <trkpt lat="46.01189" lon="4.60887">
        <ele>472</ele>
        <time>2016-11-12T11:14:03Z</time>
      </trkpt>
      <trkpt lat="46.0118" lon="4.6088">
        <ele>471</ele>
        <time>2016-11-12T11:14:04Z</time>
      </trkpt>
      <trkpt lat="46.01173" lon="4.60873">
        <ele>471</ele>
        <time>2016-11-12T11:14:05Z</time>
      </trkpt>
      <trkpt lat="46.01165" lon="4.60865">
        <ele>468</ele>
        <time>2016-11-12T11:14:06Z</time>
      </trkpt>
      <trkpt lat="46.01158" lon="4.60857">
        <ele>467</ele>
        <time>2016-11-12T11:14:07Z</time>
      </trkpt>
      <trkpt lat="46.01151" lon="4.60848">
        <ele>467</ele>
        <time>2016-11-12T11:14:08Z</time>
      </trkpt>
      <trkpt lat="46.01144" lon="4.60839">
        <ele>467</ele>
        <time>2016-11-12T11:14:09Z</time>
      </trkpt>
      <trkpt lat="46.01138" lon="4.6083">
        <ele>464</ele>
        <time>2016-11-12T11:14:10Z</time>
      </trkpt>
      <trkpt lat="46.01132" lon="4.60821">
        <ele>464</ele>
        <time>2016-11-12T11:14:11Z</time>
      </trkpt>
      <trkpt lat="46.01126" lon="4.60811">
        <ele>464</ele>
        <time>2016-11-12T11:14:12Z</time>
      </trkpt>
      <trkpt lat="46.01121" lon="4.60802">
        <ele>463</ele>
        <time>2016-11-12T11:14:13Z</time>
      </trkpt>
      <trkpt lat="46.01115" lon="4.60793">
        <ele>463</ele>
        <time>2016-11-12T11:14:14Z</time>
      </trkpt>
      <trkpt lat="46.01109" lon="4.60784">
        <ele>463</ele>
        <time>2016-11-12T11:14:15Z</time>
      </trkpt>
      <trkpt lat="46.01104" lon="4.60775">
        <ele>463</ele>
        <time>2016-11-12T11:14:16Z</time>
      </trkpt>
      <trkpt lat="46.01099" lon="4.60765">
        <ele>463</ele>
        <time>2016-11-12T11:14:17Z</time>
      </trkpt>
      <trkpt lat="46.01096" lon="4.60754">
        <ele>462</ele>
        <time>2016-11-12T11:14:18Z</time>
      </trkpt>
      <trkpt lat="46.01092" lon="4.60744">
        <ele>461</ele>
        <time>2016-11-12T11:14:19Z</time>
      </trkpt>
      <trkpt lat="46.0109" lon="4.60733">
        <ele>460</ele>
        <time>2016-11-12T11:14:20Z</time>
      </trkpt>
      <trkpt lat="46.01088" lon="4.60721">
        <ele>460</ele>
        <time>2016-11-12T11:14:21Z</time>
      </trkpt>
      <trkpt lat="46.01087" lon="4.6071">
        <ele>459</ele>
        <time>2016-11-12T11:14:22Z</time>
      </trkpt>
      <trkpt lat="46.01086" lon="4.60699">
        <ele>459</ele>
        <time>2016-11-12T11:14:23Z</time>
      </trkpt>
      <trkpt lat="46.01086" lon="4.60688">
        <ele>459</ele>
        <time>2016-11-12T11:14:24Z</time>
      </trkpt>
      <trkpt lat="46.01086" lon="4.6068">
        <ele>458</ele>
        <time>2016-11-12T11:14:25Z</time>
      </trkpt>
      <trkpt lat="46.01088" lon="4.6067">
        <ele>458</ele>
        <time>2016-11-12T11:14:26Z</time>
      </trkpt>
      <trkpt lat="46.01091" lon="4.60663">
        <ele>457</ele>
        <time>2016-11-12T11:14:27Z</time>
      </trkpt>
      <trkpt lat="46.01096" lon="4.60656">
        <ele>456</ele>
        <time>2016-11-12T11:14:28Z</time>
      </trkpt>
      <trkpt lat="46.01102" lon="4.6065">
        <ele>455</ele>
        <time>2016-11-12T11:14:29Z</time>
      </trkpt>
      <trkpt lat="46.0111" lon="4.60647">
        <ele>454</ele>
        <time>2016-11-12T11:14:30Z</time>
      </trkpt>
      <trkpt lat="46.01118" lon="4.60644">
        <ele>454</ele>
        <time>2016-11-12T11:14:31Z</time>
      </trkpt>
      <trkpt lat="46.01126" lon="4.60643">
        <ele>454</ele>
        <time>2016-11-12T11:14:32Z</time>
      </trkpt>
      <trkpt lat="46.01134" lon="4.60643">
        <ele>454</ele>
        <time>2016-11-12T11:14:33Z</time>
      </trkpt>
      <trkpt lat="46.01142" lon="4.60643">
        <ele>453</ele>
        <time>2016-11-12T11:14:34Z</time>
      </trkpt>
      <trkpt lat="46.01151" lon="4.60641">
        <ele>453</ele>
        <time>2016-11-12T11:14:35Z</time>
      </trkpt>
      <trkpt lat="46.01159" lon="4.60636">
        <ele>453</ele>
        <time>2016-11-12T11:14:36Z</time>
      </trkpt>
      <trkpt lat="46.01167" lon="4.60632">
        <ele>455</ele>
        <time>2016-11-12T11:14:37Z</time>
      </trkpt>
      <trkpt lat="46.01175" lon="4.60626">
        <ele>455</ele>
        <time>2016-11-12T11:14:38Z</time>
      </trkpt>
      <trkpt lat="46.01181" lon="4.60622">
        <ele>455</ele>
        <time>2016-11-12T11:14:39Z</time>
      </trkpt>
      <trkpt lat="46.01188" lon="4.60617">
        <ele>455</ele>
        <time>2016-11-12T11:14:40Z</time>
      </trkpt>
      <trkpt lat="46.01193" lon="4.60611">
        <ele>455</ele>
        <time>2016-11-12T11:14:41Z</time>
      </trkpt>
      <trkpt lat="46.01197" lon="4.60604">
        <ele>455</ele>
        <time>2016-11-12T11:14:42Z</time>
      </trkpt>
      <trkpt lat="46.012" lon="4.60597">
        <ele>455</ele>
        <time>2016-11-12T11:14:43Z</time>
      </trkpt>
      <trkpt lat="46.01202" lon="4.60589">
        <ele>455</ele>
        <time>2016-11-12T11:14:44Z</time>
      </trkpt>
      <trkpt lat="46.01205" lon="4.60582">
        <ele>452</ele>
        <time>2016-11-12T11:14:45Z</time>
      </trkpt>
      <trkpt lat="46.01208" lon="4.60574">
        <ele>453</ele>
        <time>2016-11-12T11:14:46Z</time>
      </trkpt>
      <trkpt lat="46.01211" lon="4.60567">
        <ele>453</ele>
        <time>2016-11-12T11:14:47Z</time>
      </trkpt>
      <trkpt lat="46.01214" lon="4.6056">
        <ele>453</ele>
        <time>2016-11-12T11:14:48Z</time>
      </trkpt>
      <trkpt lat="46.01216" lon="4.60554">
        <ele>453</ele>
        <time>2016-11-12T11:14:49Z</time>
      </trkpt>
      <trkpt lat="46.01218" lon="4.60548">
        <ele>453</ele>
        <time>2016-11-12T11:14:50Z</time>
      </trkpt>
      <trkpt lat="46.01221" lon="4.60535">
        <ele>453</ele>
        <time>2016-11-12T11:14:52Z</time>
      </trkpt>
      <trkpt lat="46.01223" lon="4.60523">
        <ele>454</ele>
        <time>2016-11-12T11:14:54Z</time>
      </trkpt>
      <trkpt lat="46.01225" lon="4.60517">
        <ele>454</ele>
        <time>2016-11-12T11:14:55Z</time>
      </trkpt>
      <trkpt lat="46.01226" lon="4.6051">
        <ele>454</ele>
        <time>2016-11-12T11:14:56Z</time>
      </trkpt>
      <trkpt lat="46.01226" lon="4.60502">
        <ele>454</ele>
        <time>2016-11-12T11:14:57Z</time>
      </trkpt>
      <trkpt lat="46.01221" lon="4.60495">
        <ele>455</ele>
        <time>2016-11-12T11:14:58Z</time>
      </trkpt>
      <trkpt lat="46.01218" lon="4.60488">
        <ele>455</ele>
        <time>2016-11-12T11:14:59Z</time>
      </trkpt>
      <trkpt lat="46.01215" lon="4.60481">
        <ele>454</ele>
        <time>2016-11-12T11:15:00Z</time>
      </trkpt>
      <trkpt lat="46.01211" lon="4.60474">
        <ele>454</ele>
        <time>2016-11-12T11:15:01Z</time>
      </trkpt>
      <trkpt lat="46.01205" lon="4.60468">
        <ele>454</ele>
        <time>2016-11-12T11:15:02Z</time>
      </trkpt>
      <trkpt lat="46.012" lon="4.60461">
        <ele>453</ele>
        <time>2016-11-12T11:15:03Z</time>
      </trkpt>
      <trkpt lat="46.01195" lon="4.60454">
        <ele>453</ele>
        <time>2016-11-12T11:15:04Z</time>
      </trkpt>
      <trkpt lat="46.0119" lon="4.60446">
        <ele>452</ele>
        <time>2016-11-12T11:15:05Z</time>
      </trkpt>
      <trkpt lat="46.01185" lon="4.60437">
        <ele>451</ele>
        <time>2016-11-12T11:15:06Z</time>
      </trkpt>
      <trkpt lat="46.0118" lon="4.60427">
        <ele>450</ele>
        <time>2016-11-12T11:15:07Z</time>
      </trkpt>
      <trkpt lat="46.01176" lon="4.60417">
        <ele>448</ele>
        <time>2016-11-12T11:15:08Z</time>
      </trkpt>
      <trkpt lat="46.01171" lon="4.60407">
        <ele>451</ele>
        <time>2016-11-12T11:15:09Z</time>
      </trkpt>
      <trkpt lat="46.01167" lon="4.60395">
        <ele>455</ele>
        <time>2016-11-12T11:15:10Z</time>
      </trkpt>
      <trkpt lat="46.01162" lon="4.60384">
        <ele>442</ele>
        <time>2016-11-12T11:15:11Z</time>
      </trkpt>
      <trkpt lat="46.01157" lon="4.60372">
        <ele>442</ele>
        <time>2016-11-12T11:15:12Z</time>
      </trkpt>
      <trkpt lat="46.01152" lon="4.60361">
        <ele>442</ele>
        <time>2016-11-12T11:15:13Z</time>
      </trkpt>
      <trkpt lat="46.01148" lon="4.6035">
        <ele>443</ele>
        <time>2016-11-12T11:15:14Z</time>
      </trkpt>
      <trkpt lat="46.01144" lon="4.60339">
        <ele>442</ele>
        <time>2016-11-12T11:15:15Z</time>
      </trkpt>
      <trkpt lat="46.0114" lon="4.60328">
        <ele>443</ele>
        <time>2016-11-12T11:15:16Z</time>
      </trkpt>
      <trkpt lat="46.01136" lon="4.60317">
        <ele>442</ele>
        <time>2016-11-12T11:15:17Z</time>
      </trkpt>
      <trkpt lat="46.01132" lon="4.60307">
        <ele>441</ele>
        <time>2016-11-12T11:15:18Z</time>
      </trkpt>
      <trkpt lat="46.01128" lon="4.60297">
        <ele>440</ele>
        <time>2016-11-12T11:15:19Z</time>
      </trkpt>
      <trkpt lat="46.01124" lon="4.60287">
        <ele>440</ele>
        <time>2016-11-12T11:15:20Z</time>
      </trkpt>
      <trkpt lat="46.01119" lon="4.60277">
        <ele>439</ele>
        <time>2016-11-12T11:15:21Z</time>
      </trkpt>
      <trkpt lat="46.01114" lon="4.60269">
        <ele>438</ele>
        <time>2016-11-12T11:15:22Z</time>
      </trkpt>
      <trkpt lat="46.01108" lon="4.6026">
        <ele>436</ele>
        <time>2016-11-12T11:15:23Z</time>
      </trkpt>
      <trkpt lat="46.01103" lon="4.60252">
        <ele>434</ele>
        <time>2016-11-12T11:15:24Z</time>
      </trkpt>
      <trkpt lat="46.01099" lon="4.60242">
        <ele>437</ele>
        <time>2016-11-12T11:15:25Z</time>
      </trkpt>
      <trkpt lat="46.01095" lon="4.60231">
        <ele>439</ele>
        <time>2016-11-12T11:15:26Z</time>
      </trkpt>
      <trkpt lat="46.01091" lon="4.6022">
        <ele>440</ele>
        <time>2016-11-12T11:15:27Z</time>
      </trkpt>
      <trkpt lat="46.01087" lon="4.60209">
        <ele>441</ele>
        <time>2016-11-12T11:15:28Z</time>
      </trkpt>
      <trkpt lat="46.01083" lon="4.60197">
        <ele>424</ele>
        <time>2016-11-12T11:15:29Z</time>
      </trkpt>
      <trkpt lat="46.01079" lon="4.60186">
        <ele>425</ele>
        <time>2016-11-12T11:15:30Z</time>
      </trkpt>
      <trkpt lat="46.01074" lon="4.60175">
        <ele>427</ele>
        <time>2016-11-12T11:15:31Z</time>
      </trkpt>
      <trkpt lat="46.01069" lon="4.60164">
        <ele>430</ele>
        <time>2016-11-12T11:15:32Z</time>
      </trkpt>
      <trkpt lat="46.01064" lon="4.60154">
        <ele>429</ele>
        <time>2016-11-12T11:15:33Z</time>
      </trkpt>
      <trkpt lat="46.01058" lon="4.60144">
        <ele>429</ele>
        <time>2016-11-12T11:15:34Z</time>
      </trkpt>
      <trkpt lat="46.01052" lon="4.60136">
        <ele>428</ele>
        <time>2016-11-12T11:15:35Z</time>
      </trkpt>
      <trkpt lat="46.01045" lon="4.60129">
        <ele>428</ele>
        <time>2016-11-12T11:15:36Z</time>
      </trkpt>
      <trkpt lat="46.01037" lon="4.60122">
        <ele>427</ele>
        <time>2016-11-12T11:15:37Z</time>
      </trkpt>
      <trkpt lat="46.01028" lon="4.60116">
        <ele>426</ele>
        <time>2016-11-12T11:15:38Z</time>
      </trkpt>
      <trkpt lat="46.01022" lon="4.60109">
        <ele>426</ele>
        <time>2016-11-12T11:15:39Z</time>
      </trkpt>
      <trkpt lat="46.01015" lon="4.60101">
        <ele>425</ele>
        <time>2016-11-12T11:15:40Z</time>
      </trkpt>
      <trkpt lat="46.01008" lon="4.60094">
        <ele>424</ele>
        <time>2016-11-12T11:15:41Z</time>
      </trkpt>
      <trkpt lat="46.01001" lon="4.60086">
        <ele>422</ele>
        <time>2016-11-12T11:15:42Z</time>
      </trkpt>
      <trkpt lat="46.00995" lon="4.6008">
        <ele>419</ele>
        <time>2016-11-12T11:15:43Z</time>
      </trkpt>
      <trkpt lat="46.00988" lon="4.60073">
        <ele>417</ele>
        <time>2016-11-12T11:15:44Z</time>
      </trkpt>
      <trkpt lat="46.00981" lon="4.60066">
        <ele>415</ele>
        <time>2016-11-12T11:15:45Z</time>
      </trkpt>
      <trkpt lat="46.00974" lon="4.60059">
        <ele>414</ele>
        <time>2016-11-12T11:15:46Z</time>
      </trkpt>
      <trkpt lat="46.00967" lon="4.60051">
        <ele>413</ele>
        <time>2016-11-12T11:15:47Z</time>
      </trkpt>
      <trkpt lat="46.00961" lon="4.60043">
        <ele>413</ele>
        <time>2016-11-12T11:15:48Z</time>
      </trkpt>
      <trkpt lat="46.00955" lon="4.60034">
        <ele>412</ele>
        <time>2016-11-12T11:15:49Z</time>
      </trkpt>
      <trkpt lat="46.00949" lon="4.60024">
        <ele>412</ele>
        <time>2016-11-12T11:15:50Z</time>
      </trkpt>
      <trkpt lat="46.00944" lon="4.60015">
        <ele>411</ele>
        <time>2016-11-12T11:15:51Z</time>
      </trkpt>
      <trkpt lat="46.00938" lon="4.60006">
        <ele>409</ele>
        <time>2016-11-12T11:15:52Z</time>
      </trkpt>
      <trkpt lat="46.00935" lon="4.59994">
        <ele>414</ele>
        <time>2016-11-12T11:15:53Z</time>
      </trkpt>
      <trkpt lat="46.0093" lon="4.59984">
        <ele>414</ele>
        <time>2016-11-12T11:15:54Z</time>
      </trkpt>
      <trkpt lat="46.00926" lon="4.59975">
        <ele>416</ele>
        <time>2016-11-12T11:15:55Z</time>
      </trkpt>
      <trkpt lat="46.0092" lon="4.59967">
        <ele>417</ele>
        <time>2016-11-12T11:15:56Z</time>
      </trkpt>
      <trkpt lat="46.00915" lon="4.59959">
        <ele>401</ele>
        <time>2016-11-12T11:15:57Z</time>
      </trkpt>
      <trkpt lat="46.00908" lon="4.59952">
        <ele>401</ele>
        <time>2016-11-12T11:15:58Z</time>
      </trkpt>
      <trkpt lat="46.00901" lon="4.59945">
        <ele>402</ele>
        <time>2016-11-12T11:15:59Z</time>
      </trkpt>
      <trkpt lat="46.00893" lon="4.59938">
        <ele>401</ele>
        <time>2016-11-12T11:16:00Z</time>
      </trkpt>
      <trkpt lat="46.00885" lon="4.59932">
        <ele>401</ele>
        <time>2016-11-12T11:16:01Z</time>
      </trkpt>
      <trkpt lat="46.00877" lon="4.59926">
        <ele>399</ele>
        <time>2016-11-12T11:16:02Z</time>
      </trkpt>
      <trkpt lat="46.00869" lon="4.5992">
        <ele>398</ele>
        <time>2016-11-12T11:16:03Z</time>
      </trkpt>
      <trkpt lat="46.00861" lon="4.59916">
        <ele>402</ele>
        <time>2016-11-12T11:16:04Z</time>
      </trkpt>
      <trkpt lat="46.00852" lon="4.59912">
        <ele>400</ele>
        <time>2016-11-12T11:16:05Z</time>
      </trkpt>
      <trkpt lat="46.00843" lon="4.59909">
        <ele>398</ele>
        <time>2016-11-12T11:16:06Z</time>
      </trkpt>
      <trkpt lat="46.00833" lon="4.59908">
        <ele>391</ele>
        <time>2016-11-12T11:16:07Z</time>
      </trkpt>
      <trkpt lat="46.00824" lon="4.59907">
        <ele>390</ele>
        <time>2016-11-12T11:16:08Z</time>
      </trkpt>
      <trkpt lat="46.00815" lon="4.59906">
        <ele>389</ele>
        <time>2016-11-12T11:16:09Z</time>
      </trkpt>
      <trkpt lat="46.00806" lon="4.59906">
        <ele>388</ele>
        <time>2016-11-12T11:16:10Z</time>
      </trkpt>
      <trkpt lat="46.00797" lon="4.59906">
        <ele>387</ele>
        <time>2016-11-12T11:16:11Z</time>
      </trkpt>
      <trkpt lat="46.00788" lon="4.59909">
        <ele>386</ele>
        <time>2016-11-12T11:16:12Z</time>
      </trkpt>
      <trkpt lat="46.0078" lon="4.59913">
        <ele>385</ele>
        <time>2016-11-12T11:16:13Z</time>
      </trkpt>
      <trkpt lat="46.00772" lon="4.59916">
        <ele>384</ele>
        <time>2016-11-12T11:16:14Z</time>
      </trkpt>
      <trkpt lat="46.00766" lon="4.59919">
        <ele>379</ele>
        <time>2016-11-12T11:16:15Z</time>
      </trkpt>
      <trkpt lat="46.00759" lon="4.59922">
        <ele>379</ele>
        <time>2016-11-12T11:16:16Z</time>
      </trkpt>
      <trkpt lat="46.00753" lon="4.59924">
        <ele>379</ele>
        <time>2016-11-12T11:16:17Z</time>
      </trkpt>
      <trkpt lat="46.00748" lon="4.59925">
        <ele>375</ele>
        <time>2016-11-12T11:16:18Z</time>
      </trkpt>
      <trkpt lat="46.00742" lon="4.59926">
        <ele>374</ele>
        <time>2016-11-12T11:16:19Z</time>
      </trkpt>
      <trkpt lat="46.00737" lon="4.59925">
        <ele>372</ele>
        <time>2016-11-12T11:16:20Z</time>
      </trkpt>
      <trkpt lat="46.00732" lon="4.59923">
        <ele>371</ele>
        <time>2016-11-12T11:16:21Z</time>
      </trkpt>
      <trkpt lat="46.00728" lon="4.59919">
        <ele>370</ele>
        <time>2016-11-12T11:16:22Z</time>
      </trkpt>
      <trkpt lat="46.00727" lon="4.59912">
        <ele>372</ele>
        <time>2016-11-12T11:16:23Z</time>
      </trkpt>
      <trkpt lat="46.00727" lon="4.59905">
        <ele>372</ele>
        <time>2016-11-12T11:16:24Z</time>
      </trkpt>
      <trkpt lat="46.00728" lon="4.59896">
        <ele>371</ele>
        <time>2016-11-12T11:16:25Z</time>
      </trkpt>
      <trkpt lat="46.00731" lon="4.59888">
        <ele>371</ele>
        <time>2016-11-12T11:16:26Z</time>
      </trkpt>
      <trkpt lat="46.00735" lon="4.59879">
        <ele>370</ele>
        <time>2016-11-12T11:16:27Z</time>
      </trkpt>
      <trkpt lat="46.00739" lon="4.59871">
        <ele>370</ele>
        <time>2016-11-12T11:16:28Z</time>
      </trkpt>
      <trkpt lat="46.00744" lon="4.59862">
        <ele>371</ele>
        <time>2016-11-12T11:16:29Z</time>
      </trkpt>
      <trkpt lat="46.00749" lon="4.59853">
        <ele>371</ele>
        <time>2016-11-12T11:16:30Z</time>
      </trkpt>
      <trkpt lat="46.00754" lon="4.59843">
        <ele>378</ele>
        <time>2016-11-12T11:16:31Z</time>
      </trkpt>
      <trkpt lat="46.0076" lon="4.59834">
        <ele>378</ele>
        <time>2016-11-12T11:16:32Z</time>
      </trkpt>
      <trkpt lat="46.00765" lon="4.59824">
        <ele>377</ele>
        <time>2016-11-12T11:16:33Z</time>
      </trkpt>
      <trkpt lat="46.00772" lon="4.59814">
        <ele>378</ele>
        <time>2016-11-12T11:16:34Z</time>
      </trkpt>
      <trkpt lat="46.00778" lon="4.59804">
        <ele>379</ele>
        <time>2016-11-12T11:16:35Z</time>
      </trkpt>
      <trkpt lat="46.00785" lon="4.59794">
        <ele>379</ele>
        <time>2016-11-12T11:16:36Z</time>
      </trkpt>
      <trkpt lat="46.00792" lon="4.59786">
        <ele>379</ele>
        <time>2016-11-12T11:16:37Z</time>
      </trkpt>
      <trkpt lat="46.008" lon="4.59777">
        <ele>379</ele>
        <time>2016-11-12T11:16:38Z</time>
      </trkpt>
      <trkpt lat="46.00807" lon="4.5977">
        <ele>379</ele>
        <time>2016-11-12T11:16:39Z</time>
      </trkpt>
      <trkpt lat="46.00814" lon="4.59763">
        <ele>379</ele>
        <time>2016-11-12T11:16:40Z</time>
      </trkpt>
      <trkpt lat="46.0082" lon="4.59757">
        <ele>379</ele>
        <time>2016-11-12T11:16:41Z</time>
      </trkpt>
      <trkpt lat="46.00825" lon="4.59751">
        <ele>379</ele>
        <time>2016-11-12T11:16:42Z</time>
      </trkpt>
      <trkpt lat="46.00829" lon="4.59745">
        <ele>379</ele>
        <time>2016-11-12T11:16:43Z</time>
      </trkpt>
      <trkpt lat="46.00831" lon="4.59738">
        <ele>379</ele>
        <time>2016-11-12T11:16:44Z</time>
      </trkpt>
      <trkpt lat="46.00832" lon="4.59731">
        <ele>379</ele>
        <time>2016-11-12T11:16:45Z</time>
      </trkpt>
      <trkpt lat="46.00831" lon="4.59723">
        <ele>379</ele>
        <time>2016-11-12T11:16:46Z</time>
      </trkpt>
      <trkpt lat="46.00829" lon="4.59717">
        <ele>380</ele>
        <time>2016-11-12T11:16:47Z</time>
      </trkpt>
      <trkpt lat="46.00825" lon="4.59713">
        <ele>380</ele>
        <time>2016-11-12T11:16:48Z</time>
      </trkpt>
      <trkpt lat="46.00817" lon="4.59712">
        <ele>380</ele>
        <time>2016-11-12T11:16:49Z</time>
      </trkpt>
      <trkpt lat="46.0081" lon="4.59712">
        <ele>380</ele>
        <time>2016-11-12T11:16:50Z</time>
      </trkpt>
      <trkpt lat="46.00803" lon="4.59713">
        <ele>379</ele>
        <time>2016-11-12T11:16:51Z</time>
      </trkpt>
      <trkpt lat="46.00796" lon="4.59715">
        <ele>379</ele>
        <time>2016-11-12T11:16:52Z</time>
      </trkpt>
      <trkpt lat="46.00788" lon="4.59715">
        <ele>379</ele>
        <time>2016-11-12T11:16:53Z</time>
      </trkpt>
      <trkpt lat="46.0078" lon="4.59715">
        <ele>379</ele>
        <time>2016-11-12T11:16:54Z</time>
      </trkpt>
      <trkpt lat="46.00772" lon="4.59715">
        <ele>379</ele>
        <time>2016-11-12T11:16:55Z</time>
      </trkpt>
      <trkpt lat="46.00764" lon="4.59717">
        <ele>378</ele>
        <time>2016-11-12T11:16:56Z</time>
      </trkpt>
      <trkpt lat="46.00757" lon="4.59722">
        <ele>377</ele>
        <time>2016-11-12T11:16:57Z</time>
      </trkpt>
      <trkpt lat="46.0075" lon="4.59726">
        <ele>376</ele>
        <time>2016-11-12T11:16:58Z</time>
      </trkpt>
      <trkpt lat="46.00744" lon="4.59731">
        <ele>372</ele>
        <time>2016-11-12T11:16:59Z</time>
      </trkpt>
      <trkpt lat="46.00737" lon="4.59737">
        <ele>371</ele>
        <time>2016-11-12T11:17:00Z</time>
      </trkpt>
      <trkpt lat="46.00731" lon="4.59743">
        <ele>371</ele>
        <time>2016-11-12T11:17:01Z</time>
      </trkpt>
      <trkpt lat="46.00724" lon="4.59749">
        <ele>371</ele>
        <time>2016-11-12T11:17:02Z</time>
      </trkpt>
      <trkpt lat="46.00716" lon="4.59755">
        <ele>366</ele>
        <time>2016-11-12T11:17:03Z</time>
      </trkpt>
      <trkpt lat="46.00709" lon="4.59761">
        <ele>365</ele>
        <time>2016-11-12T11:17:04Z</time>
      </trkpt>
      <trkpt lat="46.00702" lon="4.59766">
        <ele>365</ele>
        <time>2016-11-12T11:17:05Z</time>
      </trkpt>
      <trkpt lat="46.00694" lon="4.59773">
        <ele>364</ele>
        <time>2016-11-12T11:17:06Z</time>
      </trkpt>
      <trkpt lat="46.00687" lon="4.59779">
        <ele>364</ele>
        <time>2016-11-12T11:17:07Z</time>
      </trkpt>
      <trkpt lat="46.00679" lon="4.59784">
        <ele>363</ele>
        <time>2016-11-12T11:17:08Z</time>
      </trkpt>
      <trkpt lat="46.00673" lon="4.59789">
        <ele>363</ele>
        <time>2016-11-12T11:17:09Z</time>
      </trkpt>
      <trkpt lat="46.00666" lon="4.59794">
        <ele>354</ele>
        <time>2016-11-12T11:17:10Z</time>
      </trkpt>
      <trkpt lat="46.00659" lon="4.59799">
        <ele>354</ele>
        <time>2016-11-12T11:17:11Z</time>
      </trkpt>
      <trkpt lat="46.00653" lon="4.59802">
        <ele>353</ele>
        <time>2016-11-12T11:17:12Z</time>
      </trkpt>
      <trkpt lat="46.00647" lon="4.59806">
        <ele>353</ele>
        <time>2016-11-12T11:17:13Z</time>
      </trkpt>
      <trkpt lat="46.00642" lon="4.59808">
        <ele>353</ele>
        <time>2016-11-12T11:17:14Z</time>
      </trkpt>
      <trkpt lat="46.00633" lon="4.5981">
        <ele>352</ele>
        <time>2016-11-12T11:17:16Z</time>
      </trkpt>
      <trkpt lat="46.00628" lon="4.59809">
        <ele>352</ele>
        <time>2016-11-12T11:17:17Z</time>
      </trkpt>
      <trkpt lat="46.00621" lon="4.59807">
        <ele>351</ele>
        <time>2016-11-12T11:17:19Z</time>
      </trkpt>
      <trkpt lat="46.00619" lon="4.59807">
        <ele>351</ele>
        <time>2016-11-12T11:17:20Z</time>
      </trkpt>
      <trkpt lat="46.00615" lon="4.59816">
        <ele>350</ele>
        <time>2016-11-12T11:17:22Z</time>
      </trkpt>
      <trkpt lat="46.00615" lon="4.59821">
        <ele>350</ele>
        <time>2016-11-12T11:17:23Z</time>
      </trkpt>
      <trkpt lat="46.00614" lon="4.59827">
        <ele>349</ele>
        <time>2016-11-12T11:17:24Z</time>
      </trkpt>
      <trkpt lat="46.00614" lon="4.59834">
        <ele>348</ele>
        <time>2016-11-12T11:17:25Z</time>
      </trkpt>
      <trkpt lat="46.00613" lon="4.59841">
        <ele>348</ele>
        <time>2016-11-12T11:17:26Z</time>
      </trkpt>
      <trkpt lat="46.00613" lon="4.59848">
        <ele>348</ele>
        <time>2016-11-12T11:17:27Z</time>
      </trkpt>
      <trkpt lat="46.00612" lon="4.59856">
        <ele>348</ele>
        <time>2016-11-12T11:17:28Z</time>
      </trkpt>
      <trkpt lat="46.00609" lon="4.59863">
        <ele>348</ele>
        <time>2016-11-12T11:17:29Z</time>
      </trkpt>
      <trkpt lat="46.00606" lon="4.59869">
        <ele>348</ele>
        <time>2016-11-12T11:17:30Z</time>
      </trkpt>
      <trkpt lat="46.006" lon="4.59872">
        <ele>347</ele>
        <time>2016-11-12T11:17:31Z</time>
      </trkpt>
      <trkpt lat="46.00593" lon="4.59874">
        <ele>347</ele>
        <time>2016-11-12T11:17:32Z</time>
      </trkpt>
      <trkpt lat="46.00586" lon="4.59875">
        <ele>346</ele>
        <time>2016-11-12T11:17:33Z</time>
      </trkpt>
      <trkpt lat="46.00579" lon="4.59876">
        <ele>343</ele>
        <time>2016-11-12T11:17:34Z</time>
      </trkpt>
      <trkpt lat="46.00571" lon="4.59878">
        <ele>343</ele>
        <time>2016-11-12T11:17:35Z</time>
      </trkpt>
      <trkpt lat="46.00564" lon="4.5988">
        <ele>343</ele>
        <time>2016-11-12T11:17:36Z</time>
      </trkpt>
      <trkpt lat="46.00557" lon="4.59884">
        <ele>344</ele>
        <time>2016-11-12T11:17:37Z</time>
      </trkpt>
      <trkpt lat="46.00549" lon="4.59888">
        <ele>344</ele>
        <time>2016-11-12T11:17:38Z</time>
      </trkpt>
      <trkpt lat="46.00542" lon="4.59894">
        <ele>344</ele>
        <time>2016-11-12T11:17:39Z</time>
      </trkpt>
      <trkpt lat="46.00536" lon="4.59901">
        <ele>344</ele>
        <time>2016-11-12T11:17:40Z</time>
      </trkpt>
      <trkpt lat="46.00531" lon="4.5991">
        <ele>344</ele>
        <time>2016-11-12T11:17:41Z</time>
      </trkpt>
      <trkpt lat="46.00526" lon="4.59917">
        <ele>341</ele>
        <time>2016-11-12T11:17:42Z</time>
      </trkpt>
      <trkpt lat="46.00522" lon="4.59925">
        <ele>341</ele>
        <time>2016-11-12T11:17:43Z</time>
      </trkpt>
      <trkpt lat="46.00518" lon="4.59932">
        <ele>341</ele>
        <time>2016-11-12T11:17:44Z</time>
      </trkpt>
      <trkpt lat="46.00516" lon="4.59939">
        <ele>341</ele>
        <time>2016-11-12T11:17:45Z</time>
      </trkpt>
      <trkpt lat="46.00514" lon="4.59947">
        <ele>341</ele>
        <time>2016-11-12T11:17:46Z</time>
      </trkpt>
      <trkpt lat="46.00512" lon="4.59954">
        <ele>341</ele>
        <time>2016-11-12T11:17:47Z</time>
      </trkpt>
      <trkpt lat="46.00511" lon="4.59961">
        <ele>341</ele>
        <time>2016-11-12T11:17:48Z</time>
      </trkpt>
      <trkpt lat="46.0051" lon="4.59968">
        <ele>341</ele>
        <time>2016-11-12T11:17:49Z</time>
      </trkpt>
      <trkpt lat="46.00509" lon="4.59975">
        <ele>341</ele>
        <time>2016-11-12T11:17:50Z</time>
      </trkpt>
      <trkpt lat="46.00508" lon="4.59982">
        <ele>341</ele>
        <time>2016-11-12T11:17:51Z</time>
      </trkpt>
      <trkpt lat="46.00506" lon="4.59989">
        <ele>341</ele>
        <time>2016-11-12T11:17:52Z</time>
      </trkpt>
      <trkpt lat="46.00505" lon="4.59996">
        <ele>341</ele>
        <time>2016-11-12T11:17:53Z</time>
      </trkpt>
      <trkpt lat="46.00503" lon="4.60007">
        <ele>340</ele>
        <time>2016-11-12T11:17:55Z</time>
      </trkpt>
      <trkpt lat="46.00502" lon="4.60013">
        <ele>340</ele>
        <time>2016-11-12T11:17:56Z</time>
      </trkpt>
      <trkpt lat="46.00501" lon="4.6002">
        <ele>340</ele>
        <time>2016-11-12T11:17:57Z</time>
      </trkpt>
      <trkpt lat="46.00501" lon="4.60027">
        <ele>340</ele>
        <time>2016-11-12T11:17:58Z</time>
      </trkpt>
      <trkpt lat="46.00497" lon="4.60054">
        <ele>345</ele>
        <time>2016-11-12T11:18:02Z</time>
      </trkpt>
      <trkpt lat="46.00495" lon="4.60061">
        <ele>344</ele>
        <time>2016-11-12T11:18:03Z</time>
      </trkpt>
      <trkpt lat="46.00493" lon="4.60068">
        <ele>344</ele>
        <time>2016-11-12T11:18:04Z</time>
      </trkpt>
      <trkpt lat="46.00491" lon="4.60075">
        <ele>343</ele>
        <time>2016-11-12T11:18:05Z</time>
      </trkpt>
      <trkpt lat="46.00489" lon="4.60082">
        <ele>343</ele>
        <time>2016-11-12T11:18:06Z</time>
      </trkpt>
      <trkpt lat="46.00487" lon="4.60088">
        <ele>342</ele>
        <time>2016-11-12T11:18:07Z</time>
      </trkpt>
      <trkpt lat="46.00485" lon="4.60094">
        <ele>342</ele>
        <time>2016-11-12T11:18:08Z</time>
      </trkpt>
      <trkpt lat="46.00482" lon="4.601">
        <ele>343</ele>
        <time>2016-11-12T11:18:09Z</time>
      </trkpt>
      <trkpt lat="46.00478" lon="4.60107">
        <ele>343</ele>
        <time>2016-11-12T11:18:10Z</time>
      </trkpt>
      <trkpt lat="46.00475" lon="4.60122">
        <ele>343</ele>
        <time>2016-11-12T11:18:12Z</time>
      </trkpt>
      <trkpt lat="46.00472" lon="4.60131">
        <ele>343</ele>
        <time>2016-11-12T11:18:13Z</time>
      </trkpt>
      <trkpt lat="46.00469" lon="4.60138">
        <ele>343</ele>
        <time>2016-11-12T11:18:14Z</time>
      </trkpt>
      <trkpt lat="46.00467" lon="4.60144">
        <ele>343</ele>
        <time>2016-11-12T11:18:15Z</time>
      </trkpt>
      <trkpt lat="46.00465" lon="4.6015">
        <ele>343</ele>
        <time>2016-11-12T11:18:16Z</time>
      </trkpt>
      <trkpt lat="46.0046" lon="4.60161">
        <ele>344</ele>
        <time>2016-11-12T11:18:18Z</time>
      </trkpt>
      <trkpt lat="46.00458" lon="4.60166">
        <ele>344</ele>
        <time>2016-11-12T11:18:19Z</time>
      </trkpt>
      <trkpt lat="46.00456" lon="4.60172">
        <ele>341</ele>
        <time>2016-11-12T11:18:20Z</time>
      </trkpt>
      <trkpt lat="46.00454" lon="4.60178">
        <ele>341</ele>
        <time>2016-11-12T11:18:21Z</time>
      </trkpt>
      <trkpt lat="46.00451" lon="4.60184">
        <ele>341</ele>
        <time>2016-11-12T11:18:22Z</time>
      </trkpt>
      <trkpt lat="46.00449" lon="4.60189">
        <ele>341</ele>
        <time>2016-11-12T11:18:23Z</time>
      </trkpt>
      <trkpt lat="46.00446" lon="4.60195">
        <ele>341</ele>
        <time>2016-11-12T11:18:24Z</time>
      </trkpt>
      <trkpt lat="46.00444" lon="4.602">
        <ele>341</ele>
        <time>2016-11-12T11:18:25Z</time>
      </trkpt>
      <trkpt lat="46.00441" lon="4.60205">
        <ele>341</ele>
        <time>2016-11-12T11:18:26Z</time>
      </trkpt>
      <trkpt lat="46.00436" lon="4.60216">
        <ele>341</ele>
        <time>2016-11-12T11:18:28Z</time>
      </trkpt>
      <trkpt lat="46.0043" lon="4.60225">
        <ele>341</ele>
        <time>2016-11-12T11:18:30Z</time>
      </trkpt>
      <trkpt lat="46.00427" lon="4.60232">
        <ele>342</ele>
        <time>2016-11-12T11:18:31Z</time>
      </trkpt>
      <trkpt lat="46.00425" lon="4.60239">
        <ele>342</ele>
        <time>2016-11-12T11:18:32Z</time>
      </trkpt>
      <trkpt lat="46.00409" lon="4.60262">
        <ele>344</ele>
        <time>2016-11-12T11:18:36Z</time>
      </trkpt>
      <trkpt lat="46.00404" lon="4.60272">
        <ele>345</ele>
        <time>2016-11-12T11:18:39Z</time>
      </trkpt>
      <trkpt lat="46.00403" lon="4.60277">
        <ele>345</ele>
        <time>2016-11-12T11:18:40Z</time>
      </trkpt>
      <trkpt lat="46.00401" lon="4.60288">
        <ele>345</ele>
        <time>2016-11-12T11:18:42Z</time>
      </trkpt>
      <trkpt lat="46.004" lon="4.60292">
        <ele>345</ele>
        <time>2016-11-12T11:18:43Z</time>
      </trkpt>
      <trkpt lat="46.00399" lon="4.60299">
        <ele>345</ele>
        <time>2016-11-12T11:18:44Z</time>
      </trkpt>
      <trkpt lat="46.00398" lon="4.60305">
        <ele>345</ele>
        <time>2016-11-12T11:18:45Z</time>
      </trkpt>
      <trkpt lat="46.00395" lon="4.60318">
        <ele>344</ele>
        <time>2016-11-12T11:18:47Z</time>
      </trkpt>
      <trkpt lat="46.00393" lon="4.60324">
        <ele>344</ele>
        <time>2016-11-12T11:18:48Z</time>
      </trkpt>
      <trkpt lat="46.0039" lon="4.6033">
        <ele>344</ele>
        <time>2016-11-12T11:18:49Z</time>
      </trkpt>
      <trkpt lat="46.00387" lon="4.60335">
        <ele>343</ele>
        <time>2016-11-12T11:18:50Z</time>
      </trkpt>
      <trkpt lat="46.00385" lon="4.60341">
        <ele>343</ele>
        <time>2016-11-12T11:18:51Z</time>
      </trkpt>
      <trkpt lat="46.00382" lon="4.60347">
        <ele>343</ele>
        <time>2016-11-12T11:18:52Z</time>
      </trkpt>
      <trkpt lat="46.00379" lon="4.60352">
        <ele>343</ele>
        <time>2016-11-12T11:18:53Z</time>
      </trkpt>
      <trkpt lat="46.00377" lon="4.6036">
        <ele>343</ele>
        <time>2016-11-12T11:18:54Z</time>
      </trkpt>
      <trkpt lat="46.00374" lon="4.60365">
        <ele>343</ele>
        <time>2016-11-12T11:18:55Z</time>
      </trkpt>
      <trkpt lat="46.00371" lon="4.60371">
        <ele>343</ele>
        <time>2016-11-12T11:18:56Z</time>
      </trkpt>
      <trkpt lat="46.00367" lon="4.60381">
        <ele>343</ele>
        <time>2016-11-12T11:18:58Z</time>
      </trkpt>
      <trkpt lat="46.00364" lon="4.60386">
        <ele>343</ele>
        <time>2016-11-12T11:18:59Z</time>
      </trkpt>
      <trkpt lat="46.00361" lon="4.60392">
        <ele>343</ele>
        <time>2016-11-12T11:19:00Z</time>
      </trkpt>
      <trkpt lat="46.00359" lon="4.60397">
        <ele>343</ele>
        <time>2016-11-12T11:19:01Z</time>
      </trkpt>
      <trkpt lat="46.00355" lon="4.60402">
        <ele>344</ele>
        <time>2016-11-12T11:19:02Z</time>
      </trkpt>
      <trkpt lat="46.00352" lon="4.60406">
        <ele>344</ele>
        <time>2016-11-12T11:19:03Z</time>
      </trkpt>
      <trkpt lat="46.00347" lon="4.60416">
        <ele>345</ele>
        <time>2016-11-12T11:19:05Z</time>
      </trkpt>
      <trkpt lat="46.00344" lon="4.60421">
        <ele>343</ele>
        <time>2016-11-12T11:19:06Z</time>
      </trkpt>
      <trkpt lat="46.00341" lon="4.60425">
        <ele>343</ele>
        <time>2016-11-12T11:19:07Z</time>
      </trkpt>
      <trkpt lat="46.00339" lon="4.60432">
        <ele>342</ele>
        <time>2016-11-12T11:19:08Z</time>
      </trkpt>
      <trkpt lat="46.00336" lon="4.60441">
        <ele>341</ele>
        <time>2016-11-12T11:19:09Z</time>
      </trkpt>
      <trkpt lat="46.00334" lon="4.60446">
        <ele>340</ele>
        <time>2016-11-12T11:19:10Z</time>
      </trkpt>
      <trkpt lat="46.00329" lon="4.60457">
        <ele>346</ele>
        <time>2016-11-12T11:19:12Z</time>
      </trkpt>
      <trkpt lat="46.00327" lon="4.60462">
        <ele>346</ele>
        <time>2016-11-12T11:19:13Z</time>
      </trkpt>
      <trkpt lat="46.00323" lon="4.60471">
        <ele>346</ele>
        <time>2016-11-12T11:19:15Z</time>
      </trkpt>
      <trkpt lat="46.0032" lon="4.60476">
        <ele>345</ele>
        <time>2016-11-12T11:19:16Z</time>
      </trkpt>
      <trkpt lat="46.00318" lon="4.60481">
        <ele>345</ele>
        <time>2016-11-12T11:19:17Z</time>
      </trkpt>
      <trkpt lat="46.00314" lon="4.60491">
        <ele>345</ele>
        <time>2016-11-12T11:19:19Z</time>
      </trkpt>
      <trkpt lat="46.00311" lon="4.60497">
        <ele>345</ele>
        <time>2016-11-12T11:19:20Z</time>
      </trkpt>
      <trkpt lat="46.00309" lon="4.60503">
        <ele>343</ele>
        <time>2016-11-12T11:19:21Z</time>
      </trkpt>
      <trkpt lat="46.00305" lon="4.60514">
        <ele>343</ele>
        <time>2016-11-12T11:19:23Z</time>
      </trkpt>
      <trkpt lat="46.00303" lon="4.60519">
        <ele>343</ele>
        <time>2016-11-12T11:19:24Z</time>
      </trkpt>
      <trkpt lat="46.00299" lon="4.60529">
        <ele>344</ele>
        <time>2016-11-12T11:19:26Z</time>
      </trkpt>
      <trkpt lat="46.00297" lon="4.60534">
        <ele>344</ele>
        <time>2016-11-12T11:19:27Z</time>
      </trkpt>
      <trkpt lat="46.00293" lon="4.60543">
        <ele>344</ele>
        <time>2016-11-12T11:19:29Z</time>
      </trkpt>
      <trkpt lat="46.00291" lon="4.60548">
        <ele>344</ele>
        <time>2016-11-12T11:19:30Z</time>
      </trkpt>
      <trkpt lat="46.00285" lon="4.60555">
        <ele>344</ele>
        <time>2016-11-12T11:19:32Z</time>
      </trkpt>
      <trkpt lat="46.00283" lon="4.60559">
        <ele>344</ele>
        <time>2016-11-12T11:19:33Z</time>
      </trkpt>
      <trkpt lat="46.00278" lon="4.60568">
        <ele>345</ele>
        <time>2016-11-12T11:19:35Z</time>
      </trkpt>
      <trkpt lat="46.00275" lon="4.60571">
        <ele>345</ele>
        <time>2016-11-12T11:19:36Z</time>
      </trkpt>
      <trkpt lat="46.0027" lon="4.60578">
        <ele>346</ele>
        <time>2016-11-12T11:19:38Z</time>
      </trkpt>
      <trkpt lat="46.00268" lon="4.6058">
        <ele>346</ele>
        <time>2016-11-12T11:19:39Z</time>
      </trkpt>
      <trkpt lat="46.00262" lon="4.60585">
        <ele>345</ele>
        <time>2016-11-12T11:19:41Z</time>
      </trkpt>
      <trkpt lat="46.00259" lon="4.60587">
        <ele>345</ele>
        <time>2016-11-12T11:19:42Z</time>
      </trkpt>
      <trkpt lat="46.00253" lon="4.60591">
        <ele>345</ele>
        <time>2016-11-12T11:19:44Z</time>
      </trkpt>
      <trkpt lat="46.0025" lon="4.60594">
        <ele>345</ele>
        <time>2016-11-12T11:19:45Z</time>
      </trkpt>
      <trkpt lat="46.00244" lon="4.60598">
        <ele>348</ele>
        <time>2016-11-12T11:19:47Z</time>
      </trkpt>
      <trkpt lat="46.00241" lon="4.606">
        <ele>348</ele>
        <time>2016-11-12T11:19:48Z</time>
      </trkpt>
      <trkpt lat="46.00236" lon="4.60603">
        <ele>348</ele>
        <time>2016-11-12T11:19:50Z</time>
      </trkpt>
      <trkpt lat="46.00233" lon="4.60605">
        <ele>348</ele>
        <time>2016-11-12T11:19:51Z</time>
      </trkpt>
      <trkpt lat="46.00225" lon="4.60611">
        <ele>348</ele>
        <time>2016-11-12T11:19:54Z</time>
      </trkpt>
      <trkpt lat="46.00222" lon="4.60613">
        <ele>348</ele>
        <time>2016-11-12T11:19:55Z</time>
      </trkpt>
      <trkpt lat="46.00215" lon="4.60619">
        <ele>349</ele>
        <time>2016-11-12T11:19:58Z</time>
      </trkpt>
      <trkpt lat="46.00212" lon="4.60621">
        <ele>349</ele>
        <time>2016-11-12T11:19:59Z</time>
      </trkpt>
      <trkpt lat="46.00207" lon="4.60625">
        <ele>349</ele>
        <time>2016-11-12T11:20:01Z</time>
      </trkpt>
      <trkpt lat="46.00204" lon="4.60628">
        <ele>349</ele>
        <time>2016-11-12T11:20:02Z</time>
      </trkpt>
      <trkpt lat="46.00197" lon="4.60635">
        <ele>349</ele>
        <time>2016-11-12T11:20:04Z</time>
      </trkpt>
      <trkpt lat="46.00194" lon="4.6064">
        <ele>349</ele>
        <time>2016-11-12T11:20:05Z</time>
      </trkpt>
      <trkpt lat="46.00188" lon="4.60649">
        <ele>349</ele>
        <time>2016-11-12T11:20:07Z</time>
      </trkpt>
      <trkpt lat="46.00186" lon="4.60654">
        <ele>349</ele>
        <time>2016-11-12T11:20:08Z</time>
      </trkpt>
      <trkpt lat="46.00181" lon="4.60664">
        <ele>350</ele>
        <time>2016-11-12T11:20:10Z</time>
      </trkpt>
      <trkpt lat="46.00179" lon="4.60669">
        <ele>349</ele>
        <time>2016-11-12T11:20:11Z</time>
      </trkpt>
      <trkpt lat="46.00176" lon="4.6068">
        <ele>348</ele>
        <time>2016-11-12T11:20:13Z</time>
      </trkpt>
      <trkpt lat="46.00175" lon="4.60685">
        <ele>348</ele>
        <time>2016-11-12T11:20:14Z</time>
      </trkpt>
      <trkpt lat="46.00173" lon="4.60696">
        <ele>347</ele>
        <time>2016-11-12T11:20:16Z</time>
      </trkpt>
      <trkpt lat="46.00173" lon="4.60701">
        <ele>347</ele>
        <time>2016-11-12T11:20:17Z</time>
      </trkpt>
      <trkpt lat="46.00173" lon="4.6071">
        <ele>347</ele>
        <time>2016-11-12T11:20:19Z</time>
      </trkpt>
      <trkpt lat="46.00173" lon="4.60714">
        <ele>347</ele>
        <time>2016-11-12T11:20:20Z</time>
      </trkpt>
      <trkpt lat="46.00173" lon="4.60724">
        <ele>347</ele>
        <time>2016-11-12T11:20:22Z</time>
      </trkpt>
      <trkpt lat="46.00173" lon="4.60728">
        <ele>348</ele>
        <time>2016-11-12T11:20:23Z</time>
      </trkpt>
      <trkpt lat="46.00174" lon="4.60738">
        <ele>348</ele>
        <time>2016-11-12T11:20:25Z</time>
      </trkpt>
      <trkpt lat="46.00173" lon="4.60742">
        <ele>349</ele>
        <time>2016-11-12T11:20:26Z</time>
      </trkpt>
      <trkpt lat="46.00171" lon="4.60751">
        <ele>350</ele>
        <time>2016-11-12T11:20:28Z</time>
      </trkpt>
      <trkpt lat="46.0017" lon="4.60756">
        <ele>350</ele>
        <time>2016-11-12T11:20:29Z</time>
      </trkpt>
      <trkpt lat="46.00167" lon="4.60765">
        <ele>348</ele>
        <time>2016-11-12T11:20:31Z</time>
      </trkpt>
      <trkpt lat="46.00166" lon="4.6077">
        <ele>353</ele>
        <time>2016-11-12T11:20:32Z</time>
      </trkpt>
      <trkpt lat="46.00161" lon="4.60778">
        <ele>353</ele>
        <time>2016-11-12T11:20:34Z</time>
      </trkpt>
      <trkpt lat="46.00159" lon="4.60782">
        <ele>354</ele>
        <time>2016-11-12T11:20:35Z</time>
      </trkpt>
      <trkpt lat="46.00155" lon="4.6079">
        <ele>354</ele>
        <time>2016-11-12T11:20:37Z</time>
      </trkpt>
      <trkpt lat="46.00152" lon="4.60795">
        <ele>354</ele>
        <time>2016-11-12T11:20:38Z</time>
      </trkpt>
      <trkpt lat="46.00147" lon="4.60803">
        <ele>354</ele>
        <time>2016-11-12T11:20:40Z</time>
      </trkpt>
      <trkpt lat="46.00144" lon="4.60808">
        <ele>354</ele>
        <time>2016-11-12T11:20:41Z</time>
      </trkpt>
      <trkpt lat="46.00138" lon="4.60817">
        <ele>354</ele>
        <time>2016-11-12T11:20:43Z</time>
      </trkpt>
      <trkpt lat="46.00134" lon="4.60822">
        <ele>354</ele>
        <time>2016-11-12T11:20:44Z</time>
      </trkpt>
      <trkpt lat="46.00131" lon="4.60826">
        <ele>354</ele>
        <time>2016-11-12T11:20:45Z</time>
      </trkpt>
      <trkpt lat="46.00127" lon="4.60831">
        <ele>354</ele>
        <time>2016-11-12T11:20:46Z</time>
      </trkpt>
      <trkpt lat="46.00123" lon="4.60837">
        <ele>352</ele>
        <time>2016-11-12T11:20:47Z</time>
      </trkpt>
      <trkpt lat="46.00119" lon="4.60842">
        <ele>352</ele>
        <time>2016-11-12T11:20:48Z</time>
      </trkpt>
      <trkpt lat="46.00114" lon="4.60846">
        <ele>352</ele>
        <time>2016-11-12T11:20:49Z</time>
      </trkpt>
      <trkpt lat="46.00109" lon="4.60849">
        <ele>352</ele>
        <time>2016-11-12T11:20:50Z</time>
      </trkpt>
      <trkpt lat="46.00104" lon="4.60853">
        <ele>352</ele>
        <time>2016-11-12T11:20:51Z</time>
      </trkpt>
      <trkpt lat="46.00099" lon="4.60856">
        <ele>352</ele>
        <time>2016-11-12T11:20:52Z</time>
      </trkpt>
      <trkpt lat="46.00094" lon="4.6086">
        <ele>352</ele>
        <time>2016-11-12T11:20:53Z</time>
      </trkpt>
      <trkpt lat="46.00089" lon="4.60865">
        <ele>352</ele>
        <time>2016-11-12T11:20:54Z</time>
      </trkpt>
      <trkpt lat="46.00084" lon="4.60869">
        <ele>352</ele>
        <time>2016-11-12T11:20:55Z</time>
      </trkpt>
      <trkpt lat="46.0008" lon="4.60874">
        <ele>357</ele>
        <time>2016-11-12T11:20:56Z</time>
      </trkpt>
      <trkpt lat="46.00077" lon="4.60879">
        <ele>357</ele>
        <time>2016-11-12T11:20:57Z</time>
      </trkpt>
      <trkpt lat="46.00074" lon="4.60884">
        <ele>357</ele>
        <time>2016-11-12T11:20:58Z</time>
      </trkpt>
      <trkpt lat="46.00069" lon="4.60895">
        <ele>356</ele>
        <time>2016-11-12T11:21:00Z</time>
      </trkpt>
      <trkpt lat="46.00068" lon="4.609">
        <ele>356</ele>
        <time>2016-11-12T11:21:01Z</time>
      </trkpt>
      <trkpt lat="46.00067" lon="4.60911">
        <ele>355</ele>
        <time>2016-11-12T11:21:03Z</time>
      </trkpt>
      <trkpt lat="46.00067" lon="4.60916">
        <ele>355</ele>
        <time>2016-11-12T11:21:04Z</time>
      </trkpt>
      <trkpt lat="46.00067" lon="4.60927">
        <ele>355</ele>
        <time>2016-11-12T11:21:06Z</time>
      </trkpt>
      <trkpt lat="46.00067" lon="4.60932">
        <ele>356</ele>
        <time>2016-11-12T11:21:07Z</time>
      </trkpt>
      <trkpt lat="46.00066" lon="4.60942">
        <ele>356</ele>
        <time>2016-11-12T11:21:09Z</time>
      </trkpt>
      <trkpt lat="46.00066" lon="4.60947">
        <ele>357</ele>
        <time>2016-11-12T11:21:10Z</time>
      </trkpt>
      <trkpt lat="46.00066" lon="4.60957">
        <ele>357</ele>
        <time>2016-11-12T11:21:12Z</time>
      </trkpt>
      <trkpt lat="46.00066" lon="4.60961">
        <ele>357</ele>
        <time>2016-11-12T11:21:13Z</time>
      </trkpt>
      <trkpt lat="46.00064" lon="4.60971">
        <ele>357</ele>
        <time>2016-11-12T11:21:15Z</time>
      </trkpt>
      <trkpt lat="46.00062" lon="4.60976">
        <ele>357</ele>
        <time>2016-11-12T11:21:16Z</time>
      </trkpt>
      <trkpt lat="46.00059" lon="4.60986">
        <ele>357</ele>
        <time>2016-11-12T11:21:18Z</time>
      </trkpt>
      <trkpt lat="46.00058" lon="4.60992">
        <ele>357</ele>
        <time>2016-11-12T11:21:19Z</time>
      </trkpt>
      <trkpt lat="46.00054" lon="4.61001">
        <ele>356</ele>
        <time>2016-11-12T11:21:21Z</time>
      </trkpt>
      <trkpt lat="46.00052" lon="4.61006">
        <ele>357</ele>
        <time>2016-11-12T11:21:22Z</time>
      </trkpt>
      <trkpt lat="46.00049" lon="4.61016">
        <ele>357</ele>
        <time>2016-11-12T11:21:24Z</time>
      </trkpt>
      <trkpt lat="46.00047" lon="4.61022">
        <ele>357</ele>
        <time>2016-11-12T11:21:25Z</time>
      </trkpt>
      <trkpt lat="46.00045" lon="4.61032">
        <ele>358</ele>
        <time>2016-11-12T11:21:27Z</time>
      </trkpt>
      <trkpt lat="46.00043" lon="4.61037">
        <ele>358</ele>
        <time>2016-11-12T11:21:28Z</time>
      </trkpt>
      <trkpt lat="46.0004" lon="4.61046">
        <ele>358</ele>
        <time>2016-11-12T11:21:30Z</time>
      </trkpt>
      <trkpt lat="46.00039" lon="4.61051">
        <ele>358</ele>
        <time>2016-11-12T11:21:31Z</time>
      </trkpt>
      <trkpt lat="46.00037" lon="4.6106">
        <ele>358</ele>
        <time>2016-11-12T11:21:33Z</time>
      </trkpt>
      <trkpt lat="46.00035" lon="4.61064">
        <ele>358</ele>
        <time>2016-11-12T11:21:34Z</time>
      </trkpt>
      <trkpt lat="46.00032" lon="4.61073">
        <ele>358</ele>
        <time>2016-11-12T11:21:36Z</time>
      </trkpt>
      <trkpt lat="46.0003" lon="4.61078">
        <ele>359</ele>
        <time>2016-11-12T11:21:37Z</time>
      </trkpt>
      <trkpt lat="46.00028" lon="4.61087">
        <ele>357</ele>
        <time>2016-11-12T11:21:39Z</time>
      </trkpt>
      <trkpt lat="46.00026" lon="4.61092">
        <ele>357</ele>
        <time>2016-11-12T11:21:40Z</time>
      </trkpt>
      <trkpt lat="46.00023" lon="4.61101">
        <ele>357</ele>
        <time>2016-11-12T11:21:42Z</time>
      </trkpt>
      <trkpt lat="46.00022" lon="4.61105">
        <ele>356</ele>
        <time>2016-11-12T11:21:43Z</time>
      </trkpt>
      <trkpt lat="46.00019" lon="4.61114">
        <ele>356</ele>
        <time>2016-11-12T11:21:45Z</time>
      </trkpt>
      <trkpt lat="46.00016" lon="4.61117">
        <ele>356</ele>
        <time>2016-11-12T11:21:46Z</time>
      </trkpt>
      <trkpt lat="46.00012" lon="4.61125">
        <ele>356</ele>
        <time>2016-11-12T11:21:48Z</time>
      </trkpt>
      <trkpt lat="46.0001" lon="4.61129">
        <ele>356</ele>
        <time>2016-11-12T11:21:49Z</time>
      </trkpt>
      <trkpt lat="46.00006" lon="4.61136">
        <ele>356</ele>
        <time>2016-11-12T11:21:51Z</time>
      </trkpt>
      <trkpt lat="46.00003" lon="4.61139">
        <ele>356</ele>
        <time>2016-11-12T11:21:52Z</time>
      </trkpt>
      <trkpt lat="45.99999" lon="4.61148">
        <ele>364</ele>
        <time>2016-11-12T11:21:54Z</time>
      </trkpt>
      <trkpt lat="45.99998" lon="4.61153">
        <ele>363</ele>
        <time>2016-11-12T11:21:55Z</time>
      </trkpt>
      <trkpt lat="45.99995" lon="4.61162">
        <ele>361</ele>
        <time>2016-11-12T11:21:57Z</time>
      </trkpt>
      <trkpt lat="45.99995" lon="4.61166">
        <ele>361</ele>
        <time>2016-11-12T11:21:58Z</time>
      </trkpt>
      <trkpt lat="45.99993" lon="4.61175">
        <ele>362</ele>
        <time>2016-11-12T11:22:00Z</time>
      </trkpt>
      <trkpt lat="45.99991" lon="4.61179">
        <ele>362</ele>
        <time>2016-11-12T11:22:01Z</time>
      </trkpt>
      <trkpt lat="45.99989" lon="4.61187">
        <ele>363</ele>
        <time>2016-11-12T11:22:03Z</time>
      </trkpt>
      <trkpt lat="45.99988" lon="4.61191">
        <ele>364</ele>
        <time>2016-11-12T11:22:04Z</time>
      </trkpt>
      <trkpt lat="45.99986" lon="4.612">
        <ele>364</ele>
        <time>2016-11-12T11:22:06Z</time>
      </trkpt>
      <trkpt lat="45.99985" lon="4.61204">
        <ele>364</ele>
        <time>2016-11-12T11:22:07Z</time>
      </trkpt>
      <trkpt lat="45.99983" lon="4.61213">
        <ele>364</ele>
        <time>2016-11-12T11:22:09Z</time>
      </trkpt>
      <trkpt lat="45.99982" lon="4.61217">
        <ele>364</ele>
        <time>2016-11-12T11:22:10Z</time>
      </trkpt>
      <trkpt lat="45.99979" lon="4.61226">
        <ele>364</ele>
        <time>2016-11-12T11:22:12Z</time>
      </trkpt>
      <trkpt lat="45.99978" lon="4.6123">
        <ele>364</ele>
        <time>2016-11-12T11:22:13Z</time>
      </trkpt>
      <trkpt lat="45.99976" lon="4.61239">
        <ele>364</ele>
        <time>2016-11-12T11:22:15Z</time>
      </trkpt>
      <trkpt lat="45.99976" lon="4.61244">
        <ele>364</ele>
        <time>2016-11-12T11:22:16Z</time>
      </trkpt>
      <trkpt lat="45.99974" lon="4.61252">
        <ele>364</ele>
        <time>2016-11-12T11:22:18Z</time>
      </trkpt>
      <trkpt lat="45.99973" lon="4.61257">
        <ele>364</ele>
        <time>2016-11-12T11:22:19Z</time>
      </trkpt>
      <trkpt lat="45.99968" lon="4.61268">
        <ele>364</ele>
        <time>2016-11-12T11:22:22Z</time>
      </trkpt>
      <trkpt lat="45.99967" lon="4.61271">
        <ele>364</ele>
        <time>2016-11-12T11:22:23Z</time>
      </trkpt>
      <trkpt lat="45.99963" lon="4.61278">
        <ele>364</ele>
        <time>2016-11-12T11:22:25Z</time>
      </trkpt>
      <trkpt lat="45.99961" lon="4.61281">
        <ele>364</ele>
        <time>2016-11-12T11:22:26Z</time>
      </trkpt>
      <trkpt lat="45.99954" lon="4.6129">
        <ele>364</ele>
        <time>2016-11-12T11:22:29Z</time>
      </trkpt>
      <trkpt lat="45.99952" lon="4.61293">
        <ele>364</ele>
        <time>2016-11-12T11:22:30Z</time>
      </trkpt>
      <trkpt lat="45.99947" lon="4.61298">
        <ele>364</ele>
        <time>2016-11-12T11:22:32Z</time>
      </trkpt>
      <trkpt lat="45.99944" lon="4.613">
        <ele>364</ele>
        <time>2016-11-12T11:22:33Z</time>
      </trkpt>
      <trkpt lat="45.99936" lon="4.61304">
        <ele>364</ele>
        <time>2016-11-12T11:22:36Z</time>
      </trkpt>
      <trkpt lat="45.99933" lon="4.61304">
        <ele>364</ele>
        <time>2016-11-12T11:22:37Z</time>
      </trkpt>
      <trkpt lat="45.99927" lon="4.61307">
        <ele>364</ele>
        <time>2016-11-12T11:22:39Z</time>
      </trkpt>
      <trkpt lat="45.99924" lon="4.61309">
        <ele>364</ele>
        <time>2016-11-12T11:22:40Z</time>
      </trkpt>
      <trkpt lat="45.99919" lon="4.61312">
        <ele>364</ele>
        <time>2016-11-12T11:22:42Z</time>
      </trkpt>
      <trkpt lat="45.99916" lon="4.61313">
        <ele>368</ele>
        <time>2016-11-12T11:22:43Z</time>
      </trkpt>
      <trkpt lat="45.9991" lon="4.61316">
        <ele>368</ele>
        <time>2016-11-12T11:22:45Z</time>
      </trkpt>
      <trkpt lat="45.99907" lon="4.61318">
        <ele>368</ele>
        <time>2016-11-12T11:22:46Z</time>
      </trkpt>
      <trkpt lat="45.999" lon="4.6132">
        <ele>368</ele>
        <time>2016-11-12T11:22:48Z</time>
      </trkpt>
      <trkpt lat="45.99897" lon="4.61322">
        <ele>368</ele>
        <time>2016-11-12T11:22:49Z</time>
      </trkpt>
      <trkpt lat="45.99892" lon="4.61326">
        <ele>369</ele>
        <time>2016-11-12T11:22:51Z</time>
      </trkpt>
      <trkpt lat="45.99889" lon="4.61327">
        <ele>369</ele>
        <time>2016-11-12T11:22:52Z</time>
      </trkpt>
      <trkpt lat="45.99883" lon="4.61331">
        <ele>370</ele>
        <time>2016-11-12T11:22:54Z</time>
      </trkpt>
      <trkpt lat="45.9988" lon="4.61333">
        <ele>370</ele>
        <time>2016-11-12T11:22:55Z</time>
      </trkpt>
      <trkpt lat="45.99873" lon="4.61335">
        <ele>364</ele>
        <time>2016-11-12T11:22:57Z</time>
      </trkpt>
      <trkpt lat="45.9987" lon="4.61336">
        <ele>365</ele>
        <time>2016-11-12T11:22:58Z</time>
      </trkpt>
      <trkpt lat="45.99863" lon="4.61337">
        <ele>365</ele>
        <time>2016-11-12T11:23:00Z</time>
      </trkpt>
      <trkpt lat="45.9986" lon="4.61339">
        <ele>366</ele>
        <time>2016-11-12T11:23:01Z</time>
      </trkpt>
      <trkpt lat="45.99854" lon="4.61341">
        <ele>366</ele>
        <time>2016-11-12T11:23:03Z</time>
      </trkpt>
      <trkpt lat="45.9985" lon="4.61343">
        <ele>367</ele>
        <time>2016-11-12T11:23:04Z</time>
      </trkpt>
      <trkpt lat="45.99843" lon="4.61344">
        <ele>368</ele>
        <time>2016-11-12T11:23:06Z</time>
      </trkpt>
      <trkpt lat="45.99839" lon="4.61344">
        <ele>368</ele>
        <time>2016-11-12T11:23:07Z</time>
      </trkpt>
      <trkpt lat="45.99831" lon="4.61344">
        <ele>371</ele>
        <time>2016-11-12T11:23:09Z</time>
      </trkpt>
      <trkpt lat="45.99827" lon="4.61345">
        <ele>371</ele>
        <time>2016-11-12T11:23:10Z</time>
      </trkpt>
      <trkpt lat="45.9982" lon="4.61346">
        <ele>371</ele>
        <time>2016-11-12T11:23:12Z</time>
      </trkpt>
      <trkpt lat="45.99817" lon="4.61346">
        <ele>371</ele>
        <time>2016-11-12T11:23:13Z</time>
      </trkpt>
      <trkpt lat="45.9981" lon="4.61347">
        <ele>372</ele>
        <time>2016-11-12T11:23:15Z</time>
      </trkpt>
      <trkpt lat="45.99807" lon="4.61348">
        <ele>372</ele>
        <time>2016-11-12T11:23:16Z</time>
      </trkpt>
      <trkpt lat="45.998" lon="4.6135">
        <ele>372</ele>
        <time>2016-11-12T11:23:18Z</time>
      </trkpt>
      <trkpt lat="45.99797" lon="4.61351">
        <ele>372</ele>
        <time>2016-11-12T11:23:19Z</time>
      </trkpt>
      <trkpt lat="45.9979" lon="4.61355">
        <ele>373</ele>
        <time>2016-11-12T11:23:21Z</time>
      </trkpt>
      <trkpt lat="45.99787" lon="4.61356">
        <ele>373</ele>
        <time>2016-11-12T11:23:22Z</time>
      </trkpt>
      <trkpt lat="45.9978" lon="4.61359">
        <ele>373</ele>
        <time>2016-11-12T11:23:24Z</time>
      </trkpt>
      <trkpt lat="45.99777" lon="4.6136">
        <ele>373</ele>
        <time>2016-11-12T11:23:25Z</time>
      </trkpt>
      <trkpt lat="45.9977" lon="4.61363">
        <ele>374</ele>
        <time>2016-11-12T11:23:27Z</time>
      </trkpt>
      <trkpt lat="45.99768" lon="4.61365">
        <ele>374</ele>
        <time>2016-11-12T11:23:28Z</time>
      </trkpt>
      <trkpt lat="45.99762" lon="4.61369">
        <ele>374</ele>
        <time>2016-11-12T11:23:30Z</time>
      </trkpt>
      <trkpt lat="45.99759" lon="4.61371">
        <ele>373</ele>
        <time>2016-11-12T11:23:31Z</time>
      </trkpt>
      <trkpt lat="45.99754" lon="4.61378">
        <ele>373</ele>
        <time>2016-11-12T11:23:33Z</time>
      </trkpt>
      <trkpt lat="45.99752" lon="4.61381">
        <ele>373</ele>
        <time>2016-11-12T11:23:34Z</time>
      </trkpt>
      <trkpt lat="45.99747" lon="4.61388">
        <ele>380</ele>
        <time>2016-11-12T11:23:36Z</time>
      </trkpt>
      <trkpt lat="45.99744" lon="4.61392">
        <ele>380</ele>
        <time>2016-11-12T11:23:37Z</time>
      </trkpt>
      <trkpt lat="45.9974" lon="4.61401">
        <ele>379</ele>
        <time>2016-11-12T11:23:39Z</time>
      </trkpt>
      <trkpt lat="45.99738" lon="4.61405">
        <ele>378</ele>
        <time>2016-11-12T11:23:40Z</time>
      </trkpt>
      <trkpt lat="45.99735" lon="4.61415">
        <ele>378</ele>
        <time>2016-11-12T11:23:42Z</time>
      </trkpt>
      <trkpt lat="45.99733" lon="4.61421">
        <ele>375</ele>
        <time>2016-11-12T11:23:43Z</time>
      </trkpt>
      <trkpt lat="45.9973" lon="4.61432">
        <ele>376</ele>
        <time>2016-11-12T11:23:45Z</time>
      </trkpt>
      <trkpt lat="45.99729" lon="4.61437">
        <ele>376</ele>
        <time>2016-11-12T11:23:46Z</time>
      </trkpt>
      <trkpt lat="45.99725" lon="4.61445">
        <ele>376</ele>
        <time>2016-11-12T11:23:48Z</time>
      </trkpt>
      <trkpt lat="45.99723" lon="4.6145">
        <ele>377</ele>
        <time>2016-11-12T11:23:49Z</time>
      </trkpt>
      <trkpt lat="45.99719" lon="4.61458">
        <ele>377</ele>
        <time>2016-11-12T11:23:51Z</time>
      </trkpt>
      <trkpt lat="45.99717" lon="4.61462">
        <ele>377</ele>
        <time>2016-11-12T11:23:52Z</time>
      </trkpt>
      <trkpt lat="45.99714" lon="4.6147">
        <ele>377</ele>
        <time>2016-11-12T11:23:54Z</time>
      </trkpt>
      <trkpt lat="45.99712" lon="4.61475">
        <ele>377</ele>
        <time>2016-11-12T11:23:55Z</time>
      </trkpt>
      <trkpt lat="45.99709" lon="4.61483">
        <ele>377</ele>
        <time>2016-11-12T11:23:57Z</time>
      </trkpt>
      <trkpt lat="45.99707" lon="4.61487">
        <ele>377</ele>
        <time>2016-11-12T11:23:58Z</time>
      </trkpt>
      <trkpt lat="45.99705" lon="4.61496">
        <ele>377</ele>
        <time>2016-11-12T11:24:00Z</time>
      </trkpt>
      <trkpt lat="45.99703" lon="4.615">
        <ele>376</ele>
        <time>2016-11-12T11:24:01Z</time>
      </trkpt>
      <trkpt lat="45.997" lon="4.6151">
        <ele>376</ele>
        <time>2016-11-12T11:24:03Z</time>
      </trkpt>
      <trkpt lat="45.99699" lon="4.61516">
        <ele>376</ele>
        <time>2016-11-12T11:24:04Z</time>
      </trkpt>
      <trkpt lat="45.99697" lon="4.61526">
        <ele>377</ele>
        <time>2016-11-12T11:24:06Z</time>
      </trkpt>
      <trkpt lat="45.99695" lon="4.61531">
        <ele>377</ele>
        <time>2016-11-12T11:24:07Z</time>
      </trkpt>
      <trkpt lat="45.99693" lon="4.6154">
        <ele>377</ele>
        <time>2016-11-12T11:24:09Z</time>
      </trkpt>
      <trkpt lat="45.99691" lon="4.61545">
        <ele>377</ele>
        <time>2016-11-12T11:24:10Z</time>
      </trkpt>
      <trkpt lat="45.99689" lon="4.61555">
        <ele>377</ele>
        <time>2016-11-12T11:24:12Z</time>
      </trkpt>
      <trkpt lat="45.99688" lon="4.6156">
        <ele>377</ele>
        <time>2016-11-12T11:24:13Z</time>
      </trkpt>
      <trkpt lat="45.99685" lon="4.61571">
        <ele>378</ele>
        <time>2016-11-12T11:24:15Z</time>
      </trkpt>
      <trkpt lat="45.99684" lon="4.61576">
        <ele>378</ele>
        <time>2016-11-12T11:24:16Z</time>
      </trkpt>
      <trkpt lat="45.99682" lon="4.61587">
        <ele>379</ele>
        <time>2016-11-12T11:24:18Z</time>
      </trkpt>
      <trkpt lat="45.99681" lon="4.61593">
        <ele>379</ele>
        <time>2016-11-12T11:24:19Z</time>
      </trkpt>
      <trkpt lat="45.99678" lon="4.61603">
        <ele>378</ele>
        <time>2016-11-12T11:24:21Z</time>
      </trkpt>
      <trkpt lat="45.99677" lon="4.61609">
        <ele>378</ele>
        <time>2016-11-12T11:24:22Z</time>
      </trkpt>
      <trkpt lat="45.99675" lon="4.61617">
        <ele>378</ele>
        <time>2016-11-12T11:24:24Z</time>
      </trkpt>
      <trkpt lat="45.99674" lon="4.61622">
        <ele>378</ele>
        <time>2016-11-12T11:24:25Z</time>
      </trkpt>
      <trkpt lat="45.99672" lon="4.61633">
        <ele>378</ele>
        <time>2016-11-12T11:24:27Z</time>
      </trkpt>
      <trkpt lat="45.99671" lon="4.61638">
        <ele>378</ele>
        <time>2016-11-12T11:24:28Z</time>
      </trkpt>
      <trkpt lat="45.99669" lon="4.61647">
        <ele>379</ele>
        <time>2016-11-12T11:24:30Z</time>
      </trkpt>
      <trkpt lat="45.99668" lon="4.61652">
        <ele>379</ele>
        <time>2016-11-12T11:24:31Z</time>
      </trkpt>
      <trkpt lat="45.99665" lon="4.61662">
        <ele>382</ele>
        <time>2016-11-12T11:24:33Z</time>
      </trkpt>
      <trkpt lat="45.99664" lon="4.61666">
        <ele>382</ele>
        <time>2016-11-12T11:24:34Z</time>
      </trkpt>
      <trkpt lat="45.99661" lon="4.61675">
        <ele>382</ele>
        <time>2016-11-12T11:24:36Z</time>
      </trkpt>
      <trkpt lat="45.9966" lon="4.6168">
        <ele>383</ele>
        <time>2016-11-12T11:24:37Z</time>
      </trkpt>
      <trkpt lat="45.99657" lon="4.61688">
        <ele>383</ele>
        <time>2016-11-12T11:24:39Z</time>
      </trkpt>
      <trkpt lat="45.99656" lon="4.61692">
        <ele>383</ele>
        <time>2016-11-12T11:24:40Z</time>
      </trkpt>
      <trkpt lat="45.99653" lon="4.61703">
        <ele>383</ele>
        <time>2016-11-12T11:24:42Z</time>
      </trkpt>
      <trkpt lat="45.99651" lon="4.61709">
        <ele>383</ele>
        <time>2016-11-12T11:24:43Z</time>
      </trkpt>
      <trkpt lat="45.9965" lon="4.61716">
        <ele>383</ele>
        <time>2016-11-12T11:24:44Z</time>
      </trkpt>
      <trkpt lat="45.99648" lon="4.61722">
        <ele>383</ele>
        <time>2016-11-12T11:24:45Z</time>
      </trkpt>
      <trkpt lat="45.99646" lon="4.61728">
        <ele>383</ele>
        <time>2016-11-12T11:24:46Z</time>
      </trkpt>
      <trkpt lat="45.99645" lon="4.61734">
        <ele>383</ele>
        <time>2016-11-12T11:24:47Z</time>
      </trkpt>
      <trkpt lat="45.99643" lon="4.61741">
        <ele>383</ele>
        <time>2016-11-12T11:24:48Z</time>
      </trkpt>
      <trkpt lat="45.9964" lon="4.61748">
        <ele>383</ele>
        <time>2016-11-12T11:24:49Z</time>
      </trkpt>
      <trkpt lat="45.99637" lon="4.61755">
        <ele>382</ele>
        <time>2016-11-12T11:24:50Z</time>
      </trkpt>
      <trkpt lat="45.99633" lon="4.61761">
        <ele>382</ele>
        <time>2016-11-12T11:24:51Z</time>
      </trkpt>
      <trkpt lat="45.9963" lon="4.61766">
        <ele>382</ele>
        <time>2016-11-12T11:24:52Z</time>
      </trkpt>
      <trkpt lat="45.99626" lon="4.61771">
        <ele>383</ele>
        <time>2016-11-12T11:24:53Z</time>
      </trkpt>
      <trkpt lat="45.99622" lon="4.61778">
        <ele>383</ele>
        <time>2016-11-12T11:24:55Z</time>
      </trkpt>
      <trkpt lat="45.9962" lon="4.61782">
        <ele>383</ele>
        <time>2016-11-12T11:24:56Z</time>
      </trkpt>
      <trkpt lat="45.99616" lon="4.61789">
        <ele>383</ele>
        <time>2016-11-12T11:24:58Z</time>
      </trkpt>
      <trkpt lat="45.99614" lon="4.61793">
        <ele>383</ele>
        <time>2016-11-12T11:24:59Z</time>
      </trkpt>
      <trkpt lat="45.99609" lon="4.61801">
        <ele>383</ele>
        <time>2016-11-12T11:25:01Z</time>
      </trkpt>
      <trkpt lat="45.99606" lon="4.61805">
        <ele>384</ele>
        <time>2016-11-12T11:25:02Z</time>
      </trkpt>
      <trkpt lat="45.99602" lon="4.61814">
        <ele>384</ele>
        <time>2016-11-12T11:25:04Z</time>
      </trkpt>
      <trkpt lat="45.99601" lon="4.61818">
        <ele>384</ele>
        <time>2016-11-12T11:25:05Z</time>
      </trkpt>
      <trkpt lat="45.99598" lon="4.61826">
        <ele>385</ele>
        <time>2016-11-12T11:25:07Z</time>
      </trkpt>
      <trkpt lat="45.99597" lon="4.6183">
        <ele>385</ele>
        <time>2016-11-12T11:25:08Z</time>
      </trkpt>
      <trkpt lat="45.99595" lon="4.61838">
        <ele>383</ele>
        <time>2016-11-12T11:25:10Z</time>
      </trkpt>
      <trkpt lat="45.99594" lon="4.61842">
        <ele>383</ele>
        <time>2016-11-12T11:25:11Z</time>
      </trkpt>
      <trkpt lat="45.9959" lon="4.61853">
        <ele>381</ele>
        <time>2016-11-12T11:25:14Z</time>
      </trkpt>
      <trkpt lat="45.99588" lon="4.61858">
        <ele>381</ele>
        <time>2016-11-12T11:25:15Z</time>
      </trkpt>
      <trkpt lat="45.99584" lon="4.61867">
        <ele>380</ele>
        <time>2016-11-12T11:25:17Z</time>
      </trkpt>
      <trkpt lat="45.99582" lon="4.61873">
        <ele>387</ele>
        <time>2016-11-12T11:25:18Z</time>
      </trkpt>
      <trkpt lat="45.99581" lon="4.61878">
        <ele>387</ele>
        <time>2016-11-12T11:25:19Z</time>
      </trkpt>
      <trkpt lat="45.99579" lon="4.61885">
        <ele>386</ele>
        <time>2016-11-12T11:25:20Z</time>
      </trkpt>
      <trkpt lat="45.99577" lon="4.61891">
        <ele>386</ele>
        <time>2016-11-12T11:25:21Z</time>
      </trkpt>
      <trkpt lat="45.99575" lon="4.61897">
        <ele>385</ele>
        <time>2016-11-12T11:25:22Z</time>
      </trkpt>
      <trkpt lat="45.99573" lon="4.61903">
        <ele>384</ele>
        <time>2016-11-12T11:25:23Z</time>
      </trkpt>
      <trkpt lat="45.99571" lon="4.61909">
        <ele>384</ele>
        <time>2016-11-12T11:25:24Z</time>
      </trkpt>
      <trkpt lat="45.99567" lon="4.6192">
        <ele>381</ele>
        <time>2016-11-12T11:25:26Z</time>
      </trkpt>
      <trkpt lat="45.99565" lon="4.61926">
        <ele>382</ele>
        <time>2016-11-12T11:25:27Z</time>
      </trkpt>
      <trkpt lat="45.99561" lon="4.61936">
        <ele>382</ele>
        <time>2016-11-12T11:25:29Z</time>
      </trkpt>
      <trkpt lat="45.99559" lon="4.61943">
        <ele>382</ele>
        <time>2016-11-12T11:25:30Z</time>
      </trkpt>
      <trkpt lat="45.99557" lon="4.61949">
        <ele>383</ele>
        <time>2016-11-12T11:25:31Z</time>
      </trkpt>
      <trkpt lat="45.99555" lon="4.61956">
        <ele>383</ele>
        <time>2016-11-12T11:25:32Z</time>
      </trkpt>
      <trkpt lat="45.99552" lon="4.61962">
        <ele>383</ele>
        <time>2016-11-12T11:25:33Z</time>
      </trkpt>
      <trkpt lat="45.9955" lon="4.61969">
        <ele>383</ele>
        <time>2016-11-12T11:25:34Z</time>
      </trkpt>
      <trkpt lat="45.99547" lon="4.61975">
        <ele>383</ele>
        <time>2016-11-12T11:25:35Z</time>
      </trkpt>
      <trkpt lat="45.99545" lon="4.61982">
        <ele>383</ele>
        <time>2016-11-12T11:25:36Z</time>
      </trkpt>
      <trkpt lat="45.99542" lon="4.61988">
        <ele>383</ele>
        <time>2016-11-12T11:25:37Z</time>
      </trkpt>
      <trkpt lat="45.99538" lon="4.61996">
        <ele>383</ele>
        <time>2016-11-12T11:25:38Z</time>
      </trkpt>
      <trkpt lat="45.99534" lon="4.62003">
        <ele>381</ele>
        <time>2016-11-12T11:25:39Z</time>
      </trkpt>
      <trkpt lat="45.9953" lon="4.62011">
        <ele>381</ele>
        <time>2016-11-12T11:25:40Z</time>
      </trkpt>
      <trkpt lat="45.99526" lon="4.62019">
        <ele>381</ele>
        <time>2016-11-12T11:25:41Z</time>
      </trkpt>
      <trkpt lat="45.99523" lon="4.62028">
        <ele>381</ele>
        <time>2016-11-12T11:25:42Z</time>
      </trkpt>
      <trkpt lat="45.99519" lon="4.62036">
        <ele>381</ele>
        <time>2016-11-12T11:25:43Z</time>
      </trkpt>
      <trkpt lat="45.99515" lon="4.62045">
        <ele>381</ele>
        <time>2016-11-12T11:25:44Z</time>
      </trkpt>
      <trkpt lat="45.99512" lon="4.62054">
        <ele>380</ele>
        <time>2016-11-12T11:25:45Z</time>
      </trkpt>
      <trkpt lat="45.9951" lon="4.62064">
        <ele>380</ele>
        <time>2016-11-12T11:25:46Z</time>
      </trkpt>
      <trkpt lat="45.99509" lon="4.62074">
        <ele>380</ele>
        <time>2016-11-12T11:25:47Z</time>
      </trkpt>
      <trkpt lat="45.9951" lon="4.62084">
        <ele>380</ele>
        <time>2016-11-12T11:25:48Z</time>
      </trkpt>
      <trkpt lat="45.99511" lon="4.62093">
        <ele>379</ele>
        <time>2016-11-12T11:25:49Z</time>
      </trkpt>
      <trkpt lat="45.99513" lon="4.62102">
        <ele>379</ele>
        <time>2016-11-12T11:25:50Z</time>
      </trkpt>
      <trkpt lat="45.99515" lon="4.62111">
        <ele>378</ele>
        <time>2016-11-12T11:25:51Z</time>
      </trkpt>
      <trkpt lat="45.99516" lon="4.62118">
        <ele>378</ele>
        <time>2016-11-12T11:25:52Z</time>
      </trkpt>
      <trkpt lat="45.99517" lon="4.62125">
        <ele>378</ele>
        <time>2016-11-12T11:25:53Z</time>
      </trkpt>
      <trkpt lat="45.99518" lon="4.62132">
        <ele>378</ele>
        <time>2016-11-12T11:25:54Z</time>
      </trkpt>
      <trkpt lat="45.99514" lon="4.6214">
        <ele>379</ele>
        <time>2016-11-12T11:25:56Z</time>
      </trkpt>
      <trkpt lat="45.99512" lon="4.62144">
        <ele>379</ele>
        <time>2016-11-12T11:25:57Z</time>
      </trkpt>
      <trkpt lat="45.99507" lon="4.62151">
        <ele>380</ele>
        <time>2016-11-12T11:25:59Z</time>
      </trkpt>
      <trkpt lat="45.99505" lon="4.62155">
        <ele>380</ele>
        <time>2016-11-12T11:26:00Z</time>
      </trkpt>
      <trkpt lat="45.995" lon="4.62161">
        <ele>381</ele>
        <time>2016-11-12T11:26:02Z</time>
      </trkpt>
      <trkpt lat="45.99498" lon="4.62164">
        <ele>382</ele>
        <time>2016-11-12T11:26:03Z</time>
      </trkpt>
      <trkpt lat="45.99491" lon="4.62168">
        <ele>382</ele>
        <time>2016-11-12T11:26:05Z</time>
      </trkpt>
      <trkpt lat="45.99488" lon="4.6217">
        <ele>382</ele>
        <time>2016-11-12T11:26:06Z</time>
      </trkpt>
      <trkpt lat="45.99482" lon="4.62175">
        <ele>382</ele>
        <time>2016-11-12T11:26:08Z</time>
      </trkpt>
      <trkpt lat="45.99478" lon="4.62178">
        <ele>382</ele>
        <time>2016-11-12T11:26:09Z</time>
      </trkpt>
      <trkpt lat="45.99472" lon="4.62185">
        <ele>382</ele>
        <time>2016-11-12T11:26:11Z</time>
      </trkpt>
      <trkpt lat="45.99469" lon="4.62187">
        <ele>382</ele>
        <time>2016-11-12T11:26:12Z</time>
      </trkpt>
      <trkpt lat="45.99461" lon="4.62192">
        <ele>382</ele>
        <time>2016-11-12T11:26:14Z</time>
      </trkpt>
      <trkpt lat="45.99456" lon="4.62193">
        <ele>383</ele>
        <time>2016-11-12T11:26:15Z</time>
      </trkpt>
      <trkpt lat="45.99452" lon="4.62192">
        <ele>383</ele>
        <time>2016-11-12T11:26:16Z</time>
      </trkpt>
      <trkpt lat="45.99447" lon="4.6219">
        <ele>383</ele>
        <time>2016-11-12T11:26:17Z</time>
      </trkpt>
      <trkpt lat="45.99443" lon="4.62187">
        <ele>383</ele>
        <time>2016-11-12T11:26:18Z</time>
      </trkpt>
      <trkpt lat="45.99438" lon="4.62184">
        <ele>383</ele>
        <time>2016-11-12T11:26:19Z</time>
      </trkpt>
      <trkpt lat="45.99431" lon="4.62178">
        <ele>383</ele>
        <time>2016-11-12T11:26:21Z</time>
      </trkpt>
      <trkpt lat="45.99427" lon="4.62176">
        <ele>383</ele>
        <time>2016-11-12T11:26:22Z</time>
      </trkpt>
      <trkpt lat="45.99419" lon="4.62171">
        <ele>383</ele>
        <time>2016-11-12T11:26:24Z</time>
      </trkpt>
      <trkpt lat="45.99415" lon="4.6217">
        <ele>383</ele>
        <time>2016-11-12T11:26:25Z</time>
      </trkpt>
      <trkpt lat="45.99408" lon="4.62167">
        <ele>384</ele>
        <time>2016-11-12T11:26:27Z</time>
      </trkpt>
      <trkpt lat="45.99405" lon="4.62166">
        <ele>384</ele>
        <time>2016-11-12T11:26:28Z</time>
      </trkpt>
      <trkpt lat="45.99398" lon="4.62164">
        <ele>384</ele>
        <time>2016-11-12T11:26:30Z</time>
      </trkpt>
      <trkpt lat="45.99393" lon="4.62163">
        <ele>384</ele>
        <time>2016-11-12T11:26:31Z</time>
      </trkpt>
      <trkpt lat="45.99389" lon="4.62161">
        <ele>384</ele>
        <time>2016-11-12T11:26:32Z</time>
      </trkpt>
      <trkpt lat="45.99384" lon="4.6216">
        <ele>384</ele>
        <time>2016-11-12T11:26:33Z</time>
      </trkpt>
      <trkpt lat="45.9938" lon="4.62159">
        <ele>384</ele>
        <time>2016-11-12T11:26:34Z</time>
      </trkpt>
      <trkpt lat="45.99375" lon="4.62158">
        <ele>384</ele>
        <time>2016-11-12T11:26:35Z</time>
      </trkpt>
      <trkpt lat="45.9937" lon="4.62157">
        <ele>385</ele>
        <time>2016-11-12T11:26:36Z</time>
      </trkpt>
      <trkpt lat="45.99365" lon="4.62155">
        <ele>385</ele>
        <time>2016-11-12T11:26:37Z</time>
      </trkpt>
      <trkpt lat="45.9936" lon="4.62154">
        <ele>384</ele>
        <time>2016-11-12T11:26:38Z</time>
      </trkpt>
      <trkpt lat="45.99355" lon="4.62153">
        <ele>384</ele>
        <time>2016-11-12T11:26:39Z</time>
      </trkpt>
      <trkpt lat="45.9935" lon="4.62153">
        <ele>384</ele>
        <time>2016-11-12T11:26:40Z</time>
      </trkpt>
      <trkpt lat="45.99345" lon="4.62153">
        <ele>384</ele>
        <time>2016-11-12T11:26:41Z</time>
      </trkpt>
      <trkpt lat="45.9934" lon="4.62155">
        <ele>384</ele>
        <time>2016-11-12T11:26:42Z</time>
      </trkpt>
      <trkpt lat="45.99335" lon="4.62159">
        <ele>384</ele>
        <time>2016-11-12T11:26:43Z</time>
      </trkpt>
      <trkpt lat="45.9933" lon="4.62163">
        <ele>384</ele>
        <time>2016-11-12T11:26:44Z</time>
      </trkpt>
      <trkpt lat="45.99326" lon="4.62169">
        <ele>382</ele>
        <time>2016-11-12T11:26:45Z</time>
      </trkpt>
      <trkpt lat="45.99322" lon="4.62176">
        <ele>382</ele>
        <time>2016-11-12T11:26:46Z</time>
      </trkpt>
      <trkpt lat="45.99319" lon="4.62183">
        <ele>381</ele>
        <time>2016-11-12T11:26:47Z</time>
      </trkpt>
      <trkpt lat="45.99317" lon="4.62191">
        <ele>381</ele>
        <time>2016-11-12T11:26:48Z</time>
      </trkpt>
      <trkpt lat="45.99315" lon="4.62199">
        <ele>381</ele>
        <time>2016-11-12T11:26:49Z</time>
      </trkpt>
      <trkpt lat="45.99313" lon="4.62207">
        <ele>380</ele>
        <time>2016-11-12T11:26:50Z</time>
      </trkpt>
      <trkpt lat="45.99311" lon="4.62215">
        <ele>380</ele>
        <time>2016-11-12T11:26:51Z</time>
      </trkpt>
      <trkpt lat="45.99309" lon="4.6222">
        <ele>380</ele>
        <time>2016-11-12T11:26:52Z</time>
      </trkpt>
      <trkpt lat="45.99307" lon="4.62226">
        <ele>380</ele>
        <time>2016-11-12T11:26:53Z</time>
      </trkpt>
      <trkpt lat="45.99301" lon="4.62234">
        <ele>379</ele>
        <time>2016-11-12T11:26:55Z</time>
      </trkpt>
      <trkpt lat="45.99296" lon="4.62236">
        <ele>379</ele>
        <time>2016-11-12T11:26:56Z</time>
      </trkpt>
      <trkpt lat="45.99292" lon="4.62238">
        <ele>379</ele>
        <time>2016-11-12T11:26:57Z</time>
      </trkpt>
      <trkpt lat="45.99284" lon="4.62232">
        <ele>379</ele>
        <time>2016-11-12T11:26:58Z</time>
      </trkpt>
      <trkpt lat="45.99278" lon="4.62233">
        <ele>379</ele>
        <time>2016-11-12T11:26:59Z</time>
      </trkpt>
      <trkpt lat="45.99272" lon="4.62235">
        <ele>378</ele>
        <time>2016-11-12T11:27:00Z</time>
      </trkpt>
      <trkpt lat="45.99265" lon="4.62238">
        <ele>377</ele>
        <time>2016-11-12T11:27:01Z</time>
      </trkpt>
      <trkpt lat="45.99258" lon="4.62241">
        <ele>376</ele>
        <time>2016-11-12T11:27:02Z</time>
      </trkpt>
      <trkpt lat="45.99251" lon="4.62244">
        <ele>375</ele>
        <time>2016-11-12T11:27:03Z</time>
      </trkpt>
      <trkpt lat="45.99244" lon="4.62249">
        <ele>375</ele>
        <time>2016-11-12T11:27:04Z</time>
      </trkpt>
      <trkpt lat="45.99236" lon="4.62253">
        <ele>373</ele>
        <time>2016-11-12T11:27:05Z</time>
      </trkpt>
      <trkpt lat="45.99229" lon="4.62258">
        <ele>373</ele>
        <time>2016-11-12T11:27:06Z</time>
      </trkpt>
      <trkpt lat="45.99221" lon="4.62264">
        <ele>373</ele>
        <time>2016-11-12T11:27:07Z</time>
      </trkpt>
      <trkpt lat="45.99214" lon="4.6227">
        <ele>372</ele>
        <time>2016-11-12T11:27:08Z</time>
      </trkpt>
      <trkpt lat="45.99206" lon="4.62277">
        <ele>372</ele>
        <time>2016-11-12T11:27:09Z</time>
      </trkpt>
      <trkpt lat="45.992" lon="4.62285">
        <ele>372</ele>
        <time>2016-11-12T11:27:10Z</time>
      </trkpt>
      <trkpt lat="45.99194" lon="4.62294">
        <ele>372</ele>
        <time>2016-11-12T11:27:11Z</time>
      </trkpt>
      <trkpt lat="45.9919" lon="4.62303">
        <ele>372</ele>
        <time>2016-11-12T11:27:12Z</time>
      </trkpt>
      <trkpt lat="45.99187" lon="4.62314">
        <ele>372</ele>
        <time>2016-11-12T11:27:13Z</time>
      </trkpt>
      <trkpt lat="45.99185" lon="4.62325">
        <ele>372</ele>
        <time>2016-11-12T11:27:14Z</time>
      </trkpt>
      <trkpt lat="45.99183" lon="4.62336">
        <ele>371</ele>
        <time>2016-11-12T11:27:15Z</time>
      </trkpt>
      <trkpt lat="45.99182" lon="4.62346">
        <ele>371</ele>
        <time>2016-11-12T11:27:16Z</time>
      </trkpt>
      <trkpt lat="45.99181" lon="4.62356">
        <ele>371</ele>
        <time>2016-11-12T11:27:17Z</time>
      </trkpt>
      <trkpt lat="45.9918" lon="4.62365">
        <ele>371</ele>
        <time>2016-11-12T11:27:18Z</time>
      </trkpt>
      <trkpt lat="45.99179" lon="4.62375">
        <ele>371</ele>
        <time>2016-11-12T11:27:19Z</time>
      </trkpt>
      <trkpt lat="45.99178" lon="4.62383">
        <ele>371</ele>
        <time>2016-11-12T11:27:20Z</time>
      </trkpt>
      <trkpt lat="45.99177" lon="4.62392">
        <ele>371</ele>
        <time>2016-11-12T11:27:21Z</time>
      </trkpt>
      <trkpt lat="45.99176" lon="4.62399">
        <ele>371</ele>
        <time>2016-11-12T11:27:22Z</time>
      </trkpt>
      <trkpt lat="45.99175" lon="4.62406">
        <ele>371</ele>
        <time>2016-11-12T11:27:23Z</time>
      </trkpt>
      <trkpt lat="45.99175" lon="4.62413">
        <ele>372</ele>
        <time>2016-11-12T11:27:24Z</time>
      </trkpt>
      <trkpt lat="45.99174" lon="4.62425">
        <ele>371</ele>
        <time>2016-11-12T11:27:26Z</time>
      </trkpt>
      <trkpt lat="45.99174" lon="4.6243">
        <ele>371</ele>
        <time>2016-11-12T11:27:27Z</time>
      </trkpt>
      <trkpt lat="45.99173" lon="4.62443">
        <ele>371</ele>
        <time>2016-11-12T11:27:29Z</time>
      </trkpt>
      <trkpt lat="45.99173" lon="4.62448">
        <ele>371</ele>
        <time>2016-11-12T11:27:30Z</time>
      </trkpt>
      <trkpt lat="45.99172" lon="4.6246">
        <ele>371</ele>
        <time>2016-11-12T11:27:32Z</time>
      </trkpt>
      <trkpt lat="45.99171" lon="4.62466">
        <ele>371</ele>
        <time>2016-11-12T11:27:33Z</time>
      </trkpt>
      <trkpt lat="45.9917" lon="4.62477">
        <ele>371</ele>
        <time>2016-11-12T11:27:35Z</time>
      </trkpt>
      <trkpt lat="45.99169" lon="4.62481">
        <ele>371</ele>
        <time>2016-11-12T11:27:36Z</time>
      </trkpt>
      <trkpt lat="45.99165" lon="4.62491">
        <ele>372</ele>
        <time>2016-11-12T11:27:38Z</time>
      </trkpt>
      <trkpt lat="45.99163" lon="4.62496">
        <ele>372</ele>
        <time>2016-11-12T11:27:39Z</time>
      </trkpt>
      <trkpt lat="45.99158" lon="4.62506">
        <ele>372</ele>
        <time>2016-11-12T11:27:41Z</time>
      </trkpt>
      <trkpt lat="45.99156" lon="4.62511">
        <ele>372</ele>
        <time>2016-11-12T11:27:42Z</time>
      </trkpt>
      <trkpt lat="45.99154" lon="4.62517">
        <ele>372</ele>
        <time>2016-11-12T11:27:43Z</time>
      </trkpt>
      <trkpt lat="45.99151" lon="4.62522">
        <ele>372</ele>
        <time>2016-11-12T11:27:44Z</time>
      </trkpt>
      <trkpt lat="45.99145" lon="4.62532">
        <ele>372</ele>
        <time>2016-11-12T11:27:46Z</time>
      </trkpt>
      <trkpt lat="45.99143" lon="4.62537">
        <ele>372</ele>
        <time>2016-11-12T11:27:47Z</time>
      </trkpt>
      <trkpt lat="45.99137" lon="4.62546">
        <ele>372</ele>
        <time>2016-11-12T11:27:49Z</time>
      </trkpt>
      <trkpt lat="45.99133" lon="4.6255">
        <ele>372</ele>
        <time>2016-11-12T11:27:50Z</time>
      </trkpt>
      <trkpt lat="45.99129" lon="4.62553">
        <ele>372</ele>
        <time>2016-11-12T11:27:51Z</time>
      </trkpt>
      <trkpt lat="45.99125" lon="4.62557">
        <ele>372</ele>
        <time>2016-11-12T11:27:52Z</time>
      </trkpt>
      <trkpt lat="45.9912" lon="4.6256">
        <ele>372</ele>
        <time>2016-11-12T11:27:53Z</time>
      </trkpt>
      <trkpt lat="45.99115" lon="4.62564">
        <ele>372</ele>
        <time>2016-11-12T11:27:54Z</time>
      </trkpt>
      <trkpt lat="45.9911" lon="4.62567">
        <ele>372</ele>
        <time>2016-11-12T11:27:55Z</time>
      </trkpt>
      <trkpt lat="45.99105" lon="4.62571">
        <ele>372</ele>
        <time>2016-11-12T11:27:56Z</time>
      </trkpt>
      <trkpt lat="45.991" lon="4.62575">
        <ele>372</ele>
        <time>2016-11-12T11:27:57Z</time>
      </trkpt>
      <trkpt lat="45.99096" lon="4.62579">
        <ele>372</ele>
        <time>2016-11-12T11:27:58Z</time>
      </trkpt>
      <trkpt lat="45.99089" lon="4.62583">
        <ele>371</ele>
        <time>2016-11-12T11:27:59Z</time>
      </trkpt>
      <trkpt lat="45.99083" lon="4.62588">
        <ele>371</ele>
        <time>2016-11-12T11:28:00Z</time>
      </trkpt>
      <trkpt lat="45.99076" lon="4.62592">
        <ele>370</ele>
        <time>2016-11-12T11:28:01Z</time>
      </trkpt>
      <trkpt lat="45.99069" lon="4.62596">
        <ele>370</ele>
        <time>2016-11-12T11:28:02Z</time>
      </trkpt>
      <trkpt lat="45.99062" lon="4.62599">
        <ele>369</ele>
        <time>2016-11-12T11:28:03Z</time>
      </trkpt>
      <trkpt lat="45.99054" lon="4.62601">
        <ele>369</ele>
        <time>2016-11-12T11:28:04Z</time>
      </trkpt>
      <trkpt lat="45.99046" lon="4.62601">
        <ele>368</ele>
        <time>2016-11-12T11:28:05Z</time>
      </trkpt>
      <trkpt lat="45.99038" lon="4.626">
        <ele>368</ele>
        <time>2016-11-12T11:28:06Z</time>
      </trkpt>
      <trkpt lat="45.9903" lon="4.62598">
        <ele>367</ele>
        <time>2016-11-12T11:28:07Z</time>
      </trkpt>
      <trkpt lat="45.99023" lon="4.62595">
        <ele>367</ele>
        <time>2016-11-12T11:28:08Z</time>
      </trkpt>
      <trkpt lat="45.99015" lon="4.62592">
        <ele>366</ele>
        <time>2016-11-12T11:28:09Z</time>
      </trkpt>
      <trkpt lat="45.99007" lon="4.62588">
        <ele>365</ele>
        <time>2016-11-12T11:28:10Z</time>
      </trkpt>
      <trkpt lat="45.98999" lon="4.62585">
        <ele>364</ele>
        <time>2016-11-12T11:28:11Z</time>
      </trkpt>
      <trkpt lat="45.9899" lon="4.6258">
        <ele>363</ele>
        <time>2016-11-12T11:28:12Z</time>
      </trkpt>
      <trkpt lat="45.98982" lon="4.62576">
        <ele>363</ele>
        <time>2016-11-12T11:28:13Z</time>
      </trkpt>
      <trkpt lat="45.98973" lon="4.62572">
        <ele>362</ele>
        <time>2016-11-12T11:28:14Z</time>
      </trkpt>
      <trkpt lat="45.98964" lon="4.62567">
        <ele>362</ele>
        <time>2016-11-12T11:28:15Z</time>
      </trkpt>
      <trkpt lat="45.98955" lon="4.62562">
        <ele>361</ele>
        <time>2016-11-12T11:28:16Z</time>
      </trkpt>
      <trkpt lat="45.98947" lon="4.62557">
        <ele>361</ele>
        <time>2016-11-12T11:28:17Z</time>
      </trkpt>
      <trkpt lat="45.98938" lon="4.62552">
        <ele>361</ele>
        <time>2016-11-12T11:28:18Z</time>
      </trkpt>
      <trkpt lat="45.98929" lon="4.62546">
        <ele>361</ele>
        <time>2016-11-12T11:28:19Z</time>
      </trkpt>
      <trkpt lat="45.98921" lon="4.62541">
        <ele>361</ele>
        <time>2016-11-12T11:28:20Z</time>
      </trkpt>
      <trkpt lat="45.98913" lon="4.62536">
        <ele>355</ele>
        <time>2016-11-12T11:28:21Z</time>
      </trkpt>
      <trkpt lat="45.98905" lon="4.62532">
        <ele>355</ele>
        <time>2016-11-12T11:28:22Z</time>
      </trkpt>
      <trkpt lat="45.98898" lon="4.62529">
        <ele>355</ele>
        <time>2016-11-12T11:28:23Z</time>
      </trkpt>
      <trkpt lat="45.98891" lon="4.62524">
        <ele>355</ele>
        <time>2016-11-12T11:28:24Z</time>
      </trkpt>
      <trkpt lat="45.98884" lon="4.6252">
        <ele>355</ele>
        <time>2016-11-12T11:28:25Z</time>
      </trkpt>
      <trkpt lat="45.98876" lon="4.62516">
        <ele>354</ele>
        <time>2016-11-12T11:28:26Z</time>
      </trkpt>
      <trkpt lat="45.98868" lon="4.62512">
        <ele>354</ele>
        <time>2016-11-12T11:28:27Z</time>
      </trkpt>
      <trkpt lat="45.9886" lon="4.62507">
        <ele>353</ele>
        <time>2016-11-12T11:28:28Z</time>
      </trkpt>
      <trkpt lat="45.98852" lon="4.62503">
        <ele>353</ele>
        <time>2016-11-12T11:28:29Z</time>
      </trkpt>
      <trkpt lat="45.98844" lon="4.62499">
        <ele>355</ele>
        <time>2016-11-12T11:28:30Z</time>
      </trkpt>
      <trkpt lat="45.98836" lon="4.62495">
        <ele>354</ele>
        <time>2016-11-12T11:28:31Z</time>
      </trkpt>
      <trkpt lat="45.98828" lon="4.62492">
        <ele>353</ele>
        <time>2016-11-12T11:28:32Z</time>
      </trkpt>
      <trkpt lat="45.9882" lon="4.62488">
        <ele>353</ele>
        <time>2016-11-12T11:28:33Z</time>
      </trkpt>
      <trkpt lat="45.98812" lon="4.62486">
        <ele>353</ele>
        <time>2016-11-12T11:28:34Z</time>
      </trkpt>
      <trkpt lat="45.98804" lon="4.62485">
        <ele>353</ele>
        <time>2016-11-12T11:28:35Z</time>
      </trkpt>
      <trkpt lat="45.98796" lon="4.62485">
        <ele>353</ele>
        <time>2016-11-12T11:28:36Z</time>
      </trkpt>
      <trkpt lat="45.98788" lon="4.62485">
        <ele>353</ele>
        <time>2016-11-12T11:28:37Z</time>
      </trkpt>
      <trkpt lat="45.9878" lon="4.62485">
        <ele>352</ele>
        <time>2016-11-12T11:28:38Z</time>
      </trkpt>
      <trkpt lat="45.98772" lon="4.62484">
        <ele>352</ele>
        <time>2016-11-12T11:28:39Z</time>
      </trkpt>
      <trkpt lat="45.98763" lon="4.62483">
        <ele>351</ele>
        <time>2016-11-12T11:28:40Z</time>
      </trkpt>
      <trkpt lat="45.98755" lon="4.62482">
        <ele>351</ele>
        <time>2016-11-12T11:28:41Z</time>
      </trkpt>
      <trkpt lat="45.98746" lon="4.62482">
        <ele>350</ele>
        <time>2016-11-12T11:28:42Z</time>
      </trkpt>
      <trkpt lat="45.98737" lon="4.62479">
        <ele>351</ele>
        <time>2016-11-12T11:28:43Z</time>
      </trkpt>
      <trkpt lat="45.9873" lon="4.6248">
        <ele>351</ele>
        <time>2016-11-12T11:28:44Z</time>
      </trkpt>
      <trkpt lat="45.98724" lon="4.62481">
        <ele>351</ele>
        <time>2016-11-12T11:28:45Z</time>
      </trkpt>
      <trkpt lat="45.9872" lon="4.62484">
        <ele>351</ele>
        <time>2016-11-12T11:28:46Z</time>
      </trkpt>
      <trkpt lat="45.98713" lon="4.6249">
        <ele>351</ele>
        <time>2016-11-12T11:28:48Z</time>
      </trkpt>
      <trkpt lat="45.98704" lon="4.62479">
        <ele>351</ele>
        <time>2016-11-12T11:28:49Z</time>
      </trkpt>
      <trkpt lat="45.987" lon="4.62478">
        <ele>351</ele>
        <time>2016-11-12T11:28:50Z</time>
      </trkpt>
      <trkpt lat="45.98694" lon="4.62478">
        <ele>351</ele>
        <time>2016-11-12T11:28:51Z</time>
      </trkpt>
      <trkpt lat="45.98686" lon="4.62479">
        <ele>351</ele>
        <time>2016-11-12T11:28:52Z</time>
      </trkpt>
      <trkpt lat="45.9868" lon="4.62479">
        <ele>351</ele>
        <time>2016-11-12T11:28:53Z</time>
      </trkpt>
      <trkpt lat="45.98674" lon="4.62481">
        <ele>351</ele>
        <time>2016-11-12T11:28:54Z</time>
      </trkpt>
      <trkpt lat="45.98668" lon="4.62483">
        <ele>350</ele>
        <time>2016-11-12T11:28:55Z</time>
      </trkpt>
      <trkpt lat="45.98662" lon="4.62485">
        <ele>351</ele>
        <time>2016-11-12T11:28:56Z</time>
      </trkpt>
      <trkpt lat="45.98655" lon="4.62487">
        <ele>351</ele>
        <time>2016-11-12T11:28:57Z</time>
      </trkpt>
      <trkpt lat="45.98642" lon="4.62487">
        <ele>352</ele>
        <time>2016-11-12T11:28:59Z</time>
      </trkpt>
      <trkpt lat="45.98637" lon="4.6249">
        <ele>352</ele>
        <time>2016-11-12T11:29:00Z</time>
      </trkpt>
      <trkpt lat="45.98632" lon="4.62492">
        <ele>352</ele>
        <time>2016-11-12T11:29:01Z</time>
      </trkpt>
      <trkpt lat="45.98626" lon="4.62494">
        <ele>352</ele>
        <time>2016-11-12T11:29:02Z</time>
      </trkpt>
      <trkpt lat="45.9862" lon="4.62495">
        <ele>352</ele>
        <time>2016-11-12T11:29:03Z</time>
      </trkpt>
      <trkpt lat="45.98615" lon="4.62497">
        <ele>352</ele>
        <time>2016-11-12T11:29:04Z</time>
      </trkpt>
      <trkpt lat="45.9861" lon="4.62498">
        <ele>352</ele>
        <time>2016-11-12T11:29:05Z</time>
      </trkpt>
      <trkpt lat="45.98604" lon="4.62499">
        <ele>351</ele>
        <time>2016-11-12T11:29:06Z</time>
      </trkpt>
      <trkpt lat="45.986" lon="4.625">
        <ele>351</ele>
        <time>2016-11-12T11:29:07Z</time>
      </trkpt>
      <trkpt lat="45.98595" lon="4.62501">
        <ele>347</ele>
        <time>2016-11-12T11:29:08Z</time>
      </trkpt>
      <trkpt lat="45.98591" lon="4.62501">
        <ele>347</ele>
        <time>2016-11-12T11:29:09Z</time>
      </trkpt>
      <trkpt lat="45.98582" lon="4.62503">
        <ele>349</ele>
        <time>2016-11-12T11:29:11Z</time>
      </trkpt>
      <trkpt lat="45.98577" lon="4.62505">
        <ele>348</ele>
        <time>2016-11-12T11:29:12Z</time>
      </trkpt>
      <trkpt lat="45.98569" lon="4.62506">
        <ele>348</ele>
        <time>2016-11-12T11:29:14Z</time>
      </trkpt>
      <trkpt lat="45.98565" lon="4.62507">
        <ele>348</ele>
        <time>2016-11-12T11:29:15Z</time>
      </trkpt>
      <trkpt lat="45.98558" lon="4.62509">
        <ele>348</ele>
        <time>2016-11-12T11:29:17Z</time>
      </trkpt>
      <trkpt lat="45.98554" lon="4.6251">
        <ele>348</ele>
        <time>2016-11-12T11:29:18Z</time>
      </trkpt>
      <trkpt lat="45.98547" lon="4.62512">
        <ele>348</ele>
        <time>2016-11-12T11:29:20Z</time>
      </trkpt>
      <trkpt lat="45.98544" lon="4.62513">
        <ele>348</ele>
        <time>2016-11-12T11:29:21Z</time>
      </trkpt>
      <trkpt lat="45.98537" lon="4.62515">
        <ele>349</ele>
        <time>2016-11-12T11:29:23Z</time>
      </trkpt>
      <trkpt lat="45.98534" lon="4.62515">
        <ele>349</ele>
        <time>2016-11-12T11:29:24Z</time>
      </trkpt>
      <trkpt lat="45.98528" lon="4.62517">
        <ele>349</ele>
        <time>2016-11-12T11:29:26Z</time>
      </trkpt>
      <trkpt lat="45.98524" lon="4.62518">
        <ele>349</ele>
        <time>2016-11-12T11:29:27Z</time>
      </trkpt>
      <trkpt lat="45.98518" lon="4.6252">
        <ele>350</ele>
        <time>2016-11-12T11:29:29Z</time>
      </trkpt>
      <trkpt lat="45.98515" lon="4.62521">
        <ele>350</ele>
        <time>2016-11-12T11:29:30Z</time>
      </trkpt>
      <trkpt lat="45.98507" lon="4.62523">
        <ele>350</ele>
        <time>2016-11-12T11:29:33Z</time>
      </trkpt>
      <trkpt lat="45.98505" lon="4.62522">
        <ele>350</ele>
        <time>2016-11-12T11:29:34Z</time>
      </trkpt>
      <trkpt lat="45.98499" lon="4.62522">
        <ele>354</ele>
        <time>2016-11-12T11:29:36Z</time>
      </trkpt>
      <trkpt lat="45.98496" lon="4.62523">
        <ele>354</ele>
        <time>2016-11-12T11:29:37Z</time>
      </trkpt>
      <trkpt lat="45.98489" lon="4.62524">
        <ele>354</ele>
        <time>2016-11-12T11:29:39Z</time>
      </trkpt>
      <trkpt lat="45.98486" lon="4.62524">
        <ele>354</ele>
        <time>2016-11-12T11:29:40Z</time>
      </trkpt>
      <trkpt lat="45.98478" lon="4.62524">
        <ele>354</ele>
        <time>2016-11-12T11:29:43Z</time>
      </trkpt>
      <trkpt lat="45.98475" lon="4.62524">
        <ele>354</ele>
        <time>2016-11-12T11:29:44Z</time>
      </trkpt>
      <trkpt lat="45.98468" lon="4.6252">
        <ele>355</ele>
        <time>2016-11-12T11:29:47Z</time>
      </trkpt>
      <trkpt lat="45.98465" lon="4.6252">
        <ele>355</ele>
        <time>2016-11-12T11:29:48Z</time>
      </trkpt>
      <trkpt lat="45.98456" lon="4.62517">
        <ele>355</ele>
        <time>2016-11-12T11:29:51Z</time>
      </trkpt>
      <trkpt lat="45.98453" lon="4.62515">
        <ele>355</ele>
        <time>2016-11-12T11:29:52Z</time>
      </trkpt>
      <trkpt lat="45.98445" lon="4.6251">
        <ele>356</ele>
        <time>2016-11-12T11:29:55Z</time>
      </trkpt>
      <trkpt lat="45.98442" lon="4.62509">
        <ele>357</ele>
        <time>2016-11-12T11:29:56Z</time>
      </trkpt>
      <trkpt lat="45.98434" lon="4.62502">
        <ele>358</ele>
        <time>2016-11-12T11:29:59Z</time>
      </trkpt>
      <trkpt lat="45.98432" lon="4.625">
        <ele>361</ele>
        <time>2016-11-12T11:30:00Z</time>
      </trkpt>
      <trkpt lat="45.98425" lon="4.62492">
        <ele>361</ele>
        <time>2016-11-12T11:30:03Z</time>
      </trkpt>
      <trkpt lat="45.98423" lon="4.62489">
        <ele>361</ele>
        <time>2016-11-12T11:30:04Z</time>
      </trkpt>
      <trkpt lat="45.98416" lon="4.62483">
        <ele>361</ele>
        <time>2016-11-12T11:30:07Z</time>
      </trkpt>
      <trkpt lat="45.98414" lon="4.62481">
        <ele>362</ele>
        <time>2016-11-12T11:30:08Z</time>
      </trkpt>
      <trkpt lat="45.98407" lon="4.62474">
        <ele>362</ele>
        <time>2016-11-12T11:30:11Z</time>
      </trkpt>
      <trkpt lat="45.98405" lon="4.62471">
        <ele>362</ele>
        <time>2016-11-12T11:30:12Z</time>
      </trkpt>
      <trkpt lat="45.98399" lon="4.62463">
        <ele>362</ele>
        <time>2016-11-12T11:30:15Z</time>
      </trkpt>
      <trkpt lat="45.98398" lon="4.62461">
        <ele>362</ele>
        <time>2016-11-12T11:30:16Z</time>
      </trkpt>
      <trkpt lat="45.98393" lon="4.62453">
        <ele>362</ele>
        <time>2016-11-12T11:30:19Z</time>
      </trkpt>
      <trkpt lat="45.98391" lon="4.62451">
        <ele>362</ele>
        <time>2016-11-12T11:30:20Z</time>
      </trkpt>
      <trkpt lat="45.98386" lon="4.62443">
        <ele>362</ele>
        <time>2016-11-12T11:30:23Z</time>
      </trkpt>
      <trkpt lat="45.98385" lon="4.62441">
        <ele>362</ele>
        <time>2016-11-12T11:30:24Z</time>
      </trkpt>
      <trkpt lat="45.98379" lon="4.62432">
        <ele>362</ele>
        <time>2016-11-12T11:30:27Z</time>
      </trkpt>
      <trkpt lat="45.98377" lon="4.62429">
        <ele>362</ele>
        <time>2016-11-12T11:30:28Z</time>
      </trkpt>
      <trkpt lat="45.98372" lon="4.62422">
        <ele>363</ele>
        <time>2016-11-12T11:30:31Z</time>
      </trkpt>
      <trkpt lat="45.9837" lon="4.62419">
        <ele>363</ele>
        <time>2016-11-12T11:30:32Z</time>
      </trkpt>
      <trkpt lat="45.98364" lon="4.6241">
        <ele>365</ele>
        <time>2016-11-12T11:30:35Z</time>
      </trkpt>
      <trkpt lat="45.98362" lon="4.62407">
        <ele>365</ele>
        <time>2016-11-12T11:30:36Z</time>
      </trkpt>
      <trkpt lat="45.98358" lon="4.62401">
        <ele>365</ele>
        <time>2016-11-12T11:30:38Z</time>
      </trkpt>
      <trkpt lat="45.98356" lon="4.62398">
        <ele>365</ele>
        <time>2016-11-12T11:30:39Z</time>
      </trkpt>
      <trkpt lat="45.98351" lon="4.62391">
        <ele>365</ele>
        <time>2016-11-12T11:30:41Z</time>
      </trkpt>
      <trkpt lat="45.98349" lon="4.62387">
        <ele>365</ele>
        <time>2016-11-12T11:30:42Z</time>
      </trkpt>
      <trkpt lat="45.98345" lon="4.62379">
        <ele>365</ele>
        <time>2016-11-12T11:30:44Z</time>
      </trkpt>
      <trkpt lat="45.98342" lon="4.62375">
        <ele>365</ele>
        <time>2016-11-12T11:30:45Z</time>
      </trkpt>
      <trkpt lat="45.98339" lon="4.62368">
        <ele>365</ele>
        <time>2016-11-12T11:30:47Z</time>
      </trkpt>
      <trkpt lat="45.98338" lon="4.62363">
        <ele>365</ele>
        <time>2016-11-12T11:30:48Z</time>
      </trkpt>
      <trkpt lat="45.98335" lon="4.62354">
        <ele>365</ele>
        <time>2016-11-12T11:30:50Z</time>
      </trkpt>
      <trkpt lat="45.98333" lon="4.62349">
        <ele>362</ele>
        <time>2016-11-12T11:30:51Z</time>
      </trkpt>
      <trkpt lat="45.98329" lon="4.6234">
        <ele>363</ele>
        <time>2016-11-12T11:30:53Z</time>
      </trkpt>
      <trkpt lat="45.98327" lon="4.62334">
        <ele>363</ele>
        <time>2016-11-12T11:30:54Z</time>
      </trkpt>
      <trkpt lat="45.98324" lon="4.62328">
        <ele>362</ele>
        <time>2016-11-12T11:30:55Z</time>
      </trkpt>
      <trkpt lat="45.98321" lon="4.62322">
        <ele>361</ele>
        <time>2016-11-12T11:30:56Z</time>
      </trkpt>
      <trkpt lat="45.98319" lon="4.62315">
        <ele>361</ele>
        <time>2016-11-12T11:30:57Z</time>
      </trkpt>
      <trkpt lat="45.98316" lon="4.62308">
        <ele>360</ele>
        <time>2016-11-12T11:30:58Z</time>
      </trkpt>
      <trkpt lat="45.98313" lon="4.62301">
        <ele>360</ele>
        <time>2016-11-12T11:30:59Z</time>
      </trkpt>
      <trkpt lat="45.98311" lon="4.62293">
        <ele>359</ele>
        <time>2016-11-12T11:31:00Z</time>
      </trkpt>
      <trkpt lat="45.98308" lon="4.62285">
        <ele>359</ele>
        <time>2016-11-12T11:31:01Z</time>
      </trkpt>
      <trkpt lat="45.98307" lon="4.62276">
        <ele>359</ele>
        <time>2016-11-12T11:31:02Z</time>
      </trkpt>
      <trkpt lat="45.98306" lon="4.62267">
        <ele>359</ele>
        <time>2016-11-12T11:31:03Z</time>
      </trkpt>
      <trkpt lat="45.98305" lon="4.62257">
        <ele>359</ele>
        <time>2016-11-12T11:31:04Z</time>
      </trkpt>
      <trkpt lat="45.98304" lon="4.62247">
        <ele>358</ele>
        <time>2016-11-12T11:31:05Z</time>
      </trkpt>
      <trkpt lat="45.98304" lon="4.62236">
        <ele>357</ele>
        <time>2016-11-12T11:31:06Z</time>
      </trkpt>
      <trkpt lat="45.98303" lon="4.62226">
        <ele>357</ele>
        <time>2016-11-12T11:31:07Z</time>
      </trkpt>
      <trkpt lat="45.98302" lon="4.62214">
        <ele>357</ele>
        <time>2016-11-12T11:31:08Z</time>
      </trkpt>
      <trkpt lat="45.98301" lon="4.62203">
        <ele>356</ele>
        <time>2016-11-12T11:31:09Z</time>
      </trkpt>
      <trkpt lat="45.98299" lon="4.62191">
        <ele>356</ele>
        <time>2016-11-12T11:31:10Z</time>
      </trkpt>
      <trkpt lat="45.98298" lon="4.62179">
        <ele>356</ele>
        <time>2016-11-12T11:31:11Z</time>
      </trkpt>
      <trkpt lat="45.98297" lon="4.62166">
        <ele>356</ele>
        <time>2016-11-12T11:31:12Z</time>
      </trkpt>
      <trkpt lat="45.98296" lon="4.62154">
        <ele>356</ele>
        <time>2016-11-12T11:31:13Z</time>
      </trkpt>
      <trkpt lat="45.98295" lon="4.62141">
        <ele>356</ele>
        <time>2016-11-12T11:31:14Z</time>
      </trkpt>
      <trkpt lat="45.98294" lon="4.62128">
        <ele>356</ele>
        <time>2016-11-12T11:31:15Z</time>
      </trkpt>
      <trkpt lat="45.98292" lon="4.62116">
        <ele>356</ele>
        <time>2016-11-12T11:31:16Z</time>
      </trkpt>
      <trkpt lat="45.9829" lon="4.62104">
        <ele>357</ele>
        <time>2016-11-12T11:31:17Z</time>
      </trkpt>
      <trkpt lat="45.98287" lon="4.62093">
        <ele>356</ele>
        <time>2016-11-12T11:31:18Z</time>
      </trkpt>
      <trkpt lat="45.98284" lon="4.62084">
        <ele>356</ele>
        <time>2016-11-12T11:31:19Z</time>
      </trkpt>
      <trkpt lat="45.9828" lon="4.62076">
        <ele>359</ele>
        <time>2016-11-12T11:31:20Z</time>
      </trkpt>
      <trkpt lat="45.98276" lon="4.6207">
        <ele>359</ele>
        <time>2016-11-12T11:31:21Z</time>
      </trkpt>
      <trkpt lat="45.98272" lon="4.62065">
        <ele>359</ele>
        <time>2016-11-12T11:31:22Z</time>
      </trkpt>
      <trkpt lat="45.98268" lon="4.62062">
        <ele>359</ele>
        <time>2016-11-12T11:31:23Z</time>
      </trkpt>
      <trkpt lat="45.98264" lon="4.62058">
        <ele>359</ele>
        <time>2016-11-12T11:31:24Z</time>
      </trkpt>
      <trkpt lat="45.98257" lon="4.62053">
        <ele>359</ele>
        <time>2016-11-12T11:31:26Z</time>
      </trkpt>
      <trkpt lat="45.98254" lon="4.6205">
        <ele>360</ele>
        <time>2016-11-12T11:31:27Z</time>
      </trkpt>
      <trkpt lat="45.98248" lon="4.62045">
        <ele>356</ele>
        <time>2016-11-12T11:31:29Z</time>
      </trkpt>
      <trkpt lat="45.98244" lon="4.62043">
        <ele>356</ele>
        <time>2016-11-12T11:31:30Z</time>
      </trkpt>
      <trkpt lat="45.98239" lon="4.62037">
        <ele>357</ele>
        <time>2016-11-12T11:31:32Z</time>
      </trkpt>
      <trkpt lat="45.98236" lon="4.62034">
        <ele>357</ele>
        <time>2016-11-12T11:31:33Z</time>
      </trkpt>
      <trkpt lat="45.98229" lon="4.62029">
        <ele>357</ele>
        <time>2016-11-12T11:31:35Z</time>
      </trkpt>
      <trkpt lat="45.98225" lon="4.62027">
        <ele>357</ele>
        <time>2016-11-12T11:31:36Z</time>
      </trkpt>
      <trkpt lat="45.98219" lon="4.62021">
        <ele>357</ele>
        <time>2016-11-12T11:31:38Z</time>
      </trkpt>
      <trkpt lat="45.98216" lon="4.62018">
        <ele>357</ele>
        <time>2016-11-12T11:31:39Z</time>
      </trkpt>
      <trkpt lat="45.9821" lon="4.62012">
        <ele>357</ele>
        <time>2016-11-12T11:31:41Z</time>
      </trkpt>
      <trkpt lat="45.98207" lon="4.6201">
        <ele>357</ele>
        <time>2016-11-12T11:31:42Z</time>
      </trkpt>
      <trkpt lat="45.982" lon="4.62003">
        <ele>356</ele>
        <time>2016-11-12T11:31:45Z</time>
      </trkpt>
      <trkpt lat="45.98198" lon="4.61999">
        <ele>362</ele>
        <time>2016-11-12T11:31:46Z</time>
      </trkpt>
      <trkpt lat="45.98193" lon="4.61992">
        <ele>362</ele>
        <time>2016-11-12T11:31:48Z</time>
      </trkpt>
      <trkpt lat="45.9819" lon="4.61989">
        <ele>362</ele>
        <time>2016-11-12T11:31:49Z</time>
      </trkpt>
      <trkpt lat="45.98185" lon="4.61982">
        <ele>362</ele>
        <time>2016-11-12T11:31:51Z</time>
      </trkpt>
      <trkpt lat="45.98183" lon="4.61978">
        <ele>362</ele>
        <time>2016-11-12T11:31:52Z</time>
      </trkpt>
      <trkpt lat="45.98179" lon="4.61971">
        <ele>363</ele>
        <time>2016-11-12T11:31:54Z</time>
      </trkpt>
      <trkpt lat="45.98176" lon="4.61968">
        <ele>363</ele>
        <time>2016-11-12T11:31:55Z</time>
      </trkpt>
      <trkpt lat="45.98172" lon="4.61962">
        <ele>364</ele>
        <time>2016-11-12T11:31:57Z</time>
      </trkpt>
      <trkpt lat="45.9817" lon="4.61959">
        <ele>364</ele>
        <time>2016-11-12T11:31:58Z</time>
      </trkpt>
      <trkpt lat="45.98164" lon="4.61951">
        <ele>358</ele>
        <time>2016-11-12T11:32:01Z</time>
      </trkpt>
      <trkpt lat="45.98162" lon="4.61948">
        <ele>358</ele>
        <time>2016-11-12T11:32:02Z</time>
      </trkpt>
      <trkpt lat="45.98158" lon="4.61938">
        <ele>359</ele>
        <time>2016-11-12T11:32:05Z</time>
      </trkpt>
      <trkpt lat="45.98156" lon="4.61935">
        <ele>360</ele>
        <time>2016-11-12T11:32:06Z</time>
      </trkpt>
      <trkpt lat="45.9815" lon="4.61927">
        <ele>360</ele>
        <time>2016-11-12T11:32:09Z</time>
      </trkpt>
      <trkpt lat="45.98148" lon="4.61925">
        <ele>360</ele>
        <time>2016-11-12T11:32:10Z</time>
      </trkpt>
      <trkpt lat="45.98143" lon="4.61916">
        <ele>365</ele>
        <time>2016-11-12T11:32:13Z</time>
      </trkpt>
      <trkpt lat="45.98141" lon="4.61913">
        <ele>365</ele>
        <time>2016-11-12T11:32:14Z</time>
      </trkpt>
      <trkpt lat="45.98135" lon="4.61905">
        <ele>364</ele>
        <time>2016-11-12T11:32:17Z</time>
      </trkpt>
      <trkpt lat="45.98133" lon="4.61902">
        <ele>364</ele>
        <time>2016-11-12T11:32:18Z</time>
      </trkpt>
      <trkpt lat="45.98129" lon="4.61895">
        <ele>364</ele>
        <time>2016-11-12T11:32:20Z</time>
      </trkpt>
      <trkpt lat="45.98126" lon="4.61891">
        <ele>364</ele>
        <time>2016-11-12T11:32:21Z</time>
      </trkpt>
      <trkpt lat="45.98121" lon="4.61884">
        <ele>364</ele>
        <time>2016-11-12T11:32:23Z</time>
      </trkpt>
      <trkpt lat="45.98119" lon="4.61881">
        <ele>364</ele>
        <time>2016-11-12T11:32:24Z</time>
      </trkpt>
      <trkpt lat="45.98114" lon="4.61874">
        <ele>364</ele>
        <time>2016-11-12T11:32:26Z</time>
      </trkpt>
      <trkpt lat="45.98112" lon="4.6187">
        <ele>364</ele>
        <time>2016-11-12T11:32:27Z</time>
      </trkpt>
      <trkpt lat="45.98107" lon="4.61862">
        <ele>364</ele>
        <time>2016-11-12T11:32:29Z</time>
      </trkpt>
      <trkpt lat="45.98104" lon="4.61858">
        <ele>364</ele>
        <time>2016-11-12T11:32:30Z</time>
      </trkpt>
      <trkpt lat="45.98098" lon="4.61849">
        <ele>363</ele>
        <time>2016-11-12T11:32:32Z</time>
      </trkpt>
      <trkpt lat="45.98096" lon="4.61845">
        <ele>363</ele>
        <time>2016-11-12T11:32:33Z</time>
      </trkpt>
      <trkpt lat="45.98092" lon="4.61837">
        <ele>363</ele>
        <time>2016-11-12T11:32:35Z</time>
      </trkpt>
      <trkpt lat="45.98089" lon="4.61833">
        <ele>364</ele>
        <time>2016-11-12T11:32:36Z</time>
      </trkpt>
      <trkpt lat="45.98085" lon="4.61824">
        <ele>365</ele>
        <time>2016-11-12T11:32:38Z</time>
      </trkpt>
      <trkpt lat="45.98083" lon="4.6182">
        <ele>359</ele>
        <time>2016-11-12T11:32:39Z</time>
      </trkpt>
      <trkpt lat="45.98079" lon="4.6181">
        <ele>358</ele>
        <time>2016-11-12T11:32:41Z</time>
      </trkpt>
      <trkpt lat="45.98077" lon="4.61805">
        <ele>358</ele>
        <time>2016-11-12T11:32:42Z</time>
      </trkpt>
      <trkpt lat="45.98072" lon="4.61795">
        <ele>358</ele>
        <time>2016-11-12T11:32:44Z</time>
      </trkpt>
      <trkpt lat="45.9807" lon="4.61789">
        <ele>358</ele>
        <time>2016-11-12T11:32:45Z</time>
      </trkpt>
      <trkpt lat="45.98068" lon="4.61784">
        <ele>358</ele>
        <time>2016-11-12T11:32:46Z</time>
      </trkpt>
      <trkpt lat="45.98065" lon="4.61778">
        <ele>358</ele>
        <time>2016-11-12T11:32:47Z</time>
      </trkpt>
      <trkpt lat="45.98062" lon="4.61766">
        <ele>359</ele>
        <time>2016-11-12T11:32:49Z</time>
      </trkpt>
      <trkpt lat="45.98061" lon="4.61761">
        <ele>359</ele>
        <time>2016-11-12T11:32:50Z</time>
      </trkpt>
      <trkpt lat="45.98059" lon="4.6175">
        <ele>362</ele>
        <time>2016-11-12T11:32:52Z</time>
      </trkpt>
      <trkpt lat="45.98059" lon="4.61744">
        <ele>362</ele>
        <time>2016-11-12T11:32:53Z</time>
      </trkpt>
      <trkpt lat="45.98058" lon="4.61732">
        <ele>362</ele>
        <time>2016-11-12T11:32:55Z</time>
      </trkpt>
      <trkpt lat="45.98057" lon="4.61726">
        <ele>361</ele>
        <time>2016-11-12T11:32:56Z</time>
      </trkpt>
      <trkpt lat="45.98057" lon="4.61714">
        <ele>361</ele>
        <time>2016-11-12T11:32:58Z</time>
      </trkpt>
      <trkpt lat="45.98057" lon="4.61709">
        <ele>361</ele>
        <time>2016-11-12T11:32:59Z</time>
      </trkpt>
      <trkpt lat="45.98058" lon="4.61697">
        <ele>361</ele>
        <time>2016-11-12T11:33:01Z</time>
      </trkpt>
      <trkpt lat="45.98059" lon="4.61691">
        <ele>362</ele>
        <time>2016-11-12T11:33:02Z</time>
      </trkpt>
      <trkpt lat="45.9806" lon="4.61685">
        <ele>362</ele>
        <time>2016-11-12T11:33:03Z</time>
      </trkpt>
      <trkpt lat="45.9806" lon="4.61678">
        <ele>362</ele>
        <time>2016-11-12T11:33:04Z</time>
      </trkpt>
      <trkpt lat="45.98061" lon="4.61666">
        <ele>361</ele>
        <time>2016-11-12T11:33:06Z</time>
      </trkpt>
      <trkpt lat="45.98062" lon="4.6166">
        <ele>361</ele>
        <time>2016-11-12T11:33:07Z</time>
      </trkpt>
      <trkpt lat="45.98064" lon="4.61648">
        <ele>361</ele>
        <time>2016-11-12T11:33:09Z</time>
      </trkpt>
      <trkpt lat="45.98066" lon="4.61642">
        <ele>360</ele>
        <time>2016-11-12T11:33:10Z</time>
      </trkpt>
      <trkpt lat="45.98069" lon="4.61631">
        <ele>359</ele>
        <time>2016-11-12T11:33:12Z</time>
      </trkpt>
      <trkpt lat="45.9807" lon="4.61625">
        <ele>359</ele>
        <time>2016-11-12T11:33:13Z</time>
      </trkpt>
      <trkpt lat="45.98074" lon="4.61614">
        <ele>359</ele>
        <time>2016-11-12T11:33:15Z</time>
      </trkpt>
      <trkpt lat="45.98076" lon="4.61608">
        <ele>359</ele>
        <time>2016-11-12T11:33:16Z</time>
      </trkpt>
      <trkpt lat="45.98078" lon="4.61603">
        <ele>360</ele>
        <time>2016-11-12T11:33:17Z</time>
      </trkpt>
      <trkpt lat="45.9808" lon="4.61597">
        <ele>360</ele>
        <time>2016-11-12T11:33:18Z</time>
      </trkpt>
      <trkpt lat="45.98083" lon="4.6159">
        <ele>361</ele>
        <time>2016-11-12T11:33:19Z</time>
      </trkpt>
      <trkpt lat="45.98086" lon="4.61584">
        <ele>364</ele>
        <time>2016-11-12T11:33:20Z</time>
      </trkpt>
      <trkpt lat="45.98089" lon="4.61578">
        <ele>364</ele>
        <time>2016-11-12T11:33:21Z</time>
      </trkpt>
      <trkpt lat="45.98092" lon="4.61571">
        <ele>364</ele>
        <time>2016-11-12T11:33:22Z</time>
      </trkpt>
      <trkpt lat="45.98095" lon="4.61564">
        <ele>364</ele>
        <time>2016-11-12T11:33:23Z</time>
      </trkpt>
      <trkpt lat="45.98099" lon="4.61557">
        <ele>364</ele>
        <time>2016-11-12T11:33:24Z</time>
      </trkpt>
      <trkpt lat="45.98103" lon="4.6155">
        <ele>364</ele>
        <time>2016-11-12T11:33:25Z</time>
      </trkpt>
      <trkpt lat="45.98107" lon="4.61542">
        <ele>364</ele>
        <time>2016-11-12T11:33:26Z</time>
      </trkpt>
      <trkpt lat="45.98111" lon="4.61535">
        <ele>363</ele>
        <time>2016-11-12T11:33:27Z</time>
      </trkpt>
      <trkpt lat="45.98116" lon="4.61527">
        <ele>363</ele>
        <time>2016-11-12T11:33:28Z</time>
      </trkpt>
      <trkpt lat="45.9812" lon="4.6152">
        <ele>363</ele>
        <time>2016-11-12T11:33:29Z</time>
      </trkpt>
      <trkpt lat="45.98124" lon="4.61511">
        <ele>363</ele>
        <time>2016-11-12T11:33:30Z</time>
      </trkpt>
      <trkpt lat="45.98129" lon="4.61503">
        <ele>364</ele>
        <time>2016-11-12T11:33:31Z</time>
      </trkpt>
      <trkpt lat="45.98133" lon="4.61495">
        <ele>360</ele>
        <time>2016-11-12T11:33:32Z</time>
      </trkpt>
      <trkpt lat="45.98137" lon="4.61486">
        <ele>361</ele>
        <time>2016-11-12T11:33:33Z</time>
      </trkpt>
      <trkpt lat="45.98142" lon="4.61478">
        <ele>361</ele>
        <time>2016-11-12T11:33:34Z</time>
      </trkpt>
      <trkpt lat="45.98148" lon="4.6147">
        <ele>361</ele>
        <time>2016-11-12T11:33:35Z</time>
      </trkpt>
      <trkpt lat="45.98153" lon="4.61463">
        <ele>361</ele>
        <time>2016-11-12T11:33:36Z</time>
      </trkpt>
      <trkpt lat="45.98159" lon="4.61457">
        <ele>361</ele>
        <time>2016-11-12T11:33:37Z</time>
      </trkpt>
      <trkpt lat="45.98165" lon="4.61451">
        <ele>361</ele>
        <time>2016-11-12T11:33:38Z</time>
      </trkpt>
      <trkpt lat="45.98172" lon="4.61445">
        <ele>368</ele>
        <time>2016-11-12T11:33:39Z</time>
      </trkpt>
      <trkpt lat="45.98178" lon="4.61441">
        <ele>368</ele>
        <time>2016-11-12T11:33:40Z</time>
      </trkpt>
      <trkpt lat="45.98183" lon="4.61438">
        <ele>368</ele>
        <time>2016-11-12T11:33:41Z</time>
      </trkpt>
      <trkpt lat="45.98188" lon="4.61435">
        <ele>368</ele>
        <time>2016-11-12T11:33:42Z</time>
      </trkpt>
      <trkpt lat="45.98193" lon="4.61434">
        <ele>369</ele>
        <time>2016-11-12T11:33:43Z</time>
      </trkpt>
      <trkpt lat="45.98198" lon="4.61432">
        <ele>369</ele>
        <time>2016-11-12T11:33:44Z</time>
      </trkpt>
      <trkpt lat="45.98206" lon="4.6143">
        <ele>370</ele>
        <time>2016-11-12T11:33:46Z</time>
      </trkpt>
      <trkpt lat="45.98209" lon="4.61429">
        <ele>370</ele>
        <time>2016-11-12T11:33:47Z</time>
      </trkpt>
      <trkpt lat="45.98216" lon="4.61426">
        <ele>370</ele>
        <time>2016-11-12T11:33:49Z</time>
      </trkpt>
      <trkpt lat="45.98219" lon="4.61424">
        <ele>370</ele>
        <time>2016-11-12T11:33:50Z</time>
      </trkpt>
      <trkpt lat="45.98226" lon="4.6142">
        <ele>371</ele>
        <time>2016-11-12T11:33:52Z</time>
      </trkpt>
      <trkpt lat="45.98229" lon="4.61417">
        <ele>371</ele>
        <time>2016-11-12T11:33:53Z</time>
      </trkpt>
      <trkpt lat="45.98235" lon="4.61409">
        <ele>370</ele>
        <time>2016-11-12T11:33:55Z</time>
      </trkpt>
      <trkpt lat="45.98237" lon="4.61405">
        <ele>370</ele>
        <time>2016-11-12T11:33:56Z</time>
      </trkpt>
      <trkpt lat="45.9824" lon="4.61394">
        <ele>370</ele>
        <time>2016-11-12T11:33:58Z</time>
      </trkpt>
      <trkpt lat="45.98242" lon="4.61389">
        <ele>370</ele>
        <time>2016-11-12T11:33:59Z</time>
      </trkpt>
      <trkpt lat="45.98244" lon="4.6138">
        <ele>370</ele>
        <time>2016-11-12T11:34:01Z</time>
      </trkpt>
      <trkpt lat="45.98245" lon="4.61375">
        <ele>370</ele>
        <time>2016-11-12T11:34:02Z</time>
      </trkpt>
      <trkpt lat="45.98244" lon="4.61365">
        <ele>371</ele>
        <time>2016-11-12T11:34:04Z</time>
      </trkpt>
      <trkpt lat="45.98242" lon="4.61361">
        <ele>371</ele>
        <time>2016-11-12T11:34:05Z</time>
      </trkpt>
      <trkpt lat="45.98238" lon="4.61352">
        <ele>371</ele>
        <time>2016-11-12T11:34:07Z</time>
      </trkpt>
      <trkpt lat="45.98235" lon="4.61348">
        <ele>371</ele>
        <time>2016-11-12T11:34:08Z</time>
      </trkpt>
      <trkpt lat="45.98229" lon="4.61342">
        <ele>371</ele>
        <time>2016-11-12T11:34:10Z</time>
      </trkpt>
      <trkpt lat="45.98225" lon="4.61339">
        <ele>371</ele>
        <time>2016-11-12T11:34:11Z</time>
      </trkpt>
      <trkpt lat="45.98218" lon="4.61336">
        <ele>370</ele>
        <time>2016-11-12T11:34:13Z</time>
      </trkpt>
      <trkpt lat="45.98214" lon="4.61334">
        <ele>370</ele>
        <time>2016-11-12T11:34:14Z</time>
      </trkpt>
      <trkpt lat="45.98207" lon="4.61333">
        <ele>376</ele>
        <time>2016-11-12T11:34:16Z</time>
      </trkpt>
      <trkpt lat="45.98203" lon="4.61332">
        <ele>376</ele>
        <time>2016-11-12T11:34:17Z</time>
      </trkpt>
      <trkpt lat="45.98194" lon="4.61329">
        <ele>375</ele>
        <time>2016-11-12T11:34:19Z</time>
      </trkpt>
      <trkpt lat="45.9819" lon="4.61328">
        <ele>375</ele>
        <time>2016-11-12T11:34:20Z</time>
      </trkpt>
      <trkpt lat="45.98181" lon="4.61326">
        <ele>374</ele>
        <time>2016-11-12T11:34:22Z</time>
      </trkpt>
      <trkpt lat="45.98178" lon="4.61325">
        <ele>373</ele>
        <time>2016-11-12T11:34:23Z</time>
      </trkpt>
      <trkpt lat="45.98171" lon="4.61321">
        <ele>373</ele>
        <time>2016-11-12T11:34:25Z</time>
      </trkpt>
      <trkpt lat="45.98168" lon="4.6132">
        <ele>373</ele>
        <time>2016-11-12T11:34:26Z</time>
      </trkpt>
      <trkpt lat="45.98161" lon="4.61318">
        <ele>372</ele>
        <time>2016-11-12T11:34:28Z</time>
      </trkpt>
      <trkpt lat="45.98158" lon="4.61318">
        <ele>372</ele>
        <time>2016-11-12T11:34:29Z</time>
      </trkpt>
      <trkpt lat="45.98152" lon="4.61317">
        <ele>372</ele>
        <time>2016-11-12T11:34:31Z</time>
      </trkpt>
      <trkpt lat="45.98148" lon="4.61317">
        <ele>372</ele>
        <time>2016-11-12T11:34:32Z</time>
      </trkpt>
      <trkpt lat="45.98142" lon="4.61315">
        <ele>372</ele>
        <time>2016-11-12T11:34:34Z</time>
      </trkpt>
      <trkpt lat="45.98139" lon="4.61314">
        <ele>373</ele>
        <time>2016-11-12T11:34:35Z</time>
      </trkpt>
      <trkpt lat="45.98132" lon="4.61312">
        <ele>373</ele>
        <time>2016-11-12T11:34:37Z</time>
      </trkpt>
      <trkpt lat="45.98128" lon="4.61311">
        <ele>373</ele>
        <time>2016-11-12T11:34:38Z</time>
      </trkpt>
      <trkpt lat="45.98121" lon="4.61309">
        <ele>373</ele>
        <time>2016-11-12T11:34:40Z</time>
      </trkpt>
      <trkpt lat="45.98118" lon="4.61308">
        <ele>373</ele>
        <time>2016-11-12T11:34:41Z</time>
      </trkpt>
      <trkpt lat="45.98109" lon="4.61306">
        <ele>372</ele>
        <time>2016-11-12T11:34:44Z</time>
      </trkpt>
      <trkpt lat="45.98107" lon="4.61306">
        <ele>372</ele>
        <time>2016-11-12T11:34:45Z</time>
      </trkpt>
      <trkpt lat="45.981" lon="4.61303">
        <ele>372</ele>
        <time>2016-11-12T11:34:47Z</time>
      </trkpt>
      <trkpt lat="45.98097" lon="4.61302">
        <ele>372</ele>
        <time>2016-11-12T11:34:48Z</time>
      </trkpt>
      <trkpt lat="45.98091" lon="4.61301">
        <ele>372</ele>
        <time>2016-11-12T11:34:50Z</time>
      </trkpt>
      <trkpt lat="45.98088" lon="4.61301">
        <ele>372</ele>
        <time>2016-11-12T11:34:51Z</time>
      </trkpt>
      <trkpt lat="45.98082" lon="4.613">
        <ele>368</ele>
        <time>2016-11-12T11:34:53Z</time>
      </trkpt>
      <trkpt lat="45.98079" lon="4.61298">
        <ele>368</ele>
        <time>2016-11-12T11:34:54Z</time>
      </trkpt>
      <trkpt lat="45.98073" lon="4.61292">
        <ele>368</ele>
        <time>2016-11-12T11:34:56Z</time>
      </trkpt>
      <trkpt lat="45.98071" lon="4.61287">
        <ele>368</ele>
        <time>2016-11-12T11:34:57Z</time>
      </trkpt>
      <trkpt lat="45.98069" lon="4.61278">
        <ele>369</ele>
        <time>2016-11-12T11:34:59Z</time>
      </trkpt>
      <trkpt lat="45.98067" lon="4.61273">
        <ele>369</ele>
        <time>2016-11-12T11:35:00Z</time>
      </trkpt>
      <trkpt lat="45.98067" lon="4.61263">
        <ele>371</ele>
        <time>2016-11-12T11:35:02Z</time>
      </trkpt>
      <trkpt lat="45.98066" lon="4.61259">
        <ele>371</ele>
        <time>2016-11-12T11:35:03Z</time>
      </trkpt>
      <trkpt lat="45.98064" lon="4.61249">
        <ele>374</ele>
        <time>2016-11-12T11:35:05Z</time>
      </trkpt>
      <trkpt lat="45.98063" lon="4.61244">
        <ele>374</ele>
        <time>2016-11-12T11:35:06Z</time>
      </trkpt>
      <trkpt lat="45.98062" lon="4.61236">
        <ele>374</ele>
        <time>2016-11-12T11:35:08Z</time>
      </trkpt>
      <trkpt lat="45.98061" lon="4.61232">
        <ele>374</ele>
        <time>2016-11-12T11:35:09Z</time>
      </trkpt>
      <trkpt lat="45.98061" lon="4.61223">
        <ele>374</ele>
        <time>2016-11-12T11:35:11Z</time>
      </trkpt>
      <trkpt lat="45.9806" lon="4.61218">
        <ele>374</ele>
        <time>2016-11-12T11:35:12Z</time>
      </trkpt>
      <trkpt lat="45.98058" lon="4.61209">
        <ele>374</ele>
        <time>2016-11-12T11:35:14Z</time>
      </trkpt>
      <trkpt lat="45.98058" lon="4.61205">
        <ele>374</ele>
        <time>2016-11-12T11:35:15Z</time>
      </trkpt>
      <trkpt lat="45.98057" lon="4.61196">
        <ele>375</ele>
        <time>2016-11-12T11:35:17Z</time>
      </trkpt>
      <trkpt lat="45.98056" lon="4.61192">
        <ele>375</ele>
        <time>2016-11-12T11:35:18Z</time>
      </trkpt>
      <trkpt lat="45.98054" lon="4.61183">
        <ele>375</ele>
        <time>2016-11-12T11:35:20Z</time>
      </trkpt>
      <trkpt lat="45.98053" lon="4.61177">
        <ele>375</ele>
        <time>2016-11-12T11:35:21Z</time>
      </trkpt>
      <trkpt lat="45.98052" lon="4.61168">
        <ele>375</ele>
        <time>2016-11-12T11:35:23Z</time>
      </trkpt>
      <trkpt lat="45.98052" lon="4.61163">
        <ele>379</ele>
        <time>2016-11-12T11:35:24Z</time>
      </trkpt>
      <trkpt lat="45.98051" lon="4.61154">
        <ele>379</ele>
        <time>2016-11-12T11:35:26Z</time>
      </trkpt>
      <trkpt lat="45.98051" lon="4.6115">
        <ele>379</ele>
        <time>2016-11-12T11:35:27Z</time>
      </trkpt>
      <trkpt lat="45.9805" lon="4.61137">
        <ele>379</ele>
        <time>2016-11-12T11:35:30Z</time>
      </trkpt>
      <trkpt lat="45.9805" lon="4.61133">
        <ele>379</ele>
        <time>2016-11-12T11:35:31Z</time>
      </trkpt>
      <trkpt lat="45.9805" lon="4.61124">
        <ele>379</ele>
        <time>2016-11-12T11:35:33Z</time>
      </trkpt>
      <trkpt lat="45.98049" lon="4.61119">
        <ele>379</ele>
        <time>2016-11-12T11:35:34Z</time>
      </trkpt>
      <trkpt lat="45.98047" lon="4.61107">
        <ele>379</ele>
        <time>2016-11-12T11:35:37Z</time>
      </trkpt>
      <trkpt lat="45.98046" lon="4.61102">
        <ele>380</ele>
        <time>2016-11-12T11:35:38Z</time>
      </trkpt>
      <trkpt lat="45.98045" lon="4.61093">
        <ele>380</ele>
        <time>2016-11-12T11:35:40Z</time>
      </trkpt>
      <trkpt lat="45.98045" lon="4.61088">
        <ele>380</ele>
        <time>2016-11-12T11:35:41Z</time>
      </trkpt>
      <trkpt lat="45.98044" lon="4.61079">
        <ele>381</ele>
        <time>2016-11-12T11:35:43Z</time>
      </trkpt>
      <trkpt lat="45.98044" lon="4.61074">
        <ele>381</ele>
        <time>2016-11-12T11:35:44Z</time>
      </trkpt>
      <trkpt lat="45.98044" lon="4.61064">
        <ele>381</ele>
        <time>2016-11-12T11:35:46Z</time>
      </trkpt>
      <trkpt lat="45.98043" lon="4.61059">
        <ele>381</ele>
        <time>2016-11-12T11:35:47Z</time>
      </trkpt>
      <trkpt lat="45.98043" lon="4.61048">
        <ele>380</ele>
        <time>2016-11-12T11:35:49Z</time>
      </trkpt>
      <trkpt lat="45.98043" lon="4.61043">
        <ele>380</ele>
        <time>2016-11-12T11:35:50Z</time>
      </trkpt>
      <trkpt lat="45.98045" lon="4.61031">
        <ele>381</ele>
        <time>2016-11-12T11:35:52Z</time>
      </trkpt>
      <trkpt lat="45.98045" lon="4.61024">
        <ele>381</ele>
        <time>2016-11-12T11:35:53Z</time>
      </trkpt>
      <trkpt lat="45.98045" lon="4.61017">
        <ele>381</ele>
        <time>2016-11-12T11:35:54Z</time>
      </trkpt>
      <trkpt lat="45.98046" lon="4.6101">
        <ele>381</ele>
        <time>2016-11-12T11:35:55Z</time>
      </trkpt>
      <trkpt lat="45.98047" lon="4.61002">
        <ele>381</ele>
        <time>2016-11-12T11:35:56Z</time>
      </trkpt>
      <trkpt lat="45.98048" lon="4.60994">
        <ele>378</ele>
        <time>2016-11-12T11:35:57Z</time>
      </trkpt>
      <trkpt lat="45.9805" lon="4.60985">
        <ele>378</ele>
        <time>2016-11-12T11:35:58Z</time>
      </trkpt>
      <trkpt lat="45.98051" lon="4.60976">
        <ele>377</ele>
        <time>2016-11-12T11:35:59Z</time>
      </trkpt>
      <trkpt lat="45.98053" lon="4.60967">
        <ele>377</ele>
        <time>2016-11-12T11:36:00Z</time>
      </trkpt>
      <trkpt lat="45.98054" lon="4.60956">
        <ele>376</ele>
        <time>2016-11-12T11:36:01Z</time>
      </trkpt>
      <trkpt lat="45.98055" lon="4.60946">
        <ele>376</ele>
        <time>2016-11-12T11:36:02Z</time>
      </trkpt>
      <trkpt lat="45.98057" lon="4.60935">
        <ele>376</ele>
        <time>2016-11-12T11:36:03Z</time>
      </trkpt>
      <trkpt lat="45.98058" lon="4.60923">
        <ele>376</ele>
        <time>2016-11-12T11:36:04Z</time>
      </trkpt>
      <trkpt lat="45.98058" lon="4.60911">
        <ele>373</ele>
        <time>2016-11-12T11:36:05Z</time>
      </trkpt>
      <trkpt lat="45.9806" lon="4.609">
        <ele>372</ele>
        <time>2016-11-12T11:36:06Z</time>
      </trkpt>
      <trkpt lat="45.98062" lon="4.60888">
        <ele>372</ele>
        <time>2016-11-12T11:36:07Z</time>
      </trkpt>
      <trkpt lat="45.98062" lon="4.60876">
        <ele>372</ele>
        <time>2016-11-12T11:36:08Z</time>
      </trkpt>
      <trkpt lat="45.98063" lon="4.60865">
        <ele>372</ele>
        <time>2016-11-12T11:36:09Z</time>
      </trkpt>
      <trkpt lat="45.98063" lon="4.60855">
        <ele>372</ele>
        <time>2016-11-12T11:36:10Z</time>
      </trkpt>
      <trkpt lat="45.98063" lon="4.60845">
        <ele>372</ele>
        <time>2016-11-12T11:36:11Z</time>
      </trkpt>
      <trkpt lat="45.98061" lon="4.60835">
        <ele>372</ele>
        <time>2016-11-12T11:36:12Z</time>
      </trkpt>
      <trkpt lat="45.98058" lon="4.60827">
        <ele>371</ele>
        <time>2016-11-12T11:36:13Z</time>
      </trkpt>
      <trkpt lat="45.98053" lon="4.60821">
        <ele>370</ele>
        <time>2016-11-12T11:36:14Z</time>
      </trkpt>
      <trkpt lat="45.98047" lon="4.60816">
        <ele>370</ele>
        <time>2016-11-12T11:36:15Z</time>
      </trkpt>
      <trkpt lat="45.98041" lon="4.60812">
        <ele>369</ele>
        <time>2016-11-12T11:36:16Z</time>
      </trkpt>
      <trkpt lat="45.98036" lon="4.60808">
        <ele>369</ele>
        <time>2016-11-12T11:36:17Z</time>
      </trkpt>
      <trkpt lat="45.98031" lon="4.60802">
        <ele>368</ele>
        <time>2016-11-12T11:36:18Z</time>
      </trkpt>
      <trkpt lat="45.98027" lon="4.60796">
        <ele>368</ele>
        <time>2016-11-12T11:36:19Z</time>
      </trkpt>
      <trkpt lat="45.98024" lon="4.60788">
        <ele>368</ele>
        <time>2016-11-12T11:36:20Z</time>
      </trkpt>
      <trkpt lat="45.98024" lon="4.6078">
        <ele>368</ele>
        <time>2016-11-12T11:36:21Z</time>
      </trkpt>
      <trkpt lat="45.98025" lon="4.60772">
        <ele>368</ele>
        <time>2016-11-12T11:36:22Z</time>
      </trkpt>
      <trkpt lat="45.98028" lon="4.60765">
        <ele>368</ele>
        <time>2016-11-12T11:36:23Z</time>
      </trkpt>
      <trkpt lat="45.98031" lon="4.60758">
        <ele>368</ele>
        <time>2016-11-12T11:36:24Z</time>
      </trkpt>
      <trkpt lat="45.98035" lon="4.60752">
        <ele>368</ele>
        <time>2016-11-12T11:36:25Z</time>
      </trkpt>
      <trkpt lat="45.9804" lon="4.60746">
        <ele>365</ele>
        <time>2016-11-12T11:36:26Z</time>
      </trkpt>
      <trkpt lat="45.98044" lon="4.6074">
        <ele>365</ele>
        <time>2016-11-12T11:36:27Z</time>
      </trkpt>
      <trkpt lat="45.98049" lon="4.60736">
        <ele>366</ele>
        <time>2016-11-12T11:36:28Z</time>
      </trkpt>
      <trkpt lat="45.98053" lon="4.60731">
        <ele>366</ele>
        <time>2016-11-12T11:36:29Z</time>
      </trkpt>
      <trkpt lat="45.98057" lon="4.60725">
        <ele>366</ele>
        <time>2016-11-12T11:36:30Z</time>
      </trkpt>
      <trkpt lat="45.98061" lon="4.60721">
        <ele>366</ele>
        <time>2016-11-12T11:36:31Z</time>
      </trkpt>
      <trkpt lat="45.98065" lon="4.60716">
        <ele>366</ele>
        <time>2016-11-12T11:36:32Z</time>
      </trkpt>
      <trkpt lat="45.98069" lon="4.60711">
        <ele>365</ele>
        <time>2016-11-12T11:36:33Z</time>
      </trkpt>
      <trkpt lat="45.98073" lon="4.60706">
        <ele>365</ele>
        <time>2016-11-12T11:36:34Z</time>
      </trkpt>
      <trkpt lat="45.98077" lon="4.60701">
        <ele>365</ele>
        <time>2016-11-12T11:36:35Z</time>
      </trkpt>
      <trkpt lat="45.98081" lon="4.60698">
        <ele>365</ele>
        <time>2016-11-12T11:36:36Z</time>
      </trkpt>
      <trkpt lat="45.98085" lon="4.60693">
        <ele>371</ele>
        <time>2016-11-12T11:36:37Z</time>
      </trkpt>
      <trkpt lat="45.98088" lon="4.60689">
        <ele>371</ele>
        <time>2016-11-12T11:36:38Z</time>
      </trkpt>
      <trkpt lat="45.98093" lon="4.60683">
        <ele>370</ele>
        <time>2016-11-12T11:36:39Z</time>
      </trkpt>
      <trkpt lat="45.98097" lon="4.60678">
        <ele>370</ele>
        <time>2016-11-12T11:36:40Z</time>
      </trkpt>
      <trkpt lat="45.98101" lon="4.60673">
        <ele>370</ele>
        <time>2016-11-12T11:36:41Z</time>
      </trkpt>
      <trkpt lat="45.98105" lon="4.60669">
        <ele>371</ele>
        <time>2016-11-12T11:36:42Z</time>
      </trkpt>
      <trkpt lat="45.98109" lon="4.60665">
        <ele>370</ele>
        <time>2016-11-12T11:36:43Z</time>
      </trkpt>
      <trkpt lat="45.98115" lon="4.60657">
        <ele>371</ele>
        <time>2016-11-12T11:36:45Z</time>
      </trkpt>
      <trkpt lat="45.98119" lon="4.60655">
        <ele>371</ele>
        <time>2016-11-12T11:36:46Z</time>
      </trkpt>
      <trkpt lat="45.98126" lon="4.6065">
        <ele>372</ele>
        <time>2016-11-12T11:36:48Z</time>
      </trkpt>
      <trkpt lat="45.98131" lon="4.60648">
        <ele>373</ele>
        <time>2016-11-12T11:36:49Z</time>
      </trkpt>
      <trkpt lat="45.98138" lon="4.60644">
        <ele>373</ele>
        <time>2016-11-12T11:36:51Z</time>
      </trkpt>
      <trkpt lat="45.98142" lon="4.60641">
        <ele>374</ele>
        <time>2016-11-12T11:36:52Z</time>
      </trkpt>
      <trkpt lat="45.98149" lon="4.60633">
        <ele>374</ele>
        <time>2016-11-12T11:36:54Z</time>
      </trkpt>
      <trkpt lat="45.98151" lon="4.60629">
        <ele>374</ele>
        <time>2016-11-12T11:36:55Z</time>
      </trkpt>
      <trkpt lat="45.98153" lon="4.60619">
        <ele>374</ele>
        <time>2016-11-12T11:36:57Z</time>
      </trkpt>
      <trkpt lat="45.98154" lon="4.60613">
        <ele>375</ele>
        <time>2016-11-12T11:36:58Z</time>
      </trkpt>
      <trkpt lat="45.98153" lon="4.60603">
        <ele>375</ele>
        <time>2016-11-12T11:37:00Z</time>
      </trkpt>
      <trkpt lat="45.98152" lon="4.60599">
        <ele>375</ele>
        <time>2016-11-12T11:37:01Z</time>
      </trkpt>
      <trkpt lat="45.98148" lon="4.6059">
        <ele>375</ele>
        <time>2016-11-12T11:37:03Z</time>
      </trkpt>
      <trkpt lat="45.98145" lon="4.60587">
        <ele>375</ele>
        <time>2016-11-12T11:37:04Z</time>
      </trkpt>
      <trkpt lat="45.98139" lon="4.60581">
        <ele>378</ele>
        <time>2016-11-12T11:37:06Z</time>
      </trkpt>
      <trkpt lat="45.98136" lon="4.60579">
        <ele>378</ele>
        <time>2016-11-12T11:37:07Z</time>
      </trkpt>
      <trkpt lat="45.98129" lon="4.60576">
        <ele>377</ele>
        <time>2016-11-12T11:37:09Z</time>
      </trkpt>
      <trkpt lat="45.98126" lon="4.60574">
        <ele>377</ele>
        <time>2016-11-12T11:37:10Z</time>
      </trkpt>
      <trkpt lat="45.9812" lon="4.6057">
        <ele>376</ele>
        <time>2016-11-12T11:37:12Z</time>
      </trkpt>
      <trkpt lat="45.98117" lon="4.60568">
        <ele>376</ele>
        <time>2016-11-12T11:37:13Z</time>
      </trkpt>
      <trkpt lat="45.98112" lon="4.6056">
        <ele>376</ele>
        <time>2016-11-12T11:37:16Z</time>
      </trkpt>
      <trkpt lat="45.98109" lon="4.60557">
        <ele>376</ele>
        <time>2016-11-12T11:37:17Z</time>
      </trkpt>
      <trkpt lat="45.98105" lon="4.60551">
        <ele>376</ele>
        <time>2016-11-12T11:37:19Z</time>
      </trkpt>
      <trkpt lat="45.98103" lon="4.60547">
        <ele>376</ele>
        <time>2016-11-12T11:37:20Z</time>
      </trkpt>
      <trkpt lat="45.98098" lon="4.60542">
        <ele>377</ele>
        <time>2016-11-12T11:37:22Z</time>
      </trkpt>
      <trkpt lat="45.98096" lon="4.60539">
        <ele>377</ele>
        <time>2016-11-12T11:37:23Z</time>
      </trkpt>
      <trkpt lat="45.98091" lon="4.60533">
        <ele>377</ele>
        <time>2016-11-12T11:37:25Z</time>
      </trkpt>
      <trkpt lat="45.98089" lon="4.6053">
        <ele>377</ele>
        <time>2016-11-12T11:37:26Z</time>
      </trkpt>
      <trkpt lat="45.98084" lon="4.60524">
        <ele>378</ele>
        <time>2016-11-12T11:37:28Z</time>
      </trkpt>
      <trkpt lat="45.98081" lon="4.6052">
        <ele>370</ele>
        <time>2016-11-12T11:37:29Z</time>
      </trkpt>
      <trkpt lat="45.98076" lon="4.60514">
        <ele>372</ele>
        <time>2016-11-12T11:37:31Z</time>
      </trkpt>
      <trkpt lat="45.98074" lon="4.60511">
        <ele>372</ele>
        <time>2016-11-12T11:37:32Z</time>
      </trkpt>
      <trkpt lat="45.98067" lon="4.60504">
        <ele>371</ele>
        <time>2016-11-12T11:37:35Z</time>
      </trkpt>
      <trkpt lat="45.98065" lon="4.60501">
        <ele>371</ele>
        <time>2016-11-12T11:37:36Z</time>
      </trkpt>
      <trkpt lat="45.9806" lon="4.60492">
        <ele>375</ele>
        <time>2016-11-12T11:37:39Z</time>
      </trkpt>
      <trkpt lat="45.98058" lon="4.60489">
        <ele>375</ele>
        <time>2016-11-12T11:37:40Z</time>
      </trkpt>
      <trkpt lat="45.98053" lon="4.60482">
        <ele>374</ele>
        <time>2016-11-12T11:37:42Z</time>
      </trkpt>
      <trkpt lat="45.9805" lon="4.60479">
        <ele>374</ele>
        <time>2016-11-12T11:37:43Z</time>
      </trkpt>
      <trkpt lat="45.98045" lon="4.60471">
        <ele>373</ele>
        <time>2016-11-12T11:37:45Z</time>
      </trkpt>
      <trkpt lat="45.98043" lon="4.60467">
        <ele>373</ele>
        <time>2016-11-12T11:37:46Z</time>
      </trkpt>
      <trkpt lat="45.9804" lon="4.60457">
        <ele>373</ele>
        <time>2016-11-12T11:37:48Z</time>
      </trkpt>
      <trkpt lat="45.98039" lon="4.60451">
        <ele>373</ele>
        <time>2016-11-12T11:37:49Z</time>
      </trkpt>
      <trkpt lat="45.98038" lon="4.6044">
        <ele>374</ele>
        <time>2016-11-12T11:37:51Z</time>
      </trkpt>
      <trkpt lat="45.98037" lon="4.60433">
        <ele>374</ele>
        <time>2016-11-12T11:37:52Z</time>
      </trkpt>
      <trkpt lat="45.98037" lon="4.60426">
        <ele>374</ele>
        <time>2016-11-12T11:37:53Z</time>
      </trkpt>
      <trkpt lat="45.98038" lon="4.6042">
        <ele>374</ele>
        <time>2016-11-12T11:37:54Z</time>
      </trkpt>
      <trkpt lat="45.98038" lon="4.60407">
        <ele>375</ele>
        <time>2016-11-12T11:37:56Z</time>
      </trkpt>
      <trkpt lat="45.98039" lon="4.60401">
        <ele>375</ele>
        <time>2016-11-12T11:37:57Z</time>
      </trkpt>
      <trkpt lat="45.98039" lon="4.60394">
        <ele>375</ele>
        <time>2016-11-12T11:37:58Z</time>
      </trkpt>
      <trkpt lat="45.9804" lon="4.60387">
        <ele>375</ele>
        <time>2016-11-12T11:37:59Z</time>
      </trkpt>
      <trkpt lat="45.9804" lon="4.6038">
        <ele>375</ele>
        <time>2016-11-12T11:38:00Z</time>
      </trkpt>
      <trkpt lat="45.98041" lon="4.60374">
        <ele>375</ele>
        <time>2016-11-12T11:38:01Z</time>
      </trkpt>
      <trkpt lat="45.98041" lon="4.60367">
        <ele>375</ele>
        <time>2016-11-12T11:38:02Z</time>
      </trkpt>
      <trkpt lat="45.98041" lon="4.6036">
        <ele>374</ele>
        <time>2016-11-12T11:38:03Z</time>
      </trkpt>
      <trkpt lat="45.98041" lon="4.60353">
        <ele>374</ele>
        <time>2016-11-12T11:38:04Z</time>
      </trkpt>
      <trkpt lat="45.98042" lon="4.60347">
        <ele>374</ele>
        <time>2016-11-12T11:38:05Z</time>
      </trkpt>
      <trkpt lat="45.98043" lon="4.6034">
        <ele>375</ele>
        <time>2016-11-12T11:38:06Z</time>
      </trkpt>
      <trkpt lat="45.98044" lon="4.60332">
        <ele>372</ele>
        <time>2016-11-12T11:38:07Z</time>
      </trkpt>
      <trkpt lat="45.98045" lon="4.60325">
        <ele>372</ele>
        <time>2016-11-12T11:38:08Z</time>
      </trkpt>
      <trkpt lat="45.98045" lon="4.60318">
        <ele>372</ele>
        <time>2016-11-12T11:38:09Z</time>
      </trkpt>
      <trkpt lat="45.98046" lon="4.60311">
        <ele>372</ele>
        <time>2016-11-12T11:38:10Z</time>
      </trkpt>
      <trkpt lat="45.98047" lon="4.60303">
        <ele>372</ele>
        <time>2016-11-12T11:38:11Z</time>
      </trkpt>
      <trkpt lat="45.98049" lon="4.60296">
        <ele>371</ele>
        <time>2016-11-12T11:38:12Z</time>
      </trkpt>
      <trkpt lat="45.9805" lon="4.60288">
        <ele>371</ele>
        <time>2016-11-12T11:38:13Z</time>
      </trkpt>
      <trkpt lat="45.98051" lon="4.60281">
        <ele>371</ele>
        <time>2016-11-12T11:38:14Z</time>
      </trkpt>
      <trkpt lat="45.98053" lon="4.60274">
        <ele>372</ele>
        <time>2016-11-12T11:38:15Z</time>
      </trkpt>
      <trkpt lat="45.98054" lon="4.60266">
        <ele>372</ele>
        <time>2016-11-12T11:38:16Z</time>
      </trkpt>
      <trkpt lat="45.98055" lon="4.60259">
        <ele>372</ele>
        <time>2016-11-12T11:38:17Z</time>
      </trkpt>
      <trkpt lat="45.98056" lon="4.60252">
        <ele>372</ele>
        <time>2016-11-12T11:38:18Z</time>
      </trkpt>
      <trkpt lat="45.98057" lon="4.60245">
        <ele>369</ele>
        <time>2016-11-12T11:38:19Z</time>
      </trkpt>
      <trkpt lat="45.98058" lon="4.60238">
        <ele>369</ele>
        <time>2016-11-12T11:38:20Z</time>
      </trkpt>
      <trkpt lat="45.98059" lon="4.60231">
        <ele>369</ele>
        <time>2016-11-12T11:38:21Z</time>
      </trkpt>
      <trkpt lat="45.98061" lon="4.60224">
        <ele>369</ele>
        <time>2016-11-12T11:38:22Z</time>
      </trkpt>
      <trkpt lat="45.98063" lon="4.60217">
        <ele>368</ele>
        <time>2016-11-12T11:38:23Z</time>
      </trkpt>
      <trkpt lat="45.98064" lon="4.6021">
        <ele>368</ele>
        <time>2016-11-12T11:38:24Z</time>
      </trkpt>
      <trkpt lat="45.98065" lon="4.60202">
        <ele>368</ele>
        <time>2016-11-12T11:38:25Z</time>
      </trkpt>
      <trkpt lat="45.98066" lon="4.60195">
        <ele>368</ele>
        <time>2016-11-12T11:38:26Z</time>
      </trkpt>
      <trkpt lat="45.98068" lon="4.60187">
        <ele>368</ele>
        <time>2016-11-12T11:38:27Z</time>
      </trkpt>
      <trkpt lat="45.98069" lon="4.6018">
        <ele>368</ele>
        <time>2016-11-12T11:38:28Z</time>
      </trkpt>
      <trkpt lat="45.98071" lon="4.60172">
        <ele>369</ele>
        <time>2016-11-12T11:38:29Z</time>
      </trkpt>
      <trkpt lat="45.98072" lon="4.60164">
        <ele>368</ele>
        <time>2016-11-12T11:38:30Z</time>
      </trkpt>
      <trkpt lat="45.98074" lon="4.60156">
        <ele>368</ele>
        <time>2016-11-12T11:38:31Z</time>
      </trkpt>
      <trkpt lat="45.98076" lon="4.60148">
        <ele>367</ele>
        <time>2016-11-12T11:38:32Z</time>
      </trkpt>
      <trkpt lat="45.98078" lon="4.6014">
        <ele>366</ele>
        <time>2016-11-12T11:38:33Z</time>
      </trkpt>
      <trkpt lat="45.9808" lon="4.60132">
        <ele>366</ele>
        <time>2016-11-12T11:38:34Z</time>
      </trkpt>
      <trkpt lat="45.98082" lon="4.60124">
        <ele>365</ele>
        <time>2016-11-12T11:38:35Z</time>
      </trkpt>
      <trkpt lat="45.98085" lon="4.60116">
        <ele>377</ele>
        <time>2016-11-12T11:38:36Z</time>
      </trkpt>
      <trkpt lat="45.98087" lon="4.60107">
        <ele>376</ele>
        <time>2016-11-12T11:38:37Z</time>
      </trkpt>
      <trkpt lat="45.98089" lon="4.601">
        <ele>375</ele>
        <time>2016-11-12T11:38:38Z</time>
      </trkpt>
      <trkpt lat="45.98091" lon="4.60093">
        <ele>373</ele>
        <time>2016-11-12T11:38:39Z</time>
      </trkpt>
      <trkpt lat="45.98093" lon="4.60086">
        <ele>372</ele>
        <time>2016-11-12T11:38:40Z</time>
      </trkpt>
      <trkpt lat="45.98095" lon="4.60078">
        <ele>372</ele>
        <time>2016-11-12T11:38:41Z</time>
      </trkpt>
      <trkpt lat="45.98097" lon="4.6007">
        <ele>373</ele>
        <time>2016-11-12T11:38:42Z</time>
      </trkpt>
      <trkpt lat="45.98098" lon="4.60062">
        <ele>374</ele>
        <time>2016-11-12T11:38:43Z</time>
      </trkpt>
      <trkpt lat="45.98101" lon="4.60055">
        <ele>375</ele>
        <time>2016-11-12T11:38:44Z</time>
      </trkpt>
      <trkpt lat="45.98102" lon="4.60047">
        <ele>376</ele>
        <time>2016-11-12T11:38:45Z</time>
      </trkpt>
      <trkpt lat="45.98104" lon="4.6004">
        <ele>376</ele>
        <time>2016-11-12T11:38:46Z</time>
      </trkpt>
      <trkpt lat="45.98106" lon="4.60032">
        <ele>376</ele>
        <time>2016-11-12T11:38:47Z</time>
      </trkpt>
      <trkpt lat="45.98108" lon="4.60025">
        <ele>376</ele>
        <time>2016-11-12T11:38:48Z</time>
      </trkpt>
      <trkpt lat="45.9811" lon="4.60019">
        <ele>376</ele>
        <time>2016-11-12T11:38:49Z</time>
      </trkpt>
      <trkpt lat="45.98112" lon="4.60013">
        <ele>376</ele>
        <time>2016-11-12T11:38:50Z</time>
      </trkpt>
      <trkpt lat="45.98114" lon="4.60007">
        <ele>376</ele>
        <time>2016-11-12T11:38:51Z</time>
      </trkpt>
      <trkpt lat="45.98116" lon="4.59996">
        <ele>375</ele>
        <time>2016-11-12T11:38:53Z</time>
      </trkpt>
      <trkpt lat="45.98116" lon="4.59992">
        <ele>375</ele>
        <time>2016-11-12T11:38:54Z</time>
      </trkpt>
      <trkpt lat="45.98118" lon="4.59987">
        <ele>376</ele>
        <time>2016-11-12T11:38:55Z</time>
      </trkpt>
      <trkpt lat="45.98121" lon="4.5998">
        <ele>377</ele>
        <time>2016-11-12T11:38:56Z</time>
      </trkpt>
      <trkpt lat="45.98122" lon="4.59972">
        <ele>377</ele>
        <time>2016-11-12T11:38:57Z</time>
      </trkpt>
      <trkpt lat="45.98124" lon="4.59963">
        <ele>377</ele>
        <time>2016-11-12T11:38:58Z</time>
      </trkpt>
      <trkpt lat="45.98126" lon="4.59955">
        <ele>378</ele>
        <time>2016-11-12T11:38:59Z</time>
      </trkpt>
      <trkpt lat="45.98129" lon="4.59947">
        <ele>378</ele>
        <time>2016-11-12T11:39:00Z</time>
      </trkpt>
      <trkpt lat="45.98131" lon="4.59937">
        <ele>378</ele>
        <time>2016-11-12T11:39:01Z</time>
      </trkpt>
      <trkpt lat="45.98133" lon="4.59928">
        <ele>379</ele>
        <time>2016-11-12T11:39:02Z</time>
      </trkpt>
      <trkpt lat="45.98136" lon="4.5992">
        <ele>379</ele>
        <time>2016-11-12T11:39:03Z</time>
      </trkpt>
      <trkpt lat="45.98138" lon="4.59912">
        <ele>379</ele>
        <time>2016-11-12T11:39:04Z</time>
      </trkpt>
      <trkpt lat="45.9814" lon="4.59903">
        <ele>379</ele>
        <time>2016-11-12T11:39:05Z</time>
      </trkpt>
      <trkpt lat="45.98143" lon="4.59895">
        <ele>379</ele>
        <time>2016-11-12T11:39:06Z</time>
      </trkpt>
      <trkpt lat="45.98146" lon="4.59886">
        <ele>379</ele>
        <time>2016-11-12T11:39:07Z</time>
      </trkpt>
      <trkpt lat="45.98148" lon="4.59877">
        <ele>378</ele>
        <time>2016-11-12T11:39:08Z</time>
      </trkpt>
      <trkpt lat="45.98149" lon="4.59867">
        <ele>378</ele>
        <time>2016-11-12T11:39:09Z</time>
      </trkpt>
      <trkpt lat="45.98149" lon="4.59854">
        <ele>377</ele>
        <time>2016-11-12T11:39:10Z</time>
      </trkpt>
      <trkpt lat="45.98147" lon="4.59844">
        <ele>377</ele>
        <time>2016-11-12T11:39:11Z</time>
      </trkpt>
      <trkpt lat="45.98144" lon="4.59836">
        <ele>377</ele>
        <time>2016-11-12T11:39:12Z</time>
      </trkpt>
      <trkpt lat="45.9814" lon="4.59829">
        <ele>379</ele>
        <time>2016-11-12T11:39:13Z</time>
      </trkpt>
      <trkpt lat="45.98135" lon="4.59825">
        <ele>379</ele>
        <time>2016-11-12T11:39:14Z</time>
      </trkpt>
      <trkpt lat="45.98131" lon="4.59822">
        <ele>379</ele>
        <time>2016-11-12T11:39:15Z</time>
      </trkpt>
      <trkpt lat="45.98126" lon="4.5982">
        <ele>380</ele>
        <time>2016-11-12T11:39:16Z</time>
      </trkpt>
      <trkpt lat="45.98118" lon="4.59823">
        <ele>380</ele>
        <time>2016-11-12T11:39:18Z</time>
      </trkpt>
      <trkpt lat="45.98115" lon="4.59825">
        <ele>380</ele>
        <time>2016-11-12T11:39:19Z</time>
      </trkpt>
      <trkpt lat="45.98109" lon="4.59832">
        <ele>380</ele>
        <time>2016-11-12T11:39:21Z</time>
      </trkpt>
      <trkpt lat="45.98106" lon="4.59835">
        <ele>378</ele>
        <time>2016-11-12T11:39:22Z</time>
      </trkpt>
      <trkpt lat="45.981" lon="4.59842">
        <ele>378</ele>
        <time>2016-11-12T11:39:24Z</time>
      </trkpt>
      <trkpt lat="45.98097" lon="4.59846">
        <ele>378</ele>
        <time>2016-11-12T11:39:25Z</time>
      </trkpt>
      <trkpt lat="45.9809" lon="4.59854">
        <ele>378</ele>
        <time>2016-11-12T11:39:27Z</time>
      </trkpt>
      <trkpt lat="45.98087" lon="4.59858">
        <ele>378</ele>
        <time>2016-11-12T11:39:28Z</time>
      </trkpt>
      <trkpt lat="45.98081" lon="4.59866">
        <ele>380</ele>
        <time>2016-11-12T11:39:30Z</time>
      </trkpt>
      <trkpt lat="45.98078" lon="4.59869">
        <ele>380</ele>
        <time>2016-11-12T11:39:31Z</time>
      </trkpt>
      <trkpt lat="45.98072" lon="4.59876">
        <ele>380</ele>
        <time>2016-11-12T11:39:33Z</time>
      </trkpt>
      <trkpt lat="45.9807" lon="4.5988">
        <ele>379</ele>
        <time>2016-11-12T11:39:34Z</time>
      </trkpt>
      <trkpt lat="45.98065" lon="4.59887">
        <ele>379</ele>
        <time>2016-11-12T11:39:36Z</time>
      </trkpt>
      <trkpt lat="45.98063" lon="4.5989">
        <ele>379</ele>
        <time>2016-11-12T11:39:37Z</time>
      </trkpt>
      <trkpt lat="45.98057" lon="4.59896">
        <ele>379</ele>
        <time>2016-11-12T11:39:39Z</time>
      </trkpt>
      <trkpt lat="45.98055" lon="4.59899">
        <ele>379</ele>
        <time>2016-11-12T11:39:40Z</time>
      </trkpt>
      <trkpt lat="45.9805" lon="4.59906">
        <ele>379</ele>
        <time>2016-11-12T11:39:42Z</time>
      </trkpt>
      <trkpt lat="45.98048" lon="4.59909">
        <ele>379</ele>
        <time>2016-11-12T11:39:43Z</time>
      </trkpt>
      <trkpt lat="45.98044" lon="4.59917">
        <ele>379</ele>
        <time>2016-11-12T11:39:45Z</time>
      </trkpt>
      <trkpt lat="45.98042" lon="4.5992">
        <ele>373</ele>
        <time>2016-11-12T11:39:46Z</time>
      </trkpt>
      <trkpt lat="45.98038" lon="4.59928">
        <ele>373</ele>
        <time>2016-11-12T11:39:48Z</time>
      </trkpt>
      <trkpt lat="45.98036" lon="4.59932">
        <ele>373</ele>
        <time>2016-11-12T11:39:49Z</time>
      </trkpt>
      <trkpt lat="45.98032" lon="4.59939">
        <ele>373</ele>
        <time>2016-11-12T11:39:51Z</time>
      </trkpt>
      <trkpt lat="45.9803" lon="4.59942">
        <ele>373</ele>
        <time>2016-11-12T11:39:52Z</time>
      </trkpt>
      <trkpt lat="45.98025" lon="4.5995">
        <ele>372</ele>
        <time>2016-11-12T11:39:55Z</time>
      </trkpt>
      <trkpt lat="45.98022" lon="4.59952">
        <ele>372</ele>
        <time>2016-11-12T11:39:56Z</time>
      </trkpt>
      <trkpt lat="45.98014" lon="4.59958">
        <ele>372</ele>
        <time>2016-11-12T11:39:59Z</time>
      </trkpt>
      <trkpt lat="45.98011" lon="4.59959">
        <ele>372</ele>
        <time>2016-11-12T11:40:00Z</time>
      </trkpt>
      <trkpt lat="45.98003" lon="4.59959">
        <ele>372</ele>
        <time>2016-11-12T11:40:03Z</time>
      </trkpt>
      <trkpt lat="45.98" lon="4.59959">
        <ele>381</ele>
        <time>2016-11-12T11:40:04Z</time>
      </trkpt>
      <trkpt lat="45.97991" lon="4.59958">
        <ele>381</ele>
        <time>2016-11-12T11:40:07Z</time>
      </trkpt>
      <trkpt lat="45.97988" lon="4.59958">
        <ele>382</ele>
        <time>2016-11-12T11:40:08Z</time>
      </trkpt>
      <trkpt lat="45.97979" lon="4.59957">
        <ele>382</ele>
        <time>2016-11-12T11:40:11Z</time>
      </trkpt>
      <trkpt lat="45.97977" lon="4.59957">
        <ele>383</ele>
        <time>2016-11-12T11:40:12Z</time>
      </trkpt>
      <trkpt lat="45.97969" lon="4.59961">
        <ele>383</ele>
        <time>2016-11-12T11:40:15Z</time>
      </trkpt>
      <trkpt lat="45.97966" lon="4.59963">
        <ele>383</ele>
        <time>2016-11-12T11:40:16Z</time>
      </trkpt>
      <trkpt lat="45.9796" lon="4.59972">
        <ele>384</ele>
        <time>2016-11-12T11:40:19Z</time>
      </trkpt>
      <trkpt lat="45.97958" lon="4.59975">
        <ele>384</ele>
        <time>2016-11-12T11:40:20Z</time>
      </trkpt>
      <trkpt lat="45.97953" lon="4.59985">
        <ele>384</ele>
        <time>2016-11-12T11:40:23Z</time>
      </trkpt>
      <trkpt lat="45.97952" lon="4.59989">
        <ele>384</ele>
        <time>2016-11-12T11:40:24Z</time>
      </trkpt>
      <trkpt lat="45.97949" lon="4.6">
        <ele>384</ele>
        <time>2016-11-12T11:40:27Z</time>
      </trkpt>
      <trkpt lat="45.97949" lon="4.60004">
        <ele>379</ele>
        <time>2016-11-12T11:40:28Z</time>
      </trkpt>
      <trkpt lat="45.97947" lon="4.60013">
        <ele>379</ele>
        <time>2016-11-12T11:40:30Z</time>
      </trkpt>
      <trkpt lat="45.97945" lon="4.60017">
        <ele>379</ele>
        <time>2016-11-12T11:40:31Z</time>
      </trkpt>
      <trkpt lat="45.97943" lon="4.60025">
        <ele>379</ele>
        <time>2016-11-12T11:40:33Z</time>
      </trkpt>
      <trkpt lat="45.97942" lon="4.60029">
        <ele>379</ele>
        <time>2016-11-12T11:40:34Z</time>
      </trkpt>
      <trkpt lat="45.97939" lon="4.60037">
        <ele>378</ele>
        <time>2016-11-12T11:40:36Z</time>
      </trkpt>
      <trkpt lat="45.97938" lon="4.60042">
        <ele>378</ele>
        <time>2016-11-12T11:40:37Z</time>
      </trkpt>
      <trkpt lat="45.97936" lon="4.60051">
        <ele>378</ele>
        <time>2016-11-12T11:40:39Z</time>
      </trkpt>
      <trkpt lat="45.97935" lon="4.60055">
        <ele>378</ele>
        <time>2016-11-12T11:40:40Z</time>
      </trkpt>
      <trkpt lat="45.97931" lon="4.60062">
        <ele>378</ele>
        <time>2016-11-12T11:40:42Z</time>
      </trkpt>
      <trkpt lat="45.97929" lon="4.60066">
        <ele>379</ele>
        <time>2016-11-12T11:40:43Z</time>
      </trkpt>
      <trkpt lat="45.97925" lon="4.60073">
        <ele>379</ele>
        <time>2016-11-12T11:40:45Z</time>
      </trkpt>
      <trkpt lat="45.97923" lon="4.60076">
        <ele>380</ele>
        <time>2016-11-12T11:40:46Z</time>
      </trkpt>
      <trkpt lat="45.9792" lon="4.60083">
        <ele>381</ele>
        <time>2016-11-12T11:40:48Z</time>
      </trkpt>
      <trkpt lat="45.97918" lon="4.60087">
        <ele>380</ele>
        <time>2016-11-12T11:40:49Z</time>
      </trkpt>
      <trkpt lat="45.97914" lon="4.60094">
        <ele>385</ele>
        <time>2016-11-12T11:40:51Z</time>
      </trkpt>
      <trkpt lat="45.97912" lon="4.60097">
        <ele>385</ele>
        <time>2016-11-12T11:40:52Z</time>
      </trkpt>
      <trkpt lat="45.97906" lon="4.60107">
        <ele>386</ele>
        <time>2016-11-12T11:40:55Z</time>
      </trkpt>
      <trkpt lat="45.97904" lon="4.60109">
        <ele>386</ele>
        <time>2016-11-12T11:40:56Z</time>
      </trkpt>
      <trkpt lat="45.97898" lon="4.60118">
        <ele>387</ele>
        <time>2016-11-12T11:40:59Z</time>
      </trkpt>
      <trkpt lat="45.97896" lon="4.60122">
        <ele>387</ele>
        <time>2016-11-12T11:41:00Z</time>
      </trkpt>
      <trkpt lat="45.97892" lon="4.60129">
        <ele>387</ele>
        <time>2016-11-12T11:41:02Z</time>
      </trkpt>
      <trkpt lat="45.97891" lon="4.60133">
        <ele>387</ele>
        <time>2016-11-12T11:41:03Z</time>
      </trkpt>
      <trkpt lat="45.97887" lon="4.60139">
        <ele>387</ele>
        <time>2016-11-12T11:41:05Z</time>
      </trkpt>
      <trkpt lat="45.97884" lon="4.60142">
        <ele>387</ele>
        <time>2016-11-12T11:41:06Z</time>
      </trkpt>
      <trkpt lat="45.97878" lon="4.6015">
        <ele>388</ele>
        <time>2016-11-12T11:41:09Z</time>
      </trkpt>
      <trkpt lat="45.97876" lon="4.60153">
        <ele>388</ele>
        <time>2016-11-12T11:41:10Z</time>
      </trkpt>
      <trkpt lat="45.9787" lon="4.60161">
        <ele>389</ele>
        <time>2016-11-12T11:41:13Z</time>
      </trkpt>
      <trkpt lat="45.97869" lon="4.60164">
        <ele>389</ele>
        <time>2016-11-12T11:41:14Z</time>
      </trkpt>
      <trkpt lat="45.97864" lon="4.60173">
        <ele>385</ele>
        <time>2016-11-12T11:41:17Z</time>
      </trkpt>
      <trkpt lat="45.97862" lon="4.60175">
        <ele>385</ele>
        <time>2016-11-12T11:41:18Z</time>
      </trkpt>
      <trkpt lat="45.97856" lon="4.60184">
        <ele>386</ele>
        <time>2016-11-12T11:41:21Z</time>
      </trkpt>
      <trkpt lat="45.97854" lon="4.60187">
        <ele>386</ele>
        <time>2016-11-12T11:41:22Z</time>
      </trkpt>
      <trkpt lat="45.97849" lon="4.60196">
        <ele>385</ele>
        <time>2016-11-12T11:41:25Z</time>
      </trkpt>
      <trkpt lat="45.97848" lon="4.60199">
        <ele>385</ele>
        <time>2016-11-12T11:41:26Z</time>
      </trkpt>
      <trkpt lat="45.97843" lon="4.60209">
        <ele>385</ele>
        <time>2016-11-12T11:41:29Z</time>
      </trkpt>
      <trkpt lat="45.97841" lon="4.60212">
        <ele>385</ele>
        <time>2016-11-12T11:41:30Z</time>
      </trkpt>
      <trkpt lat="45.97837" lon="4.60223">
        <ele>385</ele>
        <time>2016-11-12T11:41:33Z</time>
      </trkpt>
      <trkpt lat="45.97836" lon="4.60227">
        <ele>385</ele>
        <time>2016-11-12T11:41:34Z</time>
      </trkpt>
      <trkpt lat="45.97832" lon="4.60238">
        <ele>395</ele>
        <time>2016-11-12T11:41:37Z</time>
      </trkpt>
      <trkpt lat="45.97831" lon="4.60241">
        <ele>394</ele>
        <time>2016-11-12T11:41:38Z</time>
      </trkpt>
      <trkpt lat="45.97829" lon="4.60251">
        <ele>391</ele>
        <time>2016-11-12T11:41:41Z</time>
      </trkpt>
      <trkpt lat="45.97829" lon="4.60255">
        <ele>391</ele>
        <time>2016-11-12T11:41:42Z</time>
      </trkpt>
      <trkpt lat="45.97826" lon="4.60264">
        <ele>392</ele>
        <time>2016-11-12T11:41:45Z</time>
      </trkpt>
      <trkpt lat="45.97825" lon="4.60268">
        <ele>393</ele>
        <time>2016-11-12T11:41:46Z</time>
      </trkpt>
      <trkpt lat="45.97821" lon="4.60279">
        <ele>393</ele>
        <time>2016-11-12T11:41:49Z</time>
      </trkpt>
      <trkpt lat="45.97819" lon="4.60282">
        <ele>393</ele>
        <time>2016-11-12T11:41:50Z</time>
      </trkpt>
      <trkpt lat="45.97817" lon="4.60293">
        <ele>392</ele>
        <time>2016-11-12T11:41:53Z</time>
      </trkpt>
      <trkpt lat="45.97815" lon="4.60296">
        <ele>392</ele>
        <time>2016-11-12T11:41:54Z</time>
      </trkpt>
      <trkpt lat="45.97812" lon="4.60306">
        <ele>392</ele>
        <time>2016-11-12T11:41:57Z</time>
      </trkpt>
      <trkpt lat="45.9781" lon="4.60309">
        <ele>391</ele>
        <time>2016-11-12T11:41:58Z</time>
      </trkpt>
      <trkpt lat="45.97806" lon="4.60319">
        <ele>391</ele>
        <time>2016-11-12T11:42:01Z</time>
      </trkpt>
      <trkpt lat="45.97805" lon="4.60323">
        <ele>391</ele>
        <time>2016-11-12T11:42:02Z</time>
      </trkpt>
      <trkpt lat="45.97801" lon="4.6033">
        <ele>392</ele>
        <time>2016-11-12T11:42:04Z</time>
      </trkpt>
      <trkpt lat="45.978" lon="4.60333">
        <ele>392</ele>
        <time>2016-11-12T11:42:05Z</time>
      </trkpt>
      <trkpt lat="45.97796" lon="4.60343">
        <ele>387</ele>
        <time>2016-11-12T11:42:08Z</time>
      </trkpt>
      <trkpt lat="45.97794" lon="4.60346">
        <ele>387</ele>
        <time>2016-11-12T11:42:09Z</time>
      </trkpt>
      <trkpt lat="45.9779" lon="4.60356">
        <ele>388</ele>
        <time>2016-11-12T11:42:12Z</time>
      </trkpt>
      <trkpt lat="45.97788" lon="4.6036">
        <ele>388</ele>
        <time>2016-11-12T11:42:13Z</time>
      </trkpt>
      <trkpt lat="45.97784" lon="4.60367">
        <ele>388</ele>
        <time>2016-11-12T11:42:15Z</time>
      </trkpt>
      <trkpt lat="45.97783" lon="4.60371">
        <ele>388</ele>
        <time>2016-11-12T11:42:16Z</time>
      </trkpt>
      <trkpt lat="45.97778" lon="4.60382">
        <ele>388</ele>
        <time>2016-11-12T11:42:19Z</time>
      </trkpt>
      <trkpt lat="45.97777" lon="4.60384">
        <ele>388</ele>
        <time>2016-11-12T11:42:20Z</time>
      </trkpt>
      <trkpt lat="45.97773" lon="4.60393">
        <ele>389</ele>
        <time>2016-11-12T11:42:23Z</time>
      </trkpt>
      <trkpt lat="45.97772" lon="4.60396">
        <ele>389</ele>
        <time>2016-11-12T11:42:24Z</time>
      </trkpt>
      <trkpt lat="45.97769" lon="4.60404">
        <ele>389</ele>
        <time>2016-11-12T11:42:26Z</time>
      </trkpt>
      <trkpt lat="45.97768" lon="4.60409">
        <ele>390</ele>
        <time>2016-11-12T11:42:27Z</time>
      </trkpt>
      <trkpt lat="45.97764" lon="4.60417">
        <ele>391</ele>
        <time>2016-11-12T11:42:29Z</time>
      </trkpt>
      <trkpt lat="45.97763" lon="4.6042">
        <ele>387</ele>
        <time>2016-11-12T11:42:30Z</time>
      </trkpt>
      <trkpt lat="45.97758" lon="4.60431">
        <ele>386</ele>
        <time>2016-11-12T11:42:33Z</time>
      </trkpt>
      <trkpt lat="45.97756" lon="4.60434">
        <ele>385</ele>
        <time>2016-11-12T11:42:34Z</time>
      </trkpt>
      <trkpt lat="45.97751" lon="4.60445">
        <ele>383</ele>
        <time>2016-11-12T11:42:37Z</time>
      </trkpt>
      <trkpt lat="45.9775" lon="4.60449">
        <ele>395</ele>
        <time>2016-11-12T11:42:38Z</time>
      </trkpt>
      <trkpt lat="45.97745" lon="4.60458">
        <ele>394</ele>
        <time>2016-11-12T11:42:41Z</time>
      </trkpt>
      <trkpt lat="45.97744" lon="4.60462">
        <ele>394</ele>
        <time>2016-11-12T11:42:42Z</time>
      </trkpt>
      <trkpt lat="45.97739" lon="4.60471">
        <ele>393</ele>
        <time>2016-11-12T11:42:45Z</time>
      </trkpt>
      <trkpt lat="45.97738" lon="4.60475">
        <ele>392</ele>
        <time>2016-11-12T11:42:46Z</time>
      </trkpt>
      <trkpt lat="45.97735" lon="4.60483">
        <ele>392</ele>
        <time>2016-11-12T11:42:48Z</time>
      </trkpt>
      <trkpt lat="45.97733" lon="4.60487">
        <ele>391</ele>
        <time>2016-11-12T11:42:49Z</time>
      </trkpt>
      <trkpt lat="45.9773" lon="4.60494">
        <ele>391</ele>
        <time>2016-11-12T11:42:51Z</time>
      </trkpt>
      <trkpt lat="45.97728" lon="4.60497">
        <ele>392</ele>
        <time>2016-11-12T11:42:52Z</time>
      </trkpt>
      <trkpt lat="45.97723" lon="4.60504">
        <ele>388</ele>
        <time>2016-11-12T11:42:54Z</time>
      </trkpt>
      <trkpt lat="45.97721" lon="4.60507">
        <ele>388</ele>
        <time>2016-11-12T11:42:55Z</time>
      </trkpt>
      <trkpt lat="45.97717" lon="4.60514">
        <ele>389</ele>
        <time>2016-11-12T11:42:57Z</time>
      </trkpt>
      <trkpt lat="45.97715" lon="4.60518">
        <ele>389</ele>
        <time>2016-11-12T11:42:58Z</time>
      </trkpt>
      <trkpt lat="45.9771" lon="4.60526">
        <ele>390</ele>
        <time>2016-11-12T11:43:00Z</time>
      </trkpt>
      <trkpt lat="45.97708" lon="4.60529">
        <ele>390</ele>
        <time>2016-11-12T11:43:01Z</time>
      </trkpt>
      <trkpt lat="45.97703" lon="4.60539">
        <ele>390</ele>
        <time>2016-11-12T11:43:04Z</time>
      </trkpt>
      <trkpt lat="45.97702" lon="4.60542">
        <ele>390</ele>
        <time>2016-11-12T11:43:05Z</time>
      </trkpt>
      <trkpt lat="45.97696" lon="4.60549">
        <ele>390</ele>
        <time>2016-11-12T11:43:09Z</time>
      </trkpt>
      <trkpt lat="45.97695" lon="4.6055">
        <ele>391</ele>
        <time>2016-11-12T11:43:10Z</time>
      </trkpt>
      <trkpt lat="45.97689" lon="4.60559">
        <ele>391</ele>
        <time>2016-11-12T11:43:13Z</time>
      </trkpt>
      <trkpt lat="45.97688" lon="4.60562">
        <ele>391</ele>
        <time>2016-11-12T11:43:14Z</time>
      </trkpt>
      <trkpt lat="45.97684" lon="4.60569">
        <ele>392</ele>
        <time>2016-11-12T11:43:16Z</time>
      </trkpt>
      <trkpt lat="45.97682" lon="4.60572">
        <ele>393</ele>
        <time>2016-11-12T11:43:17Z</time>
      </trkpt>
      <trkpt lat="45.97679" lon="4.6058">
        <ele>393</ele>
        <time>2016-11-12T11:43:19Z</time>
      </trkpt>
      <trkpt lat="45.97677" lon="4.60583">
        <ele>394</ele>
        <time>2016-11-12T11:43:20Z</time>
      </trkpt>
      <trkpt lat="45.97671" lon="4.60591">
        <ele>392</ele>
        <time>2016-11-12T11:43:22Z</time>
      </trkpt>
      <trkpt lat="45.97669" lon="4.60594">
        <ele>391</ele>
        <time>2016-11-12T11:43:23Z</time>
      </trkpt>
      <trkpt lat="45.97664" lon="4.60602">
        <ele>395</ele>
        <time>2016-11-12T11:43:25Z</time>
      </trkpt>
      <trkpt lat="45.97661" lon="4.60606">
        <ele>395</ele>
        <time>2016-11-12T11:43:26Z</time>
      </trkpt>
      <trkpt lat="45.97656" lon="4.60611">
        <ele>395</ele>
        <time>2016-11-12T11:43:28Z</time>
      </trkpt>
      <trkpt lat="45.97654" lon="4.60614">
        <ele>395</ele>
        <time>2016-11-12T11:43:29Z</time>
      </trkpt>
      <trkpt lat="45.9765" lon="4.60622">
        <ele>394</ele>
        <time>2016-11-12T11:43:31Z</time>
      </trkpt>
      <trkpt lat="45.97647" lon="4.60626">
        <ele>394</ele>
        <time>2016-11-12T11:43:32Z</time>
      </trkpt>
      <trkpt lat="45.97642" lon="4.60633">
        <ele>393</ele>
        <time>2016-11-12T11:43:34Z</time>
      </trkpt>
      <trkpt lat="45.9764" lon="4.60636">
        <ele>393</ele>
        <time>2016-11-12T11:43:35Z</time>
      </trkpt>
      <trkpt lat="45.97634" lon="4.60643">
        <ele>393</ele>
        <time>2016-11-12T11:43:37Z</time>
      </trkpt>
      <trkpt lat="45.97632" lon="4.60646">
        <ele>393</ele>
        <time>2016-11-12T11:43:38Z</time>
      </trkpt>
      <trkpt lat="45.97627" lon="4.60652">
        <ele>394</ele>
        <time>2016-11-12T11:43:40Z</time>
      </trkpt>
      <trkpt lat="45.97624" lon="4.60655">
        <ele>394</ele>
        <time>2016-11-12T11:43:41Z</time>
      </trkpt>
      <trkpt lat="45.97619" lon="4.6066">
        <ele>394</ele>
        <time>2016-11-12T11:43:43Z</time>
      </trkpt>
      <trkpt lat="45.97616" lon="4.60663">
        <ele>395</ele>
        <time>2016-11-12T11:43:44Z</time>
      </trkpt>
      <trkpt lat="45.9761" lon="4.60668">
        <ele>388</ele>
        <time>2016-11-12T11:43:46Z</time>
      </trkpt>
      <trkpt lat="45.97607" lon="4.6067">
        <ele>389</ele>
        <time>2016-11-12T11:43:47Z</time>
      </trkpt>
      <trkpt lat="45.97601" lon="4.60676">
        <ele>390</ele>
        <time>2016-11-12T11:43:49Z</time>
      </trkpt>
      <trkpt lat="45.97597" lon="4.60678">
        <ele>391</ele>
        <time>2016-11-12T11:43:50Z</time>
      </trkpt>
      <trkpt lat="45.97591" lon="4.60683">
        <ele>391</ele>
        <time>2016-11-12T11:43:52Z</time>
      </trkpt>
      <trkpt lat="45.97588" lon="4.60685">
        <ele>391</ele>
        <time>2016-11-12T11:43:53Z</time>
      </trkpt>
      <trkpt lat="45.97581" lon="4.60688">
        <ele>397</ele>
        <time>2016-11-12T11:43:55Z</time>
      </trkpt>
      <trkpt lat="45.97578" lon="4.6069">
        <ele>396</ele>
        <time>2016-11-12T11:43:56Z</time>
      </trkpt>
      <trkpt lat="45.97572" lon="4.60693">
        <ele>396</ele>
        <time>2016-11-12T11:43:58Z</time>
      </trkpt>
      <trkpt lat="45.97569" lon="4.60695">
        <ele>396</ele>
        <time>2016-11-12T11:43:59Z</time>
      </trkpt>
      <trkpt lat="45.9756" lon="4.60698">
        <ele>396</ele>
        <time>2016-11-12T11:44:02Z</time>
      </trkpt>
      <trkpt lat="45.97558" lon="4.60698">
        <ele>396</ele>
        <time>2016-11-12T11:44:03Z</time>
      </trkpt>
      <trkpt lat="45.9755" lon="4.60701">
        <ele>396</ele>
        <time>2016-11-12T11:44:06Z</time>
      </trkpt>
      <trkpt lat="45.97547" lon="4.60701">
        <ele>396</ele>
        <time>2016-11-12T11:44:07Z</time>
      </trkpt>
      <trkpt lat="45.9754" lon="4.60701">
        <ele>396</ele>
        <time>2016-11-12T11:44:09Z</time>
      </trkpt>
      <trkpt lat="45.97537" lon="4.60701">
        <ele>397</ele>
        <time>2016-11-12T11:44:10Z</time>
      </trkpt>
      <trkpt lat="45.97532" lon="4.60703">
        <ele>397</ele>
        <time>2016-11-12T11:44:12Z</time>
      </trkpt>
      <trkpt lat="45.97528" lon="4.60704">
        <ele>397</ele>
        <time>2016-11-12T11:44:13Z</time>
      </trkpt>
      <trkpt lat="45.97519" lon="4.60704">
        <ele>397</ele>
        <time>2016-11-12T11:44:16Z</time>
      </trkpt>
      <trkpt lat="45.97517" lon="4.60704">
        <ele>397</ele>
        <time>2016-11-12T11:44:17Z</time>
      </trkpt>
      <trkpt lat="45.97511" lon="4.60698">
        <ele>398</ele>
        <time>2016-11-12T11:44:20Z</time>
      </trkpt>
      <trkpt lat="45.97509" lon="4.60696">
        <ele>398</ele>
        <time>2016-11-12T11:44:21Z</time>
      </trkpt>
      <trkpt lat="45.97503" lon="4.60687">
        <ele>399</ele>
        <time>2016-11-12T11:44:24Z</time>
      </trkpt>
      <trkpt lat="45.97501" lon="4.60685">
        <ele>399</ele>
        <time>2016-11-12T11:44:25Z</time>
      </trkpt>
      <trkpt lat="45.97494" lon="4.60679">
        <ele>403</ele>
        <time>2016-11-12T11:44:28Z</time>
      </trkpt>
      <trkpt lat="45.97492" lon="4.60677">
        <ele>403</ele>
        <time>2016-11-12T11:44:29Z</time>
      </trkpt>
      <trkpt lat="45.97487" lon="4.60671">
        <ele>403</ele>
        <time>2016-11-12T11:44:31Z</time>
      </trkpt>
      <trkpt lat="45.97485" lon="4.60668">
        <ele>403</ele>
        <time>2016-11-12T11:44:32Z</time>
      </trkpt>
      <trkpt lat="45.9748" lon="4.6066">
        <ele>403</ele>
        <time>2016-11-12T11:44:34Z</time>
      </trkpt>
      <trkpt lat="45.97477" lon="4.60656">
        <ele>403</ele>
        <time>2016-11-12T11:44:35Z</time>
      </trkpt>
      <trkpt lat="45.97471" lon="4.60647">
        <ele>403</ele>
        <time>2016-11-12T11:44:37Z</time>
      </trkpt>
      <trkpt lat="45.97467" lon="4.60643">
        <ele>403</ele>
        <time>2016-11-12T11:44:38Z</time>
      </trkpt>
      <trkpt lat="45.97464" lon="4.60638">
        <ele>403</ele>
        <time>2016-11-12T11:44:39Z</time>
      </trkpt>
      <trkpt lat="45.9746" lon="4.60634">
        <ele>403</ele>
        <time>2016-11-12T11:44:40Z</time>
      </trkpt>
      <trkpt lat="45.97456" lon="4.6063">
        <ele>403</ele>
        <time>2016-11-12T11:44:41Z</time>
      </trkpt>
      <trkpt lat="45.97452" lon="4.60625">
        <ele>403</ele>
        <time>2016-11-12T11:44:42Z</time>
      </trkpt>
      <trkpt lat="45.97448" lon="4.60621">
        <ele>403</ele>
        <time>2016-11-12T11:44:43Z</time>
      </trkpt>
      <trkpt lat="45.97444" lon="4.60617">
        <ele>403</ele>
        <time>2016-11-12T11:44:44Z</time>
      </trkpt>
      <trkpt lat="45.9744" lon="4.60613">
        <ele>403</ele>
        <time>2016-11-12T11:44:45Z</time>
      </trkpt>
      <trkpt lat="45.97435" lon="4.60608">
        <ele>402</ele>
        <time>2016-11-12T11:44:46Z</time>
      </trkpt>
      <trkpt lat="45.97431" lon="4.60604">
        <ele>402</ele>
        <time>2016-11-12T11:44:47Z</time>
      </trkpt>
      <trkpt lat="45.97426" lon="4.60599">
        <ele>402</ele>
        <time>2016-11-12T11:44:48Z</time>
      </trkpt>
      <trkpt lat="45.97422" lon="4.60595">
        <ele>401</ele>
        <time>2016-11-12T11:44:49Z</time>
      </trkpt>
      <trkpt lat="45.97417" lon="4.6059">
        <ele>401</ele>
        <time>2016-11-12T11:44:50Z</time>
      </trkpt>
      <trkpt lat="45.97411" lon="4.60587">
        <ele>400</ele>
        <time>2016-11-12T11:44:51Z</time>
      </trkpt>
      <trkpt lat="45.97406" lon="4.60583">
        <ele>400</ele>
        <time>2016-11-12T11:44:52Z</time>
      </trkpt>
      <trkpt lat="45.97401" lon="4.6058">
        <ele>400</ele>
        <time>2016-11-12T11:44:53Z</time>
      </trkpt>
      <trkpt lat="45.97395" lon="4.60576">
        <ele>400</ele>
        <time>2016-11-12T11:44:54Z</time>
      </trkpt>
      <trkpt lat="45.9739" lon="4.60573">
        <ele>400</ele>
        <time>2016-11-12T11:44:55Z</time>
      </trkpt>
      <trkpt lat="45.97384" lon="4.60568">
        <ele>399</ele>
        <time>2016-11-12T11:44:56Z</time>
      </trkpt>
      <trkpt lat="45.97379" lon="4.60564">
        <ele>399</ele>
        <time>2016-11-12T11:44:57Z</time>
      </trkpt>
      <trkpt lat="45.97374" lon="4.6056">
        <ele>399</ele>
        <time>2016-11-12T11:44:58Z</time>
      </trkpt>
      <trkpt lat="45.97368" lon="4.60555">
        <ele>399</ele>
        <time>2016-11-12T11:44:59Z</time>
      </trkpt>
      <trkpt lat="45.97363" lon="4.60551">
        <ele>399</ele>
        <time>2016-11-12T11:45:00Z</time>
      </trkpt>
      <trkpt lat="45.97358" lon="4.60547">
        <ele>399</ele>
        <time>2016-11-12T11:45:01Z</time>
      </trkpt>
      <trkpt lat="45.97353" lon="4.60543">
        <ele>399</ele>
        <time>2016-11-12T11:45:02Z</time>
      </trkpt>
      <trkpt lat="45.97349" lon="4.60539">
        <ele>399</ele>
        <time>2016-11-12T11:45:03Z</time>
      </trkpt>
      <trkpt lat="45.97344" lon="4.60535">
        <ele>399</ele>
        <time>2016-11-12T11:45:04Z</time>
      </trkpt>
      <trkpt lat="45.9734" lon="4.60531">
        <ele>399</ele>
        <time>2016-11-12T11:45:05Z</time>
      </trkpt>
      <trkpt lat="45.97335" lon="4.60527">
        <ele>399</ele>
        <time>2016-11-12T11:45:06Z</time>
      </trkpt>
      <trkpt lat="45.9733" lon="4.60523">
        <ele>398</ele>
        <time>2016-11-12T11:45:07Z</time>
      </trkpt>
      <trkpt lat="45.97325" lon="4.6052">
        <ele>398</ele>
        <time>2016-11-12T11:45:08Z</time>
      </trkpt>
      <trkpt lat="45.97321" lon="4.60517">
        <ele>398</ele>
        <time>2016-11-12T11:45:09Z</time>
      </trkpt>
      <trkpt lat="45.97316" lon="4.60513">
        <ele>398</ele>
        <time>2016-11-12T11:45:10Z</time>
      </trkpt>
      <trkpt lat="45.97311" lon="4.60509">
        <ele>398</ele>
        <time>2016-11-12T11:45:11Z</time>
      </trkpt>
      <trkpt lat="45.97307" lon="4.60505">
        <ele>397</ele>
        <time>2016-11-12T11:45:12Z</time>
      </trkpt>
      <trkpt lat="45.97303" lon="4.60501">
        <ele>397</ele>
        <time>2016-11-12T11:45:13Z</time>
      </trkpt>
      <trkpt lat="45.97299" lon="4.60497">
        <ele>400</ele>
        <time>2016-11-12T11:45:14Z</time>
      </trkpt>
      <trkpt lat="45.97294" lon="4.60493">
        <ele>400</ele>
        <time>2016-11-12T11:45:15Z</time>
      </trkpt>
      <trkpt lat="45.9729" lon="4.60489">
        <ele>400</ele>
        <time>2016-11-12T11:45:16Z</time>
      </trkpt>
      <trkpt lat="45.97286" lon="4.60485">
        <ele>400</ele>
        <time>2016-11-12T11:45:17Z</time>
      </trkpt>
      <trkpt lat="45.97282" lon="4.60481">
        <ele>400</ele>
        <time>2016-11-12T11:45:18Z</time>
      </trkpt>
      <trkpt lat="45.97278" lon="4.60477">
        <ele>400</ele>
        <time>2016-11-12T11:45:19Z</time>
      </trkpt>
      <trkpt lat="45.97274" lon="4.60473">
        <ele>400</ele>
        <time>2016-11-12T11:45:20Z</time>
      </trkpt>
      <trkpt lat="45.97267" lon="4.60466">
        <ele>400</ele>
        <time>2016-11-12T11:45:22Z</time>
      </trkpt>
      <trkpt lat="45.97264" lon="4.60462">
        <ele>401</ele>
        <time>2016-11-12T11:45:23Z</time>
      </trkpt>
      <trkpt lat="45.97257" lon="4.60455">
        <ele>401</ele>
        <time>2016-11-12T11:45:25Z</time>
      </trkpt>
      <trkpt lat="45.97254" lon="4.60452">
        <ele>401</ele>
        <time>2016-11-12T11:45:26Z</time>
      </trkpt>
      <trkpt lat="45.97248" lon="4.60445">
        <ele>401</ele>
        <time>2016-11-12T11:45:28Z</time>
      </trkpt>
      <trkpt lat="45.97245" lon="4.60442">
        <ele>401</ele>
        <time>2016-11-12T11:45:29Z</time>
      </trkpt>
      <trkpt lat="45.9724" lon="4.60436">
        <ele>401</ele>
        <time>2016-11-12T11:45:31Z</time>
      </trkpt>
      <trkpt lat="45.97236" lon="4.60433">
        <ele>401</ele>
        <time>2016-11-12T11:45:32Z</time>
      </trkpt>
      <trkpt lat="45.97231" lon="4.60428">
        <ele>401</ele>
        <time>2016-11-12T11:45:34Z</time>
      </trkpt>
      <trkpt lat="45.97228" lon="4.60425">
        <ele>401</ele>
        <time>2016-11-12T11:45:35Z</time>
      </trkpt>
      <trkpt lat="45.97222" lon="4.6042">
        <ele>401</ele>
        <time>2016-11-12T11:45:37Z</time>
      </trkpt>
      <trkpt lat="45.9722" lon="4.60417">
        <ele>401</ele>
        <time>2016-11-12T11:45:38Z</time>
      </trkpt>
      <trkpt lat="45.97214" lon="4.60412">
        <ele>406</ele>
        <time>2016-11-12T11:45:40Z</time>
      </trkpt>
      <trkpt lat="45.9721" lon="4.6041">
        <ele>406</ele>
        <time>2016-11-12T11:45:41Z</time>
      </trkpt>
      <trkpt lat="45.97204" lon="4.60406">
        <ele>406</ele>
        <time>2016-11-12T11:45:43Z</time>
      </trkpt>
      <trkpt lat="45.972" lon="4.60405">
        <ele>406</ele>
        <time>2016-11-12T11:45:44Z</time>
      </trkpt>
      <trkpt lat="45.97193" lon="4.60406">
        <ele>406</ele>
        <time>2016-11-12T11:45:46Z</time>
      </trkpt>
      <trkpt lat="45.9719" lon="4.60406">
        <ele>405</ele>
        <time>2016-11-12T11:45:47Z</time>
      </trkpt>
      <trkpt lat="45.97183" lon="4.60408">
        <ele>405</ele>
        <time>2016-11-12T11:45:49Z</time>
      </trkpt>
      <trkpt lat="45.9718" lon="4.60409">
        <ele>405</ele>
        <time>2016-11-12T11:45:50Z</time>
      </trkpt>
      <trkpt lat="45.97173" lon="4.60412">
        <ele>404</ele>
        <time>2016-11-12T11:45:52Z</time>
      </trkpt>
      <trkpt lat="45.97169" lon="4.60414">
        <ele>404</ele>
        <time>2016-11-12T11:45:53Z</time>
      </trkpt>
      <trkpt lat="45.97163" lon="4.60418">
        <ele>403</ele>
        <time>2016-11-12T11:45:55Z</time>
      </trkpt>
      <trkpt lat="45.9716" lon="4.60421">
        <ele>404</ele>
        <time>2016-11-12T11:45:56Z</time>
      </trkpt>
      <trkpt lat="45.97154" lon="4.60425">
        <ele>404</ele>
        <time>2016-11-12T11:45:58Z</time>
      </trkpt>
      <trkpt lat="45.97151" lon="4.60427">
        <ele>405</ele>
        <time>2016-11-12T11:45:59Z</time>
      </trkpt>
      <trkpt lat="45.97146" lon="4.60431">
        <ele>405</ele>
        <time>2016-11-12T11:46:01Z</time>
      </trkpt>
      <trkpt lat="45.97143" lon="4.60433">
        <ele>405</ele>
        <time>2016-11-12T11:46:02Z</time>
      </trkpt>
      <trkpt lat="45.97137" lon="4.60437">
        <ele>405</ele>
        <time>2016-11-12T11:46:04Z</time>
      </trkpt>
      <trkpt lat="45.97135" lon="4.60439">
        <ele>406</ele>
        <time>2016-11-12T11:46:05Z</time>
      </trkpt>
      <trkpt lat="45.97127" lon="4.60446">
        <ele>406</ele>
        <time>2016-11-12T11:46:08Z</time>
      </trkpt>
      <trkpt lat="45.97125" lon="4.60448">
        <ele>406</ele>
        <time>2016-11-12T11:46:09Z</time>
      </trkpt>
      <trkpt lat="45.97117" lon="4.60454">
        <ele>406</ele>
        <time>2016-11-12T11:46:12Z</time>
      </trkpt>
      <trkpt lat="45.97115" lon="4.60456">
        <ele>406</ele>
        <time>2016-11-12T11:46:13Z</time>
      </trkpt>
      <trkpt lat="45.97108" lon="4.60462">
        <ele>407</ele>
        <time>2016-11-12T11:46:16Z</time>
      </trkpt>
      <trkpt lat="45.97105" lon="4.60463">
        <ele>407</ele>
        <time>2016-11-12T11:46:17Z</time>
      </trkpt>
      <trkpt lat="45.97098" lon="4.6047">
        <ele>407</ele>
        <time>2016-11-12T11:46:20Z</time>
      </trkpt>
      <trkpt lat="45.97096" lon="4.60472">
        <ele>407</ele>
        <time>2016-11-12T11:46:21Z</time>
      </trkpt>
      <trkpt lat="45.97089" lon="4.60477">
        <ele>407</ele>
        <time>2016-11-12T11:46:24Z</time>
      </trkpt>
      <trkpt lat="45.97087" lon="4.6048">
        <ele>407</ele>
        <time>2016-11-12T11:46:25Z</time>
      </trkpt>
      <trkpt lat="45.9708" lon="4.60485">
        <ele>411</ele>
        <time>2016-11-12T11:46:28Z</time>
      </trkpt>
      <trkpt lat="45.97078" lon="4.60487">
        <ele>411</ele>
        <time>2016-11-12T11:46:29Z</time>
      </trkpt>
      <trkpt lat="45.97073" lon="4.60494">
        <ele>410</ele>
        <time>2016-11-12T11:46:32Z</time>
      </trkpt>
      <trkpt lat="45.97071" lon="4.60497">
        <ele>411</ele>
        <time>2016-11-12T11:46:33Z</time>
      </trkpt>
      <trkpt lat="45.97064" lon="4.60503">
        <ele>410</ele>
        <time>2016-11-12T11:46:36Z</time>
      </trkpt>
      <trkpt lat="45.97061" lon="4.60505">
        <ele>410</ele>
        <time>2016-11-12T11:46:37Z</time>
      </trkpt>
      <trkpt lat="45.97054" lon="4.60511">
        <ele>410</ele>
        <time>2016-11-12T11:46:40Z</time>
      </trkpt>
      <trkpt lat="45.97052" lon="4.60512">
        <ele>410</ele>
        <time>2016-11-12T11:46:41Z</time>
      </trkpt>
      <trkpt lat="45.97044" lon="4.60517">
        <ele>411</ele>
        <time>2016-11-12T11:46:45Z</time>
      </trkpt>
      <trkpt lat="45.97043" lon="4.60518">
        <ele>411</ele>
        <time>2016-11-12T11:46:46Z</time>
      </trkpt>
      <trkpt lat="45.97037" lon="4.60524">
        <ele>411</ele>
        <time>2016-11-12T11:46:49Z</time>
      </trkpt>
      <trkpt lat="45.97034" lon="4.60525">
        <ele>411</ele>
        <time>2016-11-12T11:46:50Z</time>
      </trkpt>
      <trkpt lat="45.97028" lon="4.60531">
        <ele>412</ele>
        <time>2016-11-12T11:46:53Z</time>
      </trkpt>
      <trkpt lat="45.97026" lon="4.60534">
        <ele>412</ele>
        <time>2016-11-12T11:46:54Z</time>
      </trkpt>
      <trkpt lat="45.97019" lon="4.60541">
        <ele>412</ele>
        <time>2016-11-12T11:46:57Z</time>
      </trkpt>
      <trkpt lat="45.97017" lon="4.60543">
        <ele>412</ele>
        <time>2016-11-12T11:46:58Z</time>
      </trkpt>
      <trkpt lat="45.9701" lon="4.60549">
        <ele>412</ele>
        <time>2016-11-12T11:47:01Z</time>
      </trkpt>
      <trkpt lat="45.97007" lon="4.60551">
        <ele>412</ele>
        <time>2016-11-12T11:47:02Z</time>
      </trkpt>
      <trkpt lat="45.97001" lon="4.60556">
        <ele>412</ele>
        <time>2016-11-12T11:47:05Z</time>
      </trkpt>
      <trkpt lat="45.96999" lon="4.60558">
        <ele>417</ele>
        <time>2016-11-12T11:47:06Z</time>
      </trkpt>
      <trkpt lat="45.96992" lon="4.60563">
        <ele>417</ele>
        <time>2016-11-12T11:47:09Z</time>
      </trkpt>
      <trkpt lat="45.9699" lon="4.60564">
        <ele>417</ele>
        <time>2016-11-12T11:47:10Z</time>
      </trkpt>
      <trkpt lat="45.96984" lon="4.60569">
        <ele>417</ele>
        <time>2016-11-12T11:47:13Z</time>
      </trkpt>
      <trkpt lat="45.96982" lon="4.6057">
        <ele>417</ele>
        <time>2016-11-12T11:47:14Z</time>
      </trkpt>
      <trkpt lat="45.96975" lon="4.60576">
        <ele>417</ele>
        <time>2016-11-12T11:47:18Z</time>
      </trkpt>
      <trkpt lat="45.96974" lon="4.60578">
        <ele>417</ele>
        <time>2016-11-12T11:47:19Z</time>
      </trkpt>
      <trkpt lat="45.96966" lon="4.60583">
        <ele>418</ele>
        <time>2016-11-12T11:47:23Z</time>
      </trkpt>
      <trkpt lat="45.96964" lon="4.60584">
        <ele>416</ele>
        <time>2016-11-12T11:47:24Z</time>
      </trkpt>
      <trkpt lat="45.96957" lon="4.6059">
        <ele>416</ele>
        <time>2016-11-12T11:47:27Z</time>
      </trkpt>
      <trkpt lat="45.96955" lon="4.60592">
        <ele>417</ele>
        <time>2016-11-12T11:47:28Z</time>
      </trkpt>
      <trkpt lat="45.96948" lon="4.60597">
        <ele>417</ele>
        <time>2016-11-12T11:47:31Z</time>
      </trkpt>
      <trkpt lat="45.96946" lon="4.60599">
        <ele>417</ele>
        <time>2016-11-12T11:47:32Z</time>
      </trkpt>
      <trkpt lat="45.9694" lon="4.60605">
        <ele>417</ele>
        <time>2016-11-12T11:47:35Z</time>
      </trkpt>
      <trkpt lat="45.96938" lon="4.60607">
        <ele>417</ele>
        <time>2016-11-12T11:47:36Z</time>
      </trkpt>
      <trkpt lat="45.96931" lon="4.60613">
        <ele>417</ele>
        <time>2016-11-12T11:47:39Z</time>
      </trkpt>
      <trkpt lat="45.96929" lon="4.60614">
        <ele>417</ele>
        <time>2016-11-12T11:47:40Z</time>
      </trkpt>
      <trkpt lat="45.96922" lon="4.6062">
        <ele>417</ele>
        <time>2016-11-12T11:47:43Z</time>
      </trkpt>
      <trkpt lat="45.96919" lon="4.60622">
        <ele>417</ele>
        <time>2016-11-12T11:47:44Z</time>
      </trkpt>
      <trkpt lat="45.96912" lon="4.60628">
        <ele>422</ele>
        <time>2016-11-12T11:47:47Z</time>
      </trkpt>
      <trkpt lat="45.9691" lon="4.6063">
        <ele>422</ele>
        <time>2016-11-12T11:47:48Z</time>
      </trkpt>
      <trkpt lat="45.96902" lon="4.60635">
        <ele>422</ele>
        <time>2016-11-12T11:47:51Z</time>
      </trkpt>
      <trkpt lat="45.969" lon="4.60637">
        <ele>422</ele>
        <time>2016-11-12T11:47:52Z</time>
      </trkpt>
      <trkpt lat="45.96893" lon="4.60642">
        <ele>422</ele>
        <time>2016-11-12T11:47:55Z</time>
      </trkpt>
      <trkpt lat="45.96891" lon="4.60645">
        <ele>422</ele>
        <time>2016-11-12T11:47:56Z</time>
      </trkpt>
      <trkpt lat="45.96883" lon="4.60651">
        <ele>423</ele>
        <time>2016-11-12T11:47:59Z</time>
      </trkpt>
      <trkpt lat="45.9688" lon="4.60653">
        <ele>423</ele>
        <time>2016-11-12T11:48:00Z</time>
      </trkpt>
      <trkpt lat="45.96873" lon="4.60659">
        <ele>423</ele>
        <time>2016-11-12T11:48:03Z</time>
      </trkpt>
      <trkpt lat="45.9687" lon="4.60661">
        <ele>423</ele>
        <time>2016-11-12T11:48:04Z</time>
      </trkpt>
      <trkpt lat="45.96863" lon="4.60667">
        <ele>421</ele>
        <time>2016-11-12T11:48:07Z</time>
      </trkpt>
      <trkpt lat="45.96861" lon="4.60669">
        <ele>421</ele>
        <time>2016-11-12T11:48:08Z</time>
      </trkpt>
      <trkpt lat="45.96854" lon="4.60676">
        <ele>422</ele>
        <time>2016-11-12T11:48:11Z</time>
      </trkpt>
      <trkpt lat="45.96852" lon="4.60678">
        <ele>422</ele>
        <time>2016-11-12T11:48:12Z</time>
      </trkpt>
      <trkpt lat="45.96845" lon="4.60684">
        <ele>422</ele>
        <time>2016-11-12T11:48:15Z</time>
      </trkpt>
      <trkpt lat="45.96843" lon="4.60687">
        <ele>422</ele>
        <time>2016-11-12T11:48:16Z</time>
      </trkpt>
      <trkpt lat="45.96835" lon="4.60692">
        <ele>422</ele>
        <time>2016-11-12T11:48:19Z</time>
      </trkpt>
      <trkpt lat="45.96832" lon="4.60694">
        <ele>427</ele>
        <time>2016-11-12T11:48:20Z</time>
      </trkpt>
      <trkpt lat="45.96825" lon="4.607">
        <ele>427</ele>
        <time>2016-11-12T11:48:23Z</time>
      </trkpt>
      <trkpt lat="45.96823" lon="4.60702">
        <ele>427</ele>
        <time>2016-11-12T11:48:24Z</time>
      </trkpt>
      <trkpt lat="45.96816" lon="4.60708">
        <ele>427</ele>
        <time>2016-11-12T11:48:27Z</time>
      </trkpt>
      <trkpt lat="45.96814" lon="4.6071">
        <ele>427</ele>
        <time>2016-11-12T11:48:28Z</time>
      </trkpt>
      <trkpt lat="45.96807" lon="4.60716">
        <ele>427</ele>
        <time>2016-11-12T11:48:31Z</time>
      </trkpt>
      <trkpt lat="45.96804" lon="4.60718">
        <ele>427</ele>
        <time>2016-11-12T11:48:32Z</time>
      </trkpt>
      <trkpt lat="45.96797" lon="4.60724">
        <ele>427</ele>
        <time>2016-11-12T11:48:35Z</time>
      </trkpt>
      <trkpt lat="45.96795" lon="4.60726">
        <ele>427</ele>
        <time>2016-11-12T11:48:36Z</time>
      </trkpt>
      <trkpt lat="45.96788" lon="4.60734">
        <ele>428</ele>
        <time>2016-11-12T11:48:39Z</time>
      </trkpt>
      <trkpt lat="45.96785" lon="4.60736">
        <ele>428</ele>
        <time>2016-11-12T11:48:40Z</time>
      </trkpt>
      <trkpt lat="45.9678" lon="4.6074">
        <ele>428</ele>
        <time>2016-11-12T11:48:42Z</time>
      </trkpt>
      <trkpt lat="45.96777" lon="4.60742">
        <ele>428</ele>
        <time>2016-11-12T11:48:43Z</time>
      </trkpt>
      <trkpt lat="45.96769" lon="4.60748">
        <ele>428</ele>
        <time>2016-11-12T11:48:46Z</time>
      </trkpt>
      <trkpt lat="45.96767" lon="4.60751">
        <ele>428</ele>
        <time>2016-11-12T11:48:47Z</time>
      </trkpt>
      <trkpt lat="45.9676" lon="4.60756">
        <ele>428</ele>
        <time>2016-11-12T11:48:50Z</time>
      </trkpt>
      <trkpt lat="45.96757" lon="4.60758">
        <ele>428</ele>
        <time>2016-11-12T11:48:51Z</time>
      </trkpt>
      <trkpt lat="45.9675" lon="4.60764">
        <ele>430</ele>
        <time>2016-11-12T11:48:54Z</time>
      </trkpt>
      <trkpt lat="45.96747" lon="4.60766">
        <ele>430</ele>
        <time>2016-11-12T11:48:55Z</time>
      </trkpt>
      <trkpt lat="45.9674" lon="4.60772">
        <ele>430</ele>
        <time>2016-11-12T11:48:58Z</time>
      </trkpt>
      <trkpt lat="45.96737" lon="4.60773">
        <ele>430</ele>
        <time>2016-11-12T11:48:59Z</time>
      </trkpt>
      <trkpt lat="45.96729" lon="4.60778">
        <ele>431</ele>
        <time>2016-11-12T11:49:02Z</time>
      </trkpt>
      <trkpt lat="45.96727" lon="4.6078">
        <ele>431</ele>
        <time>2016-11-12T11:49:03Z</time>
      </trkpt>
      <trkpt lat="45.9672" lon="4.60785">
        <ele>431</ele>
        <time>2016-11-12T11:49:06Z</time>
      </trkpt>
      <trkpt lat="45.96718" lon="4.60787">
        <ele>431</ele>
        <time>2016-11-12T11:49:07Z</time>
      </trkpt>
      <trkpt lat="45.96713" lon="4.60792">
        <ele>431</ele>
        <time>2016-11-12T11:49:10Z</time>
      </trkpt>
      <trkpt lat="45.96713" lon="4.60793">
        <ele>431</ele>
        <time>2016-11-12T11:49:11Z</time>
      </trkpt>
      <trkpt lat="45.96713" lon="4.60793">
        <ele>431</ele>
        <time>2016-11-12T11:49:23Z</time>
      </trkpt>
      <trkpt lat="45.96713" lon="4.60795">
        <ele>431</ele>
        <time>2016-11-12T11:49:24Z</time>
      </trkpt>
      <trkpt lat="45.96706" lon="4.60801">
        <ele>431</ele>
        <time>2016-11-12T11:53:29Z</time>
      </trkpt>
      <trkpt lat="45.96705" lon="4.60802">
        <ele>431</ele>
        <time>2016-11-12T11:53:30Z</time>
      </trkpt>
      <trkpt lat="45.96714" lon="4.60802">
        <ele>431</ele>
        <time>2016-11-12T11:55:08Z</time>
      </trkpt>
      <trkpt lat="45.96714" lon="4.60801">
        <ele>431</ele>
        <time>2016-11-12T11:55:09Z</time>
      </trkpt>
      <trkpt lat="45.96709" lon="4.60793">
        <ele>431</ele>
        <time>2016-11-12T12:00:53Z</time>
      </trkpt>
      <trkpt lat="45.96707" lon="4.60792">
        <ele>431</ele>
        <time>2016-11-12T12:00:54Z</time>
      </trkpt>
      <trkpt lat="45.96702" lon="4.60785">
        <ele>431</ele>
        <time>2016-11-12T12:00:57Z</time>
      </trkpt>
      <trkpt lat="45.96701" lon="4.60782">
        <ele>431</ele>
        <time>2016-11-12T12:00:58Z</time>
      </trkpt>
      <trkpt lat="45.96694" lon="4.60776">
        <ele>432</ele>
        <time>2016-11-12T12:01:01Z</time>
      </trkpt>
      <trkpt lat="45.9669" lon="4.60774">
        <ele>432</ele>
        <time>2016-11-12T12:01:02Z</time>
      </trkpt>
      <trkpt lat="45.96684" lon="4.60769">
        <ele>432</ele>
        <time>2016-11-12T12:01:04Z</time>
      </trkpt>
      <trkpt lat="45.96682" lon="4.60767">
        <ele>432</ele>
        <time>2016-11-12T12:01:05Z</time>
      </trkpt>
      <trkpt lat="45.96676" lon="4.60761">
        <ele>433</ele>
        <time>2016-11-12T12:01:07Z</time>
      </trkpt>
      <trkpt lat="45.96673" lon="4.60757">
        <ele>433</ele>
        <time>2016-11-12T12:01:08Z</time>
      </trkpt>
      <trkpt lat="45.96667" lon="4.60749">
        <ele>434</ele>
        <time>2016-11-12T12:01:10Z</time>
      </trkpt>
      <trkpt lat="45.96663" lon="4.60745">
        <ele>434</ele>
        <time>2016-11-12T12:01:11Z</time>
      </trkpt>
      <trkpt lat="45.96659" lon="4.60741">
        <ele>434</ele>
        <time>2016-11-12T12:01:12Z</time>
      </trkpt>
      <trkpt lat="45.96656" lon="4.60736">
        <ele>434</ele>
        <time>2016-11-12T12:01:13Z</time>
      </trkpt>
      <trkpt lat="45.96652" lon="4.60732">
        <ele>434</ele>
        <time>2016-11-12T12:01:14Z</time>
      </trkpt>
      <trkpt lat="45.96648" lon="4.60727">
        <ele>434</ele>
        <time>2016-11-12T12:01:15Z</time>
      </trkpt>
      <trkpt lat="45.96645" lon="4.60723">
        <ele>434</ele>
        <time>2016-11-12T12:01:16Z</time>
      </trkpt>
      <trkpt lat="45.96641" lon="4.60718">
        <ele>434</ele>
        <time>2016-11-12T12:01:17Z</time>
      </trkpt>
      <trkpt lat="45.96636" lon="4.60713">
        <ele>434</ele>
        <time>2016-11-12T12:01:18Z</time>
      </trkpt>
      <trkpt lat="45.96632" lon="4.60709">
        <ele>434</ele>
        <time>2016-11-12T12:01:19Z</time>
      </trkpt>
      <trkpt lat="45.96628" lon="4.60704">
        <ele>434</ele>
        <time>2016-11-12T12:01:20Z</time>
      </trkpt>
      <trkpt lat="45.96624" lon="4.607">
        <ele>434</ele>
        <time>2016-11-12T12:01:21Z</time>
      </trkpt>
      <trkpt lat="45.9662" lon="4.60696">
        <ele>434</ele>
        <time>2016-11-12T12:01:22Z</time>
      </trkpt>
      <trkpt lat="45.96616" lon="4.60691">
        <ele>434</ele>
        <time>2016-11-12T12:01:23Z</time>
      </trkpt>
      <trkpt lat="45.96611" lon="4.60687">
        <ele>434</ele>
        <time>2016-11-12T12:01:24Z</time>
      </trkpt>
      <trkpt lat="45.96607" lon="4.60682">
        <ele>434</ele>
        <time>2016-11-12T12:01:25Z</time>
      </trkpt>
      <trkpt lat="45.96603" lon="4.60678">
        <ele>434</ele>
        <time>2016-11-12T12:01:26Z</time>
      </trkpt>
      <trkpt lat="45.96599" lon="4.60675">
        <ele>434</ele>
        <time>2016-11-12T12:01:27Z</time>
      </trkpt>
      <trkpt lat="45.96595" lon="4.60671">
        <ele>434</ele>
        <time>2016-11-12T12:01:28Z</time>
      </trkpt>
      <trkpt lat="45.96591" lon="4.60668">
        <ele>435</ele>
        <time>2016-11-12T12:01:29Z</time>
      </trkpt>
      <trkpt lat="45.96586" lon="4.60665">
        <ele>437</ele>
        <time>2016-11-12T12:01:30Z</time>
      </trkpt>
      <trkpt lat="45.96581" lon="4.60661">
        <ele>435</ele>
        <time>2016-11-12T12:01:31Z</time>
      </trkpt>
      <trkpt lat="45.96577" lon="4.60657">
        <ele>436</ele>
        <time>2016-11-12T12:01:32Z</time>
      </trkpt>
      <trkpt lat="45.96573" lon="4.60653">
        <ele>436</ele>
        <time>2016-11-12T12:01:33Z</time>
      </trkpt>
      <trkpt lat="45.96568" lon="4.60649">
        <ele>436</ele>
        <time>2016-11-12T12:01:34Z</time>
      </trkpt>
      <trkpt lat="45.96564" lon="4.60644">
        <ele>436</ele>
        <time>2016-11-12T12:01:35Z</time>
      </trkpt>
      <trkpt lat="45.9656" lon="4.6064">
        <ele>437</ele>
        <time>2016-11-12T12:01:36Z</time>
      </trkpt>
      <trkpt lat="45.96556" lon="4.60636">
        <ele>437</ele>
        <time>2016-11-12T12:01:37Z</time>
      </trkpt>
      <trkpt lat="45.96552" lon="4.60631">
        <ele>437</ele>
        <time>2016-11-12T12:01:38Z</time>
      </trkpt>
      <trkpt lat="45.96548" lon="4.60626">
        <ele>437</ele>
        <time>2016-11-12T12:01:39Z</time>
      </trkpt>
      <trkpt lat="45.96544" lon="4.60621">
        <ele>437</ele>
        <time>2016-11-12T12:01:40Z</time>
      </trkpt>
      <trkpt lat="45.9654" lon="4.60616">
        <ele>437</ele>
        <time>2016-11-12T12:01:41Z</time>
      </trkpt>
      <trkpt lat="45.96536" lon="4.60612">
        <ele>437</ele>
        <time>2016-11-12T12:01:42Z</time>
      </trkpt>
      <trkpt lat="45.96532" lon="4.60608">
        <ele>437</ele>
        <time>2016-11-12T12:01:43Z</time>
      </trkpt>
      <trkpt lat="45.96528" lon="4.60603">
        <ele>437</ele>
        <time>2016-11-12T12:01:44Z</time>
      </trkpt>
      <trkpt lat="45.96524" lon="4.60598">
        <ele>436</ele>
        <time>2016-11-12T12:01:45Z</time>
      </trkpt>
      <trkpt lat="45.9652" lon="4.60594">
        <ele>436</ele>
        <time>2016-11-12T12:01:46Z</time>
      </trkpt>
      <trkpt lat="45.96516" lon="4.60589">
        <ele>435</ele>
        <time>2016-11-12T12:01:47Z</time>
      </trkpt>
      <trkpt lat="45.96512" lon="4.60583">
        <ele>442</ele>
        <time>2016-11-12T12:01:48Z</time>
      </trkpt>
      <trkpt lat="45.96507" lon="4.60578">
        <ele>440</ele>
        <time>2016-11-12T12:01:49Z</time>
      </trkpt>
      <trkpt lat="45.96503" lon="4.60573">
        <ele>441</ele>
        <time>2016-11-12T12:01:50Z</time>
      </trkpt>
      <trkpt lat="45.96499" lon="4.60568">
        <ele>433</ele>
        <time>2016-11-12T12:01:51Z</time>
      </trkpt>
      <trkpt lat="45.96495" lon="4.60564">
        <ele>433</ele>
        <time>2016-11-12T12:01:52Z</time>
      </trkpt>
      <trkpt lat="45.96491" lon="4.6056">
        <ele>433</ele>
        <time>2016-11-12T12:01:53Z</time>
      </trkpt>
      <trkpt lat="45.96487" lon="4.60554">
        <ele>433</ele>
        <time>2016-11-12T12:01:54Z</time>
      </trkpt>
      <trkpt lat="45.96483" lon="4.60549">
        <ele>434</ele>
        <time>2016-11-12T12:01:55Z</time>
      </trkpt>
      <trkpt lat="45.9648" lon="4.60544">
        <ele>434</ele>
        <time>2016-11-12T12:01:56Z</time>
      </trkpt>
      <trkpt lat="45.96476" lon="4.60539">
        <ele>434</ele>
        <time>2016-11-12T12:01:57Z</time>
      </trkpt>
      <trkpt lat="45.96473" lon="4.60533">
        <ele>435</ele>
        <time>2016-11-12T12:01:58Z</time>
      </trkpt>
      <trkpt lat="45.96469" lon="4.60528">
        <ele>435</ele>
        <time>2016-11-12T12:01:59Z</time>
      </trkpt>
      <trkpt lat="45.96465" lon="4.60522">
        <ele>435</ele>
        <time>2016-11-12T12:02:00Z</time>
      </trkpt>
      <trkpt lat="45.96461" lon="4.60517">
        <ele>434</ele>
        <time>2016-11-12T12:02:01Z</time>
      </trkpt>
      <trkpt lat="45.96457" lon="4.6051">
        <ele>434</ele>
        <time>2016-11-12T12:02:02Z</time>
      </trkpt>
      <trkpt lat="45.96453" lon="4.60504">
        <ele>433</ele>
        <time>2016-11-12T12:02:03Z</time>
      </trkpt>
      <trkpt lat="45.96449" lon="4.60498">
        <ele>443</ele>
        <time>2016-11-12T12:02:04Z</time>
      </trkpt>
      <trkpt lat="45.96446" lon="4.60493">
        <ele>442</ele>
        <time>2016-11-12T12:02:05Z</time>
      </trkpt>
      <trkpt lat="45.96442" lon="4.60488">
        <ele>441</ele>
        <time>2016-11-12T12:02:06Z</time>
      </trkpt>
      <trkpt lat="45.96439" lon="4.60481">
        <ele>442</ele>
        <time>2016-11-12T12:02:07Z</time>
      </trkpt>
      <trkpt lat="45.96436" lon="4.60476">
        <ele>442</ele>
        <time>2016-11-12T12:02:08Z</time>
      </trkpt>
      <trkpt lat="45.96433" lon="4.6047">
        <ele>443</ele>
        <time>2016-11-12T12:02:09Z</time>
      </trkpt>
      <trkpt lat="45.9643" lon="4.60464">
        <ele>443</ele>
        <time>2016-11-12T12:02:10Z</time>
      </trkpt>
      <trkpt lat="45.96427" lon="4.60458">
        <ele>444</ele>
        <time>2016-11-12T12:02:11Z</time>
      </trkpt>
      <trkpt lat="45.96424" lon="4.60453">
        <ele>444</ele>
        <time>2016-11-12T12:02:12Z</time>
      </trkpt>
      <trkpt lat="45.9642" lon="4.60446">
        <ele>444</ele>
        <time>2016-11-12T12:02:13Z</time>
      </trkpt>
      <trkpt lat="45.96417" lon="4.6044">
        <ele>444</ele>
        <time>2016-11-12T12:02:14Z</time>
      </trkpt>
      <trkpt lat="45.96415" lon="4.60434">
        <ele>432</ele>
        <time>2016-11-12T12:02:15Z</time>
      </trkpt>
      <trkpt lat="45.96411" lon="4.60428">
        <ele>434</ele>
        <time>2016-11-12T12:02:16Z</time>
      </trkpt>
      <trkpt lat="45.96408" lon="4.60421">
        <ele>435</ele>
        <time>2016-11-12T12:02:17Z</time>
      </trkpt>
      <trkpt lat="45.96405" lon="4.60414">
        <ele>440</ele>
        <time>2016-11-12T12:02:18Z</time>
      </trkpt>
      <trkpt lat="45.96402" lon="4.60407">
        <ele>440</ele>
        <time>2016-11-12T12:02:19Z</time>
      </trkpt>
      <trkpt lat="45.96398" lon="4.60401">
        <ele>441</ele>
        <time>2016-11-12T12:02:20Z</time>
      </trkpt>
      <trkpt lat="45.96394" lon="4.60395">
        <ele>441</ele>
        <time>2016-11-12T12:02:21Z</time>
      </trkpt>
      <trkpt lat="45.9639" lon="4.6039">
        <ele>441</ele>
        <time>2016-11-12T12:02:22Z</time>
      </trkpt>
      <trkpt lat="45.96385" lon="4.60386">
        <ele>441</ele>
        <time>2016-11-12T12:02:23Z</time>
      </trkpt>
      <trkpt lat="45.9638" lon="4.60383">
        <ele>441</ele>
        <time>2016-11-12T12:02:24Z</time>
      </trkpt>
      <trkpt lat="45.96375" lon="4.60381">
        <ele>441</ele>
        <time>2016-11-12T12:02:25Z</time>
      </trkpt>
      <trkpt lat="45.96369" lon="4.60381">
        <ele>440</ele>
        <time>2016-11-12T12:02:26Z</time>
      </trkpt>
      <trkpt lat="45.96363" lon="4.60382">
        <ele>440</ele>
        <time>2016-11-12T12:02:27Z</time>
      </trkpt>
      <trkpt lat="45.96358" lon="4.60382">
        <ele>439</ele>
        <time>2016-11-12T12:02:28Z</time>
      </trkpt>
      <trkpt lat="45.96352" lon="4.60382">
        <ele>439</ele>
        <time>2016-11-12T12:02:29Z</time>
      </trkpt>
      <trkpt lat="45.96346" lon="4.60383">
        <ele>438</ele>
        <time>2016-11-12T12:02:30Z</time>
      </trkpt>
      <trkpt lat="45.9634" lon="4.60383">
        <ele>438</ele>
        <time>2016-11-12T12:02:31Z</time>
      </trkpt>
      <trkpt lat="45.96333" lon="4.60382">
        <ele>432</ele>
        <time>2016-11-12T12:02:32Z</time>
      </trkpt>
      <trkpt lat="45.96327" lon="4.60379">
        <ele>433</ele>
        <time>2016-11-12T12:02:33Z</time>
      </trkpt>
      <trkpt lat="45.96321" lon="4.60377">
        <ele>433</ele>
        <time>2016-11-12T12:02:34Z</time>
      </trkpt>
      <trkpt lat="45.96314" lon="4.60376">
        <ele>433</ele>
        <time>2016-11-12T12:02:35Z</time>
      </trkpt>
      <trkpt lat="45.96308" lon="4.60375">
        <ele>433</ele>
        <time>2016-11-12T12:02:36Z</time>
      </trkpt>
      <trkpt lat="45.96301" lon="4.60373">
        <ele>433</ele>
        <time>2016-11-12T12:02:37Z</time>
      </trkpt>
      <trkpt lat="45.96295" lon="4.60371">
        <ele>433</ele>
        <time>2016-11-12T12:02:38Z</time>
      </trkpt>
      <trkpt lat="45.96289" lon="4.6037">
        <ele>433</ele>
        <time>2016-11-12T12:02:39Z</time>
      </trkpt>
      <trkpt lat="45.96283" lon="4.60368">
        <ele>433</ele>
        <time>2016-11-12T12:02:40Z</time>
      </trkpt>
      <trkpt lat="45.96277" lon="4.60366">
        <ele>433</ele>
        <time>2016-11-12T12:02:41Z</time>
      </trkpt>
      <trkpt lat="45.9627" lon="4.60364">
        <ele>433</ele>
        <time>2016-11-12T12:02:42Z</time>
      </trkpt>
      <trkpt lat="45.96264" lon="4.60362">
        <ele>433</ele>
        <time>2016-11-12T12:02:43Z</time>
      </trkpt>
      <trkpt lat="45.96257" lon="4.6036">
        <ele>433</ele>
        <time>2016-11-12T12:02:44Z</time>
      </trkpt>
      <trkpt lat="45.9625" lon="4.6036">
        <ele>432</ele>
        <time>2016-11-12T12:02:45Z</time>
      </trkpt>
      <trkpt lat="45.96243" lon="4.6036">
        <ele>432</ele>
        <time>2016-11-12T12:02:46Z</time>
      </trkpt>
      <trkpt lat="45.96237" lon="4.6036">
        <ele>432</ele>
        <time>2016-11-12T12:02:47Z</time>
      </trkpt>
      <trkpt lat="45.96231" lon="4.60362">
        <ele>431</ele>
        <time>2016-11-12T12:02:48Z</time>
      </trkpt>
      <trkpt lat="45.96225" lon="4.60363">
        <ele>431</ele>
        <time>2016-11-12T12:02:49Z</time>
      </trkpt>
      <trkpt lat="45.96219" lon="4.60365">
        <ele>431</ele>
        <time>2016-11-12T12:02:50Z</time>
      </trkpt>
      <trkpt lat="45.96213" lon="4.60367">
        <ele>430</ele>
        <time>2016-11-12T12:02:51Z</time>
      </trkpt>
      <trkpt lat="45.96206" lon="4.6037">
        <ele>430</ele>
        <time>2016-11-12T12:02:52Z</time>
      </trkpt>
      <trkpt lat="45.962" lon="4.60373">
        <ele>430</ele>
        <time>2016-11-12T12:02:53Z</time>
      </trkpt>
      <trkpt lat="45.96194" lon="4.60377">
        <ele>430</ele>
        <time>2016-11-12T12:02:54Z</time>
      </trkpt>
      <trkpt lat="45.96189" lon="4.60382">
        <ele>429</ele>
        <time>2016-11-12T12:02:55Z</time>
      </trkpt>
      <trkpt lat="45.96184" lon="4.60388">
        <ele>429</ele>
        <time>2016-11-12T12:02:56Z</time>
      </trkpt>
      <trkpt lat="45.9618" lon="4.60396">
        <ele>428</ele>
        <time>2016-11-12T12:02:57Z</time>
      </trkpt>
      <trkpt lat="45.96177" lon="4.60404">
        <ele>428</ele>
        <time>2016-11-12T12:02:58Z</time>
      </trkpt>
      <trkpt lat="45.96174" lon="4.60414">
        <ele>427</ele>
        <time>2016-11-12T12:02:59Z</time>
      </trkpt>
      <trkpt lat="45.96172" lon="4.60423">
        <ele>424</ele>
        <time>2016-11-12T12:03:00Z</time>
      </trkpt>
      <trkpt lat="45.96169" lon="4.60433">
        <ele>423</ele>
        <time>2016-11-12T12:03:01Z</time>
      </trkpt>
      <trkpt lat="45.96166" lon="4.60442">
        <ele>429</ele>
        <time>2016-11-12T12:03:02Z</time>
      </trkpt>
      <trkpt lat="45.96162" lon="4.60451">
        <ele>429</ele>
        <time>2016-11-12T12:03:03Z</time>
      </trkpt>
      <trkpt lat="45.9616" lon="4.60461">
        <ele>429</ele>
        <time>2016-11-12T12:03:04Z</time>
      </trkpt>
      <trkpt lat="45.96158" lon="4.6047">
        <ele>428</ele>
        <time>2016-11-12T12:03:05Z</time>
      </trkpt>
      <trkpt lat="45.96155" lon="4.6048">
        <ele>427</ele>
        <time>2016-11-12T12:03:06Z</time>
      </trkpt>
      <trkpt lat="45.96152" lon="4.6049">
        <ele>426</ele>
        <time>2016-11-12T12:03:07Z</time>
      </trkpt>
      <trkpt lat="45.96149" lon="4.605">
        <ele>424</ele>
        <time>2016-11-12T12:03:08Z</time>
      </trkpt>
      <trkpt lat="45.96146" lon="4.60511">
        <ele>424</ele>
        <time>2016-11-12T12:03:09Z</time>
      </trkpt>
      <trkpt lat="45.96144" lon="4.60521">
        <ele>425</ele>
        <time>2016-11-12T12:03:10Z</time>
      </trkpt>
      <trkpt lat="45.96141" lon="4.60531">
        <ele>425</ele>
        <time>2016-11-12T12:03:11Z</time>
      </trkpt>
      <trkpt lat="45.96138" lon="4.60541">
        <ele>425</ele>
        <time>2016-11-12T12:03:12Z</time>
      </trkpt>
      <trkpt lat="45.96135" lon="4.6055">
        <ele>425</ele>
        <time>2016-11-12T12:03:13Z</time>
      </trkpt>
      <trkpt lat="45.96132" lon="4.60558">
        <ele>425</ele>
        <time>2016-11-12T12:03:14Z</time>
      </trkpt>
      <trkpt lat="45.9613" lon="4.60565">
        <ele>425</ele>
        <time>2016-11-12T12:03:15Z</time>
      </trkpt>
      <trkpt lat="45.96127" lon="4.60572">
        <ele>426</ele>
        <time>2016-11-12T12:03:16Z</time>
      </trkpt>
      <trkpt lat="45.96125" lon="4.60577">
        <ele>426</ele>
        <time>2016-11-12T12:03:17Z</time>
      </trkpt>
      <trkpt lat="45.9612" lon="4.60585">
        <ele>423</ele>
        <time>2016-11-12T12:03:19Z</time>
      </trkpt>
      <trkpt lat="45.96119" lon="4.60589">
        <ele>424</ele>
        <time>2016-11-12T12:03:20Z</time>
      </trkpt>
      <trkpt lat="45.96115" lon="4.60597">
        <ele>424</ele>
        <time>2016-11-12T12:03:22Z</time>
      </trkpt>
      <trkpt lat="45.96113" lon="4.606">
        <ele>424</ele>
        <time>2016-11-12T12:03:23Z</time>
      </trkpt>
      <trkpt lat="45.96108" lon="4.60607">
        <ele>424</ele>
        <time>2016-11-12T12:03:25Z</time>
      </trkpt>
      <trkpt lat="45.96106" lon="4.60611">
        <ele>424</ele>
        <time>2016-11-12T12:03:26Z</time>
      </trkpt>
      <trkpt lat="45.96103" lon="4.60619">
        <ele>424</ele>
        <time>2016-11-12T12:03:28Z</time>
      </trkpt>
      <trkpt lat="45.96101" lon="4.60623">
        <ele>424</ele>
        <time>2016-11-12T12:03:29Z</time>
      </trkpt>
      <trkpt lat="45.96096" lon="4.60631">
        <ele>423</ele>
        <time>2016-11-12T12:03:31Z</time>
      </trkpt>
      <trkpt lat="45.96094" lon="4.60635">
        <ele>423</ele>
        <time>2016-11-12T12:03:32Z</time>
      </trkpt>
      <trkpt lat="45.9609" lon="4.60642">
        <ele>423</ele>
        <time>2016-11-12T12:03:34Z</time>
      </trkpt>
      <trkpt lat="45.96087" lon="4.60645">
        <ele>423</ele>
        <time>2016-11-12T12:03:35Z</time>
      </trkpt>
      <trkpt lat="45.96083" lon="4.60652">
        <ele>430</ele>
        <time>2016-11-12T12:03:37Z</time>
      </trkpt>
      <trkpt lat="45.9608" lon="4.60655">
        <ele>429</ele>
        <time>2016-11-12T12:03:38Z</time>
      </trkpt>
      <trkpt lat="45.96076" lon="4.60663">
        <ele>427</ele>
        <time>2016-11-12T12:03:40Z</time>
      </trkpt>
      <trkpt lat="45.96074" lon="4.60667">
        <ele>428</ele>
        <time>2016-11-12T12:03:41Z</time>
      </trkpt>
      <trkpt lat="45.9607" lon="4.60675">
        <ele>427</ele>
        <time>2016-11-12T12:03:43Z</time>
      </trkpt>
      <trkpt lat="45.96067" lon="4.60679">
        <ele>427</ele>
        <time>2016-11-12T12:03:44Z</time>
      </trkpt>
      <trkpt lat="45.96062" lon="4.60686">
        <ele>428</ele>
        <time>2016-11-12T12:03:46Z</time>
      </trkpt>
      <trkpt lat="45.9606" lon="4.6069">
        <ele>429</ele>
        <time>2016-11-12T12:03:47Z</time>
      </trkpt>
      <trkpt lat="45.96055" lon="4.60698">
        <ele>429</ele>
        <time>2016-11-12T12:03:49Z</time>
      </trkpt>
      <trkpt lat="45.96053" lon="4.60703">
        <ele>429</ele>
        <time>2016-11-12T12:03:50Z</time>
      </trkpt>
      <trkpt lat="45.96049" lon="4.60711">
        <ele>429</ele>
        <time>2016-11-12T12:03:52Z</time>
      </trkpt>
      <trkpt lat="45.96047" lon="4.60716">
        <ele>429</ele>
        <time>2016-11-12T12:03:53Z</time>
      </trkpt>
      <trkpt lat="45.96044" lon="4.60725">
        <ele>429</ele>
        <time>2016-11-12T12:03:55Z</time>
      </trkpt>
      <trkpt lat="45.96043" lon="4.60731">
        <ele>429</ele>
        <time>2016-11-12T12:03:56Z</time>
      </trkpt>
      <trkpt lat="45.9604" lon="4.60741">
        <ele>430</ele>
        <time>2016-11-12T12:03:58Z</time>
      </trkpt>
      <trkpt lat="45.96039" lon="4.60746">
        <ele>430</ele>
        <time>2016-11-12T12:03:59Z</time>
      </trkpt>
      <trkpt lat="45.96036" lon="4.60755">
        <ele>427</ele>
        <time>2016-11-12T12:04:01Z</time>
      </trkpt>
      <trkpt lat="45.96034" lon="4.60761">
        <ele>427</ele>
        <time>2016-11-12T12:04:02Z</time>
      </trkpt>
      <trkpt lat="45.96031" lon="4.60769">
        <ele>427</ele>
        <time>2016-11-12T12:04:04Z</time>
      </trkpt>
      <trkpt lat="45.9603" lon="4.60773">
        <ele>427</ele>
        <time>2016-11-12T12:04:05Z</time>
      </trkpt>
      <trkpt lat="45.96027" lon="4.60782">
        <ele>427</ele>
        <time>2016-11-12T12:04:07Z</time>
      </trkpt>
      <trkpt lat="45.96026" lon="4.60787">
        <ele>427</ele>
        <time>2016-11-12T12:04:08Z</time>
      </trkpt>
      <trkpt lat="45.96022" lon="4.60796">
        <ele>427</ele>
        <time>2016-11-12T12:04:10Z</time>
      </trkpt>
      <trkpt lat="45.9602" lon="4.608">
        <ele>427</ele>
        <time>2016-11-12T12:04:11Z</time>
      </trkpt>
      <trkpt lat="45.96016" lon="4.60808">
        <ele>427</ele>
        <time>2016-11-12T12:04:13Z</time>
      </trkpt>
      <trkpt lat="45.96013" lon="4.60811">
        <ele>427</ele>
        <time>2016-11-12T12:04:14Z</time>
      </trkpt>
      <trkpt lat="45.96008" lon="4.60818">
        <ele>427</ele>
        <time>2016-11-12T12:04:16Z</time>
      </trkpt>
      <trkpt lat="45.96005" lon="4.60821">
        <ele>428</ele>
        <time>2016-11-12T12:04:17Z</time>
      </trkpt>
      <trkpt lat="45.95999" lon="4.60827">
        <ele>431</ele>
        <time>2016-11-12T12:04:19Z</time>
      </trkpt>
      <trkpt lat="45.95996" lon="4.6083">
        <ele>430</ele>
        <time>2016-11-12T12:04:20Z</time>
      </trkpt>
      <trkpt lat="45.9599" lon="4.60835">
        <ele>429</ele>
        <time>2016-11-12T12:04:22Z</time>
      </trkpt>
      <trkpt lat="45.95987" lon="4.60837">
        <ele>429</ele>
        <time>2016-11-12T12:04:23Z</time>
      </trkpt>
      <trkpt lat="45.95981" lon="4.60842">
        <ele>429</ele>
        <time>2016-11-12T12:04:25Z</time>
      </trkpt>
      <trkpt lat="45.95978" lon="4.60844">
        <ele>429</ele>
        <time>2016-11-12T12:04:26Z</time>
      </trkpt>
      <trkpt lat="45.95974" lon="4.60852">
        <ele>429</ele>
        <time>2016-11-12T12:04:28Z</time>
      </trkpt>
      <trkpt lat="45.95973" lon="4.60857">
        <ele>429</ele>
        <time>2016-11-12T12:04:29Z</time>
      </trkpt>
      <trkpt lat="45.95971" lon="4.60868">
        <ele>429</ele>
        <time>2016-11-12T12:04:31Z</time>
      </trkpt>
      <trkpt lat="45.95971" lon="4.60875">
        <ele>429</ele>
        <time>2016-11-12T12:04:32Z</time>
      </trkpt>
      <trkpt lat="45.95968" lon="4.60885">
        <ele>429</ele>
        <time>2016-11-12T12:04:34Z</time>
      </trkpt>
      <trkpt lat="45.95965" lon="4.6089">
        <ele>429</ele>
        <time>2016-11-12T12:04:35Z</time>
      </trkpt>
      <trkpt lat="45.95958" lon="4.60897">
        <ele>429</ele>
        <time>2016-11-12T12:04:37Z</time>
      </trkpt>
      <trkpt lat="45.95954" lon="4.60899">
        <ele>428</ele>
        <time>2016-11-12T12:04:38Z</time>
      </trkpt>
      <trkpt lat="45.95946" lon="4.60903">
        <ele>428</ele>
        <time>2016-11-12T12:04:40Z</time>
      </trkpt>
      <trkpt lat="45.95942" lon="4.60905">
        <ele>428</ele>
        <time>2016-11-12T12:04:41Z</time>
      </trkpt>
      <trkpt lat="45.95937" lon="4.60907">
        <ele>428</ele>
        <time>2016-11-12T12:04:42Z</time>
      </trkpt>
      <trkpt lat="45.95931" lon="4.60908">
        <ele>428</ele>
        <time>2016-11-12T12:04:43Z</time>
      </trkpt>
      <trkpt lat="45.95925" lon="4.60909">
        <ele>428</ele>
        <time>2016-11-12T12:04:44Z</time>
      </trkpt>
      <trkpt lat="45.95919" lon="4.6091">
        <ele>428</ele>
        <time>2016-11-12T12:04:45Z</time>
      </trkpt>
      <trkpt lat="45.95913" lon="4.60911">
        <ele>427</ele>
        <time>2016-11-12T12:04:46Z</time>
      </trkpt>
      <trkpt lat="45.95906" lon="4.60912">
        <ele>427</ele>
        <time>2016-11-12T12:04:47Z</time>
      </trkpt>
      <trkpt lat="45.959" lon="4.60913">
        <ele>427</ele>
        <time>2016-11-12T12:04:48Z</time>
      </trkpt>
      <trkpt lat="45.95893" lon="4.60914">
        <ele>426</ele>
        <time>2016-11-12T12:04:49Z</time>
      </trkpt>
      <trkpt lat="45.95885" lon="4.60915">
        <ele>426</ele>
        <time>2016-11-12T12:04:50Z</time>
      </trkpt>
      <trkpt lat="45.95878" lon="4.60915">
        <ele>426</ele>
        <time>2016-11-12T12:04:51Z</time>
      </trkpt>
      <trkpt lat="45.9587" lon="4.60917">
        <ele>425</ele>
        <time>2016-11-12T12:04:52Z</time>
      </trkpt>
      <trkpt lat="45.95862" lon="4.60918">
        <ele>420</ele>
        <time>2016-11-12T12:04:53Z</time>
      </trkpt>
      <trkpt lat="45.95854" lon="4.60919">
        <ele>419</ele>
        <time>2016-11-12T12:04:54Z</time>
      </trkpt>
      <trkpt lat="45.95846" lon="4.60921">
        <ele>419</ele>
        <time>2016-11-12T12:04:55Z</time>
      </trkpt>
      <trkpt lat="45.95837" lon="4.60921">
        <ele>418</ele>
        <time>2016-11-12T12:04:56Z</time>
      </trkpt>
      <trkpt lat="45.95828" lon="4.60921">
        <ele>417</ele>
        <time>2016-11-12T12:04:57Z</time>
      </trkpt>
      <trkpt lat="45.9582" lon="4.60921">
        <ele>416</ele>
        <time>2016-11-12T12:04:58Z</time>
      </trkpt>
      <trkpt lat="45.95811" lon="4.60921">
        <ele>415</ele>
        <time>2016-11-12T12:04:59Z</time>
      </trkpt>
      <trkpt lat="45.95803" lon="4.60921">
        <ele>415</ele>
        <time>2016-11-12T12:05:00Z</time>
      </trkpt>
      <trkpt lat="45.95795" lon="4.60922">
        <ele>415</ele>
        <time>2016-11-12T12:05:01Z</time>
      </trkpt>
      <trkpt lat="45.95786" lon="4.60922">
        <ele>415</ele>
        <time>2016-11-12T12:05:02Z</time>
      </trkpt>
      <trkpt lat="45.95778" lon="4.60921">
        <ele>415</ele>
        <time>2016-11-12T12:05:03Z</time>
      </trkpt>
      <trkpt lat="45.9577" lon="4.60921">
        <ele>415</ele>
        <time>2016-11-12T12:05:04Z</time>
      </trkpt>
      <trkpt lat="45.95762" lon="4.6092">
        <ele>416</ele>
        <time>2016-11-12T12:05:05Z</time>
      </trkpt>
      <trkpt lat="45.95754" lon="4.6092">
        <ele>417</ele>
        <time>2016-11-12T12:05:06Z</time>
      </trkpt>
      <trkpt lat="45.95747" lon="4.60917">
        <ele>418</ele>
        <time>2016-11-12T12:05:07Z</time>
      </trkpt>
      <trkpt lat="45.9574" lon="4.60913">
        <ele>419</ele>
        <time>2016-11-12T12:05:08Z</time>
      </trkpt>
      <trkpt lat="45.95733" lon="4.6091">
        <ele>419</ele>
        <time>2016-11-12T12:05:09Z</time>
      </trkpt>
      <trkpt lat="45.95726" lon="4.60908">
        <ele>419</ele>
        <time>2016-11-12T12:05:10Z</time>
      </trkpt>
      <trkpt lat="45.9572" lon="4.60906">
        <ele>419</ele>
        <time>2016-11-12T12:05:11Z</time>
      </trkpt>
      <trkpt lat="45.95713" lon="4.60905">
        <ele>419</ele>
        <time>2016-11-12T12:05:12Z</time>
      </trkpt>
      <trkpt lat="45.95706" lon="4.60905">
        <ele>419</ele>
        <time>2016-11-12T12:05:13Z</time>
      </trkpt>
      <trkpt lat="45.957" lon="4.60903">
        <ele>419</ele>
        <time>2016-11-12T12:05:14Z</time>
      </trkpt>
      <trkpt lat="45.95694" lon="4.60902">
        <ele>419</ele>
        <time>2016-11-12T12:05:15Z</time>
      </trkpt>
      <trkpt lat="45.95688" lon="4.609">
        <ele>419</ele>
        <time>2016-11-12T12:05:16Z</time>
      </trkpt>
      <trkpt lat="45.95681" lon="4.60899">
        <ele>418</ele>
        <time>2016-11-12T12:05:17Z</time>
      </trkpt>
      <trkpt lat="45.95675" lon="4.60898">
        <ele>418</ele>
        <time>2016-11-12T12:05:18Z</time>
      </trkpt>
      <trkpt lat="45.95669" lon="4.60897">
        <ele>418</ele>
        <time>2016-11-12T12:05:19Z</time>
      </trkpt>
      <trkpt lat="45.95662" lon="4.60897">
        <ele>418</ele>
        <time>2016-11-12T12:05:20Z</time>
      </trkpt>
      <trkpt lat="45.95656" lon="4.60896">
        <ele>418</ele>
        <time>2016-11-12T12:05:21Z</time>
      </trkpt>
      <trkpt lat="45.9565" lon="4.60895">
        <ele>419</ele>
        <time>2016-11-12T12:05:22Z</time>
      </trkpt>
      <trkpt lat="45.95643" lon="4.60894">
        <ele>419</ele>
        <time>2016-11-12T12:05:23Z</time>
      </trkpt>
      <trkpt lat="45.95637" lon="4.60894">
        <ele>419</ele>
        <time>2016-11-12T12:05:24Z</time>
      </trkpt>
      <trkpt lat="45.95631" lon="4.60895">
        <ele>419</ele>
        <time>2016-11-12T12:05:25Z</time>
      </trkpt>
      <trkpt lat="45.95624" lon="4.60896">
        <ele>420</ele>
        <time>2016-11-12T12:05:26Z</time>
      </trkpt>
      <trkpt lat="45.95618" lon="4.60898">
        <ele>420</ele>
        <time>2016-11-12T12:05:27Z</time>
      </trkpt>
      <trkpt lat="45.95612" lon="4.60901">
        <ele>420</ele>
        <time>2016-11-12T12:05:28Z</time>
      </trkpt>
      <trkpt lat="45.95607" lon="4.60905">
        <ele>420</ele>
        <time>2016-11-12T12:05:29Z</time>
      </trkpt>
      <trkpt lat="45.95603" lon="4.60916">
        <ele>420</ele>
        <time>2016-11-12T12:05:31Z</time>
      </trkpt>
      <trkpt lat="45.95604" lon="4.60922">
        <ele>417</ele>
        <time>2016-11-12T12:05:32Z</time>
      </trkpt>
      <trkpt lat="45.95606" lon="4.60928">
        <ele>417</ele>
        <time>2016-11-12T12:05:33Z</time>
      </trkpt>
      <trkpt lat="45.9561" lon="4.60933">
        <ele>416</ele>
        <time>2016-11-12T12:05:34Z</time>
      </trkpt>
      <trkpt lat="45.95614" lon="4.6094">
        <ele>416</ele>
        <time>2016-11-12T12:05:35Z</time>
      </trkpt>
      <trkpt lat="45.95619" lon="4.60948">
        <ele>415</ele>
        <time>2016-11-12T12:05:36Z</time>
      </trkpt>
      <trkpt lat="45.95623" lon="4.60956">
        <ele>415</ele>
        <time>2016-11-12T12:05:37Z</time>
      </trkpt>
      <trkpt lat="45.95629" lon="4.60964">
        <ele>414</ele>
        <time>2016-11-12T12:05:38Z</time>
      </trkpt>
      <trkpt lat="45.95634" lon="4.6097">
        <ele>414</ele>
        <time>2016-11-12T12:05:39Z</time>
      </trkpt>
      <trkpt lat="45.9564" lon="4.60977">
        <ele>413</ele>
        <time>2016-11-12T12:05:40Z</time>
      </trkpt>
      <trkpt lat="45.95645" lon="4.60984">
        <ele>412</ele>
        <time>2016-11-12T12:05:41Z</time>
      </trkpt>
      <trkpt lat="45.9565" lon="4.6099">
        <ele>411</ele>
        <time>2016-11-12T12:05:42Z</time>
      </trkpt>
      <trkpt lat="45.95656" lon="4.60996">
        <ele>409</ele>
        <time>2016-11-12T12:05:43Z</time>
      </trkpt>
      <trkpt lat="45.95661" lon="4.61002">
        <ele>407</ele>
        <time>2016-11-12T12:05:44Z</time>
      </trkpt>
      <trkpt lat="45.95667" lon="4.61006">
        <ele>407</ele>
        <time>2016-11-12T12:05:45Z</time>
      </trkpt>
      <trkpt lat="45.95671" lon="4.61011">
        <ele>405</ele>
        <time>2016-11-12T12:05:46Z</time>
      </trkpt>
      <trkpt lat="45.95675" lon="4.61015">
        <ele>404</ele>
        <time>2016-11-12T12:05:47Z</time>
      </trkpt>
      <trkpt lat="45.95678" lon="4.6102">
        <ele>404</ele>
        <time>2016-11-12T12:05:48Z</time>
      </trkpt>
      <trkpt lat="45.95682" lon="4.61029">
        <ele>403</ele>
        <time>2016-11-12T12:05:50Z</time>
      </trkpt>
      <trkpt lat="45.95683" lon="4.61034">
        <ele>403</ele>
        <time>2016-11-12T12:05:51Z</time>
      </trkpt>
      <trkpt lat="45.95685" lon="4.61044">
        <ele>403</ele>
        <time>2016-11-12T12:05:53Z</time>
      </trkpt>
      <trkpt lat="45.95687" lon="4.61051">
        <ele>402</ele>
        <time>2016-11-12T12:05:54Z</time>
      </trkpt>
      <trkpt lat="45.9569" lon="4.61059">
        <ele>402</ele>
        <time>2016-11-12T12:05:55Z</time>
      </trkpt>
      <trkpt lat="45.95693" lon="4.61067">
        <ele>402</ele>
        <time>2016-11-12T12:05:56Z</time>
      </trkpt>
      <trkpt lat="45.95696" lon="4.61075">
        <ele>402</ele>
        <time>2016-11-12T12:05:57Z</time>
      </trkpt>
      <trkpt lat="45.957" lon="4.61084">
        <ele>398</ele>
        <time>2016-11-12T12:05:58Z</time>
      </trkpt>
      <trkpt lat="45.95704" lon="4.61094">
        <ele>397</ele>
        <time>2016-11-12T12:05:59Z</time>
      </trkpt>
      <trkpt lat="45.95708" lon="4.61103">
        <ele>397</ele>
        <time>2016-11-12T12:06:00Z</time>
      </trkpt>
      <trkpt lat="45.95712" lon="4.61112">
        <ele>396</ele>
        <time>2016-11-12T12:06:01Z</time>
      </trkpt>
      <trkpt lat="45.95716" lon="4.61121">
        <ele>396</ele>
        <time>2016-11-12T12:06:02Z</time>
      </trkpt>
      <trkpt lat="45.95721" lon="4.61131">
        <ele>395</ele>
        <time>2016-11-12T12:06:03Z</time>
      </trkpt>
      <trkpt lat="45.95727" lon="4.61139">
        <ele>394</ele>
        <time>2016-11-12T12:06:04Z</time>
      </trkpt>
      <trkpt lat="45.95732" lon="4.61146">
        <ele>393</ele>
        <time>2016-11-12T12:06:05Z</time>
      </trkpt>
      <trkpt lat="45.95737" lon="4.61153">
        <ele>392</ele>
        <time>2016-11-12T12:06:06Z</time>
      </trkpt>
      <trkpt lat="45.95742" lon="4.61158">
        <ele>390</ele>
        <time>2016-11-12T12:06:07Z</time>
      </trkpt>
      <trkpt lat="45.95747" lon="4.61164">
        <ele>388</ele>
        <time>2016-11-12T12:06:08Z</time>
      </trkpt>
      <trkpt lat="45.95754" lon="4.61174">
        <ele>388</ele>
        <time>2016-11-12T12:06:09Z</time>
      </trkpt>
      <trkpt lat="45.95759" lon="4.61182">
        <ele>389</ele>
        <time>2016-11-12T12:06:10Z</time>
      </trkpt>
      <trkpt lat="45.95763" lon="4.61188">
        <ele>389</ele>
        <time>2016-11-12T12:06:11Z</time>
      </trkpt>
      <trkpt lat="45.95767" lon="4.61196">
        <ele>389</ele>
        <time>2016-11-12T12:06:12Z</time>
      </trkpt>
      <trkpt lat="45.95771" lon="4.61205">
        <ele>389</ele>
        <time>2016-11-12T12:06:13Z</time>
      </trkpt>
      <trkpt lat="45.95775" lon="4.61214">
        <ele>389</ele>
        <time>2016-11-12T12:06:14Z</time>
      </trkpt>
      <trkpt lat="45.95778" lon="4.61223">
        <ele>389</ele>
        <time>2016-11-12T12:06:15Z</time>
      </trkpt>
      <trkpt lat="45.95781" lon="4.61232">
        <ele>389</ele>
        <time>2016-11-12T12:06:16Z</time>
      </trkpt>
      <trkpt lat="45.95784" lon="4.61243">
        <ele>389</ele>
        <time>2016-11-12T12:06:17Z</time>
      </trkpt>
      <trkpt lat="45.95787" lon="4.61255">
        <ele>386</ele>
        <time>2016-11-12T12:06:18Z</time>
      </trkpt>
      <trkpt lat="45.95789" lon="4.61267">
        <ele>386</ele>
        <time>2016-11-12T12:06:19Z</time>
      </trkpt>
      <trkpt lat="45.95792" lon="4.6128">
        <ele>386</ele>
        <time>2016-11-12T12:06:20Z</time>
      </trkpt>
      <trkpt lat="45.95793" lon="4.61292">
        <ele>386</ele>
        <time>2016-11-12T12:06:21Z</time>
      </trkpt>
      <trkpt lat="45.95795" lon="4.61305">
        <ele>386</ele>
        <time>2016-11-12T12:06:22Z</time>
      </trkpt>
      <trkpt lat="45.95796" lon="4.61318">
        <ele>386</ele>
        <time>2016-11-12T12:06:23Z</time>
      </trkpt>
      <trkpt lat="45.95797" lon="4.61331">
        <ele>386</ele>
        <time>2016-11-12T12:06:24Z</time>
      </trkpt>
      <trkpt lat="45.95799" lon="4.61345">
        <ele>383</ele>
        <time>2016-11-12T12:06:25Z</time>
      </trkpt>
      <trkpt lat="45.958" lon="4.6136">
        <ele>382</ele>
        <time>2016-11-12T12:06:26Z</time>
      </trkpt>
      <trkpt lat="45.95802" lon="4.61374">
        <ele>381</ele>
        <time>2016-11-12T12:06:27Z</time>
      </trkpt>
      <trkpt lat="45.95803" lon="4.61388">
        <ele>381</ele>
        <time>2016-11-12T12:06:28Z</time>
      </trkpt>
      <trkpt lat="45.95805" lon="4.61402">
        <ele>380</ele>
        <time>2016-11-12T12:06:29Z</time>
      </trkpt>
      <trkpt lat="45.95807" lon="4.61416">
        <ele>380</ele>
        <time>2016-11-12T12:06:30Z</time>
      </trkpt>
      <trkpt lat="45.95809" lon="4.6143">
        <ele>377</ele>
        <time>2016-11-12T12:06:31Z</time>
      </trkpt>
      <trkpt lat="45.95812" lon="4.61443">
        <ele>376</ele>
        <time>2016-11-12T12:06:32Z</time>
      </trkpt>
      <trkpt lat="45.95814" lon="4.61456">
        <ele>376</ele>
        <time>2016-11-12T12:06:33Z</time>
      </trkpt>
      <trkpt lat="45.95816" lon="4.61467">
        <ele>375</ele>
        <time>2016-11-12T12:06:34Z</time>
      </trkpt>
      <trkpt lat="45.95816" lon="4.61479">
        <ele>375</ele>
        <time>2016-11-12T12:06:35Z</time>
      </trkpt>
      <trkpt lat="45.95816" lon="4.61491">
        <ele>375</ele>
        <time>2016-11-12T12:06:36Z</time>
      </trkpt>
      <trkpt lat="45.95815" lon="4.61503">
        <ele>372</ele>
        <time>2016-11-12T12:06:37Z</time>
      </trkpt>
      <trkpt lat="45.95813" lon="4.61515">
        <ele>371</ele>
        <time>2016-11-12T12:06:38Z</time>
      </trkpt>
      <trkpt lat="45.95812" lon="4.61526">
        <ele>371</ele>
        <time>2016-11-12T12:06:39Z</time>
      </trkpt>
      <trkpt lat="45.95811" lon="4.61538">
        <ele>370</ele>
        <time>2016-11-12T12:06:40Z</time>
      </trkpt>
      <trkpt lat="45.9581" lon="4.6155">
        <ele>369</ele>
        <time>2016-11-12T12:06:41Z</time>
      </trkpt>
      <trkpt lat="45.95808" lon="4.61561">
        <ele>369</ele>
        <time>2016-11-12T12:06:42Z</time>
      </trkpt>
      <trkpt lat="45.95805" lon="4.61571">
        <ele>369</ele>
        <time>2016-11-12T12:06:43Z</time>
      </trkpt>
      <trkpt lat="45.95803" lon="4.61582">
        <ele>368</ele>
        <time>2016-11-12T12:06:44Z</time>
      </trkpt>
      <trkpt lat="45.958" lon="4.61592">
        <ele>365</ele>
        <time>2016-11-12T12:06:45Z</time>
      </trkpt>
      <trkpt lat="45.95797" lon="4.61602">
        <ele>364</ele>
        <time>2016-11-12T12:06:46Z</time>
      </trkpt>
      <trkpt lat="45.95794" lon="4.61612">
        <ele>364</ele>
        <time>2016-11-12T12:06:47Z</time>
      </trkpt>
      <trkpt lat="45.95792" lon="4.61622">
        <ele>364</ele>
        <time>2016-11-12T12:06:48Z</time>
      </trkpt>
      <trkpt lat="45.95791" lon="4.61632">
        <ele>364</ele>
        <time>2016-11-12T12:06:49Z</time>
      </trkpt>
      <trkpt lat="45.95792" lon="4.61641">
        <ele>363</ele>
        <time>2016-11-12T12:06:50Z</time>
      </trkpt>
      <trkpt lat="45.95793" lon="4.61649">
        <ele>363</ele>
        <time>2016-11-12T12:06:51Z</time>
      </trkpt>
      <trkpt lat="45.95795" lon="4.61657">
        <ele>363</ele>
        <time>2016-11-12T12:06:52Z</time>
      </trkpt>
      <trkpt lat="45.95798" lon="4.61666">
        <ele>363</ele>
        <time>2016-11-12T12:06:53Z</time>
      </trkpt>
      <trkpt lat="45.958" lon="4.61674">
        <ele>359</ele>
        <time>2016-11-12T12:06:54Z</time>
      </trkpt>
      <trkpt lat="45.95803" lon="4.61683">
        <ele>359</ele>
        <time>2016-11-12T12:06:55Z</time>
      </trkpt>
      <trkpt lat="45.95806" lon="4.61692">
        <ele>359</ele>
        <time>2016-11-12T12:06:56Z</time>
      </trkpt>
      <trkpt lat="45.95809" lon="4.61702">
        <ele>359</ele>
        <time>2016-11-12T12:06:57Z</time>
      </trkpt>
      <trkpt lat="45.95811" lon="4.61711">
        <ele>358</ele>
        <time>2016-11-12T12:06:58Z</time>
      </trkpt>
      <trkpt lat="45.95813" lon="4.6172">
        <ele>358</ele>
        <time>2016-11-12T12:06:59Z</time>
      </trkpt>
      <trkpt lat="45.95815" lon="4.61731">
        <ele>357</ele>
        <time>2016-11-12T12:07:00Z</time>
      </trkpt>
      <trkpt lat="45.95816" lon="4.61741">
        <ele>357</ele>
        <time>2016-11-12T12:07:01Z</time>
      </trkpt>
      <trkpt lat="45.95816" lon="4.61752">
        <ele>354</ele>
        <time>2016-11-12T12:07:02Z</time>
      </trkpt>
      <trkpt lat="45.95817" lon="4.61762">
        <ele>354</ele>
        <time>2016-11-12T12:07:03Z</time>
      </trkpt>
      <trkpt lat="45.95818" lon="4.61774">
        <ele>353</ele>
        <time>2016-11-12T12:07:04Z</time>
      </trkpt>
      <trkpt lat="45.95818" lon="4.61785">
        <ele>353</ele>
        <time>2016-11-12T12:07:05Z</time>
      </trkpt>
      <trkpt lat="45.95819" lon="4.61797">
        <ele>352</ele>
        <time>2016-11-12T12:07:06Z</time>
      </trkpt>
      <trkpt lat="45.9582" lon="4.61809">
        <ele>351</ele>
        <time>2016-11-12T12:07:07Z</time>
      </trkpt>
      <trkpt lat="45.9582" lon="4.6182">
        <ele>350</ele>
        <time>2016-11-12T12:07:08Z</time>
      </trkpt>
      <trkpt lat="45.95821" lon="4.61832">
        <ele>348</ele>
        <time>2016-11-12T12:07:09Z</time>
      </trkpt>
      <trkpt lat="45.95822" lon="4.61844">
        <ele>347</ele>
        <time>2016-11-12T12:07:10Z</time>
      </trkpt>
      <trkpt lat="45.95823" lon="4.61855">
        <ele>347</ele>
        <time>2016-11-12T12:07:11Z</time>
      </trkpt>
      <trkpt lat="45.95825" lon="4.61867">
        <ele>347</ele>
        <time>2016-11-12T12:07:12Z</time>
      </trkpt>
      <trkpt lat="45.95825" lon="4.61879">
        <ele>347</ele>
        <time>2016-11-12T12:07:13Z</time>
      </trkpt>
      <trkpt lat="45.95827" lon="4.6189">
        <ele>346</ele>
        <time>2016-11-12T12:07:14Z</time>
      </trkpt>
      <trkpt lat="45.95829" lon="4.61901">
        <ele>344</ele>
        <time>2016-11-12T12:07:15Z</time>
      </trkpt>
      <trkpt lat="45.95831" lon="4.61911">
        <ele>342</ele>
        <time>2016-11-12T12:07:16Z</time>
      </trkpt>
      <trkpt lat="45.95833" lon="4.61921">
        <ele>341</ele>
        <time>2016-11-12T12:07:17Z</time>
      </trkpt>
      <trkpt lat="45.95833" lon="4.61931">
        <ele>342</ele>
        <time>2016-11-12T12:07:18Z</time>
      </trkpt>
      <trkpt lat="45.95833" lon="4.61941">
        <ele>343</ele>
        <time>2016-11-12T12:07:19Z</time>
      </trkpt>
      <trkpt lat="45.95832" lon="4.61951">
        <ele>343</ele>
        <time>2016-11-12T12:07:20Z</time>
      </trkpt>
      <trkpt lat="45.95831" lon="4.61961">
        <ele>343</ele>
        <time>2016-11-12T12:07:21Z</time>
      </trkpt>
      <trkpt lat="45.95831" lon="4.61971">
        <ele>343</ele>
        <time>2016-11-12T12:07:22Z</time>
      </trkpt>
      <trkpt lat="45.9583" lon="4.61981">
        <ele>342</ele>
        <time>2016-11-12T12:07:23Z</time>
      </trkpt>
      <trkpt lat="45.95829" lon="4.61992">
        <ele>341</ele>
        <time>2016-11-12T12:07:24Z</time>
      </trkpt>
      <trkpt lat="45.95829" lon="4.62002">
        <ele>339</ele>
        <time>2016-11-12T12:07:25Z</time>
      </trkpt>
      <trkpt lat="45.95827" lon="4.62013">
        <ele>340</ele>
        <time>2016-11-12T12:07:26Z</time>
      </trkpt>
      <trkpt lat="45.95826" lon="4.62025">
        <ele>340</ele>
        <time>2016-11-12T12:07:27Z</time>
      </trkpt>
      <trkpt lat="45.95824" lon="4.62037">
        <ele>339</ele>
        <time>2016-11-12T12:07:28Z</time>
      </trkpt>
      <trkpt lat="45.95823" lon="4.62049">
        <ele>339</ele>
        <time>2016-11-12T12:07:29Z</time>
      </trkpt>
      <trkpt lat="45.95822" lon="4.62061">
        <ele>338</ele>
        <time>2016-11-12T12:07:30Z</time>
      </trkpt>
      <trkpt lat="45.9582" lon="4.62072">
        <ele>338</ele>
        <time>2016-11-12T12:07:31Z</time>
      </trkpt>
      <trkpt lat="45.95819" lon="4.62083">
        <ele>338</ele>
        <time>2016-11-12T12:07:32Z</time>
      </trkpt>
      <trkpt lat="45.95817" lon="4.62094">
        <ele>336</ele>
        <time>2016-11-12T12:07:33Z</time>
      </trkpt>
      <trkpt lat="45.95815" lon="4.62104">
        <ele>335</ele>
        <time>2016-11-12T12:07:34Z</time>
      </trkpt>
      <trkpt lat="45.95812" lon="4.62114">
        <ele>335</ele>
        <time>2016-11-12T12:07:35Z</time>
      </trkpt>
      <trkpt lat="45.95808" lon="4.62122">
        <ele>335</ele>
        <time>2016-11-12T12:07:36Z</time>
      </trkpt>
      <trkpt lat="45.95805" lon="4.62131">
        <ele>335</ele>
        <time>2016-11-12T12:07:37Z</time>
      </trkpt>
      <trkpt lat="45.95802" lon="4.6214">
        <ele>335</ele>
        <time>2016-11-12T12:07:38Z</time>
      </trkpt>
      <trkpt lat="45.95798" lon="4.62148">
        <ele>335</ele>
        <time>2016-11-12T12:07:39Z</time>
      </trkpt>
      <trkpt lat="45.95796" lon="4.62157">
        <ele>335</ele>
        <time>2016-11-12T12:07:40Z</time>
      </trkpt>
      <trkpt lat="45.95793" lon="4.62166">
        <ele>334</ele>
        <time>2016-11-12T12:07:41Z</time>
      </trkpt>
      <trkpt lat="45.95791" lon="4.62176">
        <ele>333</ele>
        <time>2016-11-12T12:07:42Z</time>
      </trkpt>
      <trkpt lat="45.95789" lon="4.62184">
        <ele>333</ele>
        <time>2016-11-12T12:07:43Z</time>
      </trkpt>
      <trkpt lat="45.95788" lon="4.62193">
        <ele>333</ele>
        <time>2016-11-12T12:07:44Z</time>
      </trkpt>
      <trkpt lat="45.95786" lon="4.62204">
        <ele>332</ele>
        <time>2016-11-12T12:07:45Z</time>
      </trkpt>
      <trkpt lat="45.95784" lon="4.62215">
        <ele>332</ele>
        <time>2016-11-12T12:07:46Z</time>
      </trkpt>
      <trkpt lat="45.95782" lon="4.62226">
        <ele>332</ele>
        <time>2016-11-12T12:07:47Z</time>
      </trkpt>
      <trkpt lat="45.9578" lon="4.62237">
        <ele>331</ele>
        <time>2016-11-12T12:07:48Z</time>
      </trkpt>
      <trkpt lat="45.95778" lon="4.62247">
        <ele>331</ele>
        <time>2016-11-12T12:07:49Z</time>
      </trkpt>
      <trkpt lat="45.95775" lon="4.62258">
        <ele>330</ele>
        <time>2016-11-12T12:07:50Z</time>
      </trkpt>
      <trkpt lat="45.95773" lon="4.62269">
        <ele>330</ele>
        <time>2016-11-12T12:07:51Z</time>
      </trkpt>
      <trkpt lat="45.9577" lon="4.6228">
        <ele>330</ele>
        <time>2016-11-12T12:07:52Z</time>
      </trkpt>
      <trkpt lat="45.95768" lon="4.62292">
        <ele>330</ele>
        <time>2016-11-12T12:07:53Z</time>
      </trkpt>
      <trkpt lat="45.95765" lon="4.62304">
        <ele>329</ele>
        <time>2016-11-12T12:07:54Z</time>
      </trkpt>
      <trkpt lat="45.95762" lon="4.62314">
        <ele>328</ele>
        <time>2016-11-12T12:07:55Z</time>
      </trkpt>
      <trkpt lat="45.95759" lon="4.62324">
        <ele>326</ele>
        <time>2016-11-12T12:07:56Z</time>
      </trkpt>
      <trkpt lat="45.95756" lon="4.62335">
        <ele>325</ele>
        <time>2016-11-12T12:07:57Z</time>
      </trkpt>
      <trkpt lat="45.95752" lon="4.62345">
        <ele>326</ele>
        <time>2016-11-12T12:07:58Z</time>
      </trkpt>
      <trkpt lat="45.95749" lon="4.62355">
        <ele>325</ele>
        <time>2016-11-12T12:07:59Z</time>
      </trkpt>
      <trkpt lat="45.95745" lon="4.62364">
        <ele>325</ele>
        <time>2016-11-12T12:08:00Z</time>
      </trkpt>
      <trkpt lat="45.9574" lon="4.62372">
        <ele>325</ele>
        <time>2016-11-12T12:08:01Z</time>
      </trkpt>
      <trkpt lat="45.95735" lon="4.62381">
        <ele>325</ele>
        <time>2016-11-12T12:08:02Z</time>
      </trkpt>
      <trkpt lat="45.9573" lon="4.62388">
        <ele>325</ele>
        <time>2016-11-12T12:08:03Z</time>
      </trkpt>
      <trkpt lat="45.95724" lon="4.62397">
        <ele>325</ele>
        <time>2016-11-12T12:08:04Z</time>
      </trkpt>
      <trkpt lat="45.9572" lon="4.62405">
        <ele>325</ele>
        <time>2016-11-12T12:08:05Z</time>
      </trkpt>
      <trkpt lat="45.95715" lon="4.62414">
        <ele>325</ele>
        <time>2016-11-12T12:08:06Z</time>
      </trkpt>
      <trkpt lat="45.95711" lon="4.62423">
        <ele>321</ele>
        <time>2016-11-12T12:08:07Z</time>
      </trkpt>
      <trkpt lat="45.95707" lon="4.62432">
        <ele>321</ele>
        <time>2016-11-12T12:08:08Z</time>
      </trkpt>
      <trkpt lat="45.95703" lon="4.62441">
        <ele>321</ele>
        <time>2016-11-12T12:08:09Z</time>
      </trkpt>
      <trkpt lat="45.957" lon="4.6245">
        <ele>320</ele>
        <time>2016-11-12T12:08:10Z</time>
      </trkpt>
      <trkpt lat="45.95697" lon="4.62458">
        <ele>320</ele>
        <time>2016-11-12T12:08:11Z</time>
      </trkpt>
      <trkpt lat="45.95694" lon="4.62467">
        <ele>320</ele>
        <time>2016-11-12T12:08:12Z</time>
      </trkpt>
      <trkpt lat="45.95691" lon="4.62475">
        <ele>319</ele>
        <time>2016-11-12T12:08:13Z</time>
      </trkpt>
      <trkpt lat="45.95688" lon="4.62483">
        <ele>318</ele>
        <time>2016-11-12T12:08:14Z</time>
      </trkpt>
      <trkpt lat="45.95685" lon="4.62492">
        <ele>318</ele>
        <time>2016-11-12T12:08:15Z</time>
      </trkpt>
      <trkpt lat="45.95682" lon="4.62499">
        <ele>317</ele>
        <time>2016-11-12T12:08:16Z</time>
      </trkpt>
      <trkpt lat="45.9568" lon="4.62507">
        <ele>315</ele>
        <time>2016-11-12T12:08:17Z</time>
      </trkpt>
      <trkpt lat="45.95677" lon="4.62515">
        <ele>315</ele>
        <time>2016-11-12T12:08:18Z</time>
      </trkpt>
      <trkpt lat="45.95674" lon="4.62522">
        <ele>315</ele>
        <time>2016-11-12T12:08:19Z</time>
      </trkpt>
      <trkpt lat="45.95671" lon="4.62529">
        <ele>314</ele>
        <time>2016-11-12T12:08:20Z</time>
      </trkpt>
      <trkpt lat="45.95668" lon="4.62536">
        <ele>314</ele>
        <time>2016-11-12T12:08:21Z</time>
      </trkpt>
      <trkpt lat="45.95665" lon="4.62543">
        <ele>315</ele>
        <time>2016-11-12T12:08:22Z</time>
      </trkpt>
      <trkpt lat="45.95662" lon="4.62551">
        <ele>315</ele>
        <time>2016-11-12T12:08:23Z</time>
      </trkpt>
      <trkpt lat="45.95659" lon="4.62558">
        <ele>314</ele>
        <time>2016-11-12T12:08:24Z</time>
      </trkpt>
      <trkpt lat="45.95657" lon="4.62566">
        <ele>313</ele>
        <time>2016-11-12T12:08:25Z</time>
      </trkpt>
      <trkpt lat="45.95655" lon="4.62575">
        <ele>313</ele>
        <time>2016-11-12T12:08:26Z</time>
      </trkpt>
      <trkpt lat="45.95652" lon="4.62582">
        <ele>313</ele>
        <time>2016-11-12T12:08:27Z</time>
      </trkpt>
      <trkpt lat="45.95649" lon="4.62589">
        <ele>310</ele>
        <time>2016-11-12T12:08:28Z</time>
      </trkpt>
      <trkpt lat="45.95645" lon="4.62596">
        <ele>310</ele>
        <time>2016-11-12T12:08:29Z</time>
      </trkpt>
      <trkpt lat="45.95641" lon="4.62601">
        <ele>310</ele>
        <time>2016-11-12T12:08:30Z</time>
      </trkpt>
      <trkpt lat="45.95637" lon="4.62606">
        <ele>310</ele>
        <time>2016-11-12T12:08:31Z</time>
      </trkpt>
      <trkpt lat="45.95634" lon="4.62612">
        <ele>310</ele>
        <time>2016-11-12T12:08:32Z</time>
      </trkpt>
      <trkpt lat="45.9563" lon="4.62617">
        <ele>310</ele>
        <time>2016-11-12T12:08:33Z</time>
      </trkpt>
      <trkpt lat="45.95627" lon="4.62623">
        <ele>310</ele>
        <time>2016-11-12T12:08:34Z</time>
      </trkpt>
      <trkpt lat="45.95624" lon="4.62629">
        <ele>310</ele>
        <time>2016-11-12T12:08:35Z</time>
      </trkpt>
      <trkpt lat="45.9562" lon="4.62635">
        <ele>309</ele>
        <time>2016-11-12T12:08:36Z</time>
      </trkpt>
      <trkpt lat="45.95617" lon="4.62641">
        <ele>309</ele>
        <time>2016-11-12T12:08:37Z</time>
      </trkpt>
      <trkpt lat="45.95613" lon="4.62648">
        <ele>309</ele>
        <time>2016-11-12T12:08:38Z</time>
      </trkpt>
      <trkpt lat="45.9561" lon="4.62655">
        <ele>309</ele>
        <time>2016-11-12T12:08:39Z</time>
      </trkpt>
      <trkpt lat="45.95606" lon="4.6266">
        <ele>309</ele>
        <time>2016-11-12T12:08:40Z</time>
      </trkpt>
      <trkpt lat="45.95602" lon="4.62666">
        <ele>308</ele>
        <time>2016-11-12T12:08:41Z</time>
      </trkpt>
      <trkpt lat="45.95598" lon="4.62673">
        <ele>306</ele>
        <time>2016-11-12T12:08:42Z</time>
      </trkpt>
      <trkpt lat="45.95594" lon="4.62679">
        <ele>305</ele>
        <time>2016-11-12T12:08:43Z</time>
      </trkpt>
      <trkpt lat="45.9559" lon="4.62686">
        <ele>305</ele>
        <time>2016-11-12T12:08:44Z</time>
      </trkpt>
      <trkpt lat="45.95586" lon="4.62692">
        <ele>305</ele>
        <time>2016-11-12T12:08:45Z</time>
      </trkpt>
      <trkpt lat="45.95581" lon="4.62698">
        <ele>305</ele>
        <time>2016-11-12T12:08:46Z</time>
      </trkpt>
      <trkpt lat="45.95576" lon="4.62703">
        <ele>305</ele>
        <time>2016-11-12T12:08:47Z</time>
      </trkpt>
      <trkpt lat="45.95572" lon="4.62709">
        <ele>305</ele>
        <time>2016-11-12T12:08:48Z</time>
      </trkpt>
      <trkpt lat="45.95567" lon="4.62715">
        <ele>305</ele>
        <time>2016-11-12T12:08:49Z</time>
      </trkpt>
      <trkpt lat="45.95562" lon="4.62722">
        <ele>304</ele>
        <time>2016-11-12T12:08:50Z</time>
      </trkpt>
      <trkpt lat="45.95557" lon="4.6273">
        <ele>304</ele>
        <time>2016-11-12T12:08:51Z</time>
      </trkpt>
      <trkpt lat="45.95551" lon="4.62738">
        <ele>304</ele>
        <time>2016-11-12T12:08:52Z</time>
      </trkpt>
      <trkpt lat="45.95547" lon="4.62746">
        <ele>304</ele>
        <time>2016-11-12T12:08:53Z</time>
      </trkpt>
      <trkpt lat="45.95543" lon="4.62754">
        <ele>303</ele>
        <time>2016-11-12T12:08:54Z</time>
      </trkpt>
      <trkpt lat="45.9554" lon="4.62762">
        <ele>303</ele>
        <time>2016-11-12T12:08:55Z</time>
      </trkpt>
      <trkpt lat="45.95537" lon="4.62769">
        <ele>303</ele>
        <time>2016-11-12T12:08:56Z</time>
      </trkpt>
      <trkpt lat="45.95533" lon="4.62777">
        <ele>303</ele>
        <time>2016-11-12T12:08:57Z</time>
      </trkpt>
      <trkpt lat="45.9553" lon="4.62785">
        <ele>303</ele>
        <time>2016-11-12T12:08:58Z</time>
      </trkpt>
      <trkpt lat="45.95528" lon="4.62793">
        <ele>303</ele>
        <time>2016-11-12T12:08:59Z</time>
      </trkpt>
      <trkpt lat="45.95527" lon="4.62801">
        <ele>303</ele>
        <time>2016-11-12T12:09:00Z</time>
      </trkpt>
      <trkpt lat="45.95526" lon="4.62808">
        <ele>304</ele>
        <time>2016-11-12T12:09:01Z</time>
      </trkpt>
      <trkpt lat="45.95523" lon="4.6282">
        <ele>304</ele>
        <time>2016-11-12T12:09:03Z</time>
      </trkpt>
      <trkpt lat="45.95522" lon="4.62825">
        <ele>304</ele>
        <time>2016-11-12T12:09:04Z</time>
      </trkpt>
      <trkpt lat="45.95519" lon="4.62836">
        <ele>305</ele>
        <time>2016-11-12T12:09:06Z</time>
      </trkpt>
      <trkpt lat="45.95518" lon="4.62841">
        <ele>305</ele>
        <time>2016-11-12T12:09:07Z</time>
      </trkpt>
      <trkpt lat="45.95516" lon="4.6285">
        <ele>305</ele>
        <time>2016-11-12T12:09:09Z</time>
      </trkpt>
      <trkpt lat="45.95515" lon="4.62855">
        <ele>305</ele>
        <time>2016-11-12T12:09:10Z</time>
      </trkpt>
      <trkpt lat="45.95514" lon="4.62868">
        <ele>305</ele>
        <time>2016-11-12T12:09:13Z</time>
      </trkpt>
      <trkpt lat="45.95514" lon="4.62871">
        <ele>305</ele>
        <time>2016-11-12T12:09:14Z</time>
      </trkpt>
      <trkpt lat="45.95511" lon="4.62882">
        <ele>305</ele>
        <time>2016-11-12T12:09:17Z</time>
      </trkpt>
      <trkpt lat="45.9551" lon="4.62886">
        <ele>305</ele>
        <time>2016-11-12T12:09:18Z</time>
      </trkpt>
      <trkpt lat="45.95507" lon="4.62894">
        <ele>306</ele>
        <time>2016-11-12T12:09:20Z</time>
      </trkpt>
      <trkpt lat="45.95506" lon="4.62898">
        <ele>306</ele>
        <time>2016-11-12T12:09:21Z</time>
      </trkpt>
      <trkpt lat="45.95505" lon="4.62906">
        <ele>307</ele>
        <time>2016-11-12T12:09:23Z</time>
      </trkpt>
      <trkpt lat="45.95504" lon="4.62911">
        <ele>308</ele>
        <time>2016-11-12T12:09:24Z</time>
      </trkpt>
      <trkpt lat="45.95501" lon="4.62923">
        <ele>308</ele>
        <time>2016-11-12T12:09:27Z</time>
      </trkpt>
      <trkpt lat="45.955" lon="4.62927">
        <ele>307</ele>
        <time>2016-11-12T12:09:28Z</time>
      </trkpt>
      <trkpt lat="45.95498" lon="4.62936">
        <ele>312</ele>
        <time>2016-11-12T12:09:30Z</time>
      </trkpt>
      <trkpt lat="45.95497" lon="4.6294">
        <ele>312</ele>
        <time>2016-11-12T12:09:31Z</time>
      </trkpt>
      <trkpt lat="45.95495" lon="4.62949">
        <ele>313</ele>
        <time>2016-11-12T12:09:33Z</time>
      </trkpt>
      <trkpt lat="45.95493" lon="4.62953">
        <ele>313</ele>
        <time>2016-11-12T12:09:34Z</time>
      </trkpt>
      <trkpt lat="45.95491" lon="4.62962">
        <ele>313</ele>
        <time>2016-11-12T12:09:36Z</time>
      </trkpt>
      <trkpt lat="45.9549" lon="4.62966">
        <ele>313</ele>
        <time>2016-11-12T12:09:37Z</time>
      </trkpt>
      <trkpt lat="45.95487" lon="4.62978">
        <ele>312</ele>
        <time>2016-11-12T12:09:40Z</time>
      </trkpt>
      <trkpt lat="45.95486" lon="4.62982">
        <ele>312</ele>
        <time>2016-11-12T12:09:41Z</time>
      </trkpt>
      <trkpt lat="45.95484" lon="4.62993">
        <ele>311</ele>
        <time>2016-11-12T12:09:44Z</time>
      </trkpt>
      <trkpt lat="45.95483" lon="4.62997">
        <ele>311</ele>
        <time>2016-11-12T12:09:45Z</time>
      </trkpt>
      <trkpt lat="45.95482" lon="4.63008">
        <ele>313</ele>
        <time>2016-11-12T12:09:48Z</time>
      </trkpt>
      <trkpt lat="45.95482" lon="4.63012">
        <ele>313</ele>
        <time>2016-11-12T12:09:49Z</time>
      </trkpt>
      <trkpt lat="45.95482" lon="4.63022">
        <ele>314</ele>
        <time>2016-11-12T12:09:52Z</time>
      </trkpt>
      <trkpt lat="45.95482" lon="4.63025">
        <ele>315</ele>
        <time>2016-11-12T12:09:53Z</time>
      </trkpt>
      <trkpt lat="45.95479" lon="4.63037">
        <ele>316</ele>
        <time>2016-11-12T12:09:57Z</time>
      </trkpt>
      <trkpt lat="45.95479" lon="4.63041">
        <ele>316</ele>
        <time>2016-11-12T12:09:58Z</time>
      </trkpt>
      <trkpt lat="45.9548" lon="4.63051">
        <ele>316</ele>
        <time>2016-11-12T12:10:01Z</time>
      </trkpt>
      <trkpt lat="45.9548" lon="4.63054">
        <ele>316</ele>
        <time>2016-11-12T12:10:02Z</time>
      </trkpt>
      <trkpt lat="45.9548" lon="4.63064">
        <ele>316</ele>
        <time>2016-11-12T12:10:05Z</time>
      </trkpt>
      <trkpt lat="45.9548" lon="4.63068">
        <ele>315</ele>
        <time>2016-11-12T12:10:06Z</time>
      </trkpt>
      <trkpt lat="45.95481" lon="4.63078">
        <ele>315</ele>
        <time>2016-11-12T12:10:09Z</time>
      </trkpt>
      <trkpt lat="45.95481" lon="4.63081">
        <ele>315</ele>
        <time>2016-11-12T12:10:10Z</time>
      </trkpt>
      <trkpt lat="45.95482" lon="4.63091">
        <ele>318</ele>
        <time>2016-11-12T12:10:13Z</time>
      </trkpt>
      <trkpt lat="45.95482" lon="4.63095">
        <ele>319</ele>
        <time>2016-11-12T12:10:14Z</time>
      </trkpt>
      <trkpt lat="45.95482" lon="4.63105">
        <ele>320</ele>
        <time>2016-11-12T12:10:17Z</time>
      </trkpt>
      <trkpt lat="45.95482" lon="4.63108">
        <ele>321</ele>
        <time>2016-11-12T12:10:18Z</time>
      </trkpt>
      <trkpt lat="45.95482" lon="4.63119">
        <ele>322</ele>
        <time>2016-11-12T12:10:21Z</time>
      </trkpt>
      <trkpt lat="45.95482" lon="4.63122">
        <ele>322</ele>
        <time>2016-11-12T12:10:22Z</time>
      </trkpt>
      <trkpt lat="45.95482" lon="4.63132">
        <ele>322</ele>
        <time>2016-11-12T12:10:25Z</time>
      </trkpt>
      <trkpt lat="45.95482" lon="4.63135">
        <ele>323</ele>
        <time>2016-11-12T12:10:26Z</time>
      </trkpt>
      <trkpt lat="45.95482" lon="4.63147">
        <ele>323</ele>
        <time>2016-11-12T12:10:30Z</time>
      </trkpt>
      <trkpt lat="45.95482" lon="4.6315">
        <ele>322</ele>
        <time>2016-11-12T12:10:31Z</time>
      </trkpt>
      <trkpt lat="45.95482" lon="4.63162">
        <ele>322</ele>
        <time>2016-11-12T12:10:35Z</time>
      </trkpt>
      <trkpt lat="45.95482" lon="4.63164">
        <ele>322</ele>
        <time>2016-11-12T12:10:36Z</time>
      </trkpt>
      <trkpt lat="45.95482" lon="4.63177">
        <ele>325</ele>
        <time>2016-11-12T12:10:41Z</time>
      </trkpt>
      <trkpt lat="45.95482" lon="4.6318">
        <ele>326</ele>
        <time>2016-11-12T12:10:42Z</time>
      </trkpt>
      <trkpt lat="45.95483" lon="4.6319">
        <ele>327</ele>
        <time>2016-11-12T12:10:46Z</time>
      </trkpt>
      <trkpt lat="45.95483" lon="4.63193">
        <ele>327</ele>
        <time>2016-11-12T12:10:47Z</time>
      </trkpt>
      <trkpt lat="45.95485" lon="4.63204">
        <ele>327</ele>
        <time>2016-11-12T12:10:51Z</time>
      </trkpt>
      <trkpt lat="45.95484" lon="4.63206">
        <ele>327</ele>
        <time>2016-11-12T12:10:52Z</time>
      </trkpt>
      <trkpt lat="45.95483" lon="4.63217">
        <ele>328</ele>
        <time>2016-11-12T12:10:56Z</time>
      </trkpt>
      <trkpt lat="45.95484" lon="4.6322">
        <ele>328</ele>
        <time>2016-11-12T12:10:57Z</time>
      </trkpt>
      <trkpt lat="45.95485" lon="4.63233">
        <ele>327</ele>
        <time>2016-11-12T12:11:01Z</time>
      </trkpt>
      <trkpt lat="45.95486" lon="4.63236">
        <ele>327</ele>
        <time>2016-11-12T12:11:02Z</time>
      </trkpt>
      <trkpt lat="45.95488" lon="4.63246">
        <ele>325</ele>
        <time>2016-11-12T12:11:05Z</time>
      </trkpt>
      <trkpt lat="45.95489" lon="4.63249">
        <ele>325</ele>
        <time>2016-11-12T12:11:06Z</time>
      </trkpt>
      <trkpt lat="45.95491" lon="4.63259">
        <ele>325</ele>
        <time>2016-11-12T12:11:09Z</time>
      </trkpt>
      <trkpt lat="45.95492" lon="4.63262">
        <ele>325</ele>
        <time>2016-11-12T12:11:10Z</time>
      </trkpt>
      <trkpt lat="45.95495" lon="4.63272">
        <ele>326</ele>
        <time>2016-11-12T12:11:13Z</time>
      </trkpt>
      <trkpt lat="45.95495" lon="4.63276">
        <ele>326</ele>
        <time>2016-11-12T12:11:14Z</time>
      </trkpt>
      <trkpt lat="45.95497" lon="4.63286">
        <ele>326</ele>
        <time>2016-11-12T12:11:17Z</time>
      </trkpt>
      <trkpt lat="45.95497" lon="4.6329">
        <ele>326</ele>
        <time>2016-11-12T12:11:18Z</time>
      </trkpt>
      <trkpt lat="45.95497" lon="4.63299">
        <ele>326</ele>
        <time>2016-11-12T12:11:20Z</time>
      </trkpt>
      <trkpt lat="45.95498" lon="4.63305">
        <ele>326</ele>
        <time>2016-11-12T12:11:21Z</time>
      </trkpt>
      <trkpt lat="45.95498" lon="4.63316">
        <ele>324</ele>
        <time>2016-11-12T12:11:24Z</time>
      </trkpt>
      <trkpt lat="45.95498" lon="4.63319">
        <ele>324</ele>
        <time>2016-11-12T12:11:25Z</time>
      </trkpt>
      <trkpt lat="45.95497" lon="4.6333">
        <ele>322</ele>
        <time>2016-11-12T12:11:28Z</time>
      </trkpt>
      <trkpt lat="45.95498" lon="4.63333">
        <ele>321</ele>
        <time>2016-11-12T12:11:29Z</time>
      </trkpt>
      <trkpt lat="45.95498" lon="4.63343">
        <ele>322</ele>
        <time>2016-11-12T12:11:31Z</time>
      </trkpt>
      <trkpt lat="45.95498" lon="4.63349">
        <ele>322</ele>
        <time>2016-11-12T12:11:32Z</time>
      </trkpt>
      <trkpt lat="45.95498" lon="4.63356">
        <ele>323</ele>
        <time>2016-11-12T12:11:33Z</time>
      </trkpt>
      <trkpt lat="45.95498" lon="4.63363">
        <ele>323</ele>
        <time>2016-11-12T12:11:34Z</time>
      </trkpt>
      <trkpt lat="45.95498" lon="4.6337">
        <ele>323</ele>
        <time>2016-11-12T12:11:35Z</time>
      </trkpt>
      <trkpt lat="45.95498" lon="4.63378">
        <ele>323</ele>
        <time>2016-11-12T12:11:36Z</time>
      </trkpt>
      <trkpt lat="45.95498" lon="4.63387">
        <ele>323</ele>
        <time>2016-11-12T12:11:37Z</time>
      </trkpt>
      <trkpt lat="45.95499" lon="4.63396">
        <ele>323</ele>
        <time>2016-11-12T12:11:38Z</time>
      </trkpt>
      <trkpt lat="45.955" lon="4.63405">
        <ele>322</ele>
        <time>2016-11-12T12:11:39Z</time>
      </trkpt>
      <trkpt lat="45.955" lon="4.63414">
        <ele>321</ele>
        <time>2016-11-12T12:11:40Z</time>
      </trkpt>
      <trkpt lat="45.95501" lon="4.63424">
        <ele>317</ele>
        <time>2016-11-12T12:11:41Z</time>
      </trkpt>
      <trkpt lat="45.95501" lon="4.63434">
        <ele>314</ele>
        <time>2016-11-12T12:11:42Z</time>
      </trkpt>
      <trkpt lat="45.95501" lon="4.63445">
        <ele>312</ele>
        <time>2016-11-12T12:11:43Z</time>
      </trkpt>
      <trkpt lat="45.95501" lon="4.63456">
        <ele>311</ele>
        <time>2016-11-12T12:11:44Z</time>
      </trkpt>
      <trkpt lat="45.95501" lon="4.63467">
        <ele>311</ele>
        <time>2016-11-12T12:11:45Z</time>
      </trkpt>
      <trkpt lat="45.955" lon="4.63479">
        <ele>312</ele>
        <time>2016-11-12T12:11:46Z</time>
      </trkpt>
      <trkpt lat="45.95499" lon="4.6349">
        <ele>319</ele>
        <time>2016-11-12T12:11:47Z</time>
      </trkpt>
      <trkpt lat="45.95497" lon="4.63502">
        <ele>317</ele>
        <time>2016-11-12T12:11:48Z</time>
      </trkpt>
      <trkpt lat="45.95494" lon="4.63513">
        <ele>317</ele>
        <time>2016-11-12T12:11:49Z</time>
      </trkpt>
      <trkpt lat="45.9549" lon="4.63524">
        <ele>318</ele>
        <time>2016-11-12T12:11:50Z</time>
      </trkpt>
      <trkpt lat="45.95486" lon="4.63534">
        <ele>318</ele>
        <time>2016-11-12T12:11:51Z</time>
      </trkpt>
      <trkpt lat="45.9548" lon="4.63543">
        <ele>317</ele>
        <time>2016-11-12T12:11:52Z</time>
      </trkpt>
      <trkpt lat="45.95475" lon="4.63552">
        <ele>317</ele>
        <time>2016-11-12T12:11:53Z</time>
      </trkpt>
      <trkpt lat="45.95469" lon="4.6356">
        <ele>317</ele>
        <time>2016-11-12T12:11:54Z</time>
      </trkpt>
      <trkpt lat="45.95463" lon="4.63568">
        <ele>318</ele>
        <time>2016-11-12T12:11:55Z</time>
      </trkpt>
      <trkpt lat="45.95457" lon="4.63575">
        <ele>318</ele>
        <time>2016-11-12T12:11:56Z</time>
      </trkpt>
      <trkpt lat="45.95451" lon="4.63583">
        <ele>318</ele>
        <time>2016-11-12T12:11:57Z</time>
      </trkpt>
      <trkpt lat="45.95446" lon="4.6359">
        <ele>316</ele>
        <time>2016-11-12T12:11:58Z</time>
      </trkpt>
      <trkpt lat="45.95441" lon="4.63598">
        <ele>316</ele>
        <time>2016-11-12T12:11:59Z</time>
      </trkpt>
      <trkpt lat="45.95437" lon="4.63605">
        <ele>316</ele>
        <time>2016-11-12T12:12:00Z</time>
      </trkpt>
      <trkpt lat="45.95432" lon="4.63612">
        <ele>315</ele>
        <time>2016-11-12T12:12:01Z</time>
      </trkpt>
      <trkpt lat="45.95429" lon="4.6362">
        <ele>315</ele>
        <time>2016-11-12T12:12:02Z</time>
      </trkpt>
      <trkpt lat="45.95425" lon="4.63628">
        <ele>315</ele>
        <time>2016-11-12T12:12:03Z</time>
      </trkpt>
      <trkpt lat="45.95422" lon="4.63636">
        <ele>315</ele>
        <time>2016-11-12T12:12:04Z</time>
      </trkpt>
      <trkpt lat="45.95419" lon="4.63645">
        <ele>315</ele>
        <time>2016-11-12T12:12:05Z</time>
      </trkpt>
      <trkpt lat="45.95417" lon="4.63653">
        <ele>316</ele>
        <time>2016-11-12T12:12:06Z</time>
      </trkpt>
      <trkpt lat="45.95415" lon="4.63662">
        <ele>316</ele>
        <time>2016-11-12T12:12:07Z</time>
      </trkpt>
      <trkpt lat="45.95413" lon="4.6367">
        <ele>315</ele>
        <time>2016-11-12T12:12:08Z</time>
      </trkpt>
      <trkpt lat="45.95411" lon="4.63679">
        <ele>315</ele>
        <time>2016-11-12T12:12:09Z</time>
      </trkpt>
      <trkpt lat="45.9541" lon="4.63689">
        <ele>315</ele>
        <time>2016-11-12T12:12:10Z</time>
      </trkpt>
      <trkpt lat="45.9541" lon="4.63698">
        <ele>315</ele>
        <time>2016-11-12T12:12:11Z</time>
      </trkpt>
      <trkpt lat="45.95412" lon="4.63709">
        <ele>315</ele>
        <time>2016-11-12T12:12:12Z</time>
      </trkpt>
      <trkpt lat="45.95415" lon="4.63719">
        <ele>315</ele>
        <time>2016-11-12T12:12:13Z</time>
      </trkpt>
      <trkpt lat="45.95417" lon="4.63728">
        <ele>311</ele>
        <time>2016-11-12T12:12:14Z</time>
      </trkpt>
      <trkpt lat="45.9542" lon="4.63736">
        <ele>312</ele>
        <time>2016-11-12T12:12:15Z</time>
      </trkpt>
      <trkpt lat="45.95423" lon="4.63744">
        <ele>312</ele>
        <time>2016-11-12T12:12:16Z</time>
      </trkpt>
      <trkpt lat="45.95426" lon="4.63752">
        <ele>312</ele>
        <time>2016-11-12T12:12:17Z</time>
      </trkpt>
      <trkpt lat="45.95428" lon="4.63761">
        <ele>311</ele>
        <time>2016-11-12T12:12:18Z</time>
      </trkpt>
      <trkpt lat="45.95431" lon="4.63769">
        <ele>310</ele>
        <time>2016-11-12T12:12:19Z</time>
      </trkpt>
      <trkpt lat="45.95434" lon="4.63778">
        <ele>310</ele>
        <time>2016-11-12T12:12:20Z</time>
      </trkpt>
      <trkpt lat="45.95436" lon="4.63786">
        <ele>310</ele>
        <time>2016-11-12T12:12:21Z</time>
      </trkpt>
      <trkpt lat="45.95438" lon="4.63795">
        <ele>310</ele>
        <time>2016-11-12T12:12:22Z</time>
      </trkpt>
      <trkpt lat="45.9544" lon="4.63803">
        <ele>310</ele>
        <time>2016-11-12T12:12:23Z</time>
      </trkpt>
      <trkpt lat="45.95442" lon="4.63811">
        <ele>310</ele>
        <time>2016-11-12T12:12:24Z</time>
      </trkpt>
      <trkpt lat="45.95443" lon="4.63819">
        <ele>310</ele>
        <time>2016-11-12T12:12:25Z</time>
      </trkpt>
      <trkpt lat="45.95445" lon="4.63826">
        <ele>310</ele>
        <time>2016-11-12T12:12:26Z</time>
      </trkpt>
      <trkpt lat="45.95447" lon="4.63834">
        <ele>310</ele>
        <time>2016-11-12T12:12:27Z</time>
      </trkpt>
      <trkpt lat="45.95448" lon="4.63842">
        <ele>310</ele>
        <time>2016-11-12T12:12:28Z</time>
      </trkpt>
      <trkpt lat="45.9545" lon="4.63849">
        <ele>310</ele>
        <time>2016-11-12T12:12:29Z</time>
      </trkpt>
      <trkpt lat="45.95452" lon="4.63856">
        <ele>309</ele>
        <time>2016-11-12T12:12:30Z</time>
      </trkpt>
      <trkpt lat="45.95454" lon="4.63864">
        <ele>309</ele>
        <time>2016-11-12T12:12:31Z</time>
      </trkpt>
      <trkpt lat="45.95455" lon="4.63872">
        <ele>309</ele>
        <time>2016-11-12T12:12:32Z</time>
      </trkpt>
      <trkpt lat="45.95457" lon="4.63879">
        <ele>309</ele>
        <time>2016-11-12T12:12:33Z</time>
      </trkpt>
      <trkpt lat="45.95458" lon="4.63887">
        <ele>309</ele>
        <time>2016-11-12T12:12:34Z</time>
      </trkpt>
      <trkpt lat="45.9546" lon="4.63895">
        <ele>309</ele>
        <time>2016-11-12T12:12:35Z</time>
      </trkpt>
      <trkpt lat="45.95462" lon="4.63903">
        <ele>309</ele>
        <time>2016-11-12T12:12:36Z</time>
      </trkpt>
      <trkpt lat="45.95464" lon="4.63911">
        <ele>309</ele>
        <time>2016-11-12T12:12:37Z</time>
      </trkpt>
      <trkpt lat="45.95466" lon="4.63919">
        <ele>308</ele>
        <time>2016-11-12T12:12:38Z</time>
      </trkpt>
      <trkpt lat="45.95469" lon="4.63927">
        <ele>308</ele>
        <time>2016-11-12T12:12:39Z</time>
      </trkpt>
      <trkpt lat="45.95472" lon="4.63935">
        <ele>308</ele>
        <time>2016-11-12T12:12:40Z</time>
      </trkpt>
      <trkpt lat="45.95474" lon="4.63943">
        <ele>308</ele>
        <time>2016-11-12T12:12:41Z</time>
      </trkpt>
      <trkpt lat="45.95476" lon="4.63952">
        <ele>308</ele>
        <time>2016-11-12T12:12:42Z</time>
      </trkpt>
      <trkpt lat="45.95479" lon="4.63961">
        <ele>308</ele>
        <time>2016-11-12T12:12:43Z</time>
      </trkpt>
      <trkpt lat="45.95481" lon="4.63969">
        <ele>307</ele>
        <time>2016-11-12T12:12:44Z</time>
      </trkpt>
      <trkpt lat="45.95483" lon="4.63976">
        <ele>307</ele>
        <time>2016-11-12T12:12:45Z</time>
      </trkpt>
      <trkpt lat="45.95485" lon="4.63983">
        <ele>307</ele>
        <time>2016-11-12T12:12:46Z</time>
      </trkpt>
      <trkpt lat="45.95486" lon="4.63991">
        <ele>306</ele>
        <time>2016-11-12T12:12:47Z</time>
      </trkpt>
      <trkpt lat="45.95487" lon="4.63999">
        <ele>306</ele>
        <time>2016-11-12T12:12:48Z</time>
      </trkpt>
      <trkpt lat="45.95488" lon="4.64008">
        <ele>305</ele>
        <time>2016-11-12T12:12:49Z</time>
      </trkpt>
      <trkpt lat="45.95488" lon="4.64017">
        <ele>305</ele>
        <time>2016-11-12T12:12:50Z</time>
      </trkpt>
      <trkpt lat="45.95488" lon="4.64026">
        <ele>306</ele>
        <time>2016-11-12T12:12:51Z</time>
      </trkpt>
      <trkpt lat="45.95488" lon="4.64035">
        <ele>306</ele>
        <time>2016-11-12T12:12:52Z</time>
      </trkpt>
      <trkpt lat="45.95487" lon="4.64045">
        <ele>306</ele>
        <time>2016-11-12T12:12:53Z</time>
      </trkpt>
      <trkpt lat="45.95486" lon="4.64055">
        <ele>305</ele>
        <time>2016-11-12T12:12:54Z</time>
      </trkpt>
      <trkpt lat="45.95484" lon="4.64065">
        <ele>305</ele>
        <time>2016-11-12T12:12:55Z</time>
      </trkpt>
      <trkpt lat="45.95482" lon="4.64075">
        <ele>305</ele>
        <time>2016-11-12T12:12:56Z</time>
      </trkpt>
      <trkpt lat="45.9548" lon="4.64085">
        <ele>305</ele>
        <time>2016-11-12T12:12:57Z</time>
      </trkpt>
      <trkpt lat="45.95478" lon="4.64095">
        <ele>305</ele>
        <time>2016-11-12T12:12:58Z</time>
      </trkpt>
      <trkpt lat="45.95476" lon="4.64105">
        <ele>305</ele>
        <time>2016-11-12T12:12:59Z</time>
      </trkpt>
      <trkpt lat="45.95473" lon="4.64115">
        <ele>305</ele>
        <time>2016-11-12T12:13:00Z</time>
      </trkpt>
      <trkpt lat="45.95471" lon="4.64125">
        <ele>305</ele>
        <time>2016-11-12T12:13:01Z</time>
      </trkpt>
      <trkpt lat="45.95469" lon="4.64135">
        <ele>305</ele>
        <time>2016-11-12T12:13:02Z</time>
      </trkpt>
      <trkpt lat="45.95466" lon="4.64145">
        <ele>305</ele>
        <time>2016-11-12T12:13:03Z</time>
      </trkpt>
      <trkpt lat="45.95464" lon="4.64153">
        <ele>305</ele>
        <time>2016-11-12T12:13:04Z</time>
      </trkpt>
      <trkpt lat="45.95462" lon="4.6416">
        <ele>305</ele>
        <time>2016-11-12T12:13:05Z</time>
      </trkpt>
      <trkpt lat="45.95459" lon="4.64166">
        <ele>305</ele>
        <time>2016-11-12T12:13:06Z</time>
      </trkpt>
      <trkpt lat="45.95455" lon="4.64171">
        <ele>304</ele>
        <time>2016-11-12T12:13:07Z</time>
      </trkpt>
      <trkpt lat="45.95452" lon="4.64176">
        <ele>304</ele>
        <time>2016-11-12T12:13:08Z</time>
      </trkpt>
      <trkpt lat="45.95448" lon="4.64182">
        <ele>304</ele>
        <time>2016-11-12T12:13:09Z</time>
      </trkpt>
      <trkpt lat="45.95445" lon="4.64187">
        <ele>304</ele>
        <time>2016-11-12T12:13:10Z</time>
      </trkpt>
      <trkpt lat="45.95442" lon="4.64193">
        <ele>304</ele>
        <time>2016-11-12T12:13:11Z</time>
      </trkpt>
      <trkpt lat="45.95439" lon="4.64199">
        <ele>304</ele>
        <time>2016-11-12T12:13:12Z</time>
      </trkpt>
      <trkpt lat="45.95434" lon="4.64209">
        <ele>304</ele>
        <time>2016-11-12T12:13:14Z</time>
      </trkpt>
      <trkpt lat="45.9543" lon="4.64213">
        <ele>304</ele>
        <time>2016-11-12T12:13:15Z</time>
      </trkpt>
      <trkpt lat="45.95426" lon="4.64218">
        <ele>303</ele>
        <time>2016-11-12T12:13:16Z</time>
      </trkpt>
      <trkpt lat="45.95421" lon="4.64222">
        <ele>303</ele>
        <time>2016-11-12T12:13:17Z</time>
      </trkpt>
      <trkpt lat="45.95417" lon="4.64227">
        <ele>302</ele>
        <time>2016-11-12T12:13:18Z</time>
      </trkpt>
      <trkpt lat="45.95412" lon="4.64232">
        <ele>302</ele>
        <time>2016-11-12T12:13:19Z</time>
      </trkpt>
      <trkpt lat="45.95408" lon="4.64238">
        <ele>302</ele>
        <time>2016-11-12T12:13:20Z</time>
      </trkpt>
      <trkpt lat="45.95403" lon="4.64243">
        <ele>302</ele>
        <time>2016-11-12T12:13:21Z</time>
      </trkpt>
      <trkpt lat="45.95398" lon="4.64248">
        <ele>302</ele>
        <time>2016-11-12T12:13:22Z</time>
      </trkpt>
      <trkpt lat="45.95394" lon="4.64253">
        <ele>300</ele>
        <time>2016-11-12T12:13:23Z</time>
      </trkpt>
      <trkpt lat="45.9539" lon="4.64258">
        <ele>300</ele>
        <time>2016-11-12T12:13:24Z</time>
      </trkpt>
      <trkpt lat="45.95386" lon="4.64264">
        <ele>300</ele>
        <time>2016-11-12T12:13:25Z</time>
      </trkpt>
      <trkpt lat="45.95383" lon="4.64271">
        <ele>299</ele>
        <time>2016-11-12T12:13:26Z</time>
      </trkpt>
      <trkpt lat="45.95381" lon="4.64278">
        <ele>299</ele>
        <time>2016-11-12T12:13:27Z</time>
      </trkpt>
      <trkpt lat="45.95378" lon="4.64285">
        <ele>299</ele>
        <time>2016-11-12T12:13:28Z</time>
      </trkpt>
      <trkpt lat="45.95376" lon="4.64293">
        <ele>299</ele>
        <time>2016-11-12T12:13:29Z</time>
      </trkpt>
      <trkpt lat="45.95374" lon="4.643">
        <ele>299</ele>
        <time>2016-11-12T12:13:30Z</time>
      </trkpt>
      <trkpt lat="45.95372" lon="4.64308">
        <ele>299</ele>
        <time>2016-11-12T12:13:31Z</time>
      </trkpt>
      <trkpt lat="45.95369" lon="4.64317">
        <ele>299</ele>
        <time>2016-11-12T12:13:32Z</time>
      </trkpt>
      <trkpt lat="45.95367" lon="4.64326">
        <ele>298</ele>
        <time>2016-11-12T12:13:33Z</time>
      </trkpt>
      <trkpt lat="45.95365" lon="4.64336">
        <ele>297</ele>
        <time>2016-11-12T12:13:34Z</time>
      </trkpt>
      <trkpt lat="45.95363" lon="4.64345">
        <ele>297</ele>
        <time>2016-11-12T12:13:35Z</time>
      </trkpt>
      <trkpt lat="45.9536" lon="4.64355">
        <ele>297</ele>
        <time>2016-11-12T12:13:36Z</time>
      </trkpt>
      <trkpt lat="45.95358" lon="4.64365">
        <ele>297</ele>
        <time>2016-11-12T12:13:37Z</time>
      </trkpt>
      <trkpt lat="45.95356" lon="4.64374">
        <ele>297</ele>
        <time>2016-11-12T12:13:38Z</time>
      </trkpt>
      <trkpt lat="45.95353" lon="4.64385">
        <ele>297</ele>
        <time>2016-11-12T12:13:39Z</time>
      </trkpt>
      <trkpt lat="45.95351" lon="4.64395">
        <ele>296</ele>
        <time>2016-11-12T12:13:40Z</time>
      </trkpt>
      <trkpt lat="45.95348" lon="4.64406">
        <ele>295</ele>
        <time>2016-11-12T12:13:41Z</time>
      </trkpt>
      <trkpt lat="45.95345" lon="4.64416">
        <ele>295</ele>
        <time>2016-11-12T12:13:42Z</time>
      </trkpt>
      <trkpt lat="45.95342" lon="4.64425">
        <ele>294</ele>
        <time>2016-11-12T12:13:43Z</time>
      </trkpt>
      <trkpt lat="45.9534" lon="4.64435">
        <ele>294</ele>
        <time>2016-11-12T12:13:44Z</time>
      </trkpt>
      <trkpt lat="45.95339" lon="4.64444">
        <ele>295</ele>
        <time>2016-11-12T12:13:45Z</time>
      </trkpt>
      <trkpt lat="45.95337" lon="4.64455">
        <ele>295</ele>
        <time>2016-11-12T12:13:46Z</time>
      </trkpt>
      <trkpt lat="45.95336" lon="4.64466">
        <ele>294</ele>
        <time>2016-11-12T12:13:47Z</time>
      </trkpt>
      <trkpt lat="45.95335" lon="4.64477">
        <ele>294</ele>
        <time>2016-11-12T12:13:48Z</time>
      </trkpt>
      <trkpt lat="45.95334" lon="4.64488">
        <ele>293</ele>
        <time>2016-11-12T12:13:49Z</time>
      </trkpt>
      <trkpt lat="45.95334" lon="4.64499">
        <ele>291</ele>
        <time>2016-11-12T12:13:50Z</time>
      </trkpt>
      <trkpt lat="45.95333" lon="4.64509">
        <ele>290</ele>
        <time>2016-11-12T12:13:51Z</time>
      </trkpt>
      <trkpt lat="45.95333" lon="4.64519">
        <ele>290</ele>
        <time>2016-11-12T12:13:52Z</time>
      </trkpt>
      <trkpt lat="45.95333" lon="4.64529">
        <ele>290</ele>
        <time>2016-11-12T12:13:53Z</time>
      </trkpt>
      <trkpt lat="45.95334" lon="4.64539">
        <ele>294</ele>
        <time>2016-11-12T12:13:54Z</time>
      </trkpt>
      <trkpt lat="45.95334" lon="4.64548">
        <ele>294</ele>
        <time>2016-11-12T12:13:55Z</time>
      </trkpt>
      <trkpt lat="45.95334" lon="4.64557">
        <ele>293</ele>
        <time>2016-11-12T12:13:56Z</time>
      </trkpt>
      <trkpt lat="45.95333" lon="4.64566">
        <ele>290</ele>
        <time>2016-11-12T12:13:57Z</time>
      </trkpt>
      <trkpt lat="45.95333" lon="4.64575">
        <ele>290</ele>
        <time>2016-11-12T12:13:58Z</time>
      </trkpt>
      <trkpt lat="45.95332" lon="4.64584">
        <ele>291</ele>
        <time>2016-11-12T12:13:59Z</time>
      </trkpt>
      <trkpt lat="45.95331" lon="4.64594">
        <ele>290</ele>
        <time>2016-11-12T12:14:00Z</time>
      </trkpt>
      <trkpt lat="45.9533" lon="4.64603">
        <ele>289</ele>
        <time>2016-11-12T12:14:01Z</time>
      </trkpt>
      <trkpt lat="45.95329" lon="4.64612">
        <ele>288</ele>
        <time>2016-11-12T12:14:02Z</time>
      </trkpt>
      <trkpt lat="45.95328" lon="4.64622">
        <ele>288</ele>
        <time>2016-11-12T12:14:03Z</time>
      </trkpt>
      <trkpt lat="45.95327" lon="4.64631">
        <ele>288</ele>
        <time>2016-11-12T12:14:04Z</time>
      </trkpt>
      <trkpt lat="45.95326" lon="4.64641">
        <ele>288</ele>
        <time>2016-11-12T12:14:05Z</time>
      </trkpt>
      <trkpt lat="45.95324" lon="4.64651">
        <ele>288</ele>
        <time>2016-11-12T12:14:06Z</time>
      </trkpt>
      <trkpt lat="45.95323" lon="4.64661">
        <ele>288</ele>
        <time>2016-11-12T12:14:07Z</time>
      </trkpt>
      <trkpt lat="45.95321" lon="4.64671">
        <ele>288</ele>
        <time>2016-11-12T12:14:08Z</time>
      </trkpt>
      <trkpt lat="45.95319" lon="4.64682">
        <ele>287</ele>
        <time>2016-11-12T12:14:09Z</time>
      </trkpt>
      <trkpt lat="45.95317" lon="4.64692">
        <ele>287</ele>
        <time>2016-11-12T12:14:10Z</time>
      </trkpt>
      <trkpt lat="45.95315" lon="4.64703">
        <ele>287</ele>
        <time>2016-11-12T12:14:11Z</time>
      </trkpt>
      <trkpt lat="45.95313" lon="4.64714">
        <ele>287</ele>
        <time>2016-11-12T12:14:12Z</time>
      </trkpt>
      <trkpt lat="45.95311" lon="4.64725">
        <ele>287</ele>
        <time>2016-11-12T12:14:13Z</time>
      </trkpt>
      <trkpt lat="45.95309" lon="4.64735">
        <ele>287</ele>
        <time>2016-11-12T12:14:14Z</time>
      </trkpt>
      <trkpt lat="45.95306" lon="4.64745">
        <ele>287</ele>
        <time>2016-11-12T12:14:15Z</time>
      </trkpt>
      <trkpt lat="45.95303" lon="4.64755">
        <ele>286</ele>
        <time>2016-11-12T12:14:16Z</time>
      </trkpt>
      <trkpt lat="45.95299" lon="4.64764">
        <ele>286</ele>
        <time>2016-11-12T12:14:17Z</time>
      </trkpt>
      <trkpt lat="45.95296" lon="4.64773">
        <ele>286</ele>
        <time>2016-11-12T12:14:18Z</time>
      </trkpt>
      <trkpt lat="45.95293" lon="4.64783">
        <ele>285</ele>
        <time>2016-11-12T12:14:19Z</time>
      </trkpt>
      <trkpt lat="45.95291" lon="4.64792">
        <ele>285</ele>
        <time>2016-11-12T12:14:20Z</time>
      </trkpt>
      <trkpt lat="45.95283" lon="4.64822">
        <ele>284</ele>
        <time>2016-11-12T12:14:23Z</time>
      </trkpt>
      <trkpt lat="45.9528" lon="4.64833">
        <ele>284</ele>
        <time>2016-11-12T12:14:24Z</time>
      </trkpt>
      <trkpt lat="45.95277" lon="4.64843">
        <ele>283</ele>
        <time>2016-11-12T12:14:25Z</time>
      </trkpt>
      <trkpt lat="45.95275" lon="4.64854">
        <ele>283</ele>
        <time>2016-11-12T12:14:26Z</time>
      </trkpt>
      <trkpt lat="45.95273" lon="4.64865">
        <ele>283</ele>
        <time>2016-11-12T12:14:27Z</time>
      </trkpt>
      <trkpt lat="45.95269" lon="4.64897">
        <ele>282</ele>
        <time>2016-11-12T12:14:30Z</time>
      </trkpt>
      <trkpt lat="45.95269" lon="4.64907">
        <ele>281</ele>
        <time>2016-11-12T12:14:31Z</time>
      </trkpt>
      <trkpt lat="45.95269" lon="4.64917">
        <ele>280</ele>
        <time>2016-11-12T12:14:32Z</time>
      </trkpt>
      <trkpt lat="45.95269" lon="4.64927">
        <ele>280</ele>
        <time>2016-11-12T12:14:33Z</time>
      </trkpt>
      <trkpt lat="45.95268" lon="4.64937">
        <ele>281</ele>
        <time>2016-11-12T12:14:34Z</time>
      </trkpt>
      <trkpt lat="45.95268" lon="4.64946">
        <ele>281</ele>
        <time>2016-11-12T12:14:35Z</time>
      </trkpt>
      <trkpt lat="45.95268" lon="4.64956">
        <ele>281</ele>
        <time>2016-11-12T12:14:36Z</time>
      </trkpt>
      <trkpt lat="45.95267" lon="4.64965">
        <ele>281</ele>
        <time>2016-11-12T12:14:37Z</time>
      </trkpt>
      <trkpt lat="45.95267" lon="4.64973">
        <ele>281</ele>
        <time>2016-11-12T12:14:38Z</time>
      </trkpt>
      <trkpt lat="45.95266" lon="4.64982">
        <ele>280</ele>
        <time>2016-11-12T12:14:39Z</time>
      </trkpt>
      <trkpt lat="45.95265" lon="4.6499">
        <ele>279</ele>
        <time>2016-11-12T12:14:40Z</time>
      </trkpt>
      <trkpt lat="45.95264" lon="4.64998">
        <ele>279</ele>
        <time>2016-11-12T12:14:41Z</time>
      </trkpt>
      <trkpt lat="45.95263" lon="4.65006">
        <ele>279</ele>
        <time>2016-11-12T12:14:42Z</time>
      </trkpt>
      <trkpt lat="45.95261" lon="4.65015">
        <ele>280</ele>
        <time>2016-11-12T12:14:43Z</time>
      </trkpt>
      <trkpt lat="45.9526" lon="4.65023">
        <ele>280</ele>
        <time>2016-11-12T12:14:44Z</time>
      </trkpt>
      <trkpt lat="45.95258" lon="4.65032">
        <ele>280</ele>
        <time>2016-11-12T12:14:45Z</time>
      </trkpt>
      <trkpt lat="45.95257" lon="4.65041">
        <ele>281</ele>
        <time>2016-11-12T12:14:46Z</time>
      </trkpt>
      <trkpt lat="45.95256" lon="4.65049">
        <ele>280</ele>
        <time>2016-11-12T12:14:47Z</time>
      </trkpt>
      <trkpt lat="45.95255" lon="4.65058">
        <ele>280</ele>
        <time>2016-11-12T12:14:48Z</time>
      </trkpt>
      <trkpt lat="45.95253" lon="4.65068">
        <ele>279</ele>
        <time>2016-11-12T12:14:49Z</time>
      </trkpt>
      <trkpt lat="45.95252" lon="4.65078">
        <ele>277</ele>
        <time>2016-11-12T12:14:50Z</time>
      </trkpt>
      <trkpt lat="45.9525" lon="4.65089">
        <ele>275</ele>
        <time>2016-11-12T12:14:51Z</time>
      </trkpt>
      <trkpt lat="45.95248" lon="4.65099">
        <ele>274</ele>
        <time>2016-11-12T12:14:52Z</time>
      </trkpt>
      <trkpt lat="45.95246" lon="4.6511">
        <ele>273</ele>
        <time>2016-11-12T12:14:53Z</time>
      </trkpt>
      <trkpt lat="45.95244" lon="4.65121">
        <ele>273</ele>
        <time>2016-11-12T12:14:54Z</time>
      </trkpt>
      <trkpt lat="45.95242" lon="4.65132">
        <ele>273</ele>
        <time>2016-11-12T12:14:55Z</time>
      </trkpt>
      <trkpt lat="45.9524" lon="4.65143">
        <ele>273</ele>
        <time>2016-11-12T12:14:56Z</time>
      </trkpt>
      <trkpt lat="45.95237" lon="4.65154">
        <ele>274</ele>
        <time>2016-11-12T12:14:57Z</time>
      </trkpt>
      <trkpt lat="45.95235" lon="4.65166">
        <ele>274</ele>
        <time>2016-11-12T12:14:58Z</time>
      </trkpt>
      <trkpt lat="45.95232" lon="4.65178">
        <ele>274</ele>
        <time>2016-11-12T12:14:59Z</time>
      </trkpt>
      <trkpt lat="45.95229" lon="4.65189">
        <ele>273</ele>
        <time>2016-11-12T12:15:00Z</time>
      </trkpt>
      <trkpt lat="45.95226" lon="4.652">
        <ele>273</ele>
        <time>2016-11-12T12:15:01Z</time>
      </trkpt>
      <trkpt lat="45.95223" lon="4.65212">
        <ele>273</ele>
        <time>2016-11-12T12:15:02Z</time>
      </trkpt>
      <trkpt lat="45.95219" lon="4.65223">
        <ele>272</ele>
        <time>2016-11-12T12:15:03Z</time>
      </trkpt>
      <trkpt lat="45.95216" lon="4.65235">
        <ele>272</ele>
        <time>2016-11-12T12:15:04Z</time>
      </trkpt>
      <trkpt lat="45.95212" lon="4.65246">
        <ele>272</ele>
        <time>2016-11-12T12:15:05Z</time>
      </trkpt>
      <trkpt lat="45.95208" lon="4.65257">
        <ele>273</ele>
        <time>2016-11-12T12:15:06Z</time>
      </trkpt>
      <trkpt lat="45.95204" lon="4.65268">
        <ele>272</ele>
        <time>2016-11-12T12:15:07Z</time>
      </trkpt>
      <trkpt lat="45.952" lon="4.65278">
        <ele>272</ele>
        <time>2016-11-12T12:15:08Z</time>
      </trkpt>
      <trkpt lat="45.95195" lon="4.65288">
        <ele>272</ele>
        <time>2016-11-12T12:15:09Z</time>
      </trkpt>
      <trkpt lat="45.9519" lon="4.65297">
        <ele>272</ele>
        <time>2016-11-12T12:15:10Z</time>
      </trkpt>
      <trkpt lat="45.95185" lon="4.65307">
        <ele>271</ele>
        <time>2016-11-12T12:15:11Z</time>
      </trkpt>
      <trkpt lat="45.9518" lon="4.65317">
        <ele>271</ele>
        <time>2016-11-12T12:15:12Z</time>
      </trkpt>
      <trkpt lat="45.95176" lon="4.65327">
        <ele>269</ele>
        <time>2016-11-12T12:15:13Z</time>
      </trkpt>
      <trkpt lat="45.95171" lon="4.65336">
        <ele>269</ele>
        <time>2016-11-12T12:15:14Z</time>
      </trkpt>
      <trkpt lat="45.95166" lon="4.65345">
        <ele>266</ele>
        <time>2016-11-12T12:15:15Z</time>
      </trkpt>
      <trkpt lat="45.95161" lon="4.65354">
        <ele>266</ele>
        <time>2016-11-12T12:15:16Z</time>
      </trkpt>
      <trkpt lat="45.95155" lon="4.65363">
        <ele>266</ele>
        <time>2016-11-12T12:15:17Z</time>
      </trkpt>
      <trkpt lat="45.9515" lon="4.65371">
        <ele>266</ele>
        <time>2016-11-12T12:15:18Z</time>
      </trkpt>
      <trkpt lat="45.95145" lon="4.65378">
        <ele>266</ele>
        <time>2016-11-12T12:15:19Z</time>
      </trkpt>
      <trkpt lat="45.95139" lon="4.65386">
        <ele>266</ele>
        <time>2016-11-12T12:15:20Z</time>
      </trkpt>
      <trkpt lat="45.95135" lon="4.65393">
        <ele>266</ele>
        <time>2016-11-12T12:15:21Z</time>
      </trkpt>
      <trkpt lat="45.9513" lon="4.65401">
        <ele>265</ele>
        <time>2016-11-12T12:15:22Z</time>
      </trkpt>
      <trkpt lat="45.95126" lon="4.65409">
        <ele>265</ele>
        <time>2016-11-12T12:15:23Z</time>
      </trkpt>
      <trkpt lat="45.95122" lon="4.65418">
        <ele>267</ele>
        <time>2016-11-12T12:15:24Z</time>
      </trkpt>
      <trkpt lat="45.95119" lon="4.65426">
        <ele>266</ele>
        <time>2016-11-12T12:15:25Z</time>
      </trkpt>
      <trkpt lat="45.95116" lon="4.65434">
        <ele>266</ele>
        <time>2016-11-12T12:15:26Z</time>
      </trkpt>
      <trkpt lat="45.95113" lon="4.65441">
        <ele>266</ele>
        <time>2016-11-12T12:15:27Z</time>
      </trkpt>
      <trkpt lat="45.9511" lon="4.65448">
        <ele>266</ele>
        <time>2016-11-12T12:15:28Z</time>
      </trkpt>
      <trkpt lat="45.95108" lon="4.65456">
        <ele>266</ele>
        <time>2016-11-12T12:15:29Z</time>
      </trkpt>
      <trkpt lat="45.95105" lon="4.65464">
        <ele>267</ele>
        <time>2016-11-12T12:15:30Z</time>
      </trkpt>
      <trkpt lat="45.95102" lon="4.65471">
        <ele>266</ele>
        <time>2016-11-12T12:15:31Z</time>
      </trkpt>
      <trkpt lat="45.95099" lon="4.65479">
        <ele>266</ele>
        <time>2016-11-12T12:15:32Z</time>
      </trkpt>
      <trkpt lat="45.95096" lon="4.65487">
        <ele>266</ele>
        <time>2016-11-12T12:15:33Z</time>
      </trkpt>
      <trkpt lat="45.95093" lon="4.65495">
        <ele>265</ele>
        <time>2016-11-12T12:15:34Z</time>
      </trkpt>
      <trkpt lat="45.9509" lon="4.65503">
        <ele>266</ele>
        <time>2016-11-12T12:15:35Z</time>
      </trkpt>
      <trkpt lat="45.95087" lon="4.6551">
        <ele>267</ele>
        <time>2016-11-12T12:15:36Z</time>
      </trkpt>
      <trkpt lat="45.95084" lon="4.65518">
        <ele>268</ele>
        <time>2016-11-12T12:15:37Z</time>
      </trkpt>
      <trkpt lat="45.95081" lon="4.65527">
        <ele>262</ele>
        <time>2016-11-12T12:15:38Z</time>
      </trkpt>
      <trkpt lat="45.95078" lon="4.65535">
        <ele>262</ele>
        <time>2016-11-12T12:15:39Z</time>
      </trkpt>
      <trkpt lat="45.95075" lon="4.65543">
        <ele>262</ele>
        <time>2016-11-12T12:15:40Z</time>
      </trkpt>
      <trkpt lat="45.95074" lon="4.65553">
        <ele>263</ele>
        <time>2016-11-12T12:15:41Z</time>
      </trkpt>
      <trkpt lat="45.95073" lon="4.65562">
        <ele>264</ele>
        <time>2016-11-12T12:15:42Z</time>
      </trkpt>
      <trkpt lat="45.95073" lon="4.65571">
        <ele>265</ele>
        <time>2016-11-12T12:15:43Z</time>
      </trkpt>
      <trkpt lat="45.95073" lon="4.6558">
        <ele>266</ele>
        <time>2016-11-12T12:15:44Z</time>
      </trkpt>
      <trkpt lat="45.95073" lon="4.65589">
        <ele>265</ele>
        <time>2016-11-12T12:15:45Z</time>
      </trkpt>
      <trkpt lat="45.95073" lon="4.65598">
        <ele>264</ele>
        <time>2016-11-12T12:15:46Z</time>
      </trkpt>
      <trkpt lat="45.95073" lon="4.65607">
        <ele>263</ele>
        <time>2016-11-12T12:15:47Z</time>
      </trkpt>
      <trkpt lat="45.95074" lon="4.65615">
        <ele>263</ele>
        <time>2016-11-12T12:15:48Z</time>
      </trkpt>
      <trkpt lat="45.95076" lon="4.65623">
        <ele>262</ele>
        <time>2016-11-12T12:15:49Z</time>
      </trkpt>
      <trkpt lat="45.95076" lon="4.65631">
        <ele>262</ele>
        <time>2016-11-12T12:15:50Z</time>
      </trkpt>
      <trkpt lat="45.95077" lon="4.65639">
        <ele>262</ele>
        <time>2016-11-12T12:15:51Z</time>
      </trkpt>
      <trkpt lat="45.95078" lon="4.65647">
        <ele>262</ele>
        <time>2016-11-12T12:15:52Z</time>
      </trkpt>
      <trkpt lat="45.95079" lon="4.65655">
        <ele>263</ele>
        <time>2016-11-12T12:15:53Z</time>
      </trkpt>
      <trkpt lat="45.9508" lon="4.65663">
        <ele>264</ele>
        <time>2016-11-12T12:15:54Z</time>
      </trkpt>
      <trkpt lat="45.95081" lon="4.6567">
        <ele>264</ele>
        <time>2016-11-12T12:15:55Z</time>
      </trkpt>
      <trkpt lat="45.95082" lon="4.65678">
        <ele>263</ele>
        <time>2016-11-12T12:15:56Z</time>
      </trkpt>
      <trkpt lat="45.95082" lon="4.65686">
        <ele>262</ele>
        <time>2016-11-12T12:15:57Z</time>
      </trkpt>
      <trkpt lat="45.95082" lon="4.65693">
        <ele>261</ele>
        <time>2016-11-12T12:15:58Z</time>
      </trkpt>
      <trkpt lat="45.95082" lon="4.65701">
        <ele>261</ele>
        <time>2016-11-12T12:15:59Z</time>
      </trkpt>
      <trkpt lat="45.95082" lon="4.65708">
        <ele>261</ele>
        <time>2016-11-12T12:16:00Z</time>
      </trkpt>
      <trkpt lat="45.95081" lon="4.65715">
        <ele>261</ele>
        <time>2016-11-12T12:16:01Z</time>
      </trkpt>
      <trkpt lat="45.9508" lon="4.65723">
        <ele>262</ele>
        <time>2016-11-12T12:16:02Z</time>
      </trkpt>
      <trkpt lat="45.95079" lon="4.6573">
        <ele>262</ele>
        <time>2016-11-12T12:16:03Z</time>
      </trkpt>
      <trkpt lat="45.95078" lon="4.65737">
        <ele>263</ele>
        <time>2016-11-12T12:16:04Z</time>
      </trkpt>
      <trkpt lat="45.95078" lon="4.65744">
        <ele>264</ele>
        <time>2016-11-12T12:16:05Z</time>
      </trkpt>
      <trkpt lat="45.95077" lon="4.65751">
        <ele>264</ele>
        <time>2016-11-12T12:16:06Z</time>
      </trkpt>
      <trkpt lat="45.95076" lon="4.65759">
        <ele>264</ele>
        <time>2016-11-12T12:16:07Z</time>
      </trkpt>
      <trkpt lat="45.95075" lon="4.65766">
        <ele>263</ele>
        <time>2016-11-12T12:16:08Z</time>
      </trkpt>
      <trkpt lat="45.95074" lon="4.65774">
        <ele>262</ele>
        <time>2016-11-12T12:16:09Z</time>
      </trkpt>
      <trkpt lat="45.95072" lon="4.65782">
        <ele>262</ele>
        <time>2016-11-12T12:16:10Z</time>
      </trkpt>
      <trkpt lat="45.9507" lon="4.6579">
        <ele>262</ele>
        <time>2016-11-12T12:16:11Z</time>
      </trkpt>
      <trkpt lat="45.95068" lon="4.65798">
        <ele>262</ele>
        <time>2016-11-12T12:16:12Z</time>
      </trkpt>
      <trkpt lat="45.95065" lon="4.65805">
        <ele>262</ele>
        <time>2016-11-12T12:16:13Z</time>
      </trkpt>
      <trkpt lat="45.95062" lon="4.65812">
        <ele>262</ele>
        <time>2016-11-12T12:16:14Z</time>
      </trkpt>
      <trkpt lat="45.95059" lon="4.65819">
        <ele>262</ele>
        <time>2016-11-12T12:16:15Z</time>
      </trkpt>
      <trkpt lat="45.95056" lon="4.65825">
        <ele>261</ele>
        <time>2016-11-12T12:16:16Z</time>
      </trkpt>
      <trkpt lat="45.95052" lon="4.65831">
        <ele>261</ele>
        <time>2016-11-12T12:16:17Z</time>
      </trkpt>
      <trkpt lat="45.95049" lon="4.65838">
        <ele>260</ele>
        <time>2016-11-12T12:16:18Z</time>
      </trkpt>
      <trkpt lat="45.95046" lon="4.65845">
        <ele>260</ele>
        <time>2016-11-12T12:16:19Z</time>
      </trkpt>
      <trkpt lat="45.95043" lon="4.65853">
        <ele>259</ele>
        <time>2016-11-12T12:16:20Z</time>
      </trkpt>
      <trkpt lat="45.9504" lon="4.65863">
        <ele>259</ele>
        <time>2016-11-12T12:16:21Z</time>
      </trkpt>
      <trkpt lat="45.95037" lon="4.65873">
        <ele>259</ele>
        <time>2016-11-12T12:16:22Z</time>
      </trkpt>
      <trkpt lat="45.95035" lon="4.65881">
        <ele>259</ele>
        <time>2016-11-12T12:16:23Z</time>
      </trkpt>
      <trkpt lat="45.95032" lon="4.65889">
        <ele>258</ele>
        <time>2016-11-12T12:16:24Z</time>
      </trkpt>
      <trkpt lat="45.9503" lon="4.65897">
        <ele>258</ele>
        <time>2016-11-12T12:16:25Z</time>
      </trkpt>
      <trkpt lat="45.95029" lon="4.65905">
        <ele>258</ele>
        <time>2016-11-12T12:16:26Z</time>
      </trkpt>
      <trkpt lat="45.95027" lon="4.65914">
        <ele>257</ele>
        <time>2016-11-12T12:16:27Z</time>
      </trkpt>
      <trkpt lat="45.95026" lon="4.65923">
        <ele>256</ele>
        <time>2016-11-12T12:16:28Z</time>
      </trkpt>
      <trkpt lat="45.95025" lon="4.65932">
        <ele>256</ele>
        <time>2016-11-12T12:16:29Z</time>
      </trkpt>
      <trkpt lat="45.95025" lon="4.65941">
        <ele>256</ele>
        <time>2016-11-12T12:16:30Z</time>
      </trkpt>
      <trkpt lat="45.95025" lon="4.6595">
        <ele>256</ele>
        <time>2016-11-12T12:16:31Z</time>
      </trkpt>
      <trkpt lat="45.95025" lon="4.6596">
        <ele>255</ele>
        <time>2016-11-12T12:16:32Z</time>
      </trkpt>
      <trkpt lat="45.95025" lon="4.65969">
        <ele>255</ele>
        <time>2016-11-12T12:16:33Z</time>
      </trkpt>
      <trkpt lat="45.95025" lon="4.65978">
        <ele>255</ele>
        <time>2016-11-12T12:16:34Z</time>
      </trkpt>
      <trkpt lat="45.95025" lon="4.65988">
        <ele>254</ele>
        <time>2016-11-12T12:16:35Z</time>
      </trkpt>
      <trkpt lat="45.95024" lon="4.65999">
        <ele>254</ele>
        <time>2016-11-12T12:16:36Z</time>
      </trkpt>
      <trkpt lat="45.95024" lon="4.66008">
        <ele>251</ele>
        <time>2016-11-12T12:16:37Z</time>
      </trkpt>
      <trkpt lat="45.95024" lon="4.66017">
        <ele>251</ele>
        <time>2016-11-12T12:16:38Z</time>
      </trkpt>
      <trkpt lat="45.95023" lon="4.66025">
        <ele>251</ele>
        <time>2016-11-12T12:16:39Z</time>
      </trkpt>
      <trkpt lat="45.95023" lon="4.66032">
        <ele>251</ele>
        <time>2016-11-12T12:16:40Z</time>
      </trkpt>
      <trkpt lat="45.95021" lon="4.66039">
        <ele>250</ele>
        <time>2016-11-12T12:16:41Z</time>
      </trkpt>
      <trkpt lat="45.9502" lon="4.66045">
        <ele>250</ele>
        <time>2016-11-12T12:16:42Z</time>
      </trkpt>
      <trkpt lat="45.95017" lon="4.6605">
        <ele>250</ele>
        <time>2016-11-12T12:16:43Z</time>
      </trkpt>
      <trkpt lat="45.95014" lon="4.66056">
        <ele>249</ele>
        <time>2016-11-12T12:16:44Z</time>
      </trkpt>
      <trkpt lat="45.95011" lon="4.66062">
        <ele>248</ele>
        <time>2016-11-12T12:16:45Z</time>
      </trkpt>
      <trkpt lat="45.95009" lon="4.66069">
        <ele>247</ele>
        <time>2016-11-12T12:16:46Z</time>
      </trkpt>
      <trkpt lat="45.95007" lon="4.66076">
        <ele>246</ele>
        <time>2016-11-12T12:16:47Z</time>
      </trkpt>
      <trkpt lat="45.95007" lon="4.66083">
        <ele>246</ele>
        <time>2016-11-12T12:16:48Z</time>
      </trkpt>
      <trkpt lat="45.95007" lon="4.6609">
        <ele>244</ele>
        <time>2016-11-12T12:16:49Z</time>
      </trkpt>
      <trkpt lat="45.95008" lon="4.66097">
        <ele>244</ele>
        <time>2016-11-12T12:16:50Z</time>
      </trkpt>
      <trkpt lat="45.95009" lon="4.66104">
        <ele>244</ele>
        <time>2016-11-12T12:16:51Z</time>
      </trkpt>
      <trkpt lat="45.9501" lon="4.66111">
        <ele>244</ele>
        <time>2016-11-12T12:16:52Z</time>
      </trkpt>
      <trkpt lat="45.95007" lon="4.66122">
        <ele>244</ele>
        <time>2016-11-12T12:16:54Z</time>
      </trkpt>
      <trkpt lat="45.95004" lon="4.66126">
        <ele>244</ele>
        <time>2016-11-12T12:16:55Z</time>
      </trkpt>
      <trkpt lat="45.94997" lon="4.6613">
        <ele>241</ele>
        <time>2016-11-12T12:16:57Z</time>
      </trkpt>
      <trkpt lat="45.94993" lon="4.66132">
        <ele>241</ele>
        <time>2016-11-12T12:16:58Z</time>
      </trkpt>
      <trkpt lat="45.94985" lon="4.66136">
        <ele>241</ele>
        <time>2016-11-12T12:17:00Z</time>
      </trkpt>
      <trkpt lat="45.94982" lon="4.66139">
        <ele>241</ele>
        <time>2016-11-12T12:17:01Z</time>
      </trkpt>
      <trkpt lat="45.94974" lon="4.66145">
        <ele>241</ele>
        <time>2016-11-12T12:17:03Z</time>
      </trkpt>
      <trkpt lat="45.94971" lon="4.66148">
        <ele>241</ele>
        <time>2016-11-12T12:17:04Z</time>
      </trkpt>
      <trkpt lat="45.94964" lon="4.66156">
        <ele>241</ele>
        <time>2016-11-12T12:17:06Z</time>
      </trkpt>
      <trkpt lat="45.9496" lon="4.6616">
        <ele>241</ele>
        <time>2016-11-12T12:17:07Z</time>
      </trkpt>
      <trkpt lat="45.94952" lon="4.66165">
        <ele>241</ele>
        <time>2016-11-12T12:17:09Z</time>
      </trkpt>
      <trkpt lat="45.94949" lon="4.66167">
        <ele>240</ele>
        <time>2016-11-12T12:17:10Z</time>
      </trkpt>
      <trkpt lat="45.94941" lon="4.6617">
        <ele>240</ele>
        <time>2016-11-12T12:17:12Z</time>
      </trkpt>
      <trkpt lat="45.94937" lon="4.66171">
        <ele>240</ele>
        <time>2016-11-12T12:17:13Z</time>
      </trkpt>
      <trkpt lat="45.94929" lon="4.66172">
        <ele>241</ele>
        <time>2016-11-12T12:17:15Z</time>
      </trkpt>
      <trkpt lat="45.94926" lon="4.66173">
        <ele>241</ele>
        <time>2016-11-12T12:17:16Z</time>
      </trkpt>
      <trkpt lat="45.94919" lon="4.66174">
        <ele>241</ele>
        <time>2016-11-12T12:17:18Z</time>
      </trkpt>
      <trkpt lat="45.94916" lon="4.66175">
        <ele>242</ele>
        <time>2016-11-12T12:17:19Z</time>
      </trkpt>
      <trkpt lat="45.94907" lon="4.66175">
        <ele>243</ele>
        <time>2016-11-12T12:17:22Z</time>
      </trkpt>
      <trkpt lat="45.94904" lon="4.66176">
        <ele>243</ele>
        <time>2016-11-12T12:17:23Z</time>
      </trkpt>
      <trkpt lat="45.94897" lon="4.66182">
        <ele>244</ele>
        <time>2016-11-12T12:17:26Z</time>
      </trkpt>
      <trkpt lat="45.94896" lon="4.66184">
        <ele>244</ele>
        <time>2016-11-12T12:17:27Z</time>
      </trkpt>
      <trkpt lat="45.94892" lon="4.66193">
        <ele>245</ele>
        <time>2016-11-12T12:17:30Z</time>
      </trkpt>
      <trkpt lat="45.94891" lon="4.66196">
        <ele>245</ele>
        <time>2016-11-12T12:17:31Z</time>
      </trkpt>
      <trkpt lat="45.94889" lon="4.66205">
        <ele>245</ele>
        <time>2016-11-12T12:17:33Z</time>
      </trkpt>
      <trkpt lat="45.94889" lon="4.66212">
        <ele>245</ele>
        <time>2016-11-12T12:17:34Z</time>
      </trkpt>
      <trkpt lat="45.94888" lon="4.66218">
        <ele>245</ele>
        <time>2016-11-12T12:17:35Z</time>
      </trkpt>
      <trkpt lat="45.94884" lon="4.66223">
        <ele>245</ele>
        <time>2016-11-12T12:17:36Z</time>
      </trkpt>
      <trkpt lat="45.9488" lon="4.66227">
        <ele>245</ele>
        <time>2016-11-12T12:17:37Z</time>
      </trkpt>
      <trkpt lat="45.94875" lon="4.6623">
        <ele>245</ele>
        <time>2016-11-12T12:17:38Z</time>
      </trkpt>
      <trkpt lat="45.94871" lon="4.66232">
        <ele>246</ele>
        <time>2016-11-12T12:17:39Z</time>
      </trkpt>
      <trkpt lat="45.94867" lon="4.66235">
        <ele>246</ele>
        <time>2016-11-12T12:17:40Z</time>
      </trkpt>
      <trkpt lat="45.9486" lon="4.66242">
        <ele>246</ele>
        <time>2016-11-12T12:17:42Z</time>
      </trkpt>
      <trkpt lat="45.94857" lon="4.66245">
        <ele>246</ele>
        <time>2016-11-12T12:17:43Z</time>
      </trkpt>
      <trkpt lat="45.94851" lon="4.66252">
        <ele>246</ele>
        <time>2016-11-12T12:17:45Z</time>
      </trkpt>
      <trkpt lat="45.94849" lon="4.66255">
        <ele>246</ele>
        <time>2016-11-12T12:17:46Z</time>
      </trkpt>
      <trkpt lat="45.94843" lon="4.6626">
        <ele>247</ele>
        <time>2016-11-12T12:17:48Z</time>
      </trkpt>
      <trkpt lat="45.94841" lon="4.66263">
        <ele>247</ele>
        <time>2016-11-12T12:17:49Z</time>
      </trkpt>
      <trkpt lat="45.94837" lon="4.66271">
        <ele>247</ele>
        <time>2016-11-12T12:17:51Z</time>
      </trkpt>
      <trkpt lat="45.94836" lon="4.66275">
        <ele>247</ele>
        <time>2016-11-12T12:17:52Z</time>
      </trkpt>
      <trkpt lat="45.94833" lon="4.66284">
        <ele>249</ele>
        <time>2016-11-12T12:17:54Z</time>
      </trkpt>
      <trkpt lat="45.94833" lon="4.66288">
        <ele>249</ele>
        <time>2016-11-12T12:17:55Z</time>
      </trkpt>
      <trkpt lat="45.94833" lon="4.66301">
        <ele>249</ele>
        <time>2016-11-12T12:17:58Z</time>
      </trkpt>
      <trkpt lat="45.94833" lon="4.66304">
        <ele>250</ele>
        <time>2016-11-12T12:17:59Z</time>
      </trkpt>
      <trkpt lat="45.94833" lon="4.66314">
        <ele>250</ele>
        <time>2016-11-12T12:18:02Z</time>
      </trkpt>
      <trkpt lat="45.94834" lon="4.66319">
        <ele>248</ele>
        <time>2016-11-12T12:18:03Z</time>
      </trkpt>
      <trkpt lat="45.94835" lon="4.66331">
        <ele>250</ele>
        <time>2016-11-12T12:18:07Z</time>
      </trkpt>
      <trkpt lat="45.94835" lon="4.66334">
        <ele>250</ele>
        <time>2016-11-12T12:18:08Z</time>
      </trkpt>
      <trkpt lat="45.94835" lon="4.66345">
        <ele>250</ele>
        <time>2016-11-12T12:18:12Z</time>
      </trkpt>
      <trkpt lat="45.94836" lon="4.66348">
        <ele>250</ele>
        <time>2016-11-12T12:18:13Z</time>
      </trkpt>
      <trkpt lat="45.94839" lon="4.66358">
        <ele>250</ele>
        <time>2016-11-12T12:18:17Z</time>
      </trkpt>
      <trkpt lat="45.94841" lon="4.66361">
        <ele>250</ele>
        <time>2016-11-12T12:18:18Z</time>
      </trkpt>
      <trkpt lat="45.94845" lon="4.66369">
        <ele>250</ele>
        <time>2016-11-12T12:18:21Z</time>
      </trkpt>
      <trkpt lat="45.94846" lon="4.66372">
        <ele>250</ele>
        <time>2016-11-12T12:18:22Z</time>
      </trkpt>
      <trkpt lat="45.94851" lon="4.66382">
        <ele>251</ele>
        <time>2016-11-12T12:18:26Z</time>
      </trkpt>
      <trkpt lat="45.94852" lon="4.66385">
        <ele>251</ele>
        <time>2016-11-12T12:18:27Z</time>
      </trkpt>
      <trkpt lat="45.94859" lon="4.66394">
        <ele>251</ele>
        <time>2016-11-12T12:18:31Z</time>
      </trkpt>
      <trkpt lat="45.9486" lon="4.66396">
        <ele>251</ele>
        <time>2016-11-12T12:18:32Z</time>
      </trkpt>
      <trkpt lat="45.94864" lon="4.66406">
        <ele>251</ele>
        <time>2016-11-12T12:18:36Z</time>
      </trkpt>
      <trkpt lat="45.94865" lon="4.66409">
        <ele>251</ele>
        <time>2016-11-12T12:18:37Z</time>
      </trkpt>
      <trkpt lat="45.94869" lon="4.66418">
        <ele>255</ele>
        <time>2016-11-12T12:18:40Z</time>
      </trkpt>
      <trkpt lat="45.9487" lon="4.66421">
        <ele>255</ele>
        <time>2016-11-12T12:18:41Z</time>
      </trkpt>
      <trkpt lat="45.94873" lon="4.66432">
        <ele>255</ele>
        <time>2016-11-12T12:18:45Z</time>
      </trkpt>
      <trkpt lat="45.94874" lon="4.66435">
        <ele>256</ele>
        <time>2016-11-12T12:18:46Z</time>
      </trkpt>
      <trkpt lat="45.94876" lon="4.66445">
        <ele>256</ele>
        <time>2016-11-12T12:18:50Z</time>
      </trkpt>
      <trkpt lat="45.94876" lon="4.66448">
        <ele>256</ele>
        <time>2016-11-12T12:18:51Z</time>
      </trkpt>
      <trkpt lat="45.94878" lon="4.66459">
        <ele>256</ele>
        <time>2016-11-12T12:18:55Z</time>
      </trkpt>
      <trkpt lat="45.94879" lon="4.66463">
        <ele>257</ele>
        <time>2016-11-12T12:18:56Z</time>
      </trkpt>
      <trkpt lat="45.94882" lon="4.66473">
        <ele>257</ele>
        <time>2016-11-12T12:19:00Z</time>
      </trkpt>
      <trkpt lat="45.94882" lon="4.66476">
        <ele>257</ele>
        <time>2016-11-12T12:19:01Z</time>
      </trkpt>
      <trkpt lat="45.94884" lon="4.66487">
        <ele>257</ele>
        <time>2016-11-12T12:19:05Z</time>
      </trkpt>
      <trkpt lat="45.94884" lon="4.66489">
        <ele>257</ele>
        <time>2016-11-12T12:19:06Z</time>
      </trkpt>
      <trkpt lat="45.94884" lon="4.665">
        <ele>261</ele>
        <time>2016-11-12T12:19:10Z</time>
      </trkpt>
      <trkpt lat="45.94884" lon="4.66503">
        <ele>261</ele>
        <time>2016-11-12T12:19:11Z</time>
      </trkpt>
      <trkpt lat="45.94884" lon="4.66514">
        <ele>261</ele>
        <time>2016-11-12T12:19:15Z</time>
      </trkpt>
      <trkpt lat="45.94883" lon="4.66517">
        <ele>261</ele>
        <time>2016-11-12T12:19:16Z</time>
      </trkpt>
      <trkpt lat="45.9488" lon="4.66526">
        <ele>262</ele>
        <time>2016-11-12T12:19:20Z</time>
      </trkpt>
      <trkpt lat="45.9488" lon="4.66529">
        <ele>262</ele>
        <time>2016-11-12T12:19:21Z</time>
      </trkpt>
      <trkpt lat="45.94877" lon="4.66538">
        <ele>262</ele>
        <time>2016-11-12T12:19:25Z</time>
      </trkpt>
      <trkpt lat="45.94875" lon="4.66541">
        <ele>262</ele>
        <time>2016-11-12T12:19:26Z</time>
      </trkpt>
      <trkpt lat="45.94872" lon="4.66549">
        <ele>263</ele>
        <time>2016-11-12T12:19:29Z</time>
      </trkpt>
      <trkpt lat="45.94871" lon="4.66552">
        <ele>263</ele>
        <time>2016-11-12T12:19:30Z</time>
      </trkpt>
      <trkpt lat="45.94867" lon="4.66562">
        <ele>263</ele>
        <time>2016-11-12T12:19:34Z</time>
      </trkpt>
      <trkpt lat="45.94866" lon="4.66565">
        <ele>263</ele>
        <time>2016-11-12T12:19:35Z</time>
      </trkpt>
      <trkpt lat="45.94861" lon="4.66574">
        <ele>263</ele>
        <time>2016-11-12T12:19:39Z</time>
      </trkpt>
      <trkpt lat="45.9486" lon="4.66576">
        <ele>264</ele>
        <time>2016-11-12T12:19:40Z</time>
      </trkpt>
      <trkpt lat="45.94856" lon="4.66586">
        <ele>266</ele>
        <time>2016-11-12T12:19:44Z</time>
      </trkpt>
      <trkpt lat="45.94855" lon="4.66589">
        <ele>266</ele>
        <time>2016-11-12T12:19:45Z</time>
      </trkpt>
      <trkpt lat="45.94852" lon="4.666">
        <ele>266</ele>
        <time>2016-11-12T12:19:49Z</time>
      </trkpt>
      <trkpt lat="45.94851" lon="4.66602">
        <ele>266</ele>
        <time>2016-11-12T12:19:50Z</time>
      </trkpt>
      <trkpt lat="45.94847" lon="4.66613">
        <ele>266</ele>
        <time>2016-11-12T12:19:54Z</time>
      </trkpt>
      <trkpt lat="45.94845" lon="4.66615">
        <ele>266</ele>
        <time>2016-11-12T12:19:55Z</time>
      </trkpt>
      <trkpt lat="45.94841" lon="4.66626">
        <ele>266</ele>
        <time>2016-11-12T12:19:59Z</time>
      </trkpt>
      <trkpt lat="45.9484" lon="4.66629">
        <ele>266</ele>
        <time>2016-11-12T12:20:00Z</time>
      </trkpt>
      <trkpt lat="45.94835" lon="4.66638">
        <ele>267</ele>
        <time>2016-11-12T12:20:04Z</time>
      </trkpt>
      <trkpt lat="45.94834" lon="4.66641">
        <ele>267</ele>
        <time>2016-11-12T12:20:05Z</time>
      </trkpt>
      <trkpt lat="45.94832" lon="4.66651">
        <ele>269</ele>
        <time>2016-11-12T12:20:09Z</time>
      </trkpt>
      <trkpt lat="45.94832" lon="4.66654">
        <ele>269</ele>
        <time>2016-11-12T12:20:10Z</time>
      </trkpt>
      <trkpt lat="45.94829" lon="4.66664">
        <ele>269</ele>
        <time>2016-11-12T12:20:14Z</time>
      </trkpt>
      <trkpt lat="45.94828" lon="4.66667">
        <ele>270</ele>
        <time>2016-11-12T12:20:15Z</time>
      </trkpt>
      <trkpt lat="45.94825" lon="4.66676">
        <ele>270</ele>
        <time>2016-11-12T12:20:19Z</time>
      </trkpt>
      <trkpt lat="45.94824" lon="4.66679">
        <ele>270</ele>
        <time>2016-11-12T12:20:20Z</time>
      </trkpt>
      <trkpt lat="45.94823" lon="4.66689">
        <ele>271</ele>
        <time>2016-11-12T12:20:24Z</time>
      </trkpt>
      <trkpt lat="45.94823" lon="4.66692">
        <ele>271</ele>
        <time>2016-11-12T12:20:25Z</time>
      </trkpt>
      <trkpt lat="45.94821" lon="4.66702">
        <ele>271</ele>
        <time>2016-11-12T12:20:29Z</time>
      </trkpt>
      <trkpt lat="45.94821" lon="4.66705">
        <ele>271</ele>
        <time>2016-11-12T12:20:30Z</time>
      </trkpt>
      <trkpt lat="45.94817" lon="4.66715">
        <ele>272</ele>
        <time>2016-11-12T12:20:35Z</time>
      </trkpt>
      <trkpt lat="45.94816" lon="4.66717">
        <ele>272</ele>
        <time>2016-11-12T12:20:36Z</time>
      </trkpt>
      <trkpt lat="45.94815" lon="4.66728">
        <ele>272</ele>
        <time>2016-11-12T12:20:41Z</time>
      </trkpt>
      <trkpt lat="45.94815" lon="4.6673">
        <ele>272</ele>
        <time>2016-11-12T12:20:42Z</time>
      </trkpt>
      <trkpt lat="45.94815" lon="4.66742">
        <ele>272</ele>
        <time>2016-11-12T12:20:47Z</time>
      </trkpt>
      <trkpt lat="45.94814" lon="4.66745">
        <ele>272</ele>
        <time>2016-11-12T12:20:48Z</time>
      </trkpt>
      <trkpt lat="45.94812" lon="4.66755">
        <ele>274</ele>
        <time>2016-11-12T12:20:53Z</time>
      </trkpt>
      <trkpt lat="45.94812" lon="4.66757">
        <ele>274</ele>
        <time>2016-11-12T12:20:54Z</time>
      </trkpt>
      <trkpt lat="45.9481" lon="4.66768">
        <ele>274</ele>
        <time>2016-11-12T12:20:58Z</time>
      </trkpt>
      <trkpt lat="45.9481" lon="4.6677">
        <ele>274</ele>
        <time>2016-11-12T12:20:59Z</time>
      </trkpt>
      <trkpt lat="45.9481" lon="4.66783">
        <ele>275</ele>
        <time>2016-11-12T12:21:04Z</time>
      </trkpt>
      <trkpt lat="45.9481" lon="4.66785">
        <ele>275</ele>
        <time>2016-11-12T12:21:05Z</time>
      </trkpt>
      <trkpt lat="45.94809" lon="4.66798">
        <ele>275</ele>
        <time>2016-11-12T12:21:10Z</time>
      </trkpt>
      <trkpt lat="45.94809" lon="4.66801">
        <ele>275</ele>
        <time>2016-11-12T12:21:11Z</time>
      </trkpt>
      <trkpt lat="45.94809" lon="4.66813">
        <ele>276</ele>
        <time>2016-11-12T12:21:16Z</time>
      </trkpt>
      <trkpt lat="45.94808" lon="4.66816">
        <ele>276</ele>
        <time>2016-11-12T12:21:17Z</time>
      </trkpt>
      <trkpt lat="45.94808" lon="4.66829">
        <ele>276</ele>
        <time>2016-11-12T12:21:22Z</time>
      </trkpt>
      <trkpt lat="45.94809" lon="4.66831">
        <ele>276</ele>
        <time>2016-11-12T12:21:23Z</time>
      </trkpt>
      <trkpt lat="45.94808" lon="4.66843">
        <ele>279</ele>
        <time>2016-11-12T12:21:27Z</time>
      </trkpt>
      <trkpt lat="45.94808" lon="4.66845">
        <ele>279</ele>
        <time>2016-11-12T12:21:28Z</time>
      </trkpt>
      <trkpt lat="45.94809" lon="4.66856">
        <ele>279</ele>
        <time>2016-11-12T12:21:32Z</time>
      </trkpt>
      <trkpt lat="45.94809" lon="4.66859">
        <ele>279</ele>
        <time>2016-11-12T12:21:33Z</time>
      </trkpt>
      <trkpt lat="45.94811" lon="4.66869">
        <ele>279</ele>
        <time>2016-11-12T12:21:37Z</time>
      </trkpt>
      <trkpt lat="45.94811" lon="4.66872">
        <ele>280</ele>
        <time>2016-11-12T12:21:38Z</time>
      </trkpt>
      <trkpt lat="45.94812" lon="4.66883">
        <ele>280</ele>
        <time>2016-11-12T12:21:42Z</time>
      </trkpt>
      <trkpt lat="45.94812" lon="4.66886">
        <ele>280</ele>
        <time>2016-11-12T12:21:43Z</time>
      </trkpt>
      <trkpt lat="45.94813" lon="4.66896">
        <ele>280</ele>
        <time>2016-11-12T12:21:47Z</time>
      </trkpt>
      <trkpt lat="45.94814" lon="4.66899">
        <ele>280</ele>
        <time>2016-11-12T12:21:48Z</time>
      </trkpt>
      <trkpt lat="45.94815" lon="4.66909">
        <ele>280</ele>
        <time>2016-11-12T12:21:51Z</time>
      </trkpt>
      <trkpt lat="45.94814" lon="4.66913">
        <ele>281</ele>
        <time>2016-11-12T12:21:52Z</time>
      </trkpt>
      <trkpt lat="45.94815" lon="4.66924">
        <ele>283</ele>
        <time>2016-11-12T12:21:56Z</time>
      </trkpt>
      <trkpt lat="45.94815" lon="4.66927">
        <ele>283</ele>
        <time>2016-11-12T12:21:57Z</time>
      </trkpt>
      <trkpt lat="45.94817" lon="4.66939">
        <ele>283</ele>
        <time>2016-11-12T12:22:01Z</time>
      </trkpt>
      <trkpt lat="45.94817" lon="4.66942">
        <ele>283</ele>
        <time>2016-11-12T12:22:02Z</time>
      </trkpt>
      <trkpt lat="45.94818" lon="4.66952">
        <ele>284</ele>
        <time>2016-11-12T12:22:05Z</time>
      </trkpt>
      <trkpt lat="45.94818" lon="4.66956">
        <ele>284</ele>
        <time>2016-11-12T12:22:06Z</time>
      </trkpt>
      <trkpt lat="45.94819" lon="4.66966">
        <ele>285</ele>
        <time>2016-11-12T12:22:09Z</time>
      </trkpt>
      <trkpt lat="45.9482" lon="4.66969">
        <ele>285</ele>
        <time>2016-11-12T12:22:10Z</time>
      </trkpt>
      <trkpt lat="45.94822" lon="4.66982">
        <ele>285</ele>
        <time>2016-11-12T12:22:14Z</time>
      </trkpt>
      <trkpt lat="45.94822" lon="4.66985">
        <ele>285</ele>
        <time>2016-11-12T12:22:15Z</time>
      </trkpt>
      <trkpt lat="45.94823" lon="4.66995">
        <ele>286</ele>
        <time>2016-11-12T12:22:18Z</time>
      </trkpt>
      <trkpt lat="45.94823" lon="4.66998">
        <ele>286</ele>
        <time>2016-11-12T12:22:19Z</time>
      </trkpt>
      <trkpt lat="45.94824" lon="4.67008">
        <ele>288</ele>
        <time>2016-11-12T12:22:22Z</time>
      </trkpt>
      <trkpt lat="45.94824" lon="4.67011">
        <ele>288</ele>
        <time>2016-11-12T12:22:23Z</time>
      </trkpt>
      <trkpt lat="45.94827" lon="4.67023">
        <ele>288</ele>
        <time>2016-11-12T12:22:27Z</time>
      </trkpt>
      <trkpt lat="45.94827" lon="4.67026">
        <ele>288</ele>
        <time>2016-11-12T12:22:28Z</time>
      </trkpt>
      <trkpt lat="45.94829" lon="4.67039">
        <ele>289</ele>
        <time>2016-11-12T12:22:32Z</time>
      </trkpt>
      <trkpt lat="45.94829" lon="4.67042">
        <ele>289</ele>
        <time>2016-11-12T12:22:33Z</time>
      </trkpt>
      <trkpt lat="45.94831" lon="4.67052">
        <ele>289</ele>
        <time>2016-11-12T12:22:36Z</time>
      </trkpt>
      <trkpt lat="45.94831" lon="4.67055">
        <ele>289</ele>
        <time>2016-11-12T12:22:37Z</time>
      </trkpt>
      <trkpt lat="45.94833" lon="4.67065">
        <ele>290</ele>
        <time>2016-11-12T12:22:40Z</time>
      </trkpt>
      <trkpt lat="45.94833" lon="4.67069">
        <ele>290</ele>
        <time>2016-11-12T12:22:41Z</time>
      </trkpt>
      <trkpt lat="45.94833" lon="4.6708">
        <ele>291</ele>
        <time>2016-11-12T12:22:44Z</time>
      </trkpt>
      <trkpt lat="45.94833" lon="4.67083">
        <ele>291</ele>
        <time>2016-11-12T12:22:45Z</time>
      </trkpt>
      <trkpt lat="45.94833" lon="4.67093">
        <ele>291</ele>
        <time>2016-11-12T12:22:48Z</time>
      </trkpt>
      <trkpt lat="45.94832" lon="4.67096">
        <ele>291</ele>
        <time>2016-11-12T12:22:49Z</time>
      </trkpt>
      <trkpt lat="45.94829" lon="4.67106">
        <ele>292</ele>
        <time>2016-11-12T12:22:52Z</time>
      </trkpt>
      <trkpt lat="45.94828" lon="4.67108">
        <ele>292</ele>
        <time>2016-11-12T12:22:53Z</time>
      </trkpt>
      <trkpt lat="45.94825" lon="4.67117">
        <ele>292</ele>
        <time>2016-11-12T12:22:56Z</time>
      </trkpt>
      <trkpt lat="45.94824" lon="4.67121">
        <ele>292</ele>
        <time>2016-11-12T12:22:57Z</time>
      </trkpt>
      <trkpt lat="45.94822" lon="4.67131">
        <ele>292</ele>
        <time>2016-11-12T12:23:00Z</time>
      </trkpt>
      <trkpt lat="45.94821" lon="4.67134">
        <ele>292</ele>
        <time>2016-11-12T12:23:01Z</time>
      </trkpt>
      <trkpt lat="45.94818" lon="4.67145">
        <ele>292</ele>
        <time>2016-11-12T12:23:04Z</time>
      </trkpt>
      <trkpt lat="45.94817" lon="4.67149">
        <ele>292</ele>
        <time>2016-11-12T12:23:05Z</time>
      </trkpt>
      <trkpt lat="45.94815" lon="4.67157">
        <ele>292</ele>
        <time>2016-11-12T12:23:07Z</time>
      </trkpt>
      <trkpt lat="45.94814" lon="4.67162">
        <ele>292</ele>
        <time>2016-11-12T12:23:08Z</time>
      </trkpt>
      <trkpt lat="45.94811" lon="4.67171">
        <ele>292</ele>
        <time>2016-11-12T12:23:10Z</time>
      </trkpt>
      <trkpt lat="45.9481" lon="4.67175">
        <ele>292</ele>
        <time>2016-11-12T12:23:11Z</time>
      </trkpt>
      <trkpt lat="45.94807" lon="4.67183">
        <ele>292</ele>
        <time>2016-11-12T12:23:13Z</time>
      </trkpt>
      <trkpt lat="45.94805" lon="4.67186">
        <ele>292</ele>
        <time>2016-11-12T12:23:14Z</time>
      </trkpt>
      <trkpt lat="45.94803" lon="4.67194">
        <ele>292</ele>
        <time>2016-11-12T12:23:16Z</time>
      </trkpt>
      <trkpt lat="45.94801" lon="4.67199">
        <ele>292</ele>
        <time>2016-11-12T12:23:17Z</time>
      </trkpt>
      <trkpt lat="45.94799" lon="4.67208">
        <ele>292</ele>
        <time>2016-11-12T12:23:19Z</time>
      </trkpt>
      <trkpt lat="45.94799" lon="4.67212">
        <ele>292</ele>
        <time>2016-11-12T12:23:20Z</time>
      </trkpt>
      <trkpt lat="45.94797" lon="4.67221">
        <ele>292</ele>
        <time>2016-11-12T12:23:22Z</time>
      </trkpt>
      <trkpt lat="45.94794" lon="4.67225">
        <ele>292</ele>
        <time>2016-11-12T12:23:23Z</time>
      </trkpt>
      <trkpt lat="45.94791" lon="4.67234">
        <ele>292</ele>
        <time>2016-11-12T12:23:25Z</time>
      </trkpt>
      <trkpt lat="45.9479" lon="4.67239">
        <ele>292</ele>
        <time>2016-11-12T12:23:26Z</time>
      </trkpt>
      <trkpt lat="45.94787" lon="4.67249">
        <ele>292</ele>
        <time>2016-11-12T12:23:28Z</time>
      </trkpt>
      <trkpt lat="45.94785" lon="4.67255">
        <ele>290</ele>
        <time>2016-11-12T12:23:29Z</time>
      </trkpt>
      <trkpt lat="45.94782" lon="4.67267">
        <ele>290</ele>
        <time>2016-11-12T12:23:31Z</time>
      </trkpt>
      <trkpt lat="45.9478" lon="4.67272">
        <ele>290</ele>
        <time>2016-11-12T12:23:32Z</time>
      </trkpt>
      <trkpt lat="45.94777" lon="4.67282">
        <ele>290</ele>
        <time>2016-11-12T12:23:34Z</time>
      </trkpt>
      <trkpt lat="45.94776" lon="4.67287">
        <ele>290</ele>
        <time>2016-11-12T12:23:35Z</time>
      </trkpt>
      <trkpt lat="45.94771" lon="4.67294">
        <ele>290</ele>
        <time>2016-11-12T12:23:37Z</time>
      </trkpt>
      <trkpt lat="45.94767" lon="4.67296">
        <ele>289</ele>
        <time>2016-11-12T12:23:38Z</time>
      </trkpt>
      <trkpt lat="45.94761" lon="4.67298">
        <ele>289</ele>
        <time>2016-11-12T12:23:40Z</time>
      </trkpt>
      <trkpt lat="45.94757" lon="4.673">
        <ele>289</ele>
        <time>2016-11-12T12:23:41Z</time>
      </trkpt>
      <trkpt lat="45.9475" lon="4.67303">
        <ele>289</ele>
        <time>2016-11-12T12:23:43Z</time>
      </trkpt>
      <trkpt lat="45.94746" lon="4.67305">
        <ele>289</ele>
        <time>2016-11-12T12:23:44Z</time>
      </trkpt>
      <trkpt lat="45.9474" lon="4.67312">
        <ele>289</ele>
        <time>2016-11-12T12:23:46Z</time>
      </trkpt>
      <trkpt lat="45.94737" lon="4.67317">
        <ele>289</ele>
        <time>2016-11-12T12:23:47Z</time>
      </trkpt>
      <trkpt lat="45.94733" lon="4.67327">
        <ele>289</ele>
        <time>2016-11-12T12:23:49Z</time>
      </trkpt>
      <trkpt lat="45.94731" lon="4.67333">
        <ele>289</ele>
        <time>2016-11-12T12:23:50Z</time>
      </trkpt>
      <trkpt lat="45.94729" lon="4.6734">
        <ele>288</ele>
        <time>2016-11-12T12:23:51Z</time>
      </trkpt>
      <trkpt lat="45.94727" lon="4.67347">
        <ele>288</ele>
        <time>2016-11-12T12:23:52Z</time>
      </trkpt>
      <trkpt lat="45.94725" lon="4.67354">
        <ele>287</ele>
        <time>2016-11-12T12:23:53Z</time>
      </trkpt>
      <trkpt lat="45.94723" lon="4.67361">
        <ele>287</ele>
        <time>2016-11-12T12:23:54Z</time>
      </trkpt>
      <trkpt lat="45.94722" lon="4.6737">
        <ele>287</ele>
        <time>2016-11-12T12:23:55Z</time>
      </trkpt>
      <trkpt lat="45.9472" lon="4.67378">
        <ele>287</ele>
        <time>2016-11-12T12:23:56Z</time>
      </trkpt>
      <trkpt lat="45.94719" lon="4.67388">
        <ele>287</ele>
        <time>2016-11-12T12:23:57Z</time>
      </trkpt>
      <trkpt lat="45.94718" lon="4.67397">
        <ele>287</ele>
        <time>2016-11-12T12:23:58Z</time>
      </trkpt>
      <trkpt lat="45.94717" lon="4.67408">
        <ele>286</ele>
        <time>2016-11-12T12:23:59Z</time>
      </trkpt>
      <trkpt lat="45.94716" lon="4.67418">
        <ele>284</ele>
        <time>2016-11-12T12:24:00Z</time>
      </trkpt>
      <trkpt lat="45.94714" lon="4.67429">
        <ele>284</ele>
        <time>2016-11-12T12:24:01Z</time>
      </trkpt>
      <trkpt lat="45.94712" lon="4.67441">
        <ele>283</ele>
        <time>2016-11-12T12:24:02Z</time>
      </trkpt>
      <trkpt lat="45.94711" lon="4.67452">
        <ele>283</ele>
        <time>2016-11-12T12:24:03Z</time>
      </trkpt>
      <trkpt lat="45.94709" lon="4.67464">
        <ele>283</ele>
        <time>2016-11-12T12:24:04Z</time>
      </trkpt>
      <trkpt lat="45.94707" lon="4.67476">
        <ele>282</ele>
        <time>2016-11-12T12:24:05Z</time>
      </trkpt>
      <trkpt lat="45.94704" lon="4.67489">
        <ele>282</ele>
        <time>2016-11-12T12:24:06Z</time>
      </trkpt>
      <trkpt lat="45.94701" lon="4.675">
        <ele>280</ele>
        <time>2016-11-12T12:24:07Z</time>
      </trkpt>
      <trkpt lat="45.94696" lon="4.67511">
        <ele>280</ele>
        <time>2016-11-12T12:24:08Z</time>
      </trkpt>
      <trkpt lat="45.94692" lon="4.67521">
        <ele>280</ele>
        <time>2016-11-12T12:24:09Z</time>
      </trkpt>
      <trkpt lat="45.94686" lon="4.67529">
        <ele>279</ele>
        <time>2016-11-12T12:24:10Z</time>
      </trkpt>
      <trkpt lat="45.9468" lon="4.67536">
        <ele>279</ele>
        <time>2016-11-12T12:24:11Z</time>
      </trkpt>
      <trkpt lat="45.94672" lon="4.67542">
        <ele>279</ele>
        <time>2016-11-12T12:24:12Z</time>
      </trkpt>
      <trkpt lat="45.94665" lon="4.67548">
        <ele>279</ele>
        <time>2016-11-12T12:24:13Z</time>
      </trkpt>
      <trkpt lat="45.94658" lon="4.67555">
        <ele>278</ele>
        <time>2016-11-12T12:24:14Z</time>
      </trkpt>
      <trkpt lat="45.94651" lon="4.67562">
        <ele>278</ele>
        <time>2016-11-12T12:24:15Z</time>
      </trkpt>
      <trkpt lat="45.94644" lon="4.6757">
        <ele>278</ele>
        <time>2016-11-12T12:24:16Z</time>
      </trkpt>
      <trkpt lat="45.94636" lon="4.67577">
        <ele>279</ele>
        <time>2016-11-12T12:24:17Z</time>
      </trkpt>
      <trkpt lat="45.94629" lon="4.67585">
        <ele>277</ele>
        <time>2016-11-12T12:24:18Z</time>
      </trkpt>
      <trkpt lat="45.94622" lon="4.67593">
        <ele>277</ele>
        <time>2016-11-12T12:24:19Z</time>
      </trkpt>
      <trkpt lat="45.94616" lon="4.67601">
        <ele>278</ele>
        <time>2016-11-12T12:24:20Z</time>
      </trkpt>
      <trkpt lat="45.94609" lon="4.6761">
        <ele>278</ele>
        <time>2016-11-12T12:24:21Z</time>
      </trkpt>
      <trkpt lat="45.94604" lon="4.67618">
        <ele>278</ele>
        <time>2016-11-12T12:24:22Z</time>
      </trkpt>
      <trkpt lat="45.94598" lon="4.67627">
        <ele>277</ele>
        <time>2016-11-12T12:24:23Z</time>
      </trkpt>
      <trkpt lat="45.94592" lon="4.67635">
        <ele>277</ele>
        <time>2016-11-12T12:24:24Z</time>
      </trkpt>
      <trkpt lat="45.94588" lon="4.67643">
        <ele>277</ele>
        <time>2016-11-12T12:24:25Z</time>
      </trkpt>
      <trkpt lat="45.94582" lon="4.67651">
        <ele>277</ele>
        <time>2016-11-12T12:24:26Z</time>
      </trkpt>
      <trkpt lat="45.94576" lon="4.67659">
        <ele>277</ele>
        <time>2016-11-12T12:24:27Z</time>
      </trkpt>
      <trkpt lat="45.94569" lon="4.67667">
        <ele>274</ele>
        <time>2016-11-12T12:24:28Z</time>
      </trkpt>
      <trkpt lat="45.94562" lon="4.67675">
        <ele>273</ele>
        <time>2016-11-12T12:24:29Z</time>
      </trkpt>
      <trkpt lat="45.94554" lon="4.67682">
        <ele>273</ele>
        <time>2016-11-12T12:24:30Z</time>
      </trkpt>
      <trkpt lat="45.94546" lon="4.67687">
        <ele>272</ele>
        <time>2016-11-12T12:24:31Z</time>
      </trkpt>
      <trkpt lat="45.94537" lon="4.67691">
        <ele>272</ele>
        <time>2016-11-12T12:24:32Z</time>
      </trkpt>
      <trkpt lat="45.94528" lon="4.67694">
        <ele>271</ele>
        <time>2016-11-12T12:24:33Z</time>
      </trkpt>
      <trkpt lat="45.94519" lon="4.67697">
        <ele>271</ele>
        <time>2016-11-12T12:24:34Z</time>
      </trkpt>
      <trkpt lat="45.9451" lon="4.677">
        <ele>271</ele>
        <time>2016-11-12T12:24:35Z</time>
      </trkpt>
      <trkpt lat="45.94501" lon="4.67704">
        <ele>270</ele>
        <time>2016-11-12T12:24:36Z</time>
      </trkpt>
      <trkpt lat="45.94494" lon="4.67709">
        <ele>270</ele>
        <time>2016-11-12T12:24:37Z</time>
      </trkpt>
      <trkpt lat="45.94487" lon="4.67717">
        <ele>269</ele>
        <time>2016-11-12T12:24:38Z</time>
      </trkpt>
      <trkpt lat="45.94482" lon="4.67726">
        <ele>269</ele>
        <time>2016-11-12T12:24:39Z</time>
      </trkpt>
      <trkpt lat="45.94478" lon="4.67735">
        <ele>269</ele>
        <time>2016-11-12T12:24:40Z</time>
      </trkpt>
      <trkpt lat="45.94476" lon="4.67745">
        <ele>269</ele>
        <time>2016-11-12T12:24:41Z</time>
      </trkpt>
      <trkpt lat="45.94474" lon="4.67755">
        <ele>267</ele>
        <time>2016-11-12T12:24:42Z</time>
      </trkpt>
      <trkpt lat="45.94471" lon="4.67763">
        <ele>267</ele>
        <time>2016-11-12T12:24:43Z</time>
      </trkpt>
      <trkpt lat="45.94467" lon="4.6777">
        <ele>267</ele>
        <time>2016-11-12T12:24:44Z</time>
      </trkpt>
      <trkpt lat="45.94463" lon="4.67777">
        <ele>267</ele>
        <time>2016-11-12T12:24:45Z</time>
      </trkpt>
      <trkpt lat="45.94458" lon="4.67783">
        <ele>266</ele>
        <time>2016-11-12T12:24:46Z</time>
      </trkpt>
      <trkpt lat="45.94453" lon="4.67788">
        <ele>266</ele>
        <time>2016-11-12T12:24:47Z</time>
      </trkpt>
      <trkpt lat="45.94447" lon="4.67794">
        <ele>266</ele>
        <time>2016-11-12T12:24:48Z</time>
      </trkpt>
      <trkpt lat="45.94442" lon="4.678">
        <ele>266</ele>
        <time>2016-11-12T12:24:49Z</time>
      </trkpt>
      <trkpt lat="45.94436" lon="4.67806">
        <ele>266</ele>
        <time>2016-11-12T12:24:50Z</time>
      </trkpt>
      <trkpt lat="45.9443" lon="4.67813">
        <ele>266</ele>
        <time>2016-11-12T12:24:51Z</time>
      </trkpt>
      <trkpt lat="45.94423" lon="4.6782">
        <ele>266</ele>
        <time>2016-11-12T12:24:52Z</time>
      </trkpt>
      <trkpt lat="45.94417" lon="4.67827">
        <ele>266</ele>
        <time>2016-11-12T12:24:53Z</time>
      </trkpt>
      <trkpt lat="45.94411" lon="4.67836">
        <ele>265</ele>
        <time>2016-11-12T12:24:54Z</time>
      </trkpt>
      <trkpt lat="45.94406" lon="4.67847">
        <ele>266</ele>
        <time>2016-11-12T12:24:55Z</time>
      </trkpt>
      <trkpt lat="45.94402" lon="4.67857">
        <ele>266</ele>
        <time>2016-11-12T12:24:56Z</time>
      </trkpt>
      <trkpt lat="45.94399" lon="4.67867">
        <ele>266</ele>
        <time>2016-11-12T12:24:57Z</time>
      </trkpt>
      <trkpt lat="45.94395" lon="4.67876">
        <ele>266</ele>
        <time>2016-11-12T12:24:58Z</time>
      </trkpt>
      <trkpt lat="45.94392" lon="4.67884">
        <ele>266</ele>
        <time>2016-11-12T12:24:59Z</time>
      </trkpt>
      <trkpt lat="45.94388" lon="4.67891">
        <ele>266</ele>
        <time>2016-11-12T12:25:00Z</time>
      </trkpt>
      <trkpt lat="45.94385" lon="4.67898">
        <ele>266</ele>
        <time>2016-11-12T12:25:01Z</time>
      </trkpt>
      <trkpt lat="45.94382" lon="4.67904">
        <ele>266</ele>
        <time>2016-11-12T12:25:02Z</time>
      </trkpt>
      <trkpt lat="45.9438" lon="4.6791">
        <ele>266</ele>
        <time>2016-11-12T12:25:03Z</time>
      </trkpt>
      <trkpt lat="45.94376" lon="4.6792">
        <ele>267</ele>
        <time>2016-11-12T12:25:05Z</time>
      </trkpt>
      <trkpt lat="45.94375" lon="4.67925">
        <ele>267</ele>
        <time>2016-11-12T12:25:06Z</time>
      </trkpt>
      <trkpt lat="45.94373" lon="4.67934">
        <ele>268</ele>
        <time>2016-11-12T12:25:08Z</time>
      </trkpt>
      <trkpt lat="45.94373" lon="4.67939">
        <ele>268</ele>
        <time>2016-11-12T12:25:09Z</time>
      </trkpt>
      <trkpt lat="45.94371" lon="4.6795">
        <ele>268</ele>
        <time>2016-11-12T12:25:12Z</time>
      </trkpt>
      <trkpt lat="45.9437" lon="4.67954">
        <ele>268</ele>
        <time>2016-11-12T12:25:13Z</time>
      </trkpt>
      <trkpt lat="45.94368" lon="4.67964">
        <ele>269</ele>
        <time>2016-11-12T12:25:16Z</time>
      </trkpt>
      <trkpt lat="45.94367" lon="4.67967">
        <ele>269</ele>
        <time>2016-11-12T12:25:17Z</time>
      </trkpt>
      <trkpt lat="45.94366" lon="4.67978">
        <ele>269</ele>
        <time>2016-11-12T12:25:21Z</time>
      </trkpt>
      <trkpt lat="45.94365" lon="4.6798">
        <ele>269</ele>
        <time>2016-11-12T12:25:22Z</time>
      </trkpt>
      <trkpt lat="45.94363" lon="4.67991">
        <ele>270</ele>
        <time>2016-11-12T12:25:26Z</time>
      </trkpt>
      <trkpt lat="45.94362" lon="4.67993">
        <ele>270</ele>
        <time>2016-11-12T12:25:27Z</time>
      </trkpt>
      <trkpt lat="45.9436" lon="4.68004">
        <ele>274</ele>
        <time>2016-11-12T12:25:31Z</time>
      </trkpt>
      <trkpt lat="45.94359" lon="4.68007">
        <ele>274</ele>
        <time>2016-11-12T12:25:32Z</time>
      </trkpt>
      <trkpt lat="45.94355" lon="4.68017">
        <ele>274</ele>
        <time>2016-11-12T12:25:37Z</time>
      </trkpt>
      <trkpt lat="45.94354" lon="4.68018">
        <ele>274</ele>
        <time>2016-11-12T12:25:38Z</time>
      </trkpt>
      <trkpt lat="45.94351" lon="4.68029">
        <ele>274</ele>
        <time>2016-11-12T12:25:43Z</time>
      </trkpt>
      <trkpt lat="45.9435" lon="4.68031">
        <ele>275</ele>
        <time>2016-11-12T12:25:44Z</time>
      </trkpt>
      <trkpt lat="45.94347" lon="4.68042">
        <ele>275</ele>
        <time>2016-11-12T12:25:49Z</time>
      </trkpt>
      <trkpt lat="45.94346" lon="4.68043">
        <ele>275</ele>
        <time>2016-11-12T12:25:50Z</time>
      </trkpt>
      <trkpt lat="45.94341" lon="4.68052">
        <ele>275</ele>
        <time>2016-11-12T12:25:55Z</time>
      </trkpt>
      <trkpt lat="45.9434" lon="4.68054">
        <ele>276</ele>
        <time>2016-11-12T12:25:56Z</time>
      </trkpt>
      <trkpt lat="45.94335" lon="4.68064">
        <ele>276</ele>
        <time>2016-11-12T12:26:02Z</time>
      </trkpt>
      <trkpt lat="45.94334" lon="4.68066">
        <ele>276</ele>
        <time>2016-11-12T12:26:03Z</time>
      </trkpt>
      <trkpt lat="45.94332" lon="4.68078">
        <ele>277</ele>
        <time>2016-11-12T12:26:09Z</time>
      </trkpt>
      <trkpt lat="45.94332" lon="4.6808">
        <ele>277</ele>
        <time>2016-11-12T12:26:10Z</time>
      </trkpt>
      <trkpt lat="45.94329" lon="4.68091">
        <ele>279</ele>
        <time>2016-11-12T12:26:16Z</time>
      </trkpt>
      <trkpt lat="45.94329" lon="4.68092">
        <ele>279</ele>
        <time>2016-11-12T12:26:17Z</time>
      </trkpt>
      <trkpt lat="45.94325" lon="4.68103">
        <ele>281</ele>
        <time>2016-11-12T12:26:24Z</time>
      </trkpt>
      <trkpt lat="45.94324" lon="4.68105">
        <ele>281</ele>
        <time>2016-11-12T12:26:25Z</time>
      </trkpt>
      <trkpt lat="45.94322" lon="4.68117">
        <ele>282</ele>
        <time>2016-11-12T12:26:32Z</time>
      </trkpt>
      <trkpt lat="45.94322" lon="4.68119">
        <ele>282</ele>
        <time>2016-11-12T12:26:33Z</time>
      </trkpt>
      <trkpt lat="45.94321" lon="4.6813">
        <ele>283</ele>
        <time>2016-11-12T12:26:40Z</time>
      </trkpt>
      <trkpt lat="45.94321" lon="4.68132">
        <ele>283</ele>
        <time>2016-11-12T12:26:41Z</time>
      </trkpt>
      <trkpt lat="45.94321" lon="4.68145">
        <ele>284</ele>
        <time>2016-11-12T12:26:47Z</time>
      </trkpt>
      <trkpt lat="45.94321" lon="4.68147">
        <ele>284</ele>
        <time>2016-11-12T12:26:48Z</time>
      </trkpt>
      <trkpt lat="45.94322" lon="4.68159">
        <ele>284</ele>
        <time>2016-11-12T12:26:54Z</time>
      </trkpt>
      <trkpt lat="45.94322" lon="4.68162">
        <ele>284</ele>
        <time>2016-11-12T12:26:55Z</time>
      </trkpt>
      <trkpt lat="45.94322" lon="4.68174">
        <ele>287</ele>
        <time>2016-11-12T12:27:01Z</time>
      </trkpt>
      <trkpt lat="45.94322" lon="4.68176">
        <ele>287</ele>
        <time>2016-11-12T12:27:02Z</time>
      </trkpt>
      <trkpt lat="45.94321" lon="4.68188">
        <ele>288</ele>
        <time>2016-11-12T12:27:08Z</time>
      </trkpt>
      <trkpt lat="45.94321" lon="4.6819">
        <ele>289</ele>
        <time>2016-11-12T12:27:09Z</time>
      </trkpt>
      <trkpt lat="45.94323" lon="4.68201">
        <ele>289</ele>
        <time>2016-11-12T12:27:14Z</time>
      </trkpt>
      <trkpt lat="45.94324" lon="4.68202">
        <ele>289</ele>
        <time>2016-11-12T12:27:15Z</time>
      </trkpt>
      <trkpt lat="45.94326" lon="4.68214">
        <ele>290</ele>
        <time>2016-11-12T12:27:20Z</time>
      </trkpt>
      <trkpt lat="45.94326" lon="4.68217">
        <ele>290</ele>
        <time>2016-11-12T12:27:21Z</time>
      </trkpt>
      <trkpt lat="45.94329" lon="4.68228">
        <ele>291</ele>
        <time>2016-11-12T12:27:26Z</time>
      </trkpt>
      <trkpt lat="45.9433" lon="4.68231">
        <ele>291</ele>
        <time>2016-11-12T12:27:27Z</time>
      </trkpt>
      <trkpt lat="45.94332" lon="4.68243">
        <ele>292</ele>
        <time>2016-11-12T12:27:31Z</time>
      </trkpt>
      <trkpt lat="45.94332" lon="4.68246">
        <ele>292</ele>
        <time>2016-11-12T12:27:32Z</time>
      </trkpt>
      <trkpt lat="45.94332" lon="4.68257">
        <ele>293</ele>
        <time>2016-11-12T12:27:36Z</time>
      </trkpt>
      <trkpt lat="45.94331" lon="4.6826">
        <ele>293</ele>
        <time>2016-11-12T12:27:37Z</time>
      </trkpt>
      <trkpt lat="45.94331" lon="4.68272">
        <ele>294</ele>
        <time>2016-11-12T12:27:41Z</time>
      </trkpt>
      <trkpt lat="45.94331" lon="4.68274">
        <ele>294</ele>
        <time>2016-11-12T12:27:42Z</time>
      </trkpt>
      <trkpt lat="45.94332" lon="4.68285">
        <ele>295</ele>
        <time>2016-11-12T12:27:46Z</time>
      </trkpt>
      <trkpt lat="45.94332" lon="4.68288">
        <ele>295</ele>
        <time>2016-11-12T12:27:47Z</time>
      </trkpt>
      <trkpt lat="45.94333" lon="4.68299">
        <ele>295</ele>
        <time>2016-11-12T12:27:51Z</time>
      </trkpt>
      <trkpt lat="45.94333" lon="4.68302">
        <ele>296</ele>
        <time>2016-11-12T12:27:52Z</time>
      </trkpt>
      <trkpt lat="45.94333" lon="4.68313">
        <ele>296</ele>
        <time>2016-11-12T12:27:56Z</time>
      </trkpt>
      <trkpt lat="45.94333" lon="4.68316">
        <ele>296</ele>
        <time>2016-11-12T12:27:57Z</time>
      </trkpt>
      <trkpt lat="45.94335" lon="4.68326">
        <ele>296</ele>
        <time>2016-11-12T12:28:01Z</time>
      </trkpt>
      <trkpt lat="45.94336" lon="4.68329">
        <ele>296</ele>
        <time>2016-11-12T12:28:02Z</time>
      </trkpt>
      <trkpt lat="45.94337" lon="4.6834">
        <ele>296</ele>
        <time>2016-11-12T12:28:06Z</time>
      </trkpt>
      <trkpt lat="45.94337" lon="4.68342">
        <ele>297</ele>
        <time>2016-11-12T12:28:07Z</time>
      </trkpt>
      <trkpt lat="45.94341" lon="4.68352">
        <ele>297</ele>
        <time>2016-11-12T12:28:11Z</time>
      </trkpt>
      <trkpt lat="45.94341" lon="4.68355">
        <ele>297</ele>
        <time>2016-11-12T12:28:12Z</time>
      </trkpt>
      <trkpt lat="45.94343" lon="4.68366">
        <ele>298</ele>
        <time>2016-11-12T12:28:16Z</time>
      </trkpt>
      <trkpt lat="45.94342" lon="4.68369">
        <ele>298</ele>
        <time>2016-11-12T12:28:17Z</time>
      </trkpt>
      <trkpt lat="45.94344" lon="4.68379">
        <ele>298</ele>
        <time>2016-11-12T12:28:21Z</time>
      </trkpt>
      <trkpt lat="45.94345" lon="4.68382">
        <ele>298</ele>
        <time>2016-11-12T12:28:22Z</time>
      </trkpt>
      <trkpt lat="45.94347" lon="4.68392">
        <ele>298</ele>
        <time>2016-11-12T12:28:25Z</time>
      </trkpt>
      <trkpt lat="45.94347" lon="4.68395">
        <ele>298</ele>
        <time>2016-11-12T12:28:26Z</time>
      </trkpt>
      <trkpt lat="45.9435" lon="4.68407">
        <ele>299</ele>
        <time>2016-11-12T12:28:30Z</time>
      </trkpt>
      <trkpt lat="45.94351" lon="4.68409">
        <ele>299</ele>
        <time>2016-11-12T12:28:31Z</time>
      </trkpt>
      <trkpt lat="45.94354" lon="4.6842">
        <ele>301</ele>
        <time>2016-11-12T12:28:35Z</time>
      </trkpt>
      <trkpt lat="45.94355" lon="4.68422">
        <ele>301</ele>
        <time>2016-11-12T12:28:36Z</time>
      </trkpt>
      <trkpt lat="45.94357" lon="4.68433">
        <ele>301</ele>
        <time>2016-11-12T12:28:40Z</time>
      </trkpt>
      <trkpt lat="45.94358" lon="4.68436">
        <ele>301</ele>
        <time>2016-11-12T12:28:41Z</time>
      </trkpt>
      <trkpt lat="45.9436" lon="4.68446">
        <ele>301</ele>
        <time>2016-11-12T12:28:45Z</time>
      </trkpt>
      <trkpt lat="45.9436" lon="4.68449">
        <ele>301</ele>
        <time>2016-11-12T12:28:46Z</time>
      </trkpt>
      <trkpt lat="45.94362" lon="4.6846">
        <ele>301</ele>
        <time>2016-11-12T12:28:50Z</time>
      </trkpt>
      <trkpt lat="45.94362" lon="4.68462">
        <ele>301</ele>
        <time>2016-11-12T12:28:51Z</time>
      </trkpt>
      <trkpt lat="45.94365" lon="4.68473">
        <ele>301</ele>
        <time>2016-11-12T12:28:55Z</time>
      </trkpt>
      <trkpt lat="45.94365" lon="4.68476">
        <ele>302</ele>
        <time>2016-11-12T12:28:56Z</time>
      </trkpt>
      <trkpt lat="45.94368" lon="4.68486">
        <ele>302</ele>
        <time>2016-11-12T12:29:00Z</time>
      </trkpt>
      <trkpt lat="45.94369" lon="4.68488">
        <ele>302</ele>
        <time>2016-11-12T12:29:01Z</time>
      </trkpt>
      <trkpt lat="45.9437" lon="4.68499">
        <ele>302</ele>
        <time>2016-11-12T12:29:05Z</time>
      </trkpt>
      <trkpt lat="45.94371" lon="4.68502">
        <ele>305</ele>
        <time>2016-11-12T12:29:06Z</time>
      </trkpt>
      <trkpt lat="45.94373" lon="4.68513">
        <ele>305</ele>
        <time>2016-11-12T12:29:10Z</time>
      </trkpt>
      <trkpt lat="45.94374" lon="4.68515">
        <ele>305</ele>
        <time>2016-11-12T12:29:11Z</time>
      </trkpt>
      <trkpt lat="45.94379" lon="4.68524">
        <ele>306</ele>
        <time>2016-11-12T12:29:15Z</time>
      </trkpt>
      <trkpt lat="45.9438" lon="4.68526">
        <ele>306</ele>
        <time>2016-11-12T12:29:16Z</time>
      </trkpt>
      <trkpt lat="45.94385" lon="4.68536">
        <ele>306</ele>
        <time>2016-11-12T12:29:21Z</time>
      </trkpt>
      <trkpt lat="45.94386" lon="4.68538">
        <ele>306</ele>
        <time>2016-11-12T12:29:22Z</time>
      </trkpt>
      <trkpt lat="45.9439" lon="4.68549">
        <ele>307</ele>
        <time>2016-11-12T12:29:27Z</time>
      </trkpt>
      <trkpt lat="45.94391" lon="4.68551">
        <ele>307</ele>
        <time>2016-11-12T12:29:28Z</time>
      </trkpt>
      <trkpt lat="45.94395" lon="4.68561">
        <ele>307</ele>
        <time>2016-11-12T12:29:33Z</time>
      </trkpt>
      <trkpt lat="45.94395" lon="4.68563">
        <ele>307</ele>
        <time>2016-11-12T12:29:34Z</time>
      </trkpt>
      <trkpt lat="45.944" lon="4.68572">
        <ele>308</ele>
        <time>2016-11-12T12:29:39Z</time>
      </trkpt>
      <trkpt lat="45.94401" lon="4.68574">
        <ele>308</ele>
        <time>2016-11-12T12:29:40Z</time>
      </trkpt>
      <trkpt lat="45.94403" lon="4.68585">
        <ele>310</ele>
        <time>2016-11-12T12:29:45Z</time>
      </trkpt>
      <trkpt lat="45.94404" lon="4.68587">
        <ele>310</ele>
        <time>2016-11-12T12:29:46Z</time>
      </trkpt>
      <trkpt lat="45.94407" lon="4.68597">
        <ele>311</ele>
        <time>2016-11-12T12:29:51Z</time>
      </trkpt>
      <trkpt lat="45.94408" lon="4.68599">
        <ele>311</ele>
        <time>2016-11-12T12:29:52Z</time>
      </trkpt>
      <trkpt lat="45.94411" lon="4.68609">
        <ele>312</ele>
        <time>2016-11-12T12:29:58Z</time>
      </trkpt>
      <trkpt lat="45.94412" lon="4.68611">
        <ele>312</ele>
        <time>2016-11-12T12:29:59Z</time>
      </trkpt>
      <trkpt lat="45.94416" lon="4.68621">
        <ele>312</ele>
        <time>2016-11-12T12:30:05Z</time>
      </trkpt>
      <trkpt lat="45.94416" lon="4.68623">
        <ele>312</ele>
        <time>2016-11-12T12:30:06Z</time>
      </trkpt>
      <trkpt lat="45.9442" lon="4.68634">
        <ele>314</ele>
        <time>2016-11-12T12:30:12Z</time>
      </trkpt>
      <trkpt lat="45.94421" lon="4.68637">
        <ele>314</ele>
        <time>2016-11-12T12:30:13Z</time>
      </trkpt>
      <trkpt lat="45.94424" lon="4.68647">
        <ele>315</ele>
        <time>2016-11-12T12:30:18Z</time>
      </trkpt>
      <trkpt lat="45.94425" lon="4.68649">
        <ele>315</ele>
        <time>2016-11-12T12:30:19Z</time>
      </trkpt>
      <trkpt lat="45.94428" lon="4.6866">
        <ele>315</ele>
        <time>2016-11-12T12:30:25Z</time>
      </trkpt>
      <trkpt lat="45.94429" lon="4.68662">
        <ele>315</ele>
        <time>2016-11-12T12:30:26Z</time>
      </trkpt>
      <trkpt lat="45.9443" lon="4.68663">
        <ele>315</ele>
        <time>2016-11-12T12:30:27Z</time>
      </trkpt>
      <trkpt lat="45.94433" lon="4.68675">
        <ele>319</ele>
        <time>2016-11-12T12:30:34Z</time>
      </trkpt>
      <trkpt lat="45.94433" lon="4.68677">
        <ele>319</ele>
        <time>2016-11-12T12:30:35Z</time>
      </trkpt>
      <trkpt lat="45.94434" lon="4.68678">
        <ele>319</ele>
        <time>2016-11-12T12:30:36Z</time>
      </trkpt>
      <trkpt lat="45.94435" lon="4.6868">
        <ele>319</ele>
        <time>2016-11-12T12:30:37Z</time>
      </trkpt>
      <trkpt lat="45.94439" lon="4.6869">
        <ele>320</ele>
        <time>2016-11-12T12:30:43Z</time>
      </trkpt>
      <trkpt lat="45.9444" lon="4.68692">
        <ele>320</ele>
        <time>2016-11-12T12:30:44Z</time>
      </trkpt>
      <trkpt lat="45.94445" lon="4.687">
        <ele>320</ele>
        <time>2016-11-12T12:30:49Z</time>
      </trkpt>
      <trkpt lat="45.94447" lon="4.68701">
        <ele>321</ele>
        <time>2016-11-12T12:30:50Z</time>
      </trkpt>
      <trkpt lat="45.94454" lon="4.68707">
        <ele>321</ele>
        <time>2016-11-12T12:30:54Z</time>
      </trkpt>
      <trkpt lat="45.94456" lon="4.68708">
        <ele>321</ele>
        <time>2016-11-12T12:30:55Z</time>
      </trkpt>
      <trkpt lat="45.94463" lon="4.68715">
        <ele>321</ele>
        <time>2016-11-12T12:31:00Z</time>
      </trkpt>
      <trkpt lat="45.94465" lon="4.68716">
        <ele>321</ele>
        <time>2016-11-12T12:31:01Z</time>
      </trkpt>
      <trkpt lat="45.94472" lon="4.6872">
        <ele>322</ele>
        <time>2016-11-12T12:31:05Z</time>
      </trkpt>
      <trkpt lat="45.94474" lon="4.68721">
        <ele>322</ele>
        <time>2016-11-12T12:31:06Z</time>
      </trkpt>
      <trkpt lat="45.94479" lon="4.6873">
        <ele>322</ele>
        <time>2016-11-12T12:31:11Z</time>
      </trkpt>
      <trkpt lat="45.9448" lon="4.68732">
        <ele>322</ele>
        <time>2016-11-12T12:31:12Z</time>
      </trkpt>
      <trkpt lat="45.9448" lon="4.68743">
        <ele>322</ele>
        <time>2016-11-12T12:31:17Z</time>
      </trkpt>
      <trkpt lat="45.9448" lon="4.68745">
        <ele>322</ele>
        <time>2016-11-12T12:31:18Z</time>
      </trkpt>
      <trkpt lat="45.94477" lon="4.68757">
        <ele>325</ele>
        <time>2016-11-12T12:31:23Z</time>
      </trkpt>
      <trkpt lat="45.94477" lon="4.68759">
        <ele>325</ele>
        <time>2016-11-12T12:31:24Z</time>
      </trkpt>
      <trkpt lat="45.94475" lon="4.68771">
        <ele>326</ele>
        <time>2016-11-12T12:31:29Z</time>
      </trkpt>
      <trkpt lat="45.94475" lon="4.68773">
        <ele>326</ele>
        <time>2016-11-12T12:31:30Z</time>
      </trkpt>
      <trkpt lat="45.94473" lon="4.68784">
        <ele>326</ele>
        <time>2016-11-12T12:31:35Z</time>
      </trkpt>
      <trkpt lat="45.94473" lon="4.68786">
        <ele>326</ele>
        <time>2016-11-12T12:31:36Z</time>
      </trkpt>
      <trkpt lat="45.94469" lon="4.68797">
        <ele>327</ele>
        <time>2016-11-12T12:31:41Z</time>
      </trkpt>
      <trkpt lat="45.94469" lon="4.68799">
        <ele>327</ele>
        <time>2016-11-12T12:31:42Z</time>
      </trkpt>
      <trkpt lat="45.94465" lon="4.68809">
        <ele>327</ele>
        <time>2016-11-12T12:31:47Z</time>
      </trkpt>
      <trkpt lat="45.94465" lon="4.68812">
        <ele>327</ele>
        <time>2016-11-12T12:31:48Z</time>
      </trkpt>
      <trkpt lat="45.94462" lon="4.68822">
        <ele>327</ele>
        <time>2016-11-12T12:31:53Z</time>
      </trkpt>
      <trkpt lat="45.94462" lon="4.68824">
        <ele>327</ele>
        <time>2016-11-12T12:31:54Z</time>
      </trkpt>
      <trkpt lat="45.94459" lon="4.68835">
        <ele>331</ele>
        <time>2016-11-12T12:31:59Z</time>
      </trkpt>
      <trkpt lat="45.94459" lon="4.68837">
        <ele>331</ele>
        <time>2016-11-12T12:32:00Z</time>
      </trkpt>
      <trkpt lat="45.94457" lon="4.68849">
        <ele>331</ele>
        <time>2016-11-12T12:32:05Z</time>
      </trkpt>
      <trkpt lat="45.94456" lon="4.68851">
        <ele>331</ele>
        <time>2016-11-12T12:32:06Z</time>
      </trkpt>
      <trkpt lat="45.94453" lon="4.68861">
        <ele>331</ele>
        <time>2016-11-12T12:32:11Z</time>
      </trkpt>
      <trkpt lat="45.94453" lon="4.68864">
        <ele>331</ele>
        <time>2016-11-12T12:32:12Z</time>
      </trkpt>
      <trkpt lat="45.9445" lon="4.68875">
        <ele>332</ele>
        <time>2016-11-12T12:32:17Z</time>
      </trkpt>
      <trkpt lat="45.9445" lon="4.68877">
        <ele>332</ele>
        <time>2016-11-12T12:32:18Z</time>
      </trkpt>
      <trkpt lat="45.94448" lon="4.68889">
        <ele>332</ele>
        <time>2016-11-12T12:32:23Z</time>
      </trkpt>
      <trkpt lat="45.94447" lon="4.68891">
        <ele>332</ele>
        <time>2016-11-12T12:32:24Z</time>
      </trkpt>
      <trkpt lat="45.94445" lon="4.68902">
        <ele>333</ele>
        <time>2016-11-12T12:32:29Z</time>
      </trkpt>
      <trkpt lat="45.94445" lon="4.68904">
        <ele>333</ele>
        <time>2016-11-12T12:32:30Z</time>
      </trkpt>
      <trkpt lat="45.94443" lon="4.68916">
        <ele>333</ele>
        <time>2016-11-12T12:32:35Z</time>
      </trkpt>
      <trkpt lat="45.94442" lon="4.68918">
        <ele>336</ele>
        <time>2016-11-12T12:32:36Z</time>
      </trkpt>
      <trkpt lat="45.94441" lon="4.68929">
        <ele>336</ele>
        <time>2016-11-12T12:32:41Z</time>
      </trkpt>
      <trkpt lat="45.9444" lon="4.68931">
        <ele>336</ele>
        <time>2016-11-12T12:32:42Z</time>
      </trkpt>
      <trkpt lat="45.94438" lon="4.68943">
        <ele>336</ele>
        <time>2016-11-12T12:32:47Z</time>
      </trkpt>
      <trkpt lat="45.94438" lon="4.68945">
        <ele>337</ele>
        <time>2016-11-12T12:32:48Z</time>
      </trkpt>
      <trkpt lat="45.94434" lon="4.68954">
        <ele>337</ele>
        <time>2016-11-12T12:32:53Z</time>
      </trkpt>
      <trkpt lat="45.94433" lon="4.68956">
        <ele>337</ele>
        <time>2016-11-12T12:32:54Z</time>
      </trkpt>
      <trkpt lat="45.9443" lon="4.68968">
        <ele>337</ele>
        <time>2016-11-12T12:33:00Z</time>
      </trkpt>
      <trkpt lat="45.9443" lon="4.6897">
        <ele>338</ele>
        <time>2016-11-12T12:33:01Z</time>
      </trkpt>
      <trkpt lat="45.94426" lon="4.6898">
        <ele>338</ele>
        <time>2016-11-12T12:33:06Z</time>
      </trkpt>
      <trkpt lat="45.94425" lon="4.68983">
        <ele>338</ele>
        <time>2016-11-12T12:33:07Z</time>
      </trkpt>
      <trkpt lat="45.94422" lon="4.68995">
        <ele>339</ele>
        <time>2016-11-12T12:33:12Z</time>
      </trkpt>
      <trkpt lat="45.94421" lon="4.68997">
        <ele>339</ele>
        <time>2016-11-12T12:33:13Z</time>
      </trkpt>
      <trkpt lat="45.94416" lon="4.69007">
        <ele>339</ele>
        <time>2016-11-12T12:33:17Z</time>
      </trkpt>
      <trkpt lat="45.94416" lon="4.6901">
        <ele>339</ele>
        <time>2016-11-12T12:33:18Z</time>
      </trkpt>
      <trkpt lat="45.94414" lon="4.69022">
        <ele>339</ele>
        <time>2016-11-12T12:33:21Z</time>
      </trkpt>
      <trkpt lat="45.94414" lon="4.69026">
        <ele>339</ele>
        <time>2016-11-12T12:33:22Z</time>
      </trkpt>
      <trkpt lat="45.94415" lon="4.69034">
        <ele>339</ele>
        <time>2016-11-12T12:33:24Z</time>
      </trkpt>
      <trkpt lat="45.94416" lon="4.69038">
        <ele>339</ele>
        <time>2016-11-12T12:33:25Z</time>
      </trkpt>
      <trkpt lat="45.94418" lon="4.69048">
        <ele>340</ele>
        <time>2016-11-12T12:33:27Z</time>
      </trkpt>
      <trkpt lat="45.94418" lon="4.69052">
        <ele>340</ele>
        <time>2016-11-12T12:33:28Z</time>
      </trkpt>
      <trkpt lat="45.94421" lon="4.69063">
        <ele>340</ele>
        <time>2016-11-12T12:33:30Z</time>
      </trkpt>
      <trkpt lat="45.94421" lon="4.69069">
        <ele>340</ele>
        <time>2016-11-12T12:33:31Z</time>
      </trkpt>
      <trkpt lat="45.94422" lon="4.69078">
        <ele>340</ele>
        <time>2016-11-12T12:33:33Z</time>
      </trkpt>
      <trkpt lat="45.94423" lon="4.69083">
        <ele>340</ele>
        <time>2016-11-12T12:33:34Z</time>
      </trkpt>
      <trkpt lat="45.94424" lon="4.69093">
        <ele>340</ele>
        <time>2016-11-12T12:33:36Z</time>
      </trkpt>
      <trkpt lat="45.94425" lon="4.69099">
        <ele>340</ele>
        <time>2016-11-12T12:33:37Z</time>
      </trkpt>
      <trkpt lat="45.94426" lon="4.69111">
        <ele>339</ele>
        <time>2016-11-12T12:33:39Z</time>
      </trkpt>
      <trkpt lat="45.94427" lon="4.69117">
        <ele>339</ele>
        <time>2016-11-12T12:33:40Z</time>
      </trkpt>
      <trkpt lat="45.94428" lon="4.69123">
        <ele>339</ele>
        <time>2016-11-12T12:33:41Z</time>
      </trkpt>
      <trkpt lat="45.94429" lon="4.6913">
        <ele>339</ele>
        <time>2016-11-12T12:33:42Z</time>
      </trkpt>
      <trkpt lat="45.94429" lon="4.69138">
        <ele>339</ele>
        <time>2016-11-12T12:33:43Z</time>
      </trkpt>
      <trkpt lat="45.9443" lon="4.69146">
        <ele>338</ele>
        <time>2016-11-12T12:33:44Z</time>
      </trkpt>
      <trkpt lat="45.94431" lon="4.69154">
        <ele>338</ele>
        <time>2016-11-12T12:33:45Z</time>
      </trkpt>
      <trkpt lat="45.94432" lon="4.69163">
        <ele>338</ele>
        <time>2016-11-12T12:33:46Z</time>
      </trkpt>
      <trkpt lat="45.94432" lon="4.69172">
        <ele>335</ele>
        <time>2016-11-12T12:33:47Z</time>
      </trkpt>
      <trkpt lat="45.94433" lon="4.6918">
        <ele>335</ele>
        <time>2016-11-12T12:33:48Z</time>
      </trkpt>
      <trkpt lat="45.94434" lon="4.69189">
        <ele>335</ele>
        <time>2016-11-12T12:33:49Z</time>
      </trkpt>
      <trkpt lat="45.94435" lon="4.69198">
        <ele>335</ele>
        <time>2016-11-12T12:33:50Z</time>
      </trkpt>
      <trkpt lat="45.94436" lon="4.69206">
        <ele>334</ele>
        <time>2016-11-12T12:33:51Z</time>
      </trkpt>
      <trkpt lat="45.94436" lon="4.69215">
        <ele>334</ele>
        <time>2016-11-12T12:33:52Z</time>
      </trkpt>
      <trkpt lat="45.94436" lon="4.69223">
        <ele>334</ele>
        <time>2016-11-12T12:33:53Z</time>
      </trkpt>
      <trkpt lat="45.94437" lon="4.69231">
        <ele>333</ele>
        <time>2016-11-12T12:33:54Z</time>
      </trkpt>
      <trkpt lat="45.94437" lon="4.69238">
        <ele>333</ele>
        <time>2016-11-12T12:33:55Z</time>
      </trkpt>
      <trkpt lat="45.94437" lon="4.69247">
        <ele>333</ele>
        <time>2016-11-12T12:33:56Z</time>
      </trkpt>
      <trkpt lat="45.94437" lon="4.69256">
        <ele>330</ele>
        <time>2016-11-12T12:33:57Z</time>
      </trkpt>
      <trkpt lat="45.94436" lon="4.69264">
        <ele>330</ele>
        <time>2016-11-12T12:33:58Z</time>
      </trkpt>
      <trkpt lat="45.94435" lon="4.69273">
        <ele>330</ele>
        <time>2016-11-12T12:33:59Z</time>
      </trkpt>
      <trkpt lat="45.94434" lon="4.69282">
        <ele>329</ele>
        <time>2016-11-12T12:34:00Z</time>
      </trkpt>
      <trkpt lat="45.94433" lon="4.69291">
        <ele>329</ele>
        <time>2016-11-12T12:34:01Z</time>
      </trkpt>
      <trkpt lat="45.94432" lon="4.69298">
        <ele>329</ele>
        <time>2016-11-12T12:34:02Z</time>
      </trkpt>
      <trkpt lat="45.94431" lon="4.69305">
        <ele>328</ele>
        <time>2016-11-12T12:34:03Z</time>
      </trkpt>
      <trkpt lat="45.94431" lon="4.69312">
        <ele>328</ele>
        <time>2016-11-12T12:34:04Z</time>
      </trkpt>
      <trkpt lat="45.94431" lon="4.69324">
        <ele>327</ele>
        <time>2016-11-12T12:34:06Z</time>
      </trkpt>
      <trkpt lat="45.94431" lon="4.69328">
        <ele>327</ele>
        <time>2016-11-12T12:34:07Z</time>
      </trkpt>
      <trkpt lat="45.94429" lon="4.69336">
        <ele>325</ele>
        <time>2016-11-12T12:34:09Z</time>
      </trkpt>
      <trkpt lat="45.94426" lon="4.69339">
        <ele>325</ele>
        <time>2016-11-12T12:34:10Z</time>
      </trkpt>
      <trkpt lat="45.94422" lon="4.69341">
        <ele>325</ele>
        <time>2016-11-12T12:34:11Z</time>
      </trkpt>
      <trkpt lat="45.94417" lon="4.69343">
        <ele>323</ele>
        <time>2016-11-12T12:34:12Z</time>
      </trkpt>
      <trkpt lat="45.94411" lon="4.69346">
        <ele>322</ele>
        <time>2016-11-12T12:34:13Z</time>
      </trkpt>
      <trkpt lat="45.94405" lon="4.69349">
        <ele>321</ele>
        <time>2016-11-12T12:34:14Z</time>
      </trkpt>
      <trkpt lat="45.94399" lon="4.69354">
        <ele>320</ele>
        <time>2016-11-12T12:34:15Z</time>
      </trkpt>
      <trkpt lat="45.94392" lon="4.69358">
        <ele>320</ele>
        <time>2016-11-12T12:34:16Z</time>
      </trkpt>
      <trkpt lat="45.94386" lon="4.69364">
        <ele>319</ele>
        <time>2016-11-12T12:34:17Z</time>
      </trkpt>
      <trkpt lat="45.9438" lon="4.69369">
        <ele>319</ele>
        <time>2016-11-12T12:34:18Z</time>
      </trkpt>
      <trkpt lat="45.94374" lon="4.69373">
        <ele>318</ele>
        <time>2016-11-12T12:34:19Z</time>
      </trkpt>
      <trkpt lat="45.94367" lon="4.69375">
        <ele>318</ele>
        <time>2016-11-12T12:34:20Z</time>
      </trkpt>
      <trkpt lat="45.94359" lon="4.69376">
        <ele>317</ele>
        <time>2016-11-12T12:34:21Z</time>
      </trkpt>
      <trkpt lat="45.94351" lon="4.69375">
        <ele>317</ele>
        <time>2016-11-12T12:34:22Z</time>
      </trkpt>
      <trkpt lat="45.94343" lon="4.69375">
        <ele>317</ele>
        <time>2016-11-12T12:34:23Z</time>
      </trkpt>
      <trkpt lat="45.94335" lon="4.69374">
        <ele>317</ele>
        <time>2016-11-12T12:34:24Z</time>
      </trkpt>
      <trkpt lat="45.94327" lon="4.69374">
        <ele>316</ele>
        <time>2016-11-12T12:34:25Z</time>
      </trkpt>
      <trkpt lat="45.94319" lon="4.69374">
        <ele>316</ele>
        <time>2016-11-12T12:34:26Z</time>
      </trkpt>
      <trkpt lat="45.94312" lon="4.69374">
        <ele>316</ele>
        <time>2016-11-12T12:34:27Z</time>
      </trkpt>
      <trkpt lat="45.94305" lon="4.69375">
        <ele>316</ele>
        <time>2016-11-12T12:34:28Z</time>
      </trkpt>
      <trkpt lat="45.94298" lon="4.69377">
        <ele>316</ele>
        <time>2016-11-12T12:34:29Z</time>
      </trkpt>
      <trkpt lat="45.94292" lon="4.6938">
        <ele>316</ele>
        <time>2016-11-12T12:34:30Z</time>
      </trkpt>
      <trkpt lat="45.94286" lon="4.69384">
        <ele>316</ele>
        <time>2016-11-12T12:34:31Z</time>
      </trkpt>
      <trkpt lat="45.9428" lon="4.69387">
        <ele>316</ele>
        <time>2016-11-12T12:34:32Z</time>
      </trkpt>
      <trkpt lat="45.94275" lon="4.69392">
        <ele>316</ele>
        <time>2016-11-12T12:34:33Z</time>
      </trkpt>
      <trkpt lat="45.9427" lon="4.69396">
        <ele>316</ele>
        <time>2016-11-12T12:34:34Z</time>
      </trkpt>
      <trkpt lat="45.94266" lon="4.69399">
        <ele>316</ele>
        <time>2016-11-12T12:34:35Z</time>
      </trkpt>
      <trkpt lat="45.94262" lon="4.69403">
        <ele>316</ele>
        <time>2016-11-12T12:34:36Z</time>
      </trkpt>
      <trkpt lat="45.94255" lon="4.69409">
        <ele>315</ele>
        <time>2016-11-12T12:34:38Z</time>
      </trkpt>
      <trkpt lat="45.94252" lon="4.69412">
        <ele>315</ele>
        <time>2016-11-12T12:34:39Z</time>
      </trkpt>
      <trkpt lat="45.94245" lon="4.69417">
        <ele>315</ele>
        <time>2016-11-12T12:34:42Z</time>
      </trkpt>
      <trkpt lat="45.94243" lon="4.69419">
        <ele>315</ele>
        <time>2016-11-12T12:34:43Z</time>
      </trkpt>
      <trkpt lat="45.94236" lon="4.69423">
        <ele>315</ele>
        <time>2016-11-12T12:34:46Z</time>
      </trkpt>
      <trkpt lat="45.94233" lon="4.69423">
        <ele>315</ele>
        <time>2016-11-12T12:34:47Z</time>
      </trkpt>
      <trkpt lat="45.94227" lon="4.69429">
        <ele>314</ele>
        <time>2016-11-12T12:34:51Z</time>
      </trkpt>
      <trkpt lat="45.94226" lon="4.69432">
        <ele>314</ele>
        <time>2016-11-12T12:34:52Z</time>
      </trkpt>
      <trkpt lat="45.9422" lon="4.69438">
        <ele>314</ele>
        <time>2016-11-12T12:34:55Z</time>
      </trkpt>
      <trkpt lat="45.94218" lon="4.6944">
        <ele>314</ele>
        <time>2016-11-12T12:34:56Z</time>
      </trkpt>
      <trkpt lat="45.94212" lon="4.69443">
        <ele>314</ele>
        <time>2016-11-12T12:34:58Z</time>
      </trkpt>
      <trkpt lat="45.94209" lon="4.69445">
        <ele>314</ele>
        <time>2016-11-12T12:34:59Z</time>
      </trkpt>
      <trkpt lat="45.94203" lon="4.69448">
        <ele>314</ele>
        <time>2016-11-12T12:35:01Z</time>
      </trkpt>
      <trkpt lat="45.942" lon="4.69451">
        <ele>314</ele>
        <time>2016-11-12T12:35:02Z</time>
      </trkpt>
      <trkpt lat="45.94192" lon="4.69454">
        <ele>315</ele>
        <time>2016-11-12T12:35:05Z</time>
      </trkpt>
      <trkpt lat="45.9419" lon="4.69455">
        <ele>315</ele>
        <time>2016-11-12T12:35:06Z</time>
      </trkpt>
      <trkpt lat="45.94183" lon="4.69459">
        <ele>314</ele>
        <time>2016-11-12T12:35:09Z</time>
      </trkpt>
      <trkpt lat="45.94182" lon="4.69463">
        <ele>314</ele>
        <time>2016-11-12T12:35:10Z</time>
      </trkpt>
      <trkpt lat="45.9418" lon="4.69474">
        <ele>314</ele>
        <time>2016-11-12T12:35:12Z</time>
      </trkpt>
      <trkpt lat="45.9418" lon="4.69481">
        <ele>313</ele>
        <time>2016-11-12T12:35:13Z</time>
      </trkpt>
      <trkpt lat="45.94179" lon="4.69489">
        <ele>313</ele>
        <time>2016-11-12T12:35:14Z</time>
      </trkpt>
      <trkpt lat="45.94179" lon="4.69498">
        <ele>313</ele>
        <time>2016-11-12T12:35:15Z</time>
      </trkpt>
      <trkpt lat="45.94178" lon="4.69508">
        <ele>310</ele>
        <time>2016-11-12T12:35:16Z</time>
      </trkpt>
      <trkpt lat="45.94177" lon="4.69517">
        <ele>310</ele>
        <time>2016-11-12T12:35:17Z</time>
      </trkpt>
      <trkpt lat="45.94176" lon="4.69527">
        <ele>309</ele>
        <time>2016-11-12T12:35:18Z</time>
      </trkpt>
      <trkpt lat="45.94175" lon="4.69538">
        <ele>308</ele>
        <time>2016-11-12T12:35:19Z</time>
      </trkpt>
      <trkpt lat="45.94174" lon="4.69548">
        <ele>308</ele>
        <time>2016-11-12T12:35:20Z</time>
      </trkpt>
      <trkpt lat="45.94173" lon="4.69559">
        <ele>308</ele>
        <time>2016-11-12T12:35:21Z</time>
      </trkpt>
      <trkpt lat="45.94172" lon="4.6957">
        <ele>308</ele>
        <time>2016-11-12T12:35:22Z</time>
      </trkpt>
      <trkpt lat="45.94172" lon="4.69583">
        <ele>308</ele>
        <time>2016-11-12T12:35:23Z</time>
      </trkpt>
      <trkpt lat="45.94171" lon="4.69595">
        <ele>306</ele>
        <time>2016-11-12T12:35:24Z</time>
      </trkpt>
      <trkpt lat="45.9417" lon="4.69606">
        <ele>305</ele>
        <time>2016-11-12T12:35:25Z</time>
      </trkpt>
      <trkpt lat="45.94168" lon="4.69617">
        <ele>304</ele>
        <time>2016-11-12T12:35:26Z</time>
      </trkpt>
      <trkpt lat="45.94166" lon="4.69628">
        <ele>303</ele>
        <time>2016-11-12T12:35:27Z</time>
      </trkpt>
      <trkpt lat="45.94163" lon="4.69638">
        <ele>303</ele>
        <time>2016-11-12T12:35:28Z</time>
      </trkpt>
      <trkpt lat="45.94159" lon="4.69648">
        <ele>303</ele>
        <time>2016-11-12T12:35:29Z</time>
      </trkpt>
      <trkpt lat="45.94155" lon="4.69658">
        <ele>302</ele>
        <time>2016-11-12T12:35:30Z</time>
      </trkpt>
      <trkpt lat="45.9415" lon="4.69667">
        <ele>300</ele>
        <time>2016-11-12T12:35:31Z</time>
      </trkpt>
      <trkpt lat="45.94145" lon="4.69677">
        <ele>299</ele>
        <time>2016-11-12T12:35:32Z</time>
      </trkpt>
      <trkpt lat="45.9414" lon="4.69686">
        <ele>298</ele>
        <time>2016-11-12T12:35:33Z</time>
      </trkpt>
      <trkpt lat="45.94136" lon="4.69696">
        <ele>298</ele>
        <time>2016-11-12T12:35:34Z</time>
      </trkpt>
      <trkpt lat="45.94132" lon="4.69705">
        <ele>297</ele>
        <time>2016-11-12T12:35:35Z</time>
      </trkpt>
      <trkpt lat="45.94128" lon="4.69716">
        <ele>297</ele>
        <time>2016-11-12T12:35:36Z</time>
      </trkpt>
      <trkpt lat="45.94125" lon="4.69727">
        <ele>296</ele>
        <time>2016-11-12T12:35:37Z</time>
      </trkpt>
      <trkpt lat="45.94122" lon="4.69739">
        <ele>296</ele>
        <time>2016-11-12T12:35:38Z</time>
      </trkpt>
      <trkpt lat="45.94121" lon="4.69752">
        <ele>291</ele>
        <time>2016-11-12T12:35:39Z</time>
      </trkpt>
      <trkpt lat="45.94122" lon="4.69764">
        <ele>291</ele>
        <time>2016-11-12T12:35:40Z</time>
      </trkpt>
      <trkpt lat="45.94123" lon="4.69776">
        <ele>290</ele>
        <time>2016-11-12T12:35:41Z</time>
      </trkpt>
      <trkpt lat="45.94125" lon="4.69788">
        <ele>290</ele>
        <time>2016-11-12T12:35:42Z</time>
      </trkpt>
      <trkpt lat="45.94128" lon="4.69801">
        <ele>289</ele>
        <time>2016-11-12T12:35:43Z</time>
      </trkpt>
      <trkpt lat="45.9413" lon="4.69813">
        <ele>289</ele>
        <time>2016-11-12T12:35:44Z</time>
      </trkpt>
      <trkpt lat="45.94133" lon="4.69827">
        <ele>289</ele>
        <time>2016-11-12T12:35:45Z</time>
      </trkpt>
      <trkpt lat="45.94135" lon="4.69841">
        <ele>284</ele>
        <time>2016-11-12T12:35:46Z</time>
      </trkpt>
      <trkpt lat="45.94137" lon="4.69856">
        <ele>283</ele>
        <time>2016-11-12T12:35:47Z</time>
      </trkpt>
      <trkpt lat="45.94139" lon="4.69871">
        <ele>283</ele>
        <time>2016-11-12T12:35:48Z</time>
      </trkpt>
      <trkpt lat="45.94142" lon="4.69887">
        <ele>282</ele>
        <time>2016-11-12T12:35:49Z</time>
      </trkpt>
      <trkpt lat="45.94144" lon="4.69904">
        <ele>281</ele>
        <time>2016-11-12T12:35:50Z</time>
      </trkpt>
      <trkpt lat="45.94146" lon="4.69921">
        <ele>278</ele>
        <time>2016-11-12T12:35:51Z</time>
      </trkpt>
      <trkpt lat="45.94147" lon="4.69938">
        <ele>278</ele>
        <time>2016-11-12T12:35:52Z</time>
      </trkpt>
      <trkpt lat="45.94149" lon="4.69955">
        <ele>277</ele>
        <time>2016-11-12T12:35:53Z</time>
      </trkpt>
      <trkpt lat="45.94151" lon="4.69971">
        <ele>277</ele>
        <time>2016-11-12T12:35:54Z</time>
      </trkpt>
      <trkpt lat="45.94153" lon="4.69986">
        <ele>276</ele>
        <time>2016-11-12T12:35:55Z</time>
      </trkpt>
      <trkpt lat="45.94156" lon="4.70001">
        <ele>274</ele>
        <time>2016-11-12T12:35:56Z</time>
      </trkpt>
      <trkpt lat="45.9416" lon="4.70016">
        <ele>274</ele>
        <time>2016-11-12T12:35:57Z</time>
      </trkpt>
      <trkpt lat="45.94164" lon="4.70031">
        <ele>273</ele>
        <time>2016-11-12T12:35:58Z</time>
      </trkpt>
      <trkpt lat="45.94168" lon="4.70046">
        <ele>274</ele>
        <time>2016-11-12T12:35:59Z</time>
      </trkpt>
      <trkpt lat="45.94172" lon="4.7006">
        <ele>273</ele>
        <time>2016-11-12T12:36:00Z</time>
      </trkpt>
      <trkpt lat="45.94175" lon="4.70074">
        <ele>271</ele>
        <time>2016-11-12T12:36:01Z</time>
      </trkpt>
      <trkpt lat="45.94178" lon="4.70088">
        <ele>269</ele>
        <time>2016-11-12T12:36:02Z</time>
      </trkpt>
      <trkpt lat="45.94179" lon="4.70102">
        <ele>268</ele>
        <time>2016-11-12T12:36:03Z</time>
      </trkpt>
      <trkpt lat="45.94181" lon="4.70115">
        <ele>268</ele>
        <time>2016-11-12T12:36:04Z</time>
      </trkpt>
      <trkpt lat="45.94182" lon="4.70129">
        <ele>267</ele>
        <time>2016-11-12T12:36:05Z</time>
      </trkpt>
      <trkpt lat="45.94182" lon="4.70143">
        <ele>267</ele>
        <time>2016-11-12T12:36:06Z</time>
      </trkpt>
      <trkpt lat="45.94182" lon="4.70157">
        <ele>266</ele>
        <time>2016-11-12T12:36:07Z</time>
      </trkpt>
      <trkpt lat="45.94183" lon="4.70172">
        <ele>263</ele>
        <time>2016-11-12T12:36:08Z</time>
      </trkpt>
      <trkpt lat="45.94182" lon="4.70186">
        <ele>262</ele>
        <time>2016-11-12T12:36:09Z</time>
      </trkpt>
      <trkpt lat="45.94182" lon="4.702">
        <ele>262</ele>
        <time>2016-11-12T12:36:10Z</time>
      </trkpt>
      <trkpt lat="45.94181" lon="4.70214">
        <ele>261</ele>
        <time>2016-11-12T12:36:11Z</time>
      </trkpt>
      <trkpt lat="45.9418" lon="4.70228">
        <ele>260</ele>
        <time>2016-11-12T12:36:12Z</time>
      </trkpt>
      <trkpt lat="45.94179" lon="4.70243">
        <ele>259</ele>
        <time>2016-11-12T12:36:13Z</time>
      </trkpt>
      <trkpt lat="45.94177" lon="4.70257">
        <ele>257</ele>
        <time>2016-11-12T12:36:14Z</time>
      </trkpt>
      <trkpt lat="45.94176" lon="4.70271">
        <ele>257</ele>
        <time>2016-11-12T12:36:15Z</time>
      </trkpt>
      <trkpt lat="45.94174" lon="4.70284">
        <ele>257</ele>
        <time>2016-11-12T12:36:16Z</time>
      </trkpt>
      <trkpt lat="45.94172" lon="4.70299">
        <ele>257</ele>
        <time>2016-11-12T12:36:17Z</time>
      </trkpt>
      <trkpt lat="45.94169" lon="4.70311">
        <ele>256</ele>
        <time>2016-11-12T12:36:18Z</time>
      </trkpt>
      <trkpt lat="45.94167" lon="4.70324">
        <ele>255</ele>
        <time>2016-11-12T12:36:19Z</time>
      </trkpt>
      <trkpt lat="45.94166" lon="4.70337">
        <ele>254</ele>
        <time>2016-11-12T12:36:20Z</time>
      </trkpt>
      <trkpt lat="45.94165" lon="4.7035">
        <ele>255</ele>
        <time>2016-11-12T12:36:21Z</time>
      </trkpt>
      <trkpt lat="45.94165" lon="4.70363">
        <ele>255</ele>
        <time>2016-11-12T12:36:22Z</time>
      </trkpt>
      <trkpt lat="45.94165" lon="4.70375">
        <ele>255</ele>
        <time>2016-11-12T12:36:23Z</time>
      </trkpt>
      <trkpt lat="45.94165" lon="4.70387">
        <ele>255</ele>
        <time>2016-11-12T12:36:24Z</time>
      </trkpt>
      <trkpt lat="45.94166" lon="4.70399">
        <ele>255</ele>
        <time>2016-11-12T12:36:25Z</time>
      </trkpt>
      <trkpt lat="45.94167" lon="4.7041">
        <ele>253</ele>
        <time>2016-11-12T12:36:26Z</time>
      </trkpt>
      <trkpt lat="45.94167" lon="4.70422">
        <ele>253</ele>
        <time>2016-11-12T12:36:27Z</time>
      </trkpt>
      <trkpt lat="45.94166" lon="4.70433">
        <ele>253</ele>
        <time>2016-11-12T12:36:28Z</time>
      </trkpt>
      <trkpt lat="45.94166" lon="4.70444">
        <ele>253</ele>
        <time>2016-11-12T12:36:29Z</time>
      </trkpt>
      <trkpt lat="45.94165" lon="4.70456">
        <ele>253</ele>
        <time>2016-11-12T12:36:30Z</time>
      </trkpt>
      <trkpt lat="45.94164" lon="4.70467">
        <ele>252</ele>
        <time>2016-11-12T12:36:31Z</time>
      </trkpt>
      <trkpt lat="45.94164" lon="4.70478">
        <ele>252</ele>
        <time>2016-11-12T12:36:32Z</time>
      </trkpt>
      <trkpt lat="45.94163" lon="4.70489">
        <ele>251</ele>
        <time>2016-11-12T12:36:33Z</time>
      </trkpt>
      <trkpt lat="45.94163" lon="4.70501">
        <ele>249</ele>
        <time>2016-11-12T12:36:34Z</time>
      </trkpt>
      <trkpt lat="45.94163" lon="4.70512">
        <ele>249</ele>
        <time>2016-11-12T12:36:35Z</time>
      </trkpt>
      <trkpt lat="45.94162" lon="4.70524">
        <ele>249</ele>
        <time>2016-11-12T12:36:36Z</time>
      </trkpt>
      <trkpt lat="45.94162" lon="4.70535">
        <ele>249</ele>
        <time>2016-11-12T12:36:37Z</time>
      </trkpt>
      <trkpt lat="45.94162" lon="4.70547">
        <ele>248</ele>
        <time>2016-11-12T12:36:38Z</time>
      </trkpt>
      <trkpt lat="45.94161" lon="4.70558">
        <ele>248</ele>
        <time>2016-11-12T12:36:39Z</time>
      </trkpt>
      <trkpt lat="45.94161" lon="4.70569">
        <ele>247</ele>
        <time>2016-11-12T12:36:40Z</time>
      </trkpt>
      <trkpt lat="45.9416" lon="4.7058">
        <ele>246</ele>
        <time>2016-11-12T12:36:41Z</time>
      </trkpt>
      <trkpt lat="45.9416" lon="4.70591">
        <ele>245</ele>
        <time>2016-11-12T12:36:42Z</time>
      </trkpt>
      <trkpt lat="45.94158" lon="4.70602">
        <ele>245</ele>
        <time>2016-11-12T12:36:43Z</time>
      </trkpt>
      <trkpt lat="45.94157" lon="4.70613">
        <ele>245</ele>
        <time>2016-11-12T12:36:44Z</time>
      </trkpt>
      <trkpt lat="45.94156" lon="4.70624">
        <ele>244</ele>
        <time>2016-11-12T12:36:45Z</time>
      </trkpt>
      <trkpt lat="45.94154" lon="4.70636">
        <ele>244</ele>
        <time>2016-11-12T12:36:46Z</time>
      </trkpt>
      <trkpt lat="45.94152" lon="4.70647">
        <ele>244</ele>
        <time>2016-11-12T12:36:47Z</time>
      </trkpt>
      <trkpt lat="45.9415" lon="4.70658">
        <ele>243</ele>
        <time>2016-11-12T12:36:48Z</time>
      </trkpt>
      <trkpt lat="45.94147" lon="4.70669">
        <ele>242</ele>
        <time>2016-11-12T12:36:49Z</time>
      </trkpt>
      <trkpt lat="45.94144" lon="4.7068">
        <ele>242</ele>
        <time>2016-11-12T12:36:50Z</time>
      </trkpt>
      <trkpt lat="45.94141" lon="4.7069">
        <ele>242</ele>
        <time>2016-11-12T12:36:51Z</time>
      </trkpt>
      <trkpt lat="45.94137" lon="4.70701">
        <ele>242</ele>
        <time>2016-11-12T12:36:52Z</time>
      </trkpt>
      <trkpt lat="45.94133" lon="4.70711">
        <ele>242</ele>
        <time>2016-11-12T12:36:53Z</time>
      </trkpt>
      <trkpt lat="45.94128" lon="4.70721">
        <ele>242</ele>
        <time>2016-11-12T12:36:54Z</time>
      </trkpt>
      <trkpt lat="45.94123" lon="4.70731">
        <ele>241</ele>
        <time>2016-11-12T12:36:55Z</time>
      </trkpt>
      <trkpt lat="45.94118" lon="4.7074">
        <ele>241</ele>
        <time>2016-11-12T12:36:56Z</time>
      </trkpt>
      <trkpt lat="45.94112" lon="4.70749">
        <ele>241</ele>
        <time>2016-11-12T12:36:57Z</time>
      </trkpt>
      <trkpt lat="45.94106" lon="4.70757">
        <ele>239</ele>
        <time>2016-11-12T12:36:58Z</time>
      </trkpt>
      <trkpt lat="45.94099" lon="4.70765">
        <ele>239</ele>
        <time>2016-11-12T12:36:59Z</time>
      </trkpt>
      <trkpt lat="45.94092" lon="4.70773">
        <ele>239</ele>
        <time>2016-11-12T12:37:00Z</time>
      </trkpt>
      <trkpt lat="45.94085" lon="4.70781">
        <ele>239</ele>
        <time>2016-11-12T12:37:01Z</time>
      </trkpt>
      <trkpt lat="45.94078" lon="4.70788">
        <ele>238</ele>
        <time>2016-11-12T12:37:02Z</time>
      </trkpt>
      <trkpt lat="45.94071" lon="4.70797">
        <ele>238</ele>
        <time>2016-11-12T12:37:03Z</time>
      </trkpt>
      <trkpt lat="45.94064" lon="4.70803">
        <ele>238</ele>
        <time>2016-11-12T12:37:04Z</time>
      </trkpt>
      <trkpt lat="45.94057" lon="4.7081">
        <ele>237</ele>
        <time>2016-11-12T12:37:05Z</time>
      </trkpt>
      <trkpt lat="45.9405" lon="4.70817">
        <ele>237</ele>
        <time>2016-11-12T12:37:06Z</time>
      </trkpt>
      <trkpt lat="45.94044" lon="4.70825">
        <ele>237</ele>
        <time>2016-11-12T12:37:07Z</time>
      </trkpt>
      <trkpt lat="45.94038" lon="4.70831">
        <ele>237</ele>
        <time>2016-11-12T12:37:08Z</time>
      </trkpt>
      <trkpt lat="45.94032" lon="4.70839">
        <ele>232</ele>
        <time>2016-11-12T12:37:09Z</time>
      </trkpt>
      <trkpt lat="45.94027" lon="4.70847">
        <ele>231</ele>
        <time>2016-11-12T12:37:10Z</time>
      </trkpt>
      <trkpt lat="45.94017" lon="4.70882">
        <ele>229</ele>
        <time>2016-11-12T12:37:14Z</time>
      </trkpt>
      <trkpt lat="45.94017" lon="4.70893">
        <ele>228</ele>
        <time>2016-11-12T12:37:15Z</time>
      </trkpt>
      <trkpt lat="45.94019" lon="4.70905">
        <ele>227</ele>
        <time>2016-11-12T12:37:16Z</time>
      </trkpt>
      <trkpt lat="45.9402" lon="4.70916">
        <ele>227</ele>
        <time>2016-11-12T12:37:17Z</time>
      </trkpt>
      <trkpt lat="45.94023" lon="4.70927">
        <ele>221</ele>
        <time>2016-11-12T12:37:18Z</time>
      </trkpt>
      <trkpt lat="45.94026" lon="4.70937">
        <ele>221</ele>
        <time>2016-11-12T12:37:19Z</time>
      </trkpt>
      <trkpt lat="45.9403" lon="4.70947">
        <ele>220</ele>
        <time>2016-11-12T12:37:20Z</time>
      </trkpt>
      <trkpt lat="45.94035" lon="4.70956">
        <ele>220</ele>
        <time>2016-11-12T12:37:21Z</time>
      </trkpt>
      <trkpt lat="45.9404" lon="4.70965">
        <ele>219</ele>
        <time>2016-11-12T12:37:22Z</time>
      </trkpt>
      <trkpt lat="45.94051" lon="4.70983">
        <ele>219</ele>
        <time>2016-11-12T12:37:24Z</time>
      </trkpt>
      <trkpt lat="45.94057" lon="4.70993">
        <ele>218</ele>
        <time>2016-11-12T12:37:25Z</time>
      </trkpt>
      <trkpt lat="45.94062" lon="4.71003">
        <ele>212</ele>
        <time>2016-11-12T12:37:26Z</time>
      </trkpt>
      <trkpt lat="45.94068" lon="4.71011">
        <ele>212</ele>
        <time>2016-11-12T12:37:27Z</time>
      </trkpt>
      <trkpt lat="45.94073" lon="4.71019">
        <ele>211</ele>
        <time>2016-11-12T12:37:28Z</time>
      </trkpt>
      <trkpt lat="45.9408" lon="4.71027">
        <ele>210</ele>
        <time>2016-11-12T12:37:29Z</time>
      </trkpt>
      <trkpt lat="45.94086" lon="4.71036">
        <ele>212</ele>
        <time>2016-11-12T12:37:30Z</time>
      </trkpt>
      <trkpt lat="45.94092" lon="4.71044">
        <ele>211</ele>
        <time>2016-11-12T12:37:31Z</time>
      </trkpt>
      <trkpt lat="45.94098" lon="4.71051">
        <ele>210</ele>
        <time>2016-11-12T12:37:32Z</time>
      </trkpt>
      <trkpt lat="45.94103" lon="4.71058">
        <ele>209</ele>
        <time>2016-11-12T12:37:33Z</time>
      </trkpt>
      <trkpt lat="45.94109" lon="4.71065">
        <ele>209</ele>
        <time>2016-11-12T12:37:34Z</time>
      </trkpt>
      <trkpt lat="45.94116" lon="4.71072">
        <ele>209</ele>
        <time>2016-11-12T12:37:35Z</time>
      </trkpt>
      <trkpt lat="45.94121" lon="4.71079">
        <ele>209</ele>
        <time>2016-11-12T12:37:36Z</time>
      </trkpt>
      <trkpt lat="45.94127" lon="4.71085">
        <ele>201</ele>
        <time>2016-11-12T12:37:37Z</time>
      </trkpt>
      <trkpt lat="45.94133" lon="4.7109">
        <ele>201</ele>
        <time>2016-11-12T12:37:38Z</time>
      </trkpt>
      <trkpt lat="45.94137" lon="4.71096">
        <ele>201</ele>
        <time>2016-11-12T12:37:39Z</time>
      </trkpt>
      <trkpt lat="45.94142" lon="4.71101">
        <ele>201</ele>
        <time>2016-11-12T12:37:40Z</time>
      </trkpt>
      <trkpt lat="45.94144" lon="4.71106">
        <ele>201</ele>
        <time>2016-11-12T12:37:41Z</time>
      </trkpt>
      <trkpt lat="45.94147" lon="4.71113">
        <ele>200</ele>
        <time>2016-11-12T12:37:42Z</time>
      </trkpt>
      <trkpt lat="45.94148" lon="4.7112">
        <ele>199</ele>
        <time>2016-11-12T12:37:43Z</time>
      </trkpt>
      <trkpt lat="45.94148" lon="4.71127">
        <ele>198</ele>
        <time>2016-11-12T12:37:44Z</time>
      </trkpt>
      <trkpt lat="45.94145" lon="4.71133">
        <ele>198</ele>
        <time>2016-11-12T12:37:45Z</time>
      </trkpt>
      <trkpt lat="45.94141" lon="4.71137">
        <ele>197</ele>
        <time>2016-11-12T12:37:46Z</time>
      </trkpt>
      <trkpt lat="45.94136" lon="4.71139">
        <ele>197</ele>
        <time>2016-11-12T12:37:47Z</time>
      </trkpt>
      <trkpt lat="45.9413" lon="4.7114">
        <ele>197</ele>
        <time>2016-11-12T12:37:48Z</time>
      </trkpt>
      <trkpt lat="45.94121" lon="4.71139">
        <ele>197</ele>
        <time>2016-11-12T12:37:49Z</time>
      </trkpt>
      <trkpt lat="45.94114" lon="4.7114">
        <ele>196</ele>
        <time>2016-11-12T12:37:50Z</time>
      </trkpt>
      <trkpt lat="45.94106" lon="4.71142">
        <ele>196</ele>
        <time>2016-11-12T12:37:51Z</time>
      </trkpt>
      <trkpt lat="45.94098" lon="4.71142">
        <ele>196</ele>
        <time>2016-11-12T12:37:52Z</time>
      </trkpt>
      <trkpt lat="45.94091" lon="4.71141">
        <ele>195</ele>
        <time>2016-11-12T12:37:53Z</time>
      </trkpt>
      <trkpt lat="45.94083" lon="4.71141">
        <ele>194</ele>
        <time>2016-11-12T12:37:54Z</time>
      </trkpt>
      <trkpt lat="45.94076" lon="4.7114">
        <ele>194</ele>
        <time>2016-11-12T12:37:55Z</time>
      </trkpt>
      <trkpt lat="45.94069" lon="4.7114">
        <ele>194</ele>
        <time>2016-11-12T12:37:56Z</time>
      </trkpt>
      <trkpt lat="45.94046" lon="4.71145">
        <ele>193</ele>
        <time>2016-11-12T12:37:59Z</time>
      </trkpt>
      <trkpt lat="45.94038" lon="4.71146">
        <ele>193</ele>
        <time>2016-11-12T12:38:00Z</time>
      </trkpt>
      <trkpt lat="45.9403" lon="4.71146">
        <ele>193</ele>
        <time>2016-11-12T12:38:01Z</time>
      </trkpt>
      <trkpt lat="45.94022" lon="4.71147">
        <ele>193</ele>
        <time>2016-11-12T12:38:02Z</time>
      </trkpt>
      <trkpt lat="45.94015" lon="4.71147">
        <ele>192</ele>
        <time>2016-11-12T12:38:03Z</time>
      </trkpt>
      <trkpt lat="45.94008" lon="4.71148">
        <ele>192</ele>
        <time>2016-11-12T12:38:04Z</time>
      </trkpt>
      <trkpt lat="45.94002" lon="4.71149">
        <ele>191</ele>
        <time>2016-11-12T12:38:05Z</time>
      </trkpt>
      <trkpt lat="45.93996" lon="4.71151">
        <ele>190</ele>
        <time>2016-11-12T12:38:06Z</time>
      </trkpt>
      <trkpt lat="45.93992" lon="4.71158">
        <ele>190</ele>
        <time>2016-11-12T12:38:07Z</time>
      </trkpt>
      <trkpt lat="45.93989" lon="4.71165">
        <ele>190</ele>
        <time>2016-11-12T12:38:08Z</time>
      </trkpt>
      <trkpt lat="45.93987" lon="4.71172">
        <ele>186</ele>
        <time>2016-11-12T12:38:09Z</time>
      </trkpt>
      <trkpt lat="45.93985" lon="4.71181">
        <ele>186</ele>
        <time>2016-11-12T12:38:10Z</time>
      </trkpt>
      <trkpt lat="45.93984" lon="4.7119">
        <ele>185</ele>
        <time>2016-11-12T12:38:11Z</time>
      </trkpt>
      <trkpt lat="45.93984" lon="4.712">
        <ele>185</ele>
        <time>2016-11-12T12:38:12Z</time>
      </trkpt>
      <trkpt lat="45.93984" lon="4.7121">
        <ele>184</ele>
        <time>2016-11-12T12:38:13Z</time>
      </trkpt>
      <trkpt lat="45.93983" lon="4.71219">
        <ele>184</ele>
        <time>2016-11-12T12:38:14Z</time>
      </trkpt>
      <trkpt lat="45.93981" lon="4.71228">
        <ele>183</ele>
        <time>2016-11-12T12:38:15Z</time>
      </trkpt>
      <trkpt lat="45.93979" lon="4.71236">
        <ele>183</ele>
        <time>2016-11-12T12:38:16Z</time>
      </trkpt>
      <trkpt lat="45.93976" lon="4.71244">
        <ele>183</ele>
        <time>2016-11-12T12:38:17Z</time>
      </trkpt>
      <trkpt lat="45.93972" lon="4.71251">
        <ele>180</ele>
        <time>2016-11-12T12:38:18Z</time>
      </trkpt>
      <trkpt lat="45.93969" lon="4.71259">
        <ele>180</ele>
        <time>2016-11-12T12:38:19Z</time>
      </trkpt>
      <trkpt lat="45.93966" lon="4.71267">
        <ele>180</ele>
        <time>2016-11-12T12:38:20Z</time>
      </trkpt>
      <trkpt lat="45.93966" lon="4.71276">
        <ele>180</ele>
        <time>2016-11-12T12:38:21Z</time>
      </trkpt>
      <trkpt lat="45.93968" lon="4.71284">
        <ele>180</ele>
        <time>2016-11-12T12:38:22Z</time>
      </trkpt>
      <trkpt lat="45.93971" lon="4.71293">
        <ele>180</ele>
        <time>2016-11-12T12:38:23Z</time>
      </trkpt>
      <trkpt lat="45.93974" lon="4.71302">
        <ele>180</ele>
        <time>2016-11-12T12:38:24Z</time>
      </trkpt>
      <trkpt lat="45.93974" lon="4.71311">
        <ele>180</ele>
        <time>2016-11-12T12:38:25Z</time>
      </trkpt>
      <trkpt lat="45.93974" lon="4.7132">
        <ele>180</ele>
        <time>2016-11-12T12:38:26Z</time>
      </trkpt>
      <trkpt lat="45.93973" lon="4.71329">
        <ele>180</ele>
        <time>2016-11-12T12:38:27Z</time>
      </trkpt>
      <trkpt lat="45.93971" lon="4.71338">
        <ele>179</ele>
        <time>2016-11-12T12:38:28Z</time>
      </trkpt>
      <trkpt lat="45.93969" lon="4.71347">
        <ele>179</ele>
        <time>2016-11-12T12:38:29Z</time>
      </trkpt>
      <trkpt lat="45.93967" lon="4.71357">
        <ele>178</ele>
        <time>2016-11-12T12:38:30Z</time>
      </trkpt>
      <trkpt lat="45.93966" lon="4.71366">
        <ele>178</ele>
        <time>2016-11-12T12:38:31Z</time>
      </trkpt>
      <trkpt lat="45.93964" lon="4.71377">
        <ele>178</ele>
        <time>2016-11-12T12:38:32Z</time>
      </trkpt>
      <trkpt lat="45.93963" lon="4.71386">
        <ele>178</ele>
        <time>2016-11-12T12:38:33Z</time>
      </trkpt>
      <trkpt lat="45.93962" lon="4.71396">
        <ele>178</ele>
        <time>2016-11-12T12:38:34Z</time>
      </trkpt>
      <trkpt lat="45.9396" lon="4.71406">
        <ele>178</ele>
        <time>2016-11-12T12:38:35Z</time>
      </trkpt>
      <trkpt lat="45.93959" lon="4.71416">
        <ele>178</ele>
        <time>2016-11-12T12:38:36Z</time>
      </trkpt>
      <trkpt lat="45.93958" lon="4.71425">
        <ele>177</ele>
        <time>2016-11-12T12:38:37Z</time>
      </trkpt>
      <trkpt lat="45.93957" lon="4.71434">
        <ele>177</ele>
        <time>2016-11-12T12:38:38Z</time>
      </trkpt>
      <trkpt lat="45.93956" lon="4.71443">
        <ele>177</ele>
        <time>2016-11-12T12:38:39Z</time>
      </trkpt>
      <trkpt lat="45.93955" lon="4.71452">
        <ele>177</ele>
        <time>2016-11-12T12:38:40Z</time>
      </trkpt>
      <trkpt lat="45.93955" lon="4.71461">
        <ele>177</ele>
        <time>2016-11-12T12:38:41Z</time>
      </trkpt>
      <trkpt lat="45.93955" lon="4.71469">
        <ele>177</ele>
        <time>2016-11-12T12:38:42Z</time>
      </trkpt>
      <trkpt lat="45.93954" lon="4.71477">
        <ele>177</ele>
        <time>2016-11-12T12:38:43Z</time>
      </trkpt>
      <trkpt lat="45.93953" lon="4.71485">
        <ele>177</ele>
        <time>2016-11-12T12:38:44Z</time>
      </trkpt>
      <trkpt lat="45.93951" lon="4.71491">
        <ele>177</ele>
        <time>2016-11-12T12:38:45Z</time>
      </trkpt>
      <trkpt lat="45.93951" lon="4.71499">
        <ele>177</ele>
        <time>2016-11-12T12:38:46Z</time>
      </trkpt>
      <trkpt lat="45.93951" lon="4.71507">
        <ele>177</ele>
        <time>2016-11-12T12:38:47Z</time>
      </trkpt>
      <trkpt lat="45.93949" lon="4.71514">
        <ele>177</ele>
        <time>2016-11-12T12:38:48Z</time>
      </trkpt>
      <trkpt lat="45.93948" lon="4.71521">
        <ele>177</ele>
        <time>2016-11-12T12:38:49Z</time>
      </trkpt>
      <trkpt lat="45.93948" lon="4.71529">
        <ele>177</ele>
        <time>2016-11-12T12:38:50Z</time>
      </trkpt>
      <trkpt lat="45.93947" lon="4.71536">
        <ele>177</ele>
        <time>2016-11-12T12:38:51Z</time>
      </trkpt>
      <trkpt lat="45.93946" lon="4.71543">
        <ele>177</ele>
        <time>2016-11-12T12:38:52Z</time>
      </trkpt>
      <trkpt lat="45.93945" lon="4.71551">
        <ele>177</ele>
        <time>2016-11-12T12:38:53Z</time>
      </trkpt>
      <trkpt lat="45.93943" lon="4.71557">
        <ele>177</ele>
        <time>2016-11-12T12:38:54Z</time>
      </trkpt>
      <trkpt lat="45.9394" lon="4.71563">
        <ele>178</ele>
        <time>2016-11-12T12:38:55Z</time>
      </trkpt>
      <trkpt lat="45.93936" lon="4.71568">
        <ele>178</ele>
        <time>2016-11-12T12:38:56Z</time>
      </trkpt>
      <trkpt lat="45.93933" lon="4.71573">
        <ele>178</ele>
        <time>2016-11-12T12:38:57Z</time>
      </trkpt>
      <trkpt lat="45.9393" lon="4.71579">
        <ele>178</ele>
        <time>2016-11-12T12:38:58Z</time>
      </trkpt>
      <trkpt lat="45.93929" lon="4.71585">
        <ele>178</ele>
        <time>2016-11-12T12:38:59Z</time>
      </trkpt>
      <trkpt lat="45.93928" lon="4.71593">
        <ele>178</ele>
        <time>2016-11-12T12:39:00Z</time>
      </trkpt>
      <trkpt lat="45.93926" lon="4.71601">
        <ele>178</ele>
        <time>2016-11-12T12:39:01Z</time>
      </trkpt>
      <trkpt lat="45.93925" lon="4.71608">
        <ele>177</ele>
        <time>2016-11-12T12:39:02Z</time>
      </trkpt>
      <trkpt lat="45.93923" lon="4.71616">
        <ele>177</ele>
        <time>2016-11-12T12:39:03Z</time>
      </trkpt>
      <trkpt lat="45.93922" lon="4.71622">
        <ele>177</ele>
        <time>2016-11-12T12:39:04Z</time>
      </trkpt>
      <trkpt lat="45.9392" lon="4.71629">
        <ele>177</ele>
        <time>2016-11-12T12:39:05Z</time>
      </trkpt>
      <trkpt lat="45.93918" lon="4.71635">
        <ele>177</ele>
        <time>2016-11-12T12:39:06Z</time>
      </trkpt>
      <trkpt lat="45.93917" lon="4.71642">
        <ele>176</ele>
        <time>2016-11-12T12:39:07Z</time>
      </trkpt>
      <trkpt lat="45.93916" lon="4.71648">
        <ele>176</ele>
        <time>2016-11-12T12:39:08Z</time>
      </trkpt>
      <trkpt lat="45.93915" lon="4.71654">
        <ele>175</ele>
        <time>2016-11-12T12:39:09Z</time>
      </trkpt>
      <trkpt lat="45.93914" lon="4.71666">
        <ele>175</ele>
        <time>2016-11-12T12:39:11Z</time>
      </trkpt>
      <trkpt lat="45.93912" lon="4.71672">
        <ele>175</ele>
        <time>2016-11-12T12:39:12Z</time>
      </trkpt>
      <trkpt lat="45.93909" lon="4.7168">
        <ele>175</ele>
        <time>2016-11-12T12:39:14Z</time>
      </trkpt>
      <trkpt lat="45.93907" lon="4.71683">
        <ele>175</ele>
        <time>2016-11-12T12:39:15Z</time>
      </trkpt>
      <trkpt lat="45.939" lon="4.71687">
        <ele>174</ele>
        <time>2016-11-12T12:39:17Z</time>
      </trkpt>
      <trkpt lat="45.93896" lon="4.71689">
        <ele>174</ele>
        <time>2016-11-12T12:39:18Z</time>
      </trkpt>
      <trkpt lat="45.93888" lon="4.71693">
        <ele>174</ele>
        <time>2016-11-12T12:39:20Z</time>
      </trkpt>
      <trkpt lat="45.93884" lon="4.71695">
        <ele>174</ele>
        <time>2016-11-12T12:39:21Z</time>
      </trkpt>
      <trkpt lat="45.9388" lon="4.71697">
        <ele>174</ele>
        <time>2016-11-12T12:39:22Z</time>
      </trkpt>
      <trkpt lat="45.93875" lon="4.71699">
        <ele>174</ele>
        <time>2016-11-12T12:39:23Z</time>
      </trkpt>
      <trkpt lat="45.9387" lon="4.71702">
        <ele>174</ele>
        <time>2016-11-12T12:39:24Z</time>
      </trkpt>
      <trkpt lat="45.93865" lon="4.71703">
        <ele>174</ele>
        <time>2016-11-12T12:39:25Z</time>
      </trkpt>
      <trkpt lat="45.93845" lon="4.71711">
        <ele>174</ele>
        <time>2016-11-12T12:39:29Z</time>
      </trkpt>
      <trkpt lat="45.9384" lon="4.71713">
        <ele>175</ele>
        <time>2016-11-12T12:39:30Z</time>
      </trkpt>
      <trkpt lat="45.93835" lon="4.71715">
        <ele>175</ele>
        <time>2016-11-12T12:39:31Z</time>
      </trkpt>
      <trkpt lat="45.9383" lon="4.71716">
        <ele>175</ele>
        <time>2016-11-12T12:39:32Z</time>
      </trkpt>
      <trkpt lat="45.93825" lon="4.71718">
        <ele>175</ele>
        <time>2016-11-12T12:39:33Z</time>
      </trkpt>
      <trkpt lat="45.93821" lon="4.71719">
        <ele>175</ele>
        <time>2016-11-12T12:39:34Z</time>
      </trkpt>
      <trkpt lat="45.93816" lon="4.7172">
        <ele>175</ele>
        <time>2016-11-12T12:39:35Z</time>
      </trkpt>
      <trkpt lat="45.9381" lon="4.71725">
        <ele>175</ele>
        <time>2016-11-12T12:39:36Z</time>
      </trkpt>
      <trkpt lat="45.93805" lon="4.71728">
        <ele>175</ele>
        <time>2016-11-12T12:39:37Z</time>
      </trkpt>
      <trkpt lat="45.938" lon="4.7173">
        <ele>175</ele>
        <time>2016-11-12T12:39:38Z</time>
      </trkpt>
      <trkpt lat="45.93793" lon="4.71732">
        <ele>175</ele>
        <time>2016-11-12T12:39:39Z</time>
      </trkpt>
      <trkpt lat="45.93787" lon="4.71734">
        <ele>175</ele>
        <time>2016-11-12T12:39:40Z</time>
      </trkpt>
      <trkpt lat="45.93782" lon="4.71736">
        <ele>175</ele>
        <time>2016-11-12T12:39:41Z</time>
      </trkpt>
      <trkpt lat="45.93777" lon="4.71737">
        <ele>175</ele>
        <time>2016-11-12T12:39:42Z</time>
      </trkpt>
      <trkpt lat="45.93771" lon="4.71739">
        <ele>175</ele>
        <time>2016-11-12T12:39:43Z</time>
      </trkpt>
      <trkpt lat="45.93766" lon="4.71741">
        <ele>175</ele>
        <time>2016-11-12T12:39:44Z</time>
      </trkpt>
      <trkpt lat="45.93761" lon="4.71743">
        <ele>175</ele>
        <time>2016-11-12T12:39:45Z</time>
      </trkpt>
      <trkpt lat="45.93756" lon="4.71745">
        <ele>175</ele>
        <time>2016-11-12T12:39:46Z</time>
      </trkpt>
      <trkpt lat="45.93752" lon="4.71747">
        <ele>175</ele>
        <time>2016-11-12T12:39:47Z</time>
      </trkpt>
      <trkpt lat="45.93743" lon="4.7175">
        <ele>175</ele>
        <time>2016-11-12T12:39:49Z</time>
      </trkpt>
      <trkpt lat="45.93738" lon="4.71752">
        <ele>176</ele>
        <time>2016-11-12T12:39:50Z</time>
      </trkpt>
      <trkpt lat="45.93731" lon="4.71756">
        <ele>176</ele>
        <time>2016-11-12T12:39:52Z</time>
      </trkpt>
      <trkpt lat="45.93728" lon="4.71757">
        <ele>176</ele>
        <time>2016-11-12T12:39:53Z</time>
      </trkpt>
      <trkpt lat="45.93722" lon="4.71762">
        <ele>176</ele>
        <time>2016-11-12T12:39:55Z</time>
      </trkpt>
      <trkpt lat="45.93719" lon="4.71765">
        <ele>176</ele>
        <time>2016-11-12T12:39:56Z</time>
      </trkpt>
      <trkpt lat="45.93713" lon="4.71773">
        <ele>176</ele>
        <time>2016-11-12T12:39:58Z</time>
      </trkpt>
      <trkpt lat="45.93711" lon="4.71778">
        <ele>176</ele>
        <time>2016-11-12T12:39:59Z</time>
      </trkpt>
      <trkpt lat="45.9371" lon="4.71784">
        <ele>176</ele>
        <time>2016-11-12T12:40:00Z</time>
      </trkpt>
      <trkpt lat="45.93708" lon="4.71791">
        <ele>176</ele>
        <time>2016-11-12T12:40:01Z</time>
      </trkpt>
      <trkpt lat="45.93707" lon="4.71798">
        <ele>176</ele>
        <time>2016-11-12T12:40:02Z</time>
      </trkpt>
      <trkpt lat="45.93706" lon="4.71804">
        <ele>176</ele>
        <time>2016-11-12T12:40:03Z</time>
      </trkpt>
      <trkpt lat="45.93704" lon="4.7181">
        <ele>176</ele>
        <time>2016-11-12T12:40:04Z</time>
      </trkpt>
      <trkpt lat="45.93702" lon="4.71817">
        <ele>176</ele>
        <time>2016-11-12T12:40:05Z</time>
      </trkpt>
      <trkpt lat="45.93699" lon="4.71824">
        <ele>176</ele>
        <time>2016-11-12T12:40:06Z</time>
      </trkpt>
      <trkpt lat="45.93697" lon="4.71831">
        <ele>176</ele>
        <time>2016-11-12T12:40:07Z</time>
      </trkpt>
      <trkpt lat="45.93695" lon="4.71838">
        <ele>175</ele>
        <time>2016-11-12T12:40:08Z</time>
      </trkpt>
      <trkpt lat="45.93693" lon="4.71844">
        <ele>175</ele>
        <time>2016-11-12T12:40:09Z</time>
      </trkpt>
      <trkpt lat="45.9369" lon="4.71851">
        <ele>175</ele>
        <time>2016-11-12T12:40:10Z</time>
      </trkpt>
      <trkpt lat="45.93688" lon="4.71857">
        <ele>175</ele>
        <time>2016-11-12T12:40:11Z</time>
      </trkpt>
      <trkpt lat="45.93685" lon="4.71864">
        <ele>175</ele>
        <time>2016-11-12T12:40:12Z</time>
      </trkpt>
      <trkpt lat="45.93682" lon="4.7187">
        <ele>175</ele>
        <time>2016-11-12T12:40:13Z</time>
      </trkpt>
      <trkpt lat="45.93679" lon="4.71877">
        <ele>175</ele>
        <time>2016-11-12T12:40:14Z</time>
      </trkpt>
      <trkpt lat="45.93676" lon="4.71883">
        <ele>175</ele>
        <time>2016-11-12T12:40:15Z</time>
      </trkpt>
      <trkpt lat="45.93672" lon="4.7189">
        <ele>175</ele>
        <time>2016-11-12T12:40:16Z</time>
      </trkpt>
      <trkpt lat="45.9367" lon="4.71898">
        <ele>175</ele>
        <time>2016-11-12T12:40:17Z</time>
      </trkpt>
      <trkpt lat="45.93668" lon="4.71905">
        <ele>175</ele>
        <time>2016-11-12T12:40:18Z</time>
      </trkpt>
      <trkpt lat="45.93666" lon="4.71913">
        <ele>175</ele>
        <time>2016-11-12T12:40:19Z</time>
      </trkpt>
      <trkpt lat="45.93664" lon="4.71921">
        <ele>175</ele>
        <time>2016-11-12T12:40:20Z</time>
      </trkpt>
      <trkpt lat="45.93662" lon="4.71929">
        <ele>175</ele>
        <time>2016-11-12T12:40:21Z</time>
      </trkpt>
      <trkpt lat="45.9366" lon="4.71936">
        <ele>175</ele>
        <time>2016-11-12T12:40:22Z</time>
      </trkpt>
      <trkpt lat="45.93657" lon="4.71943">
        <ele>175</ele>
        <time>2016-11-12T12:40:23Z</time>
      </trkpt>
      <trkpt lat="45.93655" lon="4.71951">
        <ele>175</ele>
        <time>2016-11-12T12:40:24Z</time>
      </trkpt>
      <trkpt lat="45.93653" lon="4.71957">
        <ele>175</ele>
        <time>2016-11-12T12:40:25Z</time>
      </trkpt>
      <trkpt lat="45.9365" lon="4.71964">
        <ele>175</ele>
        <time>2016-11-12T12:40:26Z</time>
      </trkpt>
      <trkpt lat="45.93648" lon="4.71971">
        <ele>175</ele>
        <time>2016-11-12T12:40:27Z</time>
      </trkpt>
      <trkpt lat="45.93645" lon="4.71977">
        <ele>175</ele>
        <time>2016-11-12T12:40:28Z</time>
      </trkpt>
      <trkpt lat="45.93642" lon="4.71984">
        <ele>175</ele>
        <time>2016-11-12T12:40:29Z</time>
      </trkpt>
      <trkpt lat="45.93639" lon="4.71991">
        <ele>175</ele>
        <time>2016-11-12T12:40:30Z</time>
      </trkpt>
      <trkpt lat="45.93636" lon="4.71998">
        <ele>175</ele>
        <time>2016-11-12T12:40:31Z</time>
      </trkpt>
      <trkpt lat="45.93633" lon="4.72005">
        <ele>174</ele>
        <time>2016-11-12T12:40:32Z</time>
      </trkpt>
      <trkpt lat="45.9363" lon="4.72012">
        <ele>174</ele>
        <time>2016-11-12T12:40:33Z</time>
      </trkpt>
      <trkpt lat="45.93628" lon="4.72019">
        <ele>175</ele>
        <time>2016-11-12T12:40:34Z</time>
      </trkpt>
      <trkpt lat="45.93625" lon="4.72027">
        <ele>175</ele>
        <time>2016-11-12T12:40:35Z</time>
      </trkpt>
      <trkpt lat="45.93622" lon="4.72034">
        <ele>175</ele>
        <time>2016-11-12T12:40:36Z</time>
      </trkpt>
      <trkpt lat="45.93619" lon="4.72042">
        <ele>175</ele>
        <time>2016-11-12T12:40:37Z</time>
      </trkpt>
      <trkpt lat="45.93615" lon="4.72049">
        <ele>175</ele>
        <time>2016-11-12T12:40:38Z</time>
      </trkpt>
      <trkpt lat="45.93613" lon="4.72056">
        <ele>175</ele>
        <time>2016-11-12T12:40:39Z</time>
      </trkpt>
      <trkpt lat="45.93611" lon="4.72065">
        <ele>175</ele>
        <time>2016-11-12T12:40:40Z</time>
      </trkpt>
      <trkpt lat="45.9361" lon="4.72073">
        <ele>175</ele>
        <time>2016-11-12T12:40:41Z</time>
      </trkpt>
      <trkpt lat="45.93609" lon="4.72081">
        <ele>175</ele>
        <time>2016-11-12T12:40:42Z</time>
      </trkpt>
      <trkpt lat="45.93605" lon="4.72087">
        <ele>174</ele>
        <time>2016-11-12T12:40:43Z</time>
      </trkpt>
      <trkpt lat="45.93602" lon="4.72094">
        <ele>174</ele>
        <time>2016-11-12T12:40:44Z</time>
      </trkpt>
      <trkpt lat="45.936" lon="4.72101">
        <ele>174</ele>
        <time>2016-11-12T12:40:45Z</time>
      </trkpt>
      <trkpt lat="45.93597" lon="4.72107">
        <ele>174</ele>
        <time>2016-11-12T12:40:46Z</time>
      </trkpt>
      <trkpt lat="45.93596" lon="4.72114">
        <ele>174</ele>
        <time>2016-11-12T12:40:47Z</time>
      </trkpt>
      <trkpt lat="45.93592" lon="4.7212">
        <ele>174</ele>
        <time>2016-11-12T12:40:48Z</time>
      </trkpt>
      <trkpt lat="45.93591" lon="4.72127">
        <ele>174</ele>
        <time>2016-11-12T12:40:49Z</time>
      </trkpt>
      <trkpt lat="45.93589" lon="4.72133">
        <ele>174</ele>
        <time>2016-11-12T12:40:50Z</time>
      </trkpt>
      <trkpt lat="45.93587" lon="4.72139">
        <ele>173</ele>
        <time>2016-11-12T12:40:51Z</time>
      </trkpt>
      <trkpt lat="45.93584" lon="4.72146">
        <ele>173</ele>
        <time>2016-11-12T12:40:52Z</time>
      </trkpt>
      <trkpt lat="45.93583" lon="4.72151">
        <ele>174</ele>
        <time>2016-11-12T12:40:53Z</time>
      </trkpt>
      <trkpt lat="45.9358" lon="4.72159">
        <ele>173</ele>
        <time>2016-11-12T12:40:54Z</time>
      </trkpt>
      <trkpt lat="45.93577" lon="4.72166">
        <ele>173</ele>
        <time>2016-11-12T12:40:55Z</time>
      </trkpt>
      <trkpt lat="45.93574" lon="4.72172">
        <ele>173</ele>
        <time>2016-11-12T12:40:56Z</time>
      </trkpt>
      <trkpt lat="45.9357" lon="4.72179">
        <ele>173</ele>
        <time>2016-11-12T12:40:57Z</time>
      </trkpt>
      <trkpt lat="45.93567" lon="4.72184">
        <ele>173</ele>
        <time>2016-11-12T12:40:58Z</time>
      </trkpt>
      <trkpt lat="45.93564" lon="4.7219">
        <ele>173</ele>
        <time>2016-11-12T12:40:59Z</time>
      </trkpt>
      <trkpt lat="45.9356" lon="4.72195">
        <ele>173</ele>
        <time>2016-11-12T12:41:00Z</time>
      </trkpt>
      <trkpt lat="45.93556" lon="4.72201">
        <ele>173</ele>
        <time>2016-11-12T12:41:01Z</time>
      </trkpt>
      <trkpt lat="45.93553" lon="4.72208">
        <ele>173</ele>
        <time>2016-11-12T12:41:02Z</time>
      </trkpt>
      <trkpt lat="45.9355" lon="4.72214">
        <ele>173</ele>
        <time>2016-11-12T12:41:03Z</time>
      </trkpt>
      <trkpt lat="45.93547" lon="4.7222">
        <ele>172</ele>
        <time>2016-11-12T12:41:04Z</time>
      </trkpt>
      <trkpt lat="45.93542" lon="4.72224">
        <ele>172</ele>
        <time>2016-11-12T12:41:05Z</time>
      </trkpt>
      <trkpt lat="45.93539" lon="4.72229">
        <ele>172</ele>
        <time>2016-11-12T12:41:06Z</time>
      </trkpt>
      <trkpt lat="45.93537" lon="4.72235">
        <ele>172</ele>
        <time>2016-11-12T12:41:07Z</time>
      </trkpt>
      <trkpt lat="45.93534" lon="4.72241">
        <ele>172</ele>
        <time>2016-11-12T12:41:08Z</time>
      </trkpt>
      <trkpt lat="45.93532" lon="4.72248">
        <ele>172</ele>
        <time>2016-11-12T12:41:09Z</time>
      </trkpt>
      <trkpt lat="45.93529" lon="4.72255">
        <ele>172</ele>
        <time>2016-11-12T12:41:10Z</time>
      </trkpt>
      <trkpt lat="45.93526" lon="4.72262">
        <ele>172</ele>
        <time>2016-11-12T12:41:11Z</time>
      </trkpt>
      <trkpt lat="45.93524" lon="4.7227">
        <ele>172</ele>
        <time>2016-11-12T12:41:12Z</time>
      </trkpt>
      <trkpt lat="45.93521" lon="4.72277">
        <ele>172</ele>
        <time>2016-11-12T12:41:13Z</time>
      </trkpt>
      <trkpt lat="45.93518" lon="4.72285">
        <ele>172</ele>
        <time>2016-11-12T12:41:14Z</time>
      </trkpt>
      <trkpt lat="45.93515" lon="4.72292">
        <ele>172</ele>
        <time>2016-11-12T12:41:15Z</time>
      </trkpt>
      <trkpt lat="45.93505" lon="4.72303">
        <ele>172</ele>
        <time>2016-11-12T12:41:17Z</time>
      </trkpt>
      <trkpt lat="45.935" lon="4.72311">
        <ele>173</ele>
        <time>2016-11-12T12:41:18Z</time>
      </trkpt>
      <trkpt lat="45.93496" lon="4.72318">
        <ele>173</ele>
        <time>2016-11-12T12:41:19Z</time>
      </trkpt>
      <trkpt lat="45.93492" lon="4.72324">
        <ele>173</ele>
        <time>2016-11-12T12:41:20Z</time>
      </trkpt>
      <trkpt lat="45.93487" lon="4.72331">
        <ele>173</ele>
        <time>2016-11-12T12:41:21Z</time>
      </trkpt>
      <trkpt lat="45.93482" lon="4.72337">
        <ele>173</ele>
        <time>2016-11-12T12:41:22Z</time>
      </trkpt>
      <trkpt lat="45.93477" lon="4.72344">
        <ele>173</ele>
        <time>2016-11-12T12:41:23Z</time>
      </trkpt>
      <trkpt lat="45.93472" lon="4.7235">
        <ele>173</ele>
        <time>2016-11-12T12:41:24Z</time>
      </trkpt>
      <trkpt lat="45.93468" lon="4.72356">
        <ele>173</ele>
        <time>2016-11-12T12:41:25Z</time>
      </trkpt>
      <trkpt lat="45.93463" lon="4.72362">
        <ele>173</ele>
        <time>2016-11-12T12:41:26Z</time>
      </trkpt>
      <trkpt lat="45.93459" lon="4.72369">
        <ele>173</ele>
        <time>2016-11-12T12:41:27Z</time>
      </trkpt>
      <trkpt lat="45.93454" lon="4.72374">
        <ele>173</ele>
        <time>2016-11-12T12:41:28Z</time>
      </trkpt>
      <trkpt lat="45.9345" lon="4.72379">
        <ele>173</ele>
        <time>2016-11-12T12:41:29Z</time>
      </trkpt>
      <trkpt lat="45.93445" lon="4.72384">
        <ele>173</ele>
        <time>2016-11-12T12:41:30Z</time>
      </trkpt>
      <trkpt lat="45.9344" lon="4.72388">
        <ele>173</ele>
        <time>2016-11-12T12:41:31Z</time>
      </trkpt>
      <trkpt lat="45.93434" lon="4.72393">
        <ele>173</ele>
        <time>2016-11-12T12:41:32Z</time>
      </trkpt>
      <trkpt lat="45.93424" lon="4.72399">
        <ele>174</ele>
        <time>2016-11-12T12:41:34Z</time>
      </trkpt>
      <trkpt lat="45.93419" lon="4.72402">
        <ele>174</ele>
        <time>2016-11-12T12:41:35Z</time>
      </trkpt>
      <trkpt lat="45.93414" lon="4.72403">
        <ele>174</ele>
        <time>2016-11-12T12:41:36Z</time>
      </trkpt>
      <trkpt lat="45.93408" lon="4.7241">
        <ele>174</ele>
        <time>2016-11-12T12:41:38Z</time>
      </trkpt>
      <trkpt lat="45.93406" lon="4.72412">
        <ele>174</ele>
        <time>2016-11-12T12:41:39Z</time>
      </trkpt>
      <trkpt lat="45.93402" lon="4.72418">
        <ele>174</ele>
        <time>2016-11-12T12:41:41Z</time>
      </trkpt>
      <trkpt lat="45.93397" lon="4.72415">
        <ele>174</ele>
        <time>2016-11-12T12:41:42Z</time>
      </trkpt>
      <trkpt lat="45.93388" lon="4.72415">
        <ele>174</ele>
        <time>2016-11-12T12:41:45Z</time>
      </trkpt>
      <trkpt lat="45.93383" lon="4.72419">
        <ele>173</ele>
        <time>2016-11-12T12:41:47Z</time>
      </trkpt>
      <trkpt lat="45.93384" lon="4.72426">
        <ele>173</ele>
        <time>2016-11-12T12:41:48Z</time>
      </trkpt>
      <trkpt lat="45.93386" lon="4.72432">
        <ele>173</ele>
        <time>2016-11-12T12:41:49Z</time>
      </trkpt>
      <trkpt lat="45.93388" lon="4.72438">
        <ele>173</ele>
        <time>2016-11-12T12:41:50Z</time>
      </trkpt>
      <trkpt lat="45.93391" lon="4.72446">
        <ele>173</ele>
        <time>2016-11-12T12:41:51Z</time>
      </trkpt>
      <trkpt lat="45.93393" lon="4.72454">
        <ele>173</ele>
        <time>2016-11-12T12:41:52Z</time>
      </trkpt>
      <trkpt lat="45.93394" lon="4.72461">
        <ele>173</ele>
        <time>2016-11-12T12:41:53Z</time>
      </trkpt>
      <trkpt lat="45.93393" lon="4.72468">
        <ele>173</ele>
        <time>2016-11-12T12:41:54Z</time>
      </trkpt>
      <trkpt lat="45.93391" lon="4.72474">
        <ele>173</ele>
        <time>2016-11-12T12:41:55Z</time>
      </trkpt>
      <trkpt lat="45.93386" lon="4.72479">
        <ele>173</ele>
        <time>2016-11-12T12:41:56Z</time>
      </trkpt>
      <trkpt lat="45.93382" lon="4.72483">
        <ele>173</ele>
        <time>2016-11-12T12:41:57Z</time>
      </trkpt>
      <trkpt lat="45.93377" lon="4.72488">
        <ele>173</ele>
        <time>2016-11-12T12:41:58Z</time>
      </trkpt>
      <trkpt lat="45.93373" lon="4.72492">
        <ele>173</ele>
        <time>2016-11-12T12:41:59Z</time>
      </trkpt>
      <trkpt lat="45.93369" lon="4.72497">
        <ele>173</ele>
        <time>2016-11-12T12:42:00Z</time>
      </trkpt>
      <trkpt lat="45.93364" lon="4.72501">
        <ele>172</ele>
        <time>2016-11-12T12:42:01Z</time>
      </trkpt>
      <trkpt lat="45.9336" lon="4.72507">
        <ele>172</ele>
        <time>2016-11-12T12:42:02Z</time>
      </trkpt>
      <trkpt lat="45.93357" lon="4.72511">
        <ele>172</ele>
        <time>2016-11-12T12:42:03Z</time>
      </trkpt>
      <trkpt lat="45.93352" lon="4.72515">
        <ele>172</ele>
        <time>2016-11-12T12:42:04Z</time>
      </trkpt>
      <trkpt lat="45.93348" lon="4.7252">
        <ele>172</ele>
        <time>2016-11-12T12:42:05Z</time>
      </trkpt>
      <trkpt lat="45.93343" lon="4.72525">
        <ele>172</ele>
        <time>2016-11-12T12:42:06Z</time>
      </trkpt>
      <trkpt lat="45.93339" lon="4.72529">
        <ele>172</ele>
        <time>2016-11-12T12:42:07Z</time>
      </trkpt>
      <trkpt lat="45.93335" lon="4.72533">
        <ele>172</ele>
        <time>2016-11-12T12:42:08Z</time>
      </trkpt>
      <trkpt lat="45.93331" lon="4.72537">
        <ele>172</ele>
        <time>2016-11-12T12:42:09Z</time>
      </trkpt>
      <trkpt lat="45.93326" lon="4.72542">
        <ele>172</ele>
        <time>2016-11-12T12:42:10Z</time>
      </trkpt>
      <trkpt lat="45.93322" lon="4.72547">
        <ele>172</ele>
        <time>2016-11-12T12:42:11Z</time>
      </trkpt>
      <trkpt lat="45.93318" lon="4.72552">
        <ele>172</ele>
        <time>2016-11-12T12:42:12Z</time>
      </trkpt>
      <trkpt lat="45.93312" lon="4.72556">
        <ele>172</ele>
        <time>2016-11-12T12:42:13Z</time>
      </trkpt>
      <trkpt lat="45.93307" lon="4.72561">
        <ele>172</ele>
        <time>2016-11-12T12:42:14Z</time>
      </trkpt>
      <trkpt lat="45.93302" lon="4.72565">
        <ele>172</ele>
        <time>2016-11-12T12:42:15Z</time>
      </trkpt>
      <trkpt lat="45.93297" lon="4.7257">
        <ele>171</ele>
        <time>2016-11-12T12:42:16Z</time>
      </trkpt>
      <trkpt lat="45.93293" lon="4.72575">
        <ele>171</ele>
        <time>2016-11-12T12:42:17Z</time>
      </trkpt>
      <trkpt lat="45.93288" lon="4.72579">
        <ele>171</ele>
        <time>2016-11-12T12:42:18Z</time>
      </trkpt>
      <trkpt lat="45.93284" lon="4.72584">
        <ele>170</ele>
        <time>2016-11-12T12:42:19Z</time>
      </trkpt>
      <trkpt lat="45.9328" lon="4.72589">
        <ele>170</ele>
        <time>2016-11-12T12:42:20Z</time>
      </trkpt>
      <trkpt lat="45.93275" lon="4.72594">
        <ele>170</ele>
        <time>2016-11-12T12:42:21Z</time>
      </trkpt>
      <trkpt lat="45.93271" lon="4.72599">
        <ele>170</ele>
        <time>2016-11-12T12:42:22Z</time>
      </trkpt>
      <trkpt lat="45.93267" lon="4.72604">
        <ele>170</ele>
        <time>2016-11-12T12:42:23Z</time>
      </trkpt>
      <trkpt lat="45.93263" lon="4.72609">
        <ele>170</ele>
        <time>2016-11-12T12:42:24Z</time>
      </trkpt>
      <trkpt lat="45.93259" lon="4.72613">
        <ele>170</ele>
        <time>2016-11-12T12:42:25Z</time>
      </trkpt>
      <trkpt lat="45.93255" lon="4.72618">
        <ele>170</ele>
        <time>2016-11-12T12:42:26Z</time>
      </trkpt>
      <trkpt lat="45.93251" lon="4.72623">
        <ele>170</ele>
        <time>2016-11-12T12:42:27Z</time>
      </trkpt>
      <trkpt lat="45.93247" lon="4.72627">
        <ele>170</ele>
        <time>2016-11-12T12:42:28Z</time>
      </trkpt>
      <trkpt lat="45.93243" lon="4.72632">
        <ele>170</ele>
        <time>2016-11-12T12:42:29Z</time>
      </trkpt>
      <trkpt lat="45.93239" lon="4.72637">
        <ele>170</ele>
        <time>2016-11-12T12:42:30Z</time>
      </trkpt>
      <trkpt lat="45.93235" lon="4.72642">
        <ele>170</ele>
        <time>2016-11-12T12:42:31Z</time>
      </trkpt>
      <trkpt lat="45.9323" lon="4.72647">
        <ele>170</ele>
        <time>2016-11-12T12:42:32Z</time>
      </trkpt>
      <trkpt lat="45.93226" lon="4.72652">
        <ele>170</ele>
        <time>2016-11-12T12:42:33Z</time>
      </trkpt>
      <trkpt lat="45.93222" lon="4.72657">
        <ele>170</ele>
        <time>2016-11-12T12:42:34Z</time>
      </trkpt>
      <trkpt lat="45.93218" lon="4.72663">
        <ele>170</ele>
        <time>2016-11-12T12:42:35Z</time>
      </trkpt>
      <trkpt lat="45.93213" lon="4.72667">
        <ele>169</ele>
        <time>2016-11-12T12:42:36Z</time>
      </trkpt>
      <trkpt lat="45.93209" lon="4.72672">
        <ele>169</ele>
        <time>2016-11-12T12:42:37Z</time>
      </trkpt>
      <trkpt lat="45.93205" lon="4.72676">
        <ele>169</ele>
        <time>2016-11-12T12:42:38Z</time>
      </trkpt>
      <trkpt lat="45.93201" lon="4.72681">
        <ele>169</ele>
        <time>2016-11-12T12:42:39Z</time>
      </trkpt>
      <trkpt lat="45.93197" lon="4.72685">
        <ele>169</ele>
        <time>2016-11-12T12:42:40Z</time>
      </trkpt>
      <trkpt lat="45.93193" lon="4.7269">
        <ele>169</ele>
        <time>2016-11-12T12:42:41Z</time>
      </trkpt>
      <trkpt lat="45.93189" lon="4.72695">
        <ele>169</ele>
        <time>2016-11-12T12:42:42Z</time>
      </trkpt>
      <trkpt lat="45.93185" lon="4.72699">
        <ele>169</ele>
        <time>2016-11-12T12:42:43Z</time>
      </trkpt>
      <trkpt lat="45.93181" lon="4.72704">
        <ele>169</ele>
        <time>2016-11-12T12:42:44Z</time>
      </trkpt>
      <trkpt lat="45.93177" lon="4.72709">
        <ele>169</ele>
        <time>2016-11-12T12:42:45Z</time>
      </trkpt>
      <trkpt lat="45.93172" lon="4.72714">
        <ele>170</ele>
        <time>2016-11-12T12:42:46Z</time>
      </trkpt>
      <trkpt lat="45.93167" lon="4.7272">
        <ele>170</ele>
        <time>2016-11-12T12:42:47Z</time>
      </trkpt>
      <trkpt lat="45.93163" lon="4.72725">
        <ele>170</ele>
        <time>2016-11-12T12:42:48Z</time>
      </trkpt>
      <trkpt lat="45.93158" lon="4.72729">
        <ele>170</ele>
        <time>2016-11-12T12:42:49Z</time>
      </trkpt>
      <trkpt lat="45.93153" lon="4.72734">
        <ele>170</ele>
        <time>2016-11-12T12:42:50Z</time>
      </trkpt>
      <trkpt lat="45.93148" lon="4.7274">
        <ele>170</ele>
        <time>2016-11-12T12:42:51Z</time>
      </trkpt>
      <trkpt lat="45.93143" lon="4.72746">
        <ele>170</ele>
        <time>2016-11-12T12:42:52Z</time>
      </trkpt>
      <trkpt lat="45.93139" lon="4.72752">
        <ele>171</ele>
        <time>2016-11-12T12:42:53Z</time>
      </trkpt>
      <trkpt lat="45.93134" lon="4.72757">
        <ele>171</ele>
        <time>2016-11-12T12:42:54Z</time>
      </trkpt>
      <trkpt lat="45.93129" lon="4.72763">
        <ele>171</ele>
        <time>2016-11-12T12:42:55Z</time>
      </trkpt>
      <trkpt lat="45.93124" lon="4.72769">
        <ele>171</ele>
        <time>2016-11-12T12:42:56Z</time>
      </trkpt>
      <trkpt lat="45.9312" lon="4.72775">
        <ele>171</ele>
        <time>2016-11-12T12:42:57Z</time>
      </trkpt>
      <trkpt lat="45.93115" lon="4.72781">
        <ele>171</ele>
        <time>2016-11-12T12:42:58Z</time>
      </trkpt>
      <trkpt lat="45.9311" lon="4.72786">
        <ele>171</ele>
        <time>2016-11-12T12:42:59Z</time>
      </trkpt>
      <trkpt lat="45.93106" lon="4.72792">
        <ele>171</ele>
        <time>2016-11-12T12:43:00Z</time>
      </trkpt>
      <trkpt lat="45.93101" lon="4.72798">
        <ele>171</ele>
        <time>2016-11-12T12:43:01Z</time>
      </trkpt>
      <trkpt lat="45.93097" lon="4.72803">
        <ele>171</ele>
        <time>2016-11-12T12:43:02Z</time>
      </trkpt>
      <trkpt lat="45.93093" lon="4.72809">
        <ele>172</ele>
        <time>2016-11-12T12:43:03Z</time>
      </trkpt>
      <trkpt lat="45.93089" lon="4.72816">
        <ele>172</ele>
        <time>2016-11-12T12:43:04Z</time>
      </trkpt>
      <trkpt lat="45.93085" lon="4.72823">
        <ele>172</ele>
        <time>2016-11-12T12:43:05Z</time>
      </trkpt>
      <trkpt lat="45.93082" lon="4.7283">
        <ele>173</ele>
        <time>2016-11-12T12:43:06Z</time>
      </trkpt>
      <trkpt lat="45.93079" lon="4.72837">
        <ele>173</ele>
        <time>2016-11-12T12:43:07Z</time>
      </trkpt>
      <trkpt lat="45.93076" lon="4.72843">
        <ele>173</ele>
        <time>2016-11-12T12:43:08Z</time>
      </trkpt>
      <trkpt lat="45.93073" lon="4.72849">
        <ele>172</ele>
        <time>2016-11-12T12:43:09Z</time>
      </trkpt>
      <trkpt lat="45.9307" lon="4.72855">
        <ele>172</ele>
        <time>2016-11-12T12:43:10Z</time>
      </trkpt>
      <trkpt lat="45.93068" lon="4.72862">
        <ele>172</ele>
        <time>2016-11-12T12:43:11Z</time>
      </trkpt>
      <trkpt lat="45.93058" lon="4.72866">
        <ele>172</ele>
        <time>2016-11-12T12:43:12Z</time>
      </trkpt>
      <trkpt lat="45.93049" lon="4.7287">
        <ele>172</ele>
        <time>2016-11-12T12:43:13Z</time>
      </trkpt>
      <trkpt lat="45.93043" lon="4.72873">
        <ele>172</ele>
        <time>2016-11-12T12:43:14Z</time>
      </trkpt>
      <trkpt lat="45.93037" lon="4.72875">
        <ele>172</ele>
        <time>2016-11-12T12:43:15Z</time>
      </trkpt>
      <trkpt lat="45.93032" lon="4.72879">
        <ele>172</ele>
        <time>2016-11-12T12:43:16Z</time>
      </trkpt>
      <trkpt lat="45.93028" lon="4.72883">
        <ele>172</ele>
        <time>2016-11-12T12:43:17Z</time>
      </trkpt>
      <trkpt lat="45.93024" lon="4.72887">
        <ele>172</ele>
        <time>2016-11-12T12:43:18Z</time>
      </trkpt>
      <trkpt lat="45.9302" lon="4.7289">
        <ele>172</ele>
        <time>2016-11-12T12:43:19Z</time>
      </trkpt>
      <trkpt lat="45.93017" lon="4.72895">
        <ele>172</ele>
        <time>2016-11-12T12:43:20Z</time>
      </trkpt>
      <trkpt lat="45.93013" lon="4.72899">
        <ele>172</ele>
        <time>2016-11-12T12:43:21Z</time>
      </trkpt>
      <trkpt lat="45.93009" lon="4.72904">
        <ele>171</ele>
        <time>2016-11-12T12:43:22Z</time>
      </trkpt>
      <trkpt lat="45.93005" lon="4.72908">
        <ele>171</ele>
        <time>2016-11-12T12:43:23Z</time>
      </trkpt>
      <trkpt lat="45.93001" lon="4.72913">
        <ele>171</ele>
        <time>2016-11-12T12:43:24Z</time>
      </trkpt>
      <trkpt lat="45.92997" lon="4.72918">
        <ele>171</ele>
        <time>2016-11-12T12:43:25Z</time>
      </trkpt>
      <trkpt lat="45.92993" lon="4.72922">
        <ele>171</ele>
        <time>2016-11-12T12:43:26Z</time>
      </trkpt>
      <trkpt lat="45.92989" lon="4.72927">
        <ele>171</ele>
        <time>2016-11-12T12:43:27Z</time>
      </trkpt>
      <trkpt lat="45.92985" lon="4.72932">
        <ele>171</ele>
        <time>2016-11-12T12:43:28Z</time>
      </trkpt>
      <trkpt lat="45.92981" lon="4.72937">
        <ele>171</ele>
        <time>2016-11-12T12:43:29Z</time>
      </trkpt>
      <trkpt lat="45.92977" lon="4.72941">
        <ele>171</ele>
        <time>2016-11-12T12:43:30Z</time>
      </trkpt>
      <trkpt lat="45.92973" lon="4.72946">
        <ele>171</ele>
        <time>2016-11-12T12:43:31Z</time>
      </trkpt>
      <trkpt lat="45.92969" lon="4.72951">
        <ele>171</ele>
        <time>2016-11-12T12:43:32Z</time>
      </trkpt>
      <trkpt lat="45.92965" lon="4.72956">
        <ele>171</ele>
        <time>2016-11-12T12:43:33Z</time>
      </trkpt>
      <trkpt lat="45.92961" lon="4.72961">
        <ele>171</ele>
        <time>2016-11-12T12:43:34Z</time>
      </trkpt>
      <trkpt lat="45.92957" lon="4.72966">
        <ele>171</ele>
        <time>2016-11-12T12:43:35Z</time>
      </trkpt>
      <trkpt lat="45.92953" lon="4.7297">
        <ele>171</ele>
        <time>2016-11-12T12:43:36Z</time>
      </trkpt>
      <trkpt lat="45.92949" lon="4.72975">
        <ele>171</ele>
        <time>2016-11-12T12:43:37Z</time>
      </trkpt>
      <trkpt lat="45.92945" lon="4.7298">
        <ele>171</ele>
        <time>2016-11-12T12:43:38Z</time>
      </trkpt>
      <trkpt lat="45.92941" lon="4.72984">
        <ele>171</ele>
        <time>2016-11-12T12:43:39Z</time>
      </trkpt>
      <trkpt lat="45.92938" lon="4.72989">
        <ele>171</ele>
        <time>2016-11-12T12:43:40Z</time>
      </trkpt>
      <trkpt lat="45.92934" lon="4.72994">
        <ele>172</ele>
        <time>2016-11-12T12:43:41Z</time>
      </trkpt>
      <trkpt lat="45.9293" lon="4.72999">
        <ele>172</ele>
        <time>2016-11-12T12:43:42Z</time>
      </trkpt>
      <trkpt lat="45.92926" lon="4.73004">
        <ele>172</ele>
        <time>2016-11-12T12:43:43Z</time>
      </trkpt>
      <trkpt lat="45.92922" lon="4.73009">
        <ele>172</ele>
        <time>2016-11-12T12:43:44Z</time>
      </trkpt>
      <trkpt lat="45.92918" lon="4.73013">
        <ele>172</ele>
        <time>2016-11-12T12:43:45Z</time>
      </trkpt>
      <trkpt lat="45.92914" lon="4.73018">
        <ele>172</ele>
        <time>2016-11-12T12:43:46Z</time>
      </trkpt>
      <trkpt lat="45.9291" lon="4.73024">
        <ele>172</ele>
        <time>2016-11-12T12:43:47Z</time>
      </trkpt>
      <trkpt lat="45.92906" lon="4.73029">
        <ele>172</ele>
        <time>2016-11-12T12:43:48Z</time>
      </trkpt>
      <trkpt lat="45.92903" lon="4.73034">
        <ele>172</ele>
        <time>2016-11-12T12:43:49Z</time>
      </trkpt>
      <trkpt lat="45.92899" lon="4.73039">
        <ele>172</ele>
        <time>2016-11-12T12:43:50Z</time>
      </trkpt>
      <trkpt lat="45.92896" lon="4.73044">
        <ele>172</ele>
        <time>2016-11-12T12:43:51Z</time>
      </trkpt>
      <trkpt lat="45.92892" lon="4.7305">
        <ele>172</ele>
        <time>2016-11-12T12:43:52Z</time>
      </trkpt>
      <trkpt lat="45.92889" lon="4.73055">
        <ele>172</ele>
        <time>2016-11-12T12:43:53Z</time>
      </trkpt>
      <trkpt lat="45.92886" lon="4.73061">
        <ele>172</ele>
        <time>2016-11-12T12:43:54Z</time>
      </trkpt>
      <trkpt lat="45.92883" lon="4.73066">
        <ele>172</ele>
        <time>2016-11-12T12:43:55Z</time>
      </trkpt>
      <trkpt lat="45.9288" lon="4.73072">
        <ele>172</ele>
        <time>2016-11-12T12:43:56Z</time>
      </trkpt>
      <trkpt lat="45.92878" lon="4.73078">
        <ele>172</ele>
        <time>2016-11-12T12:43:57Z</time>
      </trkpt>
      <trkpt lat="45.92875" lon="4.73083">
        <ele>172</ele>
        <time>2016-11-12T12:43:58Z</time>
      </trkpt>
      <trkpt lat="45.92873" lon="4.73089">
        <ele>172</ele>
        <time>2016-11-12T12:43:59Z</time>
      </trkpt>
      <trkpt lat="45.92871" lon="4.73095">
        <ele>172</ele>
        <time>2016-11-12T12:44:00Z</time>
      </trkpt>
      <trkpt lat="45.92869" lon="4.73102">
        <ele>172</ele>
        <time>2016-11-12T12:44:01Z</time>
      </trkpt>
      <trkpt lat="45.92868" lon="4.73108">
        <ele>171</ele>
        <time>2016-11-12T12:44:02Z</time>
      </trkpt>
      <trkpt lat="45.92866" lon="4.73115">
        <ele>171</ele>
        <time>2016-11-12T12:44:03Z</time>
      </trkpt>
      <trkpt lat="45.92865" lon="4.73123">
        <ele>171</ele>
        <time>2016-11-12T12:44:04Z</time>
      </trkpt>
      <trkpt lat="45.92864" lon="4.7313">
        <ele>171</ele>
        <time>2016-11-12T12:44:05Z</time>
      </trkpt>
      <trkpt lat="45.92863" lon="4.73138">
        <ele>171</ele>
        <time>2016-11-12T12:44:06Z</time>
      </trkpt>
      <trkpt lat="45.92861" lon="4.73147">
        <ele>171</ele>
        <time>2016-11-12T12:44:07Z</time>
      </trkpt>
      <trkpt lat="45.9286" lon="4.73155">
        <ele>171</ele>
        <time>2016-11-12T12:44:08Z</time>
      </trkpt>
      <trkpt lat="45.92859" lon="4.73163">
        <ele>171</ele>
        <time>2016-11-12T12:44:09Z</time>
      </trkpt>
      <trkpt lat="45.92858" lon="4.73171">
        <ele>171</ele>
        <time>2016-11-12T12:44:10Z</time>
      </trkpt>
      <trkpt lat="45.92857" lon="4.73179">
        <ele>171</ele>
        <time>2016-11-12T12:44:11Z</time>
      </trkpt>
      <trkpt lat="45.92856" lon="4.73187">
        <ele>171</ele>
        <time>2016-11-12T12:44:12Z</time>
      </trkpt>
      <trkpt lat="45.92855" lon="4.73195">
        <ele>171</ele>
        <time>2016-11-12T12:44:13Z</time>
      </trkpt>
      <trkpt lat="45.92855" lon="4.73203">
        <ele>171</ele>
        <time>2016-11-12T12:44:14Z</time>
      </trkpt>
      <trkpt lat="45.92854" lon="4.73211">
        <ele>171</ele>
        <time>2016-11-12T12:44:15Z</time>
      </trkpt>
      <trkpt lat="45.92853" lon="4.73218">
        <ele>171</ele>
        <time>2016-11-12T12:44:16Z</time>
      </trkpt>
      <trkpt lat="45.92853" lon="4.73227">
        <ele>171</ele>
        <time>2016-11-12T12:44:17Z</time>
      </trkpt>
      <trkpt lat="45.92852" lon="4.73234">
        <ele>171</ele>
        <time>2016-11-12T12:44:18Z</time>
      </trkpt>
      <trkpt lat="45.92852" lon="4.73242">
        <ele>171</ele>
        <time>2016-11-12T12:44:19Z</time>
      </trkpt>
      <trkpt lat="45.92852" lon="4.7325">
        <ele>171</ele>
        <time>2016-11-12T12:44:20Z</time>
      </trkpt>
      <trkpt lat="45.92851" lon="4.73259">
        <ele>171</ele>
        <time>2016-11-12T12:44:21Z</time>
      </trkpt>
      <trkpt lat="45.9285" lon="4.73267">
        <ele>171</ele>
        <time>2016-11-12T12:44:22Z</time>
      </trkpt>
      <trkpt lat="45.92849" lon="4.73276">
        <ele>171</ele>
        <time>2016-11-12T12:44:23Z</time>
      </trkpt>
      <trkpt lat="45.92848" lon="4.73284">
        <ele>171</ele>
        <time>2016-11-12T12:44:24Z</time>
      </trkpt>
      <trkpt lat="45.92847" lon="4.73292">
        <ele>171</ele>
        <time>2016-11-12T12:44:25Z</time>
      </trkpt>
      <trkpt lat="45.92845" lon="4.73299">
        <ele>171</ele>
        <time>2016-11-12T12:44:26Z</time>
      </trkpt>
      <trkpt lat="45.92844" lon="4.73306">
        <ele>171</ele>
        <time>2016-11-12T12:44:27Z</time>
      </trkpt>
      <trkpt lat="45.92844" lon="4.73313">
        <ele>171</ele>
        <time>2016-11-12T12:44:28Z</time>
      </trkpt>
      <trkpt lat="45.92843" lon="4.7332">
        <ele>171</ele>
        <time>2016-11-12T12:44:29Z</time>
      </trkpt>
      <trkpt lat="45.92842" lon="4.73327">
        <ele>171</ele>
        <time>2016-11-12T12:44:30Z</time>
      </trkpt>
      <trkpt lat="45.92841" lon="4.73334">
        <ele>171</ele>
        <time>2016-11-12T12:44:31Z</time>
      </trkpt>
      <trkpt lat="45.9284" lon="4.73341">
        <ele>171</ele>
        <time>2016-11-12T12:44:32Z</time>
      </trkpt>
      <trkpt lat="45.92838" lon="4.73348">
        <ele>171</ele>
        <time>2016-11-12T12:44:33Z</time>
      </trkpt>
      <trkpt lat="45.92838" lon="4.73355">
        <ele>171</ele>
        <time>2016-11-12T12:44:34Z</time>
      </trkpt>
      <trkpt lat="45.92837" lon="4.73363">
        <ele>171</ele>
        <time>2016-11-12T12:44:35Z</time>
      </trkpt>
      <trkpt lat="45.92836" lon="4.7337">
        <ele>171</ele>
        <time>2016-11-12T12:44:36Z</time>
      </trkpt>
      <trkpt lat="45.92835" lon="4.73378">
        <ele>172</ele>
        <time>2016-11-12T12:44:37Z</time>
      </trkpt>
      <trkpt lat="45.92834" lon="4.73385">
        <ele>172</ele>
        <time>2016-11-12T12:44:38Z</time>
      </trkpt>
      <trkpt lat="45.92833" lon="4.73392">
        <ele>172</ele>
        <time>2016-11-12T12:44:39Z</time>
      </trkpt>
      <trkpt lat="45.92832" lon="4.734">
        <ele>172</ele>
        <time>2016-11-12T12:44:40Z</time>
      </trkpt>
      <trkpt lat="45.92831" lon="4.73407">
        <ele>172</ele>
        <time>2016-11-12T12:44:41Z</time>
      </trkpt>
      <trkpt lat="45.9283" lon="4.73415">
        <ele>172</ele>
        <time>2016-11-12T12:44:42Z</time>
      </trkpt>
      <trkpt lat="45.92829" lon="4.73423">
        <ele>172</ele>
        <time>2016-11-12T12:44:43Z</time>
      </trkpt>
      <trkpt lat="45.92828" lon="4.7343">
        <ele>172</ele>
        <time>2016-11-12T12:44:44Z</time>
      </trkpt>
      <trkpt lat="45.92827" lon="4.73438">
        <ele>172</ele>
        <time>2016-11-12T12:44:45Z</time>
      </trkpt>
      <trkpt lat="45.92826" lon="4.73445">
        <ele>172</ele>
        <time>2016-11-12T12:44:46Z</time>
      </trkpt>
      <trkpt lat="45.92825" lon="4.73453">
        <ele>172</ele>
        <time>2016-11-12T12:44:47Z</time>
      </trkpt>
      <trkpt lat="45.92824" lon="4.73462">
        <ele>171</ele>
        <time>2016-11-12T12:44:48Z</time>
      </trkpt>
      <trkpt lat="45.92824" lon="4.73471">
        <ele>172</ele>
        <time>2016-11-12T12:44:49Z</time>
      </trkpt>
      <trkpt lat="45.92823" lon="4.73478">
        <ele>172</ele>
        <time>2016-11-12T12:44:50Z</time>
      </trkpt>
      <trkpt lat="45.9282" lon="4.73491">
        <ele>172</ele>
        <time>2016-11-12T12:44:52Z</time>
      </trkpt>
      <trkpt lat="45.92819" lon="4.73498">
        <ele>172</ele>
        <time>2016-11-12T12:44:53Z</time>
      </trkpt>
      <trkpt lat="45.92816" lon="4.7355">
        <ele>171</ele>
        <time>2016-11-12T12:45:00Z</time>
      </trkpt>
      <trkpt lat="45.92816" lon="4.73558">
        <ele>171</ele>
        <time>2016-11-12T12:45:01Z</time>
      </trkpt>
      <trkpt lat="45.92816" lon="4.73565">
        <ele>171</ele>
        <time>2016-11-12T12:45:02Z</time>
      </trkpt>
      <trkpt lat="45.92816" lon="4.73577">
        <ele>171</ele>
        <time>2016-11-12T12:45:04Z</time>
      </trkpt>
      <trkpt lat="45.92816" lon="4.73585">
        <ele>171</ele>
        <time>2016-11-12T12:45:05Z</time>
      </trkpt>
      <trkpt lat="45.92816" lon="4.73593">
        <ele>171</ele>
        <time>2016-11-12T12:45:06Z</time>
      </trkpt>
      <trkpt lat="45.92817" lon="4.736">
        <ele>171</ele>
        <time>2016-11-12T12:45:07Z</time>
      </trkpt>
      <trkpt lat="45.92816" lon="4.73608">
        <ele>172</ele>
        <time>2016-11-12T12:45:08Z</time>
      </trkpt>
      <trkpt lat="45.92817" lon="4.73615">
        <ele>172</ele>
        <time>2016-11-12T12:45:09Z</time>
      </trkpt>
      <trkpt lat="45.92816" lon="4.73622">
        <ele>172</ele>
        <time>2016-11-12T12:45:10Z</time>
      </trkpt>
      <trkpt lat="45.92816" lon="4.73632">
        <ele>172</ele>
        <time>2016-11-12T12:45:11Z</time>
      </trkpt>
      <trkpt lat="45.92814" lon="4.73639">
        <ele>172</ele>
        <time>2016-11-12T12:45:12Z</time>
      </trkpt>
      <trkpt lat="45.9281" lon="4.73646">
        <ele>172</ele>
        <time>2016-11-12T12:45:13Z</time>
      </trkpt>
      <trkpt lat="45.92806" lon="4.73652">
        <ele>172</ele>
        <time>2016-11-12T12:45:14Z</time>
      </trkpt>
      <trkpt lat="45.92802" lon="4.73659">
        <ele>172</ele>
        <time>2016-11-12T12:45:15Z</time>
      </trkpt>
      <trkpt lat="45.92796" lon="4.73662">
        <ele>172</ele>
        <time>2016-11-12T12:45:17Z</time>
      </trkpt>
      <trkpt lat="45.92794" lon="4.73668">
        <ele>172</ele>
        <time>2016-11-12T12:45:18Z</time>
      </trkpt>
      <trkpt lat="45.92791" lon="4.73679">
        <ele>172</ele>
        <time>2016-11-12T12:45:20Z</time>
      </trkpt>
      <trkpt lat="45.92789" lon="4.73684">
        <ele>172</ele>
        <time>2016-11-12T12:45:21Z</time>
      </trkpt>
      <trkpt lat="45.92786" lon="4.73693">
        <ele>172</ele>
        <time>2016-11-12T12:45:23Z</time>
      </trkpt>
      <trkpt lat="45.92785" lon="4.73698">
        <ele>172</ele>
        <time>2016-11-12T12:45:24Z</time>
      </trkpt>
      <trkpt lat="45.92782" lon="4.73707">
        <ele>172</ele>
        <time>2016-11-12T12:45:26Z</time>
      </trkpt>
      <trkpt lat="45.9278" lon="4.73712">
        <ele>172</ele>
        <time>2016-11-12T12:45:27Z</time>
      </trkpt>
      <trkpt lat="45.92779" lon="4.73722">
        <ele>172</ele>
        <time>2016-11-12T12:45:29Z</time>
      </trkpt>
      <trkpt lat="45.92777" lon="4.73725">
        <ele>172</ele>
        <time>2016-11-12T12:45:30Z</time>
      </trkpt>
      <trkpt lat="45.9277" lon="4.73726">
        <ele>172</ele>
        <time>2016-11-12T12:45:32Z</time>
      </trkpt>
      <trkpt lat="45.92766" lon="4.73724">
        <ele>172</ele>
        <time>2016-11-12T12:45:33Z</time>
      </trkpt>
      <trkpt lat="45.92758" lon="4.73723">
        <ele>172</ele>
        <time>2016-11-12T12:45:35Z</time>
      </trkpt>
      <trkpt lat="45.92754" lon="4.73722">
        <ele>172</ele>
        <time>2016-11-12T12:45:36Z</time>
      </trkpt>
      <trkpt lat="45.92749" lon="4.7372">
        <ele>173</ele>
        <time>2016-11-12T12:45:37Z</time>
      </trkpt>
      <trkpt lat="45.92744" lon="4.73719">
        <ele>173</ele>
        <time>2016-11-12T12:45:38Z</time>
      </trkpt>
      <trkpt lat="45.92739" lon="4.73718">
        <ele>173</ele>
        <time>2016-11-12T12:45:39Z</time>
      </trkpt>
      <trkpt lat="45.92734" lon="4.73718">
        <ele>173</ele>
        <time>2016-11-12T12:45:40Z</time>
      </trkpt>
      <trkpt lat="45.92729" lon="4.73717">
        <ele>173</ele>
        <time>2016-11-12T12:45:41Z</time>
      </trkpt>
      <trkpt lat="45.92724" lon="4.73716">
        <ele>173</ele>
        <time>2016-11-12T12:45:42Z</time>
      </trkpt>
      <trkpt lat="45.92719" lon="4.73715">
        <ele>173</ele>
        <time>2016-11-12T12:45:43Z</time>
      </trkpt>
      <trkpt lat="45.92714" lon="4.73714">
        <ele>173</ele>
        <time>2016-11-12T12:45:44Z</time>
      </trkpt>
      <trkpt lat="45.9271" lon="4.73711">
        <ele>173</ele>
        <time>2016-11-12T12:45:45Z</time>
      </trkpt>
      <trkpt lat="45.92706" lon="4.73709">
        <ele>173</ele>
        <time>2016-11-12T12:45:46Z</time>
      </trkpt>
      <trkpt lat="45.92702" lon="4.73706">
        <ele>173</ele>
        <time>2016-11-12T12:45:47Z</time>
      </trkpt>
      <trkpt lat="45.92696" lon="4.73702">
        <ele>173</ele>
        <time>2016-11-12T12:45:48Z</time>
      </trkpt>
      <trkpt lat="45.92692" lon="4.737">
        <ele>173</ele>
        <time>2016-11-12T12:45:49Z</time>
      </trkpt>
      <trkpt lat="45.92687" lon="4.73698">
        <ele>173</ele>
        <time>2016-11-12T12:45:50Z</time>
      </trkpt>
      <trkpt lat="45.92679" lon="4.73696">
        <ele>173</ele>
        <time>2016-11-12T12:45:52Z</time>
      </trkpt>
      <trkpt lat="45.92676" lon="4.73696">
        <ele>174</ele>
        <time>2016-11-12T12:45:53Z</time>
      </trkpt>
      <trkpt lat="45.92671" lon="4.73694">
        <ele>174</ele>
        <time>2016-11-12T12:45:54Z</time>
      </trkpt>
      <trkpt lat="45.92667" lon="4.73692">
        <ele>173</ele>
        <time>2016-11-12T12:45:55Z</time>
      </trkpt>
      <trkpt lat="45.9266" lon="4.73689">
        <ele>173</ele>
        <time>2016-11-12T12:45:57Z</time>
      </trkpt>
      <trkpt lat="45.92657" lon="4.73686">
        <ele>173</ele>
        <time>2016-11-12T12:45:58Z</time>
      </trkpt>
      <trkpt lat="45.92652" lon="4.73683">
        <ele>173</ele>
        <time>2016-11-12T12:45:59Z</time>
      </trkpt>
      <trkpt lat="45.92648" lon="4.73678">
        <ele>173</ele>
        <time>2016-11-12T12:46:00Z</time>
      </trkpt>
      <trkpt lat="45.92641" lon="4.7367">
        <ele>173</ele>
        <time>2016-11-12T12:46:02Z</time>
      </trkpt>
      <trkpt lat="45.92638" lon="4.73666">
        <ele>173</ele>
        <time>2016-11-12T12:46:03Z</time>
      </trkpt>
      <trkpt lat="45.92636" lon="4.7366">
        <ele>173</ele>
        <time>2016-11-12T12:46:04Z</time>
      </trkpt>
      <trkpt lat="45.92633" lon="4.73654">
        <ele>173</ele>
        <time>2016-11-12T12:46:05Z</time>
      </trkpt>
      <trkpt lat="45.92631" lon="4.73647">
        <ele>173</ele>
        <time>2016-11-12T12:46:06Z</time>
      </trkpt>
      <trkpt lat="45.92628" lon="4.73641">
        <ele>173</ele>
        <time>2016-11-12T12:46:07Z</time>
      </trkpt>
      <trkpt lat="45.92625" lon="4.73635">
        <ele>173</ele>
        <time>2016-11-12T12:46:08Z</time>
      </trkpt>
      <trkpt lat="45.92621" lon="4.73631">
        <ele>173</ele>
        <time>2016-11-12T12:46:09Z</time>
      </trkpt>
      <trkpt lat="45.92617" lon="4.73627">
        <ele>173</ele>
        <time>2016-11-12T12:46:10Z</time>
      </trkpt>
      <trkpt lat="45.92612" lon="4.73624">
        <ele>173</ele>
        <time>2016-11-12T12:46:11Z</time>
      </trkpt>
      <trkpt lat="45.92607" lon="4.73622">
        <ele>173</ele>
        <time>2016-11-12T12:46:12Z</time>
      </trkpt>
      <trkpt lat="45.92602" lon="4.73621">
        <ele>173</ele>
        <time>2016-11-12T12:46:13Z</time>
      </trkpt>
      <trkpt lat="45.92597" lon="4.73622">
        <ele>173</ele>
        <time>2016-11-12T12:46:14Z</time>
      </trkpt>
      <trkpt lat="45.92591" lon="4.73623">
        <ele>173</ele>
        <time>2016-11-12T12:46:15Z</time>
      </trkpt>
      <trkpt lat="45.92586" lon="4.73623">
        <ele>173</ele>
        <time>2016-11-12T12:46:16Z</time>
      </trkpt>
      <trkpt lat="45.92581" lon="4.73624">
        <ele>173</ele>
        <time>2016-11-12T12:46:17Z</time>
      </trkpt>
      <trkpt lat="45.92576" lon="4.73625">
        <ele>173</ele>
        <time>2016-11-12T12:46:18Z</time>
      </trkpt>
      <trkpt lat="45.9257" lon="4.73626">
        <ele>173</ele>
        <time>2016-11-12T12:46:19Z</time>
      </trkpt>
      <trkpt lat="45.92564" lon="4.73627">
        <ele>173</ele>
        <time>2016-11-12T12:46:20Z</time>
      </trkpt>
      <trkpt lat="45.92558" lon="4.73629">
        <ele>173</ele>
        <time>2016-11-12T12:46:21Z</time>
      </trkpt>
      <trkpt lat="45.92552" lon="4.7363">
        <ele>173</ele>
        <time>2016-11-12T12:46:22Z</time>
      </trkpt>
      <trkpt lat="45.92547" lon="4.7363">
        <ele>173</ele>
        <time>2016-11-12T12:46:23Z</time>
      </trkpt>
      <trkpt lat="45.92541" lon="4.73631">
        <ele>173</ele>
        <time>2016-11-12T12:46:24Z</time>
      </trkpt>
      <trkpt lat="45.92535" lon="4.73632">
        <ele>173</ele>
        <time>2016-11-12T12:46:25Z</time>
      </trkpt>
      <trkpt lat="45.9253" lon="4.73634">
        <ele>173</ele>
        <time>2016-11-12T12:46:26Z</time>
      </trkpt>
      <trkpt lat="45.92525" lon="4.73635">
        <ele>173</ele>
        <time>2016-11-12T12:46:27Z</time>
      </trkpt>
      <trkpt lat="45.9252" lon="4.73635">
        <ele>173</ele>
        <time>2016-11-12T12:46:28Z</time>
      </trkpt>
      <trkpt lat="45.92516" lon="4.73635">
        <ele>173</ele>
        <time>2016-11-12T12:46:29Z</time>
      </trkpt>
      <trkpt lat="45.92511" lon="4.73636">
        <ele>173</ele>
        <time>2016-11-12T12:46:30Z</time>
      </trkpt>
      <trkpt lat="45.92507" lon="4.73636">
        <ele>174</ele>
        <time>2016-11-12T12:46:31Z</time>
      </trkpt>
      <trkpt lat="45.92498" lon="4.73635">
        <ele>174</ele>
        <time>2016-11-12T12:46:33Z</time>
      </trkpt>
      <trkpt lat="45.92494" lon="4.73635">
        <ele>174</ele>
        <time>2016-11-12T12:46:34Z</time>
      </trkpt>
      <trkpt lat="45.92486" lon="4.73634">
        <ele>174</ele>
        <time>2016-11-12T12:46:36Z</time>
      </trkpt>
      <trkpt lat="45.92483" lon="4.73634">
        <ele>174</ele>
        <time>2016-11-12T12:46:37Z</time>
      </trkpt>
      <trkpt lat="45.92475" lon="4.73637">
        <ele>174</ele>
        <time>2016-11-12T12:46:39Z</time>
      </trkpt>
      <trkpt lat="45.92471" lon="4.7364">
        <ele>174</ele>
        <time>2016-11-12T12:46:40Z</time>
      </trkpt>
      <trkpt lat="45.92468" lon="4.7365">
        <ele>174</ele>
        <time>2016-11-12T12:46:42Z</time>
      </trkpt>
      <trkpt lat="45.92467" lon="4.73657">
        <ele>174</ele>
        <time>2016-11-12T12:46:43Z</time>
      </trkpt>
      <trkpt lat="45.92465" lon="4.73665">
        <ele>174</ele>
        <time>2016-11-12T12:46:45Z</time>
      </trkpt>
      <trkpt lat="45.92464" lon="4.73669">
        <ele>174</ele>
        <time>2016-11-12T12:46:46Z</time>
      </trkpt>
      <trkpt lat="45.92461" lon="4.7368">
        <ele>174</ele>
        <time>2016-11-12T12:46:49Z</time>
      </trkpt>
      <trkpt lat="45.92464" lon="4.73692">
        <ele>174</ele>
        <time>2016-11-12T12:46:51Z</time>
      </trkpt>
      <trkpt lat="45.92464" lon="4.73703">
        <ele>174</ele>
        <time>2016-11-12T12:46:54Z</time>
      </trkpt>
      <trkpt lat="45.92466" lon="4.73705">
        <ele>174</ele>
        <time>2016-11-12T12:46:55Z</time>
      </trkpt>
      <trkpt lat="45.92464" lon="4.73703">
        <ele>174</ele>
        <time>2016-11-12T12:47:14Z</time>
      </trkpt>
      <trkpt lat="45.92475" lon="4.73722">
        <ele>174</ele>
        <time>2016-11-12T12:47:23Z</time>
      </trkpt>
      <trkpt lat="45.92475" lon="4.7372">
        <ele>174</ele>
        <time>2016-11-12T12:47:24Z</time>
      </trkpt>
      <trkpt lat="45.92465" lon="4.73722">
        <ele>174</ele>
        <time>2016-11-12T12:47:25Z</time>
      </trkpt>
      <trkpt lat="45.92456" lon="4.73723">
        <ele>174</ele>
        <time>2016-11-12T12:47:32Z</time>
      </trkpt>
      <trkpt lat="45.92456" lon="4.73724">
        <ele>174</ele>
        <time>2016-11-12T12:47:33Z</time>
      </trkpt>
      <trkpt lat="45.92456" lon="4.73724">
        <ele>174</ele>
        <time>2016-11-12T12:47:35.348Z</time>
      </trkpt>
    </trkseg>
  </trk>
</gpx>